<?xml version='1.0' encoding='UTF-8'?><gpx version="1.1" creator="JPX - https://github.com/jenetics/jpx" xmlns="http://www.topografix.com/GPX/1/1"><trk><trkseg><trkpt lat="37.0387140568692" lon="14.679536819471675"><ele>415.00000000000006</ele><time>2026-03-29T07:07:40.999Z</time></trkpt><trkpt lat="37.03877280821696" lon="14.679591727444366"><ele>415.0</ele><time>2026-03-29T07:08:18Z</time></trkpt><trkpt lat="37.03884767035075" lon="14.679642543981396"><ele>415.0</ele><time>2026-03-29T07:08:20Z</time></trkpt><trkpt lat="37.03885478898257" lon="14.67972323892382"><ele>415.0</ele><time>2026-03-29T07:08:42Z</time></trkpt><trkpt lat="37.03880955733832" lon="14.679866901717824"><ele>415.00000000000006</ele><time>2026-03-29T07:08:44Z</time></trkpt><trkpt lat="37.038776650639" lon="14.679988066327539"><ele>415.0</ele><time>2026-03-29T07:08:45Z</time></trkpt><trkpt lat="37.038740713317495" lon="14.680147654546651"><ele>415.0</ele><time>2026-03-29T07:08:46Z</time></trkpt><trkpt lat="37.038712867985936" lon="14.680237810289093"><ele>415.0</ele><time>2026-03-29T07:08:47Z</time></trkpt><trkpt lat="37.03868850895148" lon="14.680361889359961"><ele>415.0</ele><time>2026-03-29T07:08:48Z</time></trkpt><trkpt lat="37.03865669103654" lon="14.68045007061836"><ele>415.0</ele><time>2026-03-29T07:08:49Z</time></trkpt><trkpt lat="37.038424138128704" lon="14.68054312172055"><ele>415.6</ele><time>2026-03-29T07:08:53Z</time></trkpt><trkpt lat="37.038349849712255" lon="14.680494297829204"><ele>416.2</ele><time>2026-03-29T07:08:54Z</time></trkpt><trkpt lat="37.0382892564054" lon="14.680421381074382"><ele>416.79999999999995</ele><time>2026-03-29T07:08:55Z</time></trkpt><trkpt lat="37.03823587716666" lon="14.680344612287708"><ele>417.4</ele><time>2026-03-29T07:08:56Z</time></trkpt><trkpt lat="37.03815453330618" lon="14.68024882280292"><ele>418.0</ele><time>2026-03-29T07:08:57Z</time></trkpt><trkpt lat="37.038080919537016" lon="14.680167549193614"><ele>418.0</ele><time>2026-03-29T07:08:58Z</time></trkpt><trkpt lat="37.03801923092941" lon="14.68010733603869"><ele>418.0</ele><time>2026-03-29T07:08:59Z</time></trkpt><trkpt lat="37.03793961499227" lon="14.68001394673467"><ele>418.0</ele><time>2026-03-29T07:09:01Z</time></trkpt><trkpt lat="37.037817902259015" lon="14.680034088989377"><ele>418.0</ele><time>2026-03-29T07:09:03Z</time></trkpt><trkpt lat="37.03775477376502" lon="14.680093072575781"><ele>418.0</ele><time>2026-03-29T07:09:04Z</time></trkpt><trkpt lat="37.037687429495406" lon="14.680122329767176"><ele>418.00000000000006</ele><time>2026-03-29T07:09:05Z</time></trkpt><trkpt lat="37.03761277473977" lon="14.680137138291144"><ele>418.0</ele><time>2026-03-29T07:09:06Z</time></trkpt><trkpt lat="37.03753176578665" lon="14.68021901769265"><ele>418.0</ele><time>2026-03-29T07:09:08Z</time></trkpt><trkpt lat="37.037551050893605" lon="14.68035610447316"><ele>418.0</ele><time>2026-03-29T07:09:10Z</time></trkpt><trkpt lat="37.03759621375169" lon="14.680422540737114"><ele>418.00000000000006</ele><time>2026-03-29T07:09:11Z</time></trkpt><trkpt lat="37.037634357323455" lon="14.680488273860918"><ele>418.0</ele><time>2026-03-29T07:09:12Z</time></trkpt><trkpt lat="37.03762550035985" lon="14.680595137931224"><ele>419.0</ele><time>2026-03-29T07:09:14Z</time></trkpt><trkpt lat="37.03756674905964" lon="14.680720714804956"><ele>420.0</ele><time>2026-03-29T07:09:16Z</time></trkpt><trkpt lat="37.03751035517231" lon="14.68085399721444"><ele>421.0</ele><time>2026-03-29T07:09:18Z</time></trkpt><trkpt lat="37.03743340214817" lon="14.680988942469046"><ele>422.0</ele><time>2026-03-29T07:09:20Z</time></trkpt><trkpt lat="37.037368315241665" lon="14.681050937241055"><ele>422.75</ele><time>2026-03-29T07:09:21Z</time></trkpt><trkpt lat="37.03728437376491" lon="14.68105941671909"><ele>423.5</ele><time>2026-03-29T07:09:22Z</time></trkpt><trkpt lat="37.03717334763602" lon="14.681005915218929"><ele>424.25</ele><time>2026-03-29T07:09:23Z</time></trkpt><trkpt lat="37.037058393231845" lon="14.680909222227315"><ele>425.0</ele><time>2026-03-29T07:09:24Z</time></trkpt><trkpt lat="37.03694824416899" lon="14.680847275294195"><ele>425.0</ele><time>2026-03-29T07:09:25Z</time></trkpt><trkpt lat="37.03684487035721" lon="14.680850285680629"><ele>425.0</ele><time>2026-03-29T07:09:26Z</time></trkpt><trkpt lat="37.03674378013162" lon="14.680871906841874"><ele>425.0</ele><time>2026-03-29T07:09:27Z</time></trkpt><trkpt lat="37.03664393714558" lon="14.680878453694596"><ele>425.0</ele><time>2026-03-29T07:09:28Z</time></trkpt><trkpt lat="37.036525392872214" lon="14.680828053694029"><ele>425.0</ele><time>2026-03-29T07:09:29Z</time></trkpt><trkpt lat="37.036392618940496" lon="14.680742773204456"><ele>424.66666666666663</ele><time>2026-03-29T07:09:30Z</time></trkpt><trkpt lat="37.03625616948533" lon="14.68065428711309"><ele>424.33333333333337</ele><time>2026-03-29T07:09:31Z</time></trkpt><trkpt lat="37.03608877417734" lon="14.680559019395826"><ele>424.0</ele><time>2026-03-29T07:09:32Z</time></trkpt><trkpt lat="37.03590676313566" lon="14.680459202695173"><ele>424.25</ele><time>2026-03-29T07:09:33Z</time></trkpt><trkpt lat="37.0357513710209" lon="14.680382297198465"><ele>424.5</ele><time>2026-03-29T07:09:34Z</time></trkpt><trkpt lat="37.03563335447522" lon="14.680315057348377"><ele>424.75</ele><time>2026-03-29T07:09:35Z</time></trkpt><trkpt lat="37.035553060091985" lon="14.680263743405103"><ele>425.0</ele><time>2026-03-29T07:09:36Z</time></trkpt><trkpt lat="37.03549339075495" lon="14.680223959502069"><ele>423.8</ele><time>2026-03-29T07:09:37Z</time></trkpt><trkpt lat="37.03540995852171" lon="14.68017854580516"><ele>422.6</ele><time>2026-03-29T07:09:39Z</time></trkpt><trkpt lat="37.0353500351846" lon="14.680017688638443"><ele>421.4</ele><time>2026-03-29T07:09:41Z</time></trkpt><trkpt lat="37.0353258146991" lon="14.679900585304509"><ele>420.2</ele><time>2026-03-29T07:09:42Z</time></trkpt><trkpt lat="37.03529534325617" lon="14.679792039992572"><ele>419.0</ele><time>2026-03-29T07:09:43Z</time></trkpt><trkpt lat="37.03526201918224" lon="14.679707031815287"><ele>418.99999999999994</ele><time>2026-03-29T07:09:44Z</time></trkpt><trkpt lat="37.03522363485573" lon="14.679637025534971"><ele>419.0</ele><time>2026-03-29T07:09:45Z</time></trkpt><trkpt lat="37.03517253369765" lon="14.67958863066797"><ele>419.0</ele><time>2026-03-29T07:09:46Z</time></trkpt><trkpt lat="37.035115734941606" lon="14.679549490904215"><ele>419.0</ele><time>2026-03-29T07:09:47Z</time></trkpt><trkpt lat="37.0350512729604" lon="14.679524956721353"><ele>419.0</ele><time>2026-03-29T07:09:48Z</time></trkpt><trkpt lat="37.03498390624635" lon="14.679496065532755"><ele>418.99999999999994</ele><time>2026-03-29T07:09:49Z</time></trkpt><trkpt lat="37.034922777549596" lon="14.67944482268166"><ele>419.0</ele><time>2026-03-29T07:09:50Z</time></trkpt><trkpt lat="37.034887163123585" lon="14.679362865051539"><ele>418.4</ele><time>2026-03-29T07:09:51Z</time></trkpt><trkpt lat="37.034841372825234" lon="14.679224734514579"><ele>417.79999999999995</ele><time>2026-03-29T07:09:53Z</time></trkpt><trkpt lat="37.03480222685592" lon="14.679091850752291"><ele>417.20000000000005</ele><time>2026-03-29T07:09:55Z</time></trkpt><trkpt lat="37.03471636134479" lon="14.678998743774363"><ele>416.6</ele><time>2026-03-29T07:09:57Z</time></trkpt><trkpt lat="37.034622107514274" lon="14.678960989096177"><ele>416.0</ele><time>2026-03-29T07:09:59Z</time></trkpt><trkpt lat="37.03454553798194" lon="14.678913779509553"><ele>415.99999999999994</ele><time>2026-03-29T07:10:02Z</time></trkpt><trkpt lat="37.034616084971844" lon="14.67892665552904"><ele>416.0</ele><time>2026-03-29T07:21:31Z</time></trkpt><trkpt lat="37.03467555726132" lon="14.678985239771054"><ele>416.0</ele><time>2026-03-29T07:21:41Z</time></trkpt><trkpt lat="37.03476422561985" lon="14.678964493283752"><ele>416.0</ele><time>2026-03-29T07:21:44Z</time></trkpt><trkpt lat="37.03484345059028" lon="14.678985283762884"><ele>415.99999999999994</ele><time>2026-03-29T07:21:47Z</time></trkpt><trkpt lat="37.034898797221075" lon="14.679041909805276"><ele>416.0</ele><time>2026-03-29T07:21:50Z</time></trkpt><trkpt lat="37.0348758022545" lon="14.679165881397005"><ele>415.99999999999994</ele><time>2026-03-29T07:21:52Z</time></trkpt><trkpt lat="37.03488032895713" lon="14.679277993605451"><ele>416.0</ele><time>2026-03-29T07:21:54Z</time></trkpt><trkpt lat="37.03489764014678" lon="14.67938354793564"><ele>416.0</ele><time>2026-03-29T07:21:56Z</time></trkpt><trkpt lat="37.03486566189113" lon="14.679462273887802"><ele>416.0</ele><time>2026-03-29T07:21:58Z</time></trkpt><trkpt lat="37.03477358661539" lon="14.679505434090839"><ele>415.99999999999994</ele><time>2026-03-29T07:22:00Z</time></trkpt><trkpt lat="37.034694406655156" lon="14.679481111805595"><ele>416.0</ele><time>2026-03-29T07:22:01Z</time></trkpt><trkpt lat="37.03462296341221" lon="14.679456055703916"><ele>416.0</ele><time>2026-03-29T07:22:02Z</time></trkpt><trkpt lat="37.03452457783762" lon="14.679430521550561"><ele>416.0</ele><time>2026-03-29T07:22:03Z</time></trkpt><trkpt lat="37.03441978757932" lon="14.679413157066607"><ele>416.0</ele><time>2026-03-29T07:22:04Z</time></trkpt><trkpt lat="37.034290730030854" lon="14.679394334533724"><ele>416.0</ele><time>2026-03-29T07:22:05Z</time></trkpt><trkpt lat="37.0341707234946" lon="14.679358559021285"><ele>416.0</ele><time>2026-03-29T07:22:06Z</time></trkpt><trkpt lat="37.03406871388342" lon="14.679337628719654"><ele>416.0</ele><time>2026-03-29T07:22:07Z</time></trkpt><trkpt lat="37.03397605470584" lon="14.679317690773074"><ele>416.0</ele><time>2026-03-29T07:22:08Z</time></trkpt><trkpt lat="37.03388174175849" lon="14.679299734080457"><ele>416.0</ele><time>2026-03-29T07:22:09Z</time></trkpt><trkpt lat="37.03377439151433" lon="14.679275396790393"><ele>416.0</ele><time>2026-03-29T07:22:10Z</time></trkpt><trkpt lat="37.03366016523823" lon="14.679267634218139"><ele>416.0</ele><time>2026-03-29T07:22:11Z</time></trkpt><trkpt lat="37.033545192164155" lon="14.679254955492468"><ele>416.0</ele><time>2026-03-29T07:22:12Z</time></trkpt><trkpt lat="37.03343374401923" lon="14.679262274008384"><ele>416.0</ele><time>2026-03-29T07:22:13Z</time></trkpt><trkpt lat="37.0333399837193" lon="14.679240620317556"><ele>416.0</ele><time>2026-03-29T07:22:14Z</time></trkpt><trkpt lat="37.033238880521864" lon="14.679239262772395"><ele>416.0</ele><time>2026-03-29T07:22:15Z</time></trkpt><trkpt lat="37.03313650841477" lon="14.679227766155293"><ele>415.8</ele><time>2026-03-29T07:22:16Z</time></trkpt><trkpt lat="37.03302768226798" lon="14.67923624694067"><ele>415.6</ele><time>2026-03-29T07:22:17Z</time></trkpt><trkpt lat="37.03291266939434" lon="14.679231822491122"><ele>415.4</ele><time>2026-03-29T07:22:18Z</time></trkpt><trkpt lat="37.032795411116425" lon="14.679223484704622"><ele>415.2</ele><time>2026-03-29T07:22:19Z</time></trkpt><trkpt lat="37.03269441037851" lon="14.679214986832223"><ele>415.0</ele><time>2026-03-29T07:22:20Z</time></trkpt><trkpt lat="37.03258608894459" lon="14.679204594677463"><ele>414.5</ele><time>2026-03-29T07:22:21Z</time></trkpt><trkpt lat="37.03246437181638" lon="14.679203333572335"><ele>414.0</ele><time>2026-03-29T07:22:22Z</time></trkpt><trkpt lat="37.03232446889681" lon="14.679213789896046"><ele>413.5</ele><time>2026-03-29T07:22:23Z</time></trkpt><trkpt lat="37.0321907491989" lon="14.679209733027232"><ele>413.0</ele><time>2026-03-29T07:22:24Z</time></trkpt><trkpt lat="37.0320549788736" lon="14.679206270343439"><ele>413.0</ele><time>2026-03-29T07:22:25Z</time></trkpt><trkpt lat="37.0319065924987" lon="14.679197913642898"><ele>413.0</ele><time>2026-03-29T07:22:26Z</time></trkpt><trkpt lat="37.03172378678974" lon="14.67918123462783"><ele>413.0</ele><time>2026-03-29T07:22:27Z</time></trkpt><trkpt lat="37.03153844286635" lon="14.679173829189576"><ele>411.66666666666663</ele><time>2026-03-29T07:22:28Z</time></trkpt><trkpt lat="37.03136161569895" lon="14.67915832531927"><ele>410.33333333333337</ele><time>2026-03-29T07:22:29Z</time></trkpt><trkpt lat="37.03121170319007" lon="14.679132315515744"><ele>409.0</ele><time>2026-03-29T07:22:30Z</time></trkpt><trkpt lat="37.03105719877746" lon="14.679105966278362"><ele>409.0</ele><time>2026-03-29T07:22:31Z</time></trkpt><trkpt lat="37.03089204227253" lon="14.679092387200285"><ele>409.0</ele><time>2026-03-29T07:22:32Z</time></trkpt><trkpt lat="37.03072858858161" lon="14.679095413800853"><ele>409.0</ele><time>2026-03-29T07:22:33Z</time></trkpt><trkpt lat="37.03056390898949" lon="14.679092591820963"><ele>407.0</ele><time>2026-03-29T07:22:34Z</time></trkpt><trkpt lat="37.03041141867149" lon="14.679071459853454"><ele>405.0</ele><time>2026-03-29T07:22:35Z</time></trkpt><trkpt lat="37.030260503858784" lon="14.679059333831189"><ele>403.0</ele><time>2026-03-29T07:22:36Z</time></trkpt><trkpt lat="37.03011375439806" lon="14.679056115837946"><ele>403.0</ele><time>2026-03-29T07:22:37Z</time></trkpt><trkpt lat="37.029982466975675" lon="14.679051804342977"><ele>403.0</ele><time>2026-03-29T07:22:38Z</time></trkpt><trkpt lat="37.02985873589542" lon="14.679036740056553"><ele>403.0</ele><time>2026-03-29T07:22:39Z</time></trkpt><trkpt lat="37.02974236054636" lon="14.679017602007352"><ele>403.0</ele><time>2026-03-29T07:22:40Z</time></trkpt><trkpt lat="37.029625064850634" lon="14.67901353288401"><ele>404.25</ele><time>2026-03-29T07:22:41Z</time></trkpt><trkpt lat="37.02950747993132" lon="14.679009833096883"><ele>405.5</ele><time>2026-03-29T07:22:42Z</time></trkpt><trkpt lat="37.02938648305466" lon="14.679010177497307"><ele>406.75</ele><time>2026-03-29T07:22:43Z</time></trkpt><trkpt lat="37.02925867492242" lon="14.67899672790564"><ele>408.0</ele><time>2026-03-29T07:22:44Z</time></trkpt><trkpt lat="37.0291282364202" lon="14.678996424229686"><ele>408.75</ele><time>2026-03-29T07:22:45Z</time></trkpt><trkpt lat="37.028986795908956" lon="14.678981922920874"><ele>409.5</ele><time>2026-03-29T07:22:46Z</time></trkpt><trkpt lat="37.028843721410006" lon="14.678956936108417"><ele>410.25</ele><time>2026-03-29T07:22:47Z</time></trkpt><trkpt lat="37.028716027261446" lon="14.678927594806188"><ele>411.0</ele><time>2026-03-29T07:22:48Z</time></trkpt><trkpt lat="37.02860352490297" lon="14.678877130918389"><ele>411.0</ele><time>2026-03-29T07:22:49Z</time></trkpt><trkpt lat="37.02849625434961" lon="14.678812755829725"><ele>411.0</ele><time>2026-03-29T07:22:50Z</time></trkpt><trkpt lat="37.02839965741632" lon="14.678727820403045"><ele>411.0</ele><time>2026-03-29T07:22:51Z</time></trkpt><trkpt lat="37.02830294272314" lon="14.678628075119343"><ele>411.0</ele><time>2026-03-29T07:22:52Z</time></trkpt><trkpt lat="37.0282030402806" lon="14.67853557549634"><ele>410.75</ele><time>2026-03-29T07:22:53Z</time></trkpt><trkpt lat="37.02809021043749" lon="14.678430787667768"><ele>410.5</ele><time>2026-03-29T07:22:54Z</time></trkpt><trkpt lat="37.02797227124868" lon="14.678322315656677"><ele>410.25</ele><time>2026-03-29T07:22:55Z</time></trkpt><trkpt lat="37.027843544907384" lon="14.678216744335446"><ele>410.0</ele><time>2026-03-29T07:22:56Z</time></trkpt><trkpt lat="37.02771636384819" lon="14.678092435018845"><ele>410.0</ele><time>2026-03-29T07:22:57Z</time></trkpt><trkpt lat="37.02759463422887" lon="14.677968284811302"><ele>410.0</ele><time>2026-03-29T07:22:58Z</time></trkpt><trkpt lat="37.027469851137724" lon="14.677845116182482"><ele>410.0</ele><time>2026-03-29T07:22:59Z</time></trkpt><trkpt lat="37.027341905734374" lon="14.677716533525919"><ele>409.3333333333333</ele><time>2026-03-29T07:23:00Z</time></trkpt><trkpt lat="37.02720520102538" lon="14.677588827841491"><ele>408.66666666666663</ele><time>2026-03-29T07:23:01Z</time></trkpt><trkpt lat="37.027060717894194" lon="14.67746522062317"><ele>408.0</ele><time>2026-03-29T07:23:02Z</time></trkpt><trkpt lat="37.02691376803157" lon="14.677345188107534"><ele>408.0</ele><time>2026-03-29T07:23:03Z</time></trkpt><trkpt lat="37.02675878437962" lon="14.67720525339719"><ele>408.0</ele><time>2026-03-29T07:23:04Z</time></trkpt><trkpt lat="37.02659703493111" lon="14.677065612517993"><ele>408.0</ele><time>2026-03-29T07:23:05Z</time></trkpt><trkpt lat="37.02645291075786" lon="14.676923483370974"><ele>407.66666666666663</ele><time>2026-03-29T07:23:06Z</time></trkpt><trkpt lat="37.02631890682015" lon="14.676803997081569"><ele>407.3333333333333</ele><time>2026-03-29T07:23:07Z</time></trkpt><trkpt lat="37.02618687706956" lon="14.676699159112092"><ele>407.0</ele><time>2026-03-29T07:23:08Z</time></trkpt><trkpt lat="37.026047258666686" lon="14.676596437364124"><ele>407.0</ele><time>2026-03-29T07:23:09Z</time></trkpt><trkpt lat="37.025896555625536" lon="14.676507994653562"><ele>407.0</ele><time>2026-03-29T07:23:10Z</time></trkpt><trkpt lat="37.02574655874469" lon="14.67642944809237"><ele>407.0</ele><time>2026-03-29T07:23:11Z</time></trkpt><trkpt lat="37.025607624712755" lon="14.67637851741796"><ele>407.66666666666663</ele><time>2026-03-29T07:23:12Z</time></trkpt><trkpt lat="37.02546232475501" lon="14.676328686195216"><ele>408.33333333333337</ele><time>2026-03-29T07:23:13Z</time></trkpt><trkpt lat="37.025313499567254" lon="14.676275175875158"><ele>409.0</ele><time>2026-03-29T07:23:14Z</time></trkpt><trkpt lat="37.02516839964639" lon="14.676217358692325"><ele>409.0</ele><time>2026-03-29T07:23:15Z</time></trkpt><trkpt lat="37.02502599983027" lon="14.676160371053767"><ele>409.0</ele><time>2026-03-29T07:23:16Z</time></trkpt><trkpt lat="37.024882883456876" lon="14.676098300671383"><ele>409.0</ele><time>2026-03-29T07:23:17Z</time></trkpt><trkpt lat="37.024733897237184" lon="14.676034954458292"><ele>408.0</ele><time>2026-03-29T07:23:18Z</time></trkpt><trkpt lat="37.02458156446937" lon="14.675978724042828"><ele>407.0</ele><time>2026-03-29T07:23:19Z</time></trkpt><trkpt lat="37.024425831422946" lon="14.675908713630486"><ele>406.0</ele><time>2026-03-29T07:23:20Z</time></trkpt><trkpt lat="37.0242491564957" lon="14.675830750709864"><ele>405.33333333333337</ele><time>2026-03-29T07:23:21Z</time></trkpt><trkpt lat="37.0240528757968" lon="14.675726577468524"><ele>404.66666666666663</ele><time>2026-03-29T07:23:22Z</time></trkpt><trkpt lat="37.02388375478972" lon="14.675633884395282"><ele>404.0</ele><time>2026-03-29T07:23:23Z</time></trkpt><trkpt lat="37.02373567317138" lon="14.675556490312331"><ele>404.0</ele><time>2026-03-29T07:23:24Z</time></trkpt><trkpt lat="37.023595636067846" lon="14.675477188103086"><ele>404.0</ele><time>2026-03-29T07:23:25Z</time></trkpt><trkpt lat="37.02346961386366" lon="14.675410481695716"><ele>404.0</ele><time>2026-03-29T07:23:26Z</time></trkpt><trkpt lat="37.02334993300954" lon="14.675351379399839"><ele>404.0</ele><time>2026-03-29T07:23:27Z</time></trkpt><trkpt lat="37.02323227837237" lon="14.675289680943724"><ele>402.5</ele><time>2026-03-29T07:23:28Z</time></trkpt><trkpt lat="37.023112232381266" lon="14.675240488870966"><ele>401.0</ele><time>2026-03-29T07:23:29Z</time></trkpt><trkpt lat="37.022974090188114" lon="14.675176037275152"><ele>399.5</ele><time>2026-03-29T07:23:30Z</time></trkpt><trkpt lat="37.0228231878271" lon="14.67511080597286"><ele>398.0</ele><time>2026-03-29T07:23:31Z</time></trkpt><trkpt lat="37.02265372971524" lon="14.675042492799282"><ele>398.0</ele><time>2026-03-29T07:23:32Z</time></trkpt><trkpt lat="37.0224920661741" lon="14.67499843203916"><ele>398.0</ele><time>2026-03-29T07:23:33Z</time></trkpt><trkpt lat="37.02232799866713" lon="14.67497324981971"><ele>398.0</ele><time>2026-03-29T07:23:34Z</time></trkpt><trkpt lat="37.02217003502875" lon="14.6749517200707"><ele>397.75</ele><time>2026-03-29T07:23:35Z</time></trkpt><trkpt lat="37.02201888116591" lon="14.674941462261307"><ele>397.5</ele><time>2026-03-29T07:23:36Z</time></trkpt><trkpt lat="37.02187576104142" lon="14.674948244881882"><ele>397.25</ele><time>2026-03-29T07:23:37Z</time></trkpt><trkpt lat="37.02174634454042" lon="14.67495483621625"><ele>397.0</ele><time>2026-03-29T07:23:38Z</time></trkpt><trkpt lat="37.02163112789813" lon="14.674962834192103"><ele>396.20000000000005</ele><time>2026-03-29T07:23:39Z</time></trkpt><trkpt lat="37.02152978586867" lon="14.674958128069893"><ele>395.4</ele><time>2026-03-29T07:23:40Z</time></trkpt><trkpt lat="37.02143481541046" lon="14.674957840672613"><ele>394.6</ele><time>2026-03-29T07:23:41Z</time></trkpt><trkpt lat="37.02133119819398" lon="14.674958030114535"><ele>393.79999999999995</ele><time>2026-03-29T07:23:42Z</time></trkpt><trkpt lat="37.02120441786222" lon="14.674958411789515"><ele>393.0</ele><time>2026-03-29T07:23:43Z</time></trkpt><trkpt lat="37.02106280052051" lon="14.674961736387317"><ele>393.0</ele><time>2026-03-29T07:23:44Z</time></trkpt><trkpt lat="37.02092947759958" lon="14.67492928947318"><ele>393.0</ele><time>2026-03-29T07:23:45Z</time></trkpt><trkpt lat="37.0208001931147" lon="14.674924873364786"><ele>393.0</ele><time>2026-03-29T07:23:46Z</time></trkpt><trkpt lat="37.020685942237286" lon="14.674927724130708"><ele>393.0</ele><time>2026-03-29T07:23:47Z</time></trkpt><trkpt lat="37.02057368542037" lon="14.674920100823213"><ele>393.0</ele><time>2026-03-29T07:23:48Z</time></trkpt><trkpt lat="37.02046257507748" lon="14.674906823421756"><ele>393.0</ele><time>2026-03-29T07:23:49Z</time></trkpt><trkpt lat="37.02035358467064" lon="14.674886790494298"><ele>393.0</ele><time>2026-03-29T07:23:50Z</time></trkpt><trkpt lat="37.020228183838064" lon="14.674862832027253"><ele>393.0</ele><time>2026-03-29T07:23:51Z</time></trkpt><trkpt lat="37.02007391730972" lon="14.674793720361965"><ele>393.33333333333337</ele><time>2026-03-29T07:23:52Z</time></trkpt><trkpt lat="37.01990666827206" lon="14.674681013762077"><ele>393.6666666666667</ele><time>2026-03-29T07:23:53Z</time></trkpt><trkpt lat="37.019732254873965" lon="14.674505738958185"><ele>394.0</ele><time>2026-03-29T07:23:54Z</time></trkpt><trkpt lat="37.019561222114326" lon="14.674308554711622"><ele>394.0</ele><time>2026-03-29T07:23:55Z</time></trkpt><trkpt lat="37.01942206537971" lon="14.674114362298395"><ele>394.0</ele><time>2026-03-29T07:23:56Z</time></trkpt><trkpt lat="37.01931731961967" lon="14.673954075019262"><ele>394.0</ele><time>2026-03-29T07:23:57Z</time></trkpt><trkpt lat="37.019233322272754" lon="14.673814598827958"><ele>394.0</ele><time>2026-03-29T07:23:58Z</time></trkpt><trkpt lat="37.019180855337275" lon="14.673700854611308"><ele>394.0</ele><time>2026-03-29T07:23:59Z</time></trkpt><trkpt lat="37.01914455659049" lon="14.67361967669419"><ele>394.0</ele><time>2026-03-29T07:24:00Z</time></trkpt><trkpt lat="37.019088120926135" lon="14.673525910396458"><ele>394.0</ele><time>2026-03-29T07:24:02Z</time></trkpt><trkpt lat="37.019015176133905" lon="14.673536594084114"><ele>394.0</ele><time>2026-03-29T07:24:04Z</time></trkpt><trkpt lat="37.01894823456348" lon="14.67366643329476"><ele>394.83333333333337</ele><time>2026-03-29T07:24:06Z</time></trkpt><trkpt lat="37.018898345358764" lon="14.673782515412814"><ele>395.6666666666667</ele><time>2026-03-29T07:24:08Z</time></trkpt><trkpt lat="37.01881683661421" lon="14.673799359376519"><ele>396.5</ele><time>2026-03-29T07:24:09Z</time></trkpt><trkpt lat="37.018739118349" lon="14.673804277602057"><ele>397.33333333333337</ele><time>2026-03-29T07:24:10Z</time></trkpt><trkpt lat="37.018654184487346" lon="14.673830097741144"><ele>398.1666666666667</ele><time>2026-03-29T07:24:11Z</time></trkpt><trkpt lat="37.01857391370337" lon="14.67388165667193"><ele>399.0</ele><time>2026-03-29T07:24:12Z</time></trkpt><trkpt lat="37.018469963334596" lon="14.673935433027161"><ele>399.0</ele><time>2026-03-29T07:24:13Z</time></trkpt><trkpt lat="37.01837388094626" lon="14.67395620856469"><ele>399.0</ele><time>2026-03-29T07:24:14Z</time></trkpt><trkpt lat="37.0182998969948" lon="14.67396365052166"><ele>399.0</ele><time>2026-03-29T07:24:15Z</time></trkpt><trkpt lat="37.01821798718919" lon="14.674012083654608"><ele>399.0</ele><time>2026-03-29T07:24:16Z</time></trkpt><trkpt lat="37.01811927278343" lon="14.674064277508693"><ele>399.0</ele><time>2026-03-29T07:24:17Z</time></trkpt><trkpt lat="37.018041814848196" lon="14.67411936779162"><ele>399.3333333333333</ele><time>2026-03-29T07:24:18Z</time></trkpt><trkpt lat="37.017967324278466" lon="14.67415780794578"><ele>399.66666666666663</ele><time>2026-03-29T07:24:19Z</time></trkpt><trkpt lat="37.01790644304928" lon="14.674205632200191"><ele>400.0</ele><time>2026-03-29T07:24:20Z</time></trkpt><trkpt lat="37.0178304225473" lon="14.674335945353512"><ele>400.3333333333333</ele><time>2026-03-29T07:24:22Z</time></trkpt><trkpt lat="37.01784517580065" lon="14.674438320909204"><ele>400.66666666666663</ele><time>2026-03-29T07:24:23Z</time></trkpt><trkpt lat="37.017819241515525" lon="14.674512040440067"><ele>401.0</ele><time>2026-03-29T07:24:24Z</time></trkpt><trkpt lat="37.01774756335565" lon="14.674631121525268"><ele>402.16666666666663</ele><time>2026-03-29T07:24:26Z</time></trkpt><trkpt lat="37.0176711036039" lon="14.674676810689506"><ele>403.3333333333333</ele><time>2026-03-29T07:24:27Z</time></trkpt><trkpt lat="37.01759154361057" lon="14.674710925405108"><ele>404.5</ele><time>2026-03-29T07:24:28Z</time></trkpt><trkpt lat="37.01752009325155" lon="14.674733439992528"><ele>405.66666666666663</ele><time>2026-03-29T07:24:29Z</time></trkpt><trkpt lat="37.017428126362766" lon="14.67474990969739"><ele>406.8333333333333</ele><time>2026-03-29T07:24:30Z</time></trkpt><trkpt lat="37.017327341195795" lon="14.674763052051171"><ele>408.0</ele><time>2026-03-29T07:24:31Z</time></trkpt><trkpt lat="37.01722250974359" lon="14.674759164526908"><ele>410.2</ele><time>2026-03-29T07:24:32Z</time></trkpt><trkpt lat="37.017128305944084" lon="14.674740985032463"><ele>412.4</ele><time>2026-03-29T07:24:33Z</time></trkpt><trkpt lat="37.017012373339725" lon="14.674716410591627"><ele>414.59999999999997</ele><time>2026-03-29T07:24:34Z</time></trkpt><trkpt lat="37.01691052676425" lon="14.674693540412353"><ele>416.79999999999995</ele><time>2026-03-29T07:24:35Z</time></trkpt><trkpt lat="37.0168074485705" lon="14.674628466142417"><ele>419.0</ele><time>2026-03-29T07:24:36Z</time></trkpt><trkpt lat="37.0167088516155" lon="14.674571828459236"><ele>419.0</ele><time>2026-03-29T07:24:37Z</time></trkpt><trkpt lat="37.01661605462863" lon="14.674518823035003"><ele>419.0</ele><time>2026-03-29T07:24:38Z</time></trkpt><trkpt lat="37.016523599472016" lon="14.67448088771179"><ele>419.0</ele><time>2026-03-29T07:24:39Z</time></trkpt><trkpt lat="37.01643221978994" lon="14.674458074120034"><ele>419.0</ele><time>2026-03-29T07:24:40Z</time></trkpt><trkpt lat="37.016343337549294" lon="14.674451512845733"><ele>419.0</ele><time>2026-03-29T07:24:41Z</time></trkpt><trkpt lat="37.01627379125551" lon="14.674457667236162"><ele>418.99999999999994</ele><time>2026-03-29T07:24:42Z</time></trkpt><trkpt lat="37.01618444700634" lon="14.674514965345073"><ele>419.0</ele><time>2026-03-29T07:24:44Z</time></trkpt><trkpt lat="37.01615516879773" lon="14.67459332794477"><ele>419.0</ele><time>2026-03-29T07:24:45Z</time></trkpt><trkpt lat="37.01617387317251" lon="14.674679982596937"><ele>419.0</ele><time>2026-03-29T07:24:46Z</time></trkpt><trkpt lat="37.016203696572035" lon="14.674758491062027"><ele>419.0</ele><time>2026-03-29T07:24:47Z</time></trkpt><trkpt lat="37.01622681522597" lon="14.67483708321203"><ele>418.99999999999994</ele><time>2026-03-29T07:24:48Z</time></trkpt><trkpt lat="37.01621666757004" lon="14.674919437018277"><ele>419.0</ele><time>2026-03-29T07:24:49Z</time></trkpt><trkpt lat="37.016141538636084" lon="14.675068853408552"><ele>419.0</ele><time>2026-03-29T07:24:51Z</time></trkpt><trkpt lat="37.01607264780979" lon="14.675138663569404"><ele>419.0</ele><time>2026-03-29T07:24:52Z</time></trkpt><trkpt lat="37.01601155009526" lon="14.675194602429714"><ele>419.0</ele><time>2026-03-29T07:24:53Z</time></trkpt><trkpt lat="37.01592504505395" lon="14.675219329147222"><ele>419.0</ele><time>2026-03-29T07:24:54Z</time></trkpt><trkpt lat="37.01579144829143" lon="14.675206484048926"><ele>419.0</ele><time>2026-03-29T07:24:55Z</time></trkpt><trkpt lat="37.01564648802908" lon="14.675198211837852"><ele>419.75</ele><time>2026-03-29T07:24:56Z</time></trkpt><trkpt lat="37.01547496751005" lon="14.675191499138961"><ele>420.5</ele><time>2026-03-29T07:24:57Z</time></trkpt><trkpt lat="37.01535742320659" lon="14.675170342538228"><ele>421.25</ele><time>2026-03-29T07:24:58Z</time></trkpt><trkpt lat="37.015249699336955" lon="14.675168322144932"><ele>422.0</ele><time>2026-03-29T07:24:59Z</time></trkpt><trkpt lat="37.01514851539189" lon="14.675188213822265"><ele>421.99999999999994</ele><time>2026-03-29T07:25:00Z</time></trkpt><trkpt lat="37.01506085301799" lon="14.675241493487192"><ele>422.0</ele><time>2026-03-29T07:25:01Z</time></trkpt><trkpt lat="37.01497154288997" lon="14.675285840705419"><ele>422.0</ele><time>2026-03-29T07:25:02Z</time></trkpt><trkpt lat="37.01489816233883" lon="14.67530511302458"><ele>422.0</ele><time>2026-03-29T07:25:03Z</time></trkpt><trkpt lat="37.01482898917633" lon="14.675344230842795"><ele>421.99999999999994</ele><time>2026-03-29T07:25:04Z</time></trkpt><trkpt lat="37.014751421892115" lon="14.67534765927485"><ele>422.0</ele><time>2026-03-29T07:25:05Z</time></trkpt><trkpt lat="37.014630575438424" lon="14.675296748104039"><ele>423.25</ele><time>2026-03-29T07:25:07Z</time></trkpt><trkpt lat="37.01453541308828" lon="14.67522347593156"><ele>424.5</ele><time>2026-03-29T07:25:08Z</time></trkpt><trkpt lat="37.01443949015605" lon="14.675125113578519"><ele>425.75</ele><time>2026-03-29T07:25:09Z</time></trkpt><trkpt lat="37.014332949794024" lon="14.675022667217032"><ele>427.0</ele><time>2026-03-29T07:25:10Z</time></trkpt><trkpt lat="37.01421399408395" lon="14.674940324517761"><ele>427.5</ele><time>2026-03-29T07:25:11Z</time></trkpt><trkpt lat="37.01411757460459" lon="14.674904544277775"><ele>428.0</ele><time>2026-03-29T07:25:12Z</time></trkpt><trkpt lat="37.01401708913381" lon="14.674874883013462"><ele>428.5</ele><time>2026-03-29T07:25:13Z</time></trkpt><trkpt lat="37.01389567522269" lon="14.674860779884403"><ele>429.0</ele><time>2026-03-29T07:25:14Z</time></trkpt><trkpt lat="37.01373844371548" lon="14.674858180103207"><ele>429.0</ele><time>2026-03-29T07:25:15Z</time></trkpt><trkpt lat="37.01356292125227" lon="14.674845592664688"><ele>429.0</ele><time>2026-03-29T07:25:16Z</time></trkpt><trkpt lat="37.013405247170624" lon="14.674829599664037"><ele>429.0</ele><time>2026-03-29T07:25:17Z</time></trkpt><trkpt lat="37.01325973660768" lon="14.674826028179764"><ele>428.75</ele><time>2026-03-29T07:25:18Z</time></trkpt><trkpt lat="37.013112420253705" lon="14.674804547007174"><ele>428.5</ele><time>2026-03-29T07:25:19Z</time></trkpt><trkpt lat="37.01297656218461" lon="14.67478292235225"><ele>428.25</ele><time>2026-03-29T07:25:20Z</time></trkpt><trkpt lat="37.01282101694441" lon="14.674752624159028"><ele>428.0</ele><time>2026-03-29T07:25:21Z</time></trkpt><trkpt lat="37.012669866122465" lon="14.67473830678411"><ele>428.0</ele><time>2026-03-29T07:25:22Z</time></trkpt><trkpt lat="37.012564151811915" lon="14.674719932837785"><ele>427.99999999999994</ele><time>2026-03-29T07:25:23Z</time></trkpt><trkpt lat="37.01246856740823" lon="14.674694594001005"><ele>427.99999999999994</ele><time>2026-03-29T07:25:24Z</time></trkpt><trkpt lat="37.01236665387532" lon="14.674667490434484"><ele>428.0</ele><time>2026-03-29T07:25:25Z</time></trkpt><trkpt lat="37.01228087683319" lon="14.674639623457459"><ele>428.0</ele><time>2026-03-29T07:25:26Z</time></trkpt><trkpt lat="37.01220226644554" lon="14.67460963774065"><ele>427.3333333333333</ele><time>2026-03-29T07:25:27Z</time></trkpt><trkpt lat="37.01213192427278" lon="14.67459097719933"><ele>426.66666666666663</ele><time>2026-03-29T07:25:28Z</time></trkpt><trkpt lat="37.01203817821188" lon="14.674546627356879"><ele>426.0</ele><time>2026-03-29T07:25:30Z</time></trkpt><trkpt lat="37.012025229103884" lon="14.674450264538798"><ele>425.33333333333337</ele><time>2026-03-29T07:25:33Z</time></trkpt><trkpt lat="37.0120449064494" lon="14.674338313112976"><ele>424.6666666666667</ele><time>2026-03-29T07:25:35Z</time></trkpt><trkpt lat="37.01203041563911" lon="14.674212664820129"><ele>424.0</ele><time>2026-03-29T07:25:37Z</time></trkpt><trkpt lat="37.01202259392611" lon="14.674084390362008"><ele>422.50000000000006</ele><time>2026-03-29T07:25:38Z</time></trkpt><trkpt lat="37.012008448045876" lon="14.67399482769876"><ele>421.0</ele><time>2026-03-29T07:25:39Z</time></trkpt><trkpt lat="37.01198411962118" lon="14.673899897559352"><ele>419.5</ele><time>2026-03-29T07:25:40Z</time></trkpt><trkpt lat="37.01195037061505" lon="14.673810271372984"><ele>418.0</ele><time>2026-03-29T07:25:41Z</time></trkpt><trkpt lat="37.011902394428425" lon="14.673702820095368"><ele>416.50000000000006</ele><time>2026-03-29T07:25:42Z</time></trkpt><trkpt lat="37.01185537269783" lon="14.673596008579723"><ele>415.0</ele><time>2026-03-29T07:25:43Z</time></trkpt><trkpt lat="37.01181117367388" lon="14.673491955354422"><ele>415.0</ele><time>2026-03-29T07:25:44Z</time></trkpt><trkpt lat="37.01177422500691" lon="14.673392805645928"><ele>415.0</ele><time>2026-03-29T07:25:45Z</time></trkpt><trkpt lat="37.01174306715072" lon="14.673292556339026"><ele>415.0</ele><time>2026-03-29T07:25:46Z</time></trkpt><trkpt lat="37.011737136843294" lon="14.673184457979895"><ele>415.0</ele><time>2026-03-29T07:25:47Z</time></trkpt><trkpt lat="37.01175359367149" lon="14.673070675301847"><ele>415.0</ele><time>2026-03-29T07:25:48Z</time></trkpt><trkpt lat="37.01178115083486" lon="14.672951176461744"><ele>415.0</ele><time>2026-03-29T07:25:49Z</time></trkpt><trkpt lat="37.01181779963835" lon="14.67281950538224"><ele>415.0</ele><time>2026-03-29T07:25:50Z</time></trkpt><trkpt lat="37.011859098127665" lon="14.672678297721665"><ele>415.0</ele><time>2026-03-29T07:25:51Z</time></trkpt><trkpt lat="37.01189432541996" lon="14.67250377241277"><ele>415.0</ele><time>2026-03-29T07:25:52Z</time></trkpt><trkpt lat="37.0119464184614" lon="14.672301876044179"><ele>415.75</ele><time>2026-03-29T07:25:53Z</time></trkpt><trkpt lat="37.01198899060045" lon="14.672124987514945"><ele>416.5</ele><time>2026-03-29T07:25:54Z</time></trkpt><trkpt lat="37.01204595503756" lon="14.671983343767216"><ele>417.25</ele><time>2026-03-29T07:25:55Z</time></trkpt><trkpt lat="37.012104136882606" lon="14.671871493455372"><ele>418.0</ele><time>2026-03-29T07:25:56Z</time></trkpt><trkpt lat="37.01215993341393" lon="14.671754007777292"><ele>416.59999999999997</ele><time>2026-03-29T07:25:57Z</time></trkpt><trkpt lat="37.012211255181654" lon="14.671652573222985"><ele>415.2</ele><time>2026-03-29T07:25:58Z</time></trkpt><trkpt lat="37.01224836298871" lon="14.671534244416264"><ele>413.8</ele><time>2026-03-29T07:25:59Z</time></trkpt><trkpt lat="37.01226348672901" lon="14.671429008373128"><ele>412.4</ele><time>2026-03-29T07:26:00Z</time></trkpt><trkpt lat="37.0122597123606" lon="14.671303251212152"><ele>411.0</ele><time>2026-03-29T07:26:01Z</time></trkpt><trkpt lat="37.012246383211654" lon="14.671177331740703"><ele>409.5</ele><time>2026-03-29T07:26:02Z</time></trkpt><trkpt lat="37.01222774769531" lon="14.671069589086988"><ele>408.0</ele><time>2026-03-29T07:26:03Z</time></trkpt><trkpt lat="37.012205350161516" lon="14.670973985404883"><ele>406.5</ele><time>2026-03-29T07:26:04Z</time></trkpt><trkpt lat="37.01218572484701" lon="14.670876529582223"><ele>405.0</ele><time>2026-03-29T07:26:05Z</time></trkpt><trkpt lat="37.01216648769356" lon="14.670772786967316"><ele>403.5</ele><time>2026-03-29T07:26:06Z</time></trkpt><trkpt lat="37.01213439037475" lon="14.67067711719915"><ele>402.0</ele><time>2026-03-29T07:26:07Z</time></trkpt><trkpt lat="37.01209092348489" lon="14.67059716593535"><ele>402.0</ele><time>2026-03-29T07:26:08Z</time></trkpt><trkpt lat="37.012049965308954" lon="14.670531715587929"><ele>402.0</ele><time>2026-03-29T07:26:09Z</time></trkpt><trkpt lat="37.01200201446962" lon="14.670477450630841"><ele>402.0</ele><time>2026-03-29T07:26:10Z</time></trkpt><trkpt lat="37.01195172333163" lon="14.67039449475999"><ele>402.0</ele><time>2026-03-29T07:26:11Z</time></trkpt><trkpt lat="37.01189328027582" lon="14.67030147618673"><ele>402.0</ele><time>2026-03-29T07:26:12Z</time></trkpt><trkpt lat="37.01182854352949" lon="14.670213469389926"><ele>402.0</ele><time>2026-03-29T07:26:13Z</time></trkpt><trkpt lat="37.011776423166566" lon="14.670119803465923"><ele>400.20000000000005</ele><time>2026-03-29T07:26:14Z</time></trkpt><trkpt lat="37.011735029507214" lon="14.670013308068635"><ele>398.4</ele><time>2026-03-29T07:26:15Z</time></trkpt><trkpt lat="37.01167260015758" lon="14.669907981595324"><ele>396.6</ele><time>2026-03-29T07:26:16Z</time></trkpt><trkpt lat="37.0116142224095" lon="14.669809558485513"><ele>394.79999999999995</ele><time>2026-03-29T07:26:17Z</time></trkpt><trkpt lat="37.01155051960084" lon="14.669689704264481"><ele>393.0</ele><time>2026-03-29T07:26:18Z</time></trkpt><trkpt lat="37.01151305954375" lon="14.669585875928744"><ele>392.2</ele><time>2026-03-29T07:26:19Z</time></trkpt><trkpt lat="37.01147927128478" lon="14.669470497642521"><ele>391.4</ele><time>2026-03-29T07:26:20Z</time></trkpt><trkpt lat="37.011491573485046" lon="14.669324125798864"><ele>390.59999999999997</ele><time>2026-03-29T07:26:21Z</time></trkpt><trkpt lat="37.01146373585716" lon="14.669201886789478"><ele>389.79999999999995</ele><time>2026-03-29T07:26:22Z</time></trkpt><trkpt lat="37.01144278058765" lon="14.669051381217828"><ele>389.0</ele><time>2026-03-29T07:26:23Z</time></trkpt><trkpt lat="37.011422634570444" lon="14.668899126398875"><ele>387.4</ele><time>2026-03-29T07:26:24Z</time></trkpt><trkpt lat="37.01140422580545" lon="14.66874986630412"><ele>385.79999999999995</ele><time>2026-03-29T07:26:25Z</time></trkpt><trkpt lat="37.01138672809076" lon="14.668607680869838"><ele>384.20000000000005</ele><time>2026-03-29T07:26:26Z</time></trkpt><trkpt lat="37.01137083582779" lon="14.668471290007725"><ele>382.6</ele><time>2026-03-29T07:26:27Z</time></trkpt><trkpt lat="37.011356898873935" lon="14.668344985272245"><ele>381.0</ele><time>2026-03-29T07:26:28Z</time></trkpt><trkpt lat="37.01134358075097" lon="14.668219558119961"><ele>380.0</ele><time>2026-03-29T07:26:29Z</time></trkpt><trkpt lat="37.01133465733824" lon="14.66812246831202"><ele>379.0</ele><time>2026-03-29T07:26:30Z</time></trkpt><trkpt lat="37.01132834011565" lon="14.668023506952899"><ele>378.0</ele><time>2026-03-29T07:26:31Z</time></trkpt><trkpt lat="37.01132656753814" lon="14.66793325450316"><ele>377.0</ele><time>2026-03-29T07:26:32Z</time></trkpt><trkpt lat="37.01132390054238" lon="14.66783930546158"><ele>376.0</ele><time>2026-03-29T07:26:33Z</time></trkpt><trkpt lat="37.01130459994769" lon="14.667756200652724"><ele>375.0</ele><time>2026-03-29T07:26:34Z</time></trkpt><trkpt lat="37.01131343980311" lon="14.667631468145405"><ele>373.6666666666667</ele><time>2026-03-29T07:26:36Z</time></trkpt><trkpt lat="37.01130794114522" lon="14.667520326689099"><ele>372.33333333333337</ele><time>2026-03-29T07:26:38Z</time></trkpt><trkpt lat="37.01129483972942" lon="14.667439854345805"><ele>371.0</ele><time>2026-03-29T07:26:41Z</time></trkpt><trkpt lat="37.01112475275869" lon="14.667133515064943"><ele>371.0</ele><time>2026-03-29T07:26:43Z</time></trkpt><trkpt lat="37.011091321388" lon="14.667313872997427"><ele>371.0</ele><time>2026-03-29T07:26:44Z</time></trkpt><trkpt lat="37.01109895195663" lon="14.667226636043472"><ele>371.0</ele><time>2026-03-29T07:26:46Z</time></trkpt><trkpt lat="37.01109873093786" lon="14.66714256324066"><ele>371.0</ele><time>2026-03-29T07:26:48Z</time></trkpt><trkpt lat="37.01108939866294" lon="14.66705695244595"><ele>371.0</ele><time>2026-03-29T07:26:50.016Z</time></trkpt><trkpt lat="37.01113326224665" lon="14.666924321225194"><ele>369.20000000000005</ele><time>2026-03-29T07:26:53Z</time></trkpt><trkpt lat="37.01112437922526" lon="14.666808732334434"><ele>367.40000000000003</ele><time>2026-03-29T07:26:55Z</time></trkpt><trkpt lat="37.01119272391226" lon="14.666724626901324"><ele>365.6</ele><time>2026-03-29T07:26:57Z</time></trkpt><trkpt lat="37.01126210426585" lon="14.666708718561589"><ele>363.8</ele><time>2026-03-29T07:26:58Z</time></trkpt><trkpt lat="37.011339154864984" lon="14.666698041702091"><ele>362.0</ele><time>2026-03-29T07:26:59Z</time></trkpt><trkpt lat="37.011461624411815" lon="14.666684958488307"><ele>362.0</ele><time>2026-03-29T07:27:01Z</time></trkpt><trkpt lat="37.011530510823434" lon="14.666639673987216"><ele>362.0</ele><time>2026-03-29T07:27:04Z</time></trkpt><trkpt lat="37.011491423156976" lon="14.666568723998859"><ele>362.0</ele><time>2026-03-29T07:27:06Z</time></trkpt><trkpt lat="37.011397783269516" lon="14.66648084603257"><ele>362.0</ele><time>2026-03-29T07:27:08Z</time></trkpt><trkpt lat="37.01136464630258" lon="14.666412236671547"><ele>362.0</ele><time>2026-03-29T07:27:09Z</time></trkpt><trkpt lat="37.01131509339232" lon="14.666330708351904"><ele>362.0</ele><time>2026-03-29T07:27:11Z</time></trkpt><trkpt lat="37.011320821992435" lon="14.666242037234086"><ele>362.0</ele><time>2026-03-29T07:27:14Z</time></trkpt><trkpt lat="37.01132214941578" lon="14.666157911088952"><ele>362.0</ele><time>2026-03-29T07:27:20Z</time></trkpt><trkpt lat="37.01130661562064" lon="14.666044472584792"><ele>362.0</ele><time>2026-03-29T07:27:24Z</time></trkpt><trkpt lat="37.01133538169997" lon="14.665933023498168"><ele>362.0</ele><time>2026-03-29T07:27:27Z</time></trkpt><trkpt lat="37.011300110913524" lon="14.665831750703555"><ele>362.0</ele><time>2026-03-29T07:27:31Z</time></trkpt><trkpt lat="37.011266084732476" lon="14.665754296161024"><ele>362.0</ele><time>2026-03-29T07:27:54Z</time></trkpt><trkpt lat="37.01134990985591" lon="14.66574090081049"><ele>362.0</ele><time>2026-03-29T07:28:08Z</time></trkpt><trkpt lat="37.01137959587638" lon="14.665838452114054"><ele>362.0</ele><time>2026-03-29T07:28:10Z</time></trkpt><trkpt lat="37.011360706019445" lon="14.66597746534919"><ele>362.0</ele><time>2026-03-29T07:28:12Z</time></trkpt><trkpt lat="37.01133685603604" lon="14.666054677418051"><ele>362.0</ele><time>2026-03-29T07:28:16Z</time></trkpt><trkpt lat="37.01134535771273" lon="14.666156648807753"><ele>362.0</ele><time>2026-03-29T07:28:18Z</time></trkpt><trkpt lat="37.01133773801735" lon="14.666246706552272"><ele>362.0</ele><time>2026-03-29T07:28:20Z</time></trkpt><trkpt lat="37.01136478684504" lon="14.66636783653999"><ele>362.0</ele><time>2026-03-29T07:28:22Z</time></trkpt><trkpt lat="37.01138899745387" lon="14.66644103953368"><ele>362.0</ele><time>2026-03-29T07:28:23Z</time></trkpt><trkpt lat="37.01145581720386" lon="14.666557068611606"><ele>362.0</ele><time>2026-03-29T07:28:25Z</time></trkpt><trkpt lat="37.011571824682214" lon="14.66663093088822"><ele>362.0</ele><time>2026-03-29T07:28:27Z</time></trkpt><trkpt lat="37.01165581951886" lon="14.666649466827074"><ele>362.0</ele><time>2026-03-29T07:28:28Z</time></trkpt><trkpt lat="37.011737102311415" lon="14.666671915010358"><ele>361.6666666666667</ele><time>2026-03-29T07:28:29Z</time></trkpt><trkpt lat="37.01181245120851" lon="14.666699137594748"><ele>361.33333333333337</ele><time>2026-03-29T07:28:30Z</time></trkpt><trkpt lat="37.01188393927925" lon="14.666727005460558"><ele>361.0</ele><time>2026-03-29T07:28:31Z</time></trkpt><trkpt lat="37.01195276252397" lon="14.666744646008745"><ele>360.6666666666667</ele><time>2026-03-29T07:28:32Z</time></trkpt><trkpt lat="37.012031051015235" lon="14.666769657183353"><ele>360.3333333333333</ele><time>2026-03-29T07:28:33Z</time></trkpt><trkpt lat="37.012099233428266" lon="14.666792862674928"><ele>360.0</ele><time>2026-03-29T07:28:34Z</time></trkpt><trkpt lat="37.012208658138185" lon="14.666859075978723"><ele>360.0</ele><time>2026-03-29T07:28:36Z</time></trkpt><trkpt lat="37.01230187363134" lon="14.666922101529687"><ele>360.0</ele><time>2026-03-29T07:28:38Z</time></trkpt><trkpt lat="37.01239341019417" lon="14.6669523562921"><ele>360.0</ele><time>2026-03-29T07:28:40Z</time></trkpt><trkpt lat="37.01233492882816" lon="14.666825531442253"><ele>360.0</ele><time>2026-03-29T07:28:54Z</time></trkpt><trkpt lat="37.01227936404489" lon="14.666749615148488"><ele>360.0</ele><time>2026-03-29T07:28:55Z</time></trkpt><trkpt lat="37.01223562743108" lon="14.666645226208136"><ele>360.0</ele><time>2026-03-29T07:28:56Z</time></trkpt><trkpt lat="37.01219848583437" lon="14.666562101816368"><ele>360.0</ele><time>2026-03-29T07:28:57Z</time></trkpt><trkpt lat="37.012138589808856" lon="14.666458969791305"><ele>360.0</ele><time>2026-03-29T07:28:58Z</time></trkpt><trkpt lat="37.01209817200027" lon="14.666376107408944"><ele>360.0</ele><time>2026-03-29T07:28:59Z</time></trkpt><trkpt lat="37.01205933235765" lon="14.666305109298571"><ele>360.0</ele><time>2026-03-29T07:29:00Z</time></trkpt><trkpt lat="37.011991063153744" lon="14.666193969981727"><ele>360.0</ele><time>2026-03-29T07:29:02Z</time></trkpt><trkpt lat="37.0119148830409" lon="14.66608236375087"><ele>359.25</ele><time>2026-03-29T07:29:04Z</time></trkpt><trkpt lat="37.011830136824244" lon="14.66597527983008"><ele>358.5</ele><time>2026-03-29T07:29:06Z</time></trkpt><trkpt lat="37.0116969183313" lon="14.665822663533254"><ele>357.75</ele><time>2026-03-29T07:29:08Z</time></trkpt><trkpt lat="37.011633594328075" lon="14.665691568328976"><ele>357.0</ele><time>2026-03-29T07:29:10Z</time></trkpt><trkpt lat="37.01160457200448" lon="14.665617163233176"><ele>357.0</ele><time>2026-03-29T07:29:11Z</time></trkpt><trkpt lat="37.01152578474833" lon="14.66550338036451"><ele>357.0</ele><time>2026-03-29T07:29:13Z</time></trkpt><trkpt lat="37.01147372694602" lon="14.665456223913699"><ele>357.0</ele><time>2026-03-29T07:29:15Z</time></trkpt><trkpt lat="37.01142809235515" lon="14.66539301566612"><ele>357.0</ele><time>2026-03-29T07:29:17Z</time></trkpt><trkpt lat="37.01136138893212" lon="14.665345043743537"><ele>357.0</ele><time>2026-03-29T07:29:34Z</time></trkpt><trkpt lat="37.01128952091792" lon="14.66527894018632"><ele>357.0</ele><time>2026-03-29T07:29:47Z</time></trkpt><trkpt lat="37.011173301728014" lon="14.665150237032774"><ele>356.5</ele><time>2026-03-29T07:30:01Z</time></trkpt><trkpt lat="37.01111610697025" lon="14.665098821167469"><ele>356.0</ele><time>2026-03-29T07:30:02Z</time></trkpt><trkpt lat="37.01105112251203" lon="14.665033288218641"><ele>355.5</ele><time>2026-03-29T07:30:03Z</time></trkpt><trkpt lat="37.01098705515894" lon="14.66495994585607"><ele>355.0</ele><time>2026-03-29T07:30:04Z</time></trkpt><trkpt lat="37.01090610516425" lon="14.664865045556642"><ele>354.5</ele><time>2026-03-29T07:30:06Z</time></trkpt><trkpt lat="37.01085658787284" lon="14.664791140463391"><ele>354.0</ele><time>2026-03-29T07:30:08Z</time></trkpt><trkpt lat="37.010820321553794" lon="14.664714864415851"><ele>354.0</ele><time>2026-03-29T07:30:10Z</time></trkpt><trkpt lat="37.01073979728554" lon="14.664657910363156"><ele>354.0</ele><time>2026-03-29T07:30:13Z</time></trkpt><trkpt lat="37.01066701263467" lon="14.664607007825678"><ele>354.0</ele><time>2026-03-29T07:30:15Z</time></trkpt><trkpt lat="37.0105726908674" lon="14.664516877650842"><ele>354.0</ele><time>2026-03-29T07:30:17Z</time></trkpt><trkpt lat="37.01050849645263" lon="14.66445752689642"><ele>354.0</ele><time>2026-03-29T07:30:18Z</time></trkpt><trkpt lat="37.01043039182934" lon="14.664391753102768"><ele>352.79999999999995</ele><time>2026-03-29T07:30:19Z</time></trkpt><trkpt lat="37.01034424370584" lon="14.664312632357834"><ele>351.59999999999997</ele><time>2026-03-29T07:30:20Z</time></trkpt><trkpt lat="37.010259890853504" lon="14.664230896137152"><ele>350.4</ele><time>2026-03-29T07:30:21Z</time></trkpt><trkpt lat="37.01017571388453" lon="14.664153156113317"><ele>349.2</ele><time>2026-03-29T07:30:22Z</time></trkpt><trkpt lat="37.01009369523496" lon="14.664095234282692"><ele>348.0</ele><time>2026-03-29T07:30:23Z</time></trkpt><trkpt lat="37.00999586056031" lon="14.664051737527007"><ele>347.25</ele><time>2026-03-29T07:30:24Z</time></trkpt><trkpt lat="37.009882174184746" lon="14.664023872315134"><ele>346.5</ele><time>2026-03-29T07:30:25Z</time></trkpt><trkpt lat="37.00976528380608" lon="14.663982461964373"><ele>345.75</ele><time>2026-03-29T07:30:26Z</time></trkpt><trkpt lat="37.00964713433958" lon="14.663939583516171"><ele>345.0</ele><time>2026-03-29T07:30:27Z</time></trkpt><trkpt lat="37.00953253023411" lon="14.663891766424243"><ele>345.0</ele><time>2026-03-29T07:30:28Z</time></trkpt><trkpt lat="37.00941942167465" lon="14.663831554051304"><ele>345.0</ele><time>2026-03-29T07:30:29Z</time></trkpt><trkpt lat="37.00931009062946" lon="14.663750708484226"><ele>345.0</ele><time>2026-03-29T07:30:30Z</time></trkpt><trkpt lat="37.00920425153574" lon="14.66366069607696"><ele>345.0</ele><time>2026-03-29T07:30:31Z</time></trkpt><trkpt lat="37.00910386489841" lon="14.663566310798041"><ele>343.5</ele><time>2026-03-29T07:30:32Z</time></trkpt><trkpt lat="37.00899796711082" lon="14.663481495621069"><ele>342.0</ele><time>2026-03-29T07:30:33Z</time></trkpt><trkpt lat="37.00889859048035" lon="14.663400398667768"><ele>340.5</ele><time>2026-03-29T07:30:34Z</time></trkpt><trkpt lat="37.008798917977735" lon="14.663329259922826"><ele>339.0</ele><time>2026-03-29T07:30:35Z</time></trkpt><trkpt lat="37.00869489121063" lon="14.663259721923863"><ele>339.0</ele><time>2026-03-29T07:30:36Z</time></trkpt><trkpt lat="37.00858430195968" lon="14.663188113483287"><ele>339.0</ele><time>2026-03-29T07:30:37Z</time></trkpt><trkpt lat="37.00847671234172" lon="14.663126742822685"><ele>339.0</ele><time>2026-03-29T07:30:38Z</time></trkpt><trkpt lat="37.008365555209764" lon="14.66307690433505"><ele>339.0</ele><time>2026-03-29T07:30:39Z</time></trkpt><trkpt lat="37.00825872091388" lon="14.663027919339669"><ele>338.25</ele><time>2026-03-29T07:30:40Z</time></trkpt><trkpt lat="37.00813164943785" lon="14.662995434454148"><ele>337.5</ele><time>2026-03-29T07:30:41Z</time></trkpt><trkpt lat="37.00800382130456" lon="14.662957205637374"><ele>336.75</ele><time>2026-03-29T07:30:42Z</time></trkpt><trkpt lat="37.00788873464381" lon="14.662937550334256"><ele>336.0</ele><time>2026-03-29T07:30:43Z</time></trkpt><trkpt lat="37.00775728983986" lon="14.662947998424551"><ele>336.0</ele><time>2026-03-29T07:30:44Z</time></trkpt><trkpt lat="37.00761330767381" lon="14.662952398226464"><ele>336.0</ele><time>2026-03-29T07:30:45Z</time></trkpt><trkpt lat="37.00744848393819" lon="14.66294351860771"><ele>336.0</ele><time>2026-03-29T07:30:46Z</time></trkpt><trkpt lat="37.00731170355618" lon="14.662934444132725"><ele>336.0</ele><time>2026-03-29T07:30:47Z</time></trkpt><trkpt lat="37.00718468220165" lon="14.662941987604443"><ele>335.25</ele><time>2026-03-29T07:30:48Z</time></trkpt><trkpt lat="37.00706438638425" lon="14.6629583290698"><ele>334.5</ele><time>2026-03-29T07:30:49Z</time></trkpt><trkpt lat="37.00694135910532" lon="14.662969572609951"><ele>333.75</ele><time>2026-03-29T07:30:50Z</time></trkpt><trkpt lat="37.006842169716656" lon="14.662972934408376"><ele>333.0</ele><time>2026-03-29T07:30:51Z</time></trkpt><trkpt lat="37.00673561439335" lon="14.662961113706489"><ele>333.0</ele><time>2026-03-29T07:30:52Z</time></trkpt><trkpt lat="37.00663269641887" lon="14.6629332042629"><ele>333.0</ele><time>2026-03-29T07:30:53Z</time></trkpt><trkpt lat="37.00653367919226" lon="14.66288423221708"><ele>333.0</ele><time>2026-03-29T07:30:54Z</time></trkpt><trkpt lat="37.006436663888024" lon="14.662818848099423"><ele>333.0</ele><time>2026-03-29T07:30:55Z</time></trkpt><trkpt lat="37.006380468642185" lon="14.662699321764475"><ele>333.0</ele><time>2026-03-29T07:30:56Z</time></trkpt><trkpt lat="37.006336309438964" lon="14.662568721604723"><ele>331.75</ele><time>2026-03-29T07:30:57Z</time></trkpt><trkpt lat="37.00631013070881" lon="14.662427059425047"><ele>330.5</ele><time>2026-03-29T07:30:58Z</time></trkpt><trkpt lat="37.00630002826385" lon="14.662253330202347"><ele>329.25</ele><time>2026-03-29T07:30:59Z</time></trkpt><trkpt lat="37.00627686876827" lon="14.662088850580382"><ele>328.0</ele><time>2026-03-29T07:31:00Z</time></trkpt><trkpt lat="37.00623743170383" lon="14.661946718137678"><ele>327.79999999999995</ele><time>2026-03-29T07:31:01Z</time></trkpt><trkpt lat="37.00618509853113" lon="14.661815875973883"><ele>327.6</ele><time>2026-03-29T07:31:02Z</time></trkpt><trkpt lat="37.006127885988015" lon="14.661694689241981"><ele>327.4</ele><time>2026-03-29T07:31:03Z</time></trkpt><trkpt lat="37.00607447684173" lon="14.661588821896157"><ele>327.20000000000005</ele><time>2026-03-29T07:31:04Z</time></trkpt><trkpt lat="37.00599630619806" lon="14.661516396094767"><ele>327.0</ele><time>2026-03-29T07:31:05Z</time></trkpt><trkpt lat="37.005891799905314" lon="14.66149668830458"><ele>327.25</ele><time>2026-03-29T07:31:06Z</time></trkpt><trkpt lat="37.00578294701454" lon="14.66150117054545"><ele>327.5</ele><time>2026-03-29T07:31:07Z</time></trkpt><trkpt lat="37.00563341938875" lon="14.661545946029783"><ele>327.75</ele><time>2026-03-29T07:31:08Z</time></trkpt><trkpt lat="37.00550002867887" lon="14.661573055405277"><ele>328.0</ele><time>2026-03-29T07:31:09Z</time></trkpt><trkpt lat="37.00538589468544" lon="14.661575458600536"><ele>328.0</ele><time>2026-03-29T07:31:10Z</time></trkpt><trkpt lat="37.00528587608925" lon="14.661584561256177"><ele>328.0</ele><time>2026-03-29T07:31:11Z</time></trkpt><trkpt lat="37.00520200895315" lon="14.661595235915303"><ele>328.0</ele><time>2026-03-29T07:31:12Z</time></trkpt><trkpt lat="37.005125042845044" lon="14.661607638991027"><ele>328.0</ele><time>2026-03-29T07:31:13Z</time></trkpt><trkpt lat="37.00503461802349" lon="14.661635802342012"><ele>328.0</ele><time>2026-03-29T07:31:14Z</time></trkpt><trkpt lat="37.00493770445077" lon="14.661687638333083"><ele>328.3333333333333</ele><time>2026-03-29T07:31:15Z</time></trkpt><trkpt lat="37.00481905380454" lon="14.661767016147543"><ele>328.6666666666667</ele><time>2026-03-29T07:31:16Z</time></trkpt><trkpt lat="37.00468261876013" lon="14.661898202489581"><ele>329.0</ele><time>2026-03-29T07:31:17Z</time></trkpt><trkpt lat="37.004555105203394" lon="14.662032519672774"><ele>329.33333333333337</ele><time>2026-03-29T07:31:18Z</time></trkpt><trkpt lat="37.004404832117146" lon="14.662142391811232"><ele>329.6666666666667</ele><time>2026-03-29T07:31:19Z</time></trkpt><trkpt lat="37.00428225263897" lon="14.66223175765359"><ele>330.0</ele><time>2026-03-29T07:31:20Z</time></trkpt><trkpt lat="37.00414823387259" lon="14.662322250770595"><ele>328.25</ele><time>2026-03-29T07:31:21Z</time></trkpt><trkpt lat="37.004025184069356" lon="14.662431291550991"><ele>326.5</ele><time>2026-03-29T07:31:22Z</time></trkpt><trkpt lat="37.003918117881256" lon="14.662531124071519"><ele>324.75</ele><time>2026-03-29T07:31:23Z</time></trkpt><trkpt lat="37.00381737459396" lon="14.662633082245211"><ele>323.0</ele><time>2026-03-29T07:31:24Z</time></trkpt><trkpt lat="37.00372278685591" lon="14.662699849805936"><ele>323.75</ele><time>2026-03-29T07:31:25Z</time></trkpt><trkpt lat="37.003614571137874" lon="14.66278820395958"><ele>324.5</ele><time>2026-03-29T07:31:26Z</time></trkpt><trkpt lat="37.00351027146019" lon="14.66288152916335"><ele>325.25</ele><time>2026-03-29T07:31:27Z</time></trkpt><trkpt lat="37.00340032163002" lon="14.662958803667141"><ele>326.0</ele><time>2026-03-29T07:31:28Z</time></trkpt><trkpt lat="37.00328459640256" lon="14.663025432653424"><ele>326.0</ele><time>2026-03-29T07:31:29Z</time></trkpt><trkpt lat="37.00317015913352" lon="14.663089363832933"><ele>326.0</ele><time>2026-03-29T07:31:30Z</time></trkpt><trkpt lat="37.00304394078122" lon="14.663164255659565"><ele>326.0</ele><time>2026-03-29T07:31:31Z</time></trkpt><trkpt lat="37.002917170621714" lon="14.663213640967168"><ele>326.0</ele><time>2026-03-29T07:31:32Z</time></trkpt><trkpt lat="37.002794899578724" lon="14.663266769698268"><ele>326.0</ele><time>2026-03-29T07:31:33Z</time></trkpt><trkpt lat="37.002681324444524" lon="14.663311707484384"><ele>326.0</ele><time>2026-03-29T07:31:34Z</time></trkpt><trkpt lat="37.002560561360966" lon="14.663351587806847"><ele>326.0</ele><time>2026-03-29T07:31:35Z</time></trkpt><trkpt lat="37.00243396640759" lon="14.663392907613252"><ele>326.0</ele><time>2026-03-29T07:31:36Z</time></trkpt><trkpt lat="37.00232205687989" lon="14.663434620718478"><ele>325.8</ele><time>2026-03-29T07:31:37Z</time></trkpt><trkpt lat="37.00220857330839" lon="14.663473334016881"><ele>325.6</ele><time>2026-03-29T07:31:38Z</time></trkpt><trkpt lat="37.00211885620682" lon="14.663513324360064"><ele>325.4</ele><time>2026-03-29T07:31:39Z</time></trkpt><trkpt lat="37.00202783683947" lon="14.663542117587733"><ele>325.2</ele><time>2026-03-29T07:31:40Z</time></trkpt><trkpt lat="37.00194560861565" lon="14.663569633284505"><ele>325.0</ele><time>2026-03-29T07:31:41Z</time></trkpt><trkpt lat="37.0018727737681" lon="14.663619256011295"><ele>325.0</ele><time>2026-03-29T07:31:42Z</time></trkpt><trkpt lat="37.00182073754099" lon="14.663683888324968"><ele>325.0</ele><time>2026-03-29T07:31:43Z</time></trkpt><trkpt lat="37.0017998631616" lon="14.663776478952665"><ele>325.0</ele><time>2026-03-29T07:31:44Z</time></trkpt><trkpt lat="37.001762242707734" lon="14.663878890562215"><ele>325.0</ele><time>2026-03-29T07:31:45Z</time></trkpt><trkpt lat="37.001727661556636" lon="14.663987045065475"><ele>325.0</ele><time>2026-03-29T07:31:46Z</time></trkpt><trkpt lat="37.00169697205597" lon="14.664081293880386"><ele>325.0</ele><time>2026-03-29T07:31:47Z</time></trkpt><trkpt lat="37.00165077527537" lon="14.664166262529095"><ele>325.0</ele><time>2026-03-29T07:31:48Z</time></trkpt><trkpt lat="37.00160606211035" lon="14.664266850890858"><ele>325.0</ele><time>2026-03-29T07:31:49Z</time></trkpt><trkpt lat="37.00159477329169" lon="14.664387816208345"><ele>325.0</ele><time>2026-03-29T07:31:50Z</time></trkpt><trkpt lat="37.00157169312581" lon="14.664519232276694"><ele>325.0</ele><time>2026-03-29T07:31:51Z</time></trkpt><trkpt lat="37.00156148843714" lon="14.66465473200732"><ele>325.0</ele><time>2026-03-29T07:31:52Z</time></trkpt><trkpt lat="37.001553274086525" lon="14.664798701151627"><ele>325.0</ele><time>2026-03-29T07:31:53Z</time></trkpt><trkpt lat="37.001545017127555" lon="14.664965443569601"><ele>325.0</ele><time>2026-03-29T07:31:54Z</time></trkpt><trkpt lat="37.00153255002221" lon="14.665124565686904"><ele>325.0</ele><time>2026-03-29T07:31:55Z</time></trkpt><trkpt lat="37.00149535467223" lon="14.66527197488915"><ele>325.0</ele><time>2026-03-29T07:31:56Z</time></trkpt><trkpt lat="37.00145267275984" lon="14.665393520600686"><ele>326.2</ele><time>2026-03-29T07:31:57Z</time></trkpt><trkpt lat="37.001393163942616" lon="14.66549835635671"><ele>327.4</ele><time>2026-03-29T07:31:58Z</time></trkpt><trkpt lat="37.00131374956676" lon="14.665583892541049"><ele>328.6</ele><time>2026-03-29T07:31:59Z</time></trkpt><trkpt lat="37.00124570787787" lon="14.665643907448978"><ele>329.8</ele><time>2026-03-29T07:32:00Z</time></trkpt><trkpt lat="37.00115915748931" lon="14.665712369431837"><ele>331.0</ele><time>2026-03-29T07:32:01Z</time></trkpt><trkpt lat="37.00104779621832" lon="14.665774666280456"><ele>331.0</ele><time>2026-03-29T07:32:02Z</time></trkpt><trkpt lat="37.00095526342094" lon="14.665835012877896"><ele>331.0</ele><time>2026-03-29T07:32:03Z</time></trkpt><trkpt lat="37.00089064337052" lon="14.665902133857026"><ele>331.0</ele><time>2026-03-29T07:32:04Z</time></trkpt><trkpt lat="37.00079893026698" lon="14.665940338938"><ele>331.0</ele><time>2026-03-29T07:32:05Z</time></trkpt><trkpt lat="37.00070574662909" lon="14.665957250936225"><ele>331.0</ele><time>2026-03-29T07:32:06Z</time></trkpt><trkpt lat="37.00063014838357" lon="14.66596204888227"><ele>332.5</ele><time>2026-03-29T07:32:07Z</time></trkpt><trkpt lat="37.00050654415879" lon="14.665928923029734"><ele>334.0</ele><time>2026-03-29T07:32:09Z</time></trkpt><trkpt lat="37.0004450035295" lon="14.665885487370572"><ele>335.5</ele><time>2026-03-29T07:32:10Z</time></trkpt><trkpt lat="37.00038947352244" lon="14.66581582748027"><ele>337.0</ele><time>2026-03-29T07:32:11Z</time></trkpt><trkpt lat="37.000345424266776" lon="14.665727455418962"><ele>338.5</ele><time>2026-03-29T07:32:12Z</time></trkpt><trkpt lat="37.00030073894024" lon="14.665642868724984"><ele>340.0</ele><time>2026-03-29T07:32:13Z</time></trkpt><trkpt lat="37.00026375416762" lon="14.665570131206325"><ele>340.0</ele><time>2026-03-29T07:32:14Z</time></trkpt><trkpt lat="37.00022615032086" lon="14.665484207253467"><ele>340.0</ele><time>2026-03-29T07:32:15Z</time></trkpt><trkpt lat="37.00021720221151" lon="14.665359987468923"><ele>340.0</ele><time>2026-03-29T07:32:16Z</time></trkpt><trkpt lat="37.00020302970603" lon="14.665272310540955"><ele>340.0</ele><time>2026-03-29T07:32:17Z</time></trkpt><trkpt lat="37.000193731161595" lon="14.665192177821083"><ele>340.0</ele><time>2026-03-29T07:32:18Z</time></trkpt><trkpt lat="37.000158699316884" lon="14.665120192666114"><ele>340.0</ele><time>2026-03-29T07:32:19Z</time></trkpt><trkpt lat="37.00002808875743" lon="14.665138620445076"><ele>339.3333333333333</ele><time>2026-03-29T07:32:21Z</time></trkpt><trkpt lat="36.99993507074009" lon="14.665110036603524"><ele>338.66666666666663</ele><time>2026-03-29T07:32:23Z</time></trkpt><trkpt lat="36.999876584497244" lon="14.665078007819917"><ele>338.0</ele><time>2026-03-29T07:32:25Z</time></trkpt><trkpt lat="36.99979191165354" lon="14.665077259744683"><ele>337.3333333333333</ele><time>2026-03-29T07:32:28Z</time></trkpt><trkpt lat="36.999722681197625" lon="14.66503977519378"><ele>336.6666666666667</ele><time>2026-03-29T07:32:30Z</time></trkpt><trkpt lat="36.999653572627224" lon="14.665014979301414"><ele>336.0</ele><time>2026-03-29T07:32:32Z</time></trkpt><trkpt lat="36.999566171177904" lon="14.664992562525281"><ele>336.0</ele><time>2026-03-29T07:32:36Z</time></trkpt><trkpt lat="36.99950344121122" lon="14.66495278534563"><ele>336.0</ele><time>2026-03-29T07:32:39Z</time></trkpt><trkpt lat="36.99941020468622" lon="14.664929962266154"><ele>336.0</ele><time>2026-03-29T07:32:41Z</time></trkpt><trkpt lat="36.99932072997759" lon="14.66489363162515"><ele>336.0</ele><time>2026-03-29T07:32:43Z</time></trkpt><trkpt lat="36.9992532979515" lon="14.664860429289924"><ele>336.0</ele><time>2026-03-29T07:32:45Z</time></trkpt><trkpt lat="36.99918707812406" lon="14.66484278995931"><ele>336.0</ele><time>2026-03-29T07:32:46Z</time></trkpt><trkpt lat="36.99911004480274" lon="14.664763796766652"><ele>337.6666666666667</ele><time>2026-03-29T07:32:49Z</time></trkpt><trkpt lat="36.99903585039821" lon="14.664744432824747"><ele>339.33333333333337</ele><time>2026-03-29T07:32:52Z</time></trkpt><trkpt lat="36.99897650747406" lon="14.664800735548274"><ele>341.0</ele><time>2026-03-29T07:32:54Z</time></trkpt><trkpt lat="36.998531888385884" lon="14.664699601653204"><ele>343.0</ele><time>2026-03-29T07:32:57Z</time></trkpt><trkpt lat="36.998330430607396" lon="14.664666637295873"><ele>345.0</ele><time>2026-03-29T07:32:58Z</time></trkpt><trkpt lat="36.998082112662864" lon="14.664674624156993"><ele>345.0</ele><time>2026-03-29T07:32:59Z</time></trkpt><trkpt lat="36.99795215464244" lon="14.664650413000073"><ele>345.0</ele><time>2026-03-29T07:33:01Z</time></trkpt><trkpt lat="36.99787070521987" lon="14.664654470870387"><ele>345.0</ele><time>2026-03-29T07:33:02Z</time></trkpt><trkpt lat="36.99780792096709" lon="14.664647360275087"><ele>345.0</ele><time>2026-03-29T07:33:03Z</time></trkpt><trkpt lat="36.99772092589453" lon="14.664632271463049"><ele>345.0</ele><time>2026-03-29T07:33:04Z</time></trkpt><trkpt lat="36.99759667083065" lon="14.66465757854384"><ele>345.0</ele><time>2026-03-29T07:33:06Z</time></trkpt><trkpt lat="36.997511173972114" lon="14.664654177543282"><ele>345.0</ele><time>2026-03-29T07:33:08Z</time></trkpt><trkpt lat="36.997416100720905" lon="14.664634261850882"><ele>345.0</ele><time>2026-03-29T07:33:09Z</time></trkpt><trkpt lat="36.99736343178571" lon="14.664679141898823"><ele>345.0</ele><time>2026-03-29T07:33:11Z</time></trkpt><trkpt lat="36.997287375387444" lon="14.664661471610536"><ele>345.0</ele><time>2026-03-29T07:33:15Z</time></trkpt><trkpt lat="36.99721008160255" lon="14.664671311714107"><ele>345.0</ele><time>2026-03-29T07:33:17Z</time></trkpt><trkpt lat="36.99714058880097" lon="14.66472785447963"><ele>345.5</ele><time>2026-03-29T07:33:19Z</time></trkpt><trkpt lat="36.99707976921317" lon="14.664769753992289"><ele>346.0</ele><time>2026-03-29T07:33:20Z</time></trkpt><trkpt lat="36.99703167909819" lon="14.664823870344286"><ele>346.5</ele><time>2026-03-29T07:33:21Z</time></trkpt><trkpt lat="36.996972841887604" lon="14.664913190642165"><ele>347.0</ele><time>2026-03-29T07:33:22Z</time></trkpt><trkpt lat="36.996892733357896" lon="14.665021197045862"><ele>347.5</ele><time>2026-03-29T07:33:23Z</time></trkpt><trkpt lat="36.996829799953844" lon="14.66512087487073"><ele>348.0</ele><time>2026-03-29T07:33:24Z</time></trkpt><trkpt lat="36.99674300805921" lon="14.665185981198182"><ele>348.0</ele><time>2026-03-29T07:33:25Z</time></trkpt><trkpt lat="36.99669057384896" lon="14.66523348403985"><ele>348.0</ele><time>2026-03-29T07:33:26Z</time></trkpt><trkpt lat="36.9966282300381" lon="14.665284135601716"><ele>348.0</ele><time>2026-03-29T07:33:27Z</time></trkpt><trkpt lat="36.99656163062138" lon="14.665336648922672"><ele>348.0</ele><time>2026-03-29T07:33:28Z</time></trkpt><trkpt lat="36.99650855731173" lon="14.665383694185325"><ele>348.0</ele><time>2026-03-29T07:33:29Z</time></trkpt><trkpt lat="36.996457578810606" lon="14.665442230261057"><ele>348.0</ele><time>2026-03-29T07:33:30Z</time></trkpt><trkpt lat="36.99640616474511" lon="14.66550088143729"><ele>348.0</ele><time>2026-03-29T07:33:31Z</time></trkpt><trkpt lat="36.99636355421837" lon="14.665571808468398"><ele>349.79999999999995</ele><time>2026-03-29T07:33:32Z</time></trkpt><trkpt lat="36.99627771874563" lon="14.665662172035411"><ele>351.6</ele><time>2026-03-29T07:33:34Z</time></trkpt><trkpt lat="36.99619428806097" lon="14.66565516958243"><ele>353.4</ele><time>2026-03-29T07:33:35Z</time></trkpt><trkpt lat="36.99612690973413" lon="14.665645306034579"><ele>355.20000000000005</ele><time>2026-03-29T07:33:36Z</time></trkpt><trkpt lat="36.996004210369904" lon="14.665690093293229"><ele>357.0</ele><time>2026-03-29T07:33:38Z</time></trkpt><trkpt lat="36.99593872731799" lon="14.665749137379557"><ele>357.0</ele><time>2026-03-29T07:33:39Z</time></trkpt><trkpt lat="36.99587169523727" lon="14.665823652930442"><ele>357.0</ele><time>2026-03-29T07:33:40Z</time></trkpt><trkpt lat="36.99579821006163" lon="14.665886593919621"><ele>357.0</ele><time>2026-03-29T07:33:41Z</time></trkpt><trkpt lat="36.99571002476333" lon="14.665977289362303"><ele>357.0</ele><time>2026-03-29T07:33:42Z</time></trkpt><trkpt lat="36.99564585788786" lon="14.666041162613407"><ele>357.0</ele><time>2026-03-29T07:33:43Z</time></trkpt><trkpt lat="36.995554460743655" lon="14.666125065706261"><ele>356.1666666666667</ele><time>2026-03-29T07:33:45Z</time></trkpt><trkpt lat="36.99547205606244" lon="14.666210389423703"><ele>355.3333333333333</ele><time>2026-03-29T07:33:47Z</time></trkpt><trkpt lat="36.995401825393955" lon="14.666238345003217"><ele>354.5</ele><time>2026-03-29T07:33:50Z</time></trkpt><trkpt lat="36.99534198837489" lon="14.66627232067681"><ele>353.66666666666663</ele><time>2026-03-29T07:34:06Z</time></trkpt><trkpt lat="36.99529170102238" lon="14.66620610058308"><ele>352.8333333333333</ele><time>2026-03-29T07:34:16Z</time></trkpt><trkpt lat="36.99528615107806" lon="14.66612327644534"><ele>352.0</ele><time>2026-03-29T07:34:19Z</time></trkpt><trkpt lat="36.99530082820366" lon="14.666026684010578"><ele>352.0</ele><time>2026-03-29T07:34:21Z</time></trkpt><trkpt lat="36.99534004124856" lon="14.66591564048016"><ele>352.0</ele><time>2026-03-29T07:34:23Z</time></trkpt><trkpt lat="36.99537997258953" lon="14.66579301658116"><ele>352.0</ele><time>2026-03-29T07:34:25Z</time></trkpt><trkpt lat="36.99543925453724" lon="14.66566057883937"><ele>352.0</ele><time>2026-03-29T07:34:27Z</time></trkpt><trkpt lat="36.99548546721154" lon="14.665578844421308"><ele>352.0</ele><time>2026-03-29T07:34:29Z</time></trkpt><trkpt lat="36.99552271791188" lon="14.665490498342743"><ele>352.0</ele><time>2026-03-29T07:34:31Z</time></trkpt><trkpt lat="36.995571717848115" lon="14.665377881188014"><ele>352.0</ele><time>2026-03-29T07:34:33Z</time></trkpt><trkpt lat="36.995631256444696" lon="14.665299264534502"><ele>352.0</ele><time>2026-03-29T07:34:35Z</time></trkpt><trkpt lat="36.99568734483616" lon="14.66523379346492"><ele>352.0</ele><time>2026-03-29T07:34:37Z</time></trkpt><trkpt lat="36.99570479237409" lon="14.665150801964156"><ele>352.0</ele><time>2026-03-29T07:34:39Z</time></trkpt><trkpt lat="36.9957595624734" lon="14.665077149098199"><ele>352.0</ele><time>2026-03-29T07:34:41Z</time></trkpt><trkpt lat="36.995824998480394" lon="14.664991396223341"><ele>350.5</ele><time>2026-03-29T07:34:44Z</time></trkpt><trkpt lat="36.99588360036707" lon="14.664912605483991"><ele>349.0</ele><time>2026-03-29T07:34:46Z</time></trkpt><trkpt lat="36.995955717545144" lon="14.6648371089149"><ele>347.5</ele><time>2026-03-29T07:34:48Z</time></trkpt><trkpt lat="36.99599610775228" lon="14.664742948806566"><ele>346.0</ele><time>2026-03-29T07:34:50Z</time></trkpt><trkpt lat="36.99602743020721" lon="14.66466022860823"><ele>344.5</ele><time>2026-03-29T07:34:52Z</time></trkpt><trkpt lat="36.996098532693736" lon="14.664603149926117"><ele>343.0</ele><time>2026-03-29T07:34:57Z</time></trkpt><trkpt lat="36.996171248865565" lon="14.6645414546764"><ele>343.0</ele><time>2026-03-29T07:35:00Z</time></trkpt><trkpt lat="36.99622639678361" lon="14.664492377304914"><ele>343.0</ele><time>2026-03-29T07:35:04Z</time></trkpt><trkpt lat="36.99628630970751" lon="14.664405134517134"><ele>343.0</ele><time>2026-03-29T07:35:07Z</time></trkpt><trkpt lat="36.99633635431776" lon="14.664316136696478"><ele>343.0</ele><time>2026-03-29T07:35:11Z</time></trkpt><trkpt lat="36.9963735128067" lon="14.6642065716953"><ele>343.0</ele><time>2026-03-29T07:35:15Z</time></trkpt><trkpt lat="36.99640990830455" lon="14.664108140597675"><ele>343.0</ele><time>2026-03-29T07:35:18Z</time></trkpt><trkpt lat="36.99642436543663" lon="14.663980205477662"><ele>342.3333333333333</ele><time>2026-03-29T07:35:22Z</time></trkpt><trkpt lat="36.99642485325318" lon="14.663887423389292"><ele>341.66666666666663</ele><time>2026-03-29T07:35:25Z</time></trkpt><trkpt lat="36.99644411596719" lon="14.663807925220718"><ele>341.0</ele><time>2026-03-29T07:35:26Z</time></trkpt><trkpt lat="36.9964434644415" lon="14.663703476299526"><ele>340.3333333333333</ele><time>2026-03-29T07:35:28Z</time></trkpt><trkpt lat="36.99645149240528" lon="14.663566893199924"><ele>339.6666666666667</ele><time>2026-03-29T07:35:29Z</time></trkpt><trkpt lat="36.99648038818982" lon="14.663439390033979"><ele>339.0</ele><time>2026-03-29T07:35:30Z</time></trkpt><trkpt lat="36.99648806954759" lon="14.663360157142817"><ele>338.2</ele><time>2026-03-29T07:35:31Z</time></trkpt><trkpt lat="36.99648928522008" lon="14.663246660563523"><ele>337.4</ele><time>2026-03-29T07:35:32Z</time></trkpt><trkpt lat="36.996499631417116" lon="14.663105771060865"><ele>336.6</ele><time>2026-03-29T07:35:34Z</time></trkpt><trkpt lat="36.99650494428244" lon="14.662994681306438"><ele>335.8</ele><time>2026-03-29T07:35:36Z</time></trkpt><trkpt lat="36.99648124721184" lon="14.662872888436667"><ele>335.0</ele><time>2026-03-29T07:35:38Z</time></trkpt><trkpt lat="36.9964998380573" lon="14.66276163643304"><ele>334.33333333333337</ele><time>2026-03-29T07:35:41Z</time></trkpt><trkpt lat="36.99655395433733" lon="14.66271249519447"><ele>333.6666666666667</ele><time>2026-03-29T07:35:43Z</time></trkpt><trkpt lat="36.99662138980287" lon="14.662606713595219"><ele>333.0</ele><time>2026-03-29T07:35:45Z</time></trkpt><trkpt lat="36.99656883488677" lon="14.662558052385505"><ele>332.3333333333333</ele><time>2026-03-29T07:35:52Z</time></trkpt><trkpt lat="36.99653930929033" lon="14.662475287555566"><ele>331.66666666666663</ele><time>2026-03-29T07:35:54Z</time></trkpt><trkpt lat="36.99653563408472" lon="14.662364589701319"><ele>331.0</ele><time>2026-03-29T07:35:57Z</time></trkpt><trkpt lat="36.99651076920987" lon="14.662281140783875"><ele>331.0</ele><time>2026-03-29T07:36:01Z</time></trkpt><trkpt lat="36.99650687841718" lon="14.662199384528778"><ele>331.0</ele><time>2026-03-29T07:36:06Z</time></trkpt><trkpt lat="36.99650622316078" lon="14.662117678212677"><ele>331.0</ele><time>2026-03-29T07:36:09Z</time></trkpt><trkpt lat="36.99649250010914" lon="14.662030327274758"><ele>331.0</ele><time>2026-03-29T07:36:38Z</time></trkpt><trkpt lat="36.99650727231855" lon="14.661950168965545"><ele>331.0</ele><time>2026-03-29T07:36:54Z</time></trkpt><trkpt lat="36.99648994147701" lon="14.661873793814884"><ele>331.0</ele><time>2026-03-29T07:37:07Z</time></trkpt><trkpt lat="36.996479788765676" lon="14.661772745784766"><ele>331.0</ele><time>2026-03-29T07:37:17Z</time></trkpt><trkpt lat="36.99648742750168" lon="14.661683470999439"><ele>330.42857142857144</ele><time>2026-03-29T07:37:33Z</time></trkpt><trkpt lat="36.996504615000816" lon="14.66159515994207"><ele>329.85714285714283</ele><time>2026-03-29T07:37:37Z</time></trkpt><trkpt lat="36.99649938409418" lon="14.661512566397056"><ele>329.2857142857143</ele><time>2026-03-29T07:38:13Z</time></trkpt><trkpt lat="36.9965132822643" lon="14.661429907138999"><ele>328.7142857142857</ele><time>2026-03-29T07:38:26Z</time></trkpt><trkpt lat="36.996522722623446" lon="14.661349593774336"><ele>328.14285714285717</ele><time>2026-03-29T07:38:38Z</time></trkpt><trkpt lat="36.99650162518768" lon="14.66124868133779"><ele>327.57142857142856</ele><time>2026-03-29T07:38:44Z</time></trkpt><trkpt lat="36.99647577622202" lon="14.661172005003525"><ele>327.0</ele><time>2026-03-29T07:40:30Z</time></trkpt><trkpt lat="36.996461068809296" lon="14.6610869025008"><ele>326.6666666666667</ele><time>2026-03-29T07:40:41Z</time></trkpt><trkpt lat="36.996444766646995" lon="14.66098973836583"><ele>326.3333333333333</ele><time>2026-03-29T07:40:44Z</time></trkpt><trkpt lat="36.996411764341" lon="14.660899054274369"><ele>326.0</ele><time>2026-03-29T07:40:48Z</time></trkpt><trkpt lat="36.996365382455366" lon="14.66082433140063"><ele>325.66666666666663</ele><time>2026-03-29T07:40:55Z</time></trkpt><trkpt lat="36.99630445941953" lon="14.660752064611767"><ele>325.3333333333333</ele><time>2026-03-29T07:40:58Z</time></trkpt><trkpt lat="36.996297898017666" lon="14.660662696395434"><ele>325.0</ele><time>2026-03-29T07:41:01Z</time></trkpt><trkpt lat="36.9962665168881" lon="14.660586628612803"><ele>325.0</ele><time>2026-03-29T07:41:04Z</time></trkpt><trkpt lat="36.99622502807631" lon="14.66051126213886"><ele>325.0</ele><time>2026-03-29T07:41:07Z</time></trkpt><trkpt lat="36.9961734839131" lon="14.660428477948285"><ele>325.0</ele><time>2026-03-29T07:41:10Z</time></trkpt><trkpt lat="36.996143867206406" lon="14.660333084044497"><ele>325.0</ele><time>2026-03-29T07:41:13Z</time></trkpt><trkpt lat="36.996106541105995" lon="14.660249556141304"><ele>325.0</ele><time>2026-03-29T07:41:16Z</time></trkpt><trkpt lat="36.99604880942887" lon="14.660163116490033"><ele>325.0</ele><time>2026-03-29T07:41:19Z</time></trkpt><trkpt lat="36.99600396083273" lon="14.660061580408048"><ele>324.3333333333333</ele><time>2026-03-29T07:41:22Z</time></trkpt><trkpt lat="36.99596636332791" lon="14.659979326809665"><ele>323.66666666666663</ele><time>2026-03-29T07:41:25Z</time></trkpt><trkpt lat="36.99589399363017" lon="14.659940638219414"><ele>323.0</ele><time>2026-03-29T07:41:27Z</time></trkpt><trkpt lat="36.99583857417127" lon="14.659848806791429"><ele>322.3333333333333</ele><time>2026-03-29T07:41:30Z</time></trkpt><trkpt lat="36.995790602501515" lon="14.65977200895214"><ele>321.6666666666667</ele><time>2026-03-29T07:41:32Z</time></trkpt><trkpt lat="36.99574132069311" lon="14.65970704500059"><ele>321.0</ele><time>2026-03-29T07:41:34Z</time></trkpt><trkpt lat="36.995711981063174" lon="14.659620826175288"><ele>320.85714285714283</ele><time>2026-03-29T07:41:37Z</time></trkpt><trkpt lat="36.995681470214244" lon="14.659534042219342"><ele>320.7142857142857</ele><time>2026-03-29T07:41:43Z</time></trkpt><trkpt lat="36.99566431323252" lon="14.65945799363568"><ele>320.57142857142856</ele><time>2026-03-29T07:41:46Z</time></trkpt><trkpt lat="36.995606644220345" lon="14.659369603828662"><ele>320.42857142857144</ele><time>2026-03-29T07:41:49Z</time></trkpt><trkpt lat="36.99556508443941" lon="14.659309130649907"><ele>320.2857142857143</ele><time>2026-03-29T07:41:51Z</time></trkpt><trkpt lat="36.995498102851506" lon="14.65927931241721"><ele>320.1428571428571</ele><time>2026-03-29T07:41:55Z</time></trkpt><trkpt lat="36.995451941316325" lon="14.659219661184965"><ele>320.0</ele><time>2026-03-29T07:41:58Z</time></trkpt><trkpt lat="36.995418819590135" lon="14.65914292869252"><ele>319.6666666666667</ele><time>2026-03-29T07:42:01Z</time></trkpt><trkpt lat="36.995412766185474" lon="14.659049769568789"><ele>319.33333333333337</ele><time>2026-03-29T07:42:05Z</time></trkpt><trkpt lat="36.99537987411948" lon="14.65897094008002"><ele>319.0</ele><time>2026-03-29T07:42:08Z</time></trkpt><trkpt lat="36.99533472193035" lon="14.658890168876052"><ele>318.6666666666667</ele><time>2026-03-29T07:42:11Z</time></trkpt><trkpt lat="36.995307041569085" lon="14.65878140789396"><ele>318.3333333333333</ele><time>2026-03-29T07:42:14Z</time></trkpt><trkpt lat="36.995253154594636" lon="14.658670185618535"><ele>318.0</ele><time>2026-03-29T07:42:16Z</time></trkpt><trkpt lat="36.99520360518456" lon="14.658533278030172"><ele>317.57142857142856</ele><time>2026-03-29T07:42:18Z</time></trkpt><trkpt lat="36.99517085169465" lon="14.658454031445588"><ele>317.14285714285717</ele><time>2026-03-29T07:42:22Z</time></trkpt><trkpt lat="36.99511690316323" lon="14.658406126173862"><ele>316.7142857142857</ele><time>2026-03-29T07:42:24Z</time></trkpt><trkpt lat="36.99509102294666" lon="14.658332809478257"><ele>316.2857142857143</ele><time>2026-03-29T07:42:27Z</time></trkpt><trkpt lat="36.99506708808153" lon="14.658241887135622"><ele>315.8571428571429</ele><time>2026-03-29T07:42:29Z</time></trkpt><trkpt lat="36.995045035465324" lon="14.658159932649209"><ele>315.42857142857144</ele><time>2026-03-29T07:42:30Z</time></trkpt><trkpt lat="36.99498339826369" lon="14.658093340366772"><ele>315.0</ele><time>2026-03-29T07:42:33Z</time></trkpt><trkpt lat="36.99496039775677" lon="14.65801581066238"><ele>314.5</ele><time>2026-03-29T07:42:35Z</time></trkpt><trkpt lat="36.99493121328593" lon="14.657883735208317"><ele>314.0</ele><time>2026-03-29T07:42:37Z</time></trkpt><trkpt lat="36.99493612356944" lon="14.657741223972618"><ele>313.5</ele><time>2026-03-29T07:42:39Z</time></trkpt><trkpt lat="36.99492970023393" lon="14.65763875885622"><ele>313.0</ele><time>2026-03-29T07:42:40Z</time></trkpt><trkpt lat="36.994875744312345" lon="14.657575369545617"><ele>312.5</ele><time>2026-03-29T07:42:42Z</time></trkpt><trkpt lat="36.994841218972326" lon="14.65750860574088"><ele>312.0</ele><time>2026-03-29T07:42:45Z</time></trkpt><trkpt lat="36.9948035414733" lon="14.657441487239419"><ele>311.0</ele><time>2026-03-29T07:42:47Z</time></trkpt><trkpt lat="36.99461250043796" lon="14.65718694934581"><ele>310.0</ele><time>2026-03-29T07:42:57Z</time></trkpt><trkpt lat="36.99451252796308" lon="14.657110910728964"><ele>309.0</ele><time>2026-03-29T07:43:00Z</time></trkpt><trkpt lat="36.9944764431398" lon="14.657041858581104"><ele>309.00000000000006</ele><time>2026-03-29T07:43:02Z</time></trkpt><trkpt lat="36.99443313193467" lon="14.656981176560542"><ele>309.0</ele><time>2026-03-29T07:43:04Z</time></trkpt><trkpt lat="36.994369155381094" lon="14.656929651027752"><ele>309.0</ele><time>2026-03-29T07:43:06Z</time></trkpt><trkpt lat="36.99431250877791" lon="14.65685412768736"><ele>309.0</ele><time>2026-03-29T07:43:08Z</time></trkpt><trkpt lat="36.994273384415926" lon="14.65677994557863"><ele>309.0</ele><time>2026-03-29T07:43:10Z</time></trkpt><trkpt lat="36.99425634752194" lon="14.656686731613373"><ele>309.00000000000006</ele><time>2026-03-29T07:43:12Z</time></trkpt><trkpt lat="36.99422067362711" lon="14.656621384522797"><ele>309.0</ele><time>2026-03-29T07:43:14Z</time></trkpt><trkpt lat="36.99412588365131" lon="14.656533366102583"><ele>307.59999999999997</ele><time>2026-03-29T07:43:16Z</time></trkpt><trkpt lat="36.99406480749356" lon="14.656495887610534"><ele>306.2</ele><time>2026-03-29T07:43:17Z</time></trkpt><trkpt lat="36.99396988689889" lon="14.656412969947585"><ele>304.79999999999995</ele><time>2026-03-29T07:43:19Z</time></trkpt><trkpt lat="36.99394609494308" lon="14.65629104780106"><ele>303.4</ele><time>2026-03-29T07:43:21Z</time></trkpt><trkpt lat="36.993920200317596" lon="14.656190122981572"><ele>302.0</ele><time>2026-03-29T07:43:23Z</time></trkpt><trkpt lat="36.993887972399264" lon="14.656043803536072"><ele>302.0</ele><time>2026-03-29T07:43:25Z</time></trkpt><trkpt lat="36.993834502485" lon="14.655969727634544"><ele>302.0</ele><time>2026-03-29T07:43:27Z</time></trkpt><trkpt lat="36.993793445932795" lon="14.655858009604238"><ele>302.0</ele><time>2026-03-29T07:43:31Z</time></trkpt><trkpt lat="36.99369843907388" lon="14.655806762490096"><ele>302.0</ele><time>2026-03-29T07:43:34Z</time></trkpt><trkpt lat="36.993682358216525" lon="14.655728568203935"><ele>302.0</ele><time>2026-03-29T07:43:42Z</time></trkpt><trkpt lat="36.9936184054111" lon="14.65565135135075"><ele>302.0</ele><time>2026-03-29T07:43:44Z</time></trkpt><trkpt lat="36.99354812760624" lon="14.655641633618098"><ele>302.0</ele><time>2026-03-29T07:43:47Z</time></trkpt><trkpt lat="36.99348005640741" lon="14.655581963631073"><ele>302.0</ele><time>2026-03-29T07:43:49Z</time></trkpt><trkpt lat="36.99342899657924" lon="14.65547278513612"><ele>302.0</ele><time>2026-03-29T07:43:52Z</time></trkpt><trkpt lat="36.99336716468313" lon="14.655442796432132"><ele>302.0</ele><time>2026-03-29T07:44:06Z</time></trkpt><trkpt lat="36.99333012205879" lon="14.655373682694645"><ele>302.0</ele><time>2026-03-29T07:44:17Z</time></trkpt><trkpt lat="36.99338955481226" lon="14.65541728361514"><ele>302.0</ele><time>2026-03-29T07:46:39Z</time></trkpt><trkpt lat="36.99332044646752" lon="14.655355989601425"><ele>301.0</ele><time>2026-03-29T07:48:58Z</time></trkpt><trkpt lat="36.99325689378498" lon="14.655246483371172"><ele>300.0</ele><time>2026-03-29T07:50:18Z</time></trkpt><trkpt lat="36.993192042766196" lon="14.65517528230248"><ele>299.0</ele><time>2026-03-29T07:50:20Z</time></trkpt><trkpt lat="36.99315479729454" lon="14.655099897883638"><ele>298.0</ele><time>2026-03-29T07:50:22Z</time></trkpt><trkpt lat="36.993166251827795" lon="14.65498635072395"><ele>297.0</ele><time>2026-03-29T07:50:24Z</time></trkpt><trkpt lat="36.99318668216133" lon="14.654892310130858"><ele>296.0</ele><time>2026-03-29T07:50:25Z</time></trkpt><trkpt lat="36.9932146115788" lon="14.65478129782836"><ele>296.0</ele><time>2026-03-29T07:50:27Z</time></trkpt><trkpt lat="36.99320773545258" lon="14.654693146659266"><ele>296.0</ele><time>2026-03-29T07:50:29Z</time></trkpt><trkpt lat="36.99320580409901" lon="14.654592512294602"><ele>296.0</ele><time>2026-03-29T07:50:31Z</time></trkpt><trkpt lat="36.99319203884385" lon="14.654489143224996"><ele>296.0</ele><time>2026-03-29T07:50:33Z</time></trkpt><trkpt lat="36.99317122443452" lon="14.654387266947463"><ele>296.0</ele><time>2026-03-29T07:50:35Z</time></trkpt><trkpt lat="36.99310297328051" lon="14.654261782017212"><ele>296.0</ele><time>2026-03-29T07:50:37Z</time></trkpt><trkpt lat="36.993061470366364" lon="14.654187063211873"><ele>295.6</ele><time>2026-03-29T07:50:38Z</time></trkpt><trkpt lat="36.99301250576015" lon="14.654122488939928"><ele>295.20000000000005</ele><time>2026-03-29T07:50:39Z</time></trkpt><trkpt lat="36.992959788599336" lon="14.65402592194948"><ele>294.79999999999995</ele><time>2026-03-29T07:50:41Z</time></trkpt><trkpt lat="36.99287651602544" lon="14.65397921797117"><ele>294.4</ele><time>2026-03-29T07:50:43Z</time></trkpt><trkpt lat="36.99278112614907" lon="14.653916627981221"><ele>294.0</ele><time>2026-03-29T07:50:45Z</time></trkpt><trkpt lat="36.9927162968169" lon="14.653835647251745"><ele>294.0</ele><time>2026-03-29T07:50:47Z</time></trkpt><trkpt lat="36.99268289967054" lon="14.653752235948282"><ele>294.0</ele><time>2026-03-29T07:50:49Z</time></trkpt><trkpt lat="36.99262160600509" lon="14.653672589607691"><ele>294.0</ele><time>2026-03-29T07:50:52Z</time></trkpt><trkpt lat="36.99260780528423" lon="14.65355056966053"><ele>294.0</ele><time>2026-03-29T07:50:55Z</time></trkpt><trkpt lat="36.99258859177964" lon="14.653440802480386"><ele>294.0</ele><time>2026-03-29T07:50:57Z</time></trkpt><trkpt lat="36.99260746307539" lon="14.653308339903026"><ele>293.8333333333333</ele><time>2026-03-29T07:50:59Z</time></trkpt><trkpt lat="36.992635833032324" lon="14.653197262084513"><ele>293.6666666666667</ele><time>2026-03-29T07:51:01Z</time></trkpt><trkpt lat="36.992577343156476" lon="14.653116182778556"><ele>293.5</ele><time>2026-03-29T07:51:04Z</time></trkpt><trkpt lat="36.99256122538231" lon="14.653009370322081"><ele>293.33333333333337</ele><time>2026-03-29T07:51:06Z</time></trkpt><trkpt lat="36.99257447195893" lon="14.652884406459965"><ele>293.1666666666667</ele><time>2026-03-29T07:51:08Z</time></trkpt><trkpt lat="36.99260421839716" lon="14.652795353406832"><ele>293.0</ele><time>2026-03-29T07:51:10Z</time></trkpt><trkpt lat="36.9925549796802" lon="14.652675379687897"><ele>292.2</ele><time>2026-03-29T07:51:12Z</time></trkpt><trkpt lat="36.99249564263189" lon="14.652713228417857"><ele>291.4</ele><time>2026-03-29T07:51:14Z</time></trkpt><trkpt lat="36.9924366874107" lon="14.652672240325725"><ele>290.59999999999997</ele><time>2026-03-29T07:51:15Z</time></trkpt><trkpt lat="36.992373745366315" lon="14.65255577688713"><ele>289.8</ele><time>2026-03-29T07:51:17Z</time></trkpt><trkpt lat="36.99225758163247" lon="14.652460483581917"><ele>289.0</ele><time>2026-03-29T07:51:19Z</time></trkpt><trkpt lat="36.99213660702841" lon="14.65233941568695"><ele>289.0</ele><time>2026-03-29T07:51:21Z</time></trkpt><trkpt lat="36.99209151912259" lon="14.652245561031721"><ele>289.0</ele><time>2026-03-29T07:51:22Z</time></trkpt><trkpt lat="36.99204469797789" lon="14.652167284633968"><ele>289.0</ele><time>2026-03-29T07:51:23Z</time></trkpt><trkpt lat="36.99198573208132" lon="14.65212150627927"><ele>289.0</ele><time>2026-03-29T07:51:24Z</time></trkpt><trkpt lat="36.991914483986456" lon="14.652065386074906"><ele>289.0</ele><time>2026-03-29T07:51:25Z</time></trkpt><trkpt lat="36.99183805872352" lon="14.652009913478619"><ele>289.0</ele><time>2026-03-29T07:51:26Z</time></trkpt><trkpt lat="36.99178120526527" lon="14.651958357188983"><ele>288.8</ele><time>2026-03-29T07:51:27Z</time></trkpt><trkpt lat="36.991682248101235" lon="14.651864223993927"><ele>288.59999999999997</ele><time>2026-03-29T07:51:29Z</time></trkpt><trkpt lat="36.99162288734241" lon="14.651794988725122"><ele>288.4</ele><time>2026-03-29T07:51:30Z</time></trkpt><trkpt lat="36.99158077765877" lon="14.651722609907099"><ele>288.2</ele><time>2026-03-29T07:51:31Z</time></trkpt><trkpt lat="36.99152293219209" lon="14.651607916271766"><ele>288.0</ele><time>2026-03-29T07:51:33Z</time></trkpt><trkpt lat="36.991457280323665" lon="14.651525340170197"><ele>287.6666666666667</ele><time>2026-03-29T07:51:35Z</time></trkpt><trkpt lat="36.99138334545108" lon="14.651429651518793"><ele>287.3333333333333</ele><time>2026-03-29T07:51:37Z</time></trkpt><trkpt lat="36.99131423496058" lon="14.651360612604746"><ele>287.0</ele><time>2026-03-29T07:51:39Z</time></trkpt><trkpt lat="36.99126540428743" lon="14.651268384898021"><ele>286.66666666666663</ele><time>2026-03-29T07:51:42Z</time></trkpt><trkpt lat="36.991249651004765" lon="14.651189385023697"><ele>286.3333333333333</ele><time>2026-03-29T07:51:46Z</time></trkpt><trkpt lat="36.9911917834853" lon="14.651151535003573"><ele>286.0</ele><time>2026-03-29T07:52:12Z</time></trkpt><trkpt lat="36.99113512788082" lon="14.651077519329707"><ele>285.6</ele><time>2026-03-29T07:52:15Z</time></trkpt><trkpt lat="36.991119187978335" lon="14.650995260231078"><ele>285.20000000000005</ele><time>2026-03-29T07:52:19Z</time></trkpt><trkpt lat="36.9911214067837" lon="14.650906175977745"><ele>284.79999999999995</ele><time>2026-03-29T07:52:25Z</time></trkpt><trkpt lat="36.99102633960598" lon="14.650678362452416"><ele>284.4</ele><time>2026-03-29T07:52:32Z</time></trkpt><trkpt lat="36.99096499627328" lon="14.650599887818995"><ele>284.0</ele><time>2026-03-29T07:52:35Z</time></trkpt><trkpt lat="36.990936464433275" lon="14.650510088250439"><ele>284.0</ele><time>2026-03-29T07:52:37Z</time></trkpt><trkpt lat="36.99098404729642" lon="14.650454013356997"><ele>284.0</ele><time>2026-03-29T07:52:40Z</time></trkpt><trkpt lat="36.99100107613451" lon="14.650357007585328"><ele>284.0</ele><time>2026-03-29T07:52:43Z</time></trkpt><trkpt lat="36.991012532496796" lon="14.650278139801246"><ele>284.0</ele><time>2026-03-29T07:52:46Z</time></trkpt><trkpt lat="36.991018912601874" lon="14.650189909321437"><ele>284.0</ele><time>2026-03-29T07:52:49Z</time></trkpt><trkpt lat="36.991006246572795" lon="14.650095636594589"><ele>284.0</ele><time>2026-03-29T07:52:51Z</time></trkpt><trkpt lat="36.99098591654199" lon="14.64999196216946"><ele>284.0</ele><time>2026-03-29T07:52:54Z</time></trkpt><trkpt lat="36.990957092528895" lon="14.6498684329145"><ele>283.83333333333337</ele><time>2026-03-29T07:52:57Z</time></trkpt><trkpt lat="36.990940561217755" lon="14.649777890186606"><ele>283.6666666666667</ele><time>2026-03-29T07:53:00Z</time></trkpt><trkpt lat="36.99091712480441" lon="14.649697000595488"><ele>283.5</ele><time>2026-03-29T07:53:02Z</time></trkpt><trkpt lat="36.99088428598927" lon="14.649594607692066"><ele>283.3333333333333</ele><time>2026-03-29T07:53:05Z</time></trkpt><trkpt lat="36.990835249366484" lon="14.649488657846078"><ele>283.16666666666663</ele><time>2026-03-29T07:53:08Z</time></trkpt><trkpt lat="36.99082346961504" lon="14.649373432727499"><ele>283.0</ele><time>2026-03-29T07:53:11Z</time></trkpt><trkpt lat="36.990805783539216" lon="14.649229890316747"><ele>282.4</ele><time>2026-03-29T07:53:13Z</time></trkpt><trkpt lat="36.99078010872548" lon="14.649080903368585"><ele>281.8</ele><time>2026-03-29T07:53:15Z</time></trkpt><trkpt lat="36.99078024626373" lon="14.648974390644753"><ele>281.2</ele><time>2026-03-29T07:53:17Z</time></trkpt><trkpt lat="36.99081978777247" lon="14.648870423027915"><ele>280.6</ele><time>2026-03-29T07:53:20Z</time></trkpt><trkpt lat="36.99080775356543" lon="14.64878756024782"><ele>280.0</ele><time>2026-03-29T07:53:24Z</time></trkpt><trkpt lat="36.99078125945987" lon="14.648659116680877"><ele>279.3333333333333</ele><time>2026-03-29T07:53:27Z</time></trkpt><trkpt lat="36.99072911136464" lon="14.648592183251463"><ele>278.66666666666663</ele><time>2026-03-29T07:53:31Z</time></trkpt><trkpt lat="36.990705500003294" lon="14.64850908402925"><ele>278.0</ele><time>2026-03-29T07:53:35Z</time></trkpt><trkpt lat="36.99060022492761" lon="14.648459697022753"><ele>277.3333333333333</ele><time>2026-03-29T07:53:39Z</time></trkpt><trkpt lat="36.99057723214686" lon="14.648377074666316"><ele>276.6666666666667</ele><time>2026-03-29T07:53:40Z</time></trkpt><trkpt lat="36.99052287051123" lon="14.648302446942806"><ele>276.0</ele><time>2026-03-29T07:53:43Z</time></trkpt><trkpt lat="36.99041448052972" lon="14.648271436514658"><ele>276.0</ele><time>2026-03-29T07:53:45Z</time></trkpt><trkpt lat="36.99040014365304" lon="14.648177695224348"><ele>276.0</ele><time>2026-03-29T07:53:47Z</time></trkpt><trkpt lat="36.990372764331205" lon="14.648090083676628"><ele>276.0</ele><time>2026-03-29T07:53:48Z</time></trkpt><trkpt lat="36.99031850322749" lon="14.647993677968529"><ele>276.0</ele><time>2026-03-29T07:53:49Z</time></trkpt><trkpt lat="36.99026722045389" lon="14.647893586794845"><ele>276.0</ele><time>2026-03-29T07:53:50Z</time></trkpt><trkpt lat="36.99022174018531" lon="14.647803140304948"><ele>276.0</ele><time>2026-03-29T07:53:51Z</time></trkpt><trkpt lat="36.9901594441941" lon="14.647622108270006"><ele>276.25</ele><time>2026-03-29T07:53:52Z</time></trkpt><trkpt lat="36.99008318661135" lon="14.647433544807607"><ele>276.5</ele><time>2026-03-29T07:53:53Z</time></trkpt><trkpt lat="36.99003901309352" lon="14.647273965366372"><ele>276.75</ele><time>2026-03-29T07:53:54Z</time></trkpt><trkpt lat="36.98999295996232" lon="14.647197808380286"><ele>277.0</ele><time>2026-03-29T07:53:55Z</time></trkpt><trkpt lat="36.9899318813466" lon="14.647099198139149"><ele>276.2</ele><time>2026-03-29T07:53:56Z</time></trkpt><trkpt lat="36.98982969007077" lon="14.647003336041214"><ele>275.4</ele><time>2026-03-29T07:53:58Z</time></trkpt><trkpt lat="36.98974683563081" lon="14.646981150150495"><ele>274.6</ele><time>2026-03-29T07:54:00Z</time></trkpt><trkpt lat="36.98965282901582" lon="14.646942221429953"><ele>273.8</ele><time>2026-03-29T07:54:03Z</time></trkpt><trkpt lat="36.98959941111819" lon="14.646875290342734"><ele>273.0</ele><time>2026-03-29T07:54:05Z</time></trkpt><trkpt lat="36.989555636386164" lon="14.646790227985559"><ele>272.6666666666667</ele><time>2026-03-29T07:54:07Z</time></trkpt><trkpt lat="36.989493345410985" lon="14.646733362178114"><ele>272.3333333333333</ele><time>2026-03-29T07:54:09Z</time></trkpt><trkpt lat="36.98940013544677" lon="14.646664193789789"><ele>272.0</ele><time>2026-03-29T07:54:11Z</time></trkpt><trkpt lat="36.989328593851795" lon="14.646584730825417"><ele>271.66666666666663</ele><time>2026-03-29T07:54:13Z</time></trkpt><trkpt lat="36.98929115515505" lon="14.646515694415633"><ele>271.3333333333333</ele><time>2026-03-29T07:54:14Z</time></trkpt><trkpt lat="36.98925411865667" lon="14.646421048409044"><ele>271.0</ele><time>2026-03-29T07:54:16Z</time></trkpt><trkpt lat="36.989233369545104" lon="14.64632833853233"><ele>271.0</ele><time>2026-03-29T07:54:18Z</time></trkpt><trkpt lat="36.98918512023887" lon="14.646229843336625"><ele>271.0</ele><time>2026-03-29T07:54:21Z</time></trkpt><trkpt lat="36.98914437271707" lon="14.646150592985487"><ele>271.0</ele><time>2026-03-29T07:54:23Z</time></trkpt><trkpt lat="36.98907810046196" lon="14.646095939826838"><ele>271.0</ele><time>2026-03-29T07:54:26Z</time></trkpt><trkpt lat="36.98902877437921" lon="14.646041479018226"><ele>271.0</ele><time>2026-03-29T07:54:29Z</time></trkpt><trkpt lat="36.98897762076744" lon="14.645988209428902"><ele>271.0</ele><time>2026-03-29T07:54:32Z</time></trkpt><trkpt lat="36.98890347674784" lon="14.645985979540733"><ele>270.0</ele><time>2026-03-29T07:54:37Z</time></trkpt><trkpt lat="36.98883265012198" lon="14.645940665239564"><ele>269.0</ele><time>2026-03-29T07:54:41Z</time></trkpt><trkpt lat="36.98876424797925" lon="14.645891396372948"><ele>268.0</ele><time>2026-03-29T07:54:44Z</time></trkpt><trkpt lat="36.98869718096559" lon="14.645833476308226"><ele>267.0</ele><time>2026-03-29T07:54:46Z</time></trkpt><trkpt lat="36.98860637319679" lon="14.645728543659954"><ele>266.0</ele><time>2026-03-29T07:54:48Z</time></trkpt><trkpt lat="36.988544172296656" lon="14.64564794616705"><ele>266.0</ele><time>2026-03-29T07:54:50Z</time></trkpt><trkpt lat="36.98846893710993" lon="14.64559309476626"><ele>266.0</ele><time>2026-03-29T07:54:53Z</time></trkpt><trkpt lat="36.98841130038677" lon="14.645547776077484"><ele>266.0</ele><time>2026-03-29T07:54:55Z</time></trkpt><trkpt lat="36.988375769870906" lon="14.645464430285221"><ele>266.0</ele><time>2026-03-29T07:54:57Z</time></trkpt><trkpt lat="36.98833177978778" lon="14.645377488075493"><ele>266.0</ele><time>2026-03-29T07:55:00Z</time></trkpt><trkpt lat="36.98826602341379" lon="14.645338197945515"><ele>266.0</ele><time>2026-03-29T07:55:02Z</time></trkpt><trkpt lat="36.98822473521737" lon="14.645257842862362"><ele>265.5</ele><time>2026-03-29T07:55:04Z</time></trkpt><trkpt lat="36.98814989109908" lon="14.645208285209032"><ele>265.0</ele><time>2026-03-29T07:55:06Z</time></trkpt><trkpt lat="36.98811383608484" lon="14.645135098914377"><ele>264.5</ele><time>2026-03-29T07:55:07Z</time></trkpt><trkpt lat="36.98803784501895" lon="14.645032365512908"><ele>264.0</ele><time>2026-03-29T07:55:10Z</time></trkpt><trkpt lat="36.98796650291238" lon="14.644962610602612"><ele>263.5</ele><time>2026-03-29T07:55:13Z</time></trkpt><trkpt lat="36.98791636004401" lon="14.644873890321994"><ele>263.0</ele><time>2026-03-29T07:55:15Z</time></trkpt><trkpt lat="36.98784176486309" lon="14.644808917284479"><ele>263.0</ele><time>2026-03-29T07:55:17Z</time></trkpt><trkpt lat="36.98777215649066" lon="14.644775058689019"><ele>263.0</ele><time>2026-03-29T07:55:19Z</time></trkpt><trkpt lat="36.98769432830693" lon="14.64469474132559"><ele>263.0</ele><time>2026-03-29T07:55:21Z</time></trkpt><trkpt lat="36.98763653809536" lon="14.644621762429608"><ele>263.0</ele><time>2026-03-29T07:55:22Z</time></trkpt><trkpt lat="36.987572399516985" lon="14.644538747524063"><ele>263.0</ele><time>2026-03-29T07:55:23Z</time></trkpt><trkpt lat="36.98752242611574" lon="14.64448218697479"><ele>263.0</ele><time>2026-03-29T07:55:24Z</time></trkpt><trkpt lat="36.98741010777414" lon="14.644381543225991"><ele>262.2</ele><time>2026-03-29T07:55:25Z</time></trkpt><trkpt lat="36.98729797851951" lon="14.64431019399013"><ele>261.4</ele><time>2026-03-29T07:55:27Z</time></trkpt><trkpt lat="36.98722325592927" lon="14.644269704596118"><ele>260.59999999999997</ele><time>2026-03-29T07:55:28Z</time></trkpt><trkpt lat="36.98711228051852" lon="14.644190023881935"><ele>259.8</ele><time>2026-03-29T07:55:30Z</time></trkpt><trkpt lat="36.98702375343634" lon="14.644163204197078"><ele>259.0</ele><time>2026-03-29T07:55:32Z</time></trkpt><trkpt lat="36.98691247036505" lon="14.644109243373189"><ele>259.0</ele><time>2026-03-29T07:55:34Z</time></trkpt><trkpt lat="36.98686170758398" lon="14.644036990398982"><ele>259.0</ele><time>2026-03-29T07:55:36Z</time></trkpt><trkpt lat="36.986833888077136" lon="14.643953359309066"><ele>259.0</ele><time>2026-03-29T07:55:38Z</time></trkpt><trkpt lat="36.986789605023674" lon="14.64386721723157"><ele>259.0</ele><time>2026-03-29T07:55:40Z</time></trkpt><trkpt lat="36.98676005275546" lon="14.643772690322718"><ele>259.0</ele><time>2026-03-29T07:55:42Z</time></trkpt><trkpt lat="36.9867011673228" lon="14.643719431817287"><ele>259.0</ele><time>2026-03-29T07:55:44Z</time></trkpt><trkpt lat="36.9866554370675" lon="14.643653051328478"><ele>258.16666666666663</ele><time>2026-03-29T07:55:46Z</time></trkpt><trkpt lat="36.986631351487304" lon="14.643572236268355"><ele>257.3333333333333</ele><time>2026-03-29T07:55:51Z</time></trkpt><trkpt lat="36.98657683812616" lon="14.64350381569055"><ele>256.5</ele><time>2026-03-29T07:55:55Z</time></trkpt><trkpt lat="36.986553012775666" lon="14.643388162792037"><ele>255.66666666666669</ele><time>2026-03-29T07:55:58Z</time></trkpt><trkpt lat="36.986513320407944" lon="14.643316035100582"><ele>254.83333333333334</ele><time>2026-03-29T07:56:00Z</time></trkpt><trkpt lat="36.98647998406365" lon="14.64324243996196"><ele>254.0</ele><time>2026-03-29T07:56:01Z</time></trkpt><trkpt lat="36.98641993687638" lon="14.643158924239229"><ele>254.0</ele><time>2026-03-29T07:56:03Z</time></trkpt><trkpt lat="36.98636832645524" lon="14.643097892703803"><ele>253.99999999999997</ele><time>2026-03-29T07:56:05Z</time></trkpt><trkpt lat="36.98630425811029" lon="14.643023317153595"><ele>253.99999999999997</ele><time>2026-03-29T07:56:07Z</time></trkpt><trkpt lat="36.98622953684097" lon="14.642913704000302"><ele>254.0</ele><time>2026-03-29T07:56:12Z</time></trkpt><trkpt lat="36.986185213434204" lon="14.642741522135529"><ele>254.0</ele><time>2026-03-29T07:56:15Z</time></trkpt><trkpt lat="36.98615283560287" lon="14.642646336550127"><ele>254.00000000000003</ele><time>2026-03-29T07:56:17Z</time></trkpt><trkpt lat="36.986120628286486" lon="14.642571017676826"><ele>254.0</ele><time>2026-03-29T07:56:19Z</time></trkpt><trkpt lat="36.98605517788517" lon="14.642511088483577"><ele>254.0</ele><time>2026-03-29T07:56:21Z</time></trkpt><trkpt lat="36.98603657425904" lon="14.642420951626404"><ele>254.0</ele><time>2026-03-29T07:56:23Z</time></trkpt><trkpt lat="36.98597006580944" lon="14.642286429237354"><ele>254.00000000000003</ele><time>2026-03-29T07:56:25Z</time></trkpt><trkpt lat="36.98592421379461" lon="14.642194732062537"><ele>254.0</ele><time>2026-03-29T07:56:26Z</time></trkpt><trkpt lat="36.98586152152903" lon="14.642108408780441"><ele>254.0</ele><time>2026-03-29T07:56:28Z</time></trkpt><trkpt lat="36.98580024051697" lon="14.642023243196173"><ele>253.99999999999997</ele><time>2026-03-29T07:56:30Z</time></trkpt><trkpt lat="36.98571952561212" lon="14.641951462999726"><ele>253.99999999999997</ele><time>2026-03-29T07:56:32Z</time></trkpt><trkpt lat="36.98562607514045" lon="14.641902275776445"><ele>254.0</ele><time>2026-03-29T07:56:34Z</time></trkpt><trkpt lat="36.98554449071255" lon="14.641872724187511"><ele>254.0</ele><time>2026-03-29T07:56:36Z</time></trkpt><trkpt lat="36.98546691377802" lon="14.641816152661915"><ele>253.39999999999998</ele><time>2026-03-29T07:56:38Z</time></trkpt><trkpt lat="36.98541020956386" lon="14.64171037302936"><ele>252.79999999999998</ele><time>2026-03-29T07:56:40Z</time></trkpt><trkpt lat="36.985352780053304" lon="14.641660548828824"><ele>252.20000000000002</ele><time>2026-03-29T07:56:42Z</time></trkpt><trkpt lat="36.98527390584527" lon="14.641498994202442"><ele>251.60000000000002</ele><time>2026-03-29T07:56:44Z</time></trkpt><trkpt lat="36.985232284758176" lon="14.641436639583643"><ele>251.0</ele><time>2026-03-29T07:56:45Z</time></trkpt><trkpt lat="36.985166795939456" lon="14.641327841322628"><ele>251.00000000000003</ele><time>2026-03-29T07:56:46Z</time></trkpt><trkpt lat="36.985123072450016" lon="14.641226326413552"><ele>251.0</ele><time>2026-03-29T07:56:47Z</time></trkpt><trkpt lat="36.98509079558938" lon="14.641147833059364"><ele>251.0</ele><time>2026-03-29T07:56:48Z</time></trkpt><trkpt lat="36.985050829880564" lon="14.641011322377398"><ele>251.0</ele><time>2026-03-29T07:56:50Z</time></trkpt><trkpt lat="36.98502745270194" lon="14.640914554469314"><ele>251.00000000000003</ele><time>2026-03-29T07:56:52Z</time></trkpt><trkpt lat="36.985031678055364" lon="14.640805259804813"><ele>251.0</ele><time>2026-03-29T07:56:54Z</time></trkpt><trkpt lat="36.98504543307759" lon="14.640690191173773"><ele>250.83333333333334</ele><time>2026-03-29T07:56:56Z</time></trkpt><trkpt lat="36.98502199572534" lon="14.640594898963972"><ele>250.66666666666669</ele><time>2026-03-29T07:56:58Z</time></trkpt><trkpt lat="36.98499623507095" lon="14.64048864183557"><ele>250.5</ele><time>2026-03-29T07:57:00Z</time></trkpt><trkpt lat="36.98497948067987" lon="14.64038161463229"><ele>250.33333333333331</ele><time>2026-03-29T07:57:02Z</time></trkpt><trkpt lat="36.98492784171985" lon="14.640297015539575"><ele>250.16666666666666</ele><time>2026-03-29T07:57:04Z</time></trkpt><trkpt lat="36.984867346537456" lon="14.640263946184836"><ele>250.0</ele><time>2026-03-29T07:57:06Z</time></trkpt><trkpt lat="36.98478918026884" lon="14.640206713960012"><ele>249.2</ele><time>2026-03-29T07:57:08Z</time></trkpt><trkpt lat="36.984731638979625" lon="14.64013195274849"><ele>248.4</ele><time>2026-03-29T07:57:10Z</time></trkpt><trkpt lat="36.98467694274366" lon="14.64003144612723"><ele>247.60000000000002</ele><time>2026-03-29T07:57:14Z</time></trkpt><trkpt lat="36.98463668431948" lon="14.639928669643233"><ele>246.8</ele><time>2026-03-29T07:57:17Z</time></trkpt><trkpt lat="36.98463637001496" lon="14.63979098102934"><ele>246.0</ele><time>2026-03-29T07:57:20Z</time></trkpt><trkpt lat="36.98462099003235" lon="14.639700202818599"><ele>246.0</ele><time>2026-03-29T07:57:23Z</time></trkpt><trkpt lat="36.98455105728759" lon="14.639598102383502"><ele>246.00000000000003</ele><time>2026-03-29T07:57:37Z</time></trkpt><trkpt lat="36.98451595548319" lon="14.63951945327623"><ele>246.00000000000003</ele><time>2026-03-29T08:04:55Z</time></trkpt><trkpt lat="36.98445319078995" lon="14.639428514966763"><ele>246.0</ele><time>2026-03-29T08:04:57Z</time></trkpt><trkpt lat="36.984403264773604" lon="14.639336343407317"><ele>246.0</ele><time>2026-03-29T08:04:59Z</time></trkpt><trkpt lat="36.9843354043952" lon="14.63922939904492"><ele>245.66666666666666</ele><time>2026-03-29T08:05:01Z</time></trkpt><trkpt lat="36.984287472033934" lon="14.63915471815718"><ele>245.33333333333331</ele><time>2026-03-29T08:05:03Z</time></trkpt><trkpt lat="36.98422714489045" lon="14.639066032028449"><ele>245.0</ele><time>2026-03-29T08:05:05Z</time></trkpt><trkpt lat="36.98415760547176" lon="14.63894855171223"><ele>244.66666666666666</ele><time>2026-03-29T08:05:07Z</time></trkpt><trkpt lat="36.98410296563736" lon="14.638886673905835"><ele>244.33333333333331</ele><time>2026-03-29T08:05:08Z</time></trkpt><trkpt lat="36.984061288728114" lon="14.638802826441554"><ele>244.0</ele><time>2026-03-29T08:05:09Z</time></trkpt><trkpt lat="36.98401666054883" lon="14.638712864662171"><ele>243.5</ele><time>2026-03-29T08:05:10Z</time></trkpt><trkpt lat="36.98396886845457" lon="14.638622251994382"><ele>243.0</ele><time>2026-03-29T08:05:11Z</time></trkpt><trkpt lat="36.98390229227108" lon="14.638520298876568"><ele>242.5</ele><time>2026-03-29T08:05:12Z</time></trkpt><trkpt lat="36.98381111896179" lon="14.638413473735035"><ele>242.0</ele><time>2026-03-29T08:05:13Z</time></trkpt><trkpt lat="36.983673783008506" lon="14.638239264357923"><ele>242.0</ele><time>2026-03-29T08:05:14Z</time></trkpt><trkpt lat="36.98357449746942" lon="14.638121429378574"><ele>242.0</ele><time>2026-03-29T08:05:15Z</time></trkpt><trkpt lat="36.983473634814324" lon="14.63800798714444"><ele>242.0</ele><time>2026-03-29T08:05:16Z</time></trkpt><trkpt lat="36.98337215737015" lon="14.637888365187266"><ele>242.0</ele><time>2026-03-29T08:05:17Z</time></trkpt><trkpt lat="36.983271492812186" lon="14.63779631298414"><ele>241.75</ele><time>2026-03-29T08:05:18Z</time></trkpt><trkpt lat="36.983176837443935" lon="14.637705018328159"><ele>241.5</ele><time>2026-03-29T08:05:19Z</time></trkpt><trkpt lat="36.983086825735384" lon="14.637579858392218"><ele>241.25</ele><time>2026-03-29T08:05:20Z</time></trkpt><trkpt lat="36.98298746242984" lon="14.63746298192364"><ele>241.0</ele><time>2026-03-29T08:05:21Z</time></trkpt><trkpt lat="36.98288100745337" lon="14.637354334687778"><ele>241.0</ele><time>2026-03-29T08:05:22Z</time></trkpt><trkpt lat="36.982776890031026" lon="14.637240805288197"><ele>241.0</ele><time>2026-03-29T08:05:23Z</time></trkpt><trkpt lat="36.98267698473576" lon="14.637125532065191"><ele>241.0</ele><time>2026-03-29T08:05:24Z</time></trkpt><trkpt lat="36.98259658187371" lon="14.63702997701694"><ele>241.0</ele><time>2026-03-29T08:05:25Z</time></trkpt><trkpt lat="36.982505517948624" lon="14.636933460550287"><ele>240.4</ele><time>2026-03-29T08:05:26Z</time></trkpt><trkpt lat="36.98244162043219" lon="14.63682989563116"><ele>239.8</ele><time>2026-03-29T08:05:27Z</time></trkpt><trkpt lat="36.982376209331946" lon="14.636755445909731"><ele>239.20000000000002</ele><time>2026-03-29T08:05:28Z</time></trkpt><trkpt lat="36.98230573860075" lon="14.636677119387045"><ele>238.60000000000002</ele><time>2026-03-29T08:05:29Z</time></trkpt><trkpt lat="36.982217633919554" lon="14.636606755878642"><ele>238.0</ele><time>2026-03-29T08:05:30Z</time></trkpt><trkpt lat="36.982159093710024" lon="14.636517016820942"><ele>238.0</ele><time>2026-03-29T08:05:31Z</time></trkpt><trkpt lat="36.982060532403985" lon="14.636436622072553"><ele>238.0</ele><time>2026-03-29T08:05:32Z</time></trkpt><trkpt lat="36.981972236187175" lon="14.636314629340408"><ele>238.0</ele><time>2026-03-29T08:05:33Z</time></trkpt><trkpt lat="36.981876247048596" lon="14.636208271495281"><ele>238.0</ele><time>2026-03-29T08:05:34Z</time></trkpt><trkpt lat="36.98179469430641" lon="14.63611490782867"><ele>237.4</ele><time>2026-03-29T08:05:35Z</time></trkpt><trkpt lat="36.98171320732887" lon="14.636021613146621"><ele>236.8</ele><time>2026-03-29T08:05:36Z</time></trkpt><trkpt lat="36.98162701916934" lon="14.635920429912447"><ele>236.2</ele><time>2026-03-29T08:05:37Z</time></trkpt><trkpt lat="36.98155573187687" lon="14.635835316493672"><ele>235.6</ele><time>2026-03-29T08:05:38Z</time></trkpt><trkpt lat="36.98148324602071" lon="14.635747582547133"><ele>235.0</ele><time>2026-03-29T08:05:39Z</time></trkpt><trkpt lat="36.9814066376819" lon="14.635654858553547"><ele>235.0</ele><time>2026-03-29T08:05:40Z</time></trkpt><trkpt lat="36.981324739905006" lon="14.635553637167957"><ele>235.0</ele><time>2026-03-29T08:05:41Z</time></trkpt><trkpt lat="36.98123770475016" lon="14.635443939862176"><ele>235.0</ele><time>2026-03-29T08:05:42Z</time></trkpt><trkpt lat="36.98115286451613" lon="14.63533700895819"><ele>235.0</ele><time>2026-03-29T08:05:43Z</time></trkpt><trkpt lat="36.98103845303544" lon="14.635228571952705"><ele>234.75</ele><time>2026-03-29T08:05:44Z</time></trkpt><trkpt lat="36.9809492657529" lon="14.635122036147816"><ele>234.5</ele><time>2026-03-29T08:05:45Z</time></trkpt><trkpt lat="36.980858368066635" lon="14.635008261278715"><ele>234.25</ele><time>2026-03-29T08:05:46Z</time></trkpt><trkpt lat="36.98075828695428" lon="14.63488000506541"><ele>234.0</ele><time>2026-03-29T08:05:47Z</time></trkpt><trkpt lat="36.980662589758694" lon="14.634760246189227"><ele>234.0</ele><time>2026-03-29T08:05:48Z</time></trkpt><trkpt lat="36.980569909748624" lon="14.634635918841544"><ele>234.0</ele><time>2026-03-29T08:05:49Z</time></trkpt><trkpt lat="36.9804699597861" lon="14.634513673670789"><ele>234.0</ele><time>2026-03-29T08:05:50Z</time></trkpt><trkpt lat="36.98037762893037" lon="14.6344013410855"><ele>234.0</ele><time>2026-03-29T08:05:51Z</time></trkpt><trkpt lat="36.98028454214068" lon="14.634273022029403"><ele>234.0</ele><time>2026-03-29T08:05:52Z</time></trkpt><trkpt lat="36.980180975368235" lon="14.634150704053532"><ele>234.0</ele><time>2026-03-29T08:05:53Z</time></trkpt><trkpt lat="36.980090316326276" lon="14.634025112516278"><ele>234.0</ele><time>2026-03-29T08:05:54Z</time></trkpt><trkpt lat="36.979995752711694" lon="14.63392348809792"><ele>234.0</ele><time>2026-03-29T08:05:55Z</time></trkpt><trkpt lat="36.97990080381305" lon="14.63379966251107"><ele>233.75</ele><time>2026-03-29T08:05:56Z</time></trkpt><trkpt lat="36.97979735326495" lon="14.633708965787962"><ele>233.5</ele><time>2026-03-29T08:05:57Z</time></trkpt><trkpt lat="36.97969855001451" lon="14.633589781133265"><ele>233.25</ele><time>2026-03-29T08:05:58Z</time></trkpt><trkpt lat="36.97959764749879" lon="14.633471784851736"><ele>233.0</ele><time>2026-03-29T08:05:59Z</time></trkpt><trkpt lat="36.97948943249258" lon="14.6333089463652"><ele>232.66666666666669</ele><time>2026-03-29T08:06:00Z</time></trkpt><trkpt lat="36.97931881543154" lon="14.633108966809484"><ele>232.33333333333331</ele><time>2026-03-29T08:06:01Z</time></trkpt><trkpt lat="36.979183514191575" lon="14.632912878352187"><ele>232.0</ele><time>2026-03-29T08:06:02Z</time></trkpt><trkpt lat="36.979039781748405" lon="14.632702420437141"><ele>231.0</ele><time>2026-03-29T08:06:03Z</time></trkpt><trkpt lat="36.97892494612534" lon="14.632514466591456"><ele>230.0</ele><time>2026-03-29T08:06:04Z</time></trkpt><trkpt lat="36.97881500426136" lon="14.632389440843589"><ele>229.0</ele><time>2026-03-29T08:06:05Z</time></trkpt><trkpt lat="36.97872347574422" lon="14.632286026781564"><ele>229.0</ele><time>2026-03-29T08:06:06Z</time></trkpt><trkpt lat="36.97864371248913" lon="14.632179585949613"><ele>228.99999999999997</ele><time>2026-03-29T08:06:07Z</time></trkpt><trkpt lat="36.978579355744905" lon="14.632098166035387"><ele>228.99999999999997</ele><time>2026-03-29T08:06:08Z</time></trkpt><trkpt lat="36.97851624435047" lon="14.632023607352835"><ele>229.0</ele><time>2026-03-29T08:06:09Z</time></trkpt><trkpt lat="36.97847017392219" lon="14.631948761642642"><ele>229.0</ele><time>2026-03-29T08:06:11Z</time></trkpt><trkpt lat="36.978375228460806" lon="14.631871986475092"><ele>229.6</ele><time>2026-03-29T08:06:13Z</time></trkpt><trkpt lat="36.97834124001994" lon="14.631805516410623"><ele>230.2</ele><time>2026-03-29T08:06:14Z</time></trkpt><trkpt lat="36.97826909651571" lon="14.631729109693293"><ele>230.79999999999998</ele><time>2026-03-29T08:06:15Z</time></trkpt><trkpt lat="36.97816387824808" lon="14.631594806885612"><ele>231.39999999999998</ele><time>2026-03-29T08:06:16Z</time></trkpt><trkpt lat="36.97807887081167" lon="14.631494700964717"><ele>232.0</ele><time>2026-03-29T08:06:17Z</time></trkpt><trkpt lat="36.97795216593456" lon="14.631338363344577"><ele>232.0</ele><time>2026-03-29T08:06:18Z</time></trkpt><trkpt lat="36.977826358645" lon="14.631183319798518"><ele>232.0</ele><time>2026-03-29T08:06:19Z</time></trkpt><trkpt lat="36.97773324947259" lon="14.631031409470356"><ele>232.0</ele><time>2026-03-29T08:06:20Z</time></trkpt><trkpt lat="36.977639638349125" lon="14.630894148718761"><ele>231.75</ele><time>2026-03-29T08:06:21Z</time></trkpt><trkpt lat="36.97754496532187" lon="14.63077611569543"><ele>231.5</ele><time>2026-03-29T08:06:22Z</time></trkpt><trkpt lat="36.97744200437154" lon="14.630652890371579"><ele>231.25</ele><time>2026-03-29T08:06:23Z</time></trkpt><trkpt lat="36.97734521550998" lon="14.630517802941476"><ele>231.0</ele><time>2026-03-29T08:06:24Z</time></trkpt><trkpt lat="36.97726739907536" lon="14.63039768639501"><ele>230.75</ele><time>2026-03-29T08:06:25Z</time></trkpt><trkpt lat="36.97717246109026" lon="14.630273768168331"><ele>230.5</ele><time>2026-03-29T08:06:26Z</time></trkpt><trkpt lat="36.97708304664702" lon="14.630139083454528"><ele>230.25</ele><time>2026-03-29T08:06:27Z</time></trkpt><trkpt lat="36.9769851369185" lon="14.630008563091694"><ele>230.0</ele><time>2026-03-29T08:06:28Z</time></trkpt><trkpt lat="36.97689966666566" lon="14.629895432622815"><ele>230.0</ele><time>2026-03-29T08:06:29Z</time></trkpt><trkpt lat="36.976801675596036" lon="14.629772288312532"><ele>230.0</ele><time>2026-03-29T08:06:30Z</time></trkpt><trkpt lat="36.976716348889546" lon="14.629637840949446"><ele>230.0</ele><time>2026-03-29T08:06:31Z</time></trkpt><trkpt lat="36.97661548713631" lon="14.629514411460464"><ele>230.0</ele><time>2026-03-29T08:06:32Z</time></trkpt><trkpt lat="36.976541096001476" lon="14.629418141480386"><ele>229.8</ele><time>2026-03-29T08:06:33Z</time></trkpt><trkpt lat="36.976494116975175" lon="14.629338295010108"><ele>229.6</ele><time>2026-03-29T08:06:34Z</time></trkpt><trkpt lat="36.976429701044296" lon="14.629268291537482"><ele>229.39999999999998</ele><time>2026-03-29T08:06:35Z</time></trkpt><trkpt lat="36.976345463183094" lon="14.6293278967451"><ele>229.2</ele><time>2026-03-29T08:06:37Z</time></trkpt><trkpt lat="36.97626961251656" lon="14.62938798998589"><ele>229.0</ele><time>2026-03-29T08:06:39Z</time></trkpt><trkpt lat="36.9762019234706" lon="14.629485707600523"><ele>229.6</ele><time>2026-03-29T08:06:41Z</time></trkpt><trkpt lat="36.976122786507574" lon="14.629619868466559"><ele>230.2</ele><time>2026-03-29T08:06:43Z</time></trkpt><trkpt lat="36.97605371593033" lon="14.629716801350309"><ele>230.79999999999998</ele><time>2026-03-29T08:06:44Z</time></trkpt><trkpt lat="36.97599001470403" lon="14.629826442883438"><ele>231.39999999999998</ele><time>2026-03-29T08:06:45Z</time></trkpt><trkpt lat="36.975939994481685" lon="14.629924468134696"><ele>232.0</ele><time>2026-03-29T08:06:46Z</time></trkpt><trkpt lat="36.975866237177115" lon="14.630024070433809"><ele>232.5</ele><time>2026-03-29T08:06:47Z</time></trkpt><trkpt lat="36.97579692782327" lon="14.630122262907825"><ele>233.0</ele><time>2026-03-29T08:06:48Z</time></trkpt><trkpt lat="36.97573063013802" lon="14.630226232475586"><ele>233.5</ele><time>2026-03-29T08:06:49Z</time></trkpt><trkpt lat="36.97563583205683" lon="14.630372053521663"><ele>234.0</ele><time>2026-03-29T08:06:50Z</time></trkpt><trkpt lat="36.975530985265834" lon="14.630496610226498"><ele>234.66666666666669</ele><time>2026-03-29T08:06:51Z</time></trkpt><trkpt lat="36.97540955643477" lon="14.630670330342"><ele>235.33333333333334</ele><time>2026-03-29T08:06:52Z</time></trkpt><trkpt lat="36.975270002528774" lon="14.630863532683174"><ele>236.0</ele><time>2026-03-29T08:06:53Z</time></trkpt><trkpt lat="36.97513579541787" lon="14.631074411066026"><ele>236.33333333333334</ele><time>2026-03-29T08:06:54Z</time></trkpt><trkpt lat="36.97501388546731" lon="14.63121889455181"><ele>236.66666666666669</ele><time>2026-03-29T08:06:55Z</time></trkpt><trkpt lat="36.9748842880182" lon="14.631435005452419"><ele>237.0</ele><time>2026-03-29T08:06:56Z</time></trkpt><trkpt lat="36.974776457002065" lon="14.631578709023657"><ele>237.0</ele><time>2026-03-29T08:06:57Z</time></trkpt><trkpt lat="36.974637100274" lon="14.631759072384188"><ele>237.0</ele><time>2026-03-29T08:06:58Z</time></trkpt><trkpt lat="36.974519757908986" lon="14.631932553584228"><ele>237.0</ele><time>2026-03-29T08:06:59Z</time></trkpt><trkpt lat="36.9743851024428" lon="14.632101845547638"><ele>238.0</ele><time>2026-03-29T08:07:00Z</time></trkpt><trkpt lat="36.97425952615167" lon="14.632267288951535"><ele>239.0</ele><time>2026-03-29T08:07:01Z</time></trkpt><trkpt lat="36.974139980386546" lon="14.632438166177494"><ele>240.0</ele><time>2026-03-29T08:07:02Z</time></trkpt><trkpt lat="36.97403077311415" lon="14.63260583039394"><ele>241.33333333333331</ele><time>2026-03-29T08:07:03Z</time></trkpt><trkpt lat="36.97391265224895" lon="14.632773382892962"><ele>242.66666666666666</ele><time>2026-03-29T08:07:04Z</time></trkpt><trkpt lat="36.97379510407798" lon="14.63293606476937"><ele>244.0</ele><time>2026-03-29T08:07:05Z</time></trkpt><trkpt lat="36.973687612155636" lon="14.633085548776869"><ele>244.25</ele><time>2026-03-29T08:07:06Z</time></trkpt><trkpt lat="36.973578087827754" lon="14.63324051608309"><ele>244.5</ele><time>2026-03-29T08:07:07Z</time></trkpt><trkpt lat="36.97348562425247" lon="14.633374665685064"><ele>244.75</ele><time>2026-03-29T08:07:08Z</time></trkpt><trkpt lat="36.97338815870444" lon="14.633498834679598"><ele>245.0</ele><time>2026-03-29T08:07:09Z</time></trkpt><trkpt lat="36.973292721273005" lon="14.633636733547595"><ele>246.0</ele><time>2026-03-29T08:07:10Z</time></trkpt><trkpt lat="36.973204689437445" lon="14.633764463640853"><ele>247.0</ele><time>2026-03-29T08:07:11Z</time></trkpt><trkpt lat="36.97309197014303" lon="14.633914686980306"><ele>248.0</ele><time>2026-03-29T08:07:12Z</time></trkpt><trkpt lat="36.97300009517565" lon="14.634057274927597"><ele>249.0</ele><time>2026-03-29T08:07:13Z</time></trkpt><trkpt lat="36.97288332409501" lon="14.63421227867321"><ele>249.0</ele><time>2026-03-29T08:07:14Z</time></trkpt><trkpt lat="36.972745863704425" lon="14.634390282085906"><ele>249.0</ele><time>2026-03-29T08:07:15Z</time></trkpt><trkpt lat="36.97264860396935" lon="14.634526370326093"><ele>249.0</ele><time>2026-03-29T08:07:16Z</time></trkpt><trkpt lat="36.972550164381786" lon="14.634654974901851"><ele>249.6</ele><time>2026-03-29T08:07:17Z</time></trkpt><trkpt lat="36.972464767181776" lon="14.63477970472544"><ele>250.2</ele><time>2026-03-29T08:07:18Z</time></trkpt><trkpt lat="36.972402493720004" lon="14.6348817861352"><ele>250.79999999999998</ele><time>2026-03-29T08:07:19Z</time></trkpt><trkpt lat="36.97234399950981" lon="14.634969996021917"><ele>251.39999999999998</ele><time>2026-03-29T08:07:20Z</time></trkpt><trkpt lat="36.97226140752101" lon="14.635067429192821"><ele>252.0</ele><time>2026-03-29T08:07:21Z</time></trkpt><trkpt lat="36.972198505469535" lon="14.635158832559016"><ele>252.0</ele><time>2026-03-29T08:07:22Z</time></trkpt><trkpt lat="36.97214933063953" lon="14.63524085653348"><ele>252.0</ele><time>2026-03-29T08:07:23Z</time></trkpt><trkpt lat="36.972136568293976" lon="14.635321225109466"><ele>252.0</ele><time>2026-03-29T08:07:25Z</time></trkpt><trkpt lat="36.97210193908162" lon="14.63540547646461"><ele>252.0</ele><time>2026-03-29T08:07:27Z</time></trkpt><trkpt lat="36.972016594270094" lon="14.63549308155553"><ele>252.0</ele><time>2026-03-29T08:07:30Z</time></trkpt><trkpt lat="36.97195830174512" lon="14.635579355800646"><ele>252.0</ele><time>2026-03-29T08:07:32Z</time></trkpt><trkpt lat="36.971891124311135" lon="14.63567478663483"><ele>252.0</ele><time>2026-03-29T08:07:34Z</time></trkpt><trkpt lat="36.97183182772344" lon="14.635767885365484"><ele>252.0</ele><time>2026-03-29T08:07:36Z</time></trkpt><trkpt lat="36.97178938570198" lon="14.635865749651154"><ele>252.0</ele><time>2026-03-29T08:07:38Z</time></trkpt><trkpt lat="36.97174335634024" lon="14.635927254062029"><ele>252.0</ele><time>2026-03-29T08:07:39Z</time></trkpt><trkpt lat="36.971665215934756" lon="14.636026748777542"><ele>252.0</ele><time>2026-03-29T08:07:41Z</time></trkpt><trkpt lat="36.97160447734685" lon="14.636097590335314"><ele>252.0</ele><time>2026-03-29T08:07:43Z</time></trkpt><trkpt lat="36.971517468831806" lon="14.636143662277677"><ele>252.66666666666666</ele><time>2026-03-29T08:07:45Z</time></trkpt><trkpt lat="36.97143327859407" lon="14.636184102812145"><ele>253.33333333333331</ele><time>2026-03-29T08:07:47Z</time></trkpt><trkpt lat="36.971362445418" lon="14.636223688317656"><ele>254.0</ele><time>2026-03-29T08:07:49Z</time></trkpt><trkpt lat="36.97127513504629" lon="14.636268301788519"><ele>254.66666666666666</ele><time>2026-03-29T08:07:52Z</time></trkpt><trkpt lat="36.971216082257236" lon="14.636319677031045"><ele>255.33333333333331</ele><time>2026-03-29T08:07:54Z</time></trkpt><trkpt lat="36.97114794946142" lon="14.636360811875438"><ele>256.0</ele><time>2026-03-29T08:07:56Z</time></trkpt><trkpt lat="36.97107580190739" lon="14.63643580595049"><ele>255.99999999999997</ele><time>2026-03-29T08:07:58Z</time></trkpt><trkpt lat="36.97104820162766" lon="14.636526141529082"><ele>256.0</ele><time>2026-03-29T08:08:00Z</time></trkpt><trkpt lat="36.97095726601635" lon="14.636578222374983"><ele>256.0</ele><time>2026-03-29T08:08:05Z</time></trkpt><trkpt lat="36.97090128126265" lon="14.63661508360633"><ele>256.0</ele><time>2026-03-29T08:08:08Z</time></trkpt><trkpt lat="36.97084182354797" lon="14.636657163685525"><ele>255.99999999999997</ele><time>2026-03-29T08:08:10Z</time></trkpt><trkpt lat="36.970745357980874" lon="14.636682733008131"><ele>256.0</ele><time>2026-03-29T08:08:12Z</time></trkpt><trkpt lat="36.97068975309295" lon="14.63672360480554"><ele>256.66666666666663</ele><time>2026-03-29T08:08:15Z</time></trkpt><trkpt lat="36.97064226127672" lon="14.636779240460774"><ele>257.3333333333333</ele><time>2026-03-29T08:08:18Z</time></trkpt><trkpt lat="36.97060307679584" lon="14.636872119513352"><ele>258.0</ele><time>2026-03-29T08:08:21Z</time></trkpt><trkpt lat="36.97052309202058" lon="14.636938915197286"><ele>258.6666666666667</ele><time>2026-03-29T08:08:25Z</time></trkpt><trkpt lat="36.97046496946367" lon="14.636977982917482"><ele>259.33333333333337</ele><time>2026-03-29T08:08:28Z</time></trkpt><trkpt lat="36.97039670320858" lon="14.637046005331507"><ele>260.0</ele><time>2026-03-29T08:08:32Z</time></trkpt><trkpt lat="36.970330309866654" lon="14.637128316457995"><ele>260.0</ele><time>2026-03-29T08:08:35Z</time></trkpt><trkpt lat="36.97026892583752" lon="14.637195467551305"><ele>260.0</ele><time>2026-03-29T08:08:38Z</time></trkpt><trkpt lat="36.97022522041623" lon="14.637286117574034"><ele>260.0</ele><time>2026-03-29T08:08:41Z</time></trkpt><trkpt lat="36.970176221798226" lon="14.637368098697694"><ele>260.0</ele><time>2026-03-29T08:08:43Z</time></trkpt><trkpt lat="36.97010676561324" lon="14.637437154604187"><ele>260.0</ele><time>2026-03-29T08:08:46Z</time></trkpt><trkpt lat="36.97006816553324" lon="14.637502971429369"><ele>260.0</ele><time>2026-03-29T08:08:48Z</time></trkpt><trkpt lat="36.96999734814283" lon="14.637531821622485"><ele>260.8</ele><time>2026-03-29T08:08:50Z</time></trkpt><trkpt lat="36.96993472179339" lon="14.637571184678897"><ele>261.6</ele><time>2026-03-29T08:08:52Z</time></trkpt><trkpt lat="36.96987531908196" lon="14.637632948039828"><ele>262.4</ele><time>2026-03-29T08:08:54Z</time></trkpt><trkpt lat="36.96975765732268" lon="14.637730764018498"><ele>263.2</ele><time>2026-03-29T08:08:56Z</time></trkpt><trkpt lat="36.96969089985342" lon="14.637804718432617"><ele>264.0</ele><time>2026-03-29T08:08:57Z</time></trkpt><trkpt lat="36.96962440629427" lon="14.637885331548569"><ele>264.0</ele><time>2026-03-29T08:08:58Z</time></trkpt><trkpt lat="36.969549295053234" lon="14.637953888896801"><ele>264.0</ele><time>2026-03-29T08:08:59Z</time></trkpt><trkpt lat="36.96947457724795" lon="14.638026459410044"><ele>264.0</ele><time>2026-03-29T08:09:01Z</time></trkpt><trkpt lat="36.969411009686404" lon="14.638069771023527"><ele>264.0</ele><time>2026-03-29T08:09:03Z</time></trkpt><trkpt lat="36.969362058260494" lon="14.638145679790373"><ele>264.0</ele><time>2026-03-29T08:09:06Z</time></trkpt><trkpt lat="36.96931637059373" lon="14.638215845667572"><ele>264.0</ele><time>2026-03-29T08:09:08Z</time></trkpt><trkpt lat="36.96925097066093" lon="14.638284970705437"><ele>264.8</ele><time>2026-03-29T08:09:10Z</time></trkpt><trkpt lat="36.969173976276636" lon="14.638275610706364"><ele>265.59999999999997</ele><time>2026-03-29T08:09:13Z</time></trkpt><trkpt lat="36.96909529789408" lon="14.638281362226438"><ele>266.4</ele><time>2026-03-29T08:09:15Z</time></trkpt><trkpt lat="36.96895841832366" lon="14.638280453458922"><ele>267.2</ele><time>2026-03-29T08:09:17Z</time></trkpt><trkpt lat="36.96886357083089" lon="14.638258275111854"><ele>268.0</ele><time>2026-03-29T08:09:18Z</time></trkpt><trkpt lat="36.968778450991735" lon="14.638214937982996"><ele>268.0</ele><time>2026-03-29T08:09:19Z</time></trkpt><trkpt lat="36.968687984997516" lon="14.63816659360843"><ele>268.0</ele><time>2026-03-29T08:09:20Z</time></trkpt><trkpt lat="36.968589993592545" lon="14.638125358723315"><ele>268.0</ele><time>2026-03-29T08:09:22Z</time></trkpt><trkpt lat="36.96849964937718" lon="14.638129498990255"><ele>268.0</ele><time>2026-03-29T08:09:24Z</time></trkpt><trkpt lat="36.96840985320845" lon="14.638103027845482"><ele>268.0</ele><time>2026-03-29T08:09:26Z</time></trkpt><trkpt lat="36.968299203293704" lon="14.638085320116362"><ele>268.3333333333333</ele><time>2026-03-29T08:09:28Z</time></trkpt><trkpt lat="36.96823052298759" lon="14.638143887472078"><ele>268.66666666666663</ele><time>2026-03-29T08:09:30Z</time></trkpt><trkpt lat="36.968238511452235" lon="14.638260880534409"><ele>269.0</ele><time>2026-03-29T08:09:32Z</time></trkpt><trkpt lat="36.968176476869445" lon="14.638331201139371"><ele>269.3333333333333</ele><time>2026-03-29T08:09:34Z</time></trkpt><trkpt lat="36.96807350820364" lon="14.638371952135717"><ele>269.6666666666667</ele><time>2026-03-29T08:09:36Z</time></trkpt><trkpt lat="36.96799702614177" lon="14.638374233741436"><ele>270.0</ele><time>2026-03-29T08:09:37Z</time></trkpt><trkpt lat="36.96790046051667" lon="14.638388952699083"><ele>270.0</ele><time>2026-03-29T08:09:38Z</time></trkpt><trkpt lat="36.967787306269834" lon="14.638383392273347"><ele>270.0</ele><time>2026-03-29T08:09:39Z</time></trkpt><trkpt lat="36.967673374222606" lon="14.638417324252371"><ele>270.0</ele><time>2026-03-29T08:09:40Z</time></trkpt><trkpt lat="36.96757660072838" lon="14.638480824760125"><ele>270.0</ele><time>2026-03-29T08:09:41Z</time></trkpt><trkpt lat="36.96751468294832" lon="14.638522872883737"><ele>270.0</ele><time>2026-03-29T08:09:42Z</time></trkpt><trkpt lat="36.967451440918204" lon="14.638563334427765"><ele>270.8</ele><time>2026-03-29T08:09:43Z</time></trkpt><trkpt lat="36.96737280887908" lon="14.638596250570021"><ele>271.6</ele><time>2026-03-29T08:09:44Z</time></trkpt><trkpt lat="36.967273442039996" lon="14.638643629445697"><ele>272.4</ele><time>2026-03-29T08:09:45Z</time></trkpt><trkpt lat="36.96715117263141" lon="14.638720224047749"><ele>273.2</ele><time>2026-03-29T08:09:46Z</time></trkpt><trkpt lat="36.96705460995746" lon="14.638780287580943"><ele>274.0</ele><time>2026-03-29T08:09:47Z</time></trkpt><trkpt lat="36.96698124971127" lon="14.638828873553356"><ele>275.0</ele><time>2026-03-29T08:09:48Z</time></trkpt><trkpt lat="36.96693176184651" lon="14.638884512840729"><ele>276.0</ele><time>2026-03-29T08:09:49Z</time></trkpt><trkpt lat="36.96682870868817" lon="14.638952153713952"><ele>277.0</ele><time>2026-03-29T08:09:51Z</time></trkpt><trkpt lat="36.96675312642591" lon="14.638983598186764"><ele>278.0</ele><time>2026-03-29T08:09:53Z</time></trkpt><trkpt lat="36.96669261761132" lon="14.639071788203724"><ele>279.0</ele><time>2026-03-29T08:09:56Z</time></trkpt><trkpt lat="36.966610734126235" lon="14.63919260337304"><ele>279.3333333333333</ele><time>2026-03-29T08:09:58Z</time></trkpt><trkpt lat="36.96656629935498" lon="14.639253879132164"><ele>279.6666666666667</ele><time>2026-03-29T08:09:59Z</time></trkpt><trkpt lat="36.96651881425732" lon="14.63930863345136"><ele>280.0</ele><time>2026-03-29T08:10:00Z</time></trkpt><trkpt lat="36.96643275238736" lon="14.639412688780498"><ele>280.33333333333337</ele><time>2026-03-29T08:10:02Z</time></trkpt><trkpt lat="36.966357799902184" lon="14.63948516479254"><ele>280.6666666666667</ele><time>2026-03-29T08:10:04Z</time></trkpt><trkpt lat="36.966278705321635" lon="14.639484050990841"><ele>281.0</ele><time>2026-03-29T08:10:06Z</time></trkpt><trkpt lat="36.96619729606266" lon="14.63944496106744"><ele>281.0</ele><time>2026-03-29T08:10:08Z</time></trkpt><trkpt lat="36.9660928485942" lon="14.639416636020828"><ele>281.0</ele><time>2026-03-29T08:10:10Z</time></trkpt><trkpt lat="36.96602559693979" lon="14.639411335788944"><ele>281.0</ele><time>2026-03-29T08:10:11Z</time></trkpt><trkpt lat="36.965953615980254" lon="14.639397057667184"><ele>281.0</ele><time>2026-03-29T08:10:12Z</time></trkpt><trkpt lat="36.965869781370515" lon="14.639396573121132"><ele>281.0</ele><time>2026-03-29T08:10:13Z</time></trkpt><trkpt lat="36.96577616749288" lon="14.63939191380412"><ele>281.0</ele><time>2026-03-29T08:10:14Z</time></trkpt><trkpt lat="36.96568155061347" lon="14.639387955064219"><ele>281.0</ele><time>2026-03-29T08:10:15Z</time></trkpt><trkpt lat="36.965575686834974" lon="14.639401351068903"><ele>281.0</ele><time>2026-03-29T08:10:16Z</time></trkpt><trkpt lat="36.96549928144623" lon="14.639393523993283"><ele>281.0</ele><time>2026-03-29T08:10:17Z</time></trkpt><trkpt lat="36.96543180926759" lon="14.6393650499457"><ele>281.0</ele><time>2026-03-29T08:10:18Z</time></trkpt><trkpt lat="36.96536348199376" lon="14.63930684475558"><ele>281.0</ele><time>2026-03-29T08:10:19Z</time></trkpt><trkpt lat="36.965331711349876" lon="14.639216336229149"><ele>281.0</ele><time>2026-03-29T08:10:20Z</time></trkpt><trkpt lat="36.96528981512931" lon="14.63912330417356"><ele>281.0</ele><time>2026-03-29T08:10:21Z</time></trkpt><trkpt lat="36.96525005795693" lon="14.639019725596771"><ele>281.0</ele><time>2026-03-29T08:10:22Z</time></trkpt><trkpt lat="36.96520429170276" lon="14.638890917329961"><ele>281.0</ele><time>2026-03-29T08:10:23Z</time></trkpt><trkpt lat="36.965151509602485" lon="14.638748902145538"><ele>281.0</ele><time>2026-03-29T08:10:24Z</time></trkpt><trkpt lat="36.965095351592026" lon="14.6386025880656"><ele>280.5</ele><time>2026-03-29T08:10:25Z</time></trkpt><trkpt lat="36.965032693598495" lon="14.638457878139912"><ele>280.0</ele><time>2026-03-29T08:10:26Z</time></trkpt><trkpt lat="36.96495590411635" lon="14.638311654022452"><ele>279.5</ele><time>2026-03-29T08:10:27Z</time></trkpt><trkpt lat="36.964902167310235" lon="14.638156112076903"><ele>279.0</ele><time>2026-03-29T08:10:28Z</time></trkpt><trkpt lat="36.96484944068811" lon="14.638029986950924"><ele>279.2</ele><time>2026-03-29T08:10:29Z</time></trkpt><trkpt lat="36.96481555547013" lon="14.63791430760125"><ele>279.4</ele><time>2026-03-29T08:10:30Z</time></trkpt><trkpt lat="36.964777621373464" lon="14.637783910394697"><ele>279.6</ele><time>2026-03-29T08:10:31Z</time></trkpt><trkpt lat="36.96472955089031" lon="14.637661516774196"><ele>279.8</ele><time>2026-03-29T08:10:32Z</time></trkpt><trkpt lat="36.964695264109054" lon="14.63754274364194"><ele>280.0</ele><time>2026-03-29T08:10:33Z</time></trkpt><trkpt lat="36.96464590400302" lon="14.637407606794326"><ele>280.0</ele><time>2026-03-29T08:10:34Z</time></trkpt><trkpt lat="36.9645920455453" lon="14.637262380990705"><ele>280.0</ele><time>2026-03-29T08:10:35Z</time></trkpt><trkpt lat="36.96454106025453" lon="14.637122627549916"><ele>280.0</ele><time>2026-03-29T08:10:36Z</time></trkpt><trkpt lat="36.964495737008335" lon="14.636990417274172"><ele>280.0</ele><time>2026-03-29T08:10:37Z</time></trkpt><trkpt lat="36.964449672582155" lon="14.636860318947162"><ele>278.6</ele><time>2026-03-29T08:10:38Z</time></trkpt><trkpt lat="36.96439828730549" lon="14.636741672863954"><ele>277.2</ele><time>2026-03-29T08:10:39Z</time></trkpt><trkpt lat="36.96435491423668" lon="14.636627000101273"><ele>275.8</ele><time>2026-03-29T08:10:40Z</time></trkpt><trkpt lat="36.9643124225198" lon="14.636516280804415"><ele>274.4</ele><time>2026-03-29T08:10:41Z</time></trkpt><trkpt lat="36.96427362305064" lon="14.63641741373954"><ele>273.0</ele><time>2026-03-29T08:10:42Z</time></trkpt><trkpt lat="36.964237939270596" lon="14.63630673595166"><ele>273.0</ele><time>2026-03-29T08:10:43Z</time></trkpt><trkpt lat="36.964225412231656" lon="14.636182681708972"><ele>273.0</ele><time>2026-03-29T08:10:44Z</time></trkpt><trkpt lat="36.964211775715285" lon="14.636031928023083"><ele>273.0</ele><time>2026-03-29T08:10:45Z</time></trkpt><trkpt lat="36.96419021125326" lon="14.635886268832248"><ele>273.0</ele><time>2026-03-29T08:10:46Z</time></trkpt><trkpt lat="36.96415587167378" lon="14.635735243041712"><ele>273.3333333333333</ele><time>2026-03-29T08:10:47Z</time></trkpt><trkpt lat="36.96416114992701" lon="14.63553686701442"><ele>273.66666666666663</ele><time>2026-03-29T08:10:48Z</time></trkpt><trkpt lat="36.96415328610844" lon="14.63532716264767"><ele>274.0</ele><time>2026-03-29T08:10:49Z</time></trkpt><trkpt lat="36.96416280249003" lon="14.63515963797299"><ele>274.0</ele><time>2026-03-29T08:10:50Z</time></trkpt><trkpt lat="36.96414079934063" lon="14.635009507488462"><ele>274.0</ele><time>2026-03-29T08:10:51Z</time></trkpt><trkpt lat="36.964125031866125" lon="14.634813825156657"><ele>274.0</ele><time>2026-03-29T08:10:52Z</time></trkpt><trkpt lat="36.964091123254825" lon="14.634668415409223"><ele>274.0</ele><time>2026-03-29T08:10:53Z</time></trkpt><trkpt lat="36.9640723026939" lon="14.634521579320445"><ele>273.5</ele><time>2026-03-29T08:10:54Z</time></trkpt><trkpt lat="36.964055922667384" lon="14.634390373576597"><ele>273.0</ele><time>2026-03-29T08:10:55Z</time></trkpt><trkpt lat="36.96404391112498" lon="14.634238893988314"><ele>272.5</ele><time>2026-03-29T08:10:56Z</time></trkpt><trkpt lat="36.964030889873314" lon="14.634088805208698"><ele>272.0</ele><time>2026-03-29T08:10:57Z</time></trkpt><trkpt lat="36.96400394340715" lon="14.633933806581298"><ele>272.0</ele><time>2026-03-29T08:10:58Z</time></trkpt><trkpt lat="36.963969498627364" lon="14.63380165848222"><ele>272.0</ele><time>2026-03-29T08:10:59Z</time></trkpt><trkpt lat="36.96393300389577" lon="14.633661391312753"><ele>272.0</ele><time>2026-03-29T08:11:00Z</time></trkpt><trkpt lat="36.96389923931624" lon="14.633509242278235"><ele>272.0</ele><time>2026-03-29T08:11:01Z</time></trkpt><trkpt lat="36.96386137088966" lon="14.633343711870317"><ele>270.5</ele><time>2026-03-29T08:11:02Z</time></trkpt><trkpt lat="36.963827502885266" lon="14.633206298362607"><ele>269.0</ele><time>2026-03-29T08:11:03Z</time></trkpt><trkpt lat="36.96379684848156" lon="14.633050223948802"><ele>267.5</ele><time>2026-03-29T08:11:04Z</time></trkpt><trkpt lat="36.96375209456646" lon="14.632926972467075"><ele>266.0</ele><time>2026-03-29T08:11:05Z</time></trkpt><trkpt lat="36.96369514154035" lon="14.63279523600976"><ele>264.6</ele><time>2026-03-29T08:11:06Z</time></trkpt><trkpt lat="36.963655393190564" lon="14.632682645598067"><ele>263.20000000000005</ele><time>2026-03-29T08:11:07Z</time></trkpt><trkpt lat="36.963602467724286" lon="14.632582680761166"><ele>261.79999999999995</ele><time>2026-03-29T08:11:08Z</time></trkpt><trkpt lat="36.963547418877184" lon="14.632460737616835"><ele>260.4</ele><time>2026-03-29T08:11:09Z</time></trkpt><trkpt lat="36.96349314440605" lon="14.632327201709781"><ele>259.0</ele><time>2026-03-29T08:11:10Z</time></trkpt><trkpt lat="36.96344354757187" lon="14.63219690714303"><ele>259.0</ele><time>2026-03-29T08:11:11Z</time></trkpt><trkpt lat="36.96339409917037" lon="14.632059340884416"><ele>259.0</ele><time>2026-03-29T08:11:12Z</time></trkpt><trkpt lat="36.96333764832596" lon="14.631933224980747"><ele>259.0</ele><time>2026-03-29T08:11:13Z</time></trkpt><trkpt lat="36.963270398129765" lon="14.631793785184078"><ele>259.0</ele><time>2026-03-29T08:11:14Z</time></trkpt><trkpt lat="36.963205717024316" lon="14.631659331472683"><ele>259.5</ele><time>2026-03-29T08:11:15Z</time></trkpt><trkpt lat="36.96315043151906" lon="14.63151715717019"><ele>260.0</ele><time>2026-03-29T08:11:16Z</time></trkpt><trkpt lat="36.96309925808098" lon="14.631392918796351"><ele>260.5</ele><time>2026-03-29T08:11:17Z</time></trkpt><trkpt lat="36.96304607665196" lon="14.631286345436429"><ele>261.0</ele><time>2026-03-29T08:11:18Z</time></trkpt><trkpt lat="36.962987018203776" lon="14.631166528900046"><ele>259.25</ele><time>2026-03-29T08:11:19Z</time></trkpt><trkpt lat="36.96292526455979" lon="14.631033431149202"><ele>257.5</ele><time>2026-03-29T08:11:20Z</time></trkpt><trkpt lat="36.962866852693736" lon="14.630896521640151"><ele>255.75</ele><time>2026-03-29T08:11:21Z</time></trkpt><trkpt lat="36.96283739958637" lon="14.630777649884713"><ele>254.0</ele><time>2026-03-29T08:11:22Z</time></trkpt><trkpt lat="36.962784858452636" lon="14.630646128095806"><ele>254.0</ele><time>2026-03-29T08:11:23Z</time></trkpt><trkpt lat="36.96271393355271" lon="14.630528633908504"><ele>254.0</ele><time>2026-03-29T08:11:24Z</time></trkpt><trkpt lat="36.9626521807576" lon="14.630419568453185"><ele>254.0</ele><time>2026-03-29T08:11:25Z</time></trkpt><trkpt lat="36.96258216607095" lon="14.630298389300066"><ele>254.0</ele><time>2026-03-29T08:11:26Z</time></trkpt><trkpt lat="36.962518450413775" lon="14.630181213746738"><ele>254.0</ele><time>2026-03-29T08:11:27Z</time></trkpt><trkpt lat="36.96245454022407" lon="14.630087703202108"><ele>253.99999999999997</ele><time>2026-03-29T08:11:28Z</time></trkpt><trkpt lat="36.96237913576799" lon="14.630000342204113"><ele>253.99999999999997</ele><time>2026-03-29T08:11:29Z</time></trkpt><trkpt lat="36.9623057678953" lon="14.62992800658052"><ele>254.0</ele><time>2026-03-29T08:11:30Z</time></trkpt><trkpt lat="36.96223649144794" lon="14.629892733522428"><ele>254.0</ele><time>2026-03-29T08:11:31Z</time></trkpt><trkpt lat="36.962162358157904" lon="14.629831729091265"><ele>254.0</ele><time>2026-03-29T08:11:32Z</time></trkpt><trkpt lat="36.96207764288455" lon="14.62975227719943"><ele>253.99999999999997</ele><time>2026-03-29T08:11:33Z</time></trkpt><trkpt lat="36.96200869646621" lon="14.629667400823523"><ele>253.99999999999997</ele><time>2026-03-29T08:11:34Z</time></trkpt><trkpt lat="36.961916985651115" lon="14.629575781925798"><ele>254.0</ele><time>2026-03-29T08:11:35Z</time></trkpt><trkpt lat="36.96181715483034" lon="14.629488689605619"><ele>254.0</ele><time>2026-03-29T08:11:36Z</time></trkpt><trkpt lat="36.96173110972717" lon="14.629413781437467"><ele>253.79999999999998</ele><time>2026-03-29T08:11:37Z</time></trkpt><trkpt lat="36.96165422705515" lon="14.6293622539634"><ele>253.59999999999997</ele><time>2026-03-29T08:11:38Z</time></trkpt><trkpt lat="36.961570424259335" lon="14.629297896026513"><ele>253.4</ele><time>2026-03-29T08:11:39Z</time></trkpt><trkpt lat="36.961486470467285" lon="14.629230898425952"><ele>253.2</ele><time>2026-03-29T08:11:40Z</time></trkpt><trkpt lat="36.96139675190906" lon="14.629156218816092"><ele>253.0</ele><time>2026-03-29T08:11:41Z</time></trkpt><trkpt lat="36.961294282065005" lon="14.6290807767971"><ele>253.0</ele><time>2026-03-29T08:11:42Z</time></trkpt><trkpt lat="36.961194236980994" lon="14.629002613587865"><ele>253.0</ele><time>2026-03-29T08:11:43Z</time></trkpt><trkpt lat="36.96109520790228" lon="14.62891339157186"><ele>253.0</ele><time>2026-03-29T08:11:44Z</time></trkpt><trkpt lat="36.96099397114337" lon="14.628822218786837"><ele>253.0</ele><time>2026-03-29T08:11:45Z</time></trkpt><trkpt lat="36.96090272212066" lon="14.628740251500181"><ele>252.5</ele><time>2026-03-29T08:11:46Z</time></trkpt><trkpt lat="36.9608134669067" lon="14.628645197323609"><ele>252.0</ele><time>2026-03-29T08:11:47Z</time></trkpt><trkpt lat="36.96071225492207" lon="14.628557427799299"><ele>251.5</ele><time>2026-03-29T08:11:48Z</time></trkpt><trkpt lat="36.96061064737811" lon="14.62848652561743"><ele>251.0</ele><time>2026-03-29T08:11:49Z</time></trkpt><trkpt lat="36.960510444804775" lon="14.628345540586935"><ele>251.0</ele><time>2026-03-29T08:11:50Z</time></trkpt><trkpt lat="36.96042479650618" lon="14.628250228820285"><ele>251.0</ele><time>2026-03-29T08:11:51Z</time></trkpt><trkpt lat="36.9603245489373" lon="14.628144389849876"><ele>251.0</ele><time>2026-03-29T08:11:52Z</time></trkpt><trkpt lat="36.96023263215268" lon="14.628035302831867"><ele>251.0</ele><time>2026-03-29T08:11:53Z</time></trkpt><trkpt lat="36.96015566150664" lon="14.627921989919736"><ele>250.5</ele><time>2026-03-29T08:11:54Z</time></trkpt><trkpt lat="36.9600833410197" lon="14.627803755736021"><ele>250.0</ele><time>2026-03-29T08:11:55Z</time></trkpt><trkpt lat="36.960029340408276" lon="14.627679483800762"><ele>249.5</ele><time>2026-03-29T08:11:56Z</time></trkpt><trkpt lat="36.95998770792048" lon="14.627532709602574"><ele>249.0</ele><time>2026-03-29T08:11:57Z</time></trkpt><trkpt lat="36.95994530835284" lon="14.627379373605356"><ele>250.0</ele><time>2026-03-29T08:11:58Z</time></trkpt><trkpt lat="36.959896993220056" lon="14.62722702765315"><ele>251.0</ele><time>2026-03-29T08:11:59Z</time></trkpt><trkpt lat="36.95984901016548" lon="14.62706907060465"><ele>252.0</ele><time>2026-03-29T08:12:00Z</time></trkpt><trkpt lat="36.95978169990837" lon="14.626924318408935"><ele>253.0</ele><time>2026-03-29T08:12:01Z</time></trkpt><trkpt lat="36.95970865086911" lon="14.626808583192707"><ele>253.0</ele><time>2026-03-29T08:12:02Z</time></trkpt><trkpt lat="36.95962947973384" lon="14.62669032196075"><ele>253.0</ele><time>2026-03-29T08:12:03Z</time></trkpt><trkpt lat="36.95955318842531" lon="14.626595494458652"><ele>253.0</ele><time>2026-03-29T08:12:04Z</time></trkpt><trkpt lat="36.9594643702996" lon="14.62650758265379"><ele>253.0</ele><time>2026-03-29T08:12:05Z</time></trkpt><trkpt lat="36.95938439864571" lon="14.626404409101093"><ele>253.0</ele><time>2026-03-29T08:12:06Z</time></trkpt><trkpt lat="36.95930292294335" lon="14.626269722177597"><ele>253.0</ele><time>2026-03-29T08:12:07Z</time></trkpt><trkpt lat="36.95921605720652" lon="14.626127911869483"><ele>253.0</ele><time>2026-03-29T08:12:08Z</time></trkpt><trkpt lat="36.95914276040385" lon="14.625972655062874"><ele>253.0</ele><time>2026-03-29T08:12:09Z</time></trkpt><trkpt lat="36.9590754757686" lon="14.62582606058132"><ele>253.0</ele><time>2026-03-29T08:12:10Z</time></trkpt><trkpt lat="36.95899718436719" lon="14.625663757152607"><ele>253.0</ele><time>2026-03-29T08:12:11Z</time></trkpt><trkpt lat="36.958911280073465" lon="14.625503998448956"><ele>253.0</ele><time>2026-03-29T08:12:12Z</time></trkpt><trkpt lat="36.958836821923725" lon="14.625349465147144"><ele>252.25</ele><time>2026-03-29T08:12:13Z</time></trkpt><trkpt lat="36.9587717245262" lon="14.625207921701914"><ele>251.5</ele><time>2026-03-29T08:12:14Z</time></trkpt><trkpt lat="36.95870351109035" lon="14.625074870561743"><ele>250.75</ele><time>2026-03-29T08:12:15Z</time></trkpt><trkpt lat="36.958637381675636" lon="14.624920492943314"><ele>250.0</ele><time>2026-03-29T08:12:16Z</time></trkpt><trkpt lat="36.958578005840586" lon="14.624781054987839"><ele>250.0</ele><time>2026-03-29T08:12:17Z</time></trkpt><trkpt lat="36.958517343565944" lon="14.624631710483778"><ele>250.0</ele><time>2026-03-29T08:12:18Z</time></trkpt><trkpt lat="36.958452332058776" lon="14.624490663164053"><ele>250.0</ele><time>2026-03-29T08:12:19Z</time></trkpt><trkpt lat="36.95838706163266" lon="14.624349544759257"><ele>250.0</ele><time>2026-03-29T08:12:20Z</time></trkpt><trkpt lat="36.95831611874641" lon="14.62419140300057"><ele>248.75</ele><time>2026-03-29T08:12:21Z</time></trkpt><trkpt lat="36.958247335158305" lon="14.624043139210729"><ele>247.5</ele><time>2026-03-29T08:12:22Z</time></trkpt><trkpt lat="36.95817898980712" lon="14.62390412050515"><ele>246.25</ele><time>2026-03-29T08:12:23Z</time></trkpt><trkpt lat="36.95811366324396" lon="14.623781919155475"><ele>245.0</ele><time>2026-03-29T08:12:24Z</time></trkpt><trkpt lat="36.958063581599" lon="14.623651327512096"><ele>244.5</ele><time>2026-03-29T08:12:25Z</time></trkpt><trkpt lat="36.958001900312645" lon="14.623529421670634"><ele>244.0</ele><time>2026-03-29T08:12:26Z</time></trkpt><trkpt lat="36.95794599694899" lon="14.623386981803044"><ele>243.5</ele><time>2026-03-29T08:12:27Z</time></trkpt><trkpt lat="36.95788861760797" lon="14.623252705206212"><ele>243.0</ele><time>2026-03-29T08:12:28Z</time></trkpt><trkpt lat="36.9578258056707" lon="14.623127762787647"><ele>243.0</ele><time>2026-03-29T08:12:29Z</time></trkpt><trkpt lat="36.95776077078384" lon="14.622985156963065"><ele>243.0</ele><time>2026-03-29T08:12:30Z</time></trkpt><trkpt lat="36.95771177389532" lon="14.6228680154566"><ele>243.0</ele><time>2026-03-29T08:12:31Z</time></trkpt><trkpt lat="36.957673121301575" lon="14.622786316604287"><ele>243.0</ele><time>2026-03-29T08:12:32Z</time></trkpt><trkpt lat="36.95765590753575" lon="14.62271016803586"><ele>243.0</ele><time>2026-03-29T08:12:36Z</time></trkpt><trkpt lat="36.95759018046057" lon="14.622737166829307"><ele>243.0</ele><time>2026-03-29T08:12:48Z</time></trkpt><trkpt lat="36.95750342760351" lon="14.622736056054144"><ele>242.83333333333334</ele><time>2026-03-29T08:12:51Z</time></trkpt><trkpt lat="36.957437510184995" lon="14.622844108448605"><ele>242.66666666666669</ele><time>2026-03-29T08:12:53Z</time></trkpt><trkpt lat="36.957377369329194" lon="14.622904078630386"><ele>242.5</ele><time>2026-03-29T08:12:54Z</time></trkpt><trkpt lat="36.95732275133186" lon="14.62297999534783"><ele>242.33333333333334</ele><time>2026-03-29T08:12:55Z</time></trkpt><trkpt lat="36.957290407859425" lon="14.623049967461148"><ele>242.16666666666669</ele><time>2026-03-29T08:12:56Z</time></trkpt><trkpt lat="36.95722871548194" lon="14.623123343878317"><ele>242.0</ele><time>2026-03-29T08:12:58Z</time></trkpt><trkpt lat="36.9571725991107" lon="14.623181133534732"><ele>242.0</ele><time>2026-03-29T08:13:00Z</time></trkpt><trkpt lat="36.95707361357729" lon="14.623274861382379"><ele>242.0</ele><time>2026-03-29T08:13:02Z</time></trkpt><trkpt lat="36.95698241363787" lon="14.62337023073646"><ele>242.0</ele><time>2026-03-29T08:13:04Z</time></trkpt><trkpt lat="36.95693338616313" lon="14.623458817193791"><ele>242.0</ele><time>2026-03-29T08:13:07Z</time></trkpt><trkpt lat="36.95682896617695" lon="14.623576612541136"><ele>243.16666666666669</ele><time>2026-03-29T08:13:09Z</time></trkpt><trkpt lat="36.95675623309846" lon="14.62365648743682"><ele>244.33333333333334</ele><time>2026-03-29T08:13:10Z</time></trkpt><trkpt lat="36.95667781239186" lon="14.62373170223597"><ele>245.5</ele><time>2026-03-29T08:13:11Z</time></trkpt><trkpt lat="36.95661231002407" lon="14.623797722440019"><ele>246.66666666666669</ele><time>2026-03-29T08:13:12Z</time></trkpt><trkpt lat="36.95654898242338" lon="14.62385606743633"><ele>247.83333333333334</ele><time>2026-03-29T08:13:13Z</time></trkpt><trkpt lat="36.95647920249881" lon="14.6239220644232"><ele>249.0</ele><time>2026-03-29T08:13:14Z</time></trkpt><trkpt lat="36.95641780083092" lon="14.623986195932522"><ele>249.0</ele><time>2026-03-29T08:13:15Z</time></trkpt><trkpt lat="36.95636058888004" lon="14.62404179572552"><ele>249.0</ele><time>2026-03-29T08:13:16Z</time></trkpt><trkpt lat="36.95623963101457" lon="14.624140538967248"><ele>249.0</ele><time>2026-03-29T08:13:18Z</time></trkpt><trkpt lat="36.95618529734755" lon="14.624211347008893"><ele>249.0</ele><time>2026-03-29T08:13:19Z</time></trkpt><trkpt lat="36.956134288561124" lon="14.624280979758613"><ele>249.0</ele><time>2026-03-29T08:13:20Z</time></trkpt><trkpt lat="36.95608922889024" lon="14.624347086498089"><ele>249.0</ele><time>2026-03-29T08:13:21Z</time></trkpt><trkpt lat="36.956038377754496" lon="14.624418930931599"><ele>249.0</ele><time>2026-03-29T08:13:22Z</time></trkpt><trkpt lat="36.9559794728254" lon="14.624459826488511"><ele>249.0</ele><time>2026-03-29T08:13:23Z</time></trkpt><trkpt lat="36.95591801071381" lon="14.624531421311982"><ele>249.0</ele><time>2026-03-29T08:13:24Z</time></trkpt><trkpt lat="36.9558600715183" lon="14.624598220168043"><ele>249.0</ele><time>2026-03-29T08:13:25Z</time></trkpt><trkpt lat="36.95577463357714" lon="14.624666461395456"><ele>249.0</ele><time>2026-03-29T08:13:26Z</time></trkpt><trkpt lat="36.955701131337854" lon="14.624743223778202"><ele>249.0</ele><time>2026-03-29T08:13:27Z</time></trkpt><trkpt lat="36.95562836653216" lon="14.624818034161667"><ele>251.25</ele><time>2026-03-29T08:13:28Z</time></trkpt><trkpt lat="36.95554756405838" lon="14.624898993242322"><ele>253.5</ele><time>2026-03-29T08:13:29Z</time></trkpt><trkpt lat="36.95544940278346" lon="14.62501349391569"><ele>255.75</ele><time>2026-03-29T08:13:30Z</time></trkpt><trkpt lat="36.95535593760854" lon="14.625122839253802"><ele>258.0</ele><time>2026-03-29T08:13:31Z</time></trkpt><trkpt lat="36.95527316261635" lon="14.62522652166596"><ele>259.1666666666667</ele><time>2026-03-29T08:13:32Z</time></trkpt><trkpt lat="36.955202341562526" lon="14.625319201245688"><ele>260.3333333333333</ele><time>2026-03-29T08:13:33Z</time></trkpt><trkpt lat="36.955129510347646" lon="14.625405198252846"><ele>261.5</ele><time>2026-03-29T08:13:34Z</time></trkpt><trkpt lat="36.95506901262948" lon="14.625459009854358"><ele>262.66666666666663</ele><time>2026-03-29T08:13:35Z</time></trkpt><trkpt lat="36.95500089479077" lon="14.625507906366737"><ele>263.8333333333333</ele><time>2026-03-29T08:13:36Z</time></trkpt><trkpt lat="36.954927674326726" lon="14.62549505276348"><ele>265.0</ele><time>2026-03-29T08:13:38Z</time></trkpt><trkpt lat="36.95488723504452" lon="14.625432918411931"><ele>265.0</ele><time>2026-03-29T08:13:40Z</time></trkpt><trkpt lat="36.954831795411955" lon="14.625333897677868"><ele>265.0</ele><time>2026-03-29T08:13:41Z</time></trkpt><trkpt lat="36.954785139258696" lon="14.625218684614602"><ele>265.0</ele><time>2026-03-29T08:13:42Z</time></trkpt><trkpt lat="36.95473148997687" lon="14.625085828690446"><ele>265.0</ele><time>2026-03-29T08:13:43Z</time></trkpt><trkpt lat="36.95465392654696" lon="14.624984499725867"><ele>265.0</ele><time>2026-03-29T08:13:44Z</time></trkpt><trkpt lat="36.95454979906787" lon="14.624859351197804"><ele>265.0</ele><time>2026-03-29T08:13:45Z</time></trkpt><trkpt lat="36.95446576392939" lon="14.62472713361802"><ele>265.0</ele><time>2026-03-29T08:13:46Z</time></trkpt><trkpt lat="36.95439584774751" lon="14.624623286944527"><ele>265.0</ele><time>2026-03-29T08:13:47Z</time></trkpt><trkpt lat="36.95432074903152" lon="14.62452708092417"><ele>265.0</ele><time>2026-03-29T08:13:48Z</time></trkpt><trkpt lat="36.95425217640696" lon="14.624449485322934"><ele>265.0</ele><time>2026-03-29T08:13:49Z</time></trkpt><trkpt lat="36.95419298593816" lon="14.624371518248644"><ele>266.2</ele><time>2026-03-29T08:13:50Z</time></trkpt><trkpt lat="36.9541306196688" lon="14.624289510609248"><ele>267.4</ele><time>2026-03-29T08:13:51Z</time></trkpt><trkpt lat="36.95404724519819" lon="14.624211289561435"><ele>268.6</ele><time>2026-03-29T08:13:52Z</time></trkpt><trkpt lat="36.95395661331011" lon="14.624140171346587"><ele>269.8</ele><time>2026-03-29T08:13:53Z</time></trkpt><trkpt lat="36.95387949214544" lon="14.624053498175803"><ele>271.0</ele><time>2026-03-29T08:13:54Z</time></trkpt><trkpt lat="36.95380593396999" lon="14.623955696743927"><ele>271.0</ele><time>2026-03-29T08:13:55Z</time></trkpt><trkpt lat="36.95374088455369" lon="14.623845076878453"><ele>271.0</ele><time>2026-03-29T08:13:56Z</time></trkpt><trkpt lat="36.953705930139066" lon="14.623745898675333"><ele>271.0</ele><time>2026-03-29T08:13:57Z</time></trkpt><trkpt lat="36.95368663381076" lon="14.62359440828271"><ele>271.0</ele><time>2026-03-29T08:13:59Z</time></trkpt><trkpt lat="36.953745967485006" lon="14.623398660502337"><ele>270.0</ele><time>2026-03-29T08:14:00Z</time></trkpt><trkpt lat="36.95376475634443" lon="14.62325988857095"><ele>269.0</ele><time>2026-03-29T08:14:01Z</time></trkpt><trkpt lat="36.95376090351377" lon="14.623126824242137"><ele>268.0</ele><time>2026-03-29T08:14:02Z</time></trkpt><trkpt lat="36.95372751638448" lon="14.622993078074618"><ele>267.0</ele><time>2026-03-29T08:14:03Z</time></trkpt><trkpt lat="36.9536586073861" lon="14.622883160365044"><ele>266.0</ele><time>2026-03-29T08:14:04Z</time></trkpt><trkpt lat="36.95359065839113" lon="14.622761767429568"><ele>264.75</ele><time>2026-03-29T08:14:05Z</time></trkpt><trkpt lat="36.95351726289781" lon="14.622633328333103"><ele>263.5</ele><time>2026-03-29T08:14:06Z</time></trkpt><trkpt lat="36.95345876164552" lon="14.622518517974092"><ele>262.25</ele><time>2026-03-29T08:14:07Z</time></trkpt><trkpt lat="36.95342586096065" lon="14.622382482974652"><ele>261.0</ele><time>2026-03-29T08:14:08Z</time></trkpt><trkpt lat="36.9533965559223" lon="14.622257914249953"><ele>261.6666666666667</ele><time>2026-03-29T08:14:09Z</time></trkpt><trkpt lat="36.953362513465585" lon="14.62217002077951"><ele>262.3333333333333</ele><time>2026-03-29T08:14:10Z</time></trkpt><trkpt lat="36.953332928073664" lon="14.622089525478493"><ele>263.0</ele><time>2026-03-29T08:14:11Z</time></trkpt><trkpt lat="36.95330428322912" lon="14.62194571169332"><ele>263.66666666666663</ele><time>2026-03-29T08:14:13Z</time></trkpt><trkpt lat="36.95327223027547" lon="14.621831030961117"><ele>264.3333333333333</ele><time>2026-03-29T08:14:15Z</time></trkpt><trkpt lat="36.953227921207684" lon="14.621773011231207"><ele>265.0</ele><time>2026-03-29T08:14:17Z</time></trkpt><trkpt lat="36.95314929343969" lon="14.621751085960314"><ele>265.0</ele><time>2026-03-29T08:14:19Z</time></trkpt><trkpt lat="36.95309733712107" lon="14.621702699447564"><ele>265.0</ele><time>2026-03-29T08:14:20Z</time></trkpt><trkpt lat="36.95303038736569" lon="14.62160398072954"><ele>265.0</ele><time>2026-03-29T08:14:21Z</time></trkpt><trkpt lat="36.952959568331664" lon="14.62150549708796"><ele>265.0</ele><time>2026-03-29T08:14:22Z</time></trkpt><trkpt lat="36.95288584595566" lon="14.621411266472046"><ele>265.0</ele><time>2026-03-29T08:14:23Z</time></trkpt><trkpt lat="36.952804687883265" lon="14.621328753569044"><ele>265.0</ele><time>2026-03-29T08:14:24Z</time></trkpt><trkpt lat="36.95271392046426" lon="14.621243329073462"><ele>265.0</ele><time>2026-03-29T08:14:25Z</time></trkpt><trkpt lat="36.952627629010664" lon="14.62115629398596"><ele>265.0</ele><time>2026-03-29T08:14:26Z</time></trkpt><trkpt lat="36.952540938479345" lon="14.621063778172521"><ele>265.0</ele><time>2026-03-29T08:14:27Z</time></trkpt><trkpt lat="36.9524768809016" lon="14.620961670813331"><ele>265.0</ele><time>2026-03-29T08:14:28Z</time></trkpt><trkpt lat="36.952381390708645" lon="14.620838274768014"><ele>264.0</ele><time>2026-03-29T08:14:29Z</time></trkpt><trkpt lat="36.95229121737072" lon="14.620701126175497"><ele>263.0</ele><time>2026-03-29T08:14:30Z</time></trkpt><trkpt lat="36.95218726165614" lon="14.620613223950148"><ele>262.0</ele><time>2026-03-29T08:14:31Z</time></trkpt><trkpt lat="36.952108239536074" lon="14.62052923731418"><ele>261.0</ele><time>2026-03-29T08:14:32Z</time></trkpt><trkpt lat="36.95202812943721" lon="14.620430614982384"><ele>261.0</ele><time>2026-03-29T08:14:33Z</time></trkpt><trkpt lat="36.95193826591649" lon="14.62035684965284"><ele>261.0</ele><time>2026-03-29T08:14:34Z</time></trkpt><trkpt lat="36.95185152510838" lon="14.620277158279148"><ele>261.0</ele><time>2026-03-29T08:14:35Z</time></trkpt><trkpt lat="36.95175802824607" lon="14.620218501219865"><ele>261.0</ele><time>2026-03-29T08:14:36Z</time></trkpt><trkpt lat="36.95164935613807" lon="14.620144200844507"><ele>261.0</ele><time>2026-03-29T08:14:37Z</time></trkpt><trkpt lat="36.95155911366985" lon="14.620076279762515"><ele>260.8333333333333</ele><time>2026-03-29T08:14:38Z</time></trkpt><trkpt lat="36.95146096685247" lon="14.620037552805057"><ele>260.6666666666667</ele><time>2026-03-29T08:14:39Z</time></trkpt><trkpt lat="36.951378620549406" lon="14.619998498083872"><ele>260.5</ele><time>2026-03-29T08:14:40Z</time></trkpt><trkpt lat="36.95129764626522" lon="14.619966322021416"><ele>260.33333333333337</ele><time>2026-03-29T08:14:41Z</time></trkpt><trkpt lat="36.9512187551749" lon="14.619931782413266"><ele>260.1666666666667</ele><time>2026-03-29T08:14:42Z</time></trkpt><trkpt lat="36.951155834376024" lon="14.619900330355906"><ele>260.0</ele><time>2026-03-29T08:14:43Z</time></trkpt><trkpt lat="36.95108192025387" lon="14.61989353888609"><ele>260.6666666666667</ele><time>2026-03-29T08:14:46Z</time></trkpt><trkpt lat="36.95085954607297" lon="14.619828952593696"><ele>261.3333333333333</ele><time>2026-03-29T08:15:04Z</time></trkpt><trkpt lat="36.950786822517905" lon="14.619951970628275"><ele>262.0</ele><time>2026-03-29T08:15:05Z</time></trkpt><trkpt lat="36.95072071548838" lon="14.620072705254184"><ele>262.0</ele><time>2026-03-29T08:15:07Z</time></trkpt><trkpt lat="36.95065479474088" lon="14.620196367410113"><ele>262.0</ele><time>2026-03-29T08:15:09Z</time></trkpt><trkpt lat="36.95057546875565" lon="14.620305034415185"><ele>262.0</ele><time>2026-03-29T08:15:11Z</time></trkpt><trkpt lat="36.95052192696206" lon="14.620354417793271"><ele>262.0</ele><time>2026-03-29T08:15:12Z</time></trkpt><trkpt lat="36.95044541090984" lon="14.620384108343018"><ele>262.0</ele><time>2026-03-29T08:15:14Z</time></trkpt><trkpt lat="36.950353637537425" lon="14.62033840515578"><ele>262.0</ele><time>2026-03-29T08:15:16Z</time></trkpt><trkpt lat="36.9502623550496" lon="14.62028693225237"><ele>262.0</ele><time>2026-03-29T08:15:17Z</time></trkpt><trkpt lat="36.95017825991378" lon="14.620226915839865"><ele>262.0</ele><time>2026-03-29T08:15:18Z</time></trkpt><trkpt lat="36.950095988156704" lon="14.620190056883677"><ele>262.0</ele><time>2026-03-29T08:15:19Z</time></trkpt><trkpt lat="36.950010651037985" lon="14.620162969872405"><ele>262.0</ele><time>2026-03-29T08:15:20Z</time></trkpt><trkpt lat="36.949927817889396" lon="14.62015120476084"><ele>262.8333333333333</ele><time>2026-03-29T08:15:21Z</time></trkpt><trkpt lat="36.949845156064875" lon="14.620117066311389"><ele>263.66666666666663</ele><time>2026-03-29T08:15:22Z</time></trkpt><trkpt lat="36.949764547015874" lon="14.620033630175321"><ele>264.5</ele><time>2026-03-29T08:15:23Z</time></trkpt><trkpt lat="36.949691933965774" lon="14.619981073845935"><ele>265.3333333333333</ele><time>2026-03-29T08:15:24Z</time></trkpt><trkpt lat="36.94963068888318" lon="14.619938003814763"><ele>266.1666666666667</ele><time>2026-03-29T08:15:25Z</time></trkpt><trkpt lat="36.94954164687597" lon="14.6199270430526"><ele>267.0</ele><time>2026-03-29T08:15:26Z</time></trkpt><trkpt lat="36.94946495776498" lon="14.619907105718601"><ele>267.0</ele><time>2026-03-29T08:15:27Z</time></trkpt><trkpt lat="36.94938570009869" lon="14.619859283291168"><ele>267.0</ele><time>2026-03-29T08:15:28Z</time></trkpt><trkpt lat="36.94925526564705" lon="14.619794442473147"><ele>267.0</ele><time>2026-03-29T08:15:30Z</time></trkpt><trkpt lat="36.94921360572297" lon="14.619728526903575"><ele>267.0</ele><time>2026-03-29T08:15:31Z</time></trkpt><trkpt lat="36.949148778152846" lon="14.619637432757658"><ele>267.0</ele><time>2026-03-29T08:15:33Z</time></trkpt><trkpt lat="36.94912505039347" lon="14.619547203063004"><ele>266.0</ele><time>2026-03-29T08:15:34Z</time></trkpt><trkpt lat="36.94911605725015" lon="14.619456959795597"><ele>265.0</ele><time>2026-03-29T08:15:35Z</time></trkpt><trkpt lat="36.94897761678521" lon="14.61918299799323"><ele>264.0</ele><time>2026-03-29T08:15:37Z</time></trkpt><trkpt lat="36.94890948898096" lon="14.619042968919052"><ele>264.0</ele><time>2026-03-29T08:15:38Z</time></trkpt><trkpt lat="36.948839493003526" lon="14.618963331776705"><ele>264.0</ele><time>2026-03-29T08:15:39Z</time></trkpt><trkpt lat="36.948795302140965" lon="14.618835727671819"><ele>264.0</ele><time>2026-03-29T08:15:40Z</time></trkpt><trkpt lat="36.948756228679414" lon="14.618732353761366"><ele>264.0</ele><time>2026-03-29T08:15:41Z</time></trkpt><trkpt lat="36.94870392522139" lon="14.618571842414017"><ele>264.0</ele><time>2026-03-29T08:15:43Z</time></trkpt><trkpt lat="36.948672362917016" lon="14.61846622300444"><ele>262.59999999999997</ele><time>2026-03-29T08:15:44Z</time></trkpt><trkpt lat="36.94863963823322" lon="14.618388267318208"><ele>261.2</ele><time>2026-03-29T08:15:45Z</time></trkpt><trkpt lat="36.94860282745822" lon="14.618319096057613"><ele>259.79999999999995</ele><time>2026-03-29T08:15:46Z</time></trkpt><trkpt lat="36.94857372500392" lon="14.61824857593815"><ele>258.4</ele><time>2026-03-29T08:15:47Z</time></trkpt><trkpt lat="36.948522802814495" lon="14.618103502420174"><ele>257.0</ele><time>2026-03-29T08:15:49Z</time></trkpt><trkpt lat="36.948423964744556" lon="14.618323450465482"><ele>259.6</ele><time>2026-03-29T08:15:51Z</time></trkpt><trkpt lat="36.94828762995006" lon="14.6184354040559"><ele>262.2</ele><time>2026-03-29T08:15:53Z</time></trkpt><trkpt lat="36.94822798129239" lon="14.618472016019009"><ele>264.8</ele><time>2026-03-29T08:15:54Z</time></trkpt><trkpt lat="36.94818906422219" lon="14.618546215225757"><ele>267.4</ele><time>2026-03-29T08:15:55Z</time></trkpt><trkpt lat="36.948119253693" lon="14.618604520705208"><ele>270.0</ele><time>2026-03-29T08:15:56Z</time></trkpt><trkpt lat="36.948061145727635" lon="14.61864886330207"><ele>270.0</ele><time>2026-03-29T08:15:57Z</time></trkpt><trkpt lat="36.94788627679917" lon="14.618414651252385"><ele>270.0</ele><time>2026-03-29T08:16:03Z</time></trkpt><trkpt lat="36.94783590202403" lon="14.61826134232009"><ele>270.0</ele><time>2026-03-29T08:16:05Z</time></trkpt><trkpt lat="36.947831944743264" lon="14.618171501777008"><ele>270.0</ele><time>2026-03-29T08:16:06Z</time></trkpt><trkpt lat="36.947825105001854" lon="14.618090144829953"><ele>270.0</ele><time>2026-03-29T08:16:07Z</time></trkpt><trkpt lat="36.947815225789746" lon="14.617972738218592"><ele>270.0</ele><time>2026-03-29T08:16:09Z</time></trkpt><trkpt lat="36.94778517828575" lon="14.617820713371342"><ele>270.0</ele><time>2026-03-29T08:16:11Z</time></trkpt><trkpt lat="36.94774560215082" lon="14.617733831009394"><ele>270.0</ele><time>2026-03-29T08:16:12Z</time></trkpt><trkpt lat="36.94772008887882" lon="14.61762198414174"><ele>268.5</ele><time>2026-03-29T08:16:13Z</time></trkpt><trkpt lat="36.94769416361055" lon="14.617484692719628"><ele>267.0</ele><time>2026-03-29T08:16:14Z</time></trkpt><trkpt lat="36.9476475429092" lon="14.617385383574472"><ele>265.5</ele><time>2026-03-29T08:16:15Z</time></trkpt><trkpt lat="36.94760725789246" lon="14.617289515414534"><ele>264.0</ele><time>2026-03-29T08:16:16Z</time></trkpt><trkpt lat="36.94755565876338" lon="14.6172047799851"><ele>262.5</ele><time>2026-03-29T08:16:17Z</time></trkpt><trkpt lat="36.9475186008292" lon="14.617129298609184"><ele>261.0</ele><time>2026-03-29T08:16:18Z</time></trkpt><trkpt lat="36.94747982633825" lon="14.617014270950083"><ele>263.8</ele><time>2026-03-29T08:16:20Z</time></trkpt><trkpt lat="36.94743258770695" lon="14.616909233048762"><ele>266.6</ele><time>2026-03-29T08:16:22Z</time></trkpt><trkpt lat="36.9474117409127" lon="14.616778123910326"><ele>269.4</ele><time>2026-03-29T08:16:24Z</time></trkpt><trkpt lat="36.94739440908296" lon="14.61667166414324"><ele>272.2</ele><time>2026-03-29T08:16:26Z</time></trkpt><trkpt lat="36.94738894123305" lon="14.61654701142204"><ele>275.0</ele><time>2026-03-29T08:16:35Z</time></trkpt><trkpt lat="36.947357058775275" lon="14.616464713891242"><ele>275.0</ele><time>2026-03-29T08:16:38Z</time></trkpt><trkpt lat="36.947334297805185" lon="14.616389567842726"><ele>275.0</ele><time>2026-03-29T08:16:40Z</time></trkpt><trkpt lat="36.947300699981746" lon="14.616258233522332"><ele>275.0</ele><time>2026-03-29T08:16:42Z</time></trkpt><trkpt lat="36.947288328906545" lon="14.616178151649247"><ele>275.0</ele><time>2026-03-29T08:16:43Z</time></trkpt><trkpt lat="36.94727259229282" lon="14.616080590603671"><ele>275.0</ele><time>2026-03-29T08:16:44Z</time></trkpt><trkpt lat="36.94722077732859" lon="14.61598438128119"><ele>275.0</ele><time>2026-03-29T08:16:45Z</time></trkpt><trkpt lat="36.94720084700072" lon="14.61589021699754"><ele>273.2</ele><time>2026-03-29T08:16:46Z</time></trkpt><trkpt lat="36.94717160947134" lon="14.61574975091753"><ele>271.4</ele><time>2026-03-29T08:16:48Z</time></trkpt><trkpt lat="36.94715022795853" lon="14.615666081512757"><ele>269.6</ele><time>2026-03-29T08:16:49Z</time></trkpt><trkpt lat="36.94711307343584" lon="14.615537001903803"><ele>267.8</ele><time>2026-03-29T08:16:51Z</time></trkpt><trkpt lat="36.94709571413267" lon="14.615410474639361"><ele>266.0</ele><time>2026-03-29T08:16:53Z</time></trkpt><trkpt lat="36.947044951456576" lon="14.615268296423436"><ele>262.8</ele><time>2026-03-29T08:16:55Z</time></trkpt><trkpt lat="36.946998174177025" lon="14.615107767002728"><ele>259.6</ele><time>2026-03-29T08:16:57Z</time></trkpt><trkpt lat="36.94696228989123" lon="14.615021015362643"><ele>256.4</ele><time>2026-03-29T08:16:58Z</time></trkpt><trkpt lat="36.94692972807809" lon="14.614950853986324"><ele>253.2</ele><time>2026-03-29T08:16:59Z</time></trkpt><trkpt lat="36.94686843780549" lon="14.614836810228176"><ele>250.0</ele><time>2026-03-29T08:17:01Z</time></trkpt><trkpt lat="36.946813841372766" lon="14.614762561094272"><ele>249.99999999999997</ele><time>2026-03-29T08:17:02Z</time></trkpt><trkpt lat="36.94675226277804" lon="14.614680025156071"><ele>250.0</ele><time>2026-03-29T08:17:03Z</time></trkpt><trkpt lat="36.946700662140934" lon="14.614609889650424"><ele>250.0</ele><time>2026-03-29T08:17:04Z</time></trkpt><trkpt lat="36.946653301843206" lon="14.614548525970958"><ele>250.0</ele><time>2026-03-29T08:17:05Z</time></trkpt><trkpt lat="36.94655676558491" lon="14.614530987667381"><ele>249.99999999999997</ele><time>2026-03-29T08:17:06Z</time></trkpt><trkpt lat="36.946489615570755" lon="14.614520410243717"><ele>250.0</ele><time>2026-03-29T08:17:07Z</time></trkpt><trkpt lat="36.94637791834515" lon="14.614460006927601"><ele>250.49999999999997</ele><time>2026-03-29T08:17:09Z</time></trkpt><trkpt lat="36.946329885886044" lon="14.614374434936721"><ele>251.0</ele><time>2026-03-29T08:17:10Z</time></trkpt><trkpt lat="36.94629191418029" lon="14.614311595063715"><ele>251.5</ele><time>2026-03-29T08:17:11Z</time></trkpt><trkpt lat="36.94625647975319" lon="14.614222927060776"><ele>252.0</ele><time>2026-03-29T08:17:12Z</time></trkpt><trkpt lat="36.94621580060078" lon="14.614137310914835"><ele>252.49999999999997</ele><time>2026-03-29T08:17:13Z</time></trkpt><trkpt lat="36.94617662345281" lon="14.614054760608795"><ele>253.0</ele><time>2026-03-29T08:17:14Z</time></trkpt><trkpt lat="36.94610720973395" lon="14.613944753867308"><ele>252.99999999999997</ele><time>2026-03-29T08:17:16Z</time></trkpt><trkpt lat="36.94606740410533" lon="14.613877057817628"><ele>253.0</ele><time>2026-03-29T08:17:17Z</time></trkpt><trkpt lat="36.946028443778474" lon="14.61379580868465"><ele>253.0</ele><time>2026-03-29T08:17:18Z</time></trkpt><trkpt lat="36.94596172566086" lon="14.613703645747211"><ele>253.0</ele><time>2026-03-29T08:17:19Z</time></trkpt><trkpt lat="36.945883034820795" lon="14.61359923080526"><ele>252.99999999999997</ele><time>2026-03-29T08:17:20Z</time></trkpt><trkpt lat="36.94582072353839" lon="14.61352070964744"><ele>253.0</ele><time>2026-03-29T08:17:21Z</time></trkpt><trkpt lat="36.945759648557114" lon="14.613462448215527"><ele>254.2</ele><time>2026-03-29T08:17:22Z</time></trkpt><trkpt lat="36.94567490410244" lon="14.613414284215922"><ele>255.4</ele><time>2026-03-29T08:17:25Z</time></trkpt><trkpt lat="36.94556052233654" lon="14.613400770145008"><ele>256.59999999999997</ele><time>2026-03-29T08:17:37Z</time></trkpt><trkpt lat="36.945545237331444" lon="14.613483214372856"><ele>257.8</ele><time>2026-03-29T08:17:39Z</time></trkpt><trkpt lat="36.94548306482868" lon="14.613544265619186"><ele>259.0</ele><time>2026-03-29T08:17:43Z</time></trkpt><trkpt lat="36.94538765984413" lon="14.61352815419033"><ele>259.0</ele><time>2026-03-29T08:17:46Z</time></trkpt><trkpt lat="36.94527556289152" lon="14.613468997068768"><ele>259.0</ele><time>2026-03-29T08:17:48Z</time></trkpt><trkpt lat="36.945158091199026" lon="14.613464457016825"><ele>259.0</ele><time>2026-03-29T08:17:50Z</time></trkpt><trkpt lat="36.9450762992285" lon="14.613478442702807"><ele>259.0</ele><time>2026-03-29T08:17:52Z</time></trkpt><trkpt lat="36.9449821399174" lon="14.613396358051691"><ele>259.0</ele><time>2026-03-29T08:17:54Z</time></trkpt><trkpt lat="36.94481544393968" lon="14.613369166534898"><ele>262.2</ele><time>2026-03-29T08:17:59Z</time></trkpt><trkpt lat="36.94476796183385" lon="14.6132864630925"><ele>265.4</ele><time>2026-03-29T08:18:01Z</time></trkpt><trkpt lat="36.94471844068551" lon="14.613225181511256"><ele>268.6</ele><time>2026-03-29T08:18:03Z</time></trkpt><trkpt lat="36.94463509200653" lon="14.613185502348198"><ele>271.8</ele><time>2026-03-29T08:18:05Z</time></trkpt><trkpt lat="36.94451932008854" lon="14.613123504503456"><ele>275.0</ele><time>2026-03-29T08:18:07Z</time></trkpt><trkpt lat="36.94446600497873" lon="14.613026605468484"><ele>275.0</ele><time>2026-03-29T08:18:11Z</time></trkpt><trkpt lat="36.94438765020318" lon="14.612996363472075"><ele>275.0</ele><time>2026-03-29T08:18:14Z</time></trkpt><trkpt lat="36.944311152169206" lon="14.613019911472126"><ele>275.0</ele><time>2026-03-29T08:18:16Z</time></trkpt><trkpt lat="36.944224881899586" lon="14.613013117928116"><ele>275.0</ele><time>2026-03-29T08:18:18Z</time></trkpt><trkpt lat="36.944166620408325" lon="14.613046936666382"><ele>275.0</ele><time>2026-03-29T08:18:23Z</time></trkpt><trkpt lat="36.94405935947834" lon="14.613033914033501"><ele>275.0</ele><time>2026-03-29T08:18:27Z</time></trkpt><trkpt lat="36.943971768973164" lon="14.613020751690202"><ele>273.0</ele><time>2026-03-29T08:18:30Z</time></trkpt><trkpt lat="36.9438457282337" lon="14.612958239556018"><ele>271.0</ele><time>2026-03-29T08:18:32Z</time></trkpt><trkpt lat="36.94368699041599" lon="14.612862966803949"><ele>269.0</ele><time>2026-03-29T08:18:33Z</time></trkpt><trkpt lat="36.94352210881477" lon="14.612763891000105"><ele>270.25</ele><time>2026-03-29T08:18:34Z</time></trkpt><trkpt lat="36.94326098123997" lon="14.612790714777343"><ele>271.5</ele><time>2026-03-29T08:18:36Z</time></trkpt><trkpt lat="36.94320323599049" lon="14.612745570586181"><ele>272.75</ele><time>2026-03-29T08:18:37Z</time></trkpt><trkpt lat="36.94310507174528" lon="14.612778052660802"><ele>274.0</ele><time>2026-03-29T08:18:39Z</time></trkpt><trkpt lat="36.943005731315175" lon="14.612748211825277"><ele>274.0</ele><time>2026-03-29T08:18:40Z</time></trkpt><trkpt lat="36.94289696349181" lon="14.612635099471218"><ele>274.0</ele><time>2026-03-29T08:18:42Z</time></trkpt><trkpt lat="36.942856625937516" lon="14.612572451686278"><ele>274.0</ele><time>2026-03-29T08:18:43Z</time></trkpt><trkpt lat="36.94285712748429" lon="14.612476875766287"><ele>274.0</ele><time>2026-03-29T08:18:49Z</time></trkpt><trkpt lat="36.94284577406087" lon="14.612384224951827"><ele>274.0</ele><time>2026-03-29T08:18:50Z</time></trkpt><trkpt lat="36.9428232897539" lon="14.612278968256405"><ele>274.0</ele><time>2026-03-29T08:18:53Z</time></trkpt><trkpt lat="36.94281615113529" lon="14.612128594314356"><ele>274.0</ele><time>2026-03-29T08:18:54Z</time></trkpt><trkpt lat="36.94281886915626" lon="14.612018165979794"><ele>274.0</ele><time>2026-03-29T08:18:55Z</time></trkpt><trkpt lat="36.942813303661396" lon="14.611925196294791"><ele>274.0</ele><time>2026-03-29T08:18:56Z</time></trkpt><trkpt lat="36.942820752405375" lon="14.611816323680273"><ele>274.0</ele><time>2026-03-29T08:18:57Z</time></trkpt><trkpt lat="36.94280659393857" lon="14.61168143545611"><ele>274.0</ele><time>2026-03-29T08:18:59Z</time></trkpt><trkpt lat="36.94276877249763" lon="14.61158137429391"><ele>274.0</ele><time>2026-03-29T08:19:02Z</time></trkpt><trkpt lat="36.94277988604997" lon="14.611474998170685"><ele>274.8</ele><time>2026-03-29T08:19:04Z</time></trkpt><trkpt lat="36.942700461197525" lon="14.611335237134279"><ele>275.59999999999997</ele><time>2026-03-29T08:19:06Z</time></trkpt><trkpt lat="36.94265510716743" lon="14.611240814917394"><ele>276.4</ele><time>2026-03-29T08:19:07Z</time></trkpt><trkpt lat="36.94257834019194" lon="14.611155626938"><ele>277.2</ele><time>2026-03-29T08:19:09Z</time></trkpt><trkpt lat="36.94258378664051" lon="14.611036659218927"><ele>278.0</ele><time>2026-03-29T08:19:10Z</time></trkpt><trkpt lat="36.94253418943235" lon="14.610938361691115"><ele>278.0</ele><time>2026-03-29T08:19:12Z</time></trkpt><trkpt lat="36.942464740504555" lon="14.610896410886951"><ele>278.0</ele><time>2026-03-29T08:19:14Z</time></trkpt><trkpt lat="36.942400368398054" lon="14.610845493027638"><ele>278.0</ele><time>2026-03-29T08:19:16Z</time></trkpt><trkpt lat="36.942319807387754" lon="14.61076435296449"><ele>278.0</ele><time>2026-03-29T08:19:18Z</time></trkpt><trkpt lat="36.94226832429013" lon="14.610675196540273"><ele>278.0</ele><time>2026-03-29T08:19:20Z</time></trkpt><trkpt lat="36.942175178418566" lon="14.610623791857224"><ele>278.0</ele><time>2026-03-29T08:19:22Z</time></trkpt><trkpt lat="36.942061842304376" lon="14.610586656349957"><ele>278.0</ele><time>2026-03-29T08:19:24Z</time></trkpt><trkpt lat="36.94199811002201" lon="14.610534298918846"><ele>278.0</ele><time>2026-03-29T08:19:26Z</time></trkpt><trkpt lat="36.94193752718309" lon="14.61046156188874"><ele>278.0</ele><time>2026-03-29T08:19:27Z</time></trkpt><trkpt lat="36.94188602664019" lon="14.610386202384896"><ele>278.0</ele><time>2026-03-29T08:19:28Z</time></trkpt><trkpt lat="36.94183977849167" lon="14.610320214531253"><ele>278.0</ele><time>2026-03-29T08:19:29Z</time></trkpt><trkpt lat="36.94177710028679" lon="14.610265683529349"><ele>278.0</ele><time>2026-03-29T08:19:30Z</time></trkpt><trkpt lat="36.94171702643269" lon="14.610235436532998"><ele>279.4</ele><time>2026-03-29T08:19:31Z</time></trkpt><trkpt lat="36.94168760433946" lon="14.610371388298692"><ele>280.8</ele><time>2026-03-29T08:19:34Z</time></trkpt><trkpt lat="36.94162837525115" lon="14.610434235071043"><ele>282.2</ele><time>2026-03-29T08:19:36Z</time></trkpt><trkpt lat="36.941547000055756" lon="14.610508066915905"><ele>283.6</ele><time>2026-03-29T08:19:37Z</time></trkpt><trkpt lat="36.94145311354685" lon="14.610560704559296"><ele>285.0</ele><time>2026-03-29T08:19:38Z</time></trkpt><trkpt lat="36.94137675524719" lon="14.610561242128234"><ele>285.0</ele><time>2026-03-29T08:19:39Z</time></trkpt><trkpt lat="36.94129078912761" lon="14.610502878613195"><ele>285.0</ele><time>2026-03-29T08:19:40Z</time></trkpt><trkpt lat="36.94125166275775" lon="14.610380398729518"><ele>285.0</ele><time>2026-03-29T08:19:42Z</time></trkpt><trkpt lat="36.94130323403561" lon="14.610313864566395"><ele>285.0</ele><time>2026-03-29T08:19:45Z</time></trkpt><trkpt lat="36.94130643064338" lon="14.610234784498584"><ele>285.0</ele><time>2026-03-29T08:19:47Z</time></trkpt><trkpt lat="36.94128700435534" lon="14.610115387822828"><ele>285.0</ele><time>2026-03-29T08:19:49Z</time></trkpt><trkpt lat="36.94118841470128" lon="14.610153040535153"><ele>284.6666666666667</ele><time>2026-03-29T08:19:53Z</time></trkpt><trkpt lat="36.94111577560797" lon="14.610120257363485"><ele>284.3333333333333</ele><time>2026-03-29T08:19:56Z</time></trkpt><trkpt lat="36.94104416278658" lon="14.610085445443401"><ele>284.0</ele><time>2026-03-29T08:19:59Z</time></trkpt><trkpt lat="36.940946080550226" lon="14.610079228794039"><ele>283.66666666666663</ele><time>2026-03-29T08:20:02Z</time></trkpt><trkpt lat="36.9408360035455" lon="14.610104944768494"><ele>283.3333333333333</ele><time>2026-03-29T08:20:05Z</time></trkpt><trkpt lat="36.94076766252871" lon="14.610105899503855"><ele>283.0</ele><time>2026-03-29T08:20:09Z</time></trkpt><trkpt lat="36.94069735546171" lon="14.610066747581778"><ele>282.3333333333333</ele><time>2026-03-29T08:20:11Z</time></trkpt><trkpt lat="36.94068847011461" lon="14.609948516348735"><ele>281.66666666666663</ele><time>2026-03-29T08:20:14Z</time></trkpt><trkpt lat="36.94071875690279" lon="14.609829524054211"><ele>281.0</ele><time>2026-03-29T08:20:18Z</time></trkpt><trkpt lat="36.940656843743966" lon="14.609758979120635"><ele>280.3333333333333</ele><time>2026-03-29T08:20:22Z</time></trkpt><trkpt lat="36.94063696716515" lon="14.609651439706067"><ele>279.6666666666667</ele><time>2026-03-29T08:20:25Z</time></trkpt><trkpt lat="36.94062988565318" lon="14.609552691740056"><ele>279.0</ele><time>2026-03-29T08:20:26Z</time></trkpt><trkpt lat="36.940655641373645" lon="14.609451674307419"><ele>277.8333333333333</ele><time>2026-03-29T08:20:30Z</time></trkpt><trkpt lat="36.940672030236236" lon="14.609375066973962"><ele>276.6666666666667</ele><time>2026-03-29T08:20:32Z</time></trkpt><trkpt lat="36.940711337094534" lon="14.60928602120635"><ele>275.5</ele><time>2026-03-29T08:20:33Z</time></trkpt><trkpt lat="36.940684209682885" lon="14.609194666077684"><ele>274.33333333333337</ele><time>2026-03-29T08:20:37Z</time></trkpt><trkpt lat="36.94064854016888" lon="14.609103530916403"><ele>273.1666666666667</ele><time>2026-03-29T08:21:07Z</time></trkpt><trkpt lat="36.940614023097105" lon="14.609030926791432"><ele>272.0</ele><time>2026-03-29T08:21:08Z</time></trkpt><trkpt lat="36.94055668176739" lon="14.608925207034348"><ele>272.0</ele><time>2026-03-29T08:21:09Z</time></trkpt><trkpt lat="36.94047356264168" lon="14.60878664358473"><ele>272.0</ele><time>2026-03-29T08:21:11Z</time></trkpt><trkpt lat="36.94044963786834" lon="14.608693020375442"><ele>272.0</ele><time>2026-03-29T08:21:12Z</time></trkpt><trkpt lat="36.9404231200352" lon="14.608596170768209"><ele>272.0</ele><time>2026-03-29T08:21:13Z</time></trkpt><trkpt lat="36.94039086146435" lon="14.6084873677433"><ele>272.0</ele><time>2026-03-29T08:21:14Z</time></trkpt><trkpt lat="36.94035210977397" lon="14.608381065052646"><ele>270.33333333333337</ele><time>2026-03-29T08:21:16Z</time></trkpt><trkpt lat="36.940307969070574" lon="14.6082901882008"><ele>268.6666666666667</ele><time>2026-03-29T08:21:21Z</time></trkpt><trkpt lat="36.940277942550395" lon="14.608220776299348"><ele>267.0</ele><time>2026-03-29T08:21:23Z</time></trkpt><trkpt lat="36.94054091328889" lon="14.607828742708872"><ele>265.8333333333333</ele><time>2026-03-29T08:21:28Z</time></trkpt><trkpt lat="36.94051635088619" lon="14.607698246761654"><ele>264.6666666666667</ele><time>2026-03-29T08:21:30Z</time></trkpt><trkpt lat="36.940477191713" lon="14.607586882600268"><ele>263.5</ele><time>2026-03-29T08:21:32Z</time></trkpt><trkpt lat="36.940437818465526" lon="14.60751242773317"><ele>262.33333333333337</ele><time>2026-03-29T08:21:34Z</time></trkpt><trkpt lat="36.94036950838736" lon="14.607526201528614"><ele>261.1666666666667</ele><time>2026-03-29T08:21:37Z</time></trkpt><trkpt lat="36.94030751548637" lon="14.60750527052019"><ele>260.0</ele><time>2026-03-29T08:21:39Z</time></trkpt><trkpt lat="36.94021989093063" lon="14.607511370065682"><ele>260.0</ele><time>2026-03-29T08:21:41Z</time></trkpt><trkpt lat="36.94016610959572" lon="14.607569274635013"><ele>260.0</ele><time>2026-03-29T08:21:44Z</time></trkpt><trkpt lat="36.94010271549237" lon="14.607660681184257"><ele>260.0</ele><time>2026-03-29T08:21:47Z</time></trkpt><trkpt lat="36.94003068842382" lon="14.607688404140065"><ele>260.0</ele><time>2026-03-29T08:21:50Z</time></trkpt><trkpt lat="36.939966386660274" lon="14.607732875130354"><ele>260.0</ele><time>2026-03-29T08:21:53Z</time></trkpt><trkpt lat="36.939856220411606" lon="14.607698991390956"><ele>260.0</ele><time>2026-03-29T08:21:56Z</time></trkpt><trkpt lat="36.93976013365859" lon="14.607674208635045"><ele>264.0</ele><time>2026-03-29T08:21:59Z</time></trkpt><trkpt lat="36.93975792880698" lon="14.60757716653619"><ele>268.0</ele><time>2026-03-29T08:22:01Z</time></trkpt><trkpt lat="36.939622537054575" lon="14.607447972230922"><ele>272.0</ele><time>2026-03-29T08:22:03Z</time></trkpt><trkpt lat="36.939233561075014" lon="14.607281403252095"><ele>272.0</ele><time>2026-03-29T08:22:05Z</time></trkpt><trkpt lat="36.93913318605314" lon="14.60719448371173"><ele>272.0</ele><time>2026-03-29T08:22:06Z</time></trkpt><trkpt lat="36.9388979997783" lon="14.606931306498662"><ele>272.0</ele><time>2026-03-29T08:22:07Z</time></trkpt><trkpt lat="36.938808418993624" lon="14.606913411828291"><ele>272.0</ele><time>2026-03-29T08:22:08Z</time></trkpt><trkpt lat="36.93872709370049" lon="14.60690275989081"><ele>272.0</ele><time>2026-03-29T08:22:09Z</time></trkpt><trkpt lat="36.93866337986176" lon="14.606871696547815"><ele>272.0</ele><time>2026-03-29T08:22:10Z</time></trkpt><trkpt lat="36.93860374171526" lon="14.606539144077226"><ele>272.0</ele><time>2026-03-29T08:22:12Z</time></trkpt><trkpt lat="36.938524218224764" lon="14.60644363264881"><ele>272.0</ele><time>2026-03-29T08:22:13Z</time></trkpt><trkpt lat="36.93844847596985" lon="14.606322616808585"><ele>272.0</ele><time>2026-03-29T08:22:14Z</time></trkpt><trkpt lat="36.938406888980886" lon="14.606199506537429"><ele>272.0</ele><time>2026-03-29T08:22:15Z</time></trkpt><trkpt lat="36.93835637117358" lon="14.606067748507078"><ele>272.0</ele><time>2026-03-29T08:22:16Z</time></trkpt><trkpt lat="36.938312712942476" lon="14.605909767440055"><ele>271.6</ele><time>2026-03-29T08:22:17Z</time></trkpt><trkpt lat="36.93824569225582" lon="14.605802730803726"><ele>271.2</ele><time>2026-03-29T08:22:18Z</time></trkpt><trkpt lat="36.9382022948979" lon="14.605698869833896"><ele>270.8</ele><time>2026-03-29T08:22:19Z</time></trkpt><trkpt lat="36.93816375505333" lon="14.605609186575961"><ele>270.4</ele><time>2026-03-29T08:22:20Z</time></trkpt><trkpt lat="36.93814982266966" lon="14.605526320226328"><ele>270.0</ele><time>2026-03-29T08:22:21Z</time></trkpt><trkpt lat="36.93808672945373" lon="14.605429781810198"><ele>270.0</ele><time>2026-03-29T08:22:23Z</time></trkpt><trkpt lat="36.938016714748116" lon="14.605382991718209"><ele>270.0</ele><time>2026-03-29T08:22:24Z</time></trkpt><trkpt lat="36.93794841935537" lon="14.60533600112051"><ele>270.0</ele><time>2026-03-29T08:22:25Z</time></trkpt><trkpt lat="36.93787053235267" lon="14.605271816695485"><ele>270.0</ele><time>2026-03-29T08:22:26Z</time></trkpt><trkpt lat="36.93779601732767" lon="14.605190323620766"><ele>270.0</ele><time>2026-03-29T08:22:27Z</time></trkpt><trkpt lat="36.937740609477466" lon="14.60512721101648"><ele>270.0</ele><time>2026-03-29T08:22:28Z</time></trkpt><trkpt lat="36.93767463319148" lon="14.605067940772972"><ele>269.1666666666667</ele><time>2026-03-29T08:22:29Z</time></trkpt><trkpt lat="36.93759386026045" lon="14.605023098732511"><ele>268.3333333333333</ele><time>2026-03-29T08:22:30Z</time></trkpt><trkpt lat="36.937528753805104" lon="14.604983441009715"><ele>267.5</ele><time>2026-03-29T08:22:31Z</time></trkpt><trkpt lat="36.937456351420764" lon="14.604954582327226"><ele>266.66666666666663</ele><time>2026-03-29T08:22:32Z</time></trkpt><trkpt lat="36.93738841601829" lon="14.604910329726318"><ele>265.8333333333333</ele><time>2026-03-29T08:22:33Z</time></trkpt><trkpt lat="36.937327980923364" lon="14.604844515494365"><ele>265.0</ele><time>2026-03-29T08:22:34Z</time></trkpt><trkpt lat="36.93742619637745" lon="14.60461194605158"><ele>267.6</ele><time>2026-03-29T08:22:35Z</time></trkpt><trkpt lat="36.93735438958179" lon="14.604517751387096"><ele>270.2</ele><time>2026-03-29T08:22:40Z</time></trkpt><trkpt lat="36.937335028132296" lon="14.604426668188617"><ele>272.8</ele><time>2026-03-29T08:22:42Z</time></trkpt><trkpt lat="36.93733929778701" lon="14.604254977639009"><ele>275.4</ele><time>2026-03-29T08:22:58Z</time></trkpt><trkpt lat="36.93730616254233" lon="14.604118387210141"><ele>278.0</ele><time>2026-03-29T08:23:00Z</time></trkpt><trkpt lat="36.93727368007075" lon="14.604000612586438"><ele>278.0</ele><time>2026-03-29T08:23:01Z</time></trkpt><trkpt lat="36.937252375436785" lon="14.603914744991867"><ele>278.0</ele><time>2026-03-29T08:23:02Z</time></trkpt><trkpt lat="36.93718347128202" lon="14.603779109762515"><ele>278.0</ele><time>2026-03-29T08:23:03Z</time></trkpt><trkpt lat="36.937087992671046" lon="14.60362409324733"><ele>278.0</ele><time>2026-03-29T08:23:04Z</time></trkpt><trkpt lat="36.93704889052059" lon="14.603487740672252"><ele>276.83333333333337</ele><time>2026-03-29T08:23:05Z</time></trkpt><trkpt lat="36.93699664903784" lon="14.603372480534102"><ele>275.6666666666667</ele><time>2026-03-29T08:23:06Z</time></trkpt><trkpt lat="36.93695916800872" lon="14.603266788039805"><ele>274.5</ele><time>2026-03-29T08:23:07Z</time></trkpt><trkpt lat="36.93692205993815" lon="14.603197961056987"><ele>273.3333333333333</ele><time>2026-03-29T08:23:08Z</time></trkpt><trkpt lat="36.936834762850246" lon="14.603104270918113"><ele>272.16666666666663</ele><time>2026-03-29T08:23:10Z</time></trkpt><trkpt lat="36.93678911017348" lon="14.60304792275349"><ele>271.0</ele><time>2026-03-29T08:23:11Z</time></trkpt><trkpt lat="36.93674057990753" lon="14.60299591964294"><ele>272.16666666666663</ele><time>2026-03-29T08:23:12Z</time></trkpt><trkpt lat="36.93668107954734" lon="14.602930993884959"><ele>273.3333333333333</ele><time>2026-03-29T08:23:13Z</time></trkpt><trkpt lat="36.936629892747675" lon="14.602841842150186"><ele>274.5</ele><time>2026-03-29T08:23:14Z</time></trkpt><trkpt lat="36.93657466307556" lon="14.602771185973408"><ele>275.6666666666667</ele><time>2026-03-29T08:23:15Z</time></trkpt><trkpt lat="36.93650147108357" lon="14.602690552325939"><ele>276.83333333333337</ele><time>2026-03-29T08:23:16Z</time></trkpt><trkpt lat="36.93646361797839" lon="14.60260385734909"><ele>278.0</ele><time>2026-03-29T08:23:17Z</time></trkpt><trkpt lat="36.936393283450975" lon="14.60251969030407"><ele>278.0</ele><time>2026-03-29T08:23:18Z</time></trkpt><trkpt lat="36.93633169107783" lon="14.602439304683804"><ele>278.0</ele><time>2026-03-29T08:23:19Z</time></trkpt><trkpt lat="36.93626836131356" lon="14.602361549749455"><ele>278.0</ele><time>2026-03-29T08:23:20Z</time></trkpt><trkpt lat="36.93618505423328" lon="14.602315394385322"><ele>278.0</ele><time>2026-03-29T08:23:22Z</time></trkpt><trkpt lat="36.93609292337857" lon="14.602271152656876"><ele>278.0</ele><time>2026-03-29T08:23:24Z</time></trkpt><trkpt lat="36.93598394992027" lon="14.602222620923042"><ele>278.0</ele><time>2026-03-29T08:23:26Z</time></trkpt><trkpt lat="36.935923137528874" lon="14.602163079817437"><ele>278.0</ele><time>2026-03-29T08:23:28Z</time></trkpt><trkpt lat="36.9358803150513" lon="14.602085167422148"><ele>278.0</ele><time>2026-03-29T08:23:29Z</time></trkpt><trkpt lat="36.935847855720205" lon="14.601997137236422"><ele>278.0</ele><time>2026-03-29T08:23:30Z</time></trkpt><trkpt lat="36.93580448638937" lon="14.601903103092544"><ele>278.0</ele><time>2026-03-29T08:23:31Z</time></trkpt><trkpt lat="36.935770534737266" lon="14.601814061675585"><ele>278.0</ele><time>2026-03-29T08:23:32Z</time></trkpt><trkpt lat="36.935719473012746" lon="14.601762170925687"><ele>279.2</ele><time>2026-03-29T08:23:33Z</time></trkpt><trkpt lat="36.93561450370796" lon="14.601731940342631"><ele>280.4</ele><time>2026-03-29T08:23:35Z</time></trkpt><trkpt lat="36.935541217633606" lon="14.601621888400459"><ele>281.59999999999997</ele><time>2026-03-29T08:23:38Z</time></trkpt><trkpt lat="36.93553829783572" lon="14.601509110079457"><ele>282.8</ele><time>2026-03-29T08:23:39Z</time></trkpt><trkpt lat="36.93553502521698" lon="14.601372178437868"><ele>284.0</ele><time>2026-03-29T08:23:40Z</time></trkpt><trkpt lat="36.9355303307407" lon="14.601250692475068"><ele>282.4</ele><time>2026-03-29T08:23:41Z</time></trkpt><trkpt lat="36.93552804993224" lon="14.60112355499133"><ele>280.79999999999995</ele><time>2026-03-29T08:23:42Z</time></trkpt><trkpt lat="36.935507953296494" lon="14.601025633548756"><ele>279.20000000000005</ele><time>2026-03-29T08:23:43Z</time></trkpt><trkpt lat="36.93546906835168" lon="14.60094136181211"><ele>277.6</ele><time>2026-03-29T08:23:44Z</time></trkpt><trkpt lat="36.935387382721856" lon="14.600844454554448"><ele>276.0</ele><time>2026-03-29T08:23:46Z</time></trkpt><trkpt lat="36.93534256488031" lon="14.600757730335902"><ele>276.0</ele><time>2026-03-29T08:23:48Z</time></trkpt><trkpt lat="36.93530418626637" lon="14.60084548247325"><ele>276.0</ele><time>2026-03-29T08:23:50Z</time></trkpt><trkpt lat="36.935287411869886" lon="14.601016033938011"><ele>276.0</ele><time>2026-03-29T08:23:52Z</time></trkpt><trkpt lat="36.9352895770052" lon="14.601114040238686"><ele>276.0</ele><time>2026-03-29T08:23:53Z</time></trkpt><trkpt lat="36.93533763214295" lon="14.601200089858835"><ele>276.0</ele><time>2026-03-29T08:23:54Z</time></trkpt><trkpt lat="36.93538499571376" lon="14.601305588750714"><ele>277.14285714285717</ele><time>2026-03-29T08:23:55Z</time></trkpt><trkpt lat="36.93542766379659" lon="14.601397010689771"><ele>278.28571428571433</ele><time>2026-03-29T08:23:56Z</time></trkpt><trkpt lat="36.9354475733794" lon="14.60149036907624"><ele>279.42857142857144</ele><time>2026-03-29T08:23:58Z</time></trkpt><trkpt lat="36.935387141667306" lon="14.601534298026591"><ele>280.57142857142856</ele><time>2026-03-29T08:24:00Z</time></trkpt><trkpt lat="36.93532196163834" lon="14.601488242330886"><ele>281.71428571428567</ele><time>2026-03-29T08:24:01Z</time></trkpt><trkpt lat="36.935276899325835" lon="14.601430578065223"><ele>282.85714285714283</ele><time>2026-03-29T08:24:02Z</time></trkpt><trkpt lat="36.93522977295075" lon="14.601377538678529"><ele>284.0</ele><time>2026-03-29T08:24:03Z</time></trkpt><trkpt lat="36.935170079736174" lon="14.6013297066154"><ele>284.0</ele><time>2026-03-29T08:24:04Z</time></trkpt><trkpt lat="36.935106171913915" lon="14.601343386189466"><ele>284.0</ele><time>2026-03-29T08:24:05Z</time></trkpt><trkpt lat="36.93508068197071" lon="14.601426838776547"><ele>284.0</ele><time>2026-03-29T08:24:06Z</time></trkpt><trkpt lat="36.935083860616366" lon="14.601528458968016"><ele>284.0</ele><time>2026-03-29T08:24:07Z</time></trkpt><trkpt lat="36.93512541998509" lon="14.601666190295429"><ele>284.0</ele><time>2026-03-29T08:24:08Z</time></trkpt><trkpt lat="36.93514504843105" lon="14.601813240589088"><ele>284.0</ele><time>2026-03-29T08:24:09Z</time></trkpt><trkpt lat="36.93514309200117" lon="14.601921605136589"><ele>284.0</ele><time>2026-03-29T08:24:10Z</time></trkpt><trkpt lat="36.93514442579102" lon="14.602028432032196"><ele>284.0</ele><time>2026-03-29T08:24:11Z</time></trkpt><trkpt lat="36.9350952875827" lon="14.602095041277028"><ele>284.0</ele><time>2026-03-29T08:24:12Z</time></trkpt><trkpt lat="36.93505309800656" lon="14.602182820620813"><ele>284.0</ele><time>2026-03-29T08:24:13Z</time></trkpt><trkpt lat="36.935033418245006" lon="14.602275690995008"><ele>284.0</ele><time>2026-03-29T08:24:14Z</time></trkpt><trkpt lat="36.93503214956533" lon="14.602387870089828"><ele>287.59999999999997</ele><time>2026-03-29T08:24:15Z</time></trkpt><trkpt lat="36.93497970446921" lon="14.602486934173504"><ele>291.2</ele><time>2026-03-29T08:24:17Z</time></trkpt><trkpt lat="36.93489994422111" lon="14.602383893729504"><ele>294.79999999999995</ele><time>2026-03-29T08:24:19Z</time></trkpt><trkpt lat="36.93482090184527" lon="14.602264953660995"><ele>298.4</ele><time>2026-03-29T08:24:20Z</time></trkpt><trkpt lat="36.9347474300814" lon="14.60217310637702"><ele>302.0</ele><time>2026-03-29T08:24:21Z</time></trkpt><trkpt lat="36.93465160106616" lon="14.60212124250185"><ele>302.0</ele><time>2026-03-29T08:24:22Z</time></trkpt><trkpt lat="36.93454692116836" lon="14.602108187372686"><ele>302.0</ele><time>2026-03-29T08:24:23Z</time></trkpt><trkpt lat="36.93445538143733" lon="14.602085920475226"><ele>302.0</ele><time>2026-03-29T08:24:24Z</time></trkpt><trkpt lat="36.93436525034912" lon="14.60204382189003"><ele>302.0</ele><time>2026-03-29T08:24:25Z</time></trkpt><trkpt lat="36.934300760605325" lon="14.601999511840347"><ele>302.0</ele><time>2026-03-29T08:24:26Z</time></trkpt><trkpt lat="36.934232864009246" lon="14.601908802101487"><ele>301.2</ele><time>2026-03-29T08:24:28Z</time></trkpt><trkpt lat="36.9342104779452" lon="14.60177481580732"><ele>300.4</ele><time>2026-03-29T08:24:30Z</time></trkpt><trkpt lat="36.934175440073425" lon="14.601680202192012"><ele>299.6</ele><time>2026-03-29T08:24:32Z</time></trkpt><trkpt lat="36.93405779180461" lon="14.601684418016523"><ele>298.8</ele><time>2026-03-29T08:24:37Z</time></trkpt><trkpt lat="36.93397537352925" lon="14.601663651249275"><ele>298.0</ele><time>2026-03-29T08:24:40Z</time></trkpt><trkpt lat="36.933896971330995" lon="14.60167850318605"><ele>298.0</ele><time>2026-03-29T08:24:42Z</time></trkpt><trkpt lat="36.933895892357675" lon="14.601759625166057"><ele>298.0</ele><time>2026-03-29T08:24:45Z</time></trkpt><trkpt lat="36.93397330040961" lon="14.60173009026951"><ele>298.0</ele><time>2026-03-29T08:24:49Z</time></trkpt><trkpt lat="36.934011696261955" lon="14.601814866619568"><ele>298.0</ele><time>2026-03-29T08:24:53Z</time></trkpt><trkpt lat="36.93403907354399" lon="14.601891666045749"><ele>298.0</ele><time>2026-03-29T08:24:56Z</time></trkpt><trkpt lat="36.934115893177115" lon="14.602045080068438"><ele>298.0</ele><time>2026-03-29T08:25:01Z</time></trkpt><trkpt lat="36.934156394817" lon="14.602116661252404"><ele>298.66666666666663</ele><time>2026-03-29T08:25:04Z</time></trkpt><trkpt lat="36.9342277245343" lon="14.602135103029825"><ele>299.3333333333333</ele><time>2026-03-29T08:25:06Z</time></trkpt><trkpt lat="36.934296845293396" lon="14.60217746218414"><ele>300.0</ele><time>2026-03-29T08:25:07Z</time></trkpt><trkpt lat="36.93433659607332" lon="14.602279377904397"><ele>300.6666666666667</ele><time>2026-03-29T08:25:08Z</time></trkpt><trkpt lat="36.93438697659785" lon="14.60233744129519"><ele>301.33333333333337</ele><time>2026-03-29T08:25:09Z</time></trkpt><trkpt lat="36.9344648641019" lon="14.60245475088866"><ele>302.0</ele><time>2026-03-29T08:25:11Z</time></trkpt><trkpt lat="36.93453622927253" lon="14.602500445237808"><ele>302.0</ele><time>2026-03-29T08:25:13Z</time></trkpt><trkpt lat="36.934630632924836" lon="14.602538189180915"><ele>302.0</ele><time>2026-03-29T08:25:15Z</time></trkpt><trkpt lat="36.93475270095527" lon="14.602521373621435"><ele>302.0</ele><time>2026-03-29T08:25:17Z</time></trkpt><trkpt lat="36.93479280018485" lon="14.602677345281002"><ele>302.0</ele><time>2026-03-29T08:25:22Z</time></trkpt><trkpt lat="36.93474306404105" lon="14.602773289859885"><ele>302.0</ele><time>2026-03-29T08:25:24Z</time></trkpt><trkpt lat="36.93468474747119" lon="14.602840188504603"><ele>302.0</ele><time>2026-03-29T08:25:26Z</time></trkpt><trkpt lat="36.93459794725692" lon="14.60283182373117"><ele>302.0</ele><time>2026-03-29T08:25:29Z</time></trkpt><trkpt lat="36.934522581231604" lon="14.602768351343308"><ele>302.0</ele><time>2026-03-29T08:25:32Z</time></trkpt><trkpt lat="36.934441559289056" lon="14.602667165105023"><ele>302.0</ele><time>2026-03-29T08:25:33Z</time></trkpt><trkpt lat="36.9344008024676" lon="14.602605739723062"><ele>302.0</ele><time>2026-03-29T08:25:34Z</time></trkpt><trkpt lat="36.93434806024387" lon="14.60254446699282"><ele>302.0</ele><time>2026-03-29T08:25:36Z</time></trkpt><trkpt lat="36.934275388868436" lon="14.602593359448992"><ele>302.0</ele><time>2026-03-29T08:25:39Z</time></trkpt><trkpt lat="36.934226557306104" lon="14.602648547137424"><ele>302.0</ele><time>2026-03-29T08:25:41Z</time></trkpt><trkpt lat="36.93428975027638" lon="14.602675411323599"><ele>302.0</ele><time>2026-03-29T08:25:46Z</time></trkpt><trkpt lat="36.93435482897888" lon="14.602683391735317"><ele>302.0</ele><time>2026-03-29T08:25:48Z</time></trkpt><trkpt lat="36.9344576588661" lon="14.602734469224975"><ele>302.0</ele><time>2026-03-29T08:25:49Z</time></trkpt><trkpt lat="36.93449267106285" lon="14.602829357300239"><ele>302.0</ele><time>2026-03-29T08:25:53Z</time></trkpt><trkpt lat="36.9345369451989" lon="14.602939457141261"><ele>302.8</ele><time>2026-03-29T08:25:56Z</time></trkpt><trkpt lat="36.93457908961297" lon="14.603114013480724"><ele>303.6</ele><time>2026-03-29T08:25:57Z</time></trkpt><trkpt lat="36.93460017879122" lon="14.603191237567367"><ele>304.40000000000003</ele><time>2026-03-29T08:26:00Z</time></trkpt><trkpt lat="36.934622833156446" lon="14.603273035059681"><ele>305.2</ele><time>2026-03-29T08:26:02Z</time></trkpt><trkpt lat="36.93466542597067" lon="14.603374581351886"><ele>306.0</ele><time>2026-03-29T08:26:05Z</time></trkpt><trkpt lat="36.934730970526" lon="14.603441861850612"><ele>306.0</ele><time>2026-03-29T08:26:07Z</time></trkpt><trkpt lat="36.93477262116069" lon="14.60352520833933"><ele>306.0</ele><time>2026-03-29T08:26:08Z</time></trkpt><trkpt lat="36.934815986480345" lon="14.603593821337826"><ele>306.0</ele><time>2026-03-29T08:26:09Z</time></trkpt><trkpt lat="36.93486683745671" lon="14.60365126918153"><ele>306.0</ele><time>2026-03-29T08:26:11Z</time></trkpt><trkpt lat="36.934921053744795" lon="14.603706429337109"><ele>306.0</ele><time>2026-03-29T08:26:13Z</time></trkpt><trkpt lat="36.93496567433215" lon="14.603768126619437"><ele>306.0</ele><time>2026-03-29T08:26:14Z</time></trkpt><trkpt lat="36.93506045613293" lon="14.60384587836401"><ele>305.6666666666667</ele><time>2026-03-29T08:26:16Z</time></trkpt><trkpt lat="36.935135365784774" lon="14.603881253140008"><ele>305.3333333333333</ele><time>2026-03-29T08:26:18Z</time></trkpt><trkpt lat="36.93522055729766" lon="14.603884450215855"><ele>305.0</ele><time>2026-03-29T08:26:55Z</time></trkpt><trkpt lat="36.935348964783444" lon="14.603916613116619"><ele>304.66666666666663</ele><time>2026-03-29T08:26:57Z</time></trkpt><trkpt lat="36.93542135497333" lon="14.603904974294736"><ele>304.3333333333333</ele><time>2026-03-29T08:26:58Z</time></trkpt><trkpt lat="36.93549361285309" lon="14.603931312480139"><ele>304.0</ele><time>2026-03-29T08:26:59Z</time></trkpt><trkpt lat="36.93556497799074" lon="14.603949995105461"><ele>304.0</ele><time>2026-03-29T08:27:00Z</time></trkpt><trkpt lat="36.9356598355256" lon="14.603999677503019"><ele>304.0</ele><time>2026-03-29T08:27:02Z</time></trkpt><trkpt lat="36.935749032524434" lon="14.604015865260896"><ele>304.0</ele><time>2026-03-29T08:27:04Z</time></trkpt><trkpt lat="36.93581787699841" lon="14.603940119701676"><ele>304.0</ele><time>2026-03-29T08:27:06Z</time></trkpt><trkpt lat="36.93581774555494" lon="14.603831290205486"><ele>304.0</ele><time>2026-03-29T08:27:08Z</time></trkpt><trkpt lat="36.93579688306902" lon="14.603756039470387"><ele>304.0</ele><time>2026-03-29T08:27:11Z</time></trkpt><trkpt lat="36.93585358184975" lon="14.603710512017491"><ele>301.16666666666663</ele><time>2026-03-29T08:27:13Z</time></trkpt><trkpt lat="36.93596192308146" lon="14.603656356467337"><ele>298.3333333333333</ele><time>2026-03-29T08:27:15Z</time></trkpt><trkpt lat="36.93602767196518" lon="14.603596617263227"><ele>295.5</ele><time>2026-03-29T08:27:16Z</time></trkpt><trkpt lat="36.9360879890757" lon="14.603566271363343"><ele>292.6666666666667</ele><time>2026-03-29T08:27:17Z</time></trkpt><trkpt lat="36.936148288325946" lon="14.603540319650959"><ele>289.83333333333337</ele><time>2026-03-29T08:27:18Z</time></trkpt><trkpt lat="36.93621865190754" lon="14.603460379813605"><ele>287.0</ele><time>2026-03-29T08:27:20Z</time></trkpt><trkpt lat="36.93621248277845" lon="14.603337354128575"><ele>287.0</ele><time>2026-03-29T08:27:22Z</time></trkpt><trkpt lat="36.936211163094455" lon="14.603235225773634"><ele>287.0</ele><time>2026-03-29T08:27:24Z</time></trkpt><trkpt lat="36.93626734685616" lon="14.603137641660949"><ele>287.0</ele><time>2026-03-29T08:27:26Z</time></trkpt><trkpt lat="36.93634869693281" lon="14.603083482573227"><ele>287.0</ele><time>2026-03-29T08:27:28Z</time></trkpt><trkpt lat="36.93643805742305" lon="14.603140729659799"><ele>287.0</ele><time>2026-03-29T08:27:30Z</time></trkpt><trkpt lat="36.93647582409871" lon="14.603053694431901"><ele>287.0</ele><time>2026-03-29T08:27:34Z</time></trkpt><trkpt lat="36.93653630390854" lon="14.602951209046418"><ele>287.0</ele><time>2026-03-29T08:27:36Z</time></trkpt><trkpt lat="36.93660540170056" lon="14.602902790132598"><ele>287.0</ele><time>2026-03-29T08:27:38Z</time></trkpt><trkpt lat="36.93652327423697" lon="14.602744227522175"><ele>287.0</ele><time>2026-03-29T08:30:27Z</time></trkpt><trkpt lat="36.93647798239064" lon="14.602660327952817"><ele>287.0</ele><time>2026-03-29T08:30:28Z</time></trkpt><trkpt lat="36.93641860886766" lon="14.602572836151232"><ele>287.0</ele><time>2026-03-29T08:30:29Z</time></trkpt><trkpt lat="36.936371953348434" lon="14.60250371446212"><ele>285.2</ele><time>2026-03-29T08:30:30Z</time></trkpt><trkpt lat="36.93630562676023" lon="14.602411132013053"><ele>283.4</ele><time>2026-03-29T08:30:32Z</time></trkpt><trkpt lat="36.93624088332362" lon="14.60233857677481"><ele>281.6</ele><time>2026-03-29T08:30:35Z</time></trkpt><trkpt lat="36.93631485158952" lon="14.602401226441538"><ele>279.8</ele><time>2026-03-29T08:33:05Z</time></trkpt><trkpt lat="36.93638813804399" lon="14.602511363063059"><ele>278.0</ele><time>2026-03-29T08:33:07Z</time></trkpt><trkpt lat="36.936438954686814" lon="14.602592644792844"><ele>278.0</ele><time>2026-03-29T08:33:10Z</time></trkpt><trkpt lat="36.936482036758086" lon="14.602667727106377"><ele>278.0</ele><time>2026-03-29T08:33:13Z</time></trkpt><trkpt lat="36.93654084836876" lon="14.602736823098327"><ele>278.0</ele><time>2026-03-29T08:33:16Z</time></trkpt><trkpt lat="36.936612295512816" lon="14.602821404159936"><ele>278.0</ele><time>2026-03-29T08:33:35Z</time></trkpt><trkpt lat="36.936589451509924" lon="14.602898362599472"><ele>278.0</ele><time>2026-03-29T08:36:49Z</time></trkpt><trkpt lat="36.93651842171906" lon="14.602967440097533"><ele>278.0</ele><time>2026-03-29T08:36:51Z</time></trkpt><trkpt lat="36.936448448153534" lon="14.603057520936613"><ele>279.5</ele><time>2026-03-29T08:36:53Z</time></trkpt><trkpt lat="36.93642311365672" lon="14.603142594335681"><ele>281.0</ele><time>2026-03-29T08:36:55Z</time></trkpt><trkpt lat="36.93633319685191" lon="14.603118449117652"><ele>282.5</ele><time>2026-03-29T08:36:58Z</time></trkpt><trkpt lat="36.936261027386976" lon="14.60313186766438"><ele>284.0</ele><time>2026-03-29T08:37:00Z</time></trkpt><trkpt lat="36.936197215122846" lon="14.603206858391026"><ele>285.5</ele><time>2026-03-29T08:37:02Z</time></trkpt><trkpt lat="36.93618107694373" lon="14.603320213235314"><ele>287.0</ele><time>2026-03-29T08:37:04Z</time></trkpt><trkpt lat="36.93619142968537" lon="14.60344404859469"><ele>287.0</ele><time>2026-03-29T08:37:06Z</time></trkpt><trkpt lat="36.936161618662744" lon="14.603563097603109"><ele>287.0</ele><time>2026-03-29T08:37:08Z</time></trkpt><trkpt lat="36.93605402368102" lon="14.603613991428553"><ele>287.0</ele><time>2026-03-29T08:37:10Z</time></trkpt><trkpt lat="36.93598691731455" lon="14.60367026779971"><ele>287.0</ele><time>2026-03-29T08:37:11Z</time></trkpt><trkpt lat="36.93590395136285" lon="14.60372636348132"><ele>287.0</ele><time>2026-03-29T08:37:12Z</time></trkpt><trkpt lat="36.9357997244366" lon="14.603755692351692"><ele>289.83333333333337</ele><time>2026-03-29T08:37:14Z</time></trkpt><trkpt lat="36.93570438193578" lon="14.603819386807874"><ele>292.6666666666667</ele><time>2026-03-29T08:37:16Z</time></trkpt><trkpt lat="36.93564357130006" lon="14.603853890365436"><ele>295.5</ele><time>2026-03-29T08:37:17Z</time></trkpt><trkpt lat="36.93557832504265" lon="14.603890945787066"><ele>298.3333333333333</ele><time>2026-03-29T08:37:18Z</time></trkpt><trkpt lat="36.935512186939405" lon="14.60392602865196"><ele>301.16666666666663</ele><time>2026-03-29T08:37:19Z</time></trkpt><trkpt lat="36.93542912650428" lon="14.603942617278344"><ele>304.0</ele><time>2026-03-29T08:37:20Z</time></trkpt><trkpt lat="36.93534801629842" lon="14.603926059134416"><ele>304.0</ele><time>2026-03-29T08:37:21Z</time></trkpt><trkpt lat="36.93523953915571" lon="14.603907481798108"><ele>304.0</ele><time>2026-03-29T08:37:22Z</time></trkpt><trkpt lat="36.93515658510533" lon="14.603875485092097"><ele>304.0</ele><time>2026-03-29T08:37:23Z</time></trkpt><trkpt lat="36.93509776922464" lon="14.603828241988525"><ele>304.0</ele><time>2026-03-29T08:37:24Z</time></trkpt><trkpt lat="36.935028516591785" lon="14.603734443819404"><ele>304.0</ele><time>2026-03-29T08:37:25Z</time></trkpt><trkpt lat="36.93495453117208" lon="14.603590264127533"><ele>304.3333333333333</ele><time>2026-03-29T08:37:26Z</time></trkpt><trkpt lat="36.934897143576364" lon="14.603474319448084"><ele>304.66666666666663</ele><time>2026-03-29T08:37:27Z</time></trkpt><trkpt lat="36.93486725693081" lon="14.603391882706061"><ele>305.0</ele><time>2026-03-29T08:37:28Z</time></trkpt><trkpt lat="36.93483649179989" lon="14.603309253365083"><ele>305.3333333333333</ele><time>2026-03-29T08:37:31Z</time></trkpt><trkpt lat="36.93477282969521" lon="14.603319961114964"><ele>305.6666666666667</ele><time>2026-03-29T08:37:59Z</time></trkpt><trkpt lat="36.934837090005416" lon="14.603378352084608"><ele>306.0</ele><time>2026-03-29T08:38:02Z</time></trkpt><trkpt lat="36.934926659157036" lon="14.603449008823906"><ele>306.0</ele><time>2026-03-29T08:38:04Z</time></trkpt><trkpt lat="36.934972542048015" lon="14.603550172857497"><ele>306.0</ele><time>2026-03-29T08:38:05Z</time></trkpt><trkpt lat="36.93501227548257" lon="14.603630245941044"><ele>306.0</ele><time>2026-03-29T08:38:06Z</time></trkpt><trkpt lat="36.93507107297997" lon="14.6036753465132"><ele>306.0</ele><time>2026-03-29T08:38:07Z</time></trkpt><trkpt lat="36.93512799735035" lon="14.603724156912541"><ele>306.0</ele><time>2026-03-29T08:38:08Z</time></trkpt><trkpt lat="36.935172732297445" lon="14.603785316939799"><ele>306.0</ele><time>2026-03-29T08:38:09Z</time></trkpt><trkpt lat="36.93522361285951" lon="14.60388018581179"><ele>305.5</ele><time>2026-03-29T08:38:11Z</time></trkpt><trkpt lat="36.935287850368624" lon="14.603941279318427"><ele>305.0</ele><time>2026-03-29T08:38:13Z</time></trkpt><trkpt lat="36.93534883003194" lon="14.603918093702179"><ele>304.5</ele><time>2026-03-29T08:38:14Z</time></trkpt><trkpt lat="36.93546886661591" lon="14.603908852088473"><ele>304.0</ele><time>2026-03-29T08:38:16Z</time></trkpt><trkpt lat="36.935576950334905" lon="14.603716876009189"><ele>304.0</ele><time>2026-03-29T08:38:18Z</time></trkpt><trkpt lat="36.93566884041786" lon="14.603688756534334"><ele>304.0</ele><time>2026-03-29T08:38:20Z</time></trkpt><trkpt lat="36.93572929530536" lon="14.603665522169287"><ele>304.0</ele><time>2026-03-29T08:38:21Z</time></trkpt><trkpt lat="36.93579517480262" lon="14.603640203812752"><ele>304.0</ele><time>2026-03-29T08:38:23Z</time></trkpt><trkpt lat="36.93588178712698" lon="14.603606917492781"><ele>304.0</ele><time>2026-03-29T08:38:26Z</time></trkpt><trkpt lat="36.93596632669722" lon="14.603574427805214"><ele>304.0</ele><time>2026-03-29T08:38:28Z</time></trkpt><trkpt lat="36.93604956737512" lon="14.603607946005507"><ele>301.16666666666663</ele><time>2026-03-29T08:38:29Z</time></trkpt><trkpt lat="36.93611012281375" lon="14.60357391401711"><ele>298.3333333333333</ele><time>2026-03-29T08:38:30Z</time></trkpt><trkpt lat="36.93621334592234" lon="14.603512830221248"><ele>295.5</ele><time>2026-03-29T08:38:32Z</time></trkpt><trkpt lat="36.93618531357217" lon="14.603403116573688"><ele>292.6666666666667</ele><time>2026-03-29T08:38:35Z</time></trkpt><trkpt lat="36.936200104815995" lon="14.603315538949875"><ele>289.83333333333337</ele><time>2026-03-29T08:38:37Z</time></trkpt><trkpt lat="36.93625803311718" lon="14.60325085136458"><ele>287.0</ele><time>2026-03-29T08:38:39Z</time></trkpt><trkpt lat="36.9363447823694" lon="14.603213038097584"><ele>287.0</ele><time>2026-03-29T08:38:41Z</time></trkpt><trkpt lat="36.936405339044526" lon="14.603174054779169"><ele>287.0</ele><time>2026-03-29T08:38:44Z</time></trkpt><trkpt lat="36.936426688797035" lon="14.603087805044435"><ele>287.0</ele><time>2026-03-29T08:38:47Z</time></trkpt><trkpt lat="36.93648389957286" lon="14.603022018957033"><ele>287.0</ele><time>2026-03-29T08:38:50Z</time></trkpt><trkpt lat="36.93654292983724" lon="14.602978615613313"><ele>287.0</ele><time>2026-03-29T08:38:51Z</time></trkpt><trkpt lat="36.93660586344159" lon="14.602974902326018"><ele>287.0</ele><time>2026-03-29T08:38:52Z</time></trkpt><trkpt lat="36.93667185118082" lon="14.6029934001563"><ele>287.0</ele><time>2026-03-29T08:38:53Z</time></trkpt><trkpt lat="36.9367601807114" lon="14.603104571005877"><ele>283.0</ele><time>2026-03-29T08:38:55Z</time></trkpt><trkpt lat="36.936815211455325" lon="14.603165176248769"><ele>279.0</ele><time>2026-03-29T08:38:58Z</time></trkpt><trkpt lat="36.936889627283506" lon="14.60324105879241"><ele>275.0</ele><time>2026-03-29T08:39:01Z</time></trkpt><trkpt lat="36.936985324612095" lon="14.603445025502356"><ele>271.0</ele><time>2026-03-29T08:39:03Z</time></trkpt><trkpt lat="36.93708903168271" lon="14.603619916270288"><ele>272.75</ele><time>2026-03-29T08:39:04Z</time></trkpt><trkpt lat="36.93716708730649" lon="14.603808422656998"><ele>274.5</ele><time>2026-03-29T08:39:05Z</time></trkpt><trkpt lat="36.93722083912228" lon="14.603970743840957"><ele>276.25</ele><time>2026-03-29T08:39:06Z</time></trkpt><trkpt lat="36.93726612765066" lon="14.604108705730287"><ele>278.0</ele><time>2026-03-29T08:39:07Z</time></trkpt><trkpt lat="36.93730521445398" lon="14.604200942426509"><ele>278.0</ele><time>2026-03-29T08:39:08Z</time></trkpt><trkpt lat="36.9373309471881" lon="14.604286946288834"><ele>278.0</ele><time>2026-03-29T08:39:09Z</time></trkpt><trkpt lat="36.93726665594496" lon="14.604458177038618"><ele>278.0</ele><time>2026-03-29T08:39:10Z</time></trkpt><trkpt lat="36.93735543736763" lon="14.604514729033422"><ele>278.0</ele><time>2026-03-29T08:39:15Z</time></trkpt><trkpt lat="36.93736301089423" lon="14.6045967482047"><ele>278.0</ele><time>2026-03-29T08:39:17Z</time></trkpt><trkpt lat="36.937355227346444" lon="14.604708595934305"><ele>278.6666666666667</ele><time>2026-03-29T08:39:19Z</time></trkpt><trkpt lat="36.937339111614" lon="14.604837089570173"><ele>279.33333333333337</ele><time>2026-03-29T08:39:21Z</time></trkpt><trkpt lat="36.93737566201079" lon="14.60490349430082"><ele>280.0</ele><time>2026-03-29T08:39:23Z</time></trkpt><trkpt lat="36.93743798856713" lon="14.604951300351821"><ele>280.6666666666667</ele><time>2026-03-29T08:39:25Z</time></trkpt><trkpt lat="36.93750703172531" lon="14.604988640957206"><ele>281.3333333333333</ele><time>2026-03-29T08:39:27Z</time></trkpt><trkpt lat="36.93758231109879" lon="14.60500641903944"><ele>282.0</ele><time>2026-03-29T08:39:29Z</time></trkpt><trkpt lat="36.93766052866431" lon="14.605054310855092"><ele>280.0</ele><time>2026-03-29T08:39:32Z</time></trkpt><trkpt lat="36.93771593746623" lon="14.60511069768513"><ele>278.0</ele><time>2026-03-29T08:39:35Z</time></trkpt><trkpt lat="36.93777482328205" lon="14.605171866366716"><ele>276.0</ele><time>2026-03-29T08:40:09Z</time></trkpt><trkpt lat="36.93782926851484" lon="14.60525281398514"><ele>274.0</ele><time>2026-03-29T08:40:11Z</time></trkpt><trkpt lat="36.93785531653073" lon="14.605331423661244"><ele>272.0</ele><time>2026-03-29T08:40:13Z</time></trkpt><trkpt lat="36.93782165744806" lon="14.605229670014937"><ele>270.0</ele><time>2026-03-29T08:40:20Z</time></trkpt><trkpt lat="36.93776748258983" lon="14.60516862211573"><ele>269.0</ele><time>2026-03-29T08:40:23Z</time></trkpt><trkpt lat="36.93771405067759" lon="14.605113702805246"><ele>268.0</ele><time>2026-03-29T08:40:27Z</time></trkpt><trkpt lat="36.93762359987548" lon="14.6050866480808"><ele>267.0</ele><time>2026-03-29T08:41:27Z</time></trkpt><trkpt lat="36.93752741586645" lon="14.605032973483462"><ele>266.0</ele><time>2026-03-29T08:41:29Z</time></trkpt><trkpt lat="36.93744178245959" lon="14.604958027389143"><ele>265.0</ele><time>2026-03-29T08:41:31Z</time></trkpt><trkpt lat="36.93736236362958" lon="14.604897051344105"><ele>267.16666666666663</ele><time>2026-03-29T08:41:33Z</time></trkpt><trkpt lat="36.937318999701425" lon="14.604814721137682"><ele>269.3333333333333</ele><time>2026-03-29T08:41:35Z</time></trkpt><trkpt lat="36.93734606577387" lon="14.604742171741355"><ele>271.5</ele><time>2026-03-29T08:41:38Z</time></trkpt><trkpt lat="36.937360564607395" lon="14.604621391986631"><ele>273.6666666666667</ele><time>2026-03-29T08:41:48Z</time></trkpt><trkpt lat="36.93734629427603" lon="14.604517179117227"><ele>275.83333333333337</ele><time>2026-03-29T08:41:50Z</time></trkpt><trkpt lat="36.93733471095021" lon="14.604433276678021"><ele>278.0</ele><time>2026-03-29T08:41:51Z</time></trkpt><trkpt lat="36.93733582118907" lon="14.604329910541395"><ele>278.0</ele><time>2026-03-29T08:41:52Z</time></trkpt><trkpt lat="36.93733089735391" lon="14.604250338000215"><ele>278.0</ele><time>2026-03-29T08:41:53Z</time></trkpt><trkpt lat="36.937317203166636" lon="14.604154310244875"><ele>278.0</ele><time>2026-03-29T08:41:54Z</time></trkpt><trkpt lat="36.937288109941875" lon="14.604062505540252"><ele>278.0</ele><time>2026-03-29T08:41:55Z</time></trkpt><trkpt lat="36.93724418155162" lon="14.603956361807764"><ele>278.0</ele><time>2026-03-29T08:41:56Z</time></trkpt><trkpt lat="36.93719232898932" lon="14.603805346233976"><ele>278.0</ele><time>2026-03-29T08:41:57Z</time></trkpt><trkpt lat="36.93710314834755" lon="14.603624613205866"><ele>276.6</ele><time>2026-03-29T08:41:58Z</time></trkpt><trkpt lat="36.937032931725426" lon="14.603461451605856"><ele>275.20000000000005</ele><time>2026-03-29T08:41:59Z</time></trkpt><trkpt lat="36.93698228763361" lon="14.603353624695442"><ele>273.8</ele><time>2026-03-29T08:42:00Z</time></trkpt><trkpt lat="36.936947061966336" lon="14.603272591834225"><ele>272.40000000000003</ele><time>2026-03-29T08:42:01Z</time></trkpt><trkpt lat="36.93690728507177" lon="14.60319918954892"><ele>271.0</ele><time>2026-03-29T08:42:02Z</time></trkpt><trkpt lat="36.936821283315105" lon="14.603111834135285"><ele>274.2</ele><time>2026-03-29T08:42:04Z</time></trkpt><trkpt lat="36.936713018791195" lon="14.60299325852266"><ele>277.40000000000003</ele><time>2026-03-29T08:42:06Z</time></trkpt><trkpt lat="36.936668948378994" lon="14.602913672420817"><ele>280.6</ele><time>2026-03-29T08:42:08Z</time></trkpt><trkpt lat="36.93659263877024" lon="14.602909072898285"><ele>283.8</ele><time>2026-03-29T08:42:10Z</time></trkpt><trkpt lat="36.9365586174353" lon="14.60299826150726"><ele>287.0</ele><time>2026-03-29T08:42:13Z</time></trkpt><trkpt lat="36.93650882314567" lon="14.603071419832466"><ele>287.0</ele><time>2026-03-29T08:42:17Z</time></trkpt><trkpt lat="36.93644728226626" lon="14.603107139546275"><ele>287.0</ele><time>2026-03-29T08:42:19Z</time></trkpt><trkpt lat="36.93635260807881" lon="14.603200262716863"><ele>287.0</ele><time>2026-03-29T08:42:22Z</time></trkpt><trkpt lat="36.93629098107461" lon="14.60325397923736"><ele>287.0</ele><time>2026-03-29T08:42:23Z</time></trkpt><trkpt lat="36.93623839054098" lon="14.60331871814664"><ele>287.0</ele><time>2026-03-29T08:42:24Z</time></trkpt><trkpt lat="36.936237168157085" lon="14.603403071062068"><ele>287.0</ele><time>2026-03-29T08:42:25Z</time></trkpt><trkpt lat="36.93619929335365" lon="14.603560082175557"><ele>287.0</ele><time>2026-03-29T08:42:27Z</time></trkpt><trkpt lat="36.93609069751127" lon="14.603625649882712"><ele>287.0</ele><time>2026-03-29T08:42:29Z</time></trkpt><trkpt lat="36.935973308156996" lon="14.6036534984398"><ele>287.0</ele><time>2026-03-29T08:42:33Z</time></trkpt><trkpt lat="36.935903557689834" lon="14.603705619628231"><ele>287.0</ele><time>2026-03-29T08:42:35Z</time></trkpt><trkpt lat="36.93582053179624" lon="14.603784691208352"><ele>287.0</ele><time>2026-03-29T08:42:37Z</time></trkpt><trkpt lat="36.93574581621029" lon="14.60386572504812"><ele>290.0</ele><time>2026-03-29T08:42:40Z</time></trkpt><trkpt lat="36.93564623328956" lon="14.603856059716273"><ele>293.0</ele><time>2026-03-29T08:42:43Z</time></trkpt><trkpt lat="36.93551719143114" lon="14.603755293055414"><ele>296.0</ele><time>2026-03-29T08:42:45Z</time></trkpt><trkpt lat="36.935418086050156" lon="14.603564038587992"><ele>299.0</ele><time>2026-03-29T08:42:47Z</time></trkpt><trkpt lat="36.93530932864003" lon="14.603439164452817"><ele>299.0</ele><time>2026-03-29T08:42:48Z</time></trkpt><trkpt lat="36.935217816471074" lon="14.603403708155824"><ele>299.0</ele><time>2026-03-29T08:42:49Z</time></trkpt><trkpt lat="36.93511821189596" lon="14.603448832646116"><ele>299.0</ele><time>2026-03-29T08:42:50Z</time></trkpt><trkpt lat="36.934996865832744" lon="14.603518194332139"><ele>299.0</ele><time>2026-03-29T08:42:51Z</time></trkpt><trkpt lat="36.93491746187994" lon="14.603599380087829"><ele>299.0</ele><time>2026-03-29T08:42:52Z</time></trkpt><trkpt lat="36.93473902569257" lon="14.603597076238678"><ele>300.75</ele><time>2026-03-29T08:42:53Z</time></trkpt><trkpt lat="36.9346227416464" lon="14.603608903089972"><ele>302.5</ele><time>2026-03-29T08:42:54Z</time></trkpt><trkpt lat="36.93449587880884" lon="14.603602715004282"><ele>304.25</ele><time>2026-03-29T08:42:55Z</time></trkpt><trkpt lat="36.934412874922465" lon="14.603527678464374"><ele>306.0</ele><time>2026-03-29T08:42:56Z</time></trkpt><trkpt lat="36.93432834319226" lon="14.603432694085413"><ele>306.0</ele><time>2026-03-29T08:42:57Z</time></trkpt><trkpt lat="36.93425496031392" lon="14.603306847415906"><ele>306.0</ele><time>2026-03-29T08:42:58Z</time></trkpt><trkpt lat="36.93416800752909" lon="14.603120080593403"><ele>306.0</ele><time>2026-03-29T08:42:59Z</time></trkpt><trkpt lat="36.93408773743367" lon="14.602995994615426"><ele>306.0</ele><time>2026-03-29T08:43:00Z</time></trkpt><trkpt lat="36.934026564335504" lon="14.60289450039848"><ele>306.0</ele><time>2026-03-29T08:43:01Z</time></trkpt><trkpt lat="36.93397487017003" lon="14.602794172342076"><ele>306.0</ele><time>2026-03-29T08:43:02Z</time></trkpt><trkpt lat="36.93391038801744" lon="14.602696427416424"><ele>306.0</ele><time>2026-03-29T08:43:03Z</time></trkpt><trkpt lat="36.933834500777294" lon="14.602606825836189"><ele>306.0</ele><time>2026-03-29T08:43:04Z</time></trkpt><trkpt lat="36.93376975573235" lon="14.602539839901333"><ele>306.0</ele><time>2026-03-29T08:43:05Z</time></trkpt><trkpt lat="36.93371063264156" lon="14.602471030309214"><ele>306.0</ele><time>2026-03-29T08:43:06Z</time></trkpt><trkpt lat="36.933629636116805" lon="14.602353832617098"><ele>306.0</ele><time>2026-03-29T08:43:08Z</time></trkpt><trkpt lat="36.93357577084683" lon="14.602299109487372"><ele>306.0</ele><time>2026-03-29T08:43:10Z</time></trkpt><trkpt lat="36.93349625678106" lon="14.60228166417676"><ele>306.0</ele><time>2026-03-29T08:43:27Z</time></trkpt><trkpt lat="36.93342075677789" lon="14.60230027290563"><ele>306.0</ele><time>2026-03-29T08:43:29Z</time></trkpt><trkpt lat="36.93335997566966" lon="14.602322099535698"><ele>306.0</ele><time>2026-03-29T08:43:31Z</time></trkpt><trkpt lat="36.93327613101637" lon="14.60227719997431"><ele>305.8333333333333</ele><time>2026-03-29T08:43:33Z</time></trkpt><trkpt lat="36.93323230459225" lon="14.602210361098761"><ele>305.6666666666667</ele><time>2026-03-29T08:43:34Z</time></trkpt><trkpt lat="36.93320938397323" lon="14.602110591260626"><ele>305.5</ele><time>2026-03-29T08:43:36Z</time></trkpt><trkpt lat="36.933258868040646" lon="14.60204705969149"><ele>305.33333333333337</ele><time>2026-03-29T08:43:38Z</time></trkpt><trkpt lat="36.933325022300075" lon="14.601956589942317"><ele>305.1666666666667</ele><time>2026-03-29T08:43:40Z</time></trkpt><trkpt lat="36.933315090007994" lon="14.601836800110297"><ele>305.0</ele><time>2026-03-29T08:43:42Z</time></trkpt><trkpt lat="36.93328339563852" lon="14.601759486004303"><ele>305.0</ele><time>2026-03-29T08:43:43Z</time></trkpt><trkpt lat="36.93322625523406" lon="14.601671163107346"><ele>305.0</ele><time>2026-03-29T08:43:44Z</time></trkpt><trkpt lat="36.93315578556457" lon="14.601577984655329"><ele>305.0</ele><time>2026-03-29T08:43:45Z</time></trkpt><trkpt lat="36.933088680401" lon="14.601485568756097"><ele>305.0</ele><time>2026-03-29T08:43:46Z</time></trkpt><trkpt lat="36.93302693592843" lon="14.601396701389893"><ele>305.0</ele><time>2026-03-29T08:43:47Z</time></trkpt><trkpt lat="36.9329705564987" lon="14.60132302341902"><ele>305.0</ele><time>2026-03-29T08:43:48Z</time></trkpt><trkpt lat="36.93292139439217" lon="14.601245388283436"><ele>305.0</ele><time>2026-03-29T08:43:49Z</time></trkpt><trkpt lat="36.93287959558653" lon="14.601175339723252"><ele>305.0</ele><time>2026-03-29T08:43:50Z</time></trkpt><trkpt lat="36.93283197068466" lon="14.601115129141355"><ele>305.0</ele><time>2026-03-29T08:43:51Z</time></trkpt><trkpt lat="36.9327688266128" lon="14.60106121579238"><ele>305.0</ele><time>2026-03-29T08:43:52Z</time></trkpt><trkpt lat="36.93269025096989" lon="14.601007044703064"><ele>305.0</ele><time>2026-03-29T08:43:53Z</time></trkpt><trkpt lat="36.93261012670954" lon="14.600959121974258"><ele>304.6</ele><time>2026-03-29T08:43:54Z</time></trkpt><trkpt lat="36.93252216909151" lon="14.600893545560295"><ele>304.2</ele><time>2026-03-29T08:43:55Z</time></trkpt><trkpt lat="36.93245278385392" lon="14.600832464928304"><ele>303.8</ele><time>2026-03-29T08:43:56Z</time></trkpt><trkpt lat="36.93236999751428" lon="14.600771053045994"><ele>303.4</ele><time>2026-03-29T08:43:57Z</time></trkpt><trkpt lat="36.9322881560986" lon="14.600712307526578"><ele>303.0</ele><time>2026-03-29T08:43:58Z</time></trkpt><trkpt lat="36.93221021762168" lon="14.600654819027271"><ele>303.0</ele><time>2026-03-29T08:43:59Z</time></trkpt><trkpt lat="36.9321330663314" lon="14.60059363810471"><ele>303.0</ele><time>2026-03-29T08:44:00Z</time></trkpt><trkpt lat="36.932063586833515" lon="14.60053334084309"><ele>303.0</ele><time>2026-03-29T08:44:01Z</time></trkpt><trkpt lat="36.93198983451535" lon="14.600461284124187"><ele>303.0</ele><time>2026-03-29T08:44:02Z</time></trkpt><trkpt lat="36.93191698404232" lon="14.600396960060868"><ele>303.0</ele><time>2026-03-29T08:44:03Z</time></trkpt><trkpt lat="36.931844680907204" lon="14.600342324431649"><ele>303.0</ele><time>2026-03-29T08:44:04Z</time></trkpt><trkpt lat="36.93177398633024" lon="14.600294533422396"><ele>301.3333333333333</ele><time>2026-03-29T08:44:05Z</time></trkpt><trkpt lat="36.93170520646317" lon="14.600252188106841"><ele>299.6666666666667</ele><time>2026-03-29T08:44:06Z</time></trkpt><trkpt lat="36.931630294260785" lon="14.600198138273532"><ele>298.0</ele><time>2026-03-29T08:44:07Z</time></trkpt><trkpt lat="36.931551885213935" lon="14.600133596626556"><ele>296.33333333333337</ele><time>2026-03-29T08:44:08Z</time></trkpt><trkpt lat="36.93147766857506" lon="14.600078581194841"><ele>294.6666666666667</ele><time>2026-03-29T08:44:09Z</time></trkpt><trkpt lat="36.93140607840299" lon="14.600012565710337"><ele>293.0</ele><time>2026-03-29T08:44:10Z</time></trkpt><trkpt lat="36.93132734859612" lon="14.599946604677191"><ele>293.0</ele><time>2026-03-29T08:44:11Z</time></trkpt><trkpt lat="36.93125260949243" lon="14.599869156621105"><ele>293.0</ele><time>2026-03-29T08:44:12Z</time></trkpt><trkpt lat="36.931172599813" lon="14.59981472343545"><ele>293.0</ele><time>2026-03-29T08:44:13Z</time></trkpt><trkpt lat="36.93109380869482" lon="14.599761366399049"><ele>293.0</ele><time>2026-03-29T08:44:14Z</time></trkpt><trkpt lat="36.931008660915566" lon="14.599694007105589"><ele>293.0</ele><time>2026-03-29T08:44:15Z</time></trkpt><trkpt lat="36.93091654944814" lon="14.599607818419862"><ele>292.6</ele><time>2026-03-29T08:44:16Z</time></trkpt><trkpt lat="36.93083387778545" lon="14.599537519199792"><ele>292.20000000000005</ele><time>2026-03-29T08:44:17Z</time></trkpt><trkpt lat="36.930741455040085" lon="14.599459373788775"><ele>291.8</ele><time>2026-03-29T08:44:18Z</time></trkpt><trkpt lat="36.930661915826235" lon="14.59939552150707"><ele>291.40000000000003</ele><time>2026-03-29T08:44:19Z</time></trkpt><trkpt lat="36.9305848038359" lon="14.599344524320994"><ele>291.0</ele><time>2026-03-29T08:44:20Z</time></trkpt><trkpt lat="36.930519350055256" lon="14.599293446298129"><ele>291.0</ele><time>2026-03-29T08:44:21Z</time></trkpt><trkpt lat="36.93045064572063" lon="14.59921103826088"><ele>291.0</ele><time>2026-03-29T08:44:22Z</time></trkpt><trkpt lat="36.93038818057505" lon="14.599160863868727"><ele>291.0</ele><time>2026-03-29T08:44:24Z</time></trkpt><trkpt lat="36.930305919602695" lon="14.599117704604181"><ele>291.0</ele><time>2026-03-29T08:44:27Z</time></trkpt><trkpt lat="36.93023671240255" lon="14.599178660112033"><ele>291.0</ele><time>2026-03-29T08:44:29Z</time></trkpt><trkpt lat="36.93020468432547" lon="14.599276092134808"><ele>291.0</ele><time>2026-03-29T08:44:31Z</time></trkpt><trkpt lat="36.93016090221103" lon="14.59934643225526"><ele>291.0</ele><time>2026-03-29T08:44:33Z</time></trkpt><trkpt lat="36.930077297421136" lon="14.59938788965153"><ele>291.0</ele><time>2026-03-29T08:44:35Z</time></trkpt><trkpt lat="36.93000606090778" lon="14.599450208302963"><ele>291.0</ele><time>2026-03-29T08:44:37Z</time></trkpt><trkpt lat="36.92993540365053" lon="14.59956090191922"><ele>291.0</ele><time>2026-03-29T08:44:39Z</time></trkpt><trkpt lat="36.92988606424841" lon="14.599645209897288"><ele>291.0</ele><time>2026-03-29T08:44:40Z</time></trkpt><trkpt lat="36.929827961428984" lon="14.59977923130151"><ele>295.2</ele><time>2026-03-29T08:44:42Z</time></trkpt><trkpt lat="36.92980086118403" lon="14.599914623835918"><ele>299.40000000000003</ele><time>2026-03-29T08:44:44Z</time></trkpt><trkpt lat="36.92971896436608" lon="14.599920988109638"><ele>303.6</ele><time>2026-03-29T08:44:48Z</time></trkpt><trkpt lat="36.929666658317814" lon="14.600028853783916"><ele>307.8</ele><time>2026-03-29T08:44:52Z</time></trkpt><trkpt lat="36.929583305099314" lon="14.600070966201534"><ele>312.0</ele><time>2026-03-29T08:44:56Z</time></trkpt><trkpt lat="36.92942283794688" lon="14.599982518630878"><ele>312.0</ele><time>2026-03-29T08:44:58Z</time></trkpt><trkpt lat="36.92935285597057" lon="14.599945674100404"><ele>312.0</ele><time>2026-03-29T08:44:59Z</time></trkpt><trkpt lat="36.929282865533736" lon="14.59992179841627"><ele>312.0</ele><time>2026-03-29T08:45:00Z</time></trkpt><trkpt lat="36.92921872428194" lon="14.599873641461572"><ele>312.0</ele><time>2026-03-29T08:45:01Z</time></trkpt><trkpt lat="36.92916514190529" lon="14.599816174883657"><ele>312.0</ele><time>2026-03-29T08:45:02Z</time></trkpt><trkpt lat="36.929102501235455" lon="14.599780491159978"><ele>312.0</ele><time>2026-03-29T08:45:03Z</time></trkpt><trkpt lat="36.92900065254486" lon="14.599733928976569"><ele>311.1666666666667</ele><time>2026-03-29T08:45:05Z</time></trkpt><trkpt lat="36.92893469911716" lon="14.599686022675408"><ele>310.3333333333333</ele><time>2026-03-29T08:45:06Z</time></trkpt><trkpt lat="36.928854454209024" lon="14.599684338326268"><ele>309.5</ele><time>2026-03-29T08:45:07Z</time></trkpt><trkpt lat="36.928773728661966" lon="14.599677998819367"><ele>308.66666666666663</ele><time>2026-03-29T08:45:08Z</time></trkpt><trkpt lat="36.92871699463314" lon="14.599565633597372"><ele>307.8333333333333</ele><time>2026-03-29T08:45:10Z</time></trkpt><trkpt lat="36.92872435323042" lon="14.599486084532971"><ele>307.0</ele><time>2026-03-29T08:45:12Z</time></trkpt><trkpt lat="36.92876570107604" lon="14.59937142750399"><ele>307.0</ele><time>2026-03-29T08:45:19Z</time></trkpt><trkpt lat="36.9288071612842" lon="14.599307801511392"><ele>307.0</ele><time>2026-03-29T08:45:20Z</time></trkpt><trkpt lat="36.92885358305642" lon="14.599241120901693"><ele>307.0</ele><time>2026-03-29T08:45:21Z</time></trkpt><trkpt lat="36.92890310844213" lon="14.59916106850513"><ele>307.0</ele><time>2026-03-29T08:45:22Z</time></trkpt><trkpt lat="36.928973191126026" lon="14.599021940871449"><ele>307.0</ele><time>2026-03-29T08:45:24Z</time></trkpt><trkpt lat="36.92896538079549" lon="14.598918137976115"><ele>307.0</ele><time>2026-03-29T08:45:26Z</time></trkpt><trkpt lat="36.92892368022691" lon="14.59882167624461"><ele>306.99999999999994</ele><time>2026-03-29T08:45:28Z</time></trkpt><trkpt lat="36.928866820798405" lon="14.598734706592243"><ele>307.0</ele><time>2026-03-29T08:45:30Z</time></trkpt><trkpt lat="36.92879538585263" lon="14.598716510876644"><ele>307.0</ele><time>2026-03-29T08:45:32Z</time></trkpt><trkpt lat="36.92880305366979" lon="14.598797197680417"><ele>307.0</ele><time>2026-03-29T08:45:34Z</time></trkpt><trkpt lat="36.92874791450906" lon="14.598721530668076"><ele>307.0</ele><time>2026-03-29T08:45:39Z</time></trkpt><trkpt lat="36.92869031808362" lon="14.598670239491728"><ele>306.99999999999994</ele><time>2026-03-29T08:45:43Z</time></trkpt><trkpt lat="36.92862437559455" lon="14.59868084004833"><ele>307.0</ele><time>2026-03-29T08:45:45Z</time></trkpt><trkpt lat="36.928540091837704" lon="14.598697188520221"><ele>307.0</ele><time>2026-03-29T08:45:47Z</time></trkpt><trkpt lat="36.928475717072914" lon="14.598709134457753"><ele>307.0</ele><time>2026-03-29T08:45:49Z</time></trkpt><trkpt lat="36.92840312171577" lon="14.598696844789906"><ele>307.0</ele><time>2026-03-29T08:45:53Z</time></trkpt><trkpt lat="36.92833903871853" lon="14.598699473071235"><ele>307.0</ele><time>2026-03-29T08:45:55Z</time></trkpt><trkpt lat="36.928259296329614" lon="14.598703740732947"><ele>307.0</ele><time>2026-03-29T08:45:57Z</time></trkpt><trkpt lat="36.92817613547332" lon="14.598696192425239"><ele>307.0</ele><time>2026-03-29T08:45:58Z</time></trkpt><trkpt lat="36.92807230227496" lon="14.598690969797383"><ele>308.6</ele><time>2026-03-29T08:46:00Z</time></trkpt><trkpt lat="36.9279658412509" lon="14.598687393456109"><ele>310.2</ele><time>2026-03-29T08:46:02Z</time></trkpt><trkpt lat="36.927876974296" lon="14.598674392529393"><ele>311.8</ele><time>2026-03-29T08:46:04Z</time></trkpt><trkpt lat="36.92779270994303" lon="14.598696555828846"><ele>313.4</ele><time>2026-03-29T08:46:06Z</time></trkpt><trkpt lat="36.927711748379444" lon="14.598728916634533"><ele>315.0</ele><time>2026-03-29T08:46:08Z</time></trkpt><trkpt lat="36.927621972917244" lon="14.59871686114194"><ele>316.6666666666667</ele><time>2026-03-29T08:46:10Z</time></trkpt><trkpt lat="36.92754345125973" lon="14.598727572146288"><ele>318.3333333333333</ele><time>2026-03-29T08:46:12Z</time></trkpt><trkpt lat="36.92751966855636" lon="14.598813193184967"><ele>320.0</ele><time>2026-03-29T08:46:16Z</time></trkpt><trkpt lat="36.92746727809812" lon="14.598896995098556"><ele>321.66666666666663</ele><time>2026-03-29T08:46:19Z</time></trkpt><trkpt lat="36.927428846330514" lon="14.598993398351613"><ele>323.3333333333333</ele><time>2026-03-29T08:46:23Z</time></trkpt><trkpt lat="36.92736815280467" lon="14.599066893141927"><ele>325.0</ele><time>2026-03-29T08:46:26Z</time></trkpt><trkpt lat="36.92729850313881" lon="14.599121741996314"><ele>325.0</ele><time>2026-03-29T08:46:28Z</time></trkpt><trkpt lat="36.92723873753567" lon="14.599170968863406"><ele>325.0</ele><time>2026-03-29T08:46:30Z</time></trkpt><trkpt lat="36.92718445330396" lon="14.599220159503393"><ele>325.0</ele><time>2026-03-29T08:46:32Z</time></trkpt><trkpt lat="36.9271358351758" lon="14.599277953098978"><ele>325.0</ele><time>2026-03-29T08:46:34Z</time></trkpt><trkpt lat="36.92709537621278" lon="14.59936561210778"><ele>325.0</ele><time>2026-03-29T08:46:37Z</time></trkpt><trkpt lat="36.927035199584054" lon="14.599425910908131"><ele>325.0</ele><time>2026-03-29T08:46:39Z</time></trkpt><trkpt lat="36.92697183435671" lon="14.599475721565144"><ele>325.0</ele><time>2026-03-29T08:46:42Z</time></trkpt><trkpt lat="36.92690172493913" lon="14.599502232634332"><ele>325.0</ele><time>2026-03-29T08:46:45Z</time></trkpt><trkpt lat="36.92682299340097" lon="14.59946961088759"><ele>325.0</ele><time>2026-03-29T08:46:49Z</time></trkpt><trkpt lat="36.926752807294555" lon="14.599467195291597"><ele>325.0</ele><time>2026-03-29T08:47:14Z</time></trkpt><trkpt lat="36.92667838636144" lon="14.599509113256607"><ele>325.0</ele><time>2026-03-29T08:47:32Z</time></trkpt><trkpt lat="36.926589603584276" lon="14.599501109502436"><ele>325.0</ele><time>2026-03-29T08:47:35Z</time></trkpt><trkpt lat="36.92653656746656" lon="14.599546072782914"><ele>325.0</ele><time>2026-03-29T08:48:27Z</time></trkpt><trkpt lat="36.92647691278773" lon="14.599619506323526"><ele>329.16666666666663</ele><time>2026-03-29T08:48:30Z</time></trkpt><trkpt lat="36.92642830778115" lon="14.599672854625483"><ele>333.3333333333333</ele><time>2026-03-29T08:48:32Z</time></trkpt><trkpt lat="36.92635823612396" lon="14.599659144538919"><ele>337.5</ele><time>2026-03-29T08:48:35Z</time></trkpt><trkpt lat="36.92626362576962" lon="14.59971089565396"><ele>341.6666666666667</ele><time>2026-03-29T08:48:38Z</time></trkpt><trkpt lat="36.92619010242675" lon="14.599763683282136"><ele>345.83333333333337</ele><time>2026-03-29T08:48:40Z</time></trkpt><trkpt lat="36.926137162461906" lon="14.599807392092243"><ele>350.0</ele><time>2026-03-29T08:48:45Z</time></trkpt><trkpt lat="36.926082290441634" lon="14.599850493874257"><ele>350.0</ele><time>2026-03-29T08:49:42Z</time></trkpt><trkpt lat="36.92607817920009" lon="14.599930924197311"><ele>350.0</ele><time>2026-03-29T08:49:47Z</time></trkpt><trkpt lat="36.926018359681045" lon="14.599854751775194"><ele>350.0</ele><time>2026-03-29T08:53:37Z</time></trkpt><trkpt lat="36.92596710802122" lon="14.599767841338261"><ele>350.0</ele><time>2026-03-29T08:53:40Z</time></trkpt><trkpt lat="36.925971941215586" lon="14.599664159909716"><ele>350.0</ele><time>2026-03-29T08:54:10Z</time></trkpt><trkpt lat="36.926016694242485" lon="14.59959231143335"><ele>350.0</ele><time>2026-03-29T08:54:21Z</time></trkpt><trkpt lat="36.925973510312176" lon="14.599663554839713"><ele>350.0</ele><time>2026-03-29T08:54:52Z</time></trkpt><trkpt lat="36.925937388709" lon="14.599587857849832"><ele>350.0</ele><time>2026-03-29T09:01:13Z</time></trkpt><trkpt lat="36.92595285533082" lon="14.599509475897866"><ele>350.0</ele><time>2026-03-29T09:01:17Z</time></trkpt><trkpt lat="36.92595315129246" lon="14.599423533081644"><ele>350.0</ele><time>2026-03-29T09:01:21Z</time></trkpt><trkpt lat="36.92591914386587" lon="14.599329360041514"><ele>350.0</ele><time>2026-03-29T09:01:27Z</time></trkpt><trkpt lat="36.92588901491706" lon="14.599240134187493"><ele>350.0</ele><time>2026-03-29T09:01:30Z</time></trkpt><trkpt lat="36.92582368277057" lon="14.599203326114477"><ele>350.0</ele><time>2026-03-29T09:01:37Z</time></trkpt><trkpt lat="36.92575180929832" lon="14.599213378336579"><ele>350.4</ele><time>2026-03-29T09:01:39Z</time></trkpt><trkpt lat="36.92564626584402" lon="14.599171184378907"><ele>350.8</ele><time>2026-03-29T09:01:41Z</time></trkpt><trkpt lat="36.92554034992232" lon="14.599130577067873"><ele>351.20000000000005</ele><time>2026-03-29T09:01:42Z</time></trkpt><trkpt lat="36.92544366822796" lon="14.599089137832015"><ele>351.6</ele><time>2026-03-29T09:01:43Z</time></trkpt><trkpt lat="36.92532661286705" lon="14.599037281318603"><ele>352.0</ele><time>2026-03-29T09:01:44Z</time></trkpt><trkpt lat="36.925210357976944" lon="14.598965670346967"><ele>352.0</ele><time>2026-03-29T09:01:45Z</time></trkpt><trkpt lat="36.925106369607334" lon="14.598898910082477"><ele>352.0</ele><time>2026-03-29T09:01:46Z</time></trkpt><trkpt lat="36.92503708243797" lon="14.598869879643315"><ele>352.0</ele><time>2026-03-29T09:01:47Z</time></trkpt><trkpt lat="36.92492684877839" lon="14.598864541412762"><ele>352.0</ele><time>2026-03-29T09:01:49Z</time></trkpt><trkpt lat="36.92487107377315" lon="14.598826582900339"><ele>352.0</ele><time>2026-03-29T09:02:23Z</time></trkpt><trkpt lat="36.9248857211145" lon="14.59874237167119"><ele>352.0</ele><time>2026-03-29T09:02:32Z</time></trkpt><trkpt lat="36.92486944267412" lon="14.598629843201724"><ele>352.8</ele><time>2026-03-29T09:02:34Z</time></trkpt><trkpt lat="36.92487630396513" lon="14.598501201063"><ele>353.6</ele><time>2026-03-29T09:02:36Z</time></trkpt><trkpt lat="36.92486189115646" lon="14.598390494270856"><ele>354.40000000000003</ele><time>2026-03-29T09:02:38Z</time></trkpt><trkpt lat="36.92483792833671" lon="14.598262318775939"><ele>355.20000000000005</ele><time>2026-03-29T09:02:40Z</time></trkpt><trkpt lat="36.924821584745374" lon="14.598158659589968"><ele>356.0</ele><time>2026-03-29T09:02:42Z</time></trkpt><trkpt lat="36.92481535237987" lon="14.598065361594742"><ele>355.99999999999994</ele><time>2026-03-29T09:02:44Z</time></trkpt><trkpt lat="36.9248039154283" lon="14.597967902879521"><ele>356.0</ele><time>2026-03-29T09:02:46Z</time></trkpt><trkpt lat="36.92480853284835" lon="14.597886680506086"><ele>356.0</ele><time>2026-03-29T09:02:48Z</time></trkpt><trkpt lat="36.9248310773811" lon="14.59779829760824"><ele>356.0</ele><time>2026-03-29T09:02:50Z</time></trkpt><trkpt lat="36.92485199593935" lon="14.597720439224076"><ele>356.0</ele><time>2026-03-29T09:02:52Z</time></trkpt><trkpt lat="36.92490402219651" lon="14.597635841659773"><ele>355.99999999999994</ele><time>2026-03-29T09:02:55Z</time></trkpt><trkpt lat="36.924970421441124" lon="14.597597108851739"><ele>356.0</ele><time>2026-03-29T09:02:58Z</time></trkpt><trkpt lat="36.925028806434106" lon="14.597549723490161"><ele>353.33333333333337</ele><time>2026-03-29T09:03:01Z</time></trkpt><trkpt lat="36.92504157086338" lon="14.597460502473252"><ele>350.6666666666667</ele><time>2026-03-29T09:03:04Z</time></trkpt><trkpt lat="36.92503818051444" lon="14.597373515320621"><ele>348.0</ele><time>2026-03-29T09:03:09Z</time></trkpt><trkpt lat="36.92501950928656" lon="14.597277383398213"><ele>345.3333333333333</ele><time>2026-03-29T09:03:11Z</time></trkpt><trkpt lat="36.92495115154148" lon="14.59719163211835"><ele>342.66666666666663</ele><time>2026-03-29T09:03:13Z</time></trkpt><trkpt lat="36.924877215794886" lon="14.597091937848012"><ele>340.0</ele><time>2026-03-29T09:03:15Z</time></trkpt><trkpt lat="36.924809862675836" lon="14.597016541018789"><ele>338.14285714285717</ele><time>2026-03-29T09:03:17Z</time></trkpt><trkpt lat="36.924765002031826" lon="14.596955293030335"><ele>336.2857142857143</ele><time>2026-03-29T09:03:19Z</time></trkpt><trkpt lat="36.92472552335428" lon="14.596890856063245"><ele>334.42857142857144</ele><time>2026-03-29T09:03:24Z</time></trkpt><trkpt lat="36.92469027821314" lon="14.596789080164928"><ele>332.57142857142856</ele><time>2026-03-29T09:04:11Z</time></trkpt><trkpt lat="36.92462300116045" lon="14.596760398308282"><ele>330.7142857142857</ele><time>2026-03-29T09:04:22Z</time></trkpt><trkpt lat="36.924564783584735" lon="14.596821698955365"><ele>328.85714285714283</ele><time>2026-03-29T09:04:25Z</time></trkpt><trkpt lat="36.92451348275218" lon="14.596882948123291"><ele>327.0</ele><time>2026-03-29T09:04:27Z</time></trkpt><trkpt lat="36.924466896849836" lon="14.596774850865518"><ele>327.0</ele><time>2026-03-29T09:04:32Z</time></trkpt><trkpt lat="36.9244252869262" lon="14.59670475810759"><ele>327.0</ele><time>2026-03-29T09:04:39Z</time></trkpt><trkpt lat="36.924366518514134" lon="14.596628353455941"><ele>327.0</ele><time>2026-03-29T09:04:41Z</time></trkpt><trkpt lat="36.92432241268687" lon="14.596557152336246"><ele>327.0</ele><time>2026-03-29T09:04:42Z</time></trkpt><trkpt lat="36.924281194728515" lon="14.596484246024485"><ele>327.0</ele><time>2026-03-29T09:04:43Z</time></trkpt><trkpt lat="36.924227459752494" lon="14.596416886820032"><ele>327.0</ele><time>2026-03-29T09:04:45Z</time></trkpt><trkpt lat="36.92420362633419" lon="14.59631229857997"><ele>329.20000000000005</ele><time>2026-03-29T09:04:52Z</time></trkpt><trkpt lat="36.924204328566525" lon="14.596198779569066"><ele>331.4</ele><time>2026-03-29T09:04:54Z</time></trkpt><trkpt lat="36.92420503281123" lon="14.596099709374586"><ele>333.6</ele><time>2026-03-29T09:04:57Z</time></trkpt><trkpt lat="36.92416544959257" lon="14.595985850829255"><ele>335.79999999999995</ele><time>2026-03-29T09:05:00Z</time></trkpt><trkpt lat="36.92411363637665" lon="14.59589917884948"><ele>338.0</ele><time>2026-03-29T09:05:02Z</time></trkpt><trkpt lat="36.923984709851695" lon="14.595558524813367"><ele>338.0</ele><time>2026-03-29T09:05:04Z</time></trkpt><trkpt lat="36.92394369139332" lon="14.595472182119542"><ele>338.0</ele><time>2026-03-29T09:05:06Z</time></trkpt><trkpt lat="36.92390503480485" lon="14.59537246953664"><ele>338.0</ele><time>2026-03-29T09:05:08Z</time></trkpt><trkpt lat="36.92386812608442" lon="14.595263914491172"><ele>338.0</ele><time>2026-03-29T09:05:10Z</time></trkpt><trkpt lat="36.923818292284395" lon="14.5951322926743"><ele>338.0</ele><time>2026-03-29T09:05:12Z</time></trkpt><trkpt lat="36.92373161038507" lon="14.595022571333253"><ele>335.6666666666667</ele><time>2026-03-29T09:05:14Z</time></trkpt><trkpt lat="36.92368129309155" lon="14.594966756161798"><ele>333.33333333333337</ele><time>2026-03-29T09:05:16Z</time></trkpt><trkpt lat="36.92369036050831" lon="14.594876770985652"><ele>331.0</ele><time>2026-03-29T09:05:17Z</time></trkpt><trkpt lat="36.92365028524288" lon="14.594753130299605"><ele>328.6666666666667</ele><time>2026-03-29T09:05:19Z</time></trkpt><trkpt lat="36.92360266961372" lon="14.594696384181265"><ele>326.3333333333333</ele><time>2026-03-29T09:05:21Z</time></trkpt><trkpt lat="36.92356807290209" lon="14.59461574155061"><ele>324.0</ele><time>2026-03-29T09:05:24Z</time></trkpt><trkpt lat="36.92351392223601" lon="14.594519283670442"><ele>321.5</ele><time>2026-03-29T09:05:35Z</time></trkpt><trkpt lat="36.923465391809515" lon="14.594432816227512"><ele>319.0</ele><time>2026-03-29T09:05:37Z</time></trkpt><trkpt lat="36.92340825022976" lon="14.59436756178096"><ele>316.5</ele><time>2026-03-29T09:05:39Z</time></trkpt><trkpt lat="36.923356130362" lon="14.59429141191753"><ele>314.0</ele><time>2026-03-29T09:05:42Z</time></trkpt><trkpt lat="36.923283747749394" lon="14.594215495667049"><ele>311.5</ele><time>2026-03-29T09:05:44Z</time></trkpt><trkpt lat="36.92321595513927" lon="14.594154296314507"><ele>309.0</ele><time>2026-03-29T09:05:46Z</time></trkpt><trkpt lat="36.9231572238265" lon="14.594119483610895"><ele>316.4</ele><time>2026-03-29T09:05:48Z</time></trkpt><trkpt lat="36.92309023248545" lon="14.59405943837302"><ele>323.79999999999995</ele><time>2026-03-29T09:05:52Z</time></trkpt><trkpt lat="36.9230138728876" lon="14.593963623661038"><ele>331.20000000000005</ele><time>2026-03-29T09:05:55Z</time></trkpt><trkpt lat="36.92295258643132" lon="14.593883380626263"><ele>338.6</ele><time>2026-03-29T09:05:57Z</time></trkpt><trkpt lat="36.922892697728" lon="14.593788203842385"><ele>346.0</ele><time>2026-03-29T09:05:59Z</time></trkpt><trkpt lat="36.92283563231913" lon="14.593707847056153"><ele>343.3333333333333</ele><time>2026-03-29T09:06:03Z</time></trkpt><trkpt lat="36.92279254040741" lon="14.593636098861172"><ele>340.66666666666663</ele><time>2026-03-29T09:06:26Z</time></trkpt><trkpt lat="36.92274315089141" lon="14.593573145401228"><ele>338.0</ele><time>2026-03-29T09:06:28Z</time></trkpt><trkpt lat="36.922683478525464" lon="14.593528298558756"><ele>335.3333333333333</ele><time>2026-03-29T09:06:30Z</time></trkpt><trkpt lat="36.922607720554055" lon="14.593501148202796"><ele>332.6666666666667</ele><time>2026-03-29T09:06:34Z</time></trkpt><trkpt lat="36.922552895811975" lon="14.593442403860106"><ele>330.0</ele><time>2026-03-29T09:06:36Z</time></trkpt><trkpt lat="36.92249565305351" lon="14.593343188434439"><ele>335.1666666666667</ele><time>2026-03-29T09:06:38Z</time></trkpt><trkpt lat="36.92246052553139" lon="14.59326568145677"><ele>340.3333333333333</ele><time>2026-03-29T09:06:40Z</time></trkpt><trkpt lat="36.92241903958475" lon="14.593150652441958"><ele>345.5</ele><time>2026-03-29T09:06:44Z</time></trkpt><trkpt lat="36.92238152454613" lon="14.593057610012961"><ele>350.66666666666663</ele><time>2026-03-29T09:06:48Z</time></trkpt><trkpt lat="36.922357739771094" lon="14.592969937473834"><ele>355.8333333333333</ele><time>2026-03-29T09:06:51Z</time></trkpt><trkpt lat="36.92231328939184" lon="14.592906301586256"><ele>361.0</ele><time>2026-03-29T09:06:53Z</time></trkpt><trkpt lat="36.922265498953614" lon="14.592817568239097"><ele>361.0</ele><time>2026-03-29T09:06:57Z</time></trkpt><trkpt lat="36.922216080657144" lon="14.59276275623986"><ele>361.0</ele><time>2026-03-29T09:07:02Z</time></trkpt><trkpt lat="36.92220326329121" lon="14.592679318114179"><ele>361.0</ele><time>2026-03-29T09:07:16Z</time></trkpt><trkpt lat="36.92217249352075" lon="14.592595927476264"><ele>361.0</ele><time>2026-03-29T09:07:18Z</time></trkpt><trkpt lat="36.92214571217669" lon="14.592510666339306"><ele>361.0</ele><time>2026-03-29T09:07:20Z</time></trkpt><trkpt lat="36.92215054322237" lon="14.592431951600975"><ele>361.0</ele><time>2026-03-29T09:07:22Z</time></trkpt><trkpt lat="36.92212087977436" lon="14.592344559571478"><ele>361.0</ele><time>2026-03-29T09:07:28Z</time></trkpt><trkpt lat="36.92209072487551" lon="14.592270160219133"><ele>361.0</ele><time>2026-03-29T09:07:34Z</time></trkpt><trkpt lat="36.92205921119553" lon="14.592185364941571"><ele>361.0</ele><time>2026-03-29T09:07:37Z</time></trkpt><trkpt lat="36.92203153281763" lon="14.592105238935732"><ele>361.0</ele><time>2026-03-29T09:07:39Z</time></trkpt><trkpt lat="36.92198417584829" lon="14.59199596038122"><ele>361.0</ele><time>2026-03-29T09:07:44Z</time></trkpt><trkpt lat="36.921942373097004" lon="14.59189628286103"><ele>361.0</ele><time>2026-03-29T09:07:48Z</time></trkpt><trkpt lat="36.92192657770431" lon="14.591809454814271"><ele>361.0</ele><time>2026-03-29T09:07:50Z</time></trkpt><trkpt lat="36.92190874208688" lon="14.591709067238737"><ele>359.5714285714286</ele><time>2026-03-29T09:07:54Z</time></trkpt><trkpt lat="36.92189363190261" lon="14.59162347259762"><ele>358.1428571428571</ele><time>2026-03-29T09:07:59Z</time></trkpt><trkpt lat="36.92187138553796" lon="14.591538063688473"><ele>356.7142857142857</ele><time>2026-03-29T09:08:40Z</time></trkpt><trkpt lat="36.921822353211404" lon="14.591469292138708"><ele>355.28571428571433</ele><time>2026-03-29T09:08:44Z</time></trkpt><trkpt lat="36.921791609550304" lon="14.591371582466643"><ele>353.8571428571429</ele><time>2026-03-29T09:09:46Z</time></trkpt><trkpt lat="36.9217756919347" lon="14.591288535866468"><ele>352.42857142857144</ele><time>2026-03-29T09:09:54Z</time></trkpt><trkpt lat="36.92175771165658" lon="14.59120316421509"><ele>351.0</ele><time>2026-03-29T09:11:13Z</time></trkpt><trkpt lat="36.92175354749222" lon="14.591123207736237"><ele>350.3333333333333</ele><time>2026-03-29T09:14:35Z</time></trkpt><trkpt lat="36.92173682745153" lon="14.591005116341288"><ele>349.6666666666667</ele><time>2026-03-29T09:15:13Z</time></trkpt><trkpt lat="36.921723614343875" lon="14.590918930645458"><ele>349.0</ele><time>2026-03-29T09:15:43Z</time></trkpt><trkpt lat="36.92169715002027" lon="14.590834729706094"><ele>348.33333333333337</ele><time>2026-03-29T09:15:57Z</time></trkpt><trkpt lat="36.92168485724857" lon="14.590739512607913"><ele>347.6666666666667</ele><time>2026-03-29T09:16:01Z</time></trkpt><trkpt lat="36.921726012219516" lon="14.590677331793453"><ele>347.0</ele><time>2026-03-29T09:16:05Z</time></trkpt><trkpt lat="36.921702584281086" lon="14.590595465430281"><ele>353.5714285714286</ele><time>2026-03-29T09:16:21Z</time></trkpt><trkpt lat="36.921716929454966" lon="14.590676572685288"><ele>360.1428571428571</ele><time>2026-03-29T09:18:28Z</time></trkpt><trkpt lat="36.921682622007616" lon="14.590594590951596"><ele>366.7142857142857</ele><time>2026-03-29T09:19:36Z</time></trkpt><trkpt lat="36.92167344357851" lon="14.590513800876831"><ele>373.28571428571433</ele><time>2026-03-29T09:20:16Z</time></trkpt><trkpt lat="36.92161461251639" lon="14.59042373858258"><ele>379.8571428571429</ele><time>2026-03-29T09:20:39Z</time></trkpt><trkpt lat="36.92159333147583" lon="14.590328480321794"><ele>386.42857142857144</ele><time>2026-03-29T09:20:46Z</time></trkpt><trkpt lat="36.921604293152164" lon="14.590247035595203"><ele>393.0</ele><time>2026-03-29T09:20:49Z</time></trkpt><trkpt lat="36.92164598470255" lon="14.590184526031184"><ele>393.5</ele><time>2026-03-29T09:21:52Z</time></trkpt><trkpt lat="36.92167621857145" lon="14.590104575434989"><ele>394.0</ele><time>2026-03-29T09:23:15Z</time></trkpt><trkpt lat="36.921687672479266" lon="14.590010756833486"><ele>394.5</ele><time>2026-03-29T09:23:18Z</time></trkpt><trkpt lat="36.92169830959425" lon="14.58990777619351"><ele>395.0</ele><time>2026-03-29T09:23:21Z</time></trkpt><trkpt lat="36.921717442988964" lon="14.589815545459707"><ele>395.5</ele><time>2026-03-29T09:23:24Z</time></trkpt><trkpt lat="36.92170575581107" lon="14.58973679462083"><ele>396.0</ele><time>2026-03-29T09:23:30Z</time></trkpt><trkpt lat="36.92171077222368" lon="14.589622874061526"><ele>396.0</ele><time>2026-03-29T09:23:35Z</time></trkpt><trkpt lat="36.92171413634878" lon="14.5895426853932"><ele>396.0</ele><time>2026-03-29T09:23:38Z</time></trkpt><trkpt lat="36.92174937058251" lon="14.589454322597627"><ele>396.0</ele><time>2026-03-29T09:23:40Z</time></trkpt><trkpt lat="36.921768308980084" lon="14.589378532612209"><ele>396.0</ele><time>2026-03-29T09:23:42Z</time></trkpt><trkpt lat="36.92178538267574" lon="14.589292214999869"><ele>396.0</ele><time>2026-03-29T09:23:45Z</time></trkpt><trkpt lat="36.92181105438269" lon="14.589168712585893"><ele>396.0</ele><time>2026-03-29T09:23:48Z</time></trkpt><trkpt lat="36.92183081443535" lon="14.589090452661269"><ele>396.0</ele><time>2026-03-29T09:23:51Z</time></trkpt><trkpt lat="36.92183955639198" lon="14.588977150216747"><ele>389.6666666666667</ele><time>2026-03-29T09:23:54Z</time></trkpt><trkpt lat="36.92185297432448" lon="14.588886198317459"><ele>383.3333333333333</ele><time>2026-03-29T09:23:57Z</time></trkpt><trkpt lat="36.921866015583895" lon="14.58880522912319"><ele>377.0</ele><time>2026-03-29T09:23:59Z</time></trkpt><trkpt lat="36.92190791270739" lon="14.588696776902516"><ele>370.66666666666663</ele><time>2026-03-29T09:24:01Z</time></trkpt><trkpt lat="36.92194102612115" lon="14.58861249127262"><ele>364.3333333333333</ele><time>2026-03-29T09:24:03Z</time></trkpt><trkpt lat="36.92193421386553" lon="14.588503136943059"><ele>358.0</ele><time>2026-03-29T09:24:06Z</time></trkpt><trkpt lat="36.92193429646416" lon="14.588402394837356"><ele>358.00000000000006</ele><time>2026-03-29T09:24:09Z</time></trkpt><trkpt lat="36.92192934194436" lon="14.58830830871032"><ele>358.0</ele><time>2026-03-29T09:24:14Z</time></trkpt><trkpt lat="36.92193937100415" lon="14.588213703875075"><ele>358.0</ele><time>2026-03-29T09:24:17Z</time></trkpt><trkpt lat="36.92194793892311" lon="14.588123974663963"><ele>358.0</ele><time>2026-03-29T09:24:20Z</time></trkpt><trkpt lat="36.92194977720605" lon="14.588043191723889"><ele>358.0</ele><time>2026-03-29T09:24:23Z</time></trkpt><trkpt lat="36.92195860585273" lon="14.587950443992291"><ele>358.00000000000006</ele><time>2026-03-29T09:24:27Z</time></trkpt><trkpt lat="36.921954059203564" lon="14.587869084145428"><ele>358.0</ele><time>2026-03-29T09:24:30Z</time></trkpt><trkpt lat="36.9219462185355" lon="14.587784585193836"><ele>358.8333333333333</ele><time>2026-03-29T09:24:32Z</time></trkpt><trkpt lat="36.92196573844521" lon="14.587695915107803"><ele>359.66666666666663</ele><time>2026-03-29T09:24:36Z</time></trkpt><trkpt lat="36.921968456237316" lon="14.587583646874837"><ele>360.5</ele><time>2026-03-29T09:25:20Z</time></trkpt><trkpt lat="36.921971865152074" lon="14.587480563495221"><ele>361.3333333333333</ele><time>2026-03-29T09:25:23Z</time></trkpt><trkpt lat="36.92197204411869" lon="14.587372189613871"><ele>362.1666666666667</ele><time>2026-03-29T09:25:25Z</time></trkpt><trkpt lat="36.921966782228125" lon="14.587273907461466"><ele>363.0</ele><time>2026-03-29T09:25:28Z</time></trkpt><trkpt lat="36.92195167868293" lon="14.587197236280678"><ele>362.99999999999994</ele><time>2026-03-29T09:25:32Z</time></trkpt><trkpt lat="36.92192964536392" lon="14.58711045719654"><ele>363.0</ele><time>2026-03-29T09:42:47Z</time></trkpt><trkpt lat="36.921856524792894" lon="14.587084798782948"><ele>363.0</ele><time>2026-03-29T09:43:16Z</time></trkpt><trkpt lat="36.92180165547476" lon="14.587142218030158"><ele>363.0</ele><time>2026-03-29T09:43:31Z</time></trkpt><trkpt lat="36.92178669553327" lon="14.587224709267284"><ele>363.0</ele><time>2026-03-29T09:43:33Z</time></trkpt><trkpt lat="36.921745229761605" lon="14.587285107965657"><ele>362.99999999999994</ele><time>2026-03-29T09:44:00Z</time></trkpt><trkpt lat="36.92168511871858" lon="14.587364537780063"><ele>363.0</ele><time>2026-03-29T09:45:22Z</time></trkpt><trkpt lat="36.92165409213092" lon="14.587447251445699"><ele>369.5</ele><time>2026-03-29T09:46:23Z</time></trkpt><trkpt lat="36.92159862070678" lon="14.587503850661951"><ele>376.0</ele><time>2026-03-29T09:46:41Z</time></trkpt><trkpt lat="36.92154753877928" lon="14.587566864755074"><ele>382.5</ele><time>2026-03-29T09:46:43Z</time></trkpt><trkpt lat="36.921490376049846" lon="14.58762148985444"><ele>389.0</ele><time>2026-03-29T09:46:47Z</time></trkpt><trkpt lat="36.921500617909686" lon="14.5877181221859"><ele>395.5</ele><time>2026-03-29T09:47:00Z</time></trkpt><trkpt lat="36.921456571021615" lon="14.58778116451901"><ele>402.0</ele><time>2026-03-29T09:47:05Z</time></trkpt><trkpt lat="36.92141163050712" lon="14.587880503295509"><ele>402.6666666666667</ele><time>2026-03-29T09:47:35Z</time></trkpt><trkpt lat="36.92134359582066" lon="14.587922714966385"><ele>403.33333333333337</ele><time>2026-03-29T09:47:37Z</time></trkpt><trkpt lat="36.92128810919692" lon="14.587967679544652"><ele>404.0</ele><time>2026-03-29T09:50:11Z</time></trkpt><trkpt lat="36.921243782584334" lon="14.58806338926036"><ele>404.6666666666667</ele><time>2026-03-29T09:50:14Z</time></trkpt><trkpt lat="36.921246901225686" lon="14.588144425503627"><ele>405.33333333333337</ele><time>2026-03-29T09:50:16Z</time></trkpt><trkpt lat="36.92130063083504" lon="14.588279120625085"><ele>406.0</ele><time>2026-03-29T09:50:18Z</time></trkpt><trkpt lat="36.92130575679345" lon="14.588364726096543"><ele>406.00000000000006</ele><time>2026-03-29T09:50:19Z</time></trkpt><trkpt lat="36.92128573405331" lon="14.58846541155239"><ele>406.0</ele><time>2026-03-29T09:50:20Z</time></trkpt><trkpt lat="36.92128492833517" lon="14.5885949517282"><ele>406.0</ele><time>2026-03-29T09:50:21Z</time></trkpt><trkpt lat="36.92128795089847" lon="14.588681442604052"><ele>406.0</ele><time>2026-03-29T09:50:22Z</time></trkpt><trkpt lat="36.92129632534803" lon="14.588759667208837"><ele>406.00000000000006</ele><time>2026-03-29T09:50:23Z</time></trkpt><trkpt lat="36.92128906129845" lon="14.588915873782458"><ele>406.0</ele><time>2026-03-29T09:50:25Z</time></trkpt><trkpt lat="36.921286528095166" lon="14.589009046017658"><ele>405.0</ele><time>2026-03-29T09:50:26Z</time></trkpt><trkpt lat="36.921257926494114" lon="14.589142879924845"><ele>404.0</ele><time>2026-03-29T09:50:28Z</time></trkpt><trkpt lat="36.92124695627383" lon="14.589278214347704"><ele>403.0</ele><time>2026-03-29T09:50:30Z</time></trkpt><trkpt lat="36.921244432485466" lon="14.589364054204326"><ele>402.0</ele><time>2026-03-29T09:50:31Z</time></trkpt><trkpt lat="36.92120848457571" lon="14.589446843081639"><ele>401.0</ele><time>2026-03-29T09:50:32Z</time></trkpt><trkpt lat="36.92116481093313" lon="14.589575786843753"><ele>400.0</ele><time>2026-03-29T09:50:34Z</time></trkpt><trkpt lat="36.92117158110365" lon="14.589662047956725"><ele>399.0</ele><time>2026-03-29T09:50:35Z</time></trkpt><trkpt lat="36.92117375048235" lon="14.589761393632122"><ele>398.0</ele><time>2026-03-29T09:50:37Z</time></trkpt><trkpt lat="36.92114700668576" lon="14.589885995883888"><ele>397.0</ele><time>2026-03-29T09:50:39Z</time></trkpt><trkpt lat="36.921128288607264" lon="14.590030655797056"><ele>396.0</ele><time>2026-03-29T09:50:41Z</time></trkpt><trkpt lat="36.92110642292924" lon="14.590129221908287"><ele>396.0</ele><time>2026-03-29T09:50:43Z</time></trkpt><trkpt lat="36.92108220381412" lon="14.590204126400794"><ele>396.0</ele><time>2026-03-29T09:50:44Z</time></trkpt><trkpt lat="36.92104826363885" lon="14.5902714683333"><ele>396.0</ele><time>2026-03-29T09:50:47Z</time></trkpt><trkpt lat="36.920947048837945" lon="14.590692619449474"><ele>395.4</ele><time>2026-03-29T09:50:49Z</time></trkpt><trkpt lat="36.920930471783976" lon="14.590856387981615"><ele>394.8</ele><time>2026-03-29T09:50:51Z</time></trkpt><trkpt lat="36.92086678574896" lon="14.591004998981736"><ele>394.2</ele><time>2026-03-29T09:50:53Z</time></trkpt><trkpt lat="36.92085625216349" lon="14.591113275500517"><ele>393.59999999999997</ele><time>2026-03-29T09:50:54Z</time></trkpt><trkpt lat="36.92082164616033" lon="14.591196049692686"><ele>393.0</ele><time>2026-03-29T09:50:55Z</time></trkpt><trkpt lat="36.92084254380282" lon="14.591284253467778"><ele>392.59999999999997</ele><time>2026-03-29T09:50:56Z</time></trkpt><trkpt lat="36.920866716304516" lon="14.591377824337233"><ele>392.2</ele><time>2026-03-29T09:50:57Z</time></trkpt><trkpt lat="36.92087856527751" lon="14.59155234068375"><ele>391.8</ele><time>2026-03-29T09:50:59Z</time></trkpt><trkpt lat="36.92087950956365" lon="14.59165758610544"><ele>391.4</ele><time>2026-03-29T09:51:00Z</time></trkpt><trkpt lat="36.92090234745992" lon="14.591782317231937"><ele>391.0</ele><time>2026-03-29T09:51:02Z</time></trkpt><trkpt lat="36.920940737622765" lon="14.59193295385516"><ele>393.20000000000005</ele><time>2026-03-29T09:51:04Z</time></trkpt><trkpt lat="36.920971326681915" lon="14.592010996879624"><ele>395.40000000000003</ele><time>2026-03-29T09:51:05Z</time></trkpt><trkpt lat="36.9210053077905" lon="14.592090349874809"><ele>397.6</ele><time>2026-03-29T09:51:06Z</time></trkpt><trkpt lat="36.92107373278965" lon="14.59222042305154"><ele>399.8</ele><time>2026-03-29T09:51:08Z</time></trkpt><trkpt lat="36.92113664797816" lon="14.592364817572838"><ele>402.0</ele><time>2026-03-29T09:51:10Z</time></trkpt><trkpt lat="36.921197832110884" lon="14.59246629032628"><ele>402.0</ele><time>2026-03-29T09:51:12Z</time></trkpt><trkpt lat="36.92126029686917" lon="14.59255996685108"><ele>402.0</ele><time>2026-03-29T09:51:14Z</time></trkpt><trkpt lat="36.92126947283818" lon="14.592648159759197"><ele>402.0</ele><time>2026-03-29T09:51:15Z</time></trkpt><trkpt lat="36.92132114209535" lon="14.592786503334898"><ele>402.0</ele><time>2026-03-29T09:51:17Z</time></trkpt><trkpt lat="36.921334794513776" lon="14.592898843183644"><ele>402.0</ele><time>2026-03-29T09:51:19Z</time></trkpt><trkpt lat="36.92132909387596" lon="14.592979318906444"><ele>402.0</ele><time>2026-03-29T09:51:23Z</time></trkpt><trkpt lat="36.92137860898852" lon="14.593114309419791"><ele>404.3333333333333</ele><time>2026-03-29T09:51:33Z</time></trkpt><trkpt lat="36.92139626133666" lon="14.59320881819576"><ele>406.66666666666663</ele><time>2026-03-29T09:51:34Z</time></trkpt><trkpt lat="36.92139843967899" lon="14.593318556769724"><ele>409.0</ele><time>2026-03-29T09:51:35Z</time></trkpt><trkpt lat="36.92139501810854" lon="14.593411702004623"><ele>411.3333333333333</ele><time>2026-03-29T09:51:36Z</time></trkpt><trkpt lat="36.92139553395792" lon="14.593527003787656"><ele>413.66666666666663</ele><time>2026-03-29T09:51:38Z</time></trkpt><trkpt lat="36.921424280302" lon="14.593610190448505"><ele>416.0</ele><time>2026-03-29T09:51:39Z</time></trkpt><trkpt lat="36.92144589238279" lon="14.593699611534587"><ele>417.49999999999994</ele><time>2026-03-29T09:51:40Z</time></trkpt><trkpt lat="36.921460252488636" lon="14.593800212315706"><ele>419.0</ele><time>2026-03-29T09:51:41Z</time></trkpt><trkpt lat="36.92146640143912" lon="14.593934708370302"><ele>420.5</ele><time>2026-03-29T09:51:43Z</time></trkpt><trkpt lat="36.92143804907901" lon="14.59402327185378"><ele>422.0</ele><time>2026-03-29T09:51:45Z</time></trkpt><trkpt lat="36.921466961971255" lon="14.594119273178988"><ele>423.49999999999994</ele><time>2026-03-29T09:51:47Z</time></trkpt><trkpt lat="36.921514643132504" lon="14.594223921089357"><ele>425.0</ele><time>2026-03-29T09:51:49Z</time></trkpt><trkpt lat="36.921528410752636" lon="14.59437141331203"><ele>424.99999999999994</ele><time>2026-03-29T09:51:51Z</time></trkpt><trkpt lat="36.92155184472831" lon="14.594488332509801"><ele>425.0</ele><time>2026-03-29T09:51:53Z</time></trkpt><trkpt lat="36.92158541477705" lon="14.594610028830385"><ele>425.0</ele><time>2026-03-29T09:51:55Z</time></trkpt><trkpt lat="36.92159434421117" lon="14.594728782549454"><ele>425.0</ele><time>2026-03-29T09:51:57Z</time></trkpt><trkpt lat="36.92162218702325" lon="14.594808497958377"><ele>424.99999999999994</ele><time>2026-03-29T09:51:59Z</time></trkpt><trkpt lat="36.92161530341826" lon="14.594910369892945"><ele>425.0</ele><time>2026-03-29T09:52:02Z</time></trkpt><trkpt lat="36.9216648370793" lon="14.595019725146434"><ele>426.16666666666663</ele><time>2026-03-29T09:52:05Z</time></trkpt><trkpt lat="36.92168972513973" lon="14.595135268963707"><ele>427.3333333333333</ele><time>2026-03-29T09:52:07Z</time></trkpt><trkpt lat="36.92170729386373" lon="14.595256956150784"><ele>428.5</ele><time>2026-03-29T09:52:09Z</time></trkpt><trkpt lat="36.92170917629566" lon="14.59533741793225"><ele>429.66666666666663</ele><time>2026-03-29T09:52:10Z</time></trkpt><trkpt lat="36.921729689332274" lon="14.595444829375841"><ele>430.8333333333333</ele><time>2026-03-29T09:52:12Z</time></trkpt><trkpt lat="36.92176289476587" lon="14.595531655191985"><ele>432.0</ele><time>2026-03-29T09:52:14Z</time></trkpt><trkpt lat="36.92178849123481" lon="14.595664861408912"><ele>430.5</ele><time>2026-03-29T09:52:16Z</time></trkpt><trkpt lat="36.92182411473931" lon="14.595742994742958"><ele>429.0</ele><time>2026-03-29T09:52:17Z</time></trkpt><trkpt lat="36.9218381030524" lon="14.59582821644832"><ele>427.5</ele><time>2026-03-29T09:52:18Z</time></trkpt><trkpt lat="36.92187799584129" lon="14.595939988386895"><ele>426.0</ele><time>2026-03-29T09:52:19Z</time></trkpt><trkpt lat="36.92191222483189" lon="14.596028861592911"><ele>424.5</ele><time>2026-03-29T09:52:20Z</time></trkpt><trkpt lat="36.92196306102608" lon="14.596159619730171"><ele>423.0</ele><time>2026-03-29T09:52:22Z</time></trkpt><trkpt lat="36.921977745242145" lon="14.596298899524797"><ele>423.0</ele><time>2026-03-29T09:52:24Z</time></trkpt><trkpt lat="36.921966928898456" lon="14.596408220511046"><ele>423.0</ele><time>2026-03-29T09:52:26Z</time></trkpt><trkpt lat="36.921962830687924" lon="14.596496901876602"><ele>423.0</ele><time>2026-03-29T09:52:29Z</time></trkpt><trkpt lat="36.92194263390156" lon="14.596601701038626"><ele>423.0</ele><time>2026-03-29T09:52:32Z</time></trkpt><trkpt lat="36.92185344827055" lon="14.596667787680756"><ele>423.0</ele><time>2026-03-29T09:53:18Z</time></trkpt><trkpt lat="36.921774322689906" lon="14.596719611683744"><ele>423.0</ele><time>2026-03-29T09:53:21Z</time></trkpt><trkpt lat="36.921712273431716" lon="14.596777536319754"><ele>426.2857142857143</ele><time>2026-03-29T09:53:23Z</time></trkpt><trkpt lat="36.92166387941735" lon="14.5968695425532"><ele>429.5714285714286</ele><time>2026-03-29T09:53:25Z</time></trkpt><trkpt lat="36.921644607006726" lon="14.596960556767577"><ele>432.8571428571429</ele><time>2026-03-29T09:53:27Z</time></trkpt><trkpt lat="36.92165269551946" lon="14.597039954640511"><ele>436.1428571428571</ele><time>2026-03-29T09:53:29Z</time></trkpt><trkpt lat="36.92163835413875" lon="14.597120507404801"><ele>439.42857142857144</ele><time>2026-03-29T09:53:32Z</time></trkpt><trkpt lat="36.92161633829672" lon="14.597199060017875"><ele>442.7142857142857</ele><time>2026-03-29T09:53:37Z</time></trkpt><trkpt lat="36.92160362025313" lon="14.597308280285805"><ele>446.0</ele><time>2026-03-29T09:53:41Z</time></trkpt><trkpt lat="36.92159621472927" lon="14.59742619114625"><ele>445.8333333333333</ele><time>2026-03-29T09:53:44Z</time></trkpt><trkpt lat="36.92161875791205" lon="14.597514679705753"><ele>445.66666666666663</ele><time>2026-03-29T09:53:46Z</time></trkpt><trkpt lat="36.92160640491647" lon="14.597631974704294"><ele>445.5</ele><time>2026-03-29T09:53:48Z</time></trkpt><trkpt lat="36.921635556709646" lon="14.597734684681203"><ele>445.33333333333337</ele><time>2026-03-29T09:53:49Z</time></trkpt><trkpt lat="36.921672306258635" lon="14.597857666421147"><ele>445.1666666666667</ele><time>2026-03-29T09:53:51Z</time></trkpt><trkpt lat="36.92170921191844" lon="14.597931371509922"><ele>445.0</ele><time>2026-03-29T09:53:52Z</time></trkpt><trkpt lat="36.92176059950956" lon="14.598003475437732"><ele>445.00000000000006</ele><time>2026-03-29T09:53:53Z</time></trkpt><trkpt lat="36.92180354140444" lon="14.598061131903796"><ele>445.0</ele><time>2026-03-29T09:53:54Z</time></trkpt><trkpt lat="36.92185788314006" lon="14.59815144537519"><ele>445.0</ele><time>2026-03-29T09:53:56Z</time></trkpt><trkpt lat="36.92190044586818" lon="14.598211220626244"><ele>445.0</ele><time>2026-03-29T09:53:57Z</time></trkpt><trkpt lat="36.92195927530798" lon="14.59831451347797"><ele>445.00000000000006</ele><time>2026-03-29T09:53:58Z</time></trkpt><trkpt lat="36.92202434939712" lon="14.59842815667595"><ele>445.0</ele><time>2026-03-29T09:53:59Z</time></trkpt><trkpt lat="36.92206828201781" lon="14.598506693085758"><ele>445.0</ele><time>2026-03-29T09:54:00Z</time></trkpt><trkpt lat="36.92210525238654" lon="14.598571530680214"><ele>445.0</ele><time>2026-03-29T09:54:01Z</time></trkpt><trkpt lat="36.92215943970635" lon="14.598646404368429"><ele>445.0</ele><time>2026-03-29T09:54:03Z</time></trkpt><trkpt lat="36.922198378907225" lon="14.598713001892731"><ele>445.0</ele><time>2026-03-29T09:54:04Z</time></trkpt><trkpt lat="36.9222682776968" lon="14.598822290837171"><ele>445.0</ele><time>2026-03-29T09:54:06Z</time></trkpt><trkpt lat="36.922357033439944" lon="14.598959653150759"><ele>448.5</ele><time>2026-03-29T09:54:08Z</time></trkpt><trkpt lat="36.92241678806205" lon="14.599050594184936"><ele>452.0</ele><time>2026-03-29T09:54:09Z</time></trkpt><trkpt lat="36.92249241224526" lon="14.599184747510526"><ele>455.5</ele><time>2026-03-29T09:54:10Z</time></trkpt><trkpt lat="36.92254659087883" lon="14.599315972094221"><ele>459.0</ele><time>2026-03-29T09:54:11Z</time></trkpt><trkpt lat="36.922578306217105" lon="14.599446282731954"><ele>453.0</ele><time>2026-03-29T09:54:12Z</time></trkpt><trkpt lat="36.922622959976614" lon="14.59957041106655"><ele>447.0</ele><time>2026-03-29T09:54:13Z</time></trkpt><trkpt lat="36.92266856237251" lon="14.599691360616319"><ele>441.0</ele><time>2026-03-29T09:54:14Z</time></trkpt><trkpt lat="36.92272892920068" lon="14.599819893427664"><ele>435.0</ele><time>2026-03-29T09:54:15Z</time></trkpt><trkpt lat="36.922792421065495" lon="14.599944229533456"><ele>435.0</ele><time>2026-03-29T09:54:16Z</time></trkpt><trkpt lat="36.922823614792186" lon="14.600082187595506"><ele>435.0</ele><time>2026-03-29T09:54:17Z</time></trkpt><trkpt lat="36.92286455698746" lon="14.600200726905637"><ele>435.0</ele><time>2026-03-29T09:54:18Z</time></trkpt><trkpt lat="36.922909744377314" lon="14.600290866420721"><ele>435.0</ele><time>2026-03-29T09:54:19Z</time></trkpt><trkpt lat="36.92295757784045" lon="14.600395010943146"><ele>435.0</ele><time>2026-03-29T09:54:20Z</time></trkpt><trkpt lat="36.92299803076987" lon="14.600510503269152"><ele>439.75</ele><time>2026-03-29T09:54:21Z</time></trkpt><trkpt lat="36.92304758974824" lon="14.600641146420585"><ele>444.5</ele><time>2026-03-29T09:54:22Z</time></trkpt><trkpt lat="36.92310459270142" lon="14.600779055820805"><ele>449.25</ele><time>2026-03-29T09:54:23Z</time></trkpt><trkpt lat="36.9231693151803" lon="14.600916692885374"><ele>454.0</ele><time>2026-03-29T09:54:24Z</time></trkpt><trkpt lat="36.92323560672602" lon="14.601049543881842"><ele>451.25</ele><time>2026-03-29T09:54:25Z</time></trkpt><trkpt lat="36.92330011314328" lon="14.601190227148523"><ele>448.5</ele><time>2026-03-29T09:54:26Z</time></trkpt><trkpt lat="36.923362243448466" lon="14.60131935870074"><ele>445.75</ele><time>2026-03-29T09:54:27Z</time></trkpt><trkpt lat="36.92342255024453" lon="14.601449504620197"><ele>443.0</ele><time>2026-03-29T09:54:28Z</time></trkpt><trkpt lat="36.92349259316186" lon="14.601572663410463"><ele>443.0</ele><time>2026-03-29T09:54:29Z</time></trkpt><trkpt lat="36.923551646707764" lon="14.601710163129502"><ele>443.0</ele><time>2026-03-29T09:54:30Z</time></trkpt><trkpt lat="36.92361746211603" lon="14.601827171807809"><ele>443.0</ele><time>2026-03-29T09:54:31Z</time></trkpt><trkpt lat="36.92369631888222" lon="14.601917943936833"><ele>443.0</ele><time>2026-03-29T09:54:32Z</time></trkpt><trkpt lat="36.92377099775926" lon="14.602010766123282"><ele>446.2</ele><time>2026-03-29T09:54:33Z</time></trkpt><trkpt lat="36.92382831492789" lon="14.602104772458848"><ele>449.4</ele><time>2026-03-29T09:54:34Z</time></trkpt><trkpt lat="36.92388782454622" lon="14.602197330946115"><ele>452.59999999999997</ele><time>2026-03-29T09:54:35Z</time></trkpt><trkpt lat="36.923944205409406" lon="14.602287474883456"><ele>455.79999999999995</ele><time>2026-03-29T09:54:36Z</time></trkpt><trkpt lat="36.92397982329987" lon="14.60239522458926"><ele>459.0</ele><time>2026-03-29T09:54:37Z</time></trkpt><trkpt lat="36.92402562943074" lon="14.602500894805592"><ele>459.0</ele><time>2026-03-29T09:54:38Z</time></trkpt><trkpt lat="36.9240881047199" lon="14.602622424924778"><ele>459.0</ele><time>2026-03-29T09:54:39Z</time></trkpt><trkpt lat="36.924143593307214" lon="14.602757984850745"><ele>459.0</ele><time>2026-03-29T09:54:40Z</time></trkpt><trkpt lat="36.924213589333014" lon="14.602925466319276"><ele>459.0</ele><time>2026-03-29T09:54:41Z</time></trkpt><trkpt lat="36.92430116823407" lon="14.603088976735991"><ele>457.5</ele><time>2026-03-29T09:54:42Z</time></trkpt><trkpt lat="36.924390848987564" lon="14.60323549219777"><ele>456.0</ele><time>2026-03-29T09:54:43Z</time></trkpt><trkpt lat="36.924472658786115" lon="14.603378350896008"><ele>454.5</ele><time>2026-03-29T09:54:44Z</time></trkpt><trkpt lat="36.92455970059424" lon="14.603528216372075"><ele>453.0</ele><time>2026-03-29T09:54:45Z</time></trkpt><trkpt lat="36.92465859544275" lon="14.603693061301122"><ele>459.0</ele><time>2026-03-29T09:54:46Z</time></trkpt><trkpt lat="36.92476265909321" lon="14.603866974267614"><ele>465.0</ele><time>2026-03-29T09:54:47Z</time></trkpt><trkpt lat="36.924861459855194" lon="14.604049561185395"><ele>471.0</ele><time>2026-03-29T09:54:48Z</time></trkpt><trkpt lat="36.9249466288938" lon="14.60418484628006"><ele>471.0</ele><time>2026-03-29T09:54:49Z</time></trkpt><trkpt lat="36.9250287489593" lon="14.604292012294403"><ele>471.0</ele><time>2026-03-29T09:54:50Z</time></trkpt><trkpt lat="36.925092007099835" lon="14.604399467451726"><ele>471.0</ele><time>2026-03-29T09:54:51Z</time></trkpt><trkpt lat="36.92513805922379" lon="14.60449822892551"><ele>471.0</ele><time>2026-03-29T09:54:52Z</time></trkpt><trkpt lat="36.92517812973454" lon="14.604567515235402"><ele>471.0</ele><time>2026-03-29T09:54:53Z</time></trkpt><trkpt lat="36.925240388054505" lon="14.604670146931888"><ele>471.20000000000005</ele><time>2026-03-29T09:54:55Z</time></trkpt><trkpt lat="36.92527087227631" lon="14.604780466355505"><ele>471.40000000000003</ele><time>2026-03-29T09:54:57Z</time></trkpt><trkpt lat="36.92519345378438" lon="14.604862682617567"><ele>471.6</ele><time>2026-03-29T09:54:59Z</time></trkpt><trkpt lat="36.92512305418138" lon="14.604893336287331"><ele>471.8</ele><time>2026-03-29T09:55:00Z</time></trkpt><trkpt lat="36.92504982396726" lon="14.604943486945519"><ele>472.0</ele><time>2026-03-29T09:55:01Z</time></trkpt><trkpt lat="36.92496269432457" lon="14.60500046976467"><ele>474.20000000000005</ele><time>2026-03-29T09:55:02Z</time></trkpt><trkpt lat="36.924845970626905" lon="14.605007545937434"><ele>476.40000000000003</ele><time>2026-03-29T09:55:03Z</time></trkpt><trkpt lat="36.92475963832888" lon="14.605053196177723"><ele>478.59999999999997</ele><time>2026-03-29T09:55:05Z</time></trkpt><trkpt lat="36.924700272737766" lon="14.60511217725247"><ele>480.79999999999995</ele><time>2026-03-29T09:55:07Z</time></trkpt><trkpt lat="36.924603309549376" lon="14.605141301803911"><ele>483.0</ele><time>2026-03-29T09:55:10Z</time></trkpt><trkpt lat="36.924374044256545" lon="14.60526153254508"><ele>483.0</ele><time>2026-03-29T09:56:06Z</time></trkpt><trkpt lat="36.92426377221843" lon="14.605301496664534"><ele>483.0</ele><time>2026-03-29T09:56:07Z</time></trkpt><trkpt lat="36.92418939543345" lon="14.605302614361301"><ele>483.0</ele><time>2026-03-29T09:56:08Z</time></trkpt><trkpt lat="36.92411601725321" lon="14.605353776139742"><ele>483.0</ele><time>2026-03-29T09:56:09Z</time></trkpt><trkpt lat="36.92406236397446" lon="14.605418107935174"><ele>483.0</ele><time>2026-03-29T09:56:10Z</time></trkpt><trkpt lat="36.92400355175968" lon="14.60550507752903"><ele>483.0</ele><time>2026-03-29T09:56:11Z</time></trkpt><trkpt lat="36.923959260734605" lon="14.605600643615787"><ele>483.2</ele><time>2026-03-29T09:56:12Z</time></trkpt><trkpt lat="36.9239355717164" lon="14.605725365487906"><ele>483.4</ele><time>2026-03-29T09:56:13Z</time></trkpt><trkpt lat="36.923913601426946" lon="14.605839157036714"><ele>483.59999999999997</ele><time>2026-03-29T09:56:14Z</time></trkpt><trkpt lat="36.923891807388955" lon="14.605974270829899"><ele>483.79999999999995</ele><time>2026-03-29T09:56:15Z</time></trkpt><trkpt lat="36.92387431020333" lon="14.606131871628023"><ele>484.0</ele><time>2026-03-29T09:56:16Z</time></trkpt><trkpt lat="36.9238469780733" lon="14.606400716770152"><ele>484.0</ele><time>2026-03-29T09:56:17Z</time></trkpt><trkpt lat="36.92382709374422" lon="14.60663913363213"><ele>484.0</ele><time>2026-03-29T09:56:18Z</time></trkpt><trkpt lat="36.92379361181756" lon="14.606868748996185"><ele>484.0</ele><time>2026-03-29T09:56:19Z</time></trkpt><trkpt lat="36.92376450034339" lon="14.607079206105675"><ele>485.0</ele><time>2026-03-29T09:56:20Z</time></trkpt><trkpt lat="36.92373601112742" lon="14.607280898738646"><ele>486.0</ele><time>2026-03-29T09:56:21Z</time></trkpt><trkpt lat="36.92370509822738" lon="14.607474412414568"><ele>487.0</ele><time>2026-03-29T09:56:22Z</time></trkpt><trkpt lat="36.92367710978199" lon="14.607654710844766"><ele>487.0</ele><time>2026-03-29T09:56:23Z</time></trkpt><trkpt lat="36.92364819363355" lon="14.607825381628329"><ele>487.0</ele><time>2026-03-29T09:56:24Z</time></trkpt><trkpt lat="36.92362378158746" lon="14.607994615649103"><ele>487.0</ele><time>2026-03-29T09:56:25Z</time></trkpt><trkpt lat="36.92359175989552" lon="14.60815324383005"><ele>487.0</ele><time>2026-03-29T09:56:26Z</time></trkpt><trkpt lat="36.92357027592685" lon="14.608308859546261"><ele>487.75</ele><time>2026-03-29T09:56:27Z</time></trkpt><trkpt lat="36.92356664841098" lon="14.608480312368266"><ele>488.5</ele><time>2026-03-29T09:56:28Z</time></trkpt><trkpt lat="36.92357196264478" lon="14.608635650558664"><ele>489.25</ele><time>2026-03-29T09:56:29Z</time></trkpt><trkpt lat="36.92359717354876" lon="14.608806536361811"><ele>490.0</ele><time>2026-03-29T09:56:30Z</time></trkpt><trkpt lat="36.92364137021723" lon="14.609003844728141"><ele>490.6666666666667</ele><time>2026-03-29T09:56:31Z</time></trkpt><trkpt lat="36.92369256233439" lon="14.609233921856017"><ele>491.33333333333337</ele><time>2026-03-29T09:56:32Z</time></trkpt><trkpt lat="36.92372156715217" lon="14.609478267763953"><ele>492.0</ele><time>2026-03-29T09:56:33Z</time></trkpt><trkpt lat="36.92375990926945" lon="14.609695062791666"><ele>493.33333333333337</ele><time>2026-03-29T09:56:34Z</time></trkpt><trkpt lat="36.923796163212174" lon="14.609898352873193"><ele>494.6666666666667</ele><time>2026-03-29T09:56:35Z</time></trkpt><trkpt lat="36.923830701028415" lon="14.610079718755605"><ele>496.0</ele><time>2026-03-29T09:56:36Z</time></trkpt><trkpt lat="36.923870110397615" lon="14.61028666630623"><ele>496.25</ele><time>2026-03-29T09:56:37Z</time></trkpt><trkpt lat="36.92391059058565" lon="14.610430518444337"><ele>496.5</ele><time>2026-03-29T09:56:38Z</time></trkpt><trkpt lat="36.92391771885227" lon="14.610606158677806"><ele>496.75</ele><time>2026-03-29T09:56:39Z</time></trkpt><trkpt lat="36.92391524202873" lon="14.610787175323283"><ele>497.0</ele><time>2026-03-29T09:56:40Z</time></trkpt><trkpt lat="36.923888800085365" lon="14.610934235265514"><ele>497.0</ele><time>2026-03-29T09:56:41Z</time></trkpt><trkpt lat="36.923850850727824" lon="14.611060159201577"><ele>497.0</ele><time>2026-03-29T09:56:42Z</time></trkpt><trkpt lat="36.92378030867133" lon="14.611170557398793"><ele>497.0</ele><time>2026-03-29T09:56:43Z</time></trkpt><trkpt lat="36.92367935586591" lon="14.611298549381912"><ele>497.0</ele><time>2026-03-29T09:56:44Z</time></trkpt><trkpt lat="36.92357212142285" lon="14.61144031877249"><ele>497.20000000000005</ele><time>2026-03-29T09:56:45Z</time></trkpt><trkpt lat="36.92347614785639" lon="14.611566907401096"><ele>497.40000000000003</ele><time>2026-03-29T09:56:46Z</time></trkpt><trkpt lat="36.92339406508958" lon="14.611658479437015"><ele>497.59999999999997</ele><time>2026-03-29T09:56:47Z</time></trkpt><trkpt lat="36.92331572325808" lon="14.611741460033"><ele>497.79999999999995</ele><time>2026-03-29T09:56:48Z</time></trkpt><trkpt lat="36.92325523902516" lon="14.611810062744489"><ele>498.0</ele><time>2026-03-29T09:56:49Z</time></trkpt><trkpt lat="36.92321565102753" lon="14.61188739994915"><ele>498.0</ele><time>2026-03-29T09:56:51Z</time></trkpt><trkpt lat="36.92321555250134" lon="14.611990080606448"><ele>497.99999999999994</ele><time>2026-03-29T09:56:53Z</time></trkpt><trkpt lat="36.92327687082111" lon="14.6120621480096"><ele>497.99999999999994</ele><time>2026-03-29T09:56:54Z</time></trkpt><trkpt lat="36.923295258047546" lon="14.612190867541198"><ele>498.0</ele><time>2026-03-29T09:56:55Z</time></trkpt><trkpt lat="36.923337205983785" lon="14.612336308542188"><ele>498.0</ele><time>2026-03-29T09:56:56Z</time></trkpt><trkpt lat="36.92337455719935" lon="14.61246581192854"><ele>499.2</ele><time>2026-03-29T09:56:57Z</time></trkpt><trkpt lat="36.92344228350872" lon="14.612606886191452"><ele>500.4</ele><time>2026-03-29T09:56:58Z</time></trkpt><trkpt lat="36.92348071763805" lon="14.612755448804378"><ele>501.59999999999997</ele><time>2026-03-29T09:56:59Z</time></trkpt><trkpt lat="36.923506471089304" lon="14.61285568245889"><ele>502.79999999999995</ele><time>2026-03-29T09:57:00Z</time></trkpt><trkpt lat="36.9235317933563" lon="14.612939336900347"><ele>504.0</ele><time>2026-03-29T09:57:01Z</time></trkpt><trkpt lat="36.92355626170625" lon="14.61302044767236"><ele>503.79999999999995</ele><time>2026-03-29T09:57:03Z</time></trkpt><trkpt lat="36.92349153724814" lon="14.612995875844433"><ele>503.59999999999997</ele><time>2026-03-29T09:57:05Z</time></trkpt><trkpt lat="36.92340395788011" lon="14.612902041078524"><ele>503.4</ele><time>2026-03-29T09:57:07Z</time></trkpt><trkpt lat="36.92335738436198" lon="14.612795931272858"><ele>503.2</ele><time>2026-03-29T09:57:08Z</time></trkpt><trkpt lat="36.923280657896015" lon="14.612679362754013"><ele>503.0</ele><time>2026-03-29T09:57:09Z</time></trkpt><trkpt lat="36.92316521005701" lon="14.61257814974736"><ele>503.0</ele><time>2026-03-29T09:57:10Z</time></trkpt><trkpt lat="36.92303206487309" lon="14.612441253658211"><ele>503.0</ele><time>2026-03-29T09:57:11Z</time></trkpt><trkpt lat="36.92287461668352" lon="14.612333292769476"><ele>503.0</ele><time>2026-03-29T09:57:12Z</time></trkpt><trkpt lat="36.92271681190472" lon="14.612249753005102"><ele>502.66666666666663</ele><time>2026-03-29T09:57:13Z</time></trkpt><trkpt lat="36.92253865410032" lon="14.612194539268199"><ele>502.33333333333337</ele><time>2026-03-29T09:57:14Z</time></trkpt><trkpt lat="36.92236535399828" lon="14.612160300736285"><ele>502.0</ele><time>2026-03-29T09:57:15Z</time></trkpt><trkpt lat="36.922186510487386" lon="14.612151631895939"><ele>502.0</ele><time>2026-03-29T09:57:16Z</time></trkpt><trkpt lat="36.922024533519355" lon="14.612159038792502"><ele>502.0</ele><time>2026-03-29T09:57:17Z</time></trkpt><trkpt lat="36.921850386188616" lon="14.612154050257281"><ele>502.0</ele><time>2026-03-29T09:57:18Z</time></trkpt><trkpt lat="36.921681663258454" lon="14.612138977765536"><ele>502.0</ele><time>2026-03-29T09:57:19Z</time></trkpt><trkpt lat="36.92151052990907" lon="14.612128276620206"><ele>502.0</ele><time>2026-03-29T09:57:20Z</time></trkpt><trkpt lat="36.92134952840645" lon="14.612114930705816"><ele>502.0</ele><time>2026-03-29T09:57:21Z</time></trkpt><trkpt lat="36.921189422199056" lon="14.612093249711748"><ele>502.0</ele><time>2026-03-29T09:57:22Z</time></trkpt><trkpt lat="36.92104585382435" lon="14.612075805866143"><ele>502.0</ele><time>2026-03-29T09:57:23Z</time></trkpt><trkpt lat="36.9209097114332" lon="14.612037426446634"><ele>502.0</ele><time>2026-03-29T09:57:24Z</time></trkpt><trkpt lat="36.9207766360955" lon="14.61198345573597"><ele>502.0</ele><time>2026-03-29T09:57:25Z</time></trkpt><trkpt lat="36.92064169846493" lon="14.611911685433235"><ele>499.6666666666667</ele><time>2026-03-29T09:57:26Z</time></trkpt><trkpt lat="36.920509712964794" lon="14.611827208618092"><ele>497.33333333333337</ele><time>2026-03-29T09:57:27Z</time></trkpt><trkpt lat="36.920376256727565" lon="14.611742824225539"><ele>495.0</ele><time>2026-03-29T09:57:28Z</time></trkpt><trkpt lat="36.92024304095798" lon="14.611633810699088"><ele>495.0</ele><time>2026-03-29T09:57:29Z</time></trkpt><trkpt lat="36.920094656553985" lon="14.611519275580475"><ele>495.0</ele><time>2026-03-29T09:57:30Z</time></trkpt><trkpt lat="36.91994409741442" lon="14.611382182978696"><ele>495.0</ele><time>2026-03-29T09:57:31Z</time></trkpt><trkpt lat="36.91980319184348" lon="14.611267952737284"><ele>493.33333333333337</ele><time>2026-03-29T09:57:32Z</time></trkpt><trkpt lat="36.91965848031964" lon="14.611149577200479"><ele>491.6666666666667</ele><time>2026-03-29T09:57:33Z</time></trkpt><trkpt lat="36.9195219644294" lon="14.611035302508274"><ele>490.0</ele><time>2026-03-29T09:57:34Z</time></trkpt><trkpt lat="36.919385124101886" lon="14.610916622816621"><ele>490.0</ele><time>2026-03-29T09:57:35Z</time></trkpt><trkpt lat="36.91924304983108" lon="14.610798414326203"><ele>490.0</ele><time>2026-03-29T09:57:36Z</time></trkpt><trkpt lat="36.919105392027504" lon="14.610685107236243"><ele>490.0</ele><time>2026-03-29T09:57:37Z</time></trkpt><trkpt lat="36.918967079857644" lon="14.61057380449695"><ele>490.0</ele><time>2026-03-29T09:57:38Z</time></trkpt><trkpt lat="36.918830837670264" lon="14.610463996979917"><ele>490.0</ele><time>2026-03-29T09:57:39Z</time></trkpt><trkpt lat="36.918704458488776" lon="14.610348641485285"><ele>490.0</ele><time>2026-03-29T09:57:40Z</time></trkpt><trkpt lat="36.91857542785907" lon="14.610233782994772"><ele>488.6666666666667</ele><time>2026-03-29T09:57:41Z</time></trkpt><trkpt lat="36.91844532056251" lon="14.610122494877947"><ele>487.33333333333337</ele><time>2026-03-29T09:57:42Z</time></trkpt><trkpt lat="36.91831314580095" lon="14.610010230022016"><ele>486.0</ele><time>2026-03-29T09:57:43Z</time></trkpt><trkpt lat="36.91818515528087" lon="14.609899065578682"><ele>485.33333333333337</ele><time>2026-03-29T09:57:44Z</time></trkpt><trkpt lat="36.91805768826829" lon="14.60979446453033"><ele>484.6666666666667</ele><time>2026-03-29T09:57:45Z</time></trkpt><trkpt lat="36.91792095052692" lon="14.60967920885407"><ele>484.0</ele><time>2026-03-29T09:57:46Z</time></trkpt><trkpt lat="36.91778632752428" lon="14.609561398502349"><ele>483.0</ele><time>2026-03-29T09:57:47Z</time></trkpt><trkpt lat="36.91765241545148" lon="14.609447718447637"><ele>482.0</ele><time>2026-03-29T09:57:48Z</time></trkpt><trkpt lat="36.91752117894559" lon="14.609335187008739"><ele>481.0</ele><time>2026-03-29T09:57:49Z</time></trkpt><trkpt lat="36.917391235211056" lon="14.609227805850793"><ele>480.6666666666667</ele><time>2026-03-29T09:57:50Z</time></trkpt><trkpt lat="36.91726533889252" lon="14.609120015920448"><ele>480.33333333333337</ele><time>2026-03-29T09:57:51Z</time></trkpt><trkpt lat="36.91713552680422" lon="14.609010233732379"><ele>480.0</ele><time>2026-03-29T09:57:52Z</time></trkpt><trkpt lat="36.917015057803695" lon="14.608906279735761"><ele>480.0</ele><time>2026-03-29T09:57:53Z</time></trkpt><trkpt lat="36.916897597796016" lon="14.608804980406797"><ele>480.0</ele><time>2026-03-29T09:57:54Z</time></trkpt><trkpt lat="36.91678886725431" lon="14.6087087891062"><ele>480.0</ele><time>2026-03-29T09:57:55Z</time></trkpt><trkpt lat="36.91668883557831" lon="14.60862241964892"><ele>480.0</ele><time>2026-03-29T09:57:56Z</time></trkpt><trkpt lat="36.916591908871226" lon="14.608535420535881"><ele>479.0</ele><time>2026-03-29T09:57:57Z</time></trkpt><trkpt lat="36.91649725998417" lon="14.608440840241306"><ele>478.0</ele><time>2026-03-29T09:57:58Z</time></trkpt><trkpt lat="36.9164075204845" lon="14.608336564438773"><ele>477.0</ele><time>2026-03-29T09:57:59Z</time></trkpt><trkpt lat="36.91632169976831" lon="14.60823119306482"><ele>476.0</ele><time>2026-03-29T09:58:00Z</time></trkpt><trkpt lat="36.91624024321183" lon="14.60814147343361"><ele>475.99999999999994</ele><time>2026-03-29T09:58:01Z</time></trkpt><trkpt lat="36.91619050687097" lon="14.608038850717795"><ele>476.0</ele><time>2026-03-29T09:58:02Z</time></trkpt><trkpt lat="36.91612609434897" lon="14.608012491231937"><ele>476.0</ele><time>2026-03-29T09:58:03Z</time></trkpt><trkpt lat="36.91606143922982" lon="14.60802772215166"><ele>476.0</ele><time>2026-03-29T09:58:04Z</time></trkpt><trkpt lat="36.915997966518994" lon="14.608087169562214"><ele>475.99999999999994</ele><time>2026-03-29T09:58:05Z</time></trkpt><trkpt lat="36.91595586887222" lon="14.608175748869938"><ele>476.0</ele><time>2026-03-29T09:58:06Z</time></trkpt><trkpt lat="36.91595923642867" lon="14.608283737866255"><ele>476.0</ele><time>2026-03-29T09:58:07Z</time></trkpt><trkpt lat="36.915990960629" lon="14.60840091533405"><ele>476.0</ele><time>2026-03-29T09:58:08Z</time></trkpt><trkpt lat="36.916020284037025" lon="14.608552670804272"><ele>476.0</ele><time>2026-03-29T09:58:09Z</time></trkpt><trkpt lat="36.91603546699013" lon="14.608730394481835"><ele>476.0</ele><time>2026-03-29T09:58:10Z</time></trkpt><trkpt lat="36.91603807570549" lon="14.608880745084583"><ele>476.6</ele><time>2026-03-29T09:58:11Z</time></trkpt><trkpt lat="36.91603492235499" lon="14.609019077564355"><ele>477.20000000000005</ele><time>2026-03-29T09:58:12Z</time></trkpt><trkpt lat="36.91603333720947" lon="14.609158972751985"><ele>477.79999999999995</ele><time>2026-03-29T09:58:13Z</time></trkpt><trkpt lat="36.91604124625897" lon="14.609300835544456"><ele>478.4</ele><time>2026-03-29T09:58:14Z</time></trkpt><trkpt lat="36.916053825451165" lon="14.609440049500076"><ele>479.0</ele><time>2026-03-29T09:58:15Z</time></trkpt><trkpt lat="36.916055281253435" lon="14.60957473496649"><ele>479.79999999999995</ele><time>2026-03-29T09:58:16Z</time></trkpt><trkpt lat="36.91606242921165" lon="14.609709022209646"><ele>480.59999999999997</ele><time>2026-03-29T09:58:17Z</time></trkpt><trkpt lat="36.91606852390055" lon="14.609849304208069"><ele>481.4</ele><time>2026-03-29T09:58:18Z</time></trkpt><trkpt lat="36.91607554347082" lon="14.609982794244509"><ele>482.2</ele><time>2026-03-29T09:58:19Z</time></trkpt><trkpt lat="36.91608136445457" lon="14.610097339693343"><ele>483.0</ele><time>2026-03-29T09:58:20Z</time></trkpt><trkpt lat="36.91609435328212" lon="14.610193700566636"><ele>483.0</ele><time>2026-03-29T09:58:22Z</time></trkpt><trkpt lat="36.91609772993396" lon="14.610281548580849"><ele>482.99999999999994</ele><time>2026-03-29T09:58:27Z</time></trkpt><trkpt lat="36.916118686014634" lon="14.610172324558889"><ele>482.99999999999994</ele><time>2026-03-29T10:03:18Z</time></trkpt><trkpt lat="36.916120483086566" lon="14.610039999657715"><ele>483.0</ele><time>2026-03-29T10:03:19Z</time></trkpt><trkpt lat="36.91611726288891" lon="14.60987950628416"><ele>483.0</ele><time>2026-03-29T10:03:20Z</time></trkpt><trkpt lat="36.916122295064206" lon="14.609708375116695"><ele>483.0</ele><time>2026-03-29T10:03:21Z</time></trkpt><trkpt lat="36.91611719880318" lon="14.60950722793866"><ele>483.0</ele><time>2026-03-29T10:03:22Z</time></trkpt><trkpt lat="36.916074647680205" lon="14.609314612031332"><ele>483.0</ele><time>2026-03-29T10:03:23Z</time></trkpt><trkpt lat="36.91607172482135" lon="14.609113863058298"><ele>482.0</ele><time>2026-03-29T10:03:24Z</time></trkpt><trkpt lat="36.916070726233684" lon="14.608937133159772"><ele>481.0</ele><time>2026-03-29T10:03:25Z</time></trkpt><trkpt lat="36.91609483379496" lon="14.608770081974182"><ele>480.0</ele><time>2026-03-29T10:03:26Z</time></trkpt><trkpt lat="36.91610252876606" lon="14.608635837861142"><ele>479.0</ele><time>2026-03-29T10:03:27Z</time></trkpt><trkpt lat="36.91613290891515" lon="14.608504434173565"><ele>478.49999999999994</ele><time>2026-03-29T10:03:28Z</time></trkpt><trkpt lat="36.916179267154455" lon="14.608395739481098"><ele>478.0</ele><time>2026-03-29T10:03:29Z</time></trkpt><trkpt lat="36.91623661845931" lon="14.608309352330267"><ele>477.5</ele><time>2026-03-29T10:03:30Z</time></trkpt><trkpt lat="36.916282832135536" lon="14.608216462192063"><ele>477.0</ele><time>2026-03-29T10:03:31Z</time></trkpt><trkpt lat="36.916296680378004" lon="14.608131844285708"><ele>476.49999999999994</ele><time>2026-03-29T10:03:32Z</time></trkpt><trkpt lat="36.9162719843654" lon="14.608048489727492"><ele>476.0</ele><time>2026-03-29T10:03:33Z</time></trkpt><trkpt lat="36.916218858229136" lon="14.607972967852895"><ele>475.99999999999994</ele><time>2026-03-29T10:03:34Z</time></trkpt><trkpt lat="36.91615329266681" lon="14.607937736866528"><ele>476.0</ele><time>2026-03-29T10:03:35Z</time></trkpt><trkpt lat="36.91606841882278" lon="14.60796972688842"><ele>476.0</ele><time>2026-03-29T10:03:36Z</time></trkpt><trkpt lat="36.91600295762431" lon="14.608024835859162"><ele>476.0</ele><time>2026-03-29T10:03:37Z</time></trkpt><trkpt lat="36.915952126762456" lon="14.6081119228865"><ele>475.99999999999994</ele><time>2026-03-29T10:03:38Z</time></trkpt><trkpt lat="36.91593253064776" lon="14.608214509591006"><ele>476.0</ele><time>2026-03-29T10:03:39Z</time></trkpt><trkpt lat="36.91594134825228" lon="14.60832815521019"><ele>476.0</ele><time>2026-03-29T10:03:40Z</time></trkpt><trkpt lat="36.91597557613312" lon="14.608466181893446"><ele>476.0</ele><time>2026-03-29T10:03:41Z</time></trkpt><trkpt lat="36.91600754319547" lon="14.608618845336672"><ele>476.0</ele><time>2026-03-29T10:03:42Z</time></trkpt><trkpt lat="36.91602430147434" lon="14.608826231085041"><ele>476.0</ele><time>2026-03-29T10:03:43Z</time></trkpt><trkpt lat="36.91603133937206" lon="14.60904090643958"><ele>477.0</ele><time>2026-03-29T10:03:44Z</time></trkpt><trkpt lat="36.91603988431461" lon="14.60927143641373"><ele>478.0</ele><time>2026-03-29T10:03:45Z</time></trkpt><trkpt lat="36.91604504195262" lon="14.60951833934942"><ele>479.0</ele><time>2026-03-29T10:03:46Z</time></trkpt><trkpt lat="36.916061454763415" lon="14.609806042076494"><ele>480.3333333333333</ele><time>2026-03-29T10:03:47Z</time></trkpt><trkpt lat="36.91609242419485" lon="14.610072836232714"><ele>481.66666666666663</ele><time>2026-03-29T10:03:48Z</time></trkpt><trkpt lat="36.91611115086509" lon="14.610342626078138"><ele>483.0</ele><time>2026-03-29T10:03:49Z</time></trkpt><trkpt lat="36.91612099824547" lon="14.61057969133485"><ele>483.33333333333337</ele><time>2026-03-29T10:03:50Z</time></trkpt><trkpt lat="36.91612572986427" lon="14.61077196906033"><ele>483.6666666666667</ele><time>2026-03-29T10:03:51Z</time></trkpt><trkpt lat="36.916132309416284" lon="14.610975991008257"><ele>484.0</ele><time>2026-03-29T10:03:52Z</time></trkpt><trkpt lat="36.91614547073158" lon="14.611198885648207"><ele>486.33333333333337</ele><time>2026-03-29T10:03:53Z</time></trkpt><trkpt lat="36.91614881221047" lon="14.611414202993416"><ele>488.66666666666663</ele><time>2026-03-29T10:03:54Z</time></trkpt><trkpt lat="36.916143761062884" lon="14.611621023194916"><ele>491.0</ele><time>2026-03-29T10:03:55Z</time></trkpt><trkpt lat="36.916133159130084" lon="14.6118286112348"><ele>493.0</ele><time>2026-03-29T10:03:56Z</time></trkpt><trkpt lat="36.91611359881825" lon="14.612037395680645"><ele>495.0</ele><time>2026-03-29T10:03:57Z</time></trkpt><trkpt lat="36.916092468575066" lon="14.61223229868923"><ele>497.0</ele><time>2026-03-29T10:03:58Z</time></trkpt><trkpt lat="36.91606954343249" lon="14.612438300525149"><ele>497.0</ele><time>2026-03-29T10:03:59Z</time></trkpt><trkpt lat="36.91604961897377" lon="14.612643345778753"><ele>497.0</ele><time>2026-03-29T10:04:00Z</time></trkpt><trkpt lat="36.9160230635597" lon="14.612872619279736"><ele>497.0</ele><time>2026-03-29T10:04:01Z</time></trkpt><trkpt lat="36.916001245343864" lon="14.613093586308795"><ele>499.0</ele><time>2026-03-29T10:04:02Z</time></trkpt><trkpt lat="36.91597699561473" lon="14.613340596741345"><ele>501.0</ele><time>2026-03-29T10:04:03Z</time></trkpt><trkpt lat="36.91595218010109" lon="14.61359219625243"><ele>503.0</ele><time>2026-03-29T10:04:04Z</time></trkpt><trkpt lat="36.91593816107238" lon="14.6138161901462"><ele>504.66666666666663</ele><time>2026-03-29T10:04:05Z</time></trkpt><trkpt lat="36.915941322874446" lon="14.61404478382839"><ele>506.33333333333337</ele><time>2026-03-29T10:04:06Z</time></trkpt><trkpt lat="36.915944431621604" lon="14.614273348262845"><ele>508.0</ele><time>2026-03-29T10:04:07Z</time></trkpt><trkpt lat="36.91594972437071" lon="14.614499343965184"><ele>510.0</ele><time>2026-03-29T10:04:08Z</time></trkpt><trkpt lat="36.915971297553774" lon="14.614718557089546"><ele>512.0</ele><time>2026-03-29T10:04:09Z</time></trkpt><trkpt lat="36.91601410768416" lon="14.61493135547473"><ele>514.0</ele><time>2026-03-29T10:04:10Z</time></trkpt><trkpt lat="36.916055413142026" lon="14.615143345714102"><ele>515.3333333333334</ele><time>2026-03-29T10:04:11Z</time></trkpt><trkpt lat="36.916093677442056" lon="14.615355439328223"><ele>516.6666666666666</ele><time>2026-03-29T10:04:12Z</time></trkpt><trkpt lat="36.91612304029027" lon="14.615563952740043"><ele>518.0</ele><time>2026-03-29T10:04:13Z</time></trkpt><trkpt lat="36.91616589700119" lon="14.615770712016882"><ele>518.0</ele><time>2026-03-29T10:04:14Z</time></trkpt><trkpt lat="36.91619646028407" lon="14.615968155085511"><ele>518.0</ele><time>2026-03-29T10:04:15Z</time></trkpt><trkpt lat="36.91623103903582" lon="14.616176131258687"><ele>518.0</ele><time>2026-03-29T10:04:16Z</time></trkpt><trkpt lat="36.91628412708336" lon="14.61640487991749"><ele>518.6666666666666</ele><time>2026-03-29T10:04:17Z</time></trkpt><trkpt lat="36.91630381900954" lon="14.616620287057092"><ele>519.3333333333334</ele><time>2026-03-29T10:04:18Z</time></trkpt><trkpt lat="36.91631108253792" lon="14.616847139466188"><ele>520.0</ele><time>2026-03-29T10:04:19Z</time></trkpt><trkpt lat="36.91630041827765" lon="14.617066105490528"><ele>521.0</ele><time>2026-03-29T10:04:20Z</time></trkpt><trkpt lat="36.91627693905926" lon="14.617301192906583"><ele>522.0</ele><time>2026-03-29T10:04:21Z</time></trkpt><trkpt lat="36.91624855108348" lon="14.617523697054851"><ele>523.0</ele><time>2026-03-29T10:04:22Z</time></trkpt><trkpt lat="36.9162150598177" lon="14.617765514877332"><ele>523.3333333333334</ele><time>2026-03-29T10:04:23Z</time></trkpt><trkpt lat="36.91618842967067" lon="14.617989050703544"><ele>523.6666666666666</ele><time>2026-03-29T10:04:24Z</time></trkpt><trkpt lat="36.91615545288595" lon="14.618204049772919"><ele>524.0</ele><time>2026-03-29T10:04:25Z</time></trkpt><trkpt lat="36.916111535043214" lon="14.618422106072636"><ele>524.0</ele><time>2026-03-29T10:04:26Z</time></trkpt><trkpt lat="36.91605328684855" lon="14.618644208664788"><ele>524.0</ele><time>2026-03-29T10:04:27Z</time></trkpt><trkpt lat="36.91600253834551" lon="14.618853021749874"><ele>524.0</ele><time>2026-03-29T10:04:28Z</time></trkpt><trkpt lat="36.915961598994414" lon="14.619051670963477"><ele>524.0</ele><time>2026-03-29T10:04:29Z</time></trkpt><trkpt lat="36.915910905041486" lon="14.619246543167186"><ele>524.0</ele><time>2026-03-29T10:04:30Z</time></trkpt><trkpt lat="36.91585409026613" lon="14.619446967605336"><ele>524.0</ele><time>2026-03-29T10:04:31Z</time></trkpt><trkpt lat="36.9157864356619" lon="14.619642575715288"><ele>523.3333333333333</ele><time>2026-03-29T10:04:32Z</time></trkpt><trkpt lat="36.91571687988688" lon="14.619835647508161"><ele>522.6666666666666</ele><time>2026-03-29T10:04:33Z</time></trkpt><trkpt lat="36.915658713242934" lon="14.620029277020299"><ele>522.0</ele><time>2026-03-29T10:04:34Z</time></trkpt><trkpt lat="36.9155928321955" lon="14.6202348439283"><ele>522.6666666666666</ele><time>2026-03-29T10:04:35Z</time></trkpt><trkpt lat="36.91553566362041" lon="14.62043593370983"><ele>523.3333333333333</ele><time>2026-03-29T10:04:36Z</time></trkpt><trkpt lat="36.91547546995038" lon="14.620638934304248"><ele>524.0</ele><time>2026-03-29T10:04:37Z</time></trkpt><trkpt lat="36.915412964797845" lon="14.620838086277377"><ele>524.0</ele><time>2026-03-29T10:04:38Z</time></trkpt><trkpt lat="36.9153470041356" lon="14.621061090483508"><ele>524.0</ele><time>2026-03-29T10:04:39Z</time></trkpt><trkpt lat="36.91528344710345" lon="14.621269823854513"><ele>524.0</ele><time>2026-03-29T10:04:40Z</time></trkpt><trkpt lat="36.91522523884891" lon="14.62146621286676"><ele>525.0</ele><time>2026-03-29T10:04:41Z</time></trkpt><trkpt lat="36.915162388387834" lon="14.62166572116115"><ele>526.0</ele><time>2026-03-29T10:04:42Z</time></trkpt><trkpt lat="36.91510938223113" lon="14.621861995906634"><ele>527.0</ele><time>2026-03-29T10:04:43Z</time></trkpt><trkpt lat="36.91505076618435" lon="14.622060093456996"><ele>527.3333333333333</ele><time>2026-03-29T10:04:44Z</time></trkpt><trkpt lat="36.91499389571809" lon="14.622258072517235"><ele>527.6666666666666</ele><time>2026-03-29T10:04:45Z</time></trkpt><trkpt lat="36.91493399647862" lon="14.622450200703604"><ele>528.0</ele><time>2026-03-29T10:04:46Z</time></trkpt><trkpt lat="36.91487182819743" lon="14.622652012855404"><ele>529.0</ele><time>2026-03-29T10:04:47Z</time></trkpt><trkpt lat="36.91481134253754" lon="14.622841867827521"><ele>530.0</ele><time>2026-03-29T10:04:48Z</time></trkpt><trkpt lat="36.9147476723392" lon="14.623034569789079"><ele>531.0</ele><time>2026-03-29T10:04:49Z</time></trkpt><trkpt lat="36.914684644293054" lon="14.623219847420275"><ele>531.0</ele><time>2026-03-29T10:04:50Z</time></trkpt><trkpt lat="36.914608044749876" lon="14.623410756231875"><ele>531.0</ele><time>2026-03-29T10:04:51Z</time></trkpt><trkpt lat="36.91452723495007" lon="14.623597540124518"><ele>531.0</ele><time>2026-03-29T10:04:52Z</time></trkpt><trkpt lat="36.91444131305346" lon="14.623781345946432"><ele>531.6666666666666</ele><time>2026-03-29T10:04:53Z</time></trkpt><trkpt lat="36.91432367249968" lon="14.623981532755902"><ele>532.3333333333333</ele><time>2026-03-29T10:04:54Z</time></trkpt><trkpt lat="36.914224598099494" lon="14.624161645147446"><ele>533.0</ele><time>2026-03-29T10:04:55Z</time></trkpt><trkpt lat="36.91412531178924" lon="14.624325874177625"><ele>533.6666666666666</ele><time>2026-03-29T10:04:56Z</time></trkpt><trkpt lat="36.91401573086369" lon="14.624481836985955"><ele>534.3333333333334</ele><time>2026-03-29T10:04:57Z</time></trkpt><trkpt lat="36.91391829239508" lon="14.624632826538987"><ele>535.0</ele><time>2026-03-29T10:04:58Z</time></trkpt><trkpt lat="36.91382249535606" lon="14.624779253566784"><ele>535.0</ele><time>2026-03-29T10:04:59Z</time></trkpt><trkpt lat="36.91374252256294" lon="14.62492957339132"><ele>535.0</ele><time>2026-03-29T10:05:00Z</time></trkpt><trkpt lat="36.91371198378743" lon="14.625090511651344"><ele>535.0</ele><time>2026-03-29T10:05:01Z</time></trkpt><trkpt lat="36.913690652624275" lon="14.625245940226337"><ele>535.0</ele><time>2026-03-29T10:05:02Z</time></trkpt><trkpt lat="36.91371845178394" lon="14.625443094431132"><ele>534.5</ele><time>2026-03-29T10:05:03Z</time></trkpt><trkpt lat="36.913746491679724" lon="14.625597341252103"><ele>534.0</ele><time>2026-03-29T10:05:04Z</time></trkpt><trkpt lat="36.91377512649905" lon="14.625791003961321"><ele>533.5</ele><time>2026-03-29T10:05:05Z</time></trkpt><trkpt lat="36.91381241751794" lon="14.625992428258511"><ele>533.0</ele><time>2026-03-29T10:05:06Z</time></trkpt><trkpt lat="36.91384495935162" lon="14.626219224527782"><ele>531.6666666666666</ele><time>2026-03-29T10:05:07Z</time></trkpt><trkpt lat="36.913887681064075" lon="14.626421391606469"><ele>530.3333333333334</ele><time>2026-03-29T10:05:08Z</time></trkpt><trkpt lat="36.913931560764034" lon="14.626621404920705"><ele>529.0</ele><time>2026-03-29T10:05:09Z</time></trkpt><trkpt lat="36.91397744561821" lon="14.626824605994555"><ele>527.6666666666667</ele><time>2026-03-29T10:05:10Z</time></trkpt><trkpt lat="36.914009330099596" lon="14.627025352570534"><ele>526.3333333333334</ele><time>2026-03-29T10:05:11Z</time></trkpt><trkpt lat="36.91404626771142" lon="14.627225359379082"><ele>525.0</ele><time>2026-03-29T10:05:12Z</time></trkpt><trkpt lat="36.91409484180578" lon="14.627425679651555"><ele>525.0</ele><time>2026-03-29T10:05:13Z</time></trkpt><trkpt lat="36.914152928144915" lon="14.627632969863157"><ele>525.0</ele><time>2026-03-29T10:05:14Z</time></trkpt><trkpt lat="36.914224995521366" lon="14.627831628084603"><ele>525.0</ele><time>2026-03-29T10:05:15Z</time></trkpt><trkpt lat="36.91429700806412" lon="14.628035248405624"><ele>526.6666666666666</ele><time>2026-03-29T10:05:16Z</time></trkpt><trkpt lat="36.91436997054955" lon="14.628238685244954"><ele>528.3333333333333</ele><time>2026-03-29T10:05:17Z</time></trkpt><trkpt lat="36.914446034931395" lon="14.628434575287628"><ele>530.0</ele><time>2026-03-29T10:05:18Z</time></trkpt><trkpt lat="36.914517720441175" lon="14.62863296756442"><ele>528.0</ele><time>2026-03-29T10:05:19Z</time></trkpt><trkpt lat="36.91459137273379" lon="14.62883460846595"><ele>526.0</ele><time>2026-03-29T10:05:20Z</time></trkpt><trkpt lat="36.914660292839166" lon="14.62903365578804"><ele>524.0</ele><time>2026-03-29T10:05:21Z</time></trkpt><trkpt lat="36.91473466543652" lon="14.629232213128711"><ele>524.0</ele><time>2026-03-29T10:05:22Z</time></trkpt><trkpt lat="36.91481409638968" lon="14.629432332761265"><ele>524.0</ele><time>2026-03-29T10:05:23Z</time></trkpt><trkpt lat="36.91489208513709" lon="14.629640146833514"><ele>524.0</ele><time>2026-03-29T10:05:24Z</time></trkpt><trkpt lat="36.91496685736747" lon="14.629849035124078"><ele>522.0</ele><time>2026-03-29T10:05:25Z</time></trkpt><trkpt lat="36.91504256704122" lon="14.63006202856193"><ele>520.0</ele><time>2026-03-29T10:05:26Z</time></trkpt><trkpt lat="36.915113547380884" lon="14.630270372716833"><ele>518.0</ele><time>2026-03-29T10:05:27Z</time></trkpt><trkpt lat="36.915173482060545" lon="14.630460295048431"><ele>522.0</ele><time>2026-03-29T10:05:28Z</time></trkpt><trkpt lat="36.915236032527226" lon="14.630630854384554"><ele>526.0</ele><time>2026-03-29T10:05:29Z</time></trkpt><trkpt lat="36.915275663083065" lon="14.630828825012918"><ele>530.0</ele><time>2026-03-29T10:05:30Z</time></trkpt><trkpt lat="36.91530200630013" lon="14.63102516428841"><ele>529.3333333333333</ele><time>2026-03-29T10:05:31Z</time></trkpt><trkpt lat="36.9153128421898" lon="14.631227767508687"><ele>528.6666666666666</ele><time>2026-03-29T10:05:32Z</time></trkpt><trkpt lat="36.91532292164049" lon="14.63143531359727"><ele>528.0</ele><time>2026-03-29T10:05:33Z</time></trkpt><trkpt lat="36.915319662261695" lon="14.631642987683529"><ele>528.0</ele><time>2026-03-29T10:05:34Z</time></trkpt><trkpt lat="36.91529818171675" lon="14.631835276505965"><ele>528.0</ele><time>2026-03-29T10:05:35Z</time></trkpt><trkpt lat="36.915267246860346" lon="14.632036752244266"><ele>528.0</ele><time>2026-03-29T10:05:36Z</time></trkpt><trkpt lat="36.91521887707226" lon="14.632232690216314"><ele>527.3333333333334</ele><time>2026-03-29T10:05:37Z</time></trkpt><trkpt lat="36.91515695715397" lon="14.632431722033592"><ele>526.6666666666667</ele><time>2026-03-29T10:05:38Z</time></trkpt><trkpt lat="36.915074892976804" lon="14.632623594041952"><ele>526.0</ele><time>2026-03-29T10:05:39Z</time></trkpt><trkpt lat="36.91498511104225" lon="14.632812793376019"><ele>522.6666666666667</ele><time>2026-03-29T10:05:40Z</time></trkpt><trkpt lat="36.91489448675747" lon="14.633002312747685"><ele>519.3333333333334</ele><time>2026-03-29T10:05:41Z</time></trkpt><trkpt lat="36.91480110068845" lon="14.63319447293851"><ele>516.0</ele><time>2026-03-29T10:05:42Z</time></trkpt><trkpt lat="36.914717045643215" lon="14.63338875197082"><ele>516.0</ele><time>2026-03-29T10:05:43Z</time></trkpt><trkpt lat="36.914625261736404" lon="14.633578405754731"><ele>516.0</ele><time>2026-03-29T10:05:44Z</time></trkpt><trkpt lat="36.914540240462514" lon="14.633774415371214"><ele>516.0</ele><time>2026-03-29T10:05:45Z</time></trkpt><trkpt lat="36.914453318105956" lon="14.63396785062157"><ele>516.3333333333334</ele><time>2026-03-29T10:05:46Z</time></trkpt><trkpt lat="36.91436469114051" lon="14.634159922574687"><ele>516.6666666666667</ele><time>2026-03-29T10:05:47Z</time></trkpt><trkpt lat="36.9142698522029" lon="14.634357292050842"><ele>517.0</ele><time>2026-03-29T10:05:48Z</time></trkpt><trkpt lat="36.91418220878537" lon="14.63455588392349"><ele>518.3333333333334</ele><time>2026-03-29T10:05:49Z</time></trkpt><trkpt lat="36.914095690456506" lon="14.63473379863874"><ele>519.6666666666666</ele><time>2026-03-29T10:05:50Z</time></trkpt><trkpt lat="36.914017486465575" lon="14.634908287604803"><ele>521.0</ele><time>2026-03-29T10:05:51Z</time></trkpt><trkpt lat="36.91394406636899" lon="14.635102354444466"><ele>521.0</ele><time>2026-03-29T10:05:52Z</time></trkpt><trkpt lat="36.91387706962849" lon="14.63529349501477"><ele>521.0</ele><time>2026-03-29T10:05:53Z</time></trkpt><trkpt lat="36.91381420867908" lon="14.635489274768677"><ele>521.0</ele><time>2026-03-29T10:05:54Z</time></trkpt><trkpt lat="36.913757709850216" lon="14.635686609408257"><ele>522.0</ele><time>2026-03-29T10:05:55Z</time></trkpt><trkpt lat="36.91370861388453" lon="14.635876000325185"><ele>523.0</ele><time>2026-03-29T10:05:56Z</time></trkpt><trkpt lat="36.913661013493595" lon="14.63607027681755"><ele>524.0</ele><time>2026-03-29T10:05:57Z</time></trkpt><trkpt lat="36.91362856436657" lon="14.636275365405258"><ele>525.0</ele><time>2026-03-29T10:05:58Z</time></trkpt><trkpt lat="36.91360574213894" lon="14.636481459514165"><ele>526.0</ele><time>2026-03-29T10:05:59Z</time></trkpt><trkpt lat="36.9135930204877" lon="14.636694817949468"><ele>527.0</ele><time>2026-03-29T10:06:00Z</time></trkpt><trkpt lat="36.91358500424358" lon="14.636914952588176"><ele>528.6666666666666</ele><time>2026-03-29T10:06:01Z</time></trkpt><trkpt lat="36.91358201169882" lon="14.637144368738683"><ele>530.3333333333334</ele><time>2026-03-29T10:06:02Z</time></trkpt><trkpt lat="36.91358263334992" lon="14.637368837755742"><ele>532.0</ele><time>2026-03-29T10:06:03Z</time></trkpt><trkpt lat="36.91358546532286" lon="14.637595461787845"><ele>533.6666666666667</ele><time>2026-03-29T10:06:04Z</time></trkpt><trkpt lat="36.913581794612725" lon="14.637811885446038"><ele>535.3333333333334</ele><time>2026-03-29T10:06:05Z</time></trkpt><trkpt lat="36.913578615564" lon="14.638021402539376"><ele>537.0</ele><time>2026-03-29T10:06:06Z</time></trkpt><trkpt lat="36.91357344961537" lon="14.63824051686113"><ele>537.0</ele><time>2026-03-29T10:06:07Z</time></trkpt><trkpt lat="36.9135724265317" lon="14.638454659160232"><ele>537.0</ele><time>2026-03-29T10:06:08Z</time></trkpt><trkpt lat="36.91357439100832" lon="14.638659709429762"><ele>537.0</ele><time>2026-03-29T10:06:09Z</time></trkpt><trkpt lat="36.913569296600066" lon="14.638854769696463"><ele>537.6666666666666</ele><time>2026-03-29T10:06:10Z</time></trkpt><trkpt lat="36.91356566469565" lon="14.639058638220819"><ele>538.3333333333333</ele><time>2026-03-29T10:06:11Z</time></trkpt><trkpt lat="36.91356426771662" lon="14.639274418146945"><ele>539.0</ele><time>2026-03-29T10:06:12Z</time></trkpt><trkpt lat="36.913577800882244" lon="14.639488525077473"><ele>539.6666666666666</ele><time>2026-03-29T10:06:13Z</time></trkpt><trkpt lat="36.9135914893189" lon="14.639697786057717"><ele>540.3333333333334</ele><time>2026-03-29T10:06:14Z</time></trkpt><trkpt lat="36.913608921608464" lon="14.639898195989247"><ele>541.0</ele><time>2026-03-29T10:06:15Z</time></trkpt><trkpt lat="36.91363141891808" lon="14.640100780250812"><ele>541.6666666666667</ele><time>2026-03-29T10:06:16Z</time></trkpt><trkpt lat="36.913660806848064" lon="14.640301341323331"><ele>542.3333333333334</ele><time>2026-03-29T10:06:17Z</time></trkpt><trkpt lat="36.91369606013034" lon="14.640515083532396"><ele>543.0</ele><time>2026-03-29T10:06:18Z</time></trkpt><trkpt lat="36.913736195617" lon="14.6407224250858"><ele>543.0</ele><time>2026-03-29T10:06:19Z</time></trkpt><trkpt lat="36.91376432835042" lon="14.640917403568201"><ele>543.0</ele><time>2026-03-29T10:06:20Z</time></trkpt><trkpt lat="36.91379942079783" lon="14.641120254203196"><ele>543.0</ele><time>2026-03-29T10:06:21Z</time></trkpt><trkpt lat="36.91383749664673" lon="14.641329493782202"><ele>544.6666666666666</ele><time>2026-03-29T10:06:22Z</time></trkpt><trkpt lat="36.9138826134882" lon="14.641553532334992"><ele>546.3333333333333</ele><time>2026-03-29T10:06:23Z</time></trkpt><trkpt lat="36.91392666599308" lon="14.641767407947244"><ele>548.0</ele><time>2026-03-29T10:06:24Z</time></trkpt><trkpt lat="36.91398688632945" lon="14.641992070758452"><ele>549.0</ele><time>2026-03-29T10:06:25Z</time></trkpt><trkpt lat="36.91404210860856" lon="14.642217479219937"><ele>550.0</ele><time>2026-03-29T10:06:26Z</time></trkpt><trkpt lat="36.91409945571637" lon="14.642448436130733"><ele>551.0</ele><time>2026-03-29T10:06:27Z</time></trkpt><trkpt lat="36.91415324116" lon="14.642683329186042"><ele>551.6666666666666</ele><time>2026-03-29T10:06:28Z</time></trkpt><trkpt lat="36.914207356814984" lon="14.642928221974177"><ele>552.3333333333334</ele><time>2026-03-29T10:06:29Z</time></trkpt><trkpt lat="36.91425621433072" lon="14.643159054607086"><ele>553.0</ele><time>2026-03-29T10:06:30Z</time></trkpt><trkpt lat="36.91431209165154" lon="14.643394619586495"><ele>553.0</ele><time>2026-03-29T10:06:31Z</time></trkpt><trkpt lat="36.91436784555326" lon="14.643626677082914"><ele>553.0</ele><time>2026-03-29T10:06:32Z</time></trkpt><trkpt lat="36.91441854893555" lon="14.643846851334562"><ele>553.0</ele><time>2026-03-29T10:06:33Z</time></trkpt><trkpt lat="36.914474222488785" lon="14.644077447752402"><ele>554.3333333333334</ele><time>2026-03-29T10:06:34Z</time></trkpt><trkpt lat="36.914524096918775" lon="14.644301146285715"><ele>555.6666666666666</ele><time>2026-03-29T10:06:35Z</time></trkpt><trkpt lat="36.91459049285381" lon="14.644530339857784"><ele>557.0</ele><time>2026-03-29T10:06:36Z</time></trkpt><trkpt lat="36.914639701866385" lon="14.644745807599389"><ele>557.6666666666666</ele><time>2026-03-29T10:06:37Z</time></trkpt><trkpt lat="36.91468476337151" lon="14.644964418236162"><ele>558.3333333333334</ele><time>2026-03-29T10:06:38Z</time></trkpt><trkpt lat="36.91471859190995" lon="14.64519233582822"><ele>559.0</ele><time>2026-03-29T10:06:39Z</time></trkpt><trkpt lat="36.91473780320891" lon="14.645416787643718"><ele>559.3333333333334</ele><time>2026-03-29T10:06:40Z</time></trkpt><trkpt lat="36.914737833379554" lon="14.645640107329065"><ele>559.6666666666666</ele><time>2026-03-29T10:06:41Z</time></trkpt><trkpt lat="36.91473288357839" lon="14.645871564476353"><ele>560.0</ele><time>2026-03-29T10:06:42Z</time></trkpt><trkpt lat="36.9147383255811" lon="14.64610612661485"><ele>560.3333333333333</ele><time>2026-03-29T10:06:43Z</time></trkpt><trkpt lat="36.91473306126388" lon="14.64632132568808"><ele>560.6666666666666</ele><time>2026-03-29T10:06:44Z</time></trkpt><trkpt lat="36.914757983688716" lon="14.64658032007999"><ele>561.0</ele><time>2026-03-29T10:06:45Z</time></trkpt><trkpt lat="36.91479693402773" lon="14.64682304646597"><ele>561.3333333333334</ele><time>2026-03-29T10:06:46Z</time></trkpt><trkpt lat="36.91484436040343" lon="14.647064542070497"><ele>561.6666666666667</ele><time>2026-03-29T10:06:47Z</time></trkpt><trkpt lat="36.91489355356963" lon="14.647304260383942"><ele>562.0</ele><time>2026-03-29T10:06:48Z</time></trkpt><trkpt lat="36.91493908114177" lon="14.64753906694242"><ele>562.0</ele><time>2026-03-29T10:06:49Z</time></trkpt><trkpt lat="36.914984291882334" lon="14.6477445611974"><ele>562.0</ele><time>2026-03-29T10:06:50Z</time></trkpt><trkpt lat="36.915047364938516" lon="14.64792538724776"><ele>562.0</ele><time>2026-03-29T10:06:51Z</time></trkpt><trkpt lat="36.9151482260464" lon="14.648131750521442"><ele>563.3333333333334</ele><time>2026-03-29T10:06:52Z</time></trkpt><trkpt lat="36.91526225663053" lon="14.648303748249695"><ele>564.6666666666666</ele><time>2026-03-29T10:06:53Z</time></trkpt><trkpt lat="36.91534881424031" lon="14.648460182250146"><ele>566.0</ele><time>2026-03-29T10:06:54Z</time></trkpt><trkpt lat="36.915439451094365" lon="14.648590239750723"><ele>566.0</ele><time>2026-03-29T10:06:55Z</time></trkpt><trkpt lat="36.91552537937436" lon="14.648720787041952"><ele>566.0</ele><time>2026-03-29T10:06:56Z</time></trkpt><trkpt lat="36.91560119417377" lon="14.648847167307654"><ele>566.0</ele><time>2026-03-29T10:06:57Z</time></trkpt><trkpt lat="36.915647850589075" lon="14.64899691411633"><ele>566.0</ele><time>2026-03-29T10:06:58Z</time></trkpt><trkpt lat="36.9156762775173" lon="14.649142714912193"><ele>566.0</ele><time>2026-03-29T10:06:59Z</time></trkpt><trkpt lat="36.915691291075746" lon="14.6493003003458"><ele>566.0</ele><time>2026-03-29T10:07:00Z</time></trkpt><trkpt lat="36.91569399418766" lon="14.64946139620847"><ele>566.0</ele><time>2026-03-29T10:07:01Z</time></trkpt><trkpt lat="36.91568889620776" lon="14.649623250159905"><ele>566.0</ele><time>2026-03-29T10:07:02Z</time></trkpt><trkpt lat="36.915678555500676" lon="14.649774661602295"><ele>565.75</ele><time>2026-03-29T10:07:03Z</time></trkpt><trkpt lat="36.91567866108338" lon="14.649919774831595"><ele>565.5</ele><time>2026-03-29T10:07:04Z</time></trkpt><trkpt lat="36.91568761640463" lon="14.650074416414133"><ele>565.25</ele><time>2026-03-29T10:07:05Z</time></trkpt><trkpt lat="36.91571557960604" lon="14.650224590404845"><ele>565.0</ele><time>2026-03-29T10:07:06Z</time></trkpt><trkpt lat="36.91576009636591" lon="14.65036049120733"><ele>565.8</ele><time>2026-03-29T10:07:07Z</time></trkpt><trkpt lat="36.91580740385576" lon="14.650490927738216"><ele>566.6</ele><time>2026-03-29T10:07:08Z</time></trkpt><trkpt lat="36.915861456500096" lon="14.650612810779618"><ele>567.4</ele><time>2026-03-29T10:07:09Z</time></trkpt><trkpt lat="36.91593071198143" lon="14.65072191574795"><ele>568.2</ele><time>2026-03-29T10:07:10Z</time></trkpt><trkpt lat="36.91600303174715" lon="14.650821515145413"><ele>569.0</ele><time>2026-03-29T10:07:11Z</time></trkpt><trkpt lat="36.91607898390514" lon="14.650914825542639"><ele>569.0</ele><time>2026-03-29T10:07:12Z</time></trkpt><trkpt lat="36.916148314979885" lon="14.65101820548008"><ele>569.0</ele><time>2026-03-29T10:07:13Z</time></trkpt><trkpt lat="36.91620926720704" lon="14.651129786595051"><ele>569.0</ele><time>2026-03-29T10:07:14Z</time></trkpt><trkpt lat="36.916275960643375" lon="14.651256329350781"><ele>569.0</ele><time>2026-03-29T10:07:15Z</time></trkpt><trkpt lat="36.916341173644454" lon="14.651400890449258"><ele>567.75</ele><time>2026-03-29T10:07:16Z</time></trkpt><trkpt lat="36.916387603048335" lon="14.65155778976305"><ele>566.5</ele><time>2026-03-29T10:07:17Z</time></trkpt><trkpt lat="36.91642628675771" lon="14.651739456255191"><ele>565.25</ele><time>2026-03-29T10:07:18Z</time></trkpt><trkpt lat="36.916441590907354" lon="14.65193174640361"><ele>564.0</ele><time>2026-03-29T10:07:19Z</time></trkpt><trkpt lat="36.91645789952273" lon="14.652172937530239"><ele>562.5</ele><time>2026-03-29T10:07:20Z</time></trkpt><trkpt lat="36.91649368031388" lon="14.652456720582489"><ele>561.0</ele><time>2026-03-29T10:07:21Z</time></trkpt><trkpt lat="36.91653224976712" lon="14.652752895778407"><ele>562.5</ele><time>2026-03-29T10:07:22Z</time></trkpt><trkpt lat="36.91657118384983" lon="14.653067648927044"><ele>564.0</ele><time>2026-03-29T10:07:23Z</time></trkpt><trkpt lat="36.91659929626062" lon="14.653352686225526"><ele>564.0</ele><time>2026-03-29T10:07:24Z</time></trkpt><trkpt lat="36.91660207052706" lon="14.653599599139719"><ele>564.0</ele><time>2026-03-29T10:07:25Z</time></trkpt><trkpt lat="36.916616752708585" lon="14.6538507385887"><ele>564.0</ele><time>2026-03-29T10:07:26Z</time></trkpt><trkpt lat="36.916638511181375" lon="14.654065496144282"><ele>565.0</ele><time>2026-03-29T10:07:27Z</time></trkpt><trkpt lat="36.91666797173289" lon="14.654312678445946"><ele>566.0</ele><time>2026-03-29T10:07:28Z</time></trkpt><trkpt lat="36.916689872688664" lon="14.654546074173282"><ele>567.0</ele><time>2026-03-29T10:07:29Z</time></trkpt><trkpt lat="36.916707476899745" lon="14.654782185373733"><ele>568.0</ele><time>2026-03-29T10:07:30Z</time></trkpt><trkpt lat="36.916727310133126" lon="14.655017383492895"><ele>569.0</ele><time>2026-03-29T10:07:31Z</time></trkpt><trkpt lat="36.916746148783666" lon="14.65523589511084"><ele>570.0</ele><time>2026-03-29T10:07:32Z</time></trkpt><trkpt lat="36.91676897934617" lon="14.655453433270504"><ele>571.3333333333334</ele><time>2026-03-29T10:07:33Z</time></trkpt><trkpt lat="36.916794871969834" lon="14.655666832149585"><ele>572.6666666666667</ele><time>2026-03-29T10:07:34Z</time></trkpt><trkpt lat="36.916809357303336" lon="14.655863661041623"><ele>574.0</ele><time>2026-03-29T10:07:35Z</time></trkpt><trkpt lat="36.91683078869456" lon="14.656082669330528"><ele>574.6666666666667</ele><time>2026-03-29T10:07:36Z</time></trkpt><trkpt lat="36.91685280953549" lon="14.656297420900405"><ele>575.3333333333334</ele><time>2026-03-29T10:07:37Z</time></trkpt><trkpt lat="36.91687624112309" lon="14.656513805919282"><ele>576.0</ele><time>2026-03-29T10:07:38Z</time></trkpt><trkpt lat="36.91689861650062" lon="14.656727039378818"><ele>576.0</ele><time>2026-03-29T10:07:39Z</time></trkpt><trkpt lat="36.91693097828223" lon="14.6569398848709"><ele>576.0</ele><time>2026-03-29T10:07:40Z</time></trkpt><trkpt lat="36.91697038940387" lon="14.65715569846862"><ele>576.0</ele><time>2026-03-29T10:07:41Z</time></trkpt><trkpt lat="36.91701210685843" lon="14.657376129583913"><ele>577.3333333333334</ele><time>2026-03-29T10:07:42Z</time></trkpt><trkpt lat="36.91704592144619" lon="14.657580834270277"><ele>578.6666666666667</ele><time>2026-03-29T10:07:43Z</time></trkpt><trkpt lat="36.91707887281443" lon="14.657807046608392"><ele>580.0</ele><time>2026-03-29T10:07:44Z</time></trkpt><trkpt lat="36.9171182973275" lon="14.658010756718834"><ele>580.6666666666667</ele><time>2026-03-29T10:07:45Z</time></trkpt><trkpt lat="36.917159172124826" lon="14.658225405089143"><ele>581.3333333333334</ele><time>2026-03-29T10:07:46Z</time></trkpt><trkpt lat="36.91719257289448" lon="14.65842863580129"><ele>582.0</ele><time>2026-03-29T10:07:47Z</time></trkpt><trkpt lat="36.917228262728536" lon="14.658633672700333"><ele>582.6666666666666</ele><time>2026-03-29T10:07:48Z</time></trkpt><trkpt lat="36.91726735095476" lon="14.658842220828014"><ele>583.3333333333333</ele><time>2026-03-29T10:07:49Z</time></trkpt><trkpt lat="36.917303363868974" lon="14.659044641336063"><ele>584.0</ele><time>2026-03-29T10:07:50Z</time></trkpt><trkpt lat="36.917343849673955" lon="14.659248253397944"><ele>585.0</ele><time>2026-03-29T10:07:51Z</time></trkpt><trkpt lat="36.91737786427567" lon="14.659457348748754"><ele>586.0</ele><time>2026-03-29T10:07:52Z</time></trkpt><trkpt lat="36.91741148822575" lon="14.659635441886522"><ele>587.0</ele><time>2026-03-29T10:07:53Z</time></trkpt><trkpt lat="36.91744666881082" lon="14.659832566797565"><ele>587.0</ele><time>2026-03-29T10:07:54Z</time></trkpt><trkpt lat="36.917472233079096" lon="14.660042921090266"><ele>587.0</ele><time>2026-03-29T10:07:55Z</time></trkpt><trkpt lat="36.917489381571116" lon="14.660239673828181"><ele>587.0</ele><time>2026-03-29T10:07:56Z</time></trkpt><trkpt lat="36.91749439756367" lon="14.660441848777861"><ele>587.0</ele><time>2026-03-29T10:07:57Z</time></trkpt><trkpt lat="36.91748940305555" lon="14.660662854769475"><ele>587.0</ele><time>2026-03-29T10:07:58Z</time></trkpt><trkpt lat="36.917472663086095" lon="14.660879802255492"><ele>587.0</ele><time>2026-03-29T10:07:59Z</time></trkpt><trkpt lat="36.91746942516909" lon="14.661101960823222"><ele>587.0</ele><time>2026-03-29T10:08:00Z</time></trkpt><trkpt lat="36.917472496167754" lon="14.661305971103353"><ele>587.0</ele><time>2026-03-29T10:08:01Z</time></trkpt><trkpt lat="36.91747389929324" lon="14.661534587005825"><ele>587.0</ele><time>2026-03-29T10:08:02Z</time></trkpt><trkpt lat="36.91746607214346" lon="14.661770682646626"><ele>587.6666666666666</ele><time>2026-03-29T10:08:03Z</time></trkpt><trkpt lat="36.91745595625074" lon="14.662004088897135"><ele>588.3333333333334</ele><time>2026-03-29T10:08:04Z</time></trkpt><trkpt lat="36.9174487025769" lon="14.66223628815776"><ele>589.0</ele><time>2026-03-29T10:08:05Z</time></trkpt><trkpt lat="36.91745005951918" lon="14.662464570859687"><ele>589.0</ele><time>2026-03-29T10:08:06Z</time></trkpt><trkpt lat="36.91744852154611" lon="14.662699335519752"><ele>589.0</ele><time>2026-03-29T10:08:07Z</time></trkpt><trkpt lat="36.917446059212395" lon="14.662929170610525"><ele>589.0</ele><time>2026-03-29T10:08:08Z</time></trkpt><trkpt lat="36.91744437672287" lon="14.66316077772524"><ele>590.0</ele><time>2026-03-29T10:08:09Z</time></trkpt><trkpt lat="36.91745387669422" lon="14.663387582329682"><ele>591.0</ele><time>2026-03-29T10:08:10Z</time></trkpt><trkpt lat="36.917478604346904" lon="14.66361183010734"><ele>592.0</ele><time>2026-03-29T10:08:11Z</time></trkpt><trkpt lat="36.91752196460302" lon="14.663836037628771"><ele>592.6666666666667</ele><time>2026-03-29T10:08:12Z</time></trkpt><trkpt lat="36.91756639415291" lon="14.664057189646405"><ele>593.3333333333334</ele><time>2026-03-29T10:08:13Z</time></trkpt><trkpt lat="36.917596672567186" lon="14.664273790310176"><ele>594.0</ele><time>2026-03-29T10:08:14Z</time></trkpt><trkpt lat="36.91763209500758" lon="14.664491249345126"><ele>594.6666666666666</ele><time>2026-03-29T10:08:15Z</time></trkpt><trkpt lat="36.91766810115103" lon="14.664697008607721"><ele>595.3333333333333</ele><time>2026-03-29T10:08:16Z</time></trkpt><trkpt lat="36.91770685871264" lon="14.66491707250597"><ele>596.0</ele><time>2026-03-29T10:08:17Z</time></trkpt><trkpt lat="36.91774553887204" lon="14.665131543257006"><ele>596.3333333333333</ele><time>2026-03-29T10:08:18Z</time></trkpt><trkpt lat="36.917786868144795" lon="14.665360252176844"><ele>596.6666666666666</ele><time>2026-03-29T10:08:19Z</time></trkpt><trkpt lat="36.917830207882744" lon="14.665583885406699"><ele>597.0</ele><time>2026-03-29T10:08:20Z</time></trkpt><trkpt lat="36.91787157353351" lon="14.665812864357033"><ele>597.0</ele><time>2026-03-29T10:08:21Z</time></trkpt><trkpt lat="36.917913234028944" lon="14.666036110010145"><ele>597.0</ele><time>2026-03-29T10:08:22Z</time></trkpt><trkpt lat="36.91795010275068" lon="14.666263517890487"><ele>597.0</ele><time>2026-03-29T10:08:23Z</time></trkpt><trkpt lat="36.91798972538313" lon="14.666481272145454"><ele>597.3333333333334</ele><time>2026-03-29T10:08:24Z</time></trkpt><trkpt lat="36.91803476406799" lon="14.666697920465708"><ele>597.6666666666667</ele><time>2026-03-29T10:08:25Z</time></trkpt><trkpt lat="36.9181018338964" lon="14.66691146273239"><ele>598.0</ele><time>2026-03-29T10:08:26Z</time></trkpt><trkpt lat="36.91818905363584" lon="14.667105044721923"><ele>598.3333333333334</ele><time>2026-03-29T10:08:27Z</time></trkpt><trkpt lat="36.91828193269967" lon="14.667304940765677"><ele>598.6666666666666</ele><time>2026-03-29T10:08:28Z</time></trkpt><trkpt lat="36.91836898681191" lon="14.667507767445803"><ele>599.0</ele><time>2026-03-29T10:08:29Z</time></trkpt><trkpt lat="36.91846012500434" lon="14.667707806117003"><ele>599.3333333333333</ele><time>2026-03-29T10:08:30Z</time></trkpt><trkpt lat="36.918530109698764" lon="14.667922234075796"><ele>599.6666666666666</ele><time>2026-03-29T10:08:31Z</time></trkpt><trkpt lat="36.91859535805558" lon="14.668143363588031"><ele>600.0</ele><time>2026-03-29T10:08:32Z</time></trkpt><trkpt lat="36.91864905124978" lon="14.668371901670708"><ele>600.0</ele><time>2026-03-29T10:08:33Z</time></trkpt><trkpt lat="36.91870888454831" lon="14.668600106238708"><ele>600.0</ele><time>2026-03-29T10:08:34Z</time></trkpt><trkpt lat="36.918748107114645" lon="14.668803034931374"><ele>600.0</ele><time>2026-03-29T10:08:35Z</time></trkpt><trkpt lat="36.91878033083919" lon="14.669007751575238"><ele>600.3333333333334</ele><time>2026-03-29T10:08:36Z</time></trkpt><trkpt lat="36.9188174770199" lon="14.669218978034197"><ele>600.6666666666667</ele><time>2026-03-29T10:08:37Z</time></trkpt><trkpt lat="36.91885370495843" lon="14.669431980957418"><ele>601.0</ele><time>2026-03-29T10:08:38Z</time></trkpt><trkpt lat="36.9188658583234" lon="14.669646542013876"><ele>601.0</ele><time>2026-03-29T10:08:39Z</time></trkpt><trkpt lat="36.918858285449055" lon="14.669847608757532"><ele>601.0</ele><time>2026-03-29T10:08:40Z</time></trkpt><trkpt lat="36.918807644187716" lon="14.670054068071412"><ele>601.0</ele><time>2026-03-29T10:08:41Z</time></trkpt><trkpt lat="36.91875650346217" lon="14.670263378680326"><ele>602.0</ele><time>2026-03-29T10:08:42Z</time></trkpt><trkpt lat="36.91869578330859" lon="14.670462094288922"><ele>603.0</ele><time>2026-03-29T10:08:43Z</time></trkpt><trkpt lat="36.918633648601634" lon="14.670665935643617"><ele>604.0</ele><time>2026-03-29T10:08:44Z</time></trkpt><trkpt lat="36.91857797929989" lon="14.670887675578706"><ele>603.6666666666667</ele><time>2026-03-29T10:08:45Z</time></trkpt><trkpt lat="36.918525618842295" lon="14.671119230604308"><ele>603.3333333333334</ele><time>2026-03-29T10:08:46Z</time></trkpt><trkpt lat="36.918497782197214" lon="14.671341560261896"><ele>603.0</ele><time>2026-03-29T10:08:47Z</time></trkpt><trkpt lat="36.91849370098661" lon="14.671566190525432"><ele>603.0</ele><time>2026-03-29T10:08:48Z</time></trkpt><trkpt lat="36.91851102419757" lon="14.67178057848689"><ele>603.0</ele><time>2026-03-29T10:08:49Z</time></trkpt><trkpt lat="36.91853569417755" lon="14.671989845547433"><ele>603.0</ele><time>2026-03-29T10:08:50Z</time></trkpt><trkpt lat="36.91857340411983" lon="14.672180125219112"><ele>602.3333333333334</ele><time>2026-03-29T10:08:51Z</time></trkpt><trkpt lat="36.918630022249424" lon="14.672395537112974"><ele>601.6666666666667</ele><time>2026-03-29T10:08:52Z</time></trkpt><trkpt lat="36.918691936529605" lon="14.672590834455724"><ele>601.0</ele><time>2026-03-29T10:08:53Z</time></trkpt><trkpt lat="36.91876078625541" lon="14.672767265596175"><ele>599.3333333333334</ele><time>2026-03-29T10:08:54Z</time></trkpt><trkpt lat="36.918847671424686" lon="14.672928537732647"><ele>597.6666666666666</ele><time>2026-03-29T10:08:55Z</time></trkpt><trkpt lat="36.91894054420891" lon="14.6730724503859"><ele>596.0</ele><time>2026-03-29T10:08:56Z</time></trkpt><trkpt lat="36.9190302299483" lon="14.67322130558063"><ele>596.0</ele><time>2026-03-29T10:08:57Z</time></trkpt><trkpt lat="36.91911453036849" lon="14.673362983329177"><ele>596.0</ele><time>2026-03-29T10:08:58Z</time></trkpt><trkpt lat="36.91920156018908" lon="14.673503792948718"><ele>596.0</ele><time>2026-03-29T10:08:59Z</time></trkpt><trkpt lat="36.919275137685474" lon="14.673652516088785"><ele>596.0</ele><time>2026-03-29T10:09:00Z</time></trkpt><trkpt lat="36.919345430301505" lon="14.673822521494664"><ele>596.3333333333333</ele><time>2026-03-29T10:09:01Z</time></trkpt><trkpt lat="36.91940698642368" lon="14.674013181046924"><ele>596.6666666666666</ele><time>2026-03-29T10:09:02Z</time></trkpt><trkpt lat="36.91945296382091" lon="14.67419508330578"><ele>597.0</ele><time>2026-03-29T10:09:03Z</time></trkpt><trkpt lat="36.91948312300191" lon="14.674401939807368"><ele>596.0</ele><time>2026-03-29T10:09:04Z</time></trkpt><trkpt lat="36.919484929819205" lon="14.67462701239635"><ele>595.0</ele><time>2026-03-29T10:09:05Z</time></trkpt><trkpt lat="36.91947304010795" lon="14.674837041362446"><ele>594.0</ele><time>2026-03-29T10:09:06Z</time></trkpt><trkpt lat="36.91945105353508" lon="14.675034828972263"><ele>594.0</ele><time>2026-03-29T10:09:07Z</time></trkpt><trkpt lat="36.91943856200459" lon="14.675262414808328"><ele>594.0</ele><time>2026-03-29T10:09:08Z</time></trkpt><trkpt lat="36.91942576098732" lon="14.67549234049638"><ele>594.0</ele><time>2026-03-29T10:09:09Z</time></trkpt><trkpt lat="36.919412286500254" lon="14.675714285176422"><ele>593.6666666666666</ele><time>2026-03-29T10:09:10Z</time></trkpt><trkpt lat="36.91940014731282" lon="14.675935828799938"><ele>593.3333333333333</ele><time>2026-03-29T10:09:11Z</time></trkpt><trkpt lat="36.9193887567513" lon="14.67615163019611"><ele>593.0</ele><time>2026-03-29T10:09:12Z</time></trkpt><trkpt lat="36.919373992998004" lon="14.67636672403483"><ele>593.0</ele><time>2026-03-29T10:09:13Z</time></trkpt><trkpt lat="36.91935577603037" lon="14.676571170464445"><ele>593.0</ele><time>2026-03-29T10:09:14Z</time></trkpt><trkpt lat="36.91933973156431" lon="14.676778499636214"><ele>593.0</ele><time>2026-03-29T10:09:15Z</time></trkpt><trkpt lat="36.919326377016944" lon="14.676983950976767"><ele>593.3333333333333</ele><time>2026-03-29T10:09:16Z</time></trkpt><trkpt lat="36.919312184515945" lon="14.677187644561597"><ele>593.6666666666666</ele><time>2026-03-29T10:09:17Z</time></trkpt><trkpt lat="36.91929476371629" lon="14.677393555932278"><ele>594.0</ele><time>2026-03-29T10:09:18Z</time></trkpt><trkpt lat="36.91927612882295" lon="14.67760580532077"><ele>595.3333333333334</ele><time>2026-03-29T10:09:19Z</time></trkpt><trkpt lat="36.91926447565789" lon="14.67781376493802"><ele>596.6666666666667</ele><time>2026-03-29T10:09:20Z</time></trkpt><trkpt lat="36.919251306146364" lon="14.67802217105108"><ele>598.0</ele><time>2026-03-29T10:09:21Z</time></trkpt><trkpt lat="36.91922651992359" lon="14.67823224538904"><ele>598.0</ele><time>2026-03-29T10:09:22Z</time></trkpt><trkpt lat="36.919211830819656" lon="14.678440218246887"><ele>598.0</ele><time>2026-03-29T10:09:23Z</time></trkpt><trkpt lat="36.9192017832826" lon="14.678657789041967"><ele>598.0</ele><time>2026-03-29T10:09:24Z</time></trkpt><trkpt lat="36.91920777387273" lon="14.67887242363834"><ele>597.6666666666667</ele><time>2026-03-29T10:09:25Z</time></trkpt><trkpt lat="36.91922190538449" lon="14.679093407286071"><ele>597.3333333333334</ele><time>2026-03-29T10:09:26Z</time></trkpt><trkpt lat="36.91926268669658" lon="14.67931644101176"><ele>597.0</ele><time>2026-03-29T10:09:27Z</time></trkpt><trkpt lat="36.91930479272316" lon="14.679533099282297"><ele>596.6666666666666</ele><time>2026-03-29T10:09:28Z</time></trkpt><trkpt lat="36.91934380517461" lon="14.679746457387424"><ele>596.3333333333333</ele><time>2026-03-29T10:09:29Z</time></trkpt><trkpt lat="36.9193783489015" lon="14.67994605312475"><ele>596.0</ele><time>2026-03-29T10:09:30Z</time></trkpt><trkpt lat="36.91941755129707" lon="14.680155194518152"><ele>596.6666666666666</ele><time>2026-03-29T10:09:31Z</time></trkpt><trkpt lat="36.91945564591144" lon="14.680364046511228"><ele>597.3333333333334</ele><time>2026-03-29T10:09:32Z</time></trkpt><trkpt lat="36.919486147550415" lon="14.680572979863229"><ele>598.0</ele><time>2026-03-29T10:09:33Z</time></trkpt><trkpt lat="36.919524103216624" lon="14.680773478776425"><ele>598.0</ele><time>2026-03-29T10:09:34Z</time></trkpt><trkpt lat="36.919562496830146" lon="14.680975626786395"><ele>598.0</ele><time>2026-03-29T10:09:35Z</time></trkpt><trkpt lat="36.9196178738446" lon="14.68117468089232"><ele>598.0</ele><time>2026-03-29T10:09:36Z</time></trkpt><trkpt lat="36.91968275199555" lon="14.681328599759174"><ele>598.6666666666667</ele><time>2026-03-29T10:09:37Z</time></trkpt><trkpt lat="36.91978157937461" lon="14.68147695697928"><ele>599.3333333333334</ele><time>2026-03-29T10:09:38Z</time></trkpt><trkpt lat="36.919896990154626" lon="14.681602772857172"><ele>600.0</ele><time>2026-03-29T10:09:39Z</time></trkpt><trkpt lat="36.9200129446091" lon="14.681721726140825"><ele>600.0</ele><time>2026-03-29T10:09:40Z</time></trkpt><trkpt lat="36.920128443516056" lon="14.681831068632587"><ele>600.0</ele><time>2026-03-29T10:09:41Z</time></trkpt><trkpt lat="36.92023365225524" lon="14.681947681967161"><ele>600.0</ele><time>2026-03-29T10:09:42Z</time></trkpt><trkpt lat="36.92031903754258" lon="14.682086437566713"><ele>600.0</ele><time>2026-03-29T10:09:43Z</time></trkpt><trkpt lat="36.920373085271336" lon="14.682245907521436"><ele>600.6666666666666</ele><time>2026-03-29T10:09:44Z</time></trkpt><trkpt lat="36.92040456418569" lon="14.68242239411092"><ele>601.3333333333333</ele><time>2026-03-29T10:09:45Z</time></trkpt><trkpt lat="36.92041767287092" lon="14.682640785123803"><ele>602.0</ele><time>2026-03-29T10:09:46Z</time></trkpt><trkpt lat="36.920398898007846" lon="14.682867898136895"><ele>602.6666666666666</ele><time>2026-03-29T10:09:47Z</time></trkpt><trkpt lat="36.92037004231128" lon="14.683072526127944"><ele>603.3333333333334</ele><time>2026-03-29T10:09:48Z</time></trkpt><trkpt lat="36.920350270478686" lon="14.683290149669153"><ele>604.0</ele><time>2026-03-29T10:09:49Z</time></trkpt><trkpt lat="36.920350036410845" lon="14.683511786326395"><ele>604.3333333333334</ele><time>2026-03-29T10:09:50Z</time></trkpt><trkpt lat="36.920372363806635" lon="14.683724000625805"><ele>604.6666666666666</ele><time>2026-03-29T10:09:51Z</time></trkpt><trkpt lat="36.92043288690244" lon="14.683927949734295"><ele>605.0</ele><time>2026-03-29T10:09:52Z</time></trkpt><trkpt lat="36.92051102398032" lon="14.684128077747527"><ele>605.0</ele><time>2026-03-29T10:09:53Z</time></trkpt><trkpt lat="36.9205821845946" lon="14.684332606782686"><ele>605.0</ele><time>2026-03-29T10:09:54Z</time></trkpt><trkpt lat="36.92065189534386" lon="14.684529304874268"><ele>605.0</ele><time>2026-03-29T10:09:55Z</time></trkpt><trkpt lat="36.920705764191744" lon="14.684720545092926"><ele>605.0</ele><time>2026-03-29T10:09:56Z</time></trkpt><trkpt lat="36.92074455124887" lon="14.684905587964296"><ele>605.0</ele><time>2026-03-29T10:09:57Z</time></trkpt><trkpt lat="36.92075366227354" lon="14.685097728560944"><ele>605.0</ele><time>2026-03-29T10:09:58Z</time></trkpt><trkpt lat="36.920744094005805" lon="14.685283312746966"><ele>605.6666666666666</ele><time>2026-03-29T10:09:59Z</time></trkpt><trkpt lat="36.920728274308395" lon="14.685489692826538"><ele>606.3333333333334</ele><time>2026-03-29T10:10:00Z</time></trkpt><trkpt lat="36.92069927160283" lon="14.685685289541825"><ele>607.0</ele><time>2026-03-29T10:10:01Z</time></trkpt><trkpt lat="36.92066459925856" lon="14.685877610341937"><ele>607.0</ele><time>2026-03-29T10:10:02Z</time></trkpt><trkpt lat="36.92064171927756" lon="14.686087418497388"><ele>607.0</ele><time>2026-03-29T10:10:03Z</time></trkpt><trkpt lat="36.920619635068505" lon="14.68631622445432"><ele>607.0</ele><time>2026-03-29T10:10:04Z</time></trkpt><trkpt lat="36.920592127639786" lon="14.686543493181475"><ele>608.0</ele><time>2026-03-29T10:10:05Z</time></trkpt><trkpt lat="36.920573801391164" lon="14.68674225795213"><ele>609.0</ele><time>2026-03-29T10:10:06Z</time></trkpt><trkpt lat="36.92055379458932" lon="14.686958630467684"><ele>610.0</ele><time>2026-03-29T10:10:07Z</time></trkpt><trkpt lat="36.92053273226696" lon="14.687194684255484"><ele>610.6666666666667</ele><time>2026-03-29T10:10:08Z</time></trkpt><trkpt lat="36.920535567539595" lon="14.687420457209202"><ele>611.3333333333334</ele><time>2026-03-29T10:10:09Z</time></trkpt><trkpt lat="36.920507426862955" lon="14.687670343631902"><ele>612.0</ele><time>2026-03-29T10:10:10Z</time></trkpt><trkpt lat="36.92049438931355" lon="14.687896940471449"><ele>612.0</ele><time>2026-03-29T10:10:11Z</time></trkpt><trkpt lat="36.920493485915806" lon="14.68809356712891"><ele>612.0</ele><time>2026-03-29T10:10:12Z</time></trkpt><trkpt lat="36.92051847830781" lon="14.688281005286367"><ele>612.0</ele><time>2026-03-29T10:10:13Z</time></trkpt><trkpt lat="36.92053211927764" lon="14.688498797651638"><ele>611.6666666666666</ele><time>2026-03-29T10:10:14Z</time></trkpt><trkpt lat="36.9205609031195" lon="14.688695759316014"><ele>611.3333333333333</ele><time>2026-03-29T10:10:15Z</time></trkpt><trkpt lat="36.920595180223096" lon="14.688905043126487"><ele>611.0</ele><time>2026-03-29T10:10:16Z</time></trkpt><trkpt lat="36.920619565400706" lon="14.689094046523673"><ele>611.0</ele><time>2026-03-29T10:10:17Z</time></trkpt><trkpt lat="36.92065311229223" lon="14.689294242903713"><ele>611.0</ele><time>2026-03-29T10:10:18Z</time></trkpt><trkpt lat="36.92068555987705" lon="14.689499290725614"><ele>611.0</ele><time>2026-03-29T10:10:19Z</time></trkpt><trkpt lat="36.920688337973864" lon="14.689688295810202"><ele>610.3333333333333</ele><time>2026-03-29T10:10:20Z</time></trkpt><trkpt lat="36.92068856489452" lon="14.68988589731433"><ele>609.6666666666666</ele><time>2026-03-29T10:10:21Z</time></trkpt><trkpt lat="36.92068315290455" lon="14.690098984794963"><ele>609.0</ele><time>2026-03-29T10:10:22Z</time></trkpt><trkpt lat="36.920676120909185" lon="14.690312162023883"><ele>608.6666666666666</ele><time>2026-03-29T10:10:23Z</time></trkpt><trkpt lat="36.9206657159433" lon="14.690516471880992"><ele>608.3333333333333</ele><time>2026-03-29T10:10:24Z</time></trkpt><trkpt lat="36.92066244913852" lon="14.690690812792111"><ele>608.0</ele><time>2026-03-29T10:10:25Z</time></trkpt><trkpt lat="36.920658423716525" lon="14.690875146064167"><ele>608.0</ele><time>2026-03-29T10:10:26Z</time></trkpt><trkpt lat="36.920647882658216" lon="14.69105624322393"><ele>608.0</ele><time>2026-03-29T10:10:27Z</time></trkpt><trkpt lat="36.92064452835473" lon="14.691234782168209"><ele>608.0</ele><time>2026-03-29T10:10:28Z</time></trkpt><trkpt lat="36.920641385400955" lon="14.69140843652163"><ele>608.0</ele><time>2026-03-29T10:10:29Z</time></trkpt><trkpt lat="36.92064891569063" lon="14.691601963845631"><ele>608.6666666666666</ele><time>2026-03-29T10:10:30Z</time></trkpt><trkpt lat="36.92065897665872" lon="14.691799974430426"><ele>609.3333333333334</ele><time>2026-03-29T10:10:31Z</time></trkpt><trkpt lat="36.92068282354521" lon="14.692014355332942"><ele>610.0</ele><time>2026-03-29T10:10:32Z</time></trkpt><trkpt lat="36.920719265118635" lon="14.69221194511159"><ele>610.0</ele><time>2026-03-29T10:10:33Z</time></trkpt><trkpt lat="36.920756525893644" lon="14.692421382208968"><ele>610.0</ele><time>2026-03-29T10:10:34Z</time></trkpt><trkpt lat="36.92077644083329" lon="14.692609157965439"><ele>610.0</ele><time>2026-03-29T10:10:35Z</time></trkpt><trkpt lat="36.92080052837704" lon="14.692798643806315"><ele>610.0</ele><time>2026-03-29T10:10:36Z</time></trkpt><trkpt lat="36.920822961175574" lon="14.692992480090224"><ele>610.0</ele><time>2026-03-29T10:10:37Z</time></trkpt><trkpt lat="36.92085009416645" lon="14.693210744919494"><ele>610.0</ele><time>2026-03-29T10:10:38Z</time></trkpt><trkpt lat="36.92087174824662" lon="14.693408799437929"><ele>611.0</ele><time>2026-03-29T10:10:39Z</time></trkpt><trkpt lat="36.920896711500255" lon="14.693627267473248"><ele>612.0</ele><time>2026-03-29T10:10:40Z</time></trkpt><trkpt lat="36.920925185626665" lon="14.693839761799753"><ele>613.0</ele><time>2026-03-29T10:10:41Z</time></trkpt><trkpt lat="36.92094755860157" lon="14.69404927396678"><ele>613.0</ele><time>2026-03-29T10:10:42Z</time></trkpt><trkpt lat="36.92096925046046" lon="14.69426473321558"><ele>613.0</ele><time>2026-03-29T10:10:43Z</time></trkpt><trkpt lat="36.92099095233244" lon="14.694463119903657"><ele>613.0</ele><time>2026-03-29T10:10:44Z</time></trkpt><trkpt lat="36.92101464028637" lon="14.694652064607228"><ele>614.0</ele><time>2026-03-29T10:10:45Z</time></trkpt><trkpt lat="36.921044009583945" lon="14.694845334020682"><ele>615.0</ele><time>2026-03-29T10:10:46Z</time></trkpt><trkpt lat="36.92106877868869" lon="14.695020549230435"><ele>616.0</ele><time>2026-03-29T10:10:47Z</time></trkpt><trkpt lat="36.92109892243035" lon="14.69519362538231"><ele>617.0</ele><time>2026-03-29T10:10:48Z</time></trkpt><trkpt lat="36.92113309847853" lon="14.695374983956093"><ele>617.75</ele><time>2026-03-29T10:10:49Z</time></trkpt><trkpt lat="36.921162534891174" lon="14.695546846701742"><ele>618.5</ele><time>2026-03-29T10:10:50Z</time></trkpt><trkpt lat="36.921200002729165" lon="14.695725916132536"><ele>619.25</ele><time>2026-03-29T10:10:51Z</time></trkpt><trkpt lat="36.92123549462832" lon="14.69590282857749"><ele>620.0</ele><time>2026-03-29T10:10:52Z</time></trkpt><trkpt lat="36.92127941835354" lon="14.696090653323798"><ele>621.3333333333333</ele><time>2026-03-29T10:10:53Z</time></trkpt><trkpt lat="36.92132089693415" lon="14.696261563228804"><ele>622.6666666666666</ele><time>2026-03-29T10:10:54Z</time></trkpt><trkpt lat="36.9213792584077" lon="14.696443282629673"><ele>624.0</ele><time>2026-03-29T10:10:55Z</time></trkpt><trkpt lat="36.921442831209724" lon="14.696624099270492"><ele>624.0</ele><time>2026-03-29T10:10:56Z</time></trkpt><trkpt lat="36.921522307650235" lon="14.696805049571577"><ele>624.0</ele><time>2026-03-29T10:10:57Z</time></trkpt><trkpt lat="36.92159083274796" lon="14.69699439570382"><ele>624.0</ele><time>2026-03-29T10:10:58Z</time></trkpt><trkpt lat="36.921655904104206" lon="14.697163573422685"><ele>624.6666666666666</ele><time>2026-03-29T10:10:59Z</time></trkpt><trkpt lat="36.92172052335826" lon="14.697349556764248"><ele>625.3333333333333</ele><time>2026-03-29T10:11:00Z</time></trkpt><trkpt lat="36.92178369922045" lon="14.697539643885055"><ele>626.0</ele><time>2026-03-29T10:11:01Z</time></trkpt><trkpt lat="36.92184186601136" lon="14.697705661215263"><ele>626.3333333333333</ele><time>2026-03-29T10:11:02Z</time></trkpt><trkpt lat="36.92190056840057" lon="14.69787783675412"><ele>626.6666666666666</ele><time>2026-03-29T10:11:03Z</time></trkpt><trkpt lat="36.92194734088299" lon="14.69806577996238"><ele>627.0</ele><time>2026-03-29T10:11:04Z</time></trkpt><trkpt lat="36.92198804720339" lon="14.698241457664627"><ele>627.0</ele><time>2026-03-29T10:11:05Z</time></trkpt><trkpt lat="36.9220288951838" lon="14.698408667757288"><ele>627.0</ele><time>2026-03-29T10:11:06Z</time></trkpt><trkpt lat="36.922076013453896" lon="14.698577625630225"><ele>627.0</ele><time>2026-03-29T10:11:07Z</time></trkpt><trkpt lat="36.9221224793595" lon="14.698777696432586"><ele>627.0</ele><time>2026-03-29T10:11:08Z</time></trkpt><trkpt lat="36.922162282980274" lon="14.698914248830569"><ele>627.2</ele><time>2026-03-29T10:11:09Z</time></trkpt><trkpt lat="36.922192987558326" lon="14.699038901526826"><ele>627.4000000000001</ele><time>2026-03-29T10:11:10Z</time></trkpt><trkpt lat="36.9222225873361" lon="14.699166148175626"><ele>627.5999999999999</ele><time>2026-03-29T10:11:11Z</time></trkpt><trkpt lat="36.922246336490865" lon="14.699292598371267"><ele>627.8</ele><time>2026-03-29T10:11:12Z</time></trkpt><trkpt lat="36.92226541875858" lon="14.699406944070768"><ele>628.0</ele><time>2026-03-29T10:11:13Z</time></trkpt><trkpt lat="36.922281756209536" lon="14.699523483444196"><ele>628.1999999999999</ele><time>2026-03-29T10:11:14Z</time></trkpt><trkpt lat="36.92230263993071" lon="14.69963294507458"><ele>628.4</ele><time>2026-03-29T10:11:15Z</time></trkpt><trkpt lat="36.922326020624375" lon="14.699758573686713"><ele>628.5999999999999</ele><time>2026-03-29T10:11:16Z</time></trkpt><trkpt lat="36.9223473235785" lon="14.699893299585979"><ele>628.8</ele><time>2026-03-29T10:11:17Z</time></trkpt><trkpt lat="36.922371253337346" lon="14.700025325963995"><ele>629.0</ele><time>2026-03-29T10:11:18Z</time></trkpt><trkpt lat="36.92239197667037" lon="14.700146731579029"><ele>628.6</ele><time>2026-03-29T10:11:19Z</time></trkpt><trkpt lat="36.922410868101814" lon="14.700255537333463"><ele>628.2</ele><time>2026-03-29T10:11:20Z</time></trkpt><trkpt lat="36.922431442983175" lon="14.700372033390643"><ele>627.8000000000001</ele><time>2026-03-29T10:11:21Z</time></trkpt><trkpt lat="36.92245675927861" lon="14.700496708993303"><ele>627.4</ele><time>2026-03-29T10:11:22Z</time></trkpt><trkpt lat="36.92247756123033" lon="14.70062128357181"><ele>627.0</ele><time>2026-03-29T10:11:23Z</time></trkpt><trkpt lat="36.92249426685348" lon="14.700749198623644"><ele>627.0</ele><time>2026-03-29T10:11:24Z</time></trkpt><trkpt lat="36.922517876898326" lon="14.700882988379263"><ele>627.0</ele><time>2026-03-29T10:11:25Z</time></trkpt><trkpt lat="36.922541859938505" lon="14.701012808634387"><ele>627.0</ele><time>2026-03-29T10:11:26Z</time></trkpt><trkpt lat="36.92255791401886" lon="14.701141514655397"><ele>627.0</ele><time>2026-03-29T10:11:27Z</time></trkpt><trkpt lat="36.92256877742454" lon="14.701259146402878"><ele>627.0</ele><time>2026-03-29T10:11:28Z</time></trkpt><trkpt lat="36.922590542670115" lon="14.701385465192343"><ele>627.6</ele><time>2026-03-29T10:11:29Z</time></trkpt><trkpt lat="36.92261288784457" lon="14.701518078128279"><ele>628.2</ele><time>2026-03-29T10:11:30Z</time></trkpt><trkpt lat="36.922637626665285" lon="14.701651769679355"><ele>628.8</ele><time>2026-03-29T10:11:31Z</time></trkpt><trkpt lat="36.92266528854657" lon="14.701776610913436"><ele>629.4</ele><time>2026-03-29T10:11:32Z</time></trkpt><trkpt lat="36.92269758029503" lon="14.701863948107409"><ele>630.0</ele><time>2026-03-29T10:11:33Z</time></trkpt><trkpt lat="36.92272279983335" lon="14.70197509316883"><ele>630.25</ele><time>2026-03-29T10:11:34Z</time></trkpt><trkpt lat="36.922742086591455" lon="14.702099941716545"><ele>630.5</ele><time>2026-03-29T10:11:35Z</time></trkpt><trkpt lat="36.92276498892926" lon="14.702258404693529"><ele>630.75</ele><time>2026-03-29T10:11:36Z</time></trkpt><trkpt lat="36.92279634002238" lon="14.702416568112"><ele>631.0</ele><time>2026-03-29T10:11:37Z</time></trkpt><trkpt lat="36.92283835915379" lon="14.702572127774767"><ele>631.0</ele><time>2026-03-29T10:11:38Z</time></trkpt><trkpt lat="36.92287809672689" lon="14.702709297245361"><ele>631.0</ele><time>2026-03-29T10:11:39Z</time></trkpt><trkpt lat="36.922895897821135" lon="14.702862868760654"><ele>631.0</ele><time>2026-03-29T10:11:40Z</time></trkpt><trkpt lat="36.92291628731636" lon="14.702993919343873"><ele>631.0</ele><time>2026-03-29T10:11:41Z</time></trkpt><trkpt lat="36.922947772714636" lon="14.70312145565138"><ele>630.75</ele><time>2026-03-29T10:11:42Z</time></trkpt><trkpt lat="36.922985407972746" lon="14.703262388763136"><ele>630.5</ele><time>2026-03-29T10:11:43Z</time></trkpt><trkpt lat="36.92299949905498" lon="14.703419444852218"><ele>630.25</ele><time>2026-03-29T10:11:44Z</time></trkpt><trkpt lat="36.923031480955" lon="14.703586542974364"><ele>630.0</ele><time>2026-03-29T10:11:45Z</time></trkpt><trkpt lat="36.92305598676528" lon="14.703750454749752"><ele>630.0</ele><time>2026-03-29T10:11:46Z</time></trkpt><trkpt lat="36.923078102671454" lon="14.703910782840532"><ele>630.0</ele><time>2026-03-29T10:11:47Z</time></trkpt><trkpt lat="36.92310223271287" lon="14.704070048070278"><ele>630.0</ele><time>2026-03-29T10:11:48Z</time></trkpt><trkpt lat="36.92312185962222" lon="14.704237436840458"><ele>630.0</ele><time>2026-03-29T10:11:49Z</time></trkpt><trkpt lat="36.92313669929318" lon="14.704401732755247"><ele>630.6</ele><time>2026-03-29T10:11:50Z</time></trkpt><trkpt lat="36.92314542162735" lon="14.70455293708457"><ele>631.2</ele><time>2026-03-29T10:11:51Z</time></trkpt><trkpt lat="36.923163285717585" lon="14.70466633743101"><ele>631.8</ele><time>2026-03-29T10:11:52Z</time></trkpt><trkpt lat="36.92318218925092" lon="14.7047646091847"><ele>632.4</ele><time>2026-03-29T10:11:53Z</time></trkpt><trkpt lat="36.923191410594974" lon="14.704882907834477"><ele>633.0</ele><time>2026-03-29T10:11:54Z</time></trkpt><trkpt lat="36.92319422138956" lon="14.704979768511656"><ele>633.0</ele><time>2026-03-29T10:11:55Z</time></trkpt><trkpt lat="36.923183087471024" lon="14.705118533763162"><ele>633.0</ele><time>2026-03-29T10:11:57Z</time></trkpt><trkpt lat="36.92317771304873" lon="14.70520571771812"><ele>633.0</ele><time>2026-03-29T10:11:58Z</time></trkpt><trkpt lat="36.923162148513704" lon="14.705304146253063"><ele>633.0</ele><time>2026-03-29T10:11:59Z</time></trkpt><trkpt lat="36.92317276755291" lon="14.70540020202873"><ele>633.0</ele><time>2026-03-29T10:12:00Z</time></trkpt><trkpt lat="36.923206354004925" lon="14.705467839388248"><ele>633.0</ele><time>2026-03-29T10:12:01Z</time></trkpt><trkpt lat="36.9232810811766" lon="14.705504243669333"><ele>633.1999999999999</ele><time>2026-03-29T10:12:02Z</time></trkpt><trkpt lat="36.92335247967125" lon="14.705486757629828"><ele>633.4</ele><time>2026-03-29T10:12:03Z</time></trkpt><trkpt lat="36.92346988880629" lon="14.705331658278661"><ele>633.5999999999999</ele><time>2026-03-29T10:12:05Z</time></trkpt><trkpt lat="36.923551523888364" lon="14.7052489597372"><ele>633.8</ele><time>2026-03-29T10:12:06Z</time></trkpt><trkpt lat="36.92362600851722" lon="14.70520432691511"><ele>634.0</ele><time>2026-03-29T10:12:07Z</time></trkpt><trkpt lat="36.92372545924101" lon="14.705189537434562"><ele>634.1666666666667</ele><time>2026-03-29T10:12:08Z</time></trkpt><trkpt lat="36.92383005901436" lon="14.705220352654402"><ele>634.3333333333334</ele><time>2026-03-29T10:12:09Z</time></trkpt><trkpt lat="36.923925214796874" lon="14.705216001852348"><ele>634.5</ele><time>2026-03-29T10:12:10Z</time></trkpt><trkpt lat="36.924006884924474" lon="14.705211673999674"><ele>634.6666666666666</ele><time>2026-03-29T10:12:11Z</time></trkpt><trkpt lat="36.924074172064266" lon="14.705207423863888"><ele>634.8333333333333</ele><time>2026-03-29T10:12:12Z</time></trkpt><trkpt lat="36.9241576395301" lon="14.70520179521109"><ele>635.0</ele><time>2026-03-29T10:12:14Z</time></trkpt><trkpt lat="36.92422533997816" lon="14.705195235713008"><ele>635.1666666666666</ele><time>2026-03-29T10:12:18Z</time></trkpt><trkpt lat="36.924310419359614" lon="14.705147004695876"><ele>635.3333333333333</ele><time>2026-03-29T10:12:21Z</time></trkpt><trkpt lat="36.92440020239047" lon="14.705134659241619"><ele>635.5</ele><time>2026-03-29T10:12:23Z</time></trkpt><trkpt lat="36.92447973948572" lon="14.705101554293046"><ele>635.6666666666666</ele><time>2026-03-29T10:12:25Z</time></trkpt><trkpt lat="36.9245872373381" lon="14.705060376737913"><ele>635.8333333333334</ele><time>2026-03-29T10:12:27Z</time></trkpt><trkpt lat="36.92465253708067" lon="14.705033618842597"><ele>636.0</ele><time>2026-03-29T10:12:28Z</time></trkpt><trkpt lat="36.924712336264335" lon="14.705007753669838"><ele>636.0</ele><time>2026-03-29T10:12:29Z</time></trkpt><trkpt lat="36.924848770610076" lon="14.704967173482771"><ele>636.0</ele><time>2026-03-29T10:12:31Z</time></trkpt><trkpt lat="36.92491691792392" lon="14.704936854095228"><ele>636.0</ele><time>2026-03-29T10:12:32Z</time></trkpt><trkpt lat="36.925009251449175" lon="14.704902350227398"><ele>636.0</ele><time>2026-03-29T10:12:33Z</time></trkpt><trkpt lat="36.92510309511836" lon="14.704870052170428"><ele>636.0</ele><time>2026-03-29T10:12:34Z</time></trkpt><trkpt lat="36.92520552908695" lon="14.704850552184228"><ele>636.0</ele><time>2026-03-29T10:12:35Z</time></trkpt><trkpt lat="36.925300998267886" lon="14.70482739147401"><ele>636.0</ele><time>2026-03-29T10:12:36Z</time></trkpt><trkpt lat="36.92539151627047" lon="14.704803957500534"><ele>636.0</ele><time>2026-03-29T10:12:37Z</time></trkpt><trkpt lat="36.92548664013724" lon="14.704777459017398"><ele>636.0</ele><time>2026-03-29T10:12:38Z</time></trkpt><trkpt lat="36.92559777359446" lon="14.704747590657934"><ele>636.0</ele><time>2026-03-29T10:12:39Z</time></trkpt><trkpt lat="36.925705761715435" lon="14.704725763945989"><ele>636.0</ele><time>2026-03-29T10:12:40Z</time></trkpt><trkpt lat="36.925791298520416" lon="14.70471124371848"><ele>636.0</ele><time>2026-03-29T10:12:41Z</time></trkpt><trkpt lat="36.92587513342679" lon="14.7047207362601"><ele>636.0</ele><time>2026-03-29T10:12:42Z</time></trkpt><trkpt lat="36.925951128706515" lon="14.704765084696827"><ele>636.0</ele><time>2026-03-29T10:12:43Z</time></trkpt><trkpt lat="36.926013549292" lon="14.704828335925592"><ele>636.0</ele><time>2026-03-29T10:12:44Z</time></trkpt><trkpt lat="36.92606543188298" lon="14.704884003831749"><ele>636.0</ele><time>2026-03-29T10:12:45Z</time></trkpt><trkpt lat="36.926126413884546" lon="14.704999307044805"><ele>635.8</ele><time>2026-03-29T10:12:47Z</time></trkpt><trkpt lat="36.92615295246286" lon="14.705083424872162"><ele>635.6</ele><time>2026-03-29T10:12:48Z</time></trkpt><trkpt lat="36.9261825896786" lon="14.705158668309911"><ele>635.4</ele><time>2026-03-29T10:12:49Z</time></trkpt><trkpt lat="36.926243614262106" lon="14.705289064535942"><ele>635.2</ele><time>2026-03-29T10:12:51Z</time></trkpt><trkpt lat="36.9263282701301" lon="14.705397982856955"><ele>635.0</ele><time>2026-03-29T10:12:53Z</time></trkpt><trkpt lat="36.92646559373275" lon="14.705420666994334"><ele>635.0</ele><time>2026-03-29T10:12:55Z</time></trkpt><trkpt lat="36.92653521746133" lon="14.705398242442508"><ele>635.0</ele><time>2026-03-29T10:12:56Z</time></trkpt><trkpt lat="36.926600906825406" lon="14.7053442537325"><ele>635.0</ele><time>2026-03-29T10:12:57Z</time></trkpt><trkpt lat="36.926627804176604" lon="14.705242122774692"><ele>635.0</ele><time>2026-03-29T10:12:58Z</time></trkpt><trkpt lat="36.92668957504465" lon="14.705155770759223"><ele>635.0</ele><time>2026-03-29T10:12:59Z</time></trkpt><trkpt lat="36.926730516065746" lon="14.705031231214294"><ele>635.0</ele><time>2026-03-29T10:13:00Z</time></trkpt><trkpt lat="36.92678711276076" lon="14.704918617447007"><ele>635.5</ele><time>2026-03-29T10:13:01Z</time></trkpt><trkpt lat="36.926842415599815" lon="14.70480495292825"><ele>636.0</ele><time>2026-03-29T10:13:02Z</time></trkpt><trkpt lat="36.92690326522791" lon="14.70467967354807"><ele>636.5</ele><time>2026-03-29T10:13:03Z</time></trkpt><trkpt lat="36.926961818797935" lon="14.704537997517821"><ele>637.0</ele><time>2026-03-29T10:13:04Z</time></trkpt><trkpt lat="36.92700412911545" lon="14.704373084465825"><ele>637.0</ele><time>2026-03-29T10:13:05Z</time></trkpt><trkpt lat="36.92703639179757" lon="14.704196570716187"><ele>637.0</ele><time>2026-03-29T10:13:06Z</time></trkpt><trkpt lat="36.92707316992657" lon="14.704036864480798"><ele>637.0</ele><time>2026-03-29T10:13:07Z</time></trkpt><trkpt lat="36.9271125653751" lon="14.703861935906946"><ele>637.0</ele><time>2026-03-29T10:13:08Z</time></trkpt><trkpt lat="36.927158321358185" lon="14.703694648641742"><ele>637.25</ele><time>2026-03-29T10:13:09Z</time></trkpt><trkpt lat="36.92719878663591" lon="14.703539706475146"><ele>637.5</ele><time>2026-03-29T10:13:10Z</time></trkpt><trkpt lat="36.927232854764064" lon="14.703404431638697"><ele>637.75</ele><time>2026-03-29T10:13:11Z</time></trkpt><trkpt lat="36.92726907826407" lon="14.703261318847527"><ele>638.0</ele><time>2026-03-29T10:13:12Z</time></trkpt><trkpt lat="36.92731016661307" lon="14.70311479392698"><ele>638.0</ele><time>2026-03-29T10:13:13Z</time></trkpt><trkpt lat="36.92734907053575" lon="14.702923908766408"><ele>638.0</ele><time>2026-03-29T10:13:14Z</time></trkpt><trkpt lat="36.92740135438597" lon="14.702719951145472"><ele>638.0</ele><time>2026-03-29T10:13:15Z</time></trkpt><trkpt lat="36.92745866024061" lon="14.702478452438216"><ele>638.3333333333333</ele><time>2026-03-29T10:13:16Z</time></trkpt><trkpt lat="36.92752270042433" lon="14.702225126411223"><ele>638.6666666666666</ele><time>2026-03-29T10:13:17Z</time></trkpt><trkpt lat="36.92758334745936" lon="14.701974972029973"><ele>639.0</ele><time>2026-03-29T10:13:18Z</time></trkpt><trkpt lat="36.92764967791283" lon="14.701717799667103"><ele>637.6666666666666</ele><time>2026-03-29T10:13:19Z</time></trkpt><trkpt lat="36.9277145192218" lon="14.701466475669271"><ele>636.3333333333333</ele><time>2026-03-29T10:13:20Z</time></trkpt><trkpt lat="36.927766735019624" lon="14.701245083352994"><ele>635.0</ele><time>2026-03-29T10:13:21Z</time></trkpt><trkpt lat="36.92781498921767" lon="14.701035790484887"><ele>635.0</ele><time>2026-03-29T10:13:22Z</time></trkpt><trkpt lat="36.92786351098021" lon="14.700833639191123"><ele>635.0</ele><time>2026-03-29T10:13:23Z</time></trkpt><trkpt lat="36.927913057580376" lon="14.700639409784163"><ele>635.0</ele><time>2026-03-29T10:13:24Z</time></trkpt><trkpt lat="36.927966274652405" lon="14.700437004458825"><ele>635.0</ele><time>2026-03-29T10:13:25Z</time></trkpt><trkpt lat="36.92801195998848" lon="14.700241624993142"><ele>635.0</ele><time>2026-03-29T10:13:26Z</time></trkpt><trkpt lat="36.92805885861764" lon="14.700055447304193"><ele>635.0</ele><time>2026-03-29T10:13:27Z</time></trkpt><trkpt lat="36.92810359039515" lon="14.699871636927192"><ele>635.0</ele><time>2026-03-29T10:13:28Z</time></trkpt><trkpt lat="36.92814066254227" lon="14.699702759515608"><ele>635.0</ele><time>2026-03-29T10:13:29Z</time></trkpt><trkpt lat="36.928172002670514" lon="14.69951971003"><ele>635.0</ele><time>2026-03-29T10:13:30Z</time></trkpt><trkpt lat="36.928216004693844" lon="14.699342015101319"><ele>635.0</ele><time>2026-03-29T10:13:31Z</time></trkpt><trkpt lat="36.92825948279418" lon="14.699175517743992"><ele>635.0</ele><time>2026-03-29T10:13:32Z</time></trkpt><trkpt lat="36.92830431781994" lon="14.698977687871272"><ele>635.0</ele><time>2026-03-29T10:13:33Z</time></trkpt><trkpt lat="36.928362037450455" lon="14.69876667716612"><ele>635.0</ele><time>2026-03-29T10:13:34Z</time></trkpt><trkpt lat="36.9284187623324" lon="14.698550742502459"><ele>634.0</ele><time>2026-03-29T10:13:35Z</time></trkpt><trkpt lat="36.928481527698445" lon="14.69831414566429"><ele>633.0</ele><time>2026-03-29T10:13:36Z</time></trkpt><trkpt lat="36.92854381993511" lon="14.698081388320707"><ele>632.0</ele><time>2026-03-29T10:13:37Z</time></trkpt><trkpt lat="36.92860008429804" lon="14.69786113791366"><ele>631.6666666666666</ele><time>2026-03-29T10:13:38Z</time></trkpt><trkpt lat="36.92864649880562" lon="14.697675906350852"><ele>631.3333333333334</ele><time>2026-03-29T10:13:39Z</time></trkpt><trkpt lat="36.928693265581515" lon="14.697497272377957"><ele>631.0</ele><time>2026-03-29T10:13:40Z</time></trkpt><trkpt lat="36.9287423521333" lon="14.69731576434436"><ele>631.0</ele><time>2026-03-29T10:13:41Z</time></trkpt><trkpt lat="36.92878675497945" lon="14.697131317421318"><ele>631.0</ele><time>2026-03-29T10:13:42Z</time></trkpt><trkpt lat="36.92882996022695" lon="14.696957929064666"><ele>631.0</ele><time>2026-03-29T10:13:43Z</time></trkpt><trkpt lat="36.928881386181146" lon="14.696781722608177"><ele>631.0</ele><time>2026-03-29T10:13:44Z</time></trkpt><trkpt lat="36.92891975041128" lon="14.696609309686474"><ele>631.2</ele><time>2026-03-29T10:13:45Z</time></trkpt><trkpt lat="36.928956786008015" lon="14.696454168733993"><ele>631.4000000000001</ele><time>2026-03-29T10:13:46Z</time></trkpt><trkpt lat="36.928985021359026" lon="14.696320391957267"><ele>631.6</ele><time>2026-03-29T10:13:47Z</time></trkpt><trkpt lat="36.92902452789538" lon="14.696198658216574"><ele>631.8000000000001</ele><time>2026-03-29T10:13:48Z</time></trkpt><trkpt lat="36.9290607710723" lon="14.696091457545258"><ele>632.0</ele><time>2026-03-29T10:13:49Z</time></trkpt><trkpt lat="36.92909631455078" lon="14.696016979504865"><ele>631.8000000000001</ele><time>2026-03-29T10:13:50Z</time></trkpt><trkpt lat="36.92919466595799" lon="14.695966635989972"><ele>631.6</ele><time>2026-03-29T10:13:52Z</time></trkpt><trkpt lat="36.92925609899915" lon="14.696010233006547"><ele>631.4000000000001</ele><time>2026-03-29T10:13:53Z</time></trkpt><trkpt lat="36.92930485531723" lon="14.6960993182832"><ele>631.2</ele><time>2026-03-29T10:13:54Z</time></trkpt><trkpt lat="36.92935394030326" lon="14.696221093822663"><ele>631.0</ele><time>2026-03-29T10:13:55Z</time></trkpt><trkpt lat="36.92944232065413" lon="14.696371933152957"><ele>631.0</ele><time>2026-03-29T10:13:56Z</time></trkpt><trkpt lat="36.929550868732406" lon="14.696562872196091"><ele>631.0</ele><time>2026-03-29T10:13:57Z</time></trkpt><trkpt lat="36.929662621563295" lon="14.696763732678749"><ele>631.0</ele><time>2026-03-29T10:13:58Z</time></trkpt><trkpt lat="36.92975405165452" lon="14.69694397368846"><ele>630.75</ele><time>2026-03-29T10:13:59Z</time></trkpt><trkpt lat="36.929855322766706" lon="14.697100517312052"><ele>630.5</ele><time>2026-03-29T10:14:00Z</time></trkpt><trkpt lat="36.929920563719406" lon="14.697224773873712"><ele>630.25</ele><time>2026-03-29T10:14:01Z</time></trkpt><trkpt lat="36.929981943495065" lon="14.697333874312434"><ele>630.0</ele><time>2026-03-29T10:14:02Z</time></trkpt><trkpt lat="36.93002742240438" lon="14.697407970231927"><ele>629.75</ele><time>2026-03-29T10:14:03Z</time></trkpt><trkpt lat="36.930083695065775" lon="14.697524759557897"><ele>629.5</ele><time>2026-03-29T10:14:05Z</time></trkpt><trkpt lat="36.93027749314" lon="14.69740176164031"><ele>629.25</ele><time>2026-03-29T10:14:07Z</time></trkpt><trkpt lat="36.930343873988114" lon="14.697296687166354"><ele>629.0</ele><time>2026-03-29T10:14:08Z</time></trkpt><trkpt lat="36.930416608442485" lon="14.697153198079189"><ele>629.0</ele><time>2026-03-29T10:14:09Z</time></trkpt><trkpt lat="36.930499549397666" lon="14.69700500820338"><ele>629.0</ele><time>2026-03-29T10:14:10Z</time></trkpt><trkpt lat="36.930577450288645" lon="14.696844734033494"><ele>629.0</ele><time>2026-03-29T10:14:11Z</time></trkpt><trkpt lat="36.930637231625546" lon="14.696721260351113"><ele>629.0</ele><time>2026-03-29T10:14:12Z</time></trkpt><trkpt lat="36.930689569933364" lon="14.696630989756315"><ele>629.3333333333333</ele><time>2026-03-29T10:14:13Z</time></trkpt><trkpt lat="36.93073629958985" lon="14.696529785993604"><ele>629.6666666666666</ele><time>2026-03-29T10:14:14Z</time></trkpt><trkpt lat="36.93078557280734" lon="14.696428514615048"><ele>630.0</ele><time>2026-03-29T10:14:15Z</time></trkpt><trkpt lat="36.93084145810319" lon="14.696325396532616"><ele>630.3333333333334</ele><time>2026-03-29T10:14:16Z</time></trkpt><trkpt lat="36.93089590180416" lon="14.69623365869038"><ele>630.6666666666667</ele><time>2026-03-29T10:14:17Z</time></trkpt><trkpt lat="36.93093147686733" lon="14.696162827573119"><ele>631.0</ele><time>2026-03-29T10:14:18Z</time></trkpt><trkpt lat="36.93096492374932" lon="14.69608131196412"><ele>630.2</ele><time>2026-03-29T10:14:19Z</time></trkpt><trkpt lat="36.93101282539902" lon="14.696007575594313"><ele>629.4000000000001</ele><time>2026-03-29T10:14:20Z</time></trkpt><trkpt lat="36.93105939329145" lon="14.695938216589733"><ele>628.6</ele><time>2026-03-29T10:14:21Z</time></trkpt><trkpt lat="36.931127188410635" lon="14.695815023787002"><ele>627.8000000000001</ele><time>2026-03-29T10:14:23Z</time></trkpt><trkpt lat="36.93119942585165" lon="14.695703563655774"><ele>627.0</ele><time>2026-03-29T10:14:25Z</time></trkpt><trkpt lat="36.93123331955873" lon="14.695609265952065"><ele>627.0</ele><time>2026-03-29T10:14:26Z</time></trkpt><trkpt lat="36.93127685387602" lon="14.695533738535067"><ele>627.0</ele><time>2026-03-29T10:14:27Z</time></trkpt><trkpt lat="36.931322525107376" lon="14.69545685886371"><ele>627.0</ele><time>2026-03-29T10:14:28Z</time></trkpt><trkpt lat="36.931366908893914" lon="14.69538186561475"><ele>627.0</ele><time>2026-03-29T10:14:29Z</time></trkpt><trkpt lat="36.93139901616053" lon="14.695308026611343"><ele>627.0</ele><time>2026-03-29T10:14:30Z</time></trkpt><trkpt lat="36.93137007398836" lon="14.695175836529671"><ele>627.0</ele><time>2026-03-29T10:14:32Z</time></trkpt><trkpt lat="36.9313115168272" lon="14.695128906025579"><ele>627.0</ele><time>2026-03-29T10:14:33Z</time></trkpt><trkpt lat="36.931241613665456" lon="14.695124658476205"><ele>627.0</ele><time>2026-03-29T10:14:34Z</time></trkpt><trkpt lat="36.93113243587587" lon="14.695064763401726"><ele>627.0</ele><time>2026-03-29T10:14:36Z</time></trkpt><trkpt lat="36.93100397794206" lon="14.695002204179973"><ele>627.0</ele><time>2026-03-29T10:14:38Z</time></trkpt><trkpt lat="36.930927571517365" lon="14.694957250132255"><ele>627.0</ele><time>2026-03-29T10:14:39Z</time></trkpt><trkpt lat="36.93085757033351" lon="14.694897425686195"><ele>627.1666666666666</ele><time>2026-03-29T10:14:40Z</time></trkpt><trkpt lat="36.930784369096614" lon="14.69485717420827"><ele>627.3333333333334</ele><time>2026-03-29T10:14:41Z</time></trkpt><trkpt lat="36.930729694640306" lon="14.69481079835358"><ele>627.5</ele><time>2026-03-29T10:14:42Z</time></trkpt><trkpt lat="36.930690274896456" lon="14.694740204871449"><ele>627.6666666666667</ele><time>2026-03-29T10:14:43Z</time></trkpt><trkpt lat="36.93068514393442" lon="14.694651469331868"><ele>627.8333333333334</ele><time>2026-03-29T10:14:44Z</time></trkpt><trkpt lat="36.93071290969591" lon="14.694550081037045"><ele>628.0</ele><time>2026-03-29T10:14:45Z</time></trkpt><trkpt lat="36.93074887226198" lon="14.69442080257448"><ele>628.0</ele><time>2026-03-29T10:14:46Z</time></trkpt><trkpt lat="36.9307782999018" lon="14.694286715029174"><ele>628.0</ele><time>2026-03-29T10:14:47Z</time></trkpt><trkpt lat="36.93081169809724" lon="14.694169023132064"><ele>628.0</ele><time>2026-03-29T10:14:48Z</time></trkpt><trkpt lat="36.93084268628012" lon="14.694049563619522"><ele>628.0</ele><time>2026-03-29T10:14:49Z</time></trkpt><trkpt lat="36.93086840271152" lon="14.693926004720879"><ele>628.0</ele><time>2026-03-29T10:14:50Z</time></trkpt><trkpt lat="36.93090534247957" lon="14.693774152267718"><ele>628.0</ele><time>2026-03-29T10:14:51Z</time></trkpt><trkpt lat="36.93093695955813" lon="14.693644095226805"><ele>628.0</ele><time>2026-03-29T10:14:52Z</time></trkpt><trkpt lat="36.93095789171937" lon="14.693521606979548"><ele>628.0</ele><time>2026-03-29T10:14:53Z</time></trkpt><trkpt lat="36.930991916074895" lon="14.69339436745165"><ele>628.0</ele><time>2026-03-29T10:14:54Z</time></trkpt><trkpt lat="36.93102680074192" lon="14.6932962294577"><ele>628.0</ele><time>2026-03-29T10:14:55Z</time></trkpt><trkpt lat="36.93103151207361" lon="14.693203751800809"><ele>628.0</ele><time>2026-03-29T10:14:57Z</time></trkpt><trkpt lat="36.930975838057165" lon="14.693121037873103"><ele>628.0</ele><time>2026-03-29T10:14:59Z</time></trkpt><trkpt lat="36.93091367910911" lon="14.693103155848304"><ele>628.0</ele><time>2026-03-29T10:15:01Z</time></trkpt><trkpt lat="36.93105652301733" lon="14.693101430215508"><ele>628.0</ele><time>2026-03-29T10:16:16Z</time></trkpt><trkpt lat="36.9311094772947" lon="14.693000787997637"><ele>628.0</ele><time>2026-03-29T10:16:17Z</time></trkpt><trkpt lat="36.93114231881899" lon="14.692884724476302"><ele>628.25</ele><time>2026-03-29T10:16:18Z</time></trkpt><trkpt lat="36.93117064931709" lon="14.692743608787929"><ele>628.5</ele><time>2026-03-29T10:16:19Z</time></trkpt><trkpt lat="36.93119996448795" lon="14.69256461298402"><ele>628.75</ele><time>2026-03-29T10:16:20Z</time></trkpt><trkpt lat="36.93123384660565" lon="14.692387363929894"><ele>629.0</ele><time>2026-03-29T10:16:21Z</time></trkpt><trkpt lat="36.93127297457775" lon="14.692225333007512"><ele>629.0</ele><time>2026-03-29T10:16:22Z</time></trkpt><trkpt lat="36.931311023996535" lon="14.692054664264228"><ele>629.0</ele><time>2026-03-29T10:16:23Z</time></trkpt><trkpt lat="36.931350029081386" lon="14.691896016872887"><ele>629.0</ele><time>2026-03-29T10:16:24Z</time></trkpt><trkpt lat="36.93138804697818" lon="14.691744123549807"><ele>629.0</ele><time>2026-03-29T10:16:25Z</time></trkpt><trkpt lat="36.93142729635853" lon="14.691592171003714"><ele>630.25</ele><time>2026-03-29T10:16:26Z</time></trkpt><trkpt lat="36.93146620393117" lon="14.691441099356005"><ele>631.5</ele><time>2026-03-29T10:16:27Z</time></trkpt><trkpt lat="36.93150638247085" lon="14.691283898270344"><ele>632.75</ele><time>2026-03-29T10:16:28Z</time></trkpt><trkpt lat="36.931545897013784" lon="14.69113833921549"><ele>634.0</ele><time>2026-03-29T10:16:29Z</time></trkpt><trkpt lat="36.93158248978287" lon="14.690997325781312"><ele>634.25</ele><time>2026-03-29T10:16:30Z</time></trkpt><trkpt lat="36.93161905631816" lon="14.690853582716787"><ele>634.5</ele><time>2026-03-29T10:16:31Z</time></trkpt><trkpt lat="36.93165583722886" lon="14.690709297547157"><ele>634.75</ele><time>2026-03-29T10:16:32Z</time></trkpt><trkpt lat="36.93168860701056" lon="14.690561141349063"><ele>635.0</ele><time>2026-03-29T10:16:33Z</time></trkpt><trkpt lat="36.93172177061656" lon="14.690405413543548"><ele>636.0</ele><time>2026-03-29T10:16:34Z</time></trkpt><trkpt lat="36.93174964777385" lon="14.69024907774867"><ele>637.0</ele><time>2026-03-29T10:16:35Z</time></trkpt><trkpt lat="36.93179973036192" lon="14.690107558319609"><ele>638.0</ele><time>2026-03-29T10:16:36Z</time></trkpt><trkpt lat="36.93183892255343" lon="14.689957374574934"><ele>639.0</ele><time>2026-03-29T10:16:37Z</time></trkpt><trkpt lat="36.93186838799374" lon="14.68983085288543"><ele>639.0</ele><time>2026-03-29T10:16:38Z</time></trkpt><trkpt lat="36.93189453393553" lon="14.689725076679387"><ele>639.0</ele><time>2026-03-29T10:16:39Z</time></trkpt><trkpt lat="36.931930339218255" lon="14.689615320786544"><ele>639.0</ele><time>2026-03-29T10:16:40Z</time></trkpt><trkpt lat="36.93195884963996" lon="14.689487748924737"><ele>639.0</ele><time>2026-03-29T10:16:42Z</time></trkpt><trkpt lat="36.93192997148865" lon="14.689391128880542"><ele>639.0</ele><time>2026-03-29T10:16:45Z</time></trkpt><trkpt lat="36.93186799761995" lon="14.689353304108382"><ele>639.0</ele><time>2026-03-29T10:16:46Z</time></trkpt><trkpt lat="36.93177257986642" lon="14.689348827164691"><ele>638.8</ele><time>2026-03-29T10:16:47Z</time></trkpt><trkpt lat="36.93167795753664" lon="14.689314555552968"><ele>638.5999999999999</ele><time>2026-03-29T10:16:48Z</time></trkpt><trkpt lat="36.93157598734724" lon="14.68925481774429"><ele>638.4</ele><time>2026-03-29T10:16:49Z</time></trkpt><trkpt lat="36.93146924741707" lon="14.689208078548662"><ele>638.1999999999999</ele><time>2026-03-29T10:16:50Z</time></trkpt><trkpt lat="36.93137824033195" lon="14.68917552148923"><ele>638.0</ele><time>2026-03-29T10:16:51Z</time></trkpt><trkpt lat="36.93129409848274" lon="14.689135610529952"><ele>638.0</ele><time>2026-03-29T10:16:52Z</time></trkpt><trkpt lat="36.931213961099054" lon="14.689096728012393"><ele>638.0</ele><time>2026-03-29T10:16:53Z</time></trkpt><trkpt lat="36.93114165864581" lon="14.689069922811912"><ele>638.0</ele><time>2026-03-29T10:16:54Z</time></trkpt><trkpt lat="36.93107877307421" lon="14.689042385340718"><ele>638.0</ele><time>2026-03-29T10:16:55Z</time></trkpt><trkpt lat="36.93099585411612" lon="14.6889955862739"><ele>638.0</ele><time>2026-03-29T10:16:57Z</time></trkpt><trkpt lat="36.931040241752704" lon="14.689055819183782"><ele>638.0</ele><time>2026-03-29T10:17:55Z</time></trkpt><trkpt lat="36.93113802246456" lon="14.68908700762188"><ele>638.0</ele><time>2026-03-29T10:17:56Z</time></trkpt><trkpt lat="36.93123649392514" lon="14.689117247013195"><ele>638.0</ele><time>2026-03-29T10:17:57Z</time></trkpt><trkpt lat="36.93136185823115" lon="14.689168827794994"><ele>638.0</ele><time>2026-03-29T10:17:58Z</time></trkpt><trkpt lat="36.931481427313955" lon="14.689258068536919"><ele>638.0</ele><time>2026-03-29T10:17:59Z</time></trkpt><trkpt lat="36.931619830040184" lon="14.689317613600673"><ele>637.8</ele><time>2026-03-29T10:18:00Z</time></trkpt><trkpt lat="36.93172367790649" lon="14.689362292139805"><ele>637.5999999999999</ele><time>2026-03-29T10:18:01Z</time></trkpt><trkpt lat="36.931816048898256" lon="14.689359176692864"><ele>637.4000000000001</ele><time>2026-03-29T10:18:02Z</time></trkpt><trkpt lat="36.931877847357285" lon="14.689395500917556"><ele>637.2</ele><time>2026-03-29T10:18:04Z</time></trkpt><trkpt lat="36.93191305067641" lon="14.68951338700412"><ele>637.0</ele><time>2026-03-29T10:18:07Z</time></trkpt><trkpt lat="36.93188216486403" lon="14.689612536128521"><ele>637.5</ele><time>2026-03-29T10:18:08Z</time></trkpt><trkpt lat="36.93184873316184" lon="14.68974303430373"><ele>638.0</ele><time>2026-03-29T10:18:09Z</time></trkpt><trkpt lat="36.931811446302255" lon="14.689905428556314"><ele>638.5</ele><time>2026-03-29T10:18:10Z</time></trkpt><trkpt lat="36.93177148244987" lon="14.690070263828199"><ele>639.0</ele><time>2026-03-29T10:18:11Z</time></trkpt><trkpt lat="36.93172583137571" lon="14.69023747153504"><ele>638.0</ele><time>2026-03-29T10:18:12Z</time></trkpt><trkpt lat="36.93168736155881" lon="14.690409641459913"><ele>637.0</ele><time>2026-03-29T10:18:13Z</time></trkpt><trkpt lat="36.931645246088316" lon="14.690578776732066"><ele>636.0</ele><time>2026-03-29T10:18:14Z</time></trkpt><trkpt lat="36.93160076273438" lon="14.690732648557876"><ele>635.0</ele><time>2026-03-29T10:18:15Z</time></trkpt><trkpt lat="36.931565548193944" lon="14.690903498973372"><ele>635.0</ele><time>2026-03-29T10:18:16Z</time></trkpt><trkpt lat="36.93152479839132" lon="14.691067369240981"><ele>635.0</ele><time>2026-03-29T10:18:17Z</time></trkpt><trkpt lat="36.931483411405054" lon="14.691232980072034"><ele>635.0</ele><time>2026-03-29T10:18:18Z</time></trkpt><trkpt lat="36.93144101957124" lon="14.69138812343147"><ele>635.0</ele><time>2026-03-29T10:18:19Z</time></trkpt><trkpt lat="36.931409652164504" lon="14.691529957779844"><ele>634.8</ele><time>2026-03-29T10:18:20Z</time></trkpt><trkpt lat="36.931381331674125" lon="14.69165936097007"><ele>634.6</ele><time>2026-03-29T10:18:21Z</time></trkpt><trkpt lat="36.931352319246706" lon="14.691784968654538"><ele>634.4</ele><time>2026-03-29T10:18:22Z</time></trkpt><trkpt lat="36.931320969306576" lon="14.691913438976808"><ele>634.2</ele><time>2026-03-29T10:18:23Z</time></trkpt><trkpt lat="36.93128593906083" lon="14.69203618149115"><ele>634.0</ele><time>2026-03-29T10:18:24Z</time></trkpt><trkpt lat="36.93125269618591" lon="14.692172108640912"><ele>633.0</ele><time>2026-03-29T10:18:25Z</time></trkpt><trkpt lat="36.931214152466865" lon="14.692319561397946"><ele>632.0</ele><time>2026-03-29T10:18:26Z</time></trkpt><trkpt lat="36.9311792893773" lon="14.692447126409212"><ele>631.0</ele><time>2026-03-29T10:18:27Z</time></trkpt><trkpt lat="36.931143776731204" lon="14.69257277439466"><ele>630.0</ele><time>2026-03-29T10:18:28Z</time></trkpt><trkpt lat="36.9311148731171" lon="14.692703165968725"><ele>629.0</ele><time>2026-03-29T10:18:29Z</time></trkpt><trkpt lat="36.93108941884709" lon="14.692819131409601"><ele>629.0</ele><time>2026-03-29T10:18:30Z</time></trkpt><trkpt lat="36.93106275284333" lon="14.692916277095225"><ele>629.0</ele><time>2026-03-29T10:18:31Z</time></trkpt><trkpt lat="36.93104488397688" lon="14.693013589803016"><ele>629.0</ele><time>2026-03-29T10:18:32Z</time></trkpt><trkpt lat="36.93101489814388" lon="14.693114353493147"><ele>629.0</ele><time>2026-03-29T10:18:34Z</time></trkpt><trkpt lat="36.930848341102056" lon="14.693125410519325"><ele>629.0</ele><time>2026-03-29T10:18:37Z</time></trkpt><trkpt lat="36.93074833631528" lon="14.6930860867243"><ele>629.0</ele><time>2026-03-29T10:18:38Z</time></trkpt><trkpt lat="36.93065184130718" lon="14.693047888878544"><ele>629.0</ele><time>2026-03-29T10:18:39Z</time></trkpt><trkpt lat="36.93056436262748" lon="14.693002068985432"><ele>629.0</ele><time>2026-03-29T10:18:40Z</time></trkpt><trkpt lat="36.930477572753134" lon="14.692966674419194"><ele>629.0</ele><time>2026-03-29T10:18:41Z</time></trkpt><trkpt lat="36.93038525146842" lon="14.692932424039554"><ele>629.0</ele><time>2026-03-29T10:18:42Z</time></trkpt><trkpt lat="36.930298481102064" lon="14.692901508628704"><ele>629.0</ele><time>2026-03-29T10:18:43Z</time></trkpt><trkpt lat="36.93022193613997" lon="14.692869113748328"><ele>629.0</ele><time>2026-03-29T10:18:44Z</time></trkpt><trkpt lat="36.930164904434776" lon="14.692835304921475"><ele>629.0</ele><time>2026-03-29T10:18:45Z</time></trkpt><trkpt lat="36.930101228608976" lon="14.6928150877448"><ele>629.0</ele><time>2026-03-29T10:18:46Z</time></trkpt><trkpt lat="36.9300323552696" lon="14.692793843303264"><ele>629.0</ele><time>2026-03-29T10:18:48Z</time></trkpt><trkpt lat="36.929965061680285" lon="14.692751423332243"><ele>629.0</ele><time>2026-03-29T10:18:50Z</time></trkpt><trkpt lat="36.92989095012884" lon="14.692743339435884"><ele>629.0</ele><time>2026-03-29T10:18:54Z</time></trkpt><trkpt lat="36.929823886797784" lon="14.693019363223456"><ele>629.0</ele><time>2026-03-29T10:18:55Z</time></trkpt><trkpt lat="36.92981424927279" lon="14.693107776760288"><ele>629.0</ele><time>2026-03-29T10:18:56Z</time></trkpt><trkpt lat="36.9297917383603" lon="14.693191373320305"><ele>629.0</ele><time>2026-03-29T10:18:57Z</time></trkpt><trkpt lat="36.92976573887019" lon="14.693317454828023"><ele>629.0</ele><time>2026-03-29T10:18:59Z</time></trkpt><trkpt lat="36.929735695746395" lon="14.693388021770962"><ele>629.0</ele><time>2026-03-29T10:19:02Z</time></trkpt><trkpt lat="36.9297248809343" lon="14.693507210973573"><ele>629.0</ele><time>2026-03-29T10:19:05Z</time></trkpt><trkpt lat="36.92970896881509" lon="14.693596908212822"><ele>629.0</ele><time>2026-03-29T10:19:07Z</time></trkpt><trkpt lat="36.92973581884401" lon="14.693668817059455"><ele>629.0</ele><time>2026-03-29T10:19:10Z</time></trkpt><trkpt lat="36.92981790253328" lon="14.693679140812014"><ele>629.0</ele><time>2026-03-29T10:19:12Z</time></trkpt><trkpt lat="36.929918184182924" lon="14.693723717860934"><ele>629.0</ele><time>2026-03-29T10:19:14Z</time></trkpt><trkpt lat="36.930016408047834" lon="14.693749469285594"><ele>629.0</ele><time>2026-03-29T10:19:16Z</time></trkpt><trkpt lat="36.930091020850476" lon="14.693783640346346"><ele>629.0</ele><time>2026-03-29T10:19:18Z</time></trkpt><trkpt lat="36.930124061410794" lon="14.69385710143707"><ele>629.0</ele><time>2026-03-29T10:19:21Z</time></trkpt><trkpt lat="36.93003623883953" lon="14.693811040976506"><ele>629.0</ele><time>2026-03-29T10:20:28Z</time></trkpt><trkpt lat="36.92998249355087" lon="14.693769031012343"><ele>629.0</ele><time>2026-03-29T10:20:33Z</time></trkpt><trkpt lat="36.929934085473285" lon="14.693715840122595"><ele>629.0</ele><time>2026-03-29T10:20:38Z</time></trkpt><trkpt lat="36.929866044930215" lon="14.69368657423269"><ele>629.0</ele><time>2026-03-29T10:20:44Z</time></trkpt><trkpt lat="36.92986069548842" lon="14.693606468268646"><ele>629.0</ele><time>2026-03-29T10:20:53Z</time></trkpt><trkpt lat="36.92987210682266" lon="14.693520888037213"><ele>629.0</ele><time>2026-03-29T10:21:10Z</time></trkpt><trkpt lat="36.92985441257254" lon="14.693426150080073"><ele>629.0</ele><time>2026-03-29T10:21:27Z</time></trkpt><trkpt lat="36.92994322593282" lon="14.69343457219858"><ele>629.0</ele><time>2026-03-29T10:21:38Z</time></trkpt><trkpt lat="36.930002041651335" lon="14.69346422612822"><ele>629.0</ele><time>2026-03-29T10:21:53Z</time></trkpt><trkpt lat="36.92986666173809" lon="14.693466191637988"><ele>629.0</ele><time>2026-03-29T10:22:49Z</time></trkpt><trkpt lat="36.92981562409395" lon="14.693514855474707"><ele>629.0</ele><time>2026-03-29T10:22:52.999Z</time></trkpt><trkpt lat="36.929879246873625" lon="14.693530457402755"><ele>629.0</ele><time>2026-03-29T10:27:39Z</time></trkpt><trkpt lat="36.92992192876235" lon="14.693590557679942"><ele>629.0</ele><time>2026-03-29T10:27:42Z</time></trkpt><trkpt lat="36.9297653524735" lon="14.693430046536132"><ele>629.0</ele><time>2026-03-29T10:27:44Z</time></trkpt><trkpt lat="36.92965308277883" lon="14.693194591234647"><ele>629.0</ele><time>2026-03-29T10:27:47Z</time></trkpt><trkpt lat="36.9298341891129" lon="14.693277561734774"><ele>629.0</ele><time>2026-03-29T10:27:48Z</time></trkpt><trkpt lat="36.92986084353739" lon="14.693362081750378"><ele>629.0</ele><time>2026-03-29T10:27:50Z</time></trkpt><trkpt lat="36.929953355438826" lon="14.693423537861204"><ele>629.0</ele><time>2026-03-29T10:28:04Z</time></trkpt><trkpt lat="36.92989158280769" lon="14.693318405873663"><ele>629.0</ele><time>2026-03-29T10:28:11Z</time></trkpt><trkpt lat="36.929928606820326" lon="14.693482013386065"><ele>629.0</ele><time>2026-03-29T10:28:18Z</time></trkpt><trkpt lat="36.92984971717654" lon="14.693501064482245"><ele>629.0</ele><time>2026-03-29T10:28:22Z</time></trkpt><trkpt lat="36.929859365583326" lon="14.693579722686666"><ele>629.0</ele><time>2026-03-29T10:38:32Z</time></trkpt><trkpt lat="36.929882572709026" lon="14.693661793120071"><ele>629.0</ele><time>2026-03-29T10:38:35Z</time></trkpt><trkpt lat="36.92994079245182" lon="14.693717154540002"><ele>629.0</ele><time>2026-03-29T10:38:40Z</time></trkpt><trkpt lat="36.93001265566782" lon="14.69375051426686"><ele>629.0</ele><time>2026-03-29T10:38:47Z</time></trkpt><trkpt lat="36.930073676989004" lon="14.693787036793394"><ele>629.0</ele><time>2026-03-29T10:38:54Z</time></trkpt><trkpt lat="36.93011082524859" lon="14.69385279572778"><ele>629.0</ele><time>2026-03-29T10:39:03Z</time></trkpt><trkpt lat="36.93015037146223" lon="14.693756964083047"><ele>629.0</ele><time>2026-03-29T10:42:53Z</time></trkpt><trkpt lat="36.93018492111519" lon="14.693620162870328"><ele>629.0</ele><time>2026-03-29T10:42:55Z</time></trkpt><trkpt lat="36.93016390842816" lon="14.693523335988134"><ele>629.0</ele><time>2026-03-29T10:42:57Z</time></trkpt><trkpt lat="36.930066043701004" lon="14.693492788783598"><ele>629.0</ele><time>2026-03-29T10:42:59Z</time></trkpt><trkpt lat="36.92999197766692" lon="14.693462504035294"><ele>629.0</ele><time>2026-03-29T10:43:00Z</time></trkpt><trkpt lat="36.92991143816012" lon="14.69344022605175"><ele>629.0</ele><time>2026-03-29T10:43:01Z</time></trkpt><trkpt lat="36.92982930835452" lon="14.693422569744829"><ele>629.0</ele><time>2026-03-29T10:43:03Z</time></trkpt><trkpt lat="36.92977549926015" lon="14.693371480611809"><ele>629.0</ele><time>2026-03-29T10:43:13Z</time></trkpt><trkpt lat="36.929797154124806" lon="14.693282554387668"><ele>629.0</ele><time>2026-03-29T10:43:15Z</time></trkpt><trkpt lat="36.929819703797826" lon="14.693188047259087"><ele>629.0</ele><time>2026-03-29T10:43:16Z</time></trkpt><trkpt lat="36.929842545886686" lon="14.693082481582644"><ele>629.0</ele><time>2026-03-29T10:43:17Z</time></trkpt><trkpt lat="36.92986189580179" lon="14.693002781138619"><ele>629.0</ele><time>2026-03-29T10:43:18Z</time></trkpt><trkpt lat="36.92989891066671" lon="14.692869983228372"><ele>629.0</ele><time>2026-03-29T10:43:20Z</time></trkpt><trkpt lat="36.92990805272238" lon="14.692766275455245"><ele>629.0</ele><time>2026-03-29T10:43:22Z</time></trkpt><trkpt lat="36.930063743843455" lon="14.692832251700565"><ele>629.0</ele><time>2026-03-29T10:43:23Z</time></trkpt><trkpt lat="36.93013692360994" lon="14.692866181627638"><ele>629.0</ele><time>2026-03-29T10:43:24Z</time></trkpt><trkpt lat="36.930230239350934" lon="14.692909754562942"><ele>629.0</ele><time>2026-03-29T10:43:25Z</time></trkpt><trkpt lat="36.93035352003913" lon="14.692958032825853"><ele>629.0</ele><time>2026-03-29T10:43:26Z</time></trkpt><trkpt lat="36.930452741156266" lon="14.69299610399642"><ele>629.0</ele><time>2026-03-29T10:43:27Z</time></trkpt><trkpt lat="36.93054576939169" lon="14.693027382771792"><ele>629.0</ele><time>2026-03-29T10:43:28Z</time></trkpt><trkpt lat="36.930631683518406" lon="14.69306279318005"><ele>629.0</ele><time>2026-03-29T10:43:29Z</time></trkpt><trkpt lat="36.930703834047975" lon="14.693096814407392"><ele>629.0</ele><time>2026-03-29T10:43:30Z</time></trkpt><trkpt lat="36.930778018944835" lon="14.693123915915184"><ele>629.0</ele><time>2026-03-29T10:43:31Z</time></trkpt><trkpt lat="36.930846770889616" lon="14.693148636050841"><ele>629.0</ele><time>2026-03-29T10:43:32Z</time></trkpt><trkpt lat="36.930922354722156" lon="14.693186508298437"><ele>629.0</ele><time>2026-03-29T10:43:34Z</time></trkpt><trkpt lat="36.931000732917475" lon="14.693203698324185"><ele>629.0</ele><time>2026-03-29T10:43:38Z</time></trkpt><trkpt lat="36.93110093027832" lon="14.693066975502736"><ele>629.0</ele><time>2026-03-29T10:43:41Z</time></trkpt><trkpt lat="36.931121470011185" lon="14.69298291712373"><ele>629.0</ele><time>2026-03-29T10:43:42Z</time></trkpt><trkpt lat="36.93115611479162" lon="14.692851296829643"><ele>629.0</ele><time>2026-03-29T10:43:43Z</time></trkpt><trkpt lat="36.93119566392734" lon="14.6927237909843"><ele>629.0</ele><time>2026-03-29T10:43:44Z</time></trkpt><trkpt lat="36.93120890272532" lon="14.692597433182417"><ele>629.0</ele><time>2026-03-29T10:43:45Z</time></trkpt><trkpt lat="36.931257124495495" lon="14.69246367356528"><ele>629.0</ele><time>2026-03-29T10:43:46Z</time></trkpt><trkpt lat="36.93128946264955" lon="14.692316652104413"><ele>629.0</ele><time>2026-03-29T10:43:47Z</time></trkpt><trkpt lat="36.93131720733201" lon="14.692172107738235"><ele>629.0</ele><time>2026-03-29T10:43:48Z</time></trkpt><trkpt lat="36.931352605624134" lon="14.692020641951233"><ele>629.0</ele><time>2026-03-29T10:43:49Z</time></trkpt><trkpt lat="36.93138939764971" lon="14.691862550612212"><ele>630.25</ele><time>2026-03-29T10:43:50Z</time></trkpt><trkpt lat="36.93142669137584" lon="14.691710020453062"><ele>631.5</ele><time>2026-03-29T10:43:51Z</time></trkpt><trkpt lat="36.93146268462454" lon="14.691563830862568"><ele>632.75</ele><time>2026-03-29T10:43:52Z</time></trkpt><trkpt lat="36.93149900213227" lon="14.691418595012907"><ele>634.0</ele><time>2026-03-29T10:43:53Z</time></trkpt><trkpt lat="36.931529580888665" lon="14.69129628379605"><ele>634.0</ele><time>2026-03-29T10:43:54Z</time></trkpt><trkpt lat="36.93155761490993" lon="14.69116857245248"><ele>634.0</ele><time>2026-03-29T10:43:55Z</time></trkpt><trkpt lat="36.9315850546232" lon="14.691043073601191"><ele>634.0</ele><time>2026-03-29T10:43:56Z</time></trkpt><trkpt lat="36.93161634185063" lon="14.690934260360232"><ele>634.0</ele><time>2026-03-29T10:43:57Z</time></trkpt><trkpt lat="36.93164444751706" lon="14.690823778623532"><ele>634.0</ele><time>2026-03-29T10:43:58Z</time></trkpt><trkpt lat="36.931679382732796" lon="14.690710929868402"><ele>634.2</ele><time>2026-03-29T10:43:59Z</time></trkpt><trkpt lat="36.931713578354014" lon="14.690592105363793"><ele>634.4</ele><time>2026-03-29T10:44:00Z</time></trkpt><trkpt lat="36.931738107832764" lon="14.690485614879307"><ele>634.6</ele><time>2026-03-29T10:44:01Z</time></trkpt><trkpt lat="36.93176771720861" lon="14.690345498276095"><ele>634.8</ele><time>2026-03-29T10:44:02Z</time></trkpt><trkpt lat="36.93180726166156" lon="14.690184363122912"><ele>635.0</ele><time>2026-03-29T10:44:03Z</time></trkpt><trkpt lat="36.93183705716445" lon="14.690064469572944"><ele>635.6666666666666</ele><time>2026-03-29T10:44:04Z</time></trkpt><trkpt lat="36.93185983065598" lon="14.6899598664817"><ele>636.3333333333333</ele><time>2026-03-29T10:44:05Z</time></trkpt><trkpt lat="36.93188048826525" lon="14.689879314257244"><ele>637.0</ele><time>2026-03-29T10:44:06Z</time></trkpt><trkpt lat="36.93192188517192" lon="14.689724905102432"><ele>637.6666666666666</ele><time>2026-03-29T10:44:08Z</time></trkpt><trkpt lat="36.931938072087775" lon="14.689631545589872"><ele>638.3333333333334</ele><time>2026-03-29T10:44:11Z</time></trkpt><trkpt lat="36.93196269607638" lon="14.689552642735086"><ele>639.0</ele><time>2026-03-29T10:44:18Z</time></trkpt><trkpt lat="36.93200556808735" lon="14.689474402564288"><ele>638.5</ele><time>2026-03-29T10:44:38Z</time></trkpt><trkpt lat="36.93202102046825" lon="14.689366480015583"><ele>638.0</ele><time>2026-03-29T10:44:39Z</time></trkpt><trkpt lat="36.93204584591737" lon="14.689236224190878"><ele>637.5</ele><time>2026-03-29T10:44:40Z</time></trkpt><trkpt lat="36.93208280897916" lon="14.689070243536051"><ele>637.0</ele><time>2026-03-29T10:44:41Z</time></trkpt><trkpt lat="36.93211869288078" lon="14.688883631192876"><ele>637.0</ele><time>2026-03-29T10:44:42Z</time></trkpt><trkpt lat="36.9321568296683" lon="14.688761238563043"><ele>637.0</ele><time>2026-03-29T10:44:43Z</time></trkpt><trkpt lat="36.93217968087204" lon="14.688655599370943"><ele>637.0</ele><time>2026-03-29T10:44:44Z</time></trkpt><trkpt lat="36.93220375133506" lon="14.688570274625999"><ele>637.0</ele><time>2026-03-29T10:44:45Z</time></trkpt><trkpt lat="36.93221522335216" lon="14.688472323299955"><ele>637.0</ele><time>2026-03-29T10:44:47Z</time></trkpt><trkpt lat="36.93239042501602" lon="14.688478671856044"><ele>636.5</ele><time>2026-03-29T10:44:49Z</time></trkpt><trkpt lat="36.9324800404127" lon="14.688488165558683"><ele>636.0</ele><time>2026-03-29T10:44:50Z</time></trkpt><trkpt lat="36.93260497364665" lon="14.688494688964598"><ele>635.5</ele><time>2026-03-29T10:44:51Z</time></trkpt><trkpt lat="36.93275092750429" lon="14.688493803583212"><ele>635.0</ele><time>2026-03-29T10:44:52Z</time></trkpt><trkpt lat="36.932900788536635" lon="14.688492927945816"><ele>635.0</ele><time>2026-03-29T10:44:53Z</time></trkpt><trkpt lat="36.93305834137217" lon="14.688496026252468"><ele>635.0</ele><time>2026-03-29T10:44:54Z</time></trkpt><trkpt lat="36.933218450394186" lon="14.688503381959427"><ele>635.0</ele><time>2026-03-29T10:44:55Z</time></trkpt><trkpt lat="36.93338371734657" lon="14.688504943388962"><ele>636.0</ele><time>2026-03-29T10:44:56Z</time></trkpt><trkpt lat="36.933553971183166" lon="14.688504366616202"><ele>637.0</ele><time>2026-03-29T10:44:57Z</time></trkpt><trkpt lat="36.93373699927938" lon="14.688508319158824"><ele>638.0</ele><time>2026-03-29T10:44:58Z</time></trkpt><trkpt lat="36.93395207859888" lon="14.688518232019028"><ele>638.0</ele><time>2026-03-29T10:44:59Z</time></trkpt><trkpt lat="36.93415359254776" lon="14.68852032371723"><ele>638.0</ele><time>2026-03-29T10:45:00Z</time></trkpt><trkpt lat="36.9343483559527" lon="14.688521249268744"><ele>638.0</ele><time>2026-03-29T10:45:01Z</time></trkpt><trkpt lat="36.934532847613944" lon="14.688526406493699"><ele>638.0</ele><time>2026-03-29T10:45:02Z</time></trkpt><trkpt lat="36.93471131590484" lon="14.688534183710328"><ele>638.0</ele><time>2026-03-29T10:45:03Z</time></trkpt><trkpt lat="36.93488485547138" lon="14.688533534795331"><ele>638.0</ele><time>2026-03-29T10:45:04Z</time></trkpt><trkpt lat="36.93504881013115" lon="14.68853704251498"><ele>638.6666666666666</ele><time>2026-03-29T10:45:05Z</time></trkpt><trkpt lat="36.93522299578348" lon="14.688535350609442"><ele>639.3333333333334</ele><time>2026-03-29T10:45:06Z</time></trkpt><trkpt lat="36.93537967290648" lon="14.688536605780866"><ele>640.0</ele><time>2026-03-29T10:45:07Z</time></trkpt><trkpt lat="36.935544871908846" lon="14.688542763957662"><ele>640.0</ele><time>2026-03-29T10:45:08Z</time></trkpt><trkpt lat="36.935705809089896" lon="14.688547932049397"><ele>640.0</ele><time>2026-03-29T10:45:09Z</time></trkpt><trkpt lat="36.93586767334878" lon="14.688549699059616"><ele>640.0</ele><time>2026-03-29T10:45:10Z</time></trkpt><trkpt lat="36.93602532211958" lon="14.688550643248368"><ele>640.6666666666667</ele><time>2026-03-29T10:45:11Z</time></trkpt><trkpt lat="36.93619373183534" lon="14.688552551860978"><ele>641.3333333333334</ele><time>2026-03-29T10:45:12Z</time></trkpt><trkpt lat="36.93636073968364" lon="14.688552821385917"><ele>642.0</ele><time>2026-03-29T10:45:13Z</time></trkpt><trkpt lat="36.93653604932607" lon="14.688560539697436"><ele>642.0</ele><time>2026-03-29T10:45:14Z</time></trkpt><trkpt lat="36.93670121412679" lon="14.688566566699185"><ele>642.0</ele><time>2026-03-29T10:45:15Z</time></trkpt><trkpt lat="36.93687405147321" lon="14.688572677620535"><ele>642.0</ele><time>2026-03-29T10:45:16Z</time></trkpt><trkpt lat="36.93705180434897" lon="14.688565230180268"><ele>641.6666666666666</ele><time>2026-03-29T10:45:17Z</time></trkpt><trkpt lat="36.93722114719711" lon="14.68857099902639"><ele>641.3333333333333</ele><time>2026-03-29T10:45:18Z</time></trkpt><trkpt lat="36.937390415337525" lon="14.688579137988759"><ele>641.0</ele><time>2026-03-29T10:45:19Z</time></trkpt><trkpt lat="36.93755410769738" lon="14.68859394235795"><ele>640.0</ele><time>2026-03-29T10:45:20Z</time></trkpt><trkpt lat="36.937729390561586" lon="14.688594034999854"><ele>639.0</ele><time>2026-03-29T10:45:21Z</time></trkpt><trkpt lat="36.93789328688642" lon="14.688598350375813"><ele>638.0</ele><time>2026-03-29T10:45:22Z</time></trkpt><trkpt lat="36.93805948544232" lon="14.688605230156156"><ele>638.0</ele><time>2026-03-29T10:45:23Z</time></trkpt><trkpt lat="36.938213565715074" lon="14.688611778172135"><ele>638.0</ele><time>2026-03-29T10:45:24Z</time></trkpt><trkpt lat="36.9383873947415" lon="14.68860977574191"><ele>638.0</ele><time>2026-03-29T10:45:25Z</time></trkpt><trkpt lat="36.93854743635139" lon="14.688613922996874"><ele>637.6666666666666</ele><time>2026-03-29T10:45:26Z</time></trkpt><trkpt lat="36.93871861799002" lon="14.688616959490416"><ele>637.3333333333334</ele><time>2026-03-29T10:45:27Z</time></trkpt><trkpt lat="36.938893486371526" lon="14.68862170946546"><ele>637.0</ele><time>2026-03-29T10:45:28Z</time></trkpt><trkpt lat="36.93905114936172" lon="14.688618129337948"><ele>637.0</ele><time>2026-03-29T10:45:29Z</time></trkpt><trkpt lat="36.939210936290145" lon="14.688633461190063"><ele>637.0</ele><time>2026-03-29T10:45:30Z</time></trkpt><trkpt lat="36.93937424867175" lon="14.688634787825295"><ele>637.0</ele><time>2026-03-29T10:45:31Z</time></trkpt><trkpt lat="36.93953016992017" lon="14.688638220135406"><ele>638.0</ele><time>2026-03-29T10:45:32Z</time></trkpt><trkpt lat="36.939694676577" lon="14.688640114785644"><ele>639.0</ele><time>2026-03-29T10:45:33Z</time></trkpt><trkpt lat="36.9398582031569" lon="14.68864709398108"><ele>640.0</ele><time>2026-03-29T10:45:34Z</time></trkpt><trkpt lat="36.94003053525409" lon="14.68865361233464"><ele>640.6666666666667</ele><time>2026-03-29T10:45:35Z</time></trkpt><trkpt lat="36.94020057241684" lon="14.68866122934102"><ele>641.3333333333334</ele><time>2026-03-29T10:45:36Z</time></trkpt><trkpt lat="36.94037471605656" lon="14.688664218937358"><ele>642.0</ele><time>2026-03-29T10:45:37Z</time></trkpt><trkpt lat="36.94054726908224" lon="14.688667913172202"><ele>642.0</ele><time>2026-03-29T10:45:38Z</time></trkpt><trkpt lat="36.94072234504082" lon="14.68866833403173"><ele>642.0</ele><time>2026-03-29T10:45:39Z</time></trkpt><trkpt lat="36.94090367394674" lon="14.688678380378285"><ele>642.0</ele><time>2026-03-29T10:45:40Z</time></trkpt><trkpt lat="36.94108632696792" lon="14.688681216632403"><ele>643.0</ele><time>2026-03-29T10:45:41Z</time></trkpt><trkpt lat="36.941270031235895" lon="14.688675934265662"><ele>644.0</ele><time>2026-03-29T10:45:42Z</time></trkpt><trkpt lat="36.94144697071739" lon="14.688675994936016"><ele>645.0</ele><time>2026-03-29T10:45:43Z</time></trkpt><trkpt lat="36.94161131057082" lon="14.688682214128713"><ele>644.6666666666666</ele><time>2026-03-29T10:45:44Z</time></trkpt><trkpt lat="36.94176679421228" lon="14.688689819259704"><ele>644.3333333333333</ele><time>2026-03-29T10:45:45Z</time></trkpt><trkpt lat="36.941929616035665" lon="14.688690014530078"><ele>644.0</ele><time>2026-03-29T10:45:46Z</time></trkpt><trkpt lat="36.94209468808819" lon="14.688693100934978"><ele>644.0</ele><time>2026-03-29T10:45:47Z</time></trkpt><trkpt lat="36.94225963314358" lon="14.688697490802555"><ele>644.0</ele><time>2026-03-29T10:45:48Z</time></trkpt><trkpt lat="36.942427427611825" lon="14.688699839369434"><ele>644.0</ele><time>2026-03-29T10:45:49Z</time></trkpt><trkpt lat="36.9425935117983" lon="14.688699933627655"><ele>645.0</ele><time>2026-03-29T10:45:50Z</time></trkpt><trkpt lat="36.94276810562441" lon="14.6886990711752"><ele>646.0</ele><time>2026-03-29T10:45:51Z</time></trkpt><trkpt lat="36.942934100729886" lon="14.68870764130407"><ele>647.0</ele><time>2026-03-29T10:45:52Z</time></trkpt><trkpt lat="36.943100334229776" lon="14.688714417670157"><ele>647.0</ele><time>2026-03-29T10:45:53Z</time></trkpt><trkpt lat="36.943271280730485" lon="14.688714231046971"><ele>647.0</ele><time>2026-03-29T10:45:54Z</time></trkpt><trkpt lat="36.94344502012808" lon="14.6887116510214"><ele>647.0</ele><time>2026-03-29T10:45:55Z</time></trkpt><trkpt lat="36.94361639590315" lon="14.688717979170475"><ele>647.6666666666666</ele><time>2026-03-29T10:45:56Z</time></trkpt><trkpt lat="36.943787920599775" lon="14.688724400920007"><ele>648.3333333333334</ele><time>2026-03-29T10:45:57Z</time></trkpt><trkpt lat="36.94395010907504" lon="14.6887291398607"><ele>649.0</ele><time>2026-03-29T10:45:58Z</time></trkpt><trkpt lat="36.94411915819004" lon="14.688730008692227"><ele>649.6666666666667</ele><time>2026-03-29T10:45:59Z</time></trkpt><trkpt lat="36.944278975034116" lon="14.688729874535237"><ele>650.3333333333334</ele><time>2026-03-29T10:46:00Z</time></trkpt><trkpt lat="36.944452823557995" lon="14.688732303845176"><ele>651.0</ele><time>2026-03-29T10:46:01Z</time></trkpt><trkpt lat="36.9446197910178" lon="14.688739628635647"><ele>651.0</ele><time>2026-03-29T10:46:02Z</time></trkpt><trkpt lat="36.94479438916801" lon="14.688749325948947"><ele>651.0</ele><time>2026-03-29T10:46:03Z</time></trkpt><trkpt lat="36.944974009301724" lon="14.688750663075592"><ele>651.0</ele><time>2026-03-29T10:46:04Z</time></trkpt><trkpt lat="36.94515732188907" lon="14.688754291567635"><ele>651.3333333333334</ele><time>2026-03-29T10:46:05Z</time></trkpt><trkpt lat="36.94534699893506" lon="14.688755336289368"><ele>651.6666666666667</ele><time>2026-03-29T10:46:06Z</time></trkpt><trkpt lat="36.94552984036033" lon="14.688766534403362"><ele>652.0</ele><time>2026-03-29T10:46:07Z</time></trkpt><trkpt lat="36.94571406308899" lon="14.688780795393672"><ele>652.6666666666667</ele><time>2026-03-29T10:46:08Z</time></trkpt><trkpt lat="36.94589232012607" lon="14.688800193695894"><ele>653.3333333333334</ele><time>2026-03-29T10:46:09Z</time></trkpt><trkpt lat="36.94606945343766" lon="14.688826643581297"><ele>654.0</ele><time>2026-03-29T10:46:10Z</time></trkpt><trkpt lat="36.94624421880648" lon="14.68885854774528"><ele>654.0</ele><time>2026-03-29T10:46:11Z</time></trkpt><trkpt lat="36.94641452778231" lon="14.688899424886435"><ele>654.0</ele><time>2026-03-29T10:46:12Z</time></trkpt><trkpt lat="36.9465935232367" lon="14.68894934687395"><ele>654.0</ele><time>2026-03-29T10:46:13Z</time></trkpt><trkpt lat="36.94677407795179" lon="14.68900763834836"><ele>654.6666666666666</ele><time>2026-03-29T10:46:14Z</time></trkpt><trkpt lat="36.946954302573985" lon="14.68906939137929"><ele>655.3333333333333</ele><time>2026-03-29T10:46:15Z</time></trkpt><trkpt lat="36.947121940155036" lon="14.689136087444595"><ele>656.0</ele><time>2026-03-29T10:46:16Z</time></trkpt><trkpt lat="36.94729280306494" lon="14.689210858856184"><ele>656.0</ele><time>2026-03-29T10:46:17Z</time></trkpt><trkpt lat="36.947464359866814" lon="14.689292233722808"><ele>656.0</ele><time>2026-03-29T10:46:18Z</time></trkpt><trkpt lat="36.9476296037644" lon="14.689369376275751"><ele>656.0</ele><time>2026-03-29T10:46:19Z</time></trkpt><trkpt lat="36.94780020065521" lon="14.689446469046398"><ele>655.0</ele><time>2026-03-29T10:46:20Z</time></trkpt><trkpt lat="36.94796605250088" lon="14.689523335550659"><ele>654.0</ele><time>2026-03-29T10:46:21Z</time></trkpt><trkpt lat="36.94811663341977" lon="14.689591537103114"><ele>653.0</ele><time>2026-03-29T10:46:22Z</time></trkpt><trkpt lat="36.948268081520695" lon="14.689661141673426"><ele>653.0</ele><time>2026-03-29T10:46:23Z</time></trkpt><trkpt lat="36.94841055172789" lon="14.689730928046124"><ele>653.0</ele><time>2026-03-29T10:46:24Z</time></trkpt><trkpt lat="36.94857568663464" lon="14.689802449679092"><ele>653.0</ele><time>2026-03-29T10:46:25Z</time></trkpt><trkpt lat="36.948717611865426" lon="14.689866626506106"><ele>653.0</ele><time>2026-03-29T10:46:26Z</time></trkpt><trkpt lat="36.94885546515367" lon="14.6899311507963"><ele>653.0</ele><time>2026-03-29T10:46:27Z</time></trkpt><trkpt lat="36.94901124212812" lon="14.690007594653206"><ele>653.0</ele><time>2026-03-29T10:46:28Z</time></trkpt><trkpt lat="36.949163636498476" lon="14.690078380359585"><ele>654.3333333333333</ele><time>2026-03-29T10:46:29Z</time></trkpt><trkpt lat="36.94933510324534" lon="14.690153544761948"><ele>655.6666666666666</ele><time>2026-03-29T10:46:30Z</time></trkpt><trkpt lat="36.94951254499257" lon="14.690218846798631"><ele>657.0</ele><time>2026-03-29T10:46:31Z</time></trkpt><trkpt lat="36.94967910943365" lon="14.690302284854997"><ele>657.0</ele><time>2026-03-29T10:46:32Z</time></trkpt><trkpt lat="36.94985288825195" lon="14.690378617562008"><ele>657.0</ele><time>2026-03-29T10:46:33Z</time></trkpt><trkpt lat="36.95002520140166" lon="14.690457319344747"><ele>657.0</ele><time>2026-03-29T10:46:34Z</time></trkpt><trkpt lat="36.95018848999251" lon="14.690534110744263"><ele>659.0</ele><time>2026-03-29T10:46:35Z</time></trkpt><trkpt lat="36.950348602851" lon="14.69061078412047"><ele>661.0</ele><time>2026-03-29T10:46:36Z</time></trkpt><trkpt lat="36.95051522568071" lon="14.690684636523454"><ele>663.0</ele><time>2026-03-29T10:46:37Z</time></trkpt><trkpt lat="36.95067148540637" lon="14.690761451861428"><ele>663.0</ele><time>2026-03-29T10:46:38Z</time></trkpt><trkpt lat="36.95083579561055" lon="14.69084439978315"><ele>663.0</ele><time>2026-03-29T10:46:39Z</time></trkpt><trkpt lat="36.95098997289474" lon="14.690920636829313"><ele>663.0</ele><time>2026-03-29T10:46:40Z</time></trkpt><trkpt lat="36.95112104396795" lon="14.690989235317604"><ele>663.0</ele><time>2026-03-29T10:46:41Z</time></trkpt><trkpt lat="36.951247827638326" lon="14.691050876013726"><ele>663.0</ele><time>2026-03-29T10:46:42Z</time></trkpt><trkpt lat="36.95139973793932" lon="14.691124338805793"><ele>663.0</ele><time>2026-03-29T10:46:43Z</time></trkpt><trkpt lat="36.951562070791795" lon="14.691201414092886"><ele>664.3333333333334</ele><time>2026-03-29T10:46:44Z</time></trkpt><trkpt lat="36.951723800412026" lon="14.6912757636342"><ele>665.6666666666667</ele><time>2026-03-29T10:46:45Z</time></trkpt><trkpt lat="36.9518770372746" lon="14.691352266089382"><ele>667.0</ele><time>2026-03-29T10:46:46Z</time></trkpt><trkpt lat="36.9520380694005" lon="14.691427047854274"><ele>667.0</ele><time>2026-03-29T10:46:47Z</time></trkpt><trkpt lat="36.95219798146505" lon="14.691502930983845"><ele>667.0</ele><time>2026-03-29T10:46:48Z</time></trkpt><trkpt lat="36.95236104379323" lon="14.691575705708889"><ele>667.0</ele><time>2026-03-29T10:46:49Z</time></trkpt><trkpt lat="36.95253004303107" lon="14.691659151559051"><ele>668.0</ele><time>2026-03-29T10:46:50Z</time></trkpt><trkpt lat="36.95269451721419" lon="14.691737713455863"><ele>669.0</ele><time>2026-03-29T10:46:51Z</time></trkpt><trkpt lat="36.95286317212898" lon="14.69181542585002"><ele>670.0</ele><time>2026-03-29T10:46:52Z</time></trkpt><trkpt lat="36.953018022111216" lon="14.691893271402135"><ele>669.3333333333334</ele><time>2026-03-29T10:46:53Z</time></trkpt><trkpt lat="36.953188624244085" lon="14.691975192683511"><ele>668.6666666666666</ele><time>2026-03-29T10:46:54Z</time></trkpt><trkpt lat="36.95334926484303" lon="14.69205327667607"><ele>668.0</ele><time>2026-03-29T10:46:55Z</time></trkpt><trkpt lat="36.953503468850094" lon="14.692131410046072"><ele>668.0</ele><time>2026-03-29T10:46:56Z</time></trkpt><trkpt lat="36.953659464858006" lon="14.69220829407259"><ele>668.0</ele><time>2026-03-29T10:46:57Z</time></trkpt><trkpt lat="36.953825190310425" lon="14.69228404441687"><ele>668.0</ele><time>2026-03-29T10:46:58Z</time></trkpt><trkpt lat="36.95398974951113" lon="14.692359180663471"><ele>668.0</ele><time>2026-03-29T10:46:59Z</time></trkpt><trkpt lat="36.95415576087198" lon="14.69243562657067"><ele>668.0</ele><time>2026-03-29T10:47:00Z</time></trkpt><trkpt lat="36.95434393461856" lon="14.692518670028301"><ele>668.0</ele><time>2026-03-29T10:47:01Z</time></trkpt><trkpt lat="36.95453119308945" lon="14.692602885491969"><ele>667.6666666666666</ele><time>2026-03-29T10:47:02Z</time></trkpt><trkpt lat="36.95469504536638" lon="14.692677522370445"><ele>667.3333333333334</ele><time>2026-03-29T10:47:03Z</time></trkpt><trkpt lat="36.954843167882224" lon="14.692747022596835"><ele>667.0</ele><time>2026-03-29T10:47:04Z</time></trkpt><trkpt lat="36.954985732470355" lon="14.692811330289297"><ele>667.25</ele><time>2026-03-29T10:47:05Z</time></trkpt><trkpt lat="36.95511921080859" lon="14.692875882339107"><ele>667.5</ele><time>2026-03-29T10:47:06Z</time></trkpt><trkpt lat="36.95526173298324" lon="14.692944970430478"><ele>667.75</ele><time>2026-03-29T10:47:07Z</time></trkpt><trkpt lat="36.95539681525919" lon="14.69300458327728"><ele>668.0</ele><time>2026-03-29T10:47:08Z</time></trkpt><trkpt lat="36.95553495146293" lon="14.693071840104391"><ele>668.0</ele><time>2026-03-29T10:47:09Z</time></trkpt><trkpt lat="36.955675808236876" lon="14.693138326603947"><ele>668.0</ele><time>2026-03-29T10:47:10Z</time></trkpt><trkpt lat="36.95581183389841" lon="14.693202924805663"><ele>668.0</ele><time>2026-03-29T10:47:11Z</time></trkpt><trkpt lat="36.95595383839093" lon="14.693269932609262"><ele>668.0</ele><time>2026-03-29T10:47:12Z</time></trkpt><trkpt lat="36.956103076004126" lon="14.693345199792706"><ele>669.3333333333333</ele><time>2026-03-29T10:47:13Z</time></trkpt><trkpt lat="36.95626036692073" lon="14.693423826612788"><ele>670.6666666666666</ele><time>2026-03-29T10:47:14Z</time></trkpt><trkpt lat="36.95640590573342" lon="14.693494057422132"><ele>672.0</ele><time>2026-03-29T10:47:15Z</time></trkpt><trkpt lat="36.95656391650237" lon="14.693566697192532"><ele>671.3333333333334</ele><time>2026-03-29T10:47:16Z</time></trkpt><trkpt lat="36.956722337921995" lon="14.693642636219824"><ele>670.6666666666667</ele><time>2026-03-29T10:47:17Z</time></trkpt><trkpt lat="36.956884152892876" lon="14.693719472286821"><ele>670.0</ele><time>2026-03-29T10:47:18Z</time></trkpt><trkpt lat="36.95703492571107" lon="14.693791478725785"><ele>670.0</ele><time>2026-03-29T10:47:19Z</time></trkpt><trkpt lat="36.95719379325391" lon="14.693864775684185"><ele>670.0</ele><time>2026-03-29T10:47:20Z</time></trkpt><trkpt lat="36.95734886041904" lon="14.693938613214652"><ele>670.0</ele><time>2026-03-29T10:47:21Z</time></trkpt><trkpt lat="36.957649795546715" lon="14.694078670403176"><ele>672.0</ele><time>2026-03-29T10:47:23Z</time></trkpt><trkpt lat="36.95781179978789" lon="14.694155927382916"><ele>674.0</ele><time>2026-03-29T10:47:24Z</time></trkpt><trkpt lat="36.957976745450004" lon="14.694231018821503"><ele>676.0</ele><time>2026-03-29T10:47:25Z</time></trkpt><trkpt lat="36.958141815405895" lon="14.694304746041706"><ele>676.0</ele><time>2026-03-29T10:47:26Z</time></trkpt><trkpt lat="36.958299997627996" lon="14.69437519143239"><ele>676.0</ele><time>2026-03-29T10:47:27Z</time></trkpt><trkpt lat="36.95845439562712" lon="14.694450835088539"><ele>676.0</ele><time>2026-03-29T10:47:28Z</time></trkpt><trkpt lat="36.95861461810222" lon="14.69452483616503"><ele>676.3333333333334</ele><time>2026-03-29T10:47:29Z</time></trkpt><trkpt lat="36.95877393807962" lon="14.69459900055357"><ele>676.6666666666666</ele><time>2026-03-29T10:47:30Z</time></trkpt><trkpt lat="36.9589354824792" lon="14.694666365769317"><ele>677.0</ele><time>2026-03-29T10:47:31Z</time></trkpt><trkpt lat="36.959100874847664" lon="14.694734610906462"><ele>678.3333333333333</ele><time>2026-03-29T10:47:32Z</time></trkpt><trkpt lat="36.959259907439886" lon="14.694812453016867"><ele>679.6666666666666</ele><time>2026-03-29T10:47:33Z</time></trkpt><trkpt lat="36.959428128868716" lon="14.694888938198039"><ele>681.0</ele><time>2026-03-29T10:47:34Z</time></trkpt><trkpt lat="36.959594798435916" lon="14.694966880595226"><ele>681.0</ele><time>2026-03-29T10:47:35Z</time></trkpt><trkpt lat="36.95976387646073" lon="14.695063111858596"><ele>681.0</ele><time>2026-03-29T10:47:36Z</time></trkpt><trkpt lat="36.959937145648425" lon="14.695156959613577"><ele>681.0</ele><time>2026-03-29T10:47:37Z</time></trkpt><trkpt lat="36.960109696507864" lon="14.695240039680455"><ele>680.6666666666666</ele><time>2026-03-29T10:47:38Z</time></trkpt><trkpt lat="36.96028570003115" lon="14.695319656497256"><ele>680.3333333333333</ele><time>2026-03-29T10:47:39Z</time></trkpt><trkpt lat="36.9604618607719" lon="14.695402086340792"><ele>680.0</ele><time>2026-03-29T10:47:40Z</time></trkpt><trkpt lat="36.960631999542294" lon="14.695480004576577"><ele>680.0</ele><time>2026-03-29T10:47:41Z</time></trkpt><trkpt lat="36.96080309466951" lon="14.695553527789453"><ele>680.0</ele><time>2026-03-29T10:47:42Z</time></trkpt><trkpt lat="36.96097190674817" lon="14.695638089412572"><ele>680.0</ele><time>2026-03-29T10:47:43Z</time></trkpt><trkpt lat="36.961146565923684" lon="14.69572226449363"><ele>681.6666666666666</ele><time>2026-03-29T10:47:44Z</time></trkpt><trkpt lat="36.96131956214411" lon="14.695806881086604"><ele>683.3333333333334</ele><time>2026-03-29T10:47:45Z</time></trkpt><trkpt lat="36.961496461897624" lon="14.695889318991725"><ele>685.0</ele><time>2026-03-29T10:47:46Z</time></trkpt><trkpt lat="36.96166809594808" lon="14.695975391888227"><ele>684.6666666666667</ele><time>2026-03-29T10:47:47Z</time></trkpt><trkpt lat="36.96184411890864" lon="14.696060563914916"><ele>684.3333333333334</ele><time>2026-03-29T10:47:48Z</time></trkpt><trkpt lat="36.962023926880946" lon="14.696144718538484"><ele>684.0</ele><time>2026-03-29T10:47:49Z</time></trkpt><trkpt lat="36.96220071798576" lon="14.696218985648825"><ele>684.0</ele><time>2026-03-29T10:47:50Z</time></trkpt><trkpt lat="36.9623718025897" lon="14.696301608694844"><ele>684.0</ele><time>2026-03-29T10:47:51Z</time></trkpt><trkpt lat="36.962545658190464" lon="14.69638502467492"><ele>684.0</ele><time>2026-03-29T10:47:52Z</time></trkpt><trkpt lat="36.96271485085901" lon="14.696461380717055"><ele>684.6666666666666</ele><time>2026-03-29T10:47:53Z</time></trkpt><trkpt lat="36.96287760208908" lon="14.696538241467167"><ele>685.3333333333333</ele><time>2026-03-29T10:47:54Z</time></trkpt><trkpt lat="36.96304650796403" lon="14.696617782199601"><ele>686.0</ele><time>2026-03-29T10:47:55Z</time></trkpt><trkpt lat="36.963212577162615" lon="14.696700008478704"><ele>686.0</ele><time>2026-03-29T10:47:56Z</time></trkpt><trkpt lat="36.96339043133812" lon="14.696784947257097"><ele>686.0</ele><time>2026-03-29T10:47:57Z</time></trkpt><trkpt lat="36.96356281198713" lon="14.696864787468435"><ele>686.0</ele><time>2026-03-29T10:47:58Z</time></trkpt><trkpt lat="36.96372560738433" lon="14.696942192518952"><ele>684.6666666666666</ele><time>2026-03-29T10:47:59Z</time></trkpt><trkpt lat="36.96389319400799" lon="14.697019299130076"><ele>683.3333333333334</ele><time>2026-03-29T10:48:00Z</time></trkpt><trkpt lat="36.964058370345924" lon="14.697098261643603"><ele>682.0</ele><time>2026-03-29T10:48:01Z</time></trkpt><trkpt lat="36.96423976063107" lon="14.697180858627961"><ele>682.0</ele><time>2026-03-29T10:48:02Z</time></trkpt><trkpt lat="36.96441837501099" lon="14.697265351729595"><ele>682.0</ele><time>2026-03-29T10:48:03Z</time></trkpt><trkpt lat="36.964609801077714" lon="14.697355395202745"><ele>682.0</ele><time>2026-03-29T10:48:04Z</time></trkpt><trkpt lat="36.96480589100903" lon="14.697446310121189"><ele>682.0</ele><time>2026-03-29T10:48:05Z</time></trkpt><trkpt lat="36.96498732790855" lon="14.697534573577101"><ele>682.0</ele><time>2026-03-29T10:48:06Z</time></trkpt><trkpt lat="36.96516151652949" lon="14.697613337145787"><ele>682.0</ele><time>2026-03-29T10:48:07Z</time></trkpt><trkpt lat="36.96533957928198" lon="14.69769802011323"><ele>682.0</ele><time>2026-03-29T10:48:08Z</time></trkpt><trkpt lat="36.96550589087503" lon="14.697775570215331"><ele>682.0</ele><time>2026-03-29T10:48:09Z</time></trkpt><trkpt lat="36.96566455083174" lon="14.697852743915824"><ele>682.0</ele><time>2026-03-29T10:48:10Z</time></trkpt><trkpt lat="36.96583668483097" lon="14.697923731384192"><ele>682.3333333333334</ele><time>2026-03-29T10:48:11Z</time></trkpt><trkpt lat="36.9660042844689" lon="14.697994947787562"><ele>682.6666666666666</ele><time>2026-03-29T10:48:12Z</time></trkpt><trkpt lat="36.9661794208204" lon="14.698082518175928"><ele>683.0</ele><time>2026-03-29T10:48:13Z</time></trkpt><trkpt lat="36.96635372885786" lon="14.698167951297291"><ele>683.0</ele><time>2026-03-29T10:48:14Z</time></trkpt><trkpt lat="36.966528557330285" lon="14.698254171431682"><ele>683.0</ele><time>2026-03-29T10:48:15Z</time></trkpt><trkpt lat="36.966717568779124" lon="14.698339924052691"><ele>683.0</ele><time>2026-03-29T10:48:16Z</time></trkpt><trkpt lat="36.96689605645371" lon="14.698423894192308"><ele>683.6666666666666</ele><time>2026-03-29T10:48:17Z</time></trkpt><trkpt lat="36.96707454016534" lon="14.698505448064031"><ele>684.3333333333334</ele><time>2026-03-29T10:48:18Z</time></trkpt><trkpt lat="36.96724806242201" lon="14.69858759945444"><ele>685.0</ele><time>2026-03-29T10:48:19Z</time></trkpt><trkpt lat="36.967416223550195" lon="14.698670672430307"><ele>686.0</ele><time>2026-03-29T10:48:20Z</time></trkpt><trkpt lat="36.96759469674981" lon="14.698753020731557"><ele>687.0</ele><time>2026-03-29T10:48:21Z</time></trkpt><trkpt lat="36.967766486058316" lon="14.698835272640421"><ele>688.0</ele><time>2026-03-29T10:48:22Z</time></trkpt><trkpt lat="36.96794678736434" lon="14.698922085308705"><ele>688.0</ele><time>2026-03-29T10:48:23Z</time></trkpt><trkpt lat="36.96811853710747" lon="14.699002825534718"><ele>688.0</ele><time>2026-03-29T10:48:24Z</time></trkpt><trkpt lat="36.968274847740965" lon="14.699074709208668"><ele>688.0</ele><time>2026-03-29T10:48:25Z</time></trkpt><trkpt lat="36.96843513676751" lon="14.699149452737972"><ele>689.0</ele><time>2026-03-29T10:48:26Z</time></trkpt><trkpt lat="36.96859852657559" lon="14.699230765961442"><ele>690.0</ele><time>2026-03-29T10:48:27Z</time></trkpt><trkpt lat="36.96876184307293" lon="14.699308551166956"><ele>691.0</ele><time>2026-03-29T10:48:28Z</time></trkpt><trkpt lat="36.96892154705372" lon="14.699379259577139"><ele>691.0</ele><time>2026-03-29T10:48:29Z</time></trkpt><trkpt lat="36.969088713262245" lon="14.69945373674527"><ele>691.0</ele><time>2026-03-29T10:48:30Z</time></trkpt><trkpt lat="36.96925667207513" lon="14.699534221055393"><ele>691.0</ele><time>2026-03-29T10:48:31Z</time></trkpt><trkpt lat="36.96942452140655" lon="14.699616993483787"><ele>691.0</ele><time>2026-03-29T10:48:32Z</time></trkpt><trkpt lat="36.96959801693825" lon="14.699698970796753"><ele>691.0</ele><time>2026-03-29T10:48:33Z</time></trkpt><trkpt lat="36.96977559976519" lon="14.699777246008438"><ele>691.0</ele><time>2026-03-29T10:48:34Z</time></trkpt><trkpt lat="36.96995491682389" lon="14.699860287537767"><ele>691.6666666666667</ele><time>2026-03-29T10:48:35Z</time></trkpt><trkpt lat="36.970114782830365" lon="14.699933715235158"><ele>692.3333333333334</ele><time>2026-03-29T10:48:36Z</time></trkpt><trkpt lat="36.97028163449536" lon="14.700011412652165"><ele>693.0</ele><time>2026-03-29T10:48:37Z</time></trkpt><trkpt lat="36.970448207020056" lon="14.700088233223557"><ele>693.0</ele><time>2026-03-29T10:48:38Z</time></trkpt><trkpt lat="36.97061329762159" lon="14.700168380485893"><ele>693.0</ele><time>2026-03-29T10:48:39Z</time></trkpt><trkpt lat="36.970787132016014" lon="14.70025066301649"><ele>693.0</ele><time>2026-03-29T10:48:40Z</time></trkpt><trkpt lat="36.970971054967464" lon="14.70033362144248"><ele>693.3333333333334</ele><time>2026-03-29T10:48:41Z</time></trkpt><trkpt lat="36.97115542460507" lon="14.700420566299595"><ele>693.6666666666667</ele><time>2026-03-29T10:48:42Z</time></trkpt><trkpt lat="36.97133558471939" lon="14.700506321001532"><ele>694.0</ele><time>2026-03-29T10:48:43Z</time></trkpt><trkpt lat="36.971510536748006" lon="14.700589261796315"><ele>695.6666666666667</ele><time>2026-03-29T10:48:44Z</time></trkpt><trkpt lat="36.97169187400133" lon="14.700672135567597"><ele>697.3333333333334</ele><time>2026-03-29T10:48:45Z</time></trkpt><trkpt lat="36.97186559397144" lon="14.70074962448701"><ele>699.0</ele><time>2026-03-29T10:48:46Z</time></trkpt><trkpt lat="36.972018332413775" lon="14.700829912214536"><ele>699.0</ele><time>2026-03-29T10:48:47Z</time></trkpt><trkpt lat="36.97217937053094" lon="14.700911405491242"><ele>699.0</ele><time>2026-03-29T10:48:48Z</time></trkpt><trkpt lat="36.97234917078273" lon="14.700986801178217"><ele>699.0</ele><time>2026-03-29T10:48:49Z</time></trkpt><trkpt lat="36.972513571636895" lon="14.701059370333384"><ele>699.0</ele><time>2026-03-29T10:48:50Z</time></trkpt><trkpt lat="36.9726605200997" lon="14.701130141527685"><ele>699.0</ele><time>2026-03-29T10:48:51Z</time></trkpt><trkpt lat="36.972822384428596" lon="14.701203069591633"><ele>699.0</ele><time>2026-03-29T10:48:52Z</time></trkpt><trkpt lat="36.9729725228291" lon="14.701277195619678"><ele>699.0</ele><time>2026-03-29T10:48:53Z</time></trkpt><trkpt lat="36.97312341470426" lon="14.701347958549542"><ele>699.0</ele><time>2026-03-29T10:48:54Z</time></trkpt><trkpt lat="36.97327682023599" lon="14.701418861214826"><ele>699.0</ele><time>2026-03-29T10:48:55Z</time></trkpt><trkpt lat="36.97342823801092" lon="14.70148871466944"><ele>701.3333333333334</ele><time>2026-03-29T10:48:56Z</time></trkpt><trkpt lat="36.973576802316956" lon="14.701553486325892"><ele>703.6666666666667</ele><time>2026-03-29T10:48:57Z</time></trkpt><trkpt lat="36.973718241578446" lon="14.701612801212097"><ele>706.0</ele><time>2026-03-29T10:48:58Z</time></trkpt><trkpt lat="36.97387339901927" lon="14.701686093827043"><ele>706.0</ele><time>2026-03-29T10:48:59Z</time></trkpt><trkpt lat="36.97403352844699" lon="14.701752952683883"><ele>706.0</ele><time>2026-03-29T10:49:00Z</time></trkpt><trkpt lat="36.97420821018212" lon="14.701867585667637"><ele>706.0</ele><time>2026-03-29T10:49:01Z</time></trkpt><trkpt lat="36.97439685958841" lon="14.701948315399646"><ele>707.0</ele><time>2026-03-29T10:49:02Z</time></trkpt><trkpt lat="36.97455594230981" lon="14.702022220849404"><ele>708.0</ele><time>2026-03-29T10:49:03Z</time></trkpt><trkpt lat="36.9747022183388" lon="14.702097996014704"><ele>709.0</ele><time>2026-03-29T10:49:04Z</time></trkpt><trkpt lat="36.9748632556155" lon="14.702182430573547"><ele>711.0</ele><time>2026-03-29T10:49:05Z</time></trkpt><trkpt lat="36.97503583765467" lon="14.702269786935169"><ele>713.0</ele><time>2026-03-29T10:49:06Z</time></trkpt><trkpt lat="36.975193330154575" lon="14.702358590028588"><ele>715.0</ele><time>2026-03-29T10:49:07Z</time></trkpt><trkpt lat="36.97535712117451" lon="14.702453598892935"><ele>715.0</ele><time>2026-03-29T10:49:08Z</time></trkpt><trkpt lat="36.97550310943831" lon="14.70254865753301"><ele>715.0</ele><time>2026-03-29T10:49:09Z</time></trkpt><trkpt lat="36.975645160460395" lon="14.70264441856638"><ele>715.0</ele><time>2026-03-29T10:49:10Z</time></trkpt><trkpt lat="36.975788772603764" lon="14.702742141745373"><ele>715.6666666666667</ele><time>2026-03-29T10:49:11Z</time></trkpt><trkpt lat="36.97592628505498" lon="14.70283989682495"><ele>716.3333333333334</ele><time>2026-03-29T10:49:12Z</time></trkpt><trkpt lat="36.97606600554744" lon="14.702932914068505"><ele>717.0</ele><time>2026-03-29T10:49:13Z</time></trkpt><trkpt lat="36.976204555146765" lon="14.703032082988871"><ele>717.0</ele><time>2026-03-29T10:49:14Z</time></trkpt><trkpt lat="36.97633843772007" lon="14.703130192116252"><ele>717.0</ele><time>2026-03-29T10:49:15Z</time></trkpt><trkpt lat="36.976483125449185" lon="14.703245729379432"><ele>717.0</ele><time>2026-03-29T10:49:16Z</time></trkpt><trkpt lat="36.97661415552568" lon="14.703355350790591"><ele>717.75</ele><time>2026-03-29T10:49:17Z</time></trkpt><trkpt lat="36.97673268647939" lon="14.703450938309354"><ele>718.5</ele><time>2026-03-29T10:49:18Z</time></trkpt><trkpt lat="36.97683700312525" lon="14.703531792136971"><ele>719.25</ele><time>2026-03-29T10:49:19Z</time></trkpt><trkpt lat="36.97693607668699" lon="14.70360590052629"><ele>720.0</ele><time>2026-03-29T10:49:20Z</time></trkpt><trkpt lat="36.97703421482948" lon="14.703682508145619"><ele>720.0</ele><time>2026-03-29T10:49:21Z</time></trkpt><trkpt lat="36.97712513873482" lon="14.703761256609274"><ele>720.0</ele><time>2026-03-29T10:49:22Z</time></trkpt><trkpt lat="36.9772049251863" lon="14.703828352444349"><ele>720.0</ele><time>2026-03-29T10:49:23Z</time></trkpt><trkpt lat="36.977260772358285" lon="14.703888347004995"><ele>720.0</ele><time>2026-03-29T10:49:24Z</time></trkpt><trkpt lat="36.977312149955914" lon="14.703939487579575"><ele>720.0</ele><time>2026-03-29T10:49:25Z</time></trkpt><trkpt lat="36.97740026254418" lon="14.704029743861213"><ele>720.0</ele><time>2026-03-29T10:49:27Z</time></trkpt><trkpt lat="36.97745567831395" lon="14.70410175051768"><ele>720.0</ele><time>2026-03-29T10:49:29Z</time></trkpt><trkpt lat="36.97750959783426" lon="14.704153943614308"><ele>720.0</ele><time>2026-03-29T10:49:32Z</time></trkpt><trkpt lat="36.97758537574928" lon="14.704152779422179"><ele>720.0</ele><time>2026-03-29T10:49:37Z</time></trkpt><trkpt lat="36.977556871234626" lon="14.704004990735934"><ele>720.0</ele><time>2026-03-29T10:49:42Z</time></trkpt><trkpt lat="36.977450068854765" lon="14.703899319550665"><ele>720.0</ele><time>2026-03-29T10:49:43Z</time></trkpt><trkpt lat="36.97730405246207" lon="14.703780715825836"><ele>720.0</ele><time>2026-03-29T10:49:44Z</time></trkpt><trkpt lat="36.97712576133245" lon="14.703651564134566"><ele>720.0</ele><time>2026-03-29T10:49:45Z</time></trkpt><trkpt lat="36.97694984840533" lon="14.703522166524925"><ele>719.0</ele><time>2026-03-29T10:49:46Z</time></trkpt><trkpt lat="36.976768633379145" lon="14.703397349177713"><ele>718.0</ele><time>2026-03-29T10:49:47Z</time></trkpt><trkpt lat="36.97659862917874" lon="14.703272146225052"><ele>717.0</ele><time>2026-03-29T10:49:48Z</time></trkpt><trkpt lat="36.97643824417493" lon="14.703145163678832"><ele>717.0</ele><time>2026-03-29T10:49:49Z</time></trkpt><trkpt lat="36.976277246343564" lon="14.703019364554741"><ele>717.0</ele><time>2026-03-29T10:49:50Z</time></trkpt><trkpt lat="36.97611699355609" lon="14.702904757372671"><ele>717.0</ele><time>2026-03-29T10:49:51Z</time></trkpt><trkpt lat="36.9759591200411" lon="14.70279206026068"><ele>716.3333333333334</ele><time>2026-03-29T10:49:52Z</time></trkpt><trkpt lat="36.97580237658908" lon="14.702686830492901"><ele>715.6666666666667</ele><time>2026-03-29T10:49:53Z</time></trkpt><trkpt lat="36.97565138685354" lon="14.70259236193197"><ele>715.0</ele><time>2026-03-29T10:49:54Z</time></trkpt><trkpt lat="36.975502900061315" lon="14.702491961835667"><ele>715.0</ele><time>2026-03-29T10:49:55Z</time></trkpt><trkpt lat="36.975341162928665" lon="14.70238283020426"><ele>715.0</ele><time>2026-03-29T10:49:56Z</time></trkpt><trkpt lat="36.975188928518385" lon="14.702289472011831"><ele>715.0</ele><time>2026-03-29T10:49:57Z</time></trkpt><trkpt lat="36.97504817708972" lon="14.702208656953347"><ele>713.5</ele><time>2026-03-29T10:49:58Z</time></trkpt><trkpt lat="36.97491648671669" lon="14.702133739628387"><ele>712.0</ele><time>2026-03-29T10:49:59Z</time></trkpt><trkpt lat="36.974777287112445" lon="14.7020636392244"><ele>710.5</ele><time>2026-03-29T10:50:00Z</time></trkpt><trkpt lat="36.97464854697229" lon="14.701987343863188"><ele>709.0</ele><time>2026-03-29T10:50:01Z</time></trkpt><trkpt lat="36.97451445867945" lon="14.701926181081287"><ele>708.25</ele><time>2026-03-29T10:50:02Z</time></trkpt><trkpt lat="36.97436239843395" lon="14.701866035951493"><ele>707.5</ele><time>2026-03-29T10:50:03Z</time></trkpt><trkpt lat="36.974228742721024" lon="14.701808747071858"><ele>706.75</ele><time>2026-03-29T10:50:04Z</time></trkpt><trkpt lat="36.9741011129216" lon="14.701752462730907"><ele>706.0</ele><time>2026-03-29T10:50:05Z</time></trkpt><trkpt lat="36.973970515742835" lon="14.701698767698703"><ele>706.0</ele><time>2026-03-29T10:50:06Z</time></trkpt><trkpt lat="36.9738613967346" lon="14.701647322139701"><ele>706.0</ele><time>2026-03-29T10:50:07Z</time></trkpt><trkpt lat="36.97376486769758" lon="14.70160154725344"><ele>706.0</ele><time>2026-03-29T10:50:08Z</time></trkpt><trkpt lat="36.973671539785954" lon="14.701560952648558"><ele>706.0</ele><time>2026-03-29T10:50:09Z</time></trkpt><trkpt lat="36.97359639893282" lon="14.70150986489045"><ele>706.0</ele><time>2026-03-29T10:50:10Z</time></trkpt><trkpt lat="36.97351701662401" lon="14.701472008112555"><ele>706.0</ele><time>2026-03-29T10:50:12Z</time></trkpt><trkpt lat="36.97347305450341" lon="14.701584606587119"><ele>706.0</ele><time>2026-03-29T10:50:13Z</time></trkpt><trkpt lat="36.973433785028774" lon="14.701760861022704"><ele>706.0</ele><time>2026-03-29T10:50:15Z</time></trkpt><trkpt lat="36.97339367755478" lon="14.701878335675481"><ele>706.0</ele><time>2026-03-29T10:50:16Z</time></trkpt><trkpt lat="36.973328802477454" lon="14.701989014976832"><ele>704.5999999999999</ele><time>2026-03-29T10:50:17Z</time></trkpt><trkpt lat="36.973260076730824" lon="14.702086756680961"><ele>703.2</ele><time>2026-03-29T10:50:18Z</time></trkpt><trkpt lat="36.97318505977145" lon="14.70216358599533"><ele>701.8</ele><time>2026-03-29T10:50:19Z</time></trkpt><trkpt lat="36.97310051612585" lon="14.702211966094357"><ele>700.4000000000001</ele><time>2026-03-29T10:50:20Z</time></trkpt><trkpt lat="36.97298903401602" lon="14.702226823261398"><ele>699.0</ele><time>2026-03-29T10:50:21Z</time></trkpt><trkpt lat="36.97286234513036" lon="14.702230150902723"><ele>699.0</ele><time>2026-03-29T10:50:22Z</time></trkpt><trkpt lat="36.972726435283676" lon="14.702237255201103"><ele>699.0</ele><time>2026-03-29T10:50:23Z</time></trkpt><trkpt lat="36.972582653013866" lon="14.702242647557322"><ele>699.0</ele><time>2026-03-29T10:50:24Z</time></trkpt><trkpt lat="36.97246156164197" lon="14.70225974161293"><ele>699.0</ele><time>2026-03-29T10:50:25Z</time></trkpt><trkpt lat="36.97235221430853" lon="14.702304576066913"><ele>697.75</ele><time>2026-03-29T10:50:26Z</time></trkpt><trkpt lat="36.9722622151407" lon="14.702391598386276"><ele>696.5</ele><time>2026-03-29T10:50:27Z</time></trkpt><trkpt lat="36.97219634707974" lon="14.70251643299418"><ele>695.25</ele><time>2026-03-29T10:50:28Z</time></trkpt><trkpt lat="36.97213926923149" lon="14.702683109797624"><ele>694.0</ele><time>2026-03-29T10:50:29Z</time></trkpt><trkpt lat="36.97207885296793" lon="14.702833313259639"><ele>693.75</ele><time>2026-03-29T10:50:30Z</time></trkpt><trkpt lat="36.97198994445229" lon="14.703009368964162"><ele>693.5</ele><time>2026-03-29T10:50:31Z</time></trkpt><trkpt lat="36.97190582980242" lon="14.703155074744867"><ele>693.25</ele><time>2026-03-29T10:50:32Z</time></trkpt><trkpt lat="36.9718128309967" lon="14.703281106539439"><ele>693.0</ele><time>2026-03-29T10:50:33Z</time></trkpt><trkpt lat="36.97171627235229" lon="14.703402503327094"><ele>691.5</ele><time>2026-03-29T10:50:34Z</time></trkpt><trkpt lat="36.97161753607003" lon="14.703525399500503"><ele>690.0</ele><time>2026-03-29T10:50:35Z</time></trkpt><trkpt lat="36.97152250087344" lon="14.703643115178465"><ele>688.5</ele><time>2026-03-29T10:50:36Z</time></trkpt><trkpt lat="36.97143370205847" lon="14.703772258052847"><ele>687.0</ele><time>2026-03-29T10:50:37Z</time></trkpt><trkpt lat="36.97133266637453" lon="14.703885137102976"><ele>687.0</ele><time>2026-03-29T10:50:38Z</time></trkpt><trkpt lat="36.971225372515214" lon="14.704015266091998"><ele>687.0</ele><time>2026-03-29T10:50:39Z</time></trkpt><trkpt lat="36.97110611566826" lon="14.704146107310022"><ele>687.0</ele><time>2026-03-29T10:50:40Z</time></trkpt><trkpt lat="36.970958077781575" lon="14.7042502620051"><ele>685.0</ele><time>2026-03-29T10:50:41Z</time></trkpt><trkpt lat="36.97079916369284" lon="14.704360400442743"><ele>683.0</ele><time>2026-03-29T10:50:42Z</time></trkpt><trkpt lat="36.97063064856363" lon="14.704467674385066"><ele>681.0</ele><time>2026-03-29T10:50:43Z</time></trkpt><trkpt lat="36.97045397649957" lon="14.704571732500913"><ele>680.6666666666666</ele><time>2026-03-29T10:50:44Z</time></trkpt><trkpt lat="36.970259541517564" lon="14.704649214927757"><ele>680.3333333333333</ele><time>2026-03-29T10:50:45Z</time></trkpt><trkpt lat="36.970074494481544" lon="14.70471994089198"><ele>680.0</ele><time>2026-03-29T10:50:46Z</time></trkpt><trkpt lat="36.96989884257691" lon="14.704804098863839"><ele>678.6666666666666</ele><time>2026-03-29T10:50:47Z</time></trkpt><trkpt lat="36.96971581409687" lon="14.704860140127003"><ele>677.3333333333334</ele><time>2026-03-29T10:50:48Z</time></trkpt><trkpt lat="36.96955120013757" lon="14.704921648468178"><ele>676.0</ele><time>2026-03-29T10:50:49Z</time></trkpt><trkpt lat="36.969398142798084" lon="14.70498106117068"><ele>676.0</ele><time>2026-03-29T10:50:50Z</time></trkpt><trkpt lat="36.96925208258817" lon="14.7050320030548"><ele>676.0</ele><time>2026-03-29T10:50:51Z</time></trkpt><trkpt lat="36.969109505799814" lon="14.705078482501463"><ele>676.0</ele><time>2026-03-29T10:50:52Z</time></trkpt><trkpt lat="36.96898093424638" lon="14.705126264579839"><ele>676.0</ele><time>2026-03-29T10:50:53Z</time></trkpt><trkpt lat="36.96885227968634" lon="14.70516895575651"><ele>675.0</ele><time>2026-03-29T10:50:54Z</time></trkpt><trkpt lat="36.96873089714313" lon="14.705202596365536"><ele>674.0</ele><time>2026-03-29T10:50:55Z</time></trkpt><trkpt lat="36.968616526632864" lon="14.70524998736812"><ele>673.0</ele><time>2026-03-29T10:50:56Z</time></trkpt><trkpt lat="36.968544026570875" lon="14.705281179597637"><ele>672.0</ele><time>2026-03-29T10:50:57Z</time></trkpt><trkpt lat="36.96848467507267" lon="14.705327078475865"><ele>671.0</ele><time>2026-03-29T10:50:58Z</time></trkpt><trkpt lat="36.96855291813653" lon="14.705528251896403"><ele>671.0</ele><time>2026-03-29T10:51:01Z</time></trkpt><trkpt lat="36.96864083737622" lon="14.705574124440744"><ele>671.0</ele><time>2026-03-29T10:51:02Z</time></trkpt><trkpt lat="36.968742266861994" lon="14.705630833389295"><ele>671.0</ele><time>2026-03-29T10:51:03Z</time></trkpt><trkpt lat="36.968839477076685" lon="14.705664106699315"><ele>671.0</ele><time>2026-03-29T10:51:04Z</time></trkpt><trkpt lat="36.96894162148583" lon="14.705701567655996"><ele>671.0</ele><time>2026-03-29T10:51:05Z</time></trkpt><trkpt lat="36.9690559553477" lon="14.705746347429567"><ele>671.0</ele><time>2026-03-29T10:51:06Z</time></trkpt><trkpt lat="36.96917777267402" lon="14.705803446640033"><ele>671.0</ele><time>2026-03-29T10:51:07Z</time></trkpt><trkpt lat="36.96928303642186" lon="14.705872335379466"><ele>671.0</ele><time>2026-03-29T10:51:08Z</time></trkpt><trkpt lat="36.96936850687457" lon="14.705957484845083"><ele>671.0</ele><time>2026-03-29T10:51:09Z</time></trkpt><trkpt lat="36.9694536909462" lon="14.706081079362203"><ele>670.75</ele><time>2026-03-29T10:51:10Z</time></trkpt><trkpt lat="36.96951487282067" lon="14.706219486006907"><ele>670.5</ele><time>2026-03-29T10:51:11Z</time></trkpt><trkpt lat="36.96957481743802" lon="14.706370515135987"><ele>670.25</ele><time>2026-03-29T10:51:12Z</time></trkpt><trkpt lat="36.96963376756977" lon="14.706522354811273"><ele>670.0</ele><time>2026-03-29T10:51:13Z</time></trkpt><trkpt lat="36.96970497981456" lon="14.70667425563682"><ele>670.0</ele><time>2026-03-29T10:51:14Z</time></trkpt><trkpt lat="36.969769544803626" lon="14.706837914728764"><ele>670.0</ele><time>2026-03-29T10:51:15Z</time></trkpt><trkpt lat="36.96982888136221" lon="14.707004415849738"><ele>670.0</ele><time>2026-03-29T10:51:16Z</time></trkpt><trkpt lat="36.969863788590146" lon="14.707195541683925"><ele>670.0</ele><time>2026-03-29T10:51:17Z</time></trkpt><trkpt lat="36.96988953421811" lon="14.707369120097301"><ele>669.5</ele><time>2026-03-29T10:51:18Z</time></trkpt><trkpt lat="36.96991043591605" lon="14.707545476478657"><ele>669.0</ele><time>2026-03-29T10:51:19Z</time></trkpt><trkpt lat="36.96994117110336" lon="14.707713901128658"><ele>668.5</ele><time>2026-03-29T10:51:20Z</time></trkpt><trkpt lat="36.969952058839496" lon="14.70788022181415"><ele>668.0</ele><time>2026-03-29T10:51:21Z</time></trkpt><trkpt lat="36.96996421338785" lon="14.708063171995255"><ele>667.5</ele><time>2026-03-29T10:51:22Z</time></trkpt><trkpt lat="36.96993678937034" lon="14.708229682478892"><ele>667.0</ele><time>2026-03-29T10:51:23Z</time></trkpt><trkpt lat="36.969903189597765" lon="14.708391716082389"><ele>666.5</ele><time>2026-03-29T10:51:24Z</time></trkpt><trkpt lat="36.96987173281021" lon="14.708569503536808"><ele>666.0</ele><time>2026-03-29T10:51:25Z</time></trkpt><trkpt lat="36.969807087463415" lon="14.708755925387603"><ele>666.0</ele><time>2026-03-29T10:51:26Z</time></trkpt><trkpt lat="36.969758685261674" lon="14.70892149894941"><ele>666.0</ele><time>2026-03-29T10:51:27Z</time></trkpt><trkpt lat="36.969722171989496" lon="14.709080459273139"><ele>666.0</ele><time>2026-03-29T10:51:28Z</time></trkpt><trkpt lat="36.969688023222986" lon="14.709241662672259"><ele>666.0</ele><time>2026-03-29T10:51:29Z</time></trkpt><trkpt lat="36.969650811868085" lon="14.709385437638687"><ele>665.0</ele><time>2026-03-29T10:51:30Z</time></trkpt><trkpt lat="36.96962514017317" lon="14.709529997749517"><ele>664.0</ele><time>2026-03-29T10:51:31Z</time></trkpt><trkpt lat="36.96958280377747" lon="14.7096835016511"><ele>663.0</ele><time>2026-03-29T10:51:32Z</time></trkpt><trkpt lat="36.96952833604694" lon="14.709839477653498"><ele>662.0</ele><time>2026-03-29T10:51:33Z</time></trkpt><trkpt lat="36.969471630175974" lon="14.70998961411286"><ele>662.0</ele><time>2026-03-29T10:51:34Z</time></trkpt><trkpt lat="36.969431997770236" lon="14.710155068619262"><ele>662.0</ele><time>2026-03-29T10:51:35Z</time></trkpt><trkpt lat="36.9694176538341" lon="14.710328274707503"><ele>662.0</ele><time>2026-03-29T10:51:36Z</time></trkpt><trkpt lat="36.969411009616174" lon="14.710504125811031"><ele>662.0</ele><time>2026-03-29T10:51:37Z</time></trkpt><trkpt lat="36.96940384099011" lon="14.710649835615918"><ele>661.0</ele><time>2026-03-29T10:51:38Z</time></trkpt><trkpt lat="36.969392399447386" lon="14.710802668205256"><ele>660.0</ele><time>2026-03-29T10:51:39Z</time></trkpt><trkpt lat="36.96939802006096" lon="14.71095498379666"><ele>659.0</ele><time>2026-03-29T10:51:40Z</time></trkpt><trkpt lat="36.96939060501226" lon="14.711076432292764"><ele>658.0</ele><time>2026-03-29T10:51:41Z</time></trkpt><trkpt lat="36.96939273484756" lon="14.71119294098423"><ele>657.0</ele><time>2026-03-29T10:51:42Z</time></trkpt><trkpt lat="36.96939471243923" lon="14.71130112344438"><ele>656.3333333333334</ele><time>2026-03-29T10:51:43Z</time></trkpt><trkpt lat="36.969377496762135" lon="14.711384194676949"><ele>655.6666666666666</ele><time>2026-03-29T10:51:44Z</time></trkpt><trkpt lat="36.96942486008439" lon="14.711499968396488"><ele>655.0</ele><time>2026-03-29T10:51:45Z</time></trkpt><trkpt lat="36.96938592595426" lon="14.711596247381118"><ele>654.3333333333333</ele><time>2026-03-29T10:51:46Z</time></trkpt><trkpt lat="36.96936329863709" lon="14.711713148745476"><ele>653.6666666666666</ele><time>2026-03-29T10:51:47Z</time></trkpt><trkpt lat="36.969368805454735" lon="14.711829344238712"><ele>653.0</ele><time>2026-03-29T10:51:48Z</time></trkpt><trkpt lat="36.96942986373745" lon="14.711927632724638"><ele>652.25</ele><time>2026-03-29T10:51:49Z</time></trkpt><trkpt lat="36.96947864437785" lon="14.712057104153534"><ele>651.5</ele><time>2026-03-29T10:51:50Z</time></trkpt><trkpt lat="36.96954135665063" lon="14.71218079909686"><ele>650.75</ele><time>2026-03-29T10:51:51Z</time></trkpt><trkpt lat="36.96962089738888" lon="14.712303138623126"><ele>650.0</ele><time>2026-03-29T10:51:52Z</time></trkpt><trkpt lat="36.96968466707579" lon="14.7124482910731"><ele>650.0</ele><time>2026-03-29T10:51:53Z</time></trkpt><trkpt lat="36.969758062558334" lon="14.71258128196024"><ele>650.0</ele><time>2026-03-29T10:51:54Z</time></trkpt><trkpt lat="36.96983528435793" lon="14.712719970763366"><ele>650.0</ele><time>2026-03-29T10:51:55Z</time></trkpt><trkpt lat="36.96991307879123" lon="14.712854468879454"><ele>650.0</ele><time>2026-03-29T10:51:56Z</time></trkpt><trkpt lat="36.96999806042621" lon="14.712960740449383"><ele>649.4</ele><time>2026-03-29T10:51:57Z</time></trkpt><trkpt lat="36.97008080970448" lon="14.713057760678826"><ele>648.8</ele><time>2026-03-29T10:51:58Z</time></trkpt><trkpt lat="36.97016633672633" lon="14.71313230716835"><ele>648.2</ele><time>2026-03-29T10:51:59Z</time></trkpt><trkpt lat="36.97025760132313" lon="14.713194119388287"><ele>647.6</ele><time>2026-03-29T10:52:00Z</time></trkpt><trkpt lat="36.97034185143104" lon="14.713252658923421"><ele>647.0</ele><time>2026-03-29T10:52:01Z</time></trkpt><trkpt lat="36.97041555582686" lon="14.713325093760094"><ele>647.0</ele><time>2026-03-29T10:52:02Z</time></trkpt><trkpt lat="36.97050682816874" lon="14.713366789264214"><ele>647.0</ele><time>2026-03-29T10:52:03Z</time></trkpt><trkpt lat="36.97059078126179" lon="14.71342518393615"><ele>647.0</ele><time>2026-03-29T10:52:04Z</time></trkpt><trkpt lat="36.97067224168339" lon="14.713489599730437"><ele>647.0</ele><time>2026-03-29T10:52:05Z</time></trkpt><trkpt lat="36.97074293349124" lon="14.713564468158948"><ele>647.0</ele><time>2026-03-29T10:52:06Z</time></trkpt><trkpt lat="36.970795517807275" lon="14.713656911621099"><ele>647.2</ele><time>2026-03-29T10:52:07Z</time></trkpt><trkpt lat="36.97083217873573" lon="14.713770911032343"><ele>647.4000000000001</ele><time>2026-03-29T10:52:08Z</time></trkpt><trkpt lat="36.9709103453791" lon="14.713845117905542"><ele>647.5999999999999</ele><time>2026-03-29T10:52:09Z</time></trkpt><trkpt lat="36.970988996773805" lon="14.713918050900713"><ele>647.8</ele><time>2026-03-29T10:52:10Z</time></trkpt><trkpt lat="36.97108721310974" lon="14.713983686588502"><ele>648.0</ele><time>2026-03-29T10:52:11Z</time></trkpt><trkpt lat="36.97119007994967" lon="14.714048122686266"><ele>647.25</ele><time>2026-03-29T10:52:12Z</time></trkpt><trkpt lat="36.97130400626002" lon="14.714116593569901"><ele>646.5</ele><time>2026-03-29T10:52:13Z</time></trkpt><trkpt lat="36.97140711702862" lon="14.71419007579994"><ele>645.75</ele><time>2026-03-29T10:52:14Z</time></trkpt><trkpt lat="36.97151170572923" lon="14.714272806625027"><ele>645.0</ele><time>2026-03-29T10:52:15Z</time></trkpt><trkpt lat="36.97161430789217" lon="14.71437440178894"><ele>645.0</ele><time>2026-03-29T10:52:16Z</time></trkpt><trkpt lat="36.9717059562577" lon="14.714451448062153"><ele>645.0</ele><time>2026-03-29T10:52:17Z</time></trkpt><trkpt lat="36.971754276696224" lon="14.714556666450576"><ele>645.0</ele><time>2026-03-29T10:52:18Z</time></trkpt><trkpt lat="36.97183294534412" lon="14.714630255098298"><ele>645.0</ele><time>2026-03-29T10:52:19Z</time></trkpt><trkpt lat="36.97190945428503" lon="14.714698695766472"><ele>645.0</ele><time>2026-03-29T10:52:20Z</time></trkpt><trkpt lat="36.97199180850834" lon="14.714720876207966"><ele>645.0</ele><time>2026-03-29T10:52:21Z</time></trkpt><trkpt lat="36.97208265780369" lon="14.714711679403129"><ele>645.0</ele><time>2026-03-29T10:52:22Z</time></trkpt><trkpt lat="36.97218715236458" lon="14.714749297397194"><ele>645.0</ele><time>2026-03-29T10:52:23Z</time></trkpt><trkpt lat="36.972262224516285" lon="14.714821677742616"><ele>645.0</ele><time>2026-03-29T10:52:24Z</time></trkpt><trkpt lat="36.97232676006215" lon="14.714933649835315"><ele>645.0</ele><time>2026-03-29T10:52:25Z</time></trkpt><trkpt lat="36.97236440562361" lon="14.715060360587772"><ele>645.0</ele><time>2026-03-29T10:52:26Z</time></trkpt><trkpt lat="36.97241485851702" lon="14.715152284689273"><ele>645.0</ele><time>2026-03-29T10:52:27Z</time></trkpt><trkpt lat="36.97250189803617" lon="14.715191236863829"><ele>645.0</ele><time>2026-03-29T10:52:28Z</time></trkpt><trkpt lat="36.97260218628801" lon="14.715232624929266"><ele>645.0</ele><time>2026-03-29T10:52:29Z</time></trkpt><trkpt lat="36.97270907789872" lon="14.715303168282608"><ele>645.0</ele><time>2026-03-29T10:52:30Z</time></trkpt><trkpt lat="36.97282174462502" lon="14.715378999538338"><ele>646.8</ele><time>2026-03-29T10:52:31Z</time></trkpt><trkpt lat="36.972932095179274" lon="14.715425070756524"><ele>648.6</ele><time>2026-03-29T10:52:32Z</time></trkpt><trkpt lat="36.97300833329392" lon="14.715477408316142"><ele>650.4000000000001</ele><time>2026-03-29T10:52:33Z</time></trkpt><trkpt lat="36.97305025830602" lon="14.715543699359786"><ele>652.2</ele><time>2026-03-29T10:52:34Z</time></trkpt><trkpt lat="36.97314950529685" lon="14.715502716614045"><ele>654.0</ele><time>2026-03-29T10:52:36Z</time></trkpt><trkpt lat="36.97306975099107" lon="14.715566925678974"><ele>654.0</ele><time>2026-03-29T10:52:37Z</time></trkpt><trkpt lat="36.97320413017273" lon="14.715429135775576"><ele>654.0</ele><time>2026-03-29T10:52:38Z</time></trkpt><trkpt lat="36.97322916957561" lon="14.715349604287162"><ele>654.0</ele><time>2026-03-29T10:52:39Z</time></trkpt><trkpt lat="36.973180728881474" lon="14.715227000741093"><ele>654.0</ele><time>2026-03-29T10:52:40Z</time></trkpt><trkpt lat="36.973149809760926" lon="14.71515247944464"><ele>654.0</ele><time>2026-03-29T10:52:41Z</time></trkpt><trkpt lat="36.97310386840599" lon="14.715004360520906"><ele>653.5</ele><time>2026-03-29T10:52:43Z</time></trkpt><trkpt lat="36.97309660793414" lon="14.714918196128123"><ele>653.0</ele><time>2026-03-29T10:52:44Z</time></trkpt><trkpt lat="36.97314195814846" lon="14.714861662186445"><ele>652.5</ele><time>2026-03-29T10:52:46Z</time></trkpt><trkpt lat="36.97344225092715" lon="14.714917977742655"><ele>652.0</ele><time>2026-03-29T10:52:47Z</time></trkpt><trkpt lat="36.973498929794296" lon="14.714785659558466"><ele>653.5</ele><time>2026-03-29T10:52:51Z</time></trkpt><trkpt lat="36.97360408593899" lon="14.714765733141256"><ele>655.0</ele><time>2026-03-29T10:52:53Z</time></trkpt><trkpt lat="36.97370967457146" lon="14.714707894481013"><ele>656.5</ele><time>2026-03-29T10:52:54Z</time></trkpt><trkpt lat="36.97381028400046" lon="14.714683439820456"><ele>658.0</ele><time>2026-03-29T10:52:56Z</time></trkpt><trkpt lat="36.974069260389946" lon="14.71465932662943"><ele>658.0</ele><time>2026-03-29T10:53:03Z</time></trkpt><trkpt lat="36.974159785380806" lon="14.714663973127092"><ele>658.0</ele><time>2026-03-29T10:53:05Z</time></trkpt><trkpt lat="36.97427816197004" lon="14.714684384728649"><ele>658.0</ele><time>2026-03-29T10:53:07Z</time></trkpt><trkpt lat="36.974351521351295" lon="14.714700127602853"><ele>658.0</ele><time>2026-03-29T10:53:08Z</time></trkpt><trkpt lat="36.97445964007818" lon="14.714722771865857"><ele>658.0</ele><time>2026-03-29T10:53:10Z</time></trkpt><trkpt lat="36.97452065137916" lon="14.714745444760176"><ele>658.2</ele><time>2026-03-29T10:53:12Z</time></trkpt><trkpt lat="36.97460827272384" lon="14.71481445476783"><ele>658.4</ele><time>2026-03-29T10:53:14Z</time></trkpt><trkpt lat="36.97469123619911" lon="14.714835740765453"><ele>658.6</ele><time>2026-03-29T10:53:18Z</time></trkpt><trkpt lat="36.974798630558944" lon="14.714879526017645"><ele>658.8000000000001</ele><time>2026-03-29T10:53:20Z</time></trkpt><trkpt lat="36.97490324424527" lon="14.714927266424953"><ele>659.0</ele><time>2026-03-29T10:53:22Z</time></trkpt><trkpt lat="36.97498577359619" lon="14.714984331744978"><ele>660.1666666666666</ele><time>2026-03-29T10:53:25Z</time></trkpt><trkpt lat="36.975058889967116" lon="14.71498302636378"><ele>661.3333333333333</ele><time>2026-03-29T10:53:27Z</time></trkpt><trkpt lat="36.97510846895815" lon="14.715033514348987"><ele>662.5</ele><time>2026-03-29T10:53:29Z</time></trkpt><trkpt lat="36.97519019347922" lon="14.715052627681544"><ele>663.6666666666666</ele><time>2026-03-29T10:53:31Z</time></trkpt><trkpt lat="36.97528704390728" lon="14.715084642861951"><ele>664.8333333333334</ele><time>2026-03-29T10:53:32Z</time></trkpt><trkpt lat="36.9753907009798" lon="14.715154921917039"><ele>666.0</ele><time>2026-03-29T10:53:33Z</time></trkpt><trkpt lat="36.97545790993719" lon="14.715199350882763"><ele>666.0</ele><time>2026-03-29T10:53:34Z</time></trkpt><trkpt lat="36.97552559658733" lon="14.715235891873435"><ele>666.0</ele><time>2026-03-29T10:53:35Z</time></trkpt><trkpt lat="36.97559429119182" lon="14.715270691449849"><ele>666.0</ele><time>2026-03-29T10:53:36Z</time></trkpt><trkpt lat="36.97565394711518" lon="14.715299362997348"><ele>666.0</ele><time>2026-03-29T10:53:37Z</time></trkpt><trkpt lat="36.9757252227476" lon="14.715331443301766"><ele>666.0</ele><time>2026-03-29T10:53:38Z</time></trkpt><trkpt lat="36.975801744083846" lon="14.71535519806303"><ele>666.0</ele><time>2026-03-29T10:53:39Z</time></trkpt><trkpt lat="36.97587141084449" lon="14.715399384648759"><ele>666.0</ele><time>2026-03-29T10:53:40Z</time></trkpt><trkpt lat="36.975935523241134" lon="14.715430114106868"><ele>665.5714285714286</ele><time>2026-03-29T10:53:41Z</time></trkpt><trkpt lat="36.976004976999945" lon="14.715465933250025"><ele>665.1428571428571</ele><time>2026-03-29T10:53:42Z</time></trkpt><trkpt lat="36.976067859559954" lon="14.715500657816214"><ele>664.7142857142857</ele><time>2026-03-29T10:53:43Z</time></trkpt><trkpt lat="36.97612747605661" lon="14.715542155467976"><ele>664.2857142857142</ele><time>2026-03-29T10:53:44Z</time></trkpt><trkpt lat="36.97619157366798" lon="14.715586531226025"><ele>663.8571428571429</ele><time>2026-03-29T10:53:45Z</time></trkpt><trkpt lat="36.976262959825135" lon="14.715639562221643"><ele>663.4285714285713</ele><time>2026-03-29T10:53:46Z</time></trkpt><trkpt lat="36.9763259588878" lon="14.715694766493469"><ele>663.0</ele><time>2026-03-29T10:53:47Z</time></trkpt><trkpt lat="36.97639687510912" lon="14.71574613643042"><ele>663.0</ele><time>2026-03-29T10:53:48Z</time></trkpt><trkpt lat="36.97645921443178" lon="14.715795623896266"><ele>663.0</ele><time>2026-03-29T10:53:49Z</time></trkpt><trkpt lat="36.97652737533434" lon="14.715852605193557"><ele>663.0</ele><time>2026-03-29T10:53:50Z</time></trkpt><trkpt lat="36.9765841149431" lon="14.71591029003818"><ele>663.0</ele><time>2026-03-29T10:53:51Z</time></trkpt><trkpt lat="36.97664430862468" lon="14.715949216294792"><ele>663.0</ele><time>2026-03-29T10:53:52Z</time></trkpt><trkpt lat="36.976747435119655" lon="14.715988357256375"><ele>663.0</ele><time>2026-03-29T10:53:54Z</time></trkpt><trkpt lat="36.97686477354125" lon="14.716007542374218"><ele>662.0</ele><time>2026-03-29T10:53:56Z</time></trkpt><trkpt lat="36.976928604175555" lon="14.716008702214934"><ele>661.0</ele><time>2026-03-29T10:53:57Z</time></trkpt><trkpt lat="36.97699439130049" lon="14.716000716728356"><ele>660.0</ele><time>2026-03-29T10:53:58Z</time></trkpt><trkpt lat="36.97705399653485" lon="14.7159737610843"><ele>659.0</ele><time>2026-03-29T10:53:59Z</time></trkpt><trkpt lat="36.97715387608367" lon="14.715912263282277"><ele>658.0</ele><time>2026-03-29T10:54:01Z</time></trkpt><trkpt lat="36.97724213918562" lon="14.71584991753898"><ele>657.0</ele><time>2026-03-29T10:54:03Z</time></trkpt><trkpt lat="36.97730380122203" lon="14.715772786751277"><ele>657.0</ele><time>2026-03-29T10:54:05Z</time></trkpt><trkpt lat="36.977336828497926" lon="14.715699228497222"><ele>657.0</ele><time>2026-03-29T10:54:08Z</time></trkpt><trkpt lat="36.97735877595021" lon="14.715605400534319"><ele>657.0</ele><time>2026-03-29T10:54:11Z</time></trkpt><trkpt lat="36.977395357775684" lon="14.715471339226191"><ele>657.0</ele><time>2026-03-29T10:54:14Z</time></trkpt><trkpt lat="36.9774397926896" lon="14.715410030584092"><ele>657.0</ele><time>2026-03-29T10:54:18Z</time></trkpt><trkpt lat="36.97744848331541" lon="14.715525068492656"><ele>657.0</ele><time>2026-03-29T10:54:22Z</time></trkpt><trkpt lat="36.97746260948588" lon="14.715615498717165"><ele>657.0</ele><time>2026-03-29T10:54:24Z</time></trkpt><trkpt lat="36.97745994645823" lon="14.715703960392563"><ele>657.0</ele><time>2026-03-29T10:54:26Z</time></trkpt><trkpt lat="36.977466501324656" lon="14.715789791386628"><ele>657.0</ele><time>2026-03-29T10:54:27Z</time></trkpt><trkpt lat="36.977480452462494" lon="14.715867374928642"><ele>657.0</ele><time>2026-03-29T10:54:28Z</time></trkpt><trkpt lat="36.97750272056052" lon="14.716008485440595"><ele>657.0</ele><time>2026-03-29T10:54:30Z</time></trkpt><trkpt lat="36.977492923288686" lon="14.716135299079745"><ele>657.0</ele><time>2026-03-29T10:54:32Z</time></trkpt><trkpt lat="36.97748253367821" lon="14.716238111165898"><ele>656.1428571428571</ele><time>2026-03-29T10:54:34Z</time></trkpt><trkpt lat="36.97747533585929" lon="14.716324438319296"><ele>655.2857142857143</ele><time>2026-03-29T10:54:37Z</time></trkpt><trkpt lat="36.97752793158808" lon="14.716383199983913"><ele>654.4285714285714</ele><time>2026-03-29T10:55:41Z</time></trkpt><trkpt lat="36.97759368446965" lon="14.716375938159638"><ele>653.5714285714286</ele><time>2026-03-29T10:56:11Z</time></trkpt><trkpt lat="36.97765589695504" lon="14.716350325997158"><ele>652.7142857142858</ele><time>2026-03-29T10:56:24Z</time></trkpt><trkpt lat="36.97768356525817" lon="14.716421384208827"><ele>651.8571428571429</ele><time>2026-03-29T10:57:16Z</time></trkpt><trkpt lat="36.97770531810078" lon="14.716334057971658"><ele>651.0</ele><time>2026-03-29T10:57:44Z</time></trkpt><trkpt lat="36.97765662930686" lon="14.716387011306068"><ele>651.0</ele><time>2026-03-29T10:59:15Z</time></trkpt><trkpt lat="36.97768279882134" lon="14.716463081702162"><ele>651.0</ele><time>2026-03-29T11:01:07Z</time></trkpt><trkpt lat="36.97773298168204" lon="14.716517112660787"><ele>651.0</ele><time>2026-03-29T11:01:49Z</time></trkpt><trkpt lat="36.97774858152933" lon="14.716595921408736"><ele>651.0</ele><time>2026-03-29T11:01:52Z</time></trkpt><trkpt lat="36.9777640029675" lon="14.716675525967613"><ele>651.0</ele><time>2026-03-29T11:01:54Z</time></trkpt><trkpt lat="36.977826094901744" lon="14.716737396957402"><ele>651.0</ele><time>2026-03-29T11:01:58Z</time></trkpt><trkpt lat="36.9778623110755" lon="14.716805642955055"><ele>651.0</ele><time>2026-03-29T11:02:00Z</time></trkpt><trkpt lat="36.97791641279401" lon="14.716862125354082"><ele>651.0</ele><time>2026-03-29T11:02:04Z</time></trkpt><trkpt lat="36.977919577839835" lon="14.716960852641037"><ele>651.0</ele><time>2026-03-29T11:02:34Z</time></trkpt><trkpt lat="36.977937287070205" lon="14.716882201334295"><ele>651.0</ele><time>2026-03-29T11:05:05Z</time></trkpt><trkpt lat="36.97791715627984" lon="14.716969138311601"><ele>651.0</ele><time>2026-03-29T11:06:23Z</time></trkpt><trkpt lat="36.97791961957177" lon="14.717050998490114"><ele>651.0</ele><time>2026-03-29T11:09:59Z</time></trkpt><trkpt lat="36.977978835114065" lon="14.717013418420253"><ele>651.0</ele><time>2026-03-29T11:10:57Z</time></trkpt><trkpt lat="36.97799749798113" lon="14.717089945047373"><ele>651.0</ele><time>2026-03-29T11:14:08Z</time></trkpt><trkpt lat="36.978037619775165" lon="14.717169747167365"><ele>652.2857142857143</ele><time>2026-03-29T11:16:41Z</time></trkpt><trkpt lat="36.97805775510135" lon="14.717259016368486"><ele>653.5714285714286</ele><time>2026-03-29T11:17:22Z</time></trkpt><trkpt lat="36.97804868686664" lon="14.717347769429423"><ele>654.8571428571429</ele><time>2026-03-29T11:19:14Z</time></trkpt><trkpt lat="36.978105577329394" lon="14.717385536692436"><ele>656.1428571428571</ele><time>2026-03-29T11:19:46Z</time></trkpt><trkpt lat="36.978116099227734" lon="14.717473304899128"><ele>657.4285714285714</ele><time>2026-03-29T11:24:12Z</time></trkpt><trkpt lat="36.97811598596293" lon="14.717562324902904"><ele>658.7142857142858</ele><time>2026-03-29T11:24:50Z</time></trkpt><trkpt lat="36.97815589205056" lon="14.71762382129614"><ele>660.0</ele><time>2026-03-29T11:24:53Z</time></trkpt><trkpt lat="36.97817493985313" lon="14.717701177908165"><ele>660.5714285714287</ele><time>2026-03-29T11:25:32Z</time></trkpt><trkpt lat="36.97824160963251" lon="14.717739261118918"><ele>661.1428571428571</ele><time>2026-03-29T11:28:44Z</time></trkpt><trkpt lat="36.9783038951441" lon="14.717813265817584"><ele>661.7142857142858</ele><time>2026-03-29T11:33:23Z</time></trkpt><trkpt lat="36.97833624335791" lon="14.717887818251663"><ele>662.2857142857143</ele><time>2026-03-29T11:33:29Z</time></trkpt><trkpt lat="36.97836515965442" lon="14.717967984019204"><ele>662.8571428571429</ele><time>2026-03-29T11:33:44Z</time></trkpt><trkpt lat="36.97839047421568" lon="14.718042603184463"><ele>663.4285714285714</ele><time>2026-03-29T11:33:50Z</time></trkpt><trkpt lat="36.97845379476251" lon="14.71808891568122"><ele>664.0</ele><time>2026-03-29T11:33:58Z</time></trkpt><trkpt lat="36.97845396647156" lon="14.718170775371457"><ele>665.0</ele><time>2026-03-29T11:34:15Z</time></trkpt><trkpt lat="36.97847750051775" lon="14.718251587740147"><ele>666.0</ele><time>2026-03-29T11:34:17Z</time></trkpt><trkpt lat="36.978528562609846" lon="14.718361779114971"><ele>667.0</ele><time>2026-03-29T11:34:19Z</time></trkpt><trkpt lat="36.97856547484771" lon="14.71847331271153"><ele>668.0</ele><time>2026-03-29T11:34:21Z</time></trkpt><trkpt lat="36.978614263525685" lon="14.718590307473544"><ele>669.0</ele><time>2026-03-29T11:34:23Z</time></trkpt><trkpt lat="36.978650927448825" lon="14.718694697331562"><ele>669.0</ele><time>2026-03-29T11:34:25Z</time></trkpt><trkpt lat="36.97869682708102" lon="14.718763989838534"><ele>669.0</ele><time>2026-03-29T11:34:27Z</time></trkpt><trkpt lat="36.97873242185807" lon="14.71885567727329"><ele>669.0</ele><time>2026-03-29T11:34:29Z</time></trkpt><trkpt lat="36.97877133960419" lon="14.718962433034624"><ele>669.0</ele><time>2026-03-29T11:34:31Z</time></trkpt><trkpt lat="36.97882641294455" lon="14.719070093246525"><ele>669.0</ele><time>2026-03-29T11:34:33Z</time></trkpt><trkpt lat="36.9788496759621" lon="14.719156207330085"><ele>669.0</ele><time>2026-03-29T11:34:35Z</time></trkpt><trkpt lat="36.9788760982513" lon="14.719320165174489"><ele>668.4000000000001</ele><time>2026-03-29T11:34:39Z</time></trkpt><trkpt lat="36.978909920750326" lon="14.719415441610947"><ele>667.8</ele><time>2026-03-29T11:34:40Z</time></trkpt><trkpt lat="36.978948300661294" lon="14.71951336243494"><ele>667.2</ele><time>2026-03-29T11:34:41Z</time></trkpt><trkpt lat="36.979006617220634" lon="14.719628106317682"><ele>666.5999999999999</ele><time>2026-03-29T11:34:43Z</time></trkpt><trkpt lat="36.97905158548374" lon="14.719740134803649"><ele>666.0</ele><time>2026-03-29T11:34:45Z</time></trkpt><trkpt lat="36.97909465597218" lon="14.719860877275558"><ele>666.0</ele><time>2026-03-29T11:34:48Z</time></trkpt><trkpt lat="36.97913728275162" lon="14.719961296287423"><ele>666.0</ele><time>2026-03-29T11:34:49Z</time></trkpt><trkpt lat="36.97917396820283" lon="14.720058976009561"><ele>666.0</ele><time>2026-03-29T11:34:50Z</time></trkpt><trkpt lat="36.97921000161076" lon="14.72015714553489"><ele>666.0</ele><time>2026-03-29T11:34:51Z</time></trkpt><trkpt lat="36.97924014231718" lon="14.720254191629737"><ele>666.0</ele><time>2026-03-29T11:34:52Z</time></trkpt><trkpt lat="36.97927875136078" lon="14.720346944638182"><ele>666.0</ele><time>2026-03-29T11:34:53Z</time></trkpt><trkpt lat="36.979317827357335" lon="14.720443333624544"><ele>664.5</ele><time>2026-03-29T11:34:54Z</time></trkpt><trkpt lat="36.97934604494554" lon="14.720521211846162"><ele>663.0</ele><time>2026-03-29T11:34:55Z</time></trkpt><trkpt lat="36.97938521354909" lon="14.720658518371398"><ele>661.5</ele><time>2026-03-29T11:34:57Z</time></trkpt><trkpt lat="36.979421712070966" lon="14.720783946143117"><ele>660.0</ele><time>2026-03-29T11:34:59Z</time></trkpt><trkpt lat="36.97944880245121" lon="14.720874959491868"><ele>658.5</ele><time>2026-03-29T11:35:01Z</time></trkpt><trkpt lat="36.97948296387345" lon="14.720944122636517"><ele>657.0</ele><time>2026-03-29T11:35:03Z</time></trkpt><trkpt lat="36.979580048550524" lon="14.72090506676112"><ele>657.0</ele><time>2026-03-29T11:35:07Z</time></trkpt><trkpt lat="36.97967115205196" lon="14.720886388651858"><ele>657.0</ele><time>2026-03-29T11:35:11Z</time></trkpt><trkpt lat="36.97973705354254" lon="14.72083255062378"><ele>657.0</ele><time>2026-03-29T11:35:13Z</time></trkpt><trkpt lat="36.97981079281284" lon="14.720744802644914"><ele>657.0</ele><time>2026-03-29T11:35:14Z</time></trkpt><trkpt lat="36.98046738796004" lon="14.720532061630786"><ele>657.0</ele><time>2026-03-29T11:35:16Z</time></trkpt><trkpt lat="36.98059188724083" lon="14.720447441411716"><ele>657.0</ele><time>2026-03-29T11:35:18Z</time></trkpt><trkpt lat="36.98066693253681" lon="14.720405128428462"><ele>657.0</ele><time>2026-03-29T11:35:19Z</time></trkpt><trkpt lat="36.98075186145773" lon="14.720366293525323"><ele>657.0</ele><time>2026-03-29T11:35:20Z</time></trkpt><trkpt lat="36.98083328904404" lon="14.72030639063449"><ele>657.0</ele><time>2026-03-29T11:35:21Z</time></trkpt><trkpt lat="36.980914151723674" lon="14.720247184029898"><ele>660.2</ele><time>2026-03-29T11:35:22Z</time></trkpt><trkpt lat="36.981006403616526" lon="14.72017628446611"><ele>663.4000000000001</ele><time>2026-03-29T11:35:23Z</time></trkpt><trkpt lat="36.9810952116806" lon="14.720113398377313"><ele>666.5999999999999</ele><time>2026-03-29T11:35:24Z</time></trkpt><trkpt lat="36.98119060414428" lon="14.720051931737128"><ele>669.8</ele><time>2026-03-29T11:35:25Z</time></trkpt><trkpt lat="36.98128432461132" lon="14.719995906736086"><ele>673.0</ele><time>2026-03-29T11:35:26Z</time></trkpt><trkpt lat="36.981383017074165" lon="14.719944450630404"><ele>673.0</ele><time>2026-03-29T11:35:27Z</time></trkpt><trkpt lat="36.98146758383014" lon="14.719907094108105"><ele>673.0</ele><time>2026-03-29T11:35:28Z</time></trkpt><trkpt lat="36.98153212064888" lon="14.719867644783657"><ele>673.0</ele><time>2026-03-29T11:35:29Z</time></trkpt><trkpt lat="36.981614883547635" lon="14.719844467892456"><ele>673.0</ele><time>2026-03-29T11:35:30Z</time></trkpt><trkpt lat="36.981693659314274" lon="14.719814749324778"><ele>673.0</ele><time>2026-03-29T11:35:31Z</time></trkpt><trkpt lat="36.98176998013115" lon="14.719809821067154"><ele>673.0</ele><time>2026-03-29T11:35:32Z</time></trkpt><trkpt lat="36.981848772122135" lon="14.719785254192173"><ele>673.3333333333334</ele><time>2026-03-29T11:35:33Z</time></trkpt><trkpt lat="36.98192077723322" lon="14.71976024154994"><ele>673.6666666666667</ele><time>2026-03-29T11:35:34Z</time></trkpt><trkpt lat="36.98198821947541" lon="14.719735645001021"><ele>674.0</ele><time>2026-03-29T11:35:35Z</time></trkpt><trkpt lat="36.98205025825957" lon="14.719713019074334"><ele>674.3333333333334</ele><time>2026-03-29T11:35:36Z</time></trkpt><trkpt lat="36.98216560222835" lon="14.719652278276584"><ele>674.6666666666666</ele><time>2026-03-29T11:35:38Z</time></trkpt><trkpt lat="36.98224306101606" lon="14.719659530881678"><ele>675.0</ele><time>2026-03-29T11:35:39Z</time></trkpt><trkpt lat="36.98231997390605" lon="14.71961444169414"><ele>675.0</ele><time>2026-03-29T11:35:40Z</time></trkpt><trkpt lat="36.98240295329005" lon="14.719575887117045"><ele>675.0</ele><time>2026-03-29T11:35:41Z</time></trkpt><trkpt lat="36.98248719935713" lon="14.719527677149557"><ele>675.0</ele><time>2026-03-29T11:35:42Z</time></trkpt><trkpt lat="36.982572510407216" lon="14.719493655013212"><ele>675.0</ele><time>2026-03-29T11:35:43Z</time></trkpt><trkpt lat="36.98265004209694" lon="14.719464357296662"><ele>675.0</ele><time>2026-03-29T11:35:44Z</time></trkpt><trkpt lat="36.98272051464871" lon="14.71943807929096"><ele>675.0</ele><time>2026-03-29T11:35:45Z</time></trkpt><trkpt lat="36.98278523021698" lon="14.71940910080457"><ele>676.5714285714286</ele><time>2026-03-29T11:35:46Z</time></trkpt><trkpt lat="36.98284659849606" lon="14.719385517460374"><ele>678.1428571428571</ele><time>2026-03-29T11:35:47Z</time></trkpt><trkpt lat="36.982910682363936" lon="14.71935882498595"><ele>679.7142857142858</ele><time>2026-03-29T11:35:48Z</time></trkpt><trkpt lat="36.982976180057676" lon="14.719332098863795"><ele>681.2857142857142</ele><time>2026-03-29T11:35:49Z</time></trkpt><trkpt lat="36.98304317321168" lon="14.719300418693358"><ele>682.8571428571429</ele><time>2026-03-29T11:35:50Z</time></trkpt><trkpt lat="36.98312736846023" lon="14.719262719138374"><ele>684.4285714285714</ele><time>2026-03-29T11:35:51Z</time></trkpt><trkpt lat="36.98320471275798" lon="14.719231066338534"><ele>686.0</ele><time>2026-03-29T11:35:52Z</time></trkpt><trkpt lat="36.98328116426271" lon="14.719195913409827"><ele>686.0</ele><time>2026-03-29T11:35:53Z</time></trkpt><trkpt lat="36.98335841682926" lon="14.719165412653984"><ele>686.0</ele><time>2026-03-29T11:35:54Z</time></trkpt><trkpt lat="36.98343482234573" lon="14.719132479258736"><ele>686.0</ele><time>2026-03-29T11:35:55Z</time></trkpt><trkpt lat="36.983505758718756" lon="14.719099895353082"><ele>686.0</ele><time>2026-03-29T11:35:56Z</time></trkpt><trkpt lat="36.98356883538845" lon="14.719054420705342"><ele>686.0</ele><time>2026-03-29T11:35:57Z</time></trkpt><trkpt lat="36.98365264069689" lon="14.719029728619939"><ele>686.0</ele><time>2026-03-29T11:35:58Z</time></trkpt><trkpt lat="36.98373801949156" lon="14.718986542834067"><ele>686.0</ele><time>2026-03-29T11:35:59Z</time></trkpt><trkpt lat="36.98383782312883" lon="14.718933808160509"><ele>686.0</ele><time>2026-03-29T11:36:00Z</time></trkpt><trkpt lat="36.98395302598108" lon="14.718848325039279"><ele>686.0</ele><time>2026-03-29T11:36:01Z</time></trkpt><trkpt lat="36.98408517109635" lon="14.718748582510482"><ele>686.0</ele><time>2026-03-29T11:36:02Z</time></trkpt><trkpt lat="36.984225932949784" lon="14.718652606312585"><ele>688.75</ele><time>2026-03-29T11:36:03Z</time></trkpt><trkpt lat="36.98436494238919" lon="14.718541309637683"><ele>691.5</ele><time>2026-03-29T11:36:04Z</time></trkpt><trkpt lat="36.98450095529256" lon="14.71844751809992"><ele>694.25</ele><time>2026-03-29T11:36:05Z</time></trkpt><trkpt lat="36.984612657432635" lon="14.71836990386363"><ele>697.0</ele><time>2026-03-29T11:36:06Z</time></trkpt><trkpt lat="36.9846990662533" lon="14.71829467823683"><ele>697.0</ele><time>2026-03-29T11:36:07Z</time></trkpt><trkpt lat="36.98477740387664" lon="14.718235927052062"><ele>697.0</ele><time>2026-03-29T11:36:08Z</time></trkpt><trkpt lat="36.98485794341711" lon="14.718184344045607"><ele>697.0</ele><time>2026-03-29T11:36:09Z</time></trkpt><trkpt lat="36.98493616834669" lon="14.71812401584626"><ele>697.0</ele><time>2026-03-29T11:36:10Z</time></trkpt><trkpt lat="36.98503146465018" lon="14.718058288977275"><ele>697.0</ele><time>2026-03-29T11:36:11Z</time></trkpt><trkpt lat="36.98512354962213" lon="14.71799669500219"><ele>698.25</ele><time>2026-03-29T11:36:12Z</time></trkpt><trkpt lat="36.985224341768" lon="14.717933916390235"><ele>699.5</ele><time>2026-03-29T11:36:13Z</time></trkpt><trkpt lat="36.985346385495475" lon="14.717881133287692"><ele>700.75</ele><time>2026-03-29T11:36:14Z</time></trkpt><trkpt lat="36.985499261364545" lon="14.71788673273836"><ele>702.0</ele><time>2026-03-29T11:36:15Z</time></trkpt><trkpt lat="36.98566034184331" lon="14.717886294994418"><ele>704.0</ele><time>2026-03-29T11:36:16Z</time></trkpt><trkpt lat="36.985852186402425" lon="14.717886997163962"><ele>706.0</ele><time>2026-03-29T11:36:17Z</time></trkpt><trkpt lat="36.986077093975865" lon="14.717887277483042"><ele>708.0</ele><time>2026-03-29T11:36:18Z</time></trkpt><trkpt lat="36.986299514028985" lon="14.717894057152673"><ele>708.0</ele><time>2026-03-29T11:36:19Z</time></trkpt><trkpt lat="36.986541783139174" lon="14.71790067747559"><ele>708.0</ele><time>2026-03-29T11:36:20Z</time></trkpt><trkpt lat="36.986746353345" lon="14.717890798926387"><ele>708.0</ele><time>2026-03-29T11:36:21Z</time></trkpt><trkpt lat="36.98692264378888" lon="14.717874913727874"><ele>709.75</ele><time>2026-03-29T11:36:22Z</time></trkpt><trkpt lat="36.987074159583706" lon="14.71786943867172"><ele>711.5</ele><time>2026-03-29T11:36:23Z</time></trkpt><trkpt lat="36.98720778803599" lon="14.717870501516954"><ele>713.25</ele><time>2026-03-29T11:36:24Z</time></trkpt><trkpt lat="36.98731713983758" lon="14.71788238921882"><ele>715.0</ele><time>2026-03-29T11:36:25Z</time></trkpt><trkpt lat="36.987410334986755" lon="14.71790287515408"><ele>717.25</ele><time>2026-03-29T11:36:26Z</time></trkpt><trkpt lat="36.987525030458066" lon="14.717946180078396"><ele>719.5</ele><time>2026-03-29T11:36:27Z</time></trkpt><trkpt lat="36.98764024944133" lon="14.718001582393782"><ele>721.75</ele><time>2026-03-29T11:36:28Z</time></trkpt><trkpt lat="36.98776361942525" lon="14.718063003184449"><ele>724.0</ele><time>2026-03-29T11:36:29Z</time></trkpt><trkpt lat="36.98788564212522" lon="14.718123753289225"><ele>724.0</ele><time>2026-03-29T11:36:30Z</time></trkpt><trkpt lat="36.988036788940626" lon="14.718195778304038"><ele>724.0</ele><time>2026-03-29T11:36:31Z</time></trkpt><trkpt lat="36.98819285970611" lon="14.718257098593142"><ele>724.0</ele><time>2026-03-29T11:36:32Z</time></trkpt><trkpt lat="36.988368920425415" lon="14.71829735007098"><ele>727.0</ele><time>2026-03-29T11:36:33Z</time></trkpt><trkpt lat="36.98852714608067" lon="14.718322218690728"><ele>730.0</ele><time>2026-03-29T11:36:34Z</time></trkpt><trkpt lat="36.988677085689496" lon="14.718332350108293"><ele>733.0</ele><time>2026-03-29T11:36:35Z</time></trkpt><trkpt lat="36.98882943797823" lon="14.71831733363364"><ele>733.0</ele><time>2026-03-29T11:36:36Z</time></trkpt><trkpt lat="36.98898029251273" lon="14.718307428433274"><ele>733.0</ele><time>2026-03-29T11:36:37Z</time></trkpt><trkpt lat="36.98913754263157" lon="14.718304458349797"><ele>733.0</ele><time>2026-03-29T11:36:38Z</time></trkpt><trkpt lat="36.98929716499153" lon="14.71833178374441"><ele>736.0</ele><time>2026-03-29T11:36:39Z</time></trkpt><trkpt lat="36.98945784290625" lon="14.718339421687867"><ele>739.0</ele><time>2026-03-29T11:36:40Z</time></trkpt><trkpt lat="36.98962294057148" lon="14.718345193045925"><ele>742.0</ele><time>2026-03-29T11:36:41Z</time></trkpt><trkpt lat="36.98980204552072" lon="14.718348985998764"><ele>742.0</ele><time>2026-03-29T11:36:42Z</time></trkpt><trkpt lat="36.98996081863551" lon="14.718351320969294"><ele>742.0</ele><time>2026-03-29T11:36:43Z</time></trkpt><trkpt lat="36.99010166743419" lon="14.718346230898934"><ele>742.0</ele><time>2026-03-29T11:36:44Z</time></trkpt><trkpt lat="36.99022736929641" lon="14.718316640872924"><ele>742.0</ele><time>2026-03-29T11:36:45Z</time></trkpt><trkpt lat="36.990339215569826" lon="14.71829995034101"><ele>742.75</ele><time>2026-03-29T11:36:46Z</time></trkpt><trkpt lat="36.990461142677425" lon="14.71826357562911"><ele>743.5</ele><time>2026-03-29T11:36:47Z</time></trkpt><trkpt lat="36.99058053464756" lon="14.71826581248622"><ele>744.25</ele><time>2026-03-29T11:36:48Z</time></trkpt><trkpt lat="36.99070138119081" lon="14.718271751486148"><ele>745.0</ele><time>2026-03-29T11:36:49Z</time></trkpt><trkpt lat="36.99082461585664" lon="14.71829136221534"><ele>746.75</ele><time>2026-03-29T11:36:50Z</time></trkpt><trkpt lat="36.99093862103609" lon="14.71830444955327"><ele>748.5</ele><time>2026-03-29T11:36:51Z</time></trkpt><trkpt lat="36.99105782811871" lon="14.718313612742831"><ele>750.25</ele><time>2026-03-29T11:36:52Z</time></trkpt><trkpt lat="36.9911643819242" lon="14.71831895073614"><ele>752.0</ele><time>2026-03-29T11:36:53Z</time></trkpt><trkpt lat="36.99128749557837" lon="14.718325060814887"><ele>752.0</ele><time>2026-03-29T11:36:54Z</time></trkpt><trkpt lat="36.99140794596667" lon="14.718330834735548"><ele>752.0</ele><time>2026-03-29T11:36:55Z</time></trkpt><trkpt lat="36.991547078726555" lon="14.718337376418278"><ele>752.0</ele><time>2026-03-29T11:36:56Z</time></trkpt><trkpt lat="36.99169782568927" lon="14.718321006478302"><ele>752.0</ele><time>2026-03-29T11:36:57Z</time></trkpt><trkpt lat="36.99188340392698" lon="14.718291450273755"><ele>754.6666666666666</ele><time>2026-03-29T11:36:58Z</time></trkpt><trkpt lat="36.99208436566143" lon="14.718243492201246"><ele>757.3333333333334</ele><time>2026-03-29T11:36:59Z</time></trkpt><trkpt lat="36.992301493954955" lon="14.718188737188981"><ele>760.0</ele><time>2026-03-29T11:37:00Z</time></trkpt><trkpt lat="36.992519692462956" lon="14.718136870336114"><ele>762.5</ele><time>2026-03-29T11:37:01Z</time></trkpt><trkpt lat="36.99274369186047" lon="14.718067735595477"><ele>765.0</ele><time>2026-03-29T11:37:02Z</time></trkpt><trkpt lat="36.99297677175687" lon="14.717993078908494"><ele>765.0</ele><time>2026-03-29T11:37:03Z</time></trkpt><trkpt lat="36.993220108406376" lon="14.717920431520943"><ele>765.0</ele><time>2026-03-29T11:37:04Z</time></trkpt><trkpt lat="36.993449803248275" lon="14.7178437406611"><ele>769.0</ele><time>2026-03-29T11:37:05Z</time></trkpt><trkpt lat="36.9936774738237" lon="14.717776604376736"><ele>773.0</ele><time>2026-03-29T11:37:06Z</time></trkpt><trkpt lat="36.99391442173276" lon="14.717755808682192"><ele>773.0</ele><time>2026-03-29T11:37:07Z</time></trkpt><trkpt lat="36.994158237628255" lon="14.717755003041452"><ele>773.0</ele><time>2026-03-29T11:37:08Z</time></trkpt><trkpt lat="36.99437645576802" lon="14.717756405710173"><ele>775.0</ele><time>2026-03-29T11:37:09Z</time></trkpt><trkpt lat="36.99455069774651" lon="14.717759651505647"><ele>777.0</ele><time>2026-03-29T11:37:10Z</time></trkpt><trkpt lat="36.994701202712555" lon="14.71776245401033"><ele>779.0</ele><time>2026-03-29T11:37:11Z</time></trkpt><trkpt lat="36.994834557660326" lon="14.717763879851528"><ele>779.5000000000001</ele><time>2026-03-29T11:37:12Z</time></trkpt><trkpt lat="36.99492139121389" lon="14.717734654491563"><ele>780.0</ele><time>2026-03-29T11:37:13Z</time></trkpt><trkpt lat="36.99499968203956" lon="14.717726010497183"><ele>780.5</ele><time>2026-03-29T11:37:14Z</time></trkpt><trkpt lat="36.99506599821476" lon="14.717714575762669"><ele>781.0</ele><time>2026-03-29T11:37:15Z</time></trkpt><trkpt lat="36.99511580469318" lon="14.717812241374222"><ele>781.5000000000001</ele><time>2026-03-29T11:37:17Z</time></trkpt><trkpt lat="36.99518477148237" lon="14.717866308019406"><ele>782.0</ele><time>2026-03-29T11:37:18Z</time></trkpt><trkpt lat="36.995284422723024" lon="14.717944429798894"><ele>783.0</ele><time>2026-03-29T11:37:19Z</time></trkpt><trkpt lat="36.995429460405425" lon="14.718058132374813"><ele>784.0</ele><time>2026-03-29T11:37:20Z</time></trkpt><trkpt lat="36.99560085434221" lon="14.718185089380373"><ele>785.0</ele><time>2026-03-29T11:37:21Z</time></trkpt><trkpt lat="36.99578788725488" lon="14.71831557691259"><ele>785.3333333333334</ele><time>2026-03-29T11:37:22Z</time></trkpt><trkpt lat="36.9959869434233" lon="14.718442148708109"><ele>785.6666666666667</ele><time>2026-03-29T11:37:23Z</time></trkpt><trkpt lat="36.99618294627638" lon="14.718549468315874"><ele>786.0</ele><time>2026-03-29T11:37:24Z</time></trkpt><trkpt lat="36.99637013605019" lon="14.718638634505378"><ele>786.0</ele><time>2026-03-29T11:37:25Z</time></trkpt><trkpt lat="36.99653100375629" lon="14.718705339563327"><ele>786.0</ele><time>2026-03-29T11:37:26Z</time></trkpt><trkpt lat="36.9966949541707" lon="14.718766144247638"><ele>786.0</ele><time>2026-03-29T11:37:27Z</time></trkpt><trkpt lat="36.996855512088686" lon="14.718824691846164"><ele>787.3333333333333</ele><time>2026-03-29T11:37:28Z</time></trkpt><trkpt lat="36.99701990152905" lon="14.71888463661737"><ele>788.6666666666666</ele><time>2026-03-29T11:37:29Z</time></trkpt><trkpt lat="36.99719244094528" lon="14.718947136528968"><ele>790.0</ele><time>2026-03-29T11:37:30Z</time></trkpt><trkpt lat="36.99735776701827" lon="14.7190068546513"><ele>790.0</ele><time>2026-03-29T11:37:31Z</time></trkpt><trkpt lat="36.99750846646551" lon="14.719061289431151"><ele>790.0</ele><time>2026-03-29T11:37:32Z</time></trkpt><trkpt lat="36.997625765506626" lon="14.719103659511283"><ele>790.0</ele><time>2026-03-29T11:37:33Z</time></trkpt><trkpt lat="36.99770949788234" lon="14.719133904835719"><ele>790.0</ele><time>2026-03-29T11:37:34Z</time></trkpt><trkpt lat="36.99778698762489" lon="14.719161895228325"><ele>790.0</ele><time>2026-03-29T11:37:35Z</time></trkpt><trkpt lat="36.997853425028296" lon="14.719185893360274"><ele>790.0</ele><time>2026-03-29T11:37:36Z</time></trkpt><trkpt lat="36.997915870737" lon="14.719208449636993"><ele>790.0</ele><time>2026-03-29T11:37:37Z</time></trkpt><trkpt lat="36.99799941947757" lon="14.719238628626067"><ele>790.0</ele><time>2026-03-29T11:37:40Z</time></trkpt><trkpt lat="36.9980949959759" lon="14.71927315221463"><ele>790.0</ele><time>2026-03-29T11:37:42Z</time></trkpt><trkpt lat="36.99819308718625" lon="14.719308657635626"><ele>790.0</ele><time>2026-03-29T11:37:44Z</time></trkpt><trkpt lat="36.998293918828104" lon="14.719345454675215"><ele>790.4</ele><time>2026-03-29T11:37:46Z</time></trkpt><trkpt lat="36.99838244260831" lon="14.719377760135764"><ele>790.8</ele><time>2026-03-29T11:37:48Z</time></trkpt><trkpt lat="36.998446420468454" lon="14.719401107920786"><ele>791.2</ele><time>2026-03-29T11:37:49Z</time></trkpt><trkpt lat="36.998513419899446" lon="14.719425558386344"><ele>791.6</ele><time>2026-03-29T11:37:50Z</time></trkpt><trkpt lat="36.9986256790351" lon="14.719466525714608"><ele>792.0</ele><time>2026-03-29T11:37:51Z</time></trkpt><trkpt lat="36.99872557566045" lon="14.719502981529809"><ele>792.0</ele><time>2026-03-29T11:37:53Z</time></trkpt><trkpt lat="36.99882003339208" lon="14.719537452500726"><ele>792.0</ele><time>2026-03-29T11:37:55Z</time></trkpt><trkpt lat="36.99888635375996" lon="14.719561655150468"><ele>792.0</ele><time>2026-03-29T11:37:58Z</time></trkpt><trkpt lat="36.998937352023766" lon="14.719422094812346"><ele>792.0</ele><time>2026-03-29T11:38:19Z</time></trkpt><trkpt lat="36.998990065486886" lon="14.719467791722302"><ele>792.0</ele><time>2026-03-29T11:38:34Z</time></trkpt><trkpt lat="36.99905413523239" lon="14.71950343547434"><ele>792.0</ele><time>2026-03-29T11:38:47Z</time></trkpt><trkpt lat="36.99911903827399" lon="14.719518104773512"><ele>792.5</ele><time>2026-03-29T11:38:55Z</time></trkpt><trkpt lat="36.9991891645953" lon="14.719514148416872"><ele>793.0</ele><time>2026-03-29T11:38:58Z</time></trkpt><trkpt lat="36.999257935000884" lon="14.71952001780154"><ele>793.5</ele><time>2026-03-29T11:39:02Z</time></trkpt><trkpt lat="36.999328038886965" lon="14.719554725434543"><ele>794.0</ele><time>2026-03-29T11:39:05Z</time></trkpt><trkpt lat="36.999410748040766" lon="14.7195924659787"><ele>794.5</ele><time>2026-03-29T11:39:08Z</time></trkpt><trkpt lat="36.999487202115844" lon="14.719624697048461"><ele>795.0</ele><time>2026-03-29T11:39:11Z</time></trkpt><trkpt lat="36.999568512104844" lon="14.719644154760557"><ele>795.0</ele><time>2026-03-29T11:39:15Z</time></trkpt><trkpt lat="36.99963155303324" lon="14.719672619988518"><ele>795.0</ele><time>2026-03-29T11:39:18Z</time></trkpt><trkpt lat="36.999699390462574" lon="14.719695699259425"><ele>795.0</ele><time>2026-03-29T11:39:21Z</time></trkpt><trkpt lat="36.999782173943196" lon="14.719724756633562"><ele>795.0</ele><time>2026-03-29T11:39:24Z</time></trkpt><trkpt lat="36.99985802442664" lon="14.719755073658716"><ele>795.0</ele><time>2026-03-29T11:39:27Z</time></trkpt><trkpt lat="36.99996526705048" lon="14.719763649113192"><ele>795.0</ele><time>2026-03-29T11:39:30Z</time></trkpt><trkpt lat="37.000036902084005" lon="14.71979401611657"><ele>795.0</ele><time>2026-03-29T11:39:31Z</time></trkpt><trkpt lat="37.00017114081442" lon="14.719843076117016"><ele>795.0</ele><time>2026-03-29T11:39:33Z</time></trkpt><trkpt lat="37.00044290454062" lon="14.71998006555421"><ele>795.0</ele><time>2026-03-29T11:39:34Z</time></trkpt><trkpt lat="37.0005118426559" lon="14.720000538580424"><ele>795.0</ele><time>2026-03-29T11:39:35Z</time></trkpt><trkpt lat="37.00061842634845" lon="14.720036080352"><ele>795.0</ele><time>2026-03-29T11:39:37Z</time></trkpt><trkpt lat="37.000724777749525" lon="14.720071974959756"><ele>795.0</ele><time>2026-03-29T11:39:39Z</time></trkpt><trkpt lat="37.000853554007556" lon="14.720115545379265"><ele>795.0</ele><time>2026-03-29T11:39:41Z</time></trkpt><trkpt lat="37.00091599919485" lon="14.720136583977558"><ele>795.0</ele><time>2026-03-29T11:39:42Z</time></trkpt><trkpt lat="37.00100646655101" lon="14.720166921950739"><ele>795.1666666666666</ele><time>2026-03-29T11:39:44Z</time></trkpt><trkpt lat="37.00107765310207" lon="14.720209709406952"><ele>795.3333333333333</ele><time>2026-03-29T11:39:46Z</time></trkpt><trkpt lat="37.001149150448626" lon="14.720262591057608"><ele>795.5</ele><time>2026-03-29T11:39:48Z</time></trkpt><trkpt lat="37.00123470070699" lon="14.720285983923015"><ele>795.6666666666666</ele><time>2026-03-29T11:39:50Z</time></trkpt><trkpt lat="37.00131284911097" lon="14.720277749108785"><ele>795.8333333333333</ele><time>2026-03-29T11:39:53Z</time></trkpt><trkpt lat="37.00141666806118" lon="14.720313305689348"><ele>796.0</ele><time>2026-03-29T11:40:02Z</time></trkpt><trkpt lat="37.00148496035118" lon="14.72032634560324"><ele>796.0</ele><time>2026-03-29T11:40:05Z</time></trkpt><trkpt lat="37.001607812634376" lon="14.720389273004937"><ele>796.0</ele><time>2026-03-29T11:40:07Z</time></trkpt><trkpt lat="37.00171128539204" lon="14.720430833674707"><ele>796.0</ele><time>2026-03-29T11:40:09Z</time></trkpt><trkpt lat="37.00185128097277" lon="14.720458313344489"><ele>796.0</ele><time>2026-03-29T11:40:12Z</time></trkpt><trkpt lat="37.00192639741853" lon="14.720499962360275"><ele>796.5999999999999</ele><time>2026-03-29T11:40:13Z</time></trkpt><trkpt lat="37.00200120625626" lon="14.720538630269044"><ele>797.2</ele><time>2026-03-29T11:40:15Z</time></trkpt><trkpt lat="37.002073665196356" lon="14.720566753556733"><ele>797.8</ele><time>2026-03-29T11:40:17Z</time></trkpt><trkpt lat="37.00213433111221" lon="14.720629146589877"><ele>798.4000000000001</ele><time>2026-03-29T11:40:19Z</time></trkpt><trkpt lat="37.00217253045099" lon="14.720747425831375"><ele>799.0</ele><time>2026-03-29T11:40:22Z</time></trkpt><trkpt lat="37.00229723056022" lon="14.720797114687771"><ele>799.0</ele><time>2026-03-29T11:40:24Z</time></trkpt><trkpt lat="37.00236336851468" lon="14.720815551275255"><ele>799.0</ele><time>2026-03-29T11:40:25Z</time></trkpt><trkpt lat="37.002434685023076" lon="14.720857309194237"><ele>799.0</ele><time>2026-03-29T11:40:26Z</time></trkpt><trkpt lat="37.00257096350202" lon="14.720892948479136"><ele>799.0</ele><time>2026-03-29T11:40:27Z</time></trkpt><trkpt lat="37.002668015779975" lon="14.720922468136282"><ele>799.0</ele><time>2026-03-29T11:40:28Z</time></trkpt><trkpt lat="37.00277147703026" lon="14.72095687738111"><ele>799.2</ele><time>2026-03-29T11:40:29Z</time></trkpt><trkpt lat="37.00286949515957" lon="14.720999659393621"><ele>799.4000000000001</ele><time>2026-03-29T11:40:30Z</time></trkpt><trkpt lat="37.00296684934296" lon="14.721035450306058"><ele>799.6</ele><time>2026-03-29T11:40:31Z</time></trkpt><trkpt lat="37.003063508166086" lon="14.721072362476782"><ele>799.8</ele><time>2026-03-29T11:40:32Z</time></trkpt><trkpt lat="37.00315861779451" lon="14.72110918045369"><ele>800.0</ele><time>2026-03-29T11:40:33Z</time></trkpt><trkpt lat="37.00328298296496" lon="14.721143397012948"><ele>802.6666666666667</ele><time>2026-03-29T11:40:34Z</time></trkpt><trkpt lat="37.00342153161185" lon="14.721197477542391"><ele>805.3333333333333</ele><time>2026-03-29T11:40:35Z</time></trkpt><trkpt lat="37.00355347560615" lon="14.721247361171313"><ele>808.0</ele><time>2026-03-29T11:40:36Z</time></trkpt><trkpt lat="37.00372621970125" lon="14.72130164487772"><ele>808.0</ele><time>2026-03-29T11:40:37Z</time></trkpt><trkpt lat="37.003875796550574" lon="14.721348058676218"><ele>808.0</ele><time>2026-03-29T11:40:38Z</time></trkpt><trkpt lat="37.004021914427454" lon="14.721400604552912"><ele>808.0</ele><time>2026-03-29T11:40:39Z</time></trkpt><trkpt lat="37.00414879576239" lon="14.721456089256565"><ele>808.0</ele><time>2026-03-29T11:40:40Z</time></trkpt><trkpt lat="37.004271041515075" lon="14.721504693999563"><ele>807.5</ele><time>2026-03-29T11:40:41Z</time></trkpt><trkpt lat="37.00440413801801" lon="14.721562762976125"><ele>807.0</ele><time>2026-03-29T11:40:42Z</time></trkpt><trkpt lat="37.004550414702194" lon="14.721617447270646"><ele>806.5</ele><time>2026-03-29T11:40:43Z</time></trkpt><trkpt lat="37.004694843886845" lon="14.72167081154593"><ele>806.0</ele><time>2026-03-29T11:40:44Z</time></trkpt><trkpt lat="37.00484732862256" lon="14.721720847794794"><ele>805.6666666666667</ele><time>2026-03-29T11:40:45Z</time></trkpt><trkpt lat="37.00500639675166" lon="14.721779999490685"><ele>805.3333333333333</ele><time>2026-03-29T11:40:46Z</time></trkpt><trkpt lat="37.00516471884587" lon="14.721839771011913"><ele>805.0</ele><time>2026-03-29T11:40:47Z</time></trkpt><trkpt lat="37.005324627404946" lon="14.721891226739759"><ele>807.3333333333333</ele><time>2026-03-29T11:40:48Z</time></trkpt><trkpt lat="37.00548240493266" lon="14.721948102770076"><ele>809.6666666666667</ele><time>2026-03-29T11:40:49Z</time></trkpt><trkpt lat="37.00564826345599" lon="14.72201111392311"><ele>812.0</ele><time>2026-03-29T11:40:50Z</time></trkpt><trkpt lat="37.00580886350345" lon="14.722070805276044"><ele>812.3333333333334</ele><time>2026-03-29T11:40:51Z</time></trkpt><trkpt lat="37.00596851952981" lon="14.722127884932375"><ele>812.6666666666667</ele><time>2026-03-29T11:40:52Z</time></trkpt><trkpt lat="37.00613365863039" lon="14.722205781640712"><ele>813.0</ele><time>2026-03-29T11:40:53Z</time></trkpt><trkpt lat="37.006297112852714" lon="14.72226530644295"><ele>813.0</ele><time>2026-03-29T11:40:54Z</time></trkpt><trkpt lat="37.00646043114316" lon="14.722324781747467"><ele>813.0</ele><time>2026-03-29T11:40:55Z</time></trkpt><trkpt lat="37.006625156556176" lon="14.722384769528839"><ele>813.0</ele><time>2026-03-29T11:40:56Z</time></trkpt><trkpt lat="37.00680094983926" lon="14.722419090344577"><ele>812.0</ele><time>2026-03-29T11:40:57Z</time></trkpt><trkpt lat="37.00696739773132" lon="14.722484099204545"><ele>811.0</ele><time>2026-03-29T11:40:58Z</time></trkpt><trkpt lat="37.00713649894172" lon="14.722540731896041"><ele>810.0</ele><time>2026-03-29T11:40:59Z</time></trkpt><trkpt lat="37.00730636515072" lon="14.722596572980718"><ele>810.0</ele><time>2026-03-29T11:41:00Z</time></trkpt><trkpt lat="37.00746658294528" lon="14.72268294715659"><ele>810.0</ele><time>2026-03-29T11:41:01Z</time></trkpt><trkpt lat="37.00763434080787" lon="14.72274013721596"><ele>810.0</ele><time>2026-03-29T11:41:02Z</time></trkpt><trkpt lat="37.007809460170684" lon="14.722790490019605"><ele>810.6666666666667</ele><time>2026-03-29T11:41:03Z</time></trkpt><trkpt lat="37.00798357346153" lon="14.722810391791583"><ele>811.3333333333334</ele><time>2026-03-29T11:41:04Z</time></trkpt><trkpt lat="37.008156888826164" lon="14.722834630903344"><ele>812.0</ele><time>2026-03-29T11:41:05Z</time></trkpt><trkpt lat="37.00832995182142" lon="14.722836159449745"><ele>812.0</ele><time>2026-03-29T11:41:06Z</time></trkpt><trkpt lat="37.00850718582125" lon="14.722819244393209"><ele>812.0</ele><time>2026-03-29T11:41:07Z</time></trkpt><trkpt lat="37.00868406973724" lon="14.722782593085403"><ele>812.0</ele><time>2026-03-29T11:41:08Z</time></trkpt><trkpt lat="37.00884027227982" lon="14.722729876629147"><ele>811.3333333333334</ele><time>2026-03-29T11:41:09Z</time></trkpt><trkpt lat="37.008991124521245" lon="14.722663680071191"><ele>810.6666666666667</ele><time>2026-03-29T11:41:10Z</time></trkpt><trkpt lat="37.009143893233755" lon="14.722585362683295"><ele>810.0</ele><time>2026-03-29T11:41:11Z</time></trkpt><trkpt lat="37.00929044369203" lon="14.722494449228693"><ele>811.3333333333333</ele><time>2026-03-29T11:41:12Z</time></trkpt><trkpt lat="37.00942640901512" lon="14.722397237602475"><ele>812.6666666666666</ele><time>2026-03-29T11:41:13Z</time></trkpt><trkpt lat="37.00956080944968" lon="14.722290367524556"><ele>814.0</ele><time>2026-03-29T11:41:14Z</time></trkpt><trkpt lat="37.009687866224645" lon="14.722194803264175"><ele>814.0</ele><time>2026-03-29T11:41:15Z</time></trkpt><trkpt lat="37.009830157070496" lon="14.722091811162965"><ele>814.0</ele><time>2026-03-29T11:41:16Z</time></trkpt><trkpt lat="37.00998228256688" lon="14.7219830232091"><ele>814.0</ele><time>2026-03-29T11:41:17Z</time></trkpt><trkpt lat="37.01013188010202" lon="14.721877655589346"><ele>817.3333333333333</ele><time>2026-03-29T11:41:18Z</time></trkpt><trkpt lat="37.01027901848499" lon="14.721777226734769"><ele>820.6666666666667</ele><time>2026-03-29T11:41:19Z</time></trkpt><trkpt lat="37.01043032658179" lon="14.721682503274218"><ele>824.0</ele><time>2026-03-29T11:41:20Z</time></trkpt><trkpt lat="37.010584002491214" lon="14.72159038700058"><ele>824.0</ele><time>2026-03-29T11:41:21Z</time></trkpt><trkpt lat="37.010729523405345" lon="14.721511980163688"><ele>824.0</ele><time>2026-03-29T11:41:22Z</time></trkpt><trkpt lat="37.01087233736794" lon="14.721440103108995"><ele>824.0</ele><time>2026-03-29T11:41:23Z</time></trkpt><trkpt lat="37.011018114455275" lon="14.72137092863833"><ele>826.3333333333334</ele><time>2026-03-29T11:41:24Z</time></trkpt><trkpt lat="37.011165311310954" lon="14.721304019441323"><ele>828.6666666666667</ele><time>2026-03-29T11:41:25Z</time></trkpt><trkpt lat="37.01132696609868" lon="14.72121020618215"><ele>831.0</ele><time>2026-03-29T11:41:26Z</time></trkpt><trkpt lat="37.01148019320245" lon="14.721140518800716"><ele>831.0</ele><time>2026-03-29T11:41:27Z</time></trkpt><trkpt lat="37.01162405870539" lon="14.721065864397348"><ele>831.0</ele><time>2026-03-29T11:41:28Z</time></trkpt><trkpt lat="37.01177327801699" lon="14.72098302018436"><ele>831.0</ele><time>2026-03-29T11:41:29Z</time></trkpt><trkpt lat="37.01191653533137" lon="14.720880729487563"><ele>834.0</ele><time>2026-03-29T11:41:30Z</time></trkpt><trkpt lat="37.01205195119873" lon="14.720773834860815"><ele>837.0</ele><time>2026-03-29T11:41:31Z</time></trkpt><trkpt lat="37.01218087203175" lon="14.720648671645641"><ele>840.0</ele><time>2026-03-29T11:41:32Z</time></trkpt><trkpt lat="37.01231465067568" lon="14.720529816053249"><ele>840.0</ele><time>2026-03-29T11:41:33Z</time></trkpt><trkpt lat="37.012446106857645" lon="14.720391500064963"><ele>840.0</ele><time>2026-03-29T11:41:34Z</time></trkpt><trkpt lat="37.012570033272695" lon="14.720253302988263"><ele>840.0</ele><time>2026-03-29T11:41:35Z</time></trkpt><trkpt lat="37.01269172015488" lon="14.720129255064228"><ele>840.0</ele><time>2026-03-29T11:41:36Z</time></trkpt><trkpt lat="37.01281272374849" lon="14.7200017887484"><ele>840.0</ele><time>2026-03-29T11:41:37Z</time></trkpt><trkpt lat="37.01293024581946" lon="14.719886591364885"><ele>840.0</ele><time>2026-03-29T11:41:38Z</time></trkpt><trkpt lat="37.01304220966952" lon="14.719765533596696"><ele>840.0</ele><time>2026-03-29T11:41:39Z</time></trkpt><trkpt lat="37.01316514964757" lon="14.719643474175905"><ele>840.0</ele><time>2026-03-29T11:41:40Z</time></trkpt><trkpt lat="37.013289076667306" lon="14.719501342104412"><ele>840.0</ele><time>2026-03-29T11:41:41Z</time></trkpt><trkpt lat="37.01340828937767" lon="14.71936637571894"><ele>840.25</ele><time>2026-03-29T11:41:42Z</time></trkpt><trkpt lat="37.013518968129425" lon="14.719248099349766"><ele>840.5</ele><time>2026-03-29T11:41:43Z</time></trkpt><trkpt lat="37.013632821554104" lon="14.719121594904625"><ele>840.75</ele><time>2026-03-29T11:41:44Z</time></trkpt><trkpt lat="37.01374113126938" lon="14.718998187619652"><ele>841.0</ele><time>2026-03-29T11:41:45Z</time></trkpt><trkpt lat="37.01385882087736" lon="14.718875651349554"><ele>841.0</ele><time>2026-03-29T11:41:46Z</time></trkpt><trkpt lat="37.01397528364589" lon="14.718753345540174"><ele>841.0</ele><time>2026-03-29T11:41:47Z</time></trkpt><trkpt lat="37.01410674721578" lon="14.718623407660072"><ele>841.0</ele><time>2026-03-29T11:41:48Z</time></trkpt><trkpt lat="37.014250755208415" lon="14.718480910268985"><ele>840.0</ele><time>2026-03-29T11:41:49Z</time></trkpt><trkpt lat="37.01438905134395" lon="14.718353694451691"><ele>839.0</ele><time>2026-03-29T11:41:50Z</time></trkpt><trkpt lat="37.01451715542493" lon="14.718246252503237"><ele>838.0</ele><time>2026-03-29T11:41:51Z</time></trkpt><trkpt lat="37.01463546210384" lon="14.718152697291437"><ele>838.0</ele><time>2026-03-29T11:41:52Z</time></trkpt><trkpt lat="37.01475398285354" lon="14.718068566664652"><ele>838.0</ele><time>2026-03-29T11:41:53Z</time></trkpt><trkpt lat="37.01486901966533" lon="14.71798431115459"><ele>838.0</ele><time>2026-03-29T11:41:54Z</time></trkpt><trkpt lat="37.01497779948308" lon="14.717904678260116"><ele>838.0</ele><time>2026-03-29T11:41:55Z</time></trkpt><trkpt lat="37.01508743922728" lon="14.717825902446645"><ele>837.5</ele><time>2026-03-29T11:41:56Z</time></trkpt><trkpt lat="37.01519158762891" lon="14.717762456450552"><ele>837.0</ele><time>2026-03-29T11:41:57Z</time></trkpt><trkpt lat="37.01530121444873" lon="14.717713593326362"><ele>836.5</ele><time>2026-03-29T11:41:58Z</time></trkpt><trkpt lat="37.015414480050126" lon="14.717668660661161"><ele>836.0</ele><time>2026-03-29T11:41:59Z</time></trkpt><trkpt lat="37.01554058656647" lon="14.717642260895591"><ele>836.0</ele><time>2026-03-29T11:42:00Z</time></trkpt><trkpt lat="37.01567031579712" lon="14.717636878563237"><ele>836.0</ele><time>2026-03-29T11:42:01Z</time></trkpt><trkpt lat="37.015815674611" lon="14.7176338449826"><ele>836.0</ele><time>2026-03-29T11:42:02Z</time></trkpt><trkpt lat="37.01597343960344" lon="14.717620560351527"><ele>836.0</ele><time>2026-03-29T11:42:03Z</time></trkpt><trkpt lat="37.016142148915385" lon="14.717635373080544"><ele>835.6666666666667</ele><time>2026-03-29T11:42:04Z</time></trkpt><trkpt lat="37.01631471239779" lon="14.717664016590398"><ele>835.3333333333333</ele><time>2026-03-29T11:42:05Z</time></trkpt><trkpt lat="37.01647829624353" lon="14.71770527170576"><ele>835.0</ele><time>2026-03-29T11:42:06Z</time></trkpt><trkpt lat="37.01662906517642" lon="14.717818909180632"><ele>836.75</ele><time>2026-03-29T11:42:07Z</time></trkpt><trkpt lat="37.01678002910661" lon="14.717884510247407"><ele>838.5</ele><time>2026-03-29T11:42:08Z</time></trkpt><trkpt lat="37.01690996226622" lon="14.7179450852312"><ele>840.25</ele><time>2026-03-29T11:42:09Z</time></trkpt><trkpt lat="37.01702993286551" lon="14.71800268481337"><ele>842.0</ele><time>2026-03-29T11:42:10Z</time></trkpt><trkpt lat="37.01715094876467" lon="14.718060786255698"><ele>842.0</ele><time>2026-03-29T11:42:11Z</time></trkpt><trkpt lat="37.017282577648764" lon="14.718123983146159"><ele>842.0</ele><time>2026-03-29T11:42:12Z</time></trkpt><trkpt lat="37.01742533302451" lon="14.718192522015183"><ele>842.0</ele><time>2026-03-29T11:42:13Z</time></trkpt><trkpt lat="37.017566645091726" lon="14.718260367934347"><ele>842.0</ele><time>2026-03-29T11:42:14Z</time></trkpt><trkpt lat="37.017714448123904" lon="14.718331330257302"><ele>840.6666666666667</ele><time>2026-03-29T11:42:15Z</time></trkpt><trkpt lat="37.01785724788515" lon="14.718399890445392"><ele>839.3333333333333</ele><time>2026-03-29T11:42:16Z</time></trkpt><trkpt lat="37.01801831617875" lon="14.718477283249069"><ele>838.0</ele><time>2026-03-29T11:42:17Z</time></trkpt><trkpt lat="37.01816277484882" lon="14.718547178713203"><ele>838.0</ele><time>2026-03-29T11:42:18Z</time></trkpt><trkpt lat="37.01830997561236" lon="14.718618400934993"><ele>838.0</ele><time>2026-03-29T11:42:19Z</time></trkpt><trkpt lat="37.01846158001583" lon="14.718691753826429"><ele>838.0</ele><time>2026-03-29T11:42:20Z</time></trkpt><trkpt lat="37.018604547793856" lon="14.71875971031715"><ele>838.0</ele><time>2026-03-29T11:42:21Z</time></trkpt><trkpt lat="37.01874651649522" lon="14.718826995834247"><ele>838.0</ele><time>2026-03-29T11:42:22Z</time></trkpt><trkpt lat="37.01888161098726" lon="14.718891759426196"><ele>838.0</ele><time>2026-03-29T11:42:23Z</time></trkpt><trkpt lat="37.0190265507934" lon="14.71896104789421"><ele>836.0</ele><time>2026-03-29T11:42:24Z</time></trkpt><trkpt lat="37.019173901426" lon="14.719032661142673"><ele>834.0</ele><time>2026-03-29T11:42:25Z</time></trkpt><trkpt lat="37.019312626463936" lon="14.719105465280617"><ele>832.0</ele><time>2026-03-29T11:42:26Z</time></trkpt><trkpt lat="37.01945186917551" lon="14.719192074117194"><ele>832.0</ele><time>2026-03-29T11:42:27Z</time></trkpt><trkpt lat="37.01958665182265" lon="14.719298354146048"><ele>832.0</ele><time>2026-03-29T11:42:28Z</time></trkpt><trkpt lat="37.01970717267525" lon="14.71942526475982"><ele>832.0</ele><time>2026-03-29T11:42:29Z</time></trkpt><trkpt lat="37.019837257824776" lon="14.719572738492364"><ele>831.6666666666666</ele><time>2026-03-29T11:42:30Z</time></trkpt><trkpt lat="37.01996450468474" lon="14.719728459845895"><ele>831.3333333333333</ele><time>2026-03-29T11:42:31Z</time></trkpt><trkpt lat="37.02009263203666" lon="14.719883049099348"><ele>831.0</ele><time>2026-03-29T11:42:32Z</time></trkpt><trkpt lat="37.02022410485066" lon="14.720040482161988"><ele>831.0</ele><time>2026-03-29T11:42:33Z</time></trkpt><trkpt lat="37.02035531440745" lon="14.720197771767017"><ele>831.0</ele><time>2026-03-29T11:42:34Z</time></trkpt><trkpt lat="37.020496139394574" lon="14.720367353676915"><ele>831.0</ele><time>2026-03-29T11:42:35Z</time></trkpt><trkpt lat="37.020632206191564" lon="14.720531205220402"><ele>831.3333333333333</ele><time>2026-03-29T11:42:36Z</time></trkpt><trkpt lat="37.020764891976974" lon="14.72069009879835"><ele>831.6666666666666</ele><time>2026-03-29T11:42:37Z</time></trkpt><trkpt lat="37.02088836895286" lon="14.720837716931394"><ele>832.0</ele><time>2026-03-29T11:42:38Z</time></trkpt><trkpt lat="37.02101085251793" lon="14.720984645797547"><ele>829.3333333333333</ele><time>2026-03-29T11:42:39Z</time></trkpt><trkpt lat="37.02112968197266" lon="14.721128163980495"><ele>826.6666666666667</ele><time>2026-03-29T11:42:40Z</time></trkpt><trkpt lat="37.02124455206484" lon="14.721266899822204"><ele>824.0</ele><time>2026-03-29T11:42:41Z</time></trkpt><trkpt lat="37.02135312264997" lon="14.721398027379713"><ele>824.0</ele><time>2026-03-29T11:42:42Z</time></trkpt><trkpt lat="37.021471701809176" lon="14.721541242939345"><ele>824.0</ele><time>2026-03-29T11:42:43Z</time></trkpt><trkpt lat="37.02159804155075" lon="14.721693820207216"><ele>824.0</ele><time>2026-03-29T11:42:44Z</time></trkpt><trkpt lat="37.02171189064162" lon="14.721833394597152"><ele>822.0</ele><time>2026-03-29T11:42:45Z</time></trkpt><trkpt lat="37.02182433710768" lon="14.721971249429139"><ele>820.0</ele><time>2026-03-29T11:42:46Z</time></trkpt><trkpt lat="37.02194969767379" lon="14.722119509204202"><ele>818.0</ele><time>2026-03-29T11:42:47Z</time></trkpt><trkpt lat="37.02207306949616" lon="14.722267292191255"><ele>818.0</ele><time>2026-03-29T11:42:48Z</time></trkpt><trkpt lat="37.02217927300036" lon="14.722415094983347"><ele>818.0</ele><time>2026-03-29T11:42:49Z</time></trkpt><trkpt lat="37.0222728554451" lon="14.722579744815647"><ele>818.0</ele><time>2026-03-29T11:42:50Z</time></trkpt><trkpt lat="37.022344367999736" lon="14.722773228132318"><ele>819.0</ele><time>2026-03-29T11:42:51Z</time></trkpt><trkpt lat="37.02239780193852" lon="14.72296884906023"><ele>820.0</ele><time>2026-03-29T11:42:52Z</time></trkpt><trkpt lat="37.02245049316003" lon="14.723185129143879"><ele>821.0</ele><time>2026-03-29T11:42:53Z</time></trkpt><trkpt lat="37.02250469793025" lon="14.723401147564864"><ele>817.6666666666667</ele><time>2026-03-29T11:42:54Z</time></trkpt><trkpt lat="37.02255752492751" lon="14.723611347036078"><ele>814.3333333333333</ele><time>2026-03-29T11:42:55Z</time></trkpt><trkpt lat="37.022608005985774" lon="14.723813562360787"><ele>811.0</ele><time>2026-03-29T11:42:56Z</time></trkpt><trkpt lat="37.02265493574069" lon="14.72400410848363"><ele>811.0</ele><time>2026-03-29T11:42:57Z</time></trkpt><trkpt lat="37.02270174797961" lon="14.724194177460081"><ele>811.0</ele><time>2026-03-29T11:42:58Z</time></trkpt><trkpt lat="37.02274871141365" lon="14.724384418610343"><ele>811.0</ele><time>2026-03-29T11:42:59Z</time></trkpt><trkpt lat="37.02279711992334" lon="14.724580097530694"><ele>810.3333333333333</ele><time>2026-03-29T11:43:00Z</time></trkpt><trkpt lat="37.02284676234509" lon="14.72478076422468"><ele>809.6666666666667</ele><time>2026-03-29T11:43:01Z</time></trkpt><trkpt lat="37.02289728911445" lon="14.724982416672006"><ele>809.0</ele><time>2026-03-29T11:43:02Z</time></trkpt><trkpt lat="37.0229408899391" lon="14.725159169968027"><ele>807.3333333333334</ele><time>2026-03-29T11:43:03Z</time></trkpt><trkpt lat="37.022988556040026" lon="14.725352403439091"><ele>805.6666666666667</ele><time>2026-03-29T11:43:04Z</time></trkpt><trkpt lat="37.02303777629697" lon="14.725545374825694"><ele>804.0</ele><time>2026-03-29T11:43:05Z</time></trkpt><trkpt lat="37.023086876576826" lon="14.725737621951367"><ele>804.0</ele><time>2026-03-29T11:43:06Z</time></trkpt><trkpt lat="37.02313711865741" lon="14.725934070228252"><ele>804.0</ele><time>2026-03-29T11:43:07Z</time></trkpt><trkpt lat="37.02318980107559" lon="14.726138687506793"><ele>804.0</ele><time>2026-03-29T11:43:08Z</time></trkpt><trkpt lat="37.02323797974605" lon="14.72633347880115"><ele>803.0</ele><time>2026-03-29T11:43:09Z</time></trkpt><trkpt lat="37.02327332337334" lon="14.72651840733524"><ele>802.0</ele><time>2026-03-29T11:43:10Z</time></trkpt><trkpt lat="37.023289820184516" lon="14.726697268334433"><ele>801.0</ele><time>2026-03-29T11:43:11Z</time></trkpt><trkpt lat="37.02327583877695" lon="14.726872144379305"><ele>800.0</ele><time>2026-03-29T11:43:12Z</time></trkpt><trkpt lat="37.02322875824423" lon="14.727036031263566"><ele>799.3333333333334</ele><time>2026-03-29T11:43:13Z</time></trkpt><trkpt lat="37.02314495966292" lon="14.727197091282232"><ele>798.6666666666667</ele><time>2026-03-29T11:43:14Z</time></trkpt><trkpt lat="37.02300510003105" lon="14.727338553613112"><ele>798.0</ele><time>2026-03-29T11:43:15Z</time></trkpt><trkpt lat="37.02284794458453" lon="14.727462654358662"><ele>798.0</ele><time>2026-03-29T11:43:16Z</time></trkpt><trkpt lat="37.02270224419192" lon="14.727547933106445"><ele>798.0</ele><time>2026-03-29T11:43:17Z</time></trkpt><trkpt lat="37.02256871125703" lon="14.727631740328054"><ele>798.0</ele><time>2026-03-29T11:43:18Z</time></trkpt><trkpt lat="37.02245605010953" lon="14.727748692338515"><ele>794.6666666666667</ele><time>2026-03-29T11:43:19Z</time></trkpt><trkpt lat="37.02236778087521" lon="14.727900614481522"><ele>791.3333333333334</ele><time>2026-03-29T11:43:20Z</time></trkpt><trkpt lat="37.02231468187324" lon="14.72808866834544"><ele>788.0</ele><time>2026-03-29T11:43:21Z</time></trkpt><trkpt lat="37.022264126908475" lon="14.728266500283075"><ele>788.0</ele><time>2026-03-29T11:43:22Z</time></trkpt><trkpt lat="37.02223790233044" lon="14.728427737616219"><ele>788.0</ele><time>2026-03-29T11:43:23Z</time></trkpt><trkpt lat="37.022208753915706" lon="14.728575068244485"><ele>788.0</ele><time>2026-03-29T11:43:24Z</time></trkpt><trkpt lat="37.02216341654453" lon="14.72870945478383"><ele>788.0</ele><time>2026-03-29T11:43:25Z</time></trkpt><trkpt lat="37.022083190052605" lon="14.728829951450955"><ele>789.5</ele><time>2026-03-29T11:43:26Z</time></trkpt><trkpt lat="37.0219951147958" lon="14.728934022492306"><ele>791.0</ele><time>2026-03-29T11:43:27Z</time></trkpt><trkpt lat="37.02190076095436" lon="14.729025232589615"><ele>792.5</ele><time>2026-03-29T11:43:28Z</time></trkpt><trkpt lat="37.02180651391649" lon="14.729126299409783"><ele>794.0</ele><time>2026-03-29T11:43:29Z</time></trkpt><trkpt lat="37.021691571556836" lon="14.729216989053624"><ele>791.0</ele><time>2026-03-29T11:43:30Z</time></trkpt><trkpt lat="37.02157706773124" lon="14.729281639178035"><ele>788.0</ele><time>2026-03-29T11:43:31Z</time></trkpt><trkpt lat="37.021462516090736" lon="14.729331644073548"><ele>785.0</ele><time>2026-03-29T11:43:32Z</time></trkpt><trkpt lat="37.02135338428597" lon="14.729368087674949"><ele>782.0</ele><time>2026-03-29T11:43:33Z</time></trkpt><trkpt lat="37.021273847664865" lon="14.72945343259304"><ele>782.0</ele><time>2026-03-29T11:43:34Z</time></trkpt><trkpt lat="37.021208274693315" lon="14.729580455686976"><ele>782.0</ele><time>2026-03-29T11:43:35Z</time></trkpt><trkpt lat="37.02115104709789" lon="14.729747572612428"><ele>782.0</ele><time>2026-03-29T11:43:36Z</time></trkpt><trkpt lat="37.02110368994457" lon="14.729914169210478"><ele>782.0</ele><time>2026-03-29T11:43:37Z</time></trkpt><trkpt lat="37.021056263637426" lon="14.7300670897899"><ele>782.0</ele><time>2026-03-29T11:43:38Z</time></trkpt><trkpt lat="37.02100015054137" lon="14.730201238098015"><ele>782.0</ele><time>2026-03-29T11:43:39Z</time></trkpt><trkpt lat="37.020930687218275" lon="14.730339432849679"><ele>782.0</ele><time>2026-03-29T11:43:40Z</time></trkpt><trkpt lat="37.020847299233104" lon="14.730467430086971"><ele>782.0</ele><time>2026-03-29T11:43:41Z</time></trkpt><trkpt lat="37.020779502020204" lon="14.73060097837218"><ele>778.5</ele><time>2026-03-29T11:43:42Z</time></trkpt><trkpt lat="37.02071332571344" lon="14.730710106714573"><ele>775.0</ele><time>2026-03-29T11:43:43Z</time></trkpt><trkpt lat="37.02066891043696" lon="14.730849672109171"><ele>771.5</ele><time>2026-03-29T11:43:44Z</time></trkpt><trkpt lat="37.020622346213166" lon="14.731023287632494"><ele>768.0</ele><time>2026-03-29T11:43:45Z</time></trkpt><trkpt lat="37.02057656730938" lon="14.73124694493521"><ele>768.0</ele><time>2026-03-29T11:43:46Z</time></trkpt><trkpt lat="37.02052717521838" lon="14.731488254811202"><ele>768.0</ele><time>2026-03-29T11:43:47Z</time></trkpt><trkpt lat="37.02048594943274" lon="14.731725359548308"><ele>768.0</ele><time>2026-03-29T11:43:48Z</time></trkpt><trkpt lat="37.020529152619716" lon="14.731979139425789"><ele>770.0</ele><time>2026-03-29T11:43:49Z</time></trkpt><trkpt lat="37.02039372620682" lon="14.73217141217233"><ele>772.0</ele><time>2026-03-29T11:43:50Z</time></trkpt><trkpt lat="37.020267537197356" lon="14.732372575505119"><ele>774.0</ele><time>2026-03-29T11:43:51Z</time></trkpt><trkpt lat="37.020161996594304" lon="14.732589330734923"><ele>775.3333333333333</ele><time>2026-03-29T11:43:52Z</time></trkpt><trkpt lat="37.02008247764557" lon="14.732829204857842"><ele>776.6666666666666</ele><time>2026-03-29T11:43:53Z</time></trkpt><trkpt lat="37.020031783682406" lon="14.733078988265994"><ele>778.0</ele><time>2026-03-29T11:43:54Z</time></trkpt><trkpt lat="37.01999112371218" lon="14.73330739952124"><ele>769.0</ele><time>2026-03-29T11:43:55Z</time></trkpt><trkpt lat="37.01994500624601" lon="14.733529854025207"><ele>760.0</ele><time>2026-03-29T11:43:56Z</time></trkpt><trkpt lat="37.01989569799501" lon="14.7337459810702"><ele>751.0</ele><time>2026-03-29T11:43:57Z</time></trkpt><trkpt lat="37.01985415871569" lon="14.733957121089363"><ele>750.3333333333334</ele><time>2026-03-29T11:43:57.999Z</time></trkpt><trkpt lat="37.01981761540023" lon="14.734152010240358"><ele>749.6666666666666</ele><time>2026-03-29T11:43:58.999Z</time></trkpt><trkpt lat="37.019787525695186" lon="14.73435855993661"><ele>749.0</ele><time>2026-03-29T11:43:59.999Z</time></trkpt><trkpt lat="37.01976212683961" lon="14.734560505341502"><ele>748.6666666666666</ele><time>2026-03-29T11:44:00.999Z</time></trkpt><trkpt lat="37.019738867866806" lon="14.734762852222321"><ele>748.3333333333334</ele><time>2026-03-29T11:44:01.999Z</time></trkpt><trkpt lat="37.01971656755045" lon="14.734959900455195"><ele>748.0</ele><time>2026-03-29T11:44:02.999Z</time></trkpt><trkpt lat="37.019698603359494" lon="14.735147730626355"><ele>747.0</ele><time>2026-03-29T11:44:03.999Z</time></trkpt><trkpt lat="37.01969352518556" lon="14.735345539908678"><ele>746.0</ele><time>2026-03-29T11:44:04.999Z</time></trkpt><trkpt lat="37.019729145931635" lon="14.735513120327694"><ele>745.0</ele><time>2026-03-29T11:44:05.999Z</time></trkpt><trkpt lat="37.019815968981014" lon="14.735633431269274"><ele>744.0</ele><time>2026-03-29T11:44:06.999Z</time></trkpt><trkpt lat="37.01992884801473" lon="14.735759469599547"><ele>750.6666666666666</ele><time>2026-03-29T11:44:07.999Z</time></trkpt><trkpt lat="37.020067905091736" lon="14.735852990295546"><ele>757.3333333333333</ele><time>2026-03-29T11:44:08.999Z</time></trkpt><trkpt lat="37.02021258966815" lon="14.735919203990795"><ele>764.0</ele><time>2026-03-29T11:44:09.999Z</time></trkpt><trkpt lat="37.02035977625017" lon="14.735934901321707"><ele>764.0</ele><time>2026-03-29T11:44:10.999Z</time></trkpt><trkpt lat="37.02049892052157" lon="14.73599004794033"><ele>764.0</ele><time>2026-03-29T11:44:11.999Z</time></trkpt><trkpt lat="37.02062128505081" lon="14.736089606624569"><ele>764.0</ele><time>2026-03-29T11:44:12.999Z</time></trkpt><trkpt lat="37.02073008916073" lon="14.73622264740016"><ele>764.0</ele><time>2026-03-29T11:44:13.999Z</time></trkpt><trkpt lat="37.0207997377373" lon="14.736380363112604"><ele>764.0</ele><time>2026-03-29T11:44:15Z</time></trkpt><trkpt lat="37.02084114658563" lon="14.736555148232048"><ele>764.0</ele><time>2026-03-29T11:44:16Z</time></trkpt><trkpt lat="37.02088289175986" lon="14.736730075417483"><ele>764.0</ele><time>2026-03-29T11:44:17Z</time></trkpt><trkpt lat="37.02091112019991" lon="14.736927963070716"><ele>763.0</ele><time>2026-03-29T11:44:18Z</time></trkpt><trkpt lat="37.02097296174422" lon="14.737148410542872"><ele>762.0</ele><time>2026-03-29T11:44:19Z</time></trkpt><trkpt lat="37.02102049156037" lon="14.737353493469541"><ele>761.0</ele><time>2026-03-29T11:44:20Z</time></trkpt><trkpt lat="37.02106442668247" lon="14.737535263934292"><ele>761.0</ele><time>2026-03-29T11:44:21Z</time></trkpt><trkpt lat="37.021117990879304" lon="14.737715697038245"><ele>761.0</ele><time>2026-03-29T11:44:22Z</time></trkpt><trkpt lat="37.021159281927446" lon="14.737877885159085"><ele>761.0</ele><time>2026-03-29T11:44:23Z</time></trkpt><trkpt lat="37.02119046505314" lon="14.73803486510462"><ele>761.0</ele><time>2026-03-29T11:44:24Z</time></trkpt><trkpt lat="37.02122776075045" lon="14.738191402912737"><ele>760.25</ele><time>2026-03-29T11:44:25Z</time></trkpt><trkpt lat="37.021257028832885" lon="14.738336265810474"><ele>759.5</ele><time>2026-03-29T11:44:26Z</time></trkpt><trkpt lat="37.021291890136915" lon="14.738487888068594"><ele>758.75</ele><time>2026-03-29T11:44:27Z</time></trkpt><trkpt lat="37.02132788314726" lon="14.738639985312023"><ele>758.0</ele><time>2026-03-29T11:44:28Z</time></trkpt><trkpt lat="37.0213643900675" lon="14.73879537524704"><ele>757.0</ele><time>2026-03-29T11:44:29Z</time></trkpt><trkpt lat="37.02140429371725" lon="14.738962123697357"><ele>756.0</ele><time>2026-03-29T11:44:30Z</time></trkpt><trkpt lat="37.02144545707185" lon="14.73913186801504"><ele>755.0</ele><time>2026-03-29T11:44:31Z</time></trkpt><trkpt lat="37.021492910203484" lon="14.739301999451303"><ele>754.0</ele><time>2026-03-29T11:44:32Z</time></trkpt><trkpt lat="37.02150500023485" lon="14.739488283426248"><ele>752.6666666666667</ele><time>2026-03-29T11:44:33Z</time></trkpt><trkpt lat="37.021550747460616" lon="14.739672545561882"><ele>751.3333333333334</ele><time>2026-03-29T11:44:34Z</time></trkpt><trkpt lat="37.0215984441311" lon="14.739853670384479"><ele>750.0</ele><time>2026-03-29T11:44:35Z</time></trkpt><trkpt lat="37.02164633168672" lon="14.740046023717008"><ele>754.3333333333334</ele><time>2026-03-29T11:44:36Z</time></trkpt><trkpt lat="37.02170617571072" lon="14.740236479867598"><ele>758.6666666666667</ele><time>2026-03-29T11:44:37Z</time></trkpt><trkpt lat="37.021734792486406" lon="14.740414812348446"><ele>763.0</ele><time>2026-03-29T11:44:38Z</time></trkpt><trkpt lat="37.02196097812878" lon="14.740497250865076"><ele>763.0</ele><time>2026-03-29T11:44:39Z</time></trkpt><trkpt lat="37.02211124303059" lon="14.74057335614908"><ele>763.0</ele><time>2026-03-29T11:44:40Z</time></trkpt><trkpt lat="37.02223529849111" lon="14.740652842440692"><ele>763.0</ele><time>2026-03-29T11:44:41Z</time></trkpt><trkpt lat="37.02241482914535" lon="14.740759005838436"><ele>764.6666666666667</ele><time>2026-03-29T11:44:42Z</time></trkpt><trkpt lat="37.022547361698386" lon="14.740863387379925"><ele>766.3333333333334</ele><time>2026-03-29T11:44:43Z</time></trkpt><trkpt lat="37.02263614057875" lon="14.741005474667011"><ele>768.0</ele><time>2026-03-29T11:44:44Z</time></trkpt><trkpt lat="37.02271284843536" lon="14.741189280162692"><ele>770.0</ele><time>2026-03-29T11:44:45Z</time></trkpt><trkpt lat="37.022794638731604" lon="14.741396227553548"><ele>772.0</ele><time>2026-03-29T11:44:46Z</time></trkpt><trkpt lat="37.02287537856701" lon="14.741601617834824"><ele>774.0</ele><time>2026-03-29T11:44:47Z</time></trkpt><trkpt lat="37.02296193354655" lon="14.741822021530169"><ele>775.6666666666667</ele><time>2026-03-29T11:44:48Z</time></trkpt><trkpt lat="37.02306014021297" lon="14.74205262367024"><ele>777.3333333333334</ele><time>2026-03-29T11:44:49Z</time></trkpt><trkpt lat="37.02317844335262" lon="14.742231002886893"><ele>779.0</ele><time>2026-03-29T11:44:50Z</time></trkpt><trkpt lat="37.0233212586548" lon="14.742329687117374"><ele>779.0</ele><time>2026-03-29T11:44:51Z</time></trkpt><trkpt lat="37.023456857250956" lon="14.742427032027981"><ele>779.0</ele><time>2026-03-29T11:44:52Z</time></trkpt><trkpt lat="37.02359222914727" lon="14.742488361772223"><ele>779.0</ele><time>2026-03-29T11:44:53Z</time></trkpt><trkpt lat="37.023782631187764" lon="14.742485777602557"><ele>779.0</ele><time>2026-03-29T11:44:54Z</time></trkpt><trkpt lat="37.02394670379863" lon="14.742442638591495"><ele>779.0</ele><time>2026-03-29T11:44:55Z</time></trkpt><trkpt lat="37.02410077058383" lon="14.742441983679647"><ele>779.0</ele><time>2026-03-29T11:44:56Z</time></trkpt><trkpt lat="37.02421904913495" lon="14.742515799913463"><ele>779.0</ele><time>2026-03-29T11:44:57Z</time></trkpt><trkpt lat="37.024350211248056" lon="14.742603485710543"><ele>779.0</ele><time>2026-03-29T11:44:58Z</time></trkpt><trkpt lat="37.024498832256754" lon="14.742714742621091"><ele>779.0</ele><time>2026-03-29T11:44:59Z</time></trkpt><trkpt lat="37.02465783264501" lon="14.742792602683114"><ele>782.3333333333334</ele><time>2026-03-29T11:45:00Z</time></trkpt><trkpt lat="37.02483065729916" lon="14.74285558744169"><ele>785.6666666666667</ele><time>2026-03-29T11:45:01Z</time></trkpt><trkpt lat="37.024990256151085" lon="14.742923602235173"><ele>789.0</ele><time>2026-03-29T11:45:02Z</time></trkpt><trkpt lat="37.02513570301465" lon="14.743032266851994"><ele>789.0</ele><time>2026-03-29T11:45:03Z</time></trkpt><trkpt lat="37.025301740849805" lon="14.743160214726363"><ele>789.0</ele><time>2026-03-29T11:45:04Z</time></trkpt><trkpt lat="37.025455610800186" lon="14.743284956047368"><ele>789.0</ele><time>2026-03-29T11:45:05Z</time></trkpt><trkpt lat="37.025612460133345" lon="14.743412503945494"><ele>789.0</ele><time>2026-03-29T11:45:06Z</time></trkpt><trkpt lat="37.02574060830934" lon="14.743518954813085"><ele>789.0</ele><time>2026-03-29T11:45:07Z</time></trkpt><trkpt lat="37.0258741110051" lon="14.74362985368799"><ele>789.0</ele><time>2026-03-29T11:45:08Z</time></trkpt><trkpt lat="37.025993620135424" lon="14.743729589957661"><ele>791.0</ele><time>2026-03-29T11:45:09Z</time></trkpt><trkpt lat="37.026115908245664" lon="14.743831960650041"><ele>793.0</ele><time>2026-03-29T11:45:10Z</time></trkpt><trkpt lat="37.026232982511836" lon="14.743931129221147"><ele>795.0</ele><time>2026-03-29T11:45:11Z</time></trkpt><trkpt lat="37.026345883811345" lon="14.744029746625678"><ele>797.0</ele><time>2026-03-29T11:45:12Z</time></trkpt><trkpt lat="37.026462067632124" lon="14.744137986570884"><ele>797.0</ele><time>2026-03-29T11:45:13Z</time></trkpt><trkpt lat="37.0265823471252" lon="14.7442531890826"><ele>797.0</ele><time>2026-03-29T11:45:14Z</time></trkpt><trkpt lat="37.026706538569684" lon="14.744368830728721"><ele>797.0</ele><time>2026-03-29T11:45:15Z</time></trkpt><trkpt lat="37.02683785879319" lon="14.744483820765339"><ele>799.0</ele><time>2026-03-29T11:45:16Z</time></trkpt><trkpt lat="37.026968099834946" lon="14.744581487829233"><ele>801.0</ele><time>2026-03-29T11:45:17Z</time></trkpt><trkpt lat="37.02709634965151" lon="14.744670650812402"><ele>803.0</ele><time>2026-03-29T11:45:18Z</time></trkpt><trkpt lat="37.0272226919147" lon="14.744757366666597"><ele>805.0</ele><time>2026-03-29T11:45:19Z</time></trkpt><trkpt lat="37.027325540879154" lon="14.744827973670295"><ele>805.0</ele><time>2026-03-29T11:45:20Z</time></trkpt><trkpt lat="37.02741286663771" lon="14.744892402638458"><ele>805.0</ele><time>2026-03-29T11:45:21Z</time></trkpt><trkpt lat="37.027486995448186" lon="14.744956877768116"><ele>805.0</ele><time>2026-03-29T11:45:22Z</time></trkpt><trkpt lat="37.02756197190798" lon="14.745033355466022"><ele>805.0</ele><time>2026-03-29T11:45:23Z</time></trkpt><trkpt lat="37.027640187824964" lon="14.745122658378643"><ele>805.0</ele><time>2026-03-29T11:45:24Z</time></trkpt><trkpt lat="37.027714954479336" lon="14.745220330165937"><ele>805.0</ele><time>2026-03-29T11:45:25Z</time></trkpt><trkpt lat="37.02780156013723" lon="14.74533476438037"><ele>805.0</ele><time>2026-03-29T11:45:26Z</time></trkpt><trkpt lat="37.02788812973007" lon="14.74544915101352"><ele>805.0</ele><time>2026-03-29T11:45:27Z</time></trkpt><trkpt lat="37.02797603169088" lon="14.745565516509192"><ele>805.0</ele><time>2026-03-29T11:45:28Z</time></trkpt><trkpt lat="37.02806677526764" lon="14.745687097799399"><ele>805.0</ele><time>2026-03-29T11:45:29Z</time></trkpt><trkpt lat="37.0281541585069" lon="14.745803007839132"><ele>805.0</ele><time>2026-03-29T11:45:30Z</time></trkpt><trkpt lat="37.02824686794539" lon="14.745921970442957"><ele>805.0</ele><time>2026-03-29T11:45:31Z</time></trkpt><trkpt lat="37.02834611602439" lon="14.74604598210246"><ele>805.0</ele><time>2026-03-29T11:45:32Z</time></trkpt><trkpt lat="37.02844686050779" lon="14.746168428831412"><ele>804.0</ele><time>2026-03-29T11:45:33Z</time></trkpt><trkpt lat="37.028547845524685" lon="14.746289137391964"><ele>803.0</ele><time>2026-03-29T11:45:34Z</time></trkpt><trkpt lat="37.02864820813993" lon="14.746409101717385"><ele>802.0</ele><time>2026-03-29T11:45:35Z</time></trkpt><trkpt lat="37.028746877812324" lon="14.746527042458801"><ele>801.0</ele><time>2026-03-29T11:45:36Z</time></trkpt><trkpt lat="37.02884319540042" lon="14.746642171794194"><ele>801.0</ele><time>2026-03-29T11:45:37Z</time></trkpt><trkpt lat="37.02895468528144" lon="14.746774047189835"><ele>801.0</ele><time>2026-03-29T11:45:38Z</time></trkpt><trkpt lat="37.029064043982245" lon="14.746903194619987"><ele>801.0</ele><time>2026-03-29T11:45:39Z</time></trkpt><trkpt lat="37.02914983241157" lon="14.747004506774116"><ele>801.0</ele><time>2026-03-29T11:45:40Z</time></trkpt><trkpt lat="37.02923182325815" lon="14.747101333926858"><ele>802.0</ele><time>2026-03-29T11:45:41Z</time></trkpt><trkpt lat="37.02932164021709" lon="14.747207792973764"><ele>803.0</ele><time>2026-03-29T11:45:42Z</time></trkpt><trkpt lat="37.0294046234399" lon="14.747306764863147"><ele>804.0</ele><time>2026-03-29T11:45:43Z</time></trkpt><trkpt lat="37.02948963611912" lon="14.747408157150032"><ele>805.0</ele><time>2026-03-29T11:45:44Z</time></trkpt><trkpt lat="37.02957569192707" lon="14.747510793667209"><ele>805.0</ele><time>2026-03-29T11:45:45Z</time></trkpt><trkpt lat="37.02968017699504" lon="14.74763476553809"><ele>805.0</ele><time>2026-03-29T11:45:46Z</time></trkpt><trkpt lat="37.029756543996726" lon="14.747724403700925"><ele>805.0</ele><time>2026-03-29T11:45:47Z</time></trkpt><trkpt lat="37.02983394707223" lon="14.747815258156672"><ele>805.0</ele><time>2026-03-29T11:45:48Z</time></trkpt><trkpt lat="37.029909347534236" lon="14.74790439367346"><ele>805.25</ele><time>2026-03-29T11:45:49Z</time></trkpt><trkpt lat="37.02999940423681" lon="14.748012418197934"><ele>805.5</ele><time>2026-03-29T11:45:50Z</time></trkpt><trkpt lat="37.03008806272083" lon="14.74811876558016"><ele>805.75</ele><time>2026-03-29T11:45:51Z</time></trkpt><trkpt lat="37.030172478729476" lon="14.748204262048233"><ele>806.0</ele><time>2026-03-29T11:45:52Z</time></trkpt><trkpt lat="37.03023954771233" lon="14.74830047408913"><ele>806.0</ele><time>2026-03-29T11:45:53Z</time></trkpt><trkpt lat="37.030319396592546" lon="14.748396254340205"><ele>806.0</ele><time>2026-03-29T11:45:54Z</time></trkpt><trkpt lat="37.030381596469795" lon="14.748471310172347"><ele>806.0</ele><time>2026-03-29T11:45:55Z</time></trkpt><trkpt lat="37.030477316095556" lon="14.748581268922585"><ele>806.0</ele><time>2026-03-29T11:45:56Z</time></trkpt><trkpt lat="37.0305996022527" lon="14.748664220849536"><ele>805.5</ele><time>2026-03-29T11:45:57Z</time></trkpt><trkpt lat="37.030695851568396" lon="14.748739315942743"><ele>805.0</ele><time>2026-03-29T11:45:58Z</time></trkpt><trkpt lat="37.0307992943575" lon="14.748798524060142"><ele>804.5</ele><time>2026-03-29T11:45:59Z</time></trkpt><trkpt lat="37.03090878531658" lon="14.748858442834276"><ele>804.0</ele><time>2026-03-29T11:46:00Z</time></trkpt><trkpt lat="37.03101673978311" lon="14.748914616183287"><ele>804.0</ele><time>2026-03-29T11:46:01Z</time></trkpt><trkpt lat="37.03111852538043" lon="14.748993353507721"><ele>804.0</ele><time>2026-03-29T11:46:02Z</time></trkpt><trkpt lat="37.03121728225676" lon="14.74905323882478"><ele>804.0</ele><time>2026-03-29T11:46:03Z</time></trkpt><trkpt lat="37.03130949788856" lon="14.74910915758739"><ele>804.0</ele><time>2026-03-29T11:46:04Z</time></trkpt><trkpt lat="37.03141980139257" lon="14.749177007923919"><ele>804.0</ele><time>2026-03-29T11:46:05Z</time></trkpt><trkpt lat="37.031545298444854" lon="14.749254968902342"><ele>804.0</ele><time>2026-03-29T11:46:06Z</time></trkpt><trkpt lat="37.031650677285555" lon="14.749320194674423"><ele>804.0</ele><time>2026-03-29T11:46:07Z</time></trkpt><trkpt lat="37.03176001139481" lon="14.749387193296291"><ele>804.0</ele><time>2026-03-29T11:46:08Z</time></trkpt><trkpt lat="37.03186983025877" lon="14.74945448899163"><ele>802.75</ele><time>2026-03-29T11:46:09Z</time></trkpt><trkpt lat="37.031992145319876" lon="14.749529442256772"><ele>801.5</ele><time>2026-03-29T11:46:10Z</time></trkpt><trkpt lat="37.032119360068464" lon="14.749607397897934"><ele>800.25</ele><time>2026-03-29T11:46:11Z</time></trkpt><trkpt lat="37.03224780854524" lon="14.749686109541283"><ele>799.0</ele><time>2026-03-29T11:46:12Z</time></trkpt><trkpt lat="37.032372343556695" lon="14.749762423152978"><ele>798.0</ele><time>2026-03-29T11:46:13Z</time></trkpt><trkpt lat="37.03251654145342" lon="14.749850785887801"><ele>797.0</ele><time>2026-03-29T11:46:14Z</time></trkpt><trkpt lat="37.032656569069836" lon="14.749936593169675"><ele>796.0</ele><time>2026-03-29T11:46:15Z</time></trkpt><trkpt lat="37.032804201615754" lon="14.750027060596437"><ele>796.0</ele><time>2026-03-29T11:46:16Z</time></trkpt><trkpt lat="37.032944154702285" lon="14.750110304431468"><ele>796.0</ele><time>2026-03-29T11:46:17Z</time></trkpt><trkpt lat="37.033083524082535" lon="14.750185148979684"><ele>796.0</ele><time>2026-03-29T11:46:18Z</time></trkpt><trkpt lat="37.03322765234621" lon="14.750228382807977"><ele>793.6666666666666</ele><time>2026-03-29T11:46:19Z</time></trkpt><trkpt lat="37.03335941169439" lon="14.750286011518687"><ele>791.3333333333333</ele><time>2026-03-29T11:46:20Z</time></trkpt><trkpt lat="37.03352960542255" lon="14.75030550577037"><ele>789.0</ele><time>2026-03-29T11:46:21Z</time></trkpt><trkpt lat="37.033686011930676" lon="14.75030464263673"><ele>789.0</ele><time>2026-03-29T11:46:22Z</time></trkpt><trkpt lat="37.03383327574107" lon="14.750281381898576"><ele>789.0</ele><time>2026-03-29T11:46:23Z</time></trkpt><trkpt lat="37.033997631923114" lon="14.750275429329198"><ele>789.0</ele><time>2026-03-29T11:46:24Z</time></trkpt><trkpt lat="37.03416627205995" lon="14.750288914598334"><ele>790.6666666666667</ele><time>2026-03-29T11:46:25Z</time></trkpt><trkpt lat="37.0343316588829" lon="14.750284106449662"><ele>792.3333333333334</ele><time>2026-03-29T11:46:26Z</time></trkpt><trkpt lat="37.034503407454416" lon="14.750279113355067"><ele>794.0</ele><time>2026-03-29T11:46:27Z</time></trkpt><trkpt lat="37.03467195576246" lon="14.750274213283713"><ele>794.0</ele><time>2026-03-29T11:46:28Z</time></trkpt><trkpt lat="37.03484286987052" lon="14.750253203744148"><ele>794.0</ele><time>2026-03-29T11:46:29Z</time></trkpt><trkpt lat="37.03500054175036" lon="14.750252994002421"><ele>794.0</ele><time>2026-03-29T11:46:30Z</time></trkpt><trkpt lat="37.035171626419135" lon="14.750243510190122"><ele>793.6666666666667</ele><time>2026-03-29T11:46:31Z</time></trkpt><trkpt lat="37.03533043939444" lon="14.75023688582888"><ele>793.3333333333333</ele><time>2026-03-29T11:46:32Z</time></trkpt><trkpt lat="37.03547975668487" lon="14.750238997808053"><ele>793.0</ele><time>2026-03-29T11:46:33Z</time></trkpt><trkpt lat="37.03562478940118" lon="14.750212081375286"><ele>792.6666666666666</ele><time>2026-03-29T11:46:34Z</time></trkpt><trkpt lat="37.03577041259494" lon="14.750132716583323"><ele>792.3333333333333</ele><time>2026-03-29T11:46:35Z</time></trkpt><trkpt lat="37.0358909596801" lon="14.750034784485084"><ele>792.0</ele><time>2026-03-29T11:46:36Z</time></trkpt><trkpt lat="37.036037751130394" lon="14.749950567210776"><ele>790.5</ele><time>2026-03-29T11:46:37Z</time></trkpt><trkpt lat="37.03614835439707" lon="14.749849107059111"><ele>789.0</ele><time>2026-03-29T11:46:38Z</time></trkpt><trkpt lat="37.03627769752579" lon="14.749761031178396"><ele>787.5</ele><time>2026-03-29T11:46:39Z</time></trkpt><trkpt lat="37.036422954073245" lon="14.749676978183716"><ele>786.0</ele><time>2026-03-29T11:46:40Z</time></trkpt><trkpt lat="37.03654710183876" lon="14.74959342422709"><ele>783.5</ele><time>2026-03-29T11:46:41Z</time></trkpt><trkpt lat="37.03667646705486" lon="14.749523422341749"><ele>781.0</ele><time>2026-03-29T11:46:42Z</time></trkpt><trkpt lat="37.036801397160836" lon="14.749474447987032"><ele>778.5</ele><time>2026-03-29T11:46:43Z</time></trkpt><trkpt lat="37.036918959279696" lon="14.74943568780815"><ele>776.0</ele><time>2026-03-29T11:46:44Z</time></trkpt><trkpt lat="37.037020923921695" lon="14.749439861337917"><ele>776.0</ele><time>2026-03-29T11:46:45Z</time></trkpt><trkpt lat="37.03713570298551" lon="14.749477425770465"><ele>776.0</ele><time>2026-03-29T11:46:46Z</time></trkpt><trkpt lat="37.037238444963094" lon="14.749544743690565"><ele>776.0</ele><time>2026-03-29T11:46:47Z</time></trkpt><trkpt lat="37.03734343648368" lon="14.749624248264455"><ele>776.0</ele><time>2026-03-29T11:46:48Z</time></trkpt><trkpt lat="37.03744623910825" lon="14.749707578252078"><ele>777.25</ele><time>2026-03-29T11:46:49Z</time></trkpt><trkpt lat="37.03755433314341" lon="14.749795197773174"><ele>778.5</ele><time>2026-03-29T11:46:50Z</time></trkpt><trkpt lat="37.037657157883714" lon="14.749878643150799"><ele>779.75</ele><time>2026-03-29T11:46:51Z</time></trkpt><trkpt lat="37.037769896002324" lon="14.749970440090802"><ele>781.0</ele><time>2026-03-29T11:46:52Z</time></trkpt><trkpt lat="37.03788468816273" lon="14.750063909444384"><ele>781.0</ele><time>2026-03-29T11:46:53Z</time></trkpt><trkpt lat="37.037999820607084" lon="14.750157655910971"><ele>781.0</ele><time>2026-03-29T11:46:54Z</time></trkpt><trkpt lat="37.03811577148315" lon="14.7502524764433"><ele>781.0</ele><time>2026-03-29T11:46:55Z</time></trkpt><trkpt lat="37.03823377273376" lon="14.75035860979039"><ele>781.0</ele><time>2026-03-29T11:46:56Z</time></trkpt><trkpt lat="37.03834212404798" lon="14.750477413777967"><ele>780.0</ele><time>2026-03-29T11:46:57Z</time></trkpt><trkpt lat="37.03845761590862" lon="14.750604251901361"><ele>779.0</ele><time>2026-03-29T11:46:58Z</time></trkpt><trkpt lat="37.038582624301014" lon="14.750715443041868"><ele>778.0</ele><time>2026-03-29T11:46:59Z</time></trkpt><trkpt lat="37.038724344367544" lon="14.750801535560049"><ele>778.0</ele><time>2026-03-29T11:47:00Z</time></trkpt><trkpt lat="37.03888737743728" lon="14.750808848445196"><ele>778.0</ele><time>2026-03-29T11:47:01Z</time></trkpt><trkpt lat="37.039039275411575" lon="14.750820351663448"><ele>778.0</ele><time>2026-03-29T11:47:02Z</time></trkpt><trkpt lat="37.03920341289678" lon="14.750828784950059"><ele>780.75</ele><time>2026-03-29T11:47:03Z</time></trkpt><trkpt lat="37.03935985787285" lon="14.750824637936711"><ele>783.5</ele><time>2026-03-29T11:47:04Z</time></trkpt><trkpt lat="37.03951167308677" lon="14.750840269191668"><ele>786.25</ele><time>2026-03-29T11:47:05Z</time></trkpt><trkpt lat="37.03965016201352" lon="14.750863898079517"><ele>789.0</ele><time>2026-03-29T11:47:06Z</time></trkpt><trkpt lat="37.03977947629506" lon="14.750905128840012"><ele>789.0</ele><time>2026-03-29T11:47:07Z</time></trkpt><trkpt lat="37.039873128950894" lon="14.750957454555886"><ele>789.0</ele><time>2026-03-29T11:47:08Z</time></trkpt><trkpt lat="37.03994880566001" lon="14.751007250842036"><ele>789.0</ele><time>2026-03-29T11:47:09Z</time></trkpt><trkpt lat="37.0400052475553" lon="14.751051974350418"><ele>789.0</ele><time>2026-03-29T11:47:10Z</time></trkpt><trkpt lat="37.04006613650954" lon="14.751105438735825"><ele>789.0</ele><time>2026-03-29T11:47:11Z</time></trkpt><trkpt lat="37.040143114294196" lon="14.751183171795791"><ele>789.0</ele><time>2026-03-29T11:47:13Z</time></trkpt><trkpt lat="37.04018550267934" lon="14.751241978557994"><ele>787.8333333333334</ele><time>2026-03-29T11:47:15Z</time></trkpt><trkpt lat="37.04022114330983" lon="14.751308425298332"><ele>786.6666666666667</ele><time>2026-03-29T11:47:17Z</time></trkpt><trkpt lat="37.04025754741396" lon="14.751410814260069"><ele>785.5</ele><time>2026-03-29T11:47:20Z</time></trkpt><trkpt lat="37.04028994195143" lon="14.751480006514761"><ele>784.3333333333334</ele><time>2026-03-29T11:47:22Z</time></trkpt><trkpt lat="37.040324503628256" lon="14.751562272011274"><ele>783.1666666666667</ele><time>2026-03-29T11:47:24Z</time></trkpt><trkpt lat="37.040367423486046" lon="14.751666395467453"><ele>782.0</ele><time>2026-03-29T11:47:26Z</time></trkpt><trkpt lat="37.04044405503152" lon="14.751875262030033"><ele>785.5</ele><time>2026-03-29T11:47:28Z</time></trkpt><trkpt lat="37.0405025025571" lon="14.751972680423219"><ele>789.0</ele><time>2026-03-29T11:47:29Z</time></trkpt><trkpt lat="37.04103843410185" lon="14.751917935334491"><ele>790.3333333333334</ele><time>2026-03-29T11:47:46Z</time></trkpt><trkpt lat="37.04105664542822" lon="14.751818812003046"><ele>791.6666666666667</ele><time>2026-03-29T11:47:48Z</time></trkpt><trkpt lat="37.04108738726321" lon="14.751729029386604"><ele>793.0</ele><time>2026-03-29T11:47:51Z</time></trkpt><trkpt lat="37.04113826599461" lon="14.751631426696443"><ele>794.3333333333334</ele><time>2026-03-29T11:47:53Z</time></trkpt><trkpt lat="37.04117018521771" lon="14.751555160513812"><ele>795.6666666666667</ele><time>2026-03-29T11:47:54Z</time></trkpt><trkpt lat="37.04122833636915" lon="14.751477726659438"><ele>797.0</ele><time>2026-03-29T11:47:58Z</time></trkpt><trkpt lat="37.04126875099158" lon="14.751373930430473"><ele>797.0</ele><time>2026-03-29T11:48:53Z</time></trkpt><trkpt lat="37.04120496998482" lon="14.751287266099897"><ele>797.0</ele><time>2026-03-29T11:48:55Z</time></trkpt><trkpt lat="37.041149950376145" lon="14.751176179123094"><ele>797.0</ele><time>2026-03-29T11:48:57Z</time></trkpt><trkpt lat="37.04110206322251" lon="14.751046860736048"><ele>797.0</ele><time>2026-03-29T11:48:59Z</time></trkpt><trkpt lat="37.04104134541287" lon="14.75099081485123"><ele>797.0</ele><time>2026-03-29T11:49:00Z</time></trkpt><trkpt lat="37.04104072913473" lon="14.750907726679051"><ele>796.5000000000001</ele><time>2026-03-29T11:49:01Z</time></trkpt><trkpt lat="37.04099863826987" lon="14.75076691770347"><ele>796.0</ele><time>2026-03-29T11:49:03Z</time></trkpt><trkpt lat="37.04095658934297" lon="14.750700650155945"><ele>795.5</ele><time>2026-03-29T11:49:04Z</time></trkpt><trkpt lat="37.0409299024997" lon="14.750613910083874"><ele>795.0</ele><time>2026-03-29T11:49:05Z</time></trkpt><trkpt lat="37.04089402116643" lon="14.750539610981923"><ele>794.5000000000001</ele><time>2026-03-29T11:49:06Z</time></trkpt><trkpt lat="37.04086011035735" lon="14.7504534680195"><ele>794.0</ele><time>2026-03-29T11:49:07Z</time></trkpt><trkpt lat="37.04082852331829" lon="14.750373874308428"><ele>794.0000000000001</ele><time>2026-03-29T11:49:08Z</time></trkpt><trkpt lat="37.04079874645789" lon="14.750287785266442"><ele>794.0</ele><time>2026-03-29T11:49:09Z</time></trkpt><trkpt lat="37.04077110334129" lon="14.750203095264641"><ele>794.0</ele><time>2026-03-29T11:49:10Z</time></trkpt><trkpt lat="37.04074902101909" lon="14.750114823465088"><ele>794.0</ele><time>2026-03-29T11:49:11Z</time></trkpt><trkpt lat="37.04072210842525" lon="14.75001122866692"><ele>794.0000000000001</ele><time>2026-03-29T11:49:12Z</time></trkpt><trkpt lat="37.04070793978688" lon="14.749906774579134"><ele>794.0</ele><time>2026-03-29T11:49:13Z</time></trkpt><trkpt lat="37.04069574275751" lon="14.749804525461967"><ele>794.0000000000001</ele><time>2026-03-29T11:49:14Z</time></trkpt><trkpt lat="37.040685666534365" lon="14.749706225168012"><ele>794.0</ele><time>2026-03-29T11:49:15Z</time></trkpt><trkpt lat="37.04067223946985" lon="14.749592194075591"><ele>794.0</ele><time>2026-03-29T11:49:16Z</time></trkpt><trkpt lat="37.04066783198967" lon="14.749475682005695"><ele>794.0</ele><time>2026-03-29T11:49:17Z</time></trkpt><trkpt lat="37.0406393268736" lon="14.749376961143017"><ele>794.0000000000001</ele><time>2026-03-29T11:49:18Z</time></trkpt><trkpt lat="37.0406183690969" lon="14.749286924680117"><ele>794.0</ele><time>2026-03-29T11:49:19Z</time></trkpt><trkpt lat="37.04058475187076" lon="14.749190706841686"><ele>793.6666666666667</ele><time>2026-03-29T11:49:20Z</time></trkpt><trkpt lat="37.04055838688974" lon="14.749082798317419"><ele>793.3333333333334</ele><time>2026-03-29T11:49:21Z</time></trkpt><trkpt lat="37.04051882258256" lon="14.748987671539332"><ele>793.0</ele><time>2026-03-29T11:49:22Z</time></trkpt><trkpt lat="37.04048040625212" lon="14.748888703913765"><ele>792.6666666666667</ele><time>2026-03-29T11:49:23Z</time></trkpt><trkpt lat="37.040434750921435" lon="14.748792895588881"><ele>792.3333333333334</ele><time>2026-03-29T11:49:24Z</time></trkpt><trkpt lat="37.040403264543265" lon="14.748686121629103"><ele>792.0</ele><time>2026-03-29T11:49:25Z</time></trkpt><trkpt lat="37.040380549311955" lon="14.748582032550884"><ele>790.5</ele><time>2026-03-29T11:49:26Z</time></trkpt><trkpt lat="37.04035137594894" lon="14.748473233720711"><ele>789.0</ele><time>2026-03-29T11:49:27Z</time></trkpt><trkpt lat="37.04031594298366" lon="14.748368010573873"><ele>787.5</ele><time>2026-03-29T11:49:28Z</time></trkpt><trkpt lat="37.04028345245377" lon="14.748286492435067"><ele>786.0</ele><time>2026-03-29T11:49:29Z</time></trkpt><trkpt lat="37.040243413430794" lon="14.748218809447831"><ele>784.5</ele><time>2026-03-29T11:49:30Z</time></trkpt><trkpt lat="37.04021411815965" lon="14.74814031769051"><ele>783.0</ele><time>2026-03-29T11:49:31Z</time></trkpt><trkpt lat="37.040173792159926" lon="14.748027731010504"><ele>783.0</ele><time>2026-03-29T11:49:33Z</time></trkpt><trkpt lat="37.040145778219355" lon="14.747937949644244"><ele>783.0</ele><time>2026-03-29T11:49:35Z</time></trkpt><trkpt lat="37.040161123884054" lon="14.74781719291896"><ele>783.0</ele><time>2026-03-29T11:49:38Z</time></trkpt><trkpt lat="37.040201741218524" lon="14.74775234287935"><ele>783.0</ele><time>2026-03-29T11:49:41Z</time></trkpt><trkpt lat="37.040162032264526" lon="14.747861352523984"><ele>783.0</ele><time>2026-03-29T11:50:58Z</time></trkpt><trkpt lat="37.04014894473281" lon="14.74799224095634"><ele>783.0</ele><time>2026-03-29T11:51:00Z</time></trkpt><trkpt lat="37.04019774948968" lon="14.748119108719273"><ele>783.0</ele><time>2026-03-29T11:51:02Z</time></trkpt><trkpt lat="37.040197681612604" lon="14.748244566904901"><ele>783.0</ele><time>2026-03-29T11:51:04Z</time></trkpt><trkpt lat="37.04023192329454" lon="14.748327890088605"><ele>783.0</ele><time>2026-03-29T11:51:05Z</time></trkpt><trkpt lat="37.040268144171044" lon="14.748428166424302"><ele>783.0</ele><time>2026-03-29T11:51:06Z</time></trkpt><trkpt lat="37.04030710238595" lon="14.74853602111137"><ele>783.0</ele><time>2026-03-29T11:51:07Z</time></trkpt><trkpt lat="37.04033611108114" lon="14.74863400199739"><ele>783.0</ele><time>2026-03-29T11:51:08Z</time></trkpt><trkpt lat="37.04036285942234" lon="14.748732460881827"><ele>784.5</ele><time>2026-03-29T11:51:09Z</time></trkpt><trkpt lat="37.040385529348384" lon="14.7488118968505"><ele>786.0</ele><time>2026-03-29T11:51:10Z</time></trkpt><trkpt lat="37.0404162394897" lon="14.748906133502217"><ele>787.5</ele><time>2026-03-29T11:51:11Z</time></trkpt><trkpt lat="37.04045021517791" lon="14.74899632188651"><ele>789.0</ele><time>2026-03-29T11:51:12Z</time></trkpt><trkpt lat="37.04048815031676" lon="14.74908801604728"><ele>790.5</ele><time>2026-03-29T11:51:13Z</time></trkpt><trkpt lat="37.04052667966265" lon="14.74918114642864"><ele>792.0</ele><time>2026-03-29T11:51:14Z</time></trkpt><trkpt lat="37.04055641813216" lon="14.749266816444125"><ele>792.0</ele><time>2026-03-29T11:51:15Z</time></trkpt><trkpt lat="37.040582546418335" lon="14.749356091289958"><ele>792.0</ele><time>2026-03-29T11:51:16Z</time></trkpt><trkpt lat="37.04059944190371" lon="14.749447415331296"><ele>792.0</ele><time>2026-03-29T11:51:17Z</time></trkpt><trkpt lat="37.04061023223155" lon="14.749534345947218"><ele>792.0</ele><time>2026-03-29T11:51:18Z</time></trkpt><trkpt lat="37.04061976074511" lon="14.749636336977362"><ele>792.0</ele><time>2026-03-29T11:51:19Z</time></trkpt><trkpt lat="37.04062789126315" lon="14.749725531556384"><ele>792.0</ele><time>2026-03-29T11:51:20Z</time></trkpt><trkpt lat="37.04063922566862" lon="14.749833088382417"><ele>792.3333333333334</ele><time>2026-03-29T11:51:21Z</time></trkpt><trkpt lat="37.0406530841053" lon="14.74993139091445"><ele>792.6666666666667</ele><time>2026-03-29T11:51:22Z</time></trkpt><trkpt lat="37.04067156984528" lon="14.750039984585811"><ele>793.0</ele><time>2026-03-29T11:51:23Z</time></trkpt><trkpt lat="37.04069189212707" lon="14.75013857361674"><ele>793.3333333333334</ele><time>2026-03-29T11:51:24Z</time></trkpt><trkpt lat="37.040719549761384" lon="14.750249249926375"><ele>793.6666666666667</ele><time>2026-03-29T11:51:25Z</time></trkpt><trkpt lat="37.040759080111485" lon="14.750365798227854"><ele>794.0</ele><time>2026-03-29T11:51:26Z</time></trkpt><trkpt lat="37.04079313772466" lon="14.750451058020346"><ele>794.0</ele><time>2026-03-29T11:51:27Z</time></trkpt><trkpt lat="37.04083343831318" lon="14.750541362389775"><ele>794.0</ele><time>2026-03-29T11:51:28Z</time></trkpt><trkpt lat="37.04086973953053" lon="14.750619618190095"><ele>794.0</ele><time>2026-03-29T11:51:29Z</time></trkpt><trkpt lat="37.0409052411688" lon="14.750711479616456"><ele>794.0</ele><time>2026-03-29T11:51:30Z</time></trkpt><trkpt lat="37.04093317063655" lon="14.750783490087725"><ele>794.0</ele><time>2026-03-29T11:51:31Z</time></trkpt><trkpt lat="37.04095996694915" lon="14.750861628689126"><ele>794.0</ele><time>2026-03-29T11:51:32Z</time></trkpt><trkpt lat="37.04098306594886" lon="14.75095595457441"><ele>794.0</ele><time>2026-03-29T11:51:33Z</time></trkpt><trkpt lat="37.04100119321464" lon="14.751038613238473"><ele>794.5000000000001</ele><time>2026-03-29T11:51:34Z</time></trkpt><trkpt lat="37.04103804705931" lon="14.751127064737904"><ele>795.0</ele><time>2026-03-29T11:51:35Z</time></trkpt><trkpt lat="37.04107440007426" lon="14.751223323472647"><ele>795.5</ele><time>2026-03-29T11:51:36Z</time></trkpt><trkpt lat="37.04111058761088" lon="14.751294940416992"><ele>796.0</ele><time>2026-03-29T11:51:37Z</time></trkpt><trkpt lat="37.04114924557843" lon="14.751380737336563"><ele>796.5000000000001</ele><time>2026-03-29T11:51:39Z</time></trkpt><trkpt lat="37.041252427093895" lon="14.751280813940225"><ele>797.0</ele><time>2026-03-29T11:51:41Z</time></trkpt><trkpt lat="37.041291735542366" lon="14.751174899928749"><ele>797.0</ele><time>2026-03-29T11:51:43Z</time></trkpt><trkpt lat="37.041333353039484" lon="14.751115435153011"><ele>797.0</ele><time>2026-03-29T11:51:46Z</time></trkpt><trkpt lat="37.04135480010887" lon="14.75102005741097"><ele>797.0</ele><time>2026-03-29T11:51:49Z</time></trkpt><trkpt lat="37.04144026893717" lon="14.75089446493564"><ele>797.0</ele><time>2026-03-29T11:51:50Z</time></trkpt><trkpt lat="37.041736925551454" lon="14.750876755098476"><ele>794.6666666666667</ele><time>2026-03-29T11:51:51Z</time></trkpt><trkpt lat="37.04189575505489" lon="14.750875188039114"><ele>792.3333333333333</ele><time>2026-03-29T11:51:52Z</time></trkpt><trkpt lat="37.04204494415413" lon="14.750856307016596"><ele>790.0</ele><time>2026-03-29T11:51:53Z</time></trkpt><trkpt lat="37.0421812451737" lon="14.750805816160485"><ele>790.0</ele><time>2026-03-29T11:51:54Z</time></trkpt><trkpt lat="37.042326037200894" lon="14.750760156233689"><ele>790.0</ele><time>2026-03-29T11:51:55Z</time></trkpt><trkpt lat="37.042446088151095" lon="14.750685605212968"><ele>790.0</ele><time>2026-03-29T11:51:56Z</time></trkpt><trkpt lat="37.04255117345154" lon="14.7506172664411"><ele>790.0</ele><time>2026-03-29T11:51:57Z</time></trkpt><trkpt lat="37.04262965704063" lon="14.750565266501205"><ele>789.0</ele><time>2026-03-29T11:51:58Z</time></trkpt><trkpt lat="37.04272013790271" lon="14.750492565152467"><ele>788.0</ele><time>2026-03-29T11:51:59Z</time></trkpt><trkpt lat="37.042806029287235" lon="14.750440266631353"><ele>787.0</ele><time>2026-03-29T11:52:00Z</time></trkpt><trkpt lat="37.04288011572519" lon="14.750414704768458"><ele>786.0</ele><time>2026-03-29T11:52:01Z</time></trkpt><trkpt lat="37.043072798542916" lon="14.750447920188577"><ele>786.0</ele><time>2026-03-29T11:52:09Z</time></trkpt><trkpt lat="37.043148930443806" lon="14.750373951411294"><ele>786.0</ele><time>2026-03-29T11:52:11Z</time></trkpt><trkpt lat="37.043194762576185" lon="14.750290557437436"><ele>786.0</ele><time>2026-03-29T11:52:12Z</time></trkpt><trkpt lat="37.043245860020896" lon="14.75018989115532"><ele>786.0</ele><time>2026-03-29T11:52:13Z</time></trkpt><trkpt lat="37.04330187202909" lon="14.750137257618627"><ele>786.0</ele><time>2026-03-29T11:52:14Z</time></trkpt><trkpt lat="37.04334636027739" lon="14.750049566027911"><ele>786.0</ele><time>2026-03-29T11:52:16Z</time></trkpt><trkpt lat="37.043386800527465" lon="14.749922267757128"><ele>783.6666666666666</ele><time>2026-03-29T11:52:18Z</time></trkpt><trkpt lat="37.04341405331672" lon="14.74984781389792"><ele>781.3333333333333</ele><time>2026-03-29T11:52:19Z</time></trkpt><trkpt lat="37.04345176800238" lon="14.749704289724399"><ele>779.0</ele><time>2026-03-29T11:52:21Z</time></trkpt><trkpt lat="37.0434516514654" lon="14.749620624094671"><ele>776.6666666666666</ele><time>2026-03-29T11:52:22Z</time></trkpt><trkpt lat="37.04346177730123" lon="14.74953605112774"><ele>774.3333333333333</ele><time>2026-03-29T11:52:23Z</time></trkpt><trkpt lat="37.043483289786764" lon="14.749450490378694"><ele>772.0</ele><time>2026-03-29T11:52:24Z</time></trkpt><trkpt lat="37.04356087076501" lon="14.749295476364972"><ele>771.1666666666666</ele><time>2026-03-29T11:52:26Z</time></trkpt><trkpt lat="37.04360026538666" lon="14.749209759413132"><ele>770.3333333333333</ele><time>2026-03-29T11:52:27Z</time></trkpt><trkpt lat="37.043643313731394" lon="14.749135347772047"><ele>769.5</ele><time>2026-03-29T11:52:28Z</time></trkpt><trkpt lat="37.04368919347783" lon="14.749064897771953"><ele>768.6666666666666</ele><time>2026-03-29T11:52:29Z</time></trkpt><trkpt lat="37.043738741249726" lon="14.748980894669312"><ele>767.8333333333333</ele><time>2026-03-29T11:52:30Z</time></trkpt><trkpt lat="37.04380233965559" lon="14.748849665077687"><ele>767.0</ele><time>2026-03-29T11:52:32Z</time></trkpt><trkpt lat="37.04386228707043" lon="14.748719558115091"><ele>767.0</ele><time>2026-03-29T11:52:34Z</time></trkpt><trkpt lat="37.04390219289415" lon="14.748585851827356"><ele>767.0</ele><time>2026-03-29T11:52:36Z</time></trkpt><trkpt lat="37.0439509164036" lon="14.748454354369285"><ele>767.0</ele><time>2026-03-29T11:52:38Z</time></trkpt><trkpt lat="37.04398244269617" lon="14.748360964268185"><ele>767.0</ele><time>2026-03-29T11:52:40Z</time></trkpt><trkpt lat="37.043995583633055" lon="14.748270170283691"><ele>767.0</ele><time>2026-03-29T11:53:11Z</time></trkpt><trkpt lat="37.043969373035495" lon="14.748185853666408"><ele>766.3333333333333</ele><time>2026-03-29T11:54:06Z</time></trkpt><trkpt lat="37.04397734824263" lon="14.748097057940184"><ele>765.6666666666666</ele><time>2026-03-29T11:54:07Z</time></trkpt><trkpt lat="37.04398687558154" lon="14.748012308857243"><ele>765.0</ele><time>2026-03-29T11:54:08Z</time></trkpt><trkpt lat="37.04402530002793" lon="14.747903872347027"><ele>764.3333333333334</ele><time>2026-03-29T11:54:09Z</time></trkpt><trkpt lat="37.044082503118254" lon="14.747783699505884"><ele>763.6666666666667</ele><time>2026-03-29T11:54:10Z</time></trkpt><trkpt lat="37.044108601516754" lon="14.747691250747568"><ele>763.0</ele><time>2026-03-29T11:54:11Z</time></trkpt><trkpt lat="37.044137477178104" lon="14.747613523128702"><ele>762.4</ele><time>2026-03-29T11:54:12Z</time></trkpt><trkpt lat="37.04416523900892" lon="14.747516674284057"><ele>761.8</ele><time>2026-03-29T11:54:14Z</time></trkpt><trkpt lat="37.0442082084143" lon="14.747457109497885"><ele>761.2</ele><time>2026-03-29T11:54:16Z</time></trkpt><trkpt lat="37.044241808171584" lon="14.747346202277203"><ele>760.6</ele><time>2026-03-29T11:54:18Z</time></trkpt><trkpt lat="37.04431350455787" lon="14.747342936085003"><ele>760.0</ele><time>2026-03-29T11:54:21Z</time></trkpt><trkpt lat="37.04431179118225" lon="14.747516154512468"><ele>760.0</ele><time>2026-03-29T11:54:24Z</time></trkpt><trkpt lat="37.04430006144831" lon="14.747596125187377"><ele>760.0</ele><time>2026-03-29T11:54:25Z</time></trkpt><trkpt lat="37.04431576322881" lon="14.747705837283318"><ele>760.0</ele><time>2026-03-29T11:54:27Z</time></trkpt><trkpt lat="37.04438954823167" lon="14.747784973920872"><ele>760.0</ele><time>2026-03-29T11:54:31Z</time></trkpt><trkpt lat="37.044368014920856" lon="14.747881111278607"><ele>760.0</ele><time>2026-03-29T11:54:33Z</time></trkpt><trkpt lat="37.044384322642735" lon="14.747988566617076"><ele>760.0</ele><time>2026-03-29T11:54:36Z</time></trkpt><trkpt lat="37.044395785127" lon="14.748071391437126"><ele>759.1666666666667</ele><time>2026-03-29T11:54:39Z</time></trkpt><trkpt lat="37.04438794877134" lon="14.748158453974655"><ele>758.3333333333334</ele><time>2026-03-29T11:54:43Z</time></trkpt><trkpt lat="37.04438927364383" lon="14.748267100929162"><ele>757.5</ele><time>2026-03-29T11:54:47Z</time></trkpt><trkpt lat="37.04442045545217" lon="14.748371062159901"><ele>756.6666666666666</ele><time>2026-03-29T11:54:49Z</time></trkpt><trkpt lat="37.044426070328434" lon="14.748455665436445"><ele>755.8333333333333</ele><time>2026-03-29T11:54:51Z</time></trkpt><trkpt lat="37.044413531802434" lon="14.74853782126406"><ele>755.0</ele><time>2026-03-29T11:54:53Z</time></trkpt><trkpt lat="37.04439995596252" lon="14.74863444159502"><ele>753.5</ele><time>2026-03-29T11:54:55Z</time></trkpt><trkpt lat="37.04441853743294" lon="14.748721442433602"><ele>752.0</ele><time>2026-03-29T11:54:56Z</time></trkpt><trkpt lat="37.04436202675539" lon="14.748832827713697"><ele>750.5</ele><time>2026-03-29T11:54:58Z</time></trkpt><trkpt lat="37.04431390174527" lon="14.748896606764538"><ele>749.0</ele><time>2026-03-29T11:54:59Z</time></trkpt><trkpt lat="37.04426957086069" lon="14.74898707046499"><ele>747.5</ele><time>2026-03-29T11:55:00Z</time></trkpt><trkpt lat="37.04423449022104" lon="14.749063737138686"><ele>746.0</ele><time>2026-03-29T11:55:01Z</time></trkpt><trkpt lat="37.04419972062049" lon="14.74918785891325"><ele>746.0</ele><time>2026-03-29T11:55:03Z</time></trkpt><trkpt lat="37.04418002478361" lon="14.749319066473987"><ele>746.0</ele><time>2026-03-29T11:55:05Z</time></trkpt><trkpt lat="37.044198417538446" lon="14.74946862377171"><ele>746.0</ele><time>2026-03-29T11:55:07Z</time></trkpt><trkpt lat="37.044213029187546" lon="14.74955467198962"><ele>746.0</ele><time>2026-03-29T11:55:08Z</time></trkpt><trkpt lat="37.04424314566536" lon="14.749696159076889"><ele>746.0</ele><time>2026-03-29T11:55:10Z</time></trkpt><trkpt lat="37.044333234502886" lon="14.749812449087381"><ele>746.8</ele><time>2026-03-29T11:55:12Z</time></trkpt><trkpt lat="37.044391348607405" lon="14.749857363357341"><ele>747.5999999999999</ele><time>2026-03-29T11:55:13Z</time></trkpt><trkpt lat="37.044493162303716" lon="14.74993952746777"><ele>748.4</ele><time>2026-03-29T11:55:15Z</time></trkpt><trkpt lat="37.04455528496226" lon="14.750089210363974"><ele>749.2</ele><time>2026-03-29T11:55:17Z</time></trkpt><trkpt lat="37.04459330711984" lon="14.75016878616216"><ele>750.0</ele><time>2026-03-29T11:55:18Z</time></trkpt><trkpt lat="37.04461215369061" lon="14.750247454349397"><ele>752.1666666666666</ele><time>2026-03-29T11:55:19Z</time></trkpt><trkpt lat="37.04464456741265" lon="14.750335721118102"><ele>754.3333333333334</ele><time>2026-03-29T11:55:20Z</time></trkpt><trkpt lat="37.04466060806915" lon="14.750437172265018"><ele>756.5</ele><time>2026-03-29T11:55:22Z</time></trkpt><trkpt lat="37.04467147840242" lon="14.750526298422406"><ele>758.6666666666667</ele><time>2026-03-29T11:55:23Z</time></trkpt><trkpt lat="37.04465409833681" lon="14.750661783770829"><ele>760.8333333333334</ele><time>2026-03-29T11:55:25Z</time></trkpt><trkpt lat="37.04458513356175" lon="14.750713992448143"><ele>763.0</ele><time>2026-03-29T11:55:31Z</time></trkpt><trkpt lat="37.044544749797375" lon="14.750788617587775"><ele>763.0</ele><time>2026-03-29T11:55:33Z</time></trkpt><trkpt lat="37.04450771181338" lon="14.750852721946664"><ele>763.0</ele><time>2026-03-29T11:55:37Z</time></trkpt><trkpt lat="37.0444574679495" lon="14.750915824088118"><ele>763.0</ele><time>2026-03-29T11:55:42Z</time></trkpt><trkpt lat="37.044469186577196" lon="14.751022092820525"><ele>763.0</ele><time>2026-03-29T11:55:44Z</time></trkpt><trkpt lat="37.044511605330385" lon="14.751098817018882"><ele>763.0</ele><time>2026-03-29T11:55:46Z</time></trkpt><trkpt lat="37.04455692689571" lon="14.751172044834075"><ele>763.0</ele><time>2026-03-29T11:56:14Z</time></trkpt><trkpt lat="37.0446281456104" lon="14.751191881094135"><ele>763.0</ele><time>2026-03-29T11:56:17Z</time></trkpt><trkpt lat="37.044598869963785" lon="14.751120566348716"><ele>763.0</ele><time>2026-03-29T11:57:27Z</time></trkpt><trkpt lat="37.04453257509751" lon="14.751067049508416"><ele>763.0</ele><time>2026-03-29T11:57:32Z</time></trkpt><trkpt lat="37.04446408362647" lon="14.751002409384272"><ele>763.0</ele><time>2026-03-29T11:57:34Z</time></trkpt><trkpt lat="37.04449810822144" lon="14.750924607205143"><ele>763.0</ele><time>2026-03-29T11:57:37Z</time></trkpt><trkpt lat="37.044543553686594" lon="14.75086171280992"><ele>763.0</ele><time>2026-03-29T11:57:41Z</time></trkpt><trkpt lat="37.04458546520125" lon="14.750801940466658"><ele>763.0</ele><time>2026-03-29T11:57:47Z</time></trkpt><trkpt lat="37.04466041444567" lon="14.750810346793404"><ele>763.0</ele><time>2026-03-29T11:57:50Z</time></trkpt><trkpt lat="37.044723903643366" lon="14.750824608680665"><ele>763.0</ele><time>2026-03-29T11:57:55Z</time></trkpt><trkpt lat="37.04474888717393" lon="14.750901996389624"><ele>763.0</ele><time>2026-03-29T11:59:36Z</time></trkpt><trkpt lat="37.044815612062045" lon="14.750943426790297"><ele>763.0</ele><time>2026-03-29T12:00:24Z</time></trkpt><trkpt lat="37.04477997220116" lon="14.750870228464153"><ele>763.0</ele><time>2026-03-29T12:01:26Z</time></trkpt><trkpt lat="37.04481275043662" lon="14.750938177714485"><ele>763.0</ele><time>2026-03-29T12:01:49Z</time></trkpt><trkpt lat="37.04487328853395" lon="14.750995097081828"><ele>763.0</ele><time>2026-03-29T12:02:34Z</time></trkpt><trkpt lat="37.044934758391285" lon="14.751075518281082"><ele>763.0</ele><time>2026-03-29T12:02:37Z</time></trkpt><trkpt lat="37.04501401417662" lon="14.751076383973944"><ele>762.6666666666667</ele><time>2026-03-29T12:04:05Z</time></trkpt><trkpt lat="37.04509133828815" lon="14.751064905077794"><ele>762.3333333333334</ele><time>2026-03-29T12:04:07Z</time></trkpt><trkpt lat="37.045147300911665" lon="14.751126704653688"><ele>762.0</ele><time>2026-03-29T12:04:17Z</time></trkpt><trkpt lat="37.045206549649315" lon="14.751055543297717"><ele>761.6666666666666</ele><time>2026-03-29T12:04:18Z</time></trkpt><trkpt lat="37.04526207657139" lon="14.751010652640902"><ele>761.3333333333333</ele><time>2026-03-29T12:04:20Z</time></trkpt><trkpt lat="37.045319921249046" lon="14.750961654531313"><ele>761.0</ele><time>2026-03-29T12:04:22Z</time></trkpt><trkpt lat="37.04536724847538" lon="14.750881825428984"><ele>761.0</ele><time>2026-03-29T12:04:24Z</time></trkpt><trkpt lat="37.04545021192499" lon="14.750851865606208"><ele>761.0</ele><time>2026-03-29T12:04:26Z</time></trkpt><trkpt lat="37.045557029517745" lon="14.750951883231103"><ele>761.0</ele><time>2026-03-29T12:04:28Z</time></trkpt><trkpt lat="37.04564017993832" lon="14.751074074738439"><ele>761.0</ele><time>2026-03-29T12:04:30Z</time></trkpt><trkpt lat="37.045695923837826" lon="14.751183411704462"><ele>761.0</ele><time>2026-03-29T12:04:31Z</time></trkpt><trkpt lat="37.04572811209776" lon="14.751257817527556"><ele>761.0</ele><time>2026-03-29T12:04:32Z</time></trkpt><trkpt lat="37.0457906075333" lon="14.751391932502466"><ele>761.0</ele><time>2026-03-29T12:04:34Z</time></trkpt><trkpt lat="37.04583254267495" lon="14.751480186996039"><ele>761.0</ele><time>2026-03-29T12:04:35Z</time></trkpt><trkpt lat="37.045870914969775" lon="14.751605334110641"><ele>761.0</ele><time>2026-03-29T12:04:37Z</time></trkpt><trkpt lat="37.04586205448331" lon="14.751713843342378"><ele>758.8</ele><time>2026-03-29T12:04:39Z</time></trkpt><trkpt lat="37.04591337026608" lon="14.751817455022005"><ele>756.5999999999999</ele><time>2026-03-29T12:04:41Z</time></trkpt><trkpt lat="37.04600228606079" lon="14.751834141268555"><ele>754.4</ele><time>2026-03-29T12:04:43Z</time></trkpt><trkpt lat="37.04608998849915" lon="14.751770249109576"><ele>752.2</ele><time>2026-03-29T12:04:45Z</time></trkpt><trkpt lat="37.046170414864676" lon="14.751718501722264"><ele>750.0</ele><time>2026-03-29T12:04:47Z</time></trkpt><trkpt lat="37.046242184025935" lon="14.751755272376014"><ele>750.0</ele><time>2026-03-29T12:04:50Z</time></trkpt><trkpt lat="37.04634380667569" lon="14.75169406717419"><ele>750.0</ele><time>2026-03-29T12:04:53Z</time></trkpt><trkpt lat="37.04641804407603" lon="14.751608795443287"><ele>750.0</ele><time>2026-03-29T12:04:55Z</time></trkpt><trkpt lat="37.04644513779275" lon="14.751530699377849"><ele>750.0</ele><time>2026-03-29T12:04:59Z</time></trkpt><trkpt lat="37.046505257483595" lon="14.751481254652802"><ele>750.0</ele><time>2026-03-29T12:05:08Z</time></trkpt><trkpt lat="37.0465432786415" lon="14.75140509813976"><ele>750.0</ele><time>2026-03-29T12:05:16Z</time></trkpt><trkpt lat="37.04650345782038" lon="14.751333973100738"><ele>750.0</ele><time>2026-03-29T12:05:32Z</time></trkpt><trkpt lat="37.04648777291125" lon="14.751216401978828"><ele>750.0</ele><time>2026-03-29T12:05:37Z</time></trkpt><trkpt lat="37.046485026927414" lon="14.751109907394452"><ele>750.0</ele><time>2026-03-29T12:05:40Z</time></trkpt><trkpt lat="37.04646745399062" lon="14.751016892928716"><ele>750.0</ele><time>2026-03-29T12:05:42Z</time></trkpt><trkpt lat="37.04643761072025" lon="14.750946668554027"><ele>750.0</ele><time>2026-03-29T12:05:44Z</time></trkpt><trkpt lat="37.04641323200737" lon="14.750862463911142"><ele>750.0</ele><time>2026-03-29T12:05:51Z</time></trkpt><trkpt lat="37.046337137252834" lon="14.750802706950987"><ele>748.6666666666666</ele><time>2026-03-29T12:05:53Z</time></trkpt><trkpt lat="37.04624935013656" lon="14.750825668002781"><ele>747.3333333333334</ele><time>2026-03-29T12:05:55Z</time></trkpt><trkpt lat="37.04616919480928" lon="14.750760111569043"><ele>746.0</ele><time>2026-03-29T12:05:59Z</time></trkpt><trkpt lat="37.04622167072785" lon="14.750688826602962"><ele>744.6666666666667</ele><time>2026-03-29T12:06:07Z</time></trkpt><trkpt lat="37.04630124870142" lon="14.75062164510557"><ele>743.3333333333334</ele><time>2026-03-29T12:06:10Z</time></trkpt><trkpt lat="37.04630695172012" lon="14.750527027193229"><ele>742.0</ele><time>2026-03-29T12:06:12Z</time></trkpt><trkpt lat="37.04629522067606" lon="14.750392234777493"><ele>742.0</ele><time>2026-03-29T12:06:14Z</time></trkpt><trkpt lat="37.046285226471184" lon="14.75027745004527"><ele>742.0</ele><time>2026-03-29T12:06:16Z</time></trkpt><trkpt lat="37.04621125243532" lon="14.750184916974929"><ele>742.0</ele><time>2026-03-29T12:06:18Z</time></trkpt><trkpt lat="37.046155762935115" lon="14.75009419811111"><ele>742.0</ele><time>2026-03-29T12:06:20Z</time></trkpt><trkpt lat="37.046107851417446" lon="14.749975420136892"><ele>742.0</ele><time>2026-03-29T12:06:22Z</time></trkpt><trkpt lat="37.0460378215511" lon="14.749864038988616"><ele>742.4000000000001</ele><time>2026-03-29T12:06:24Z</time></trkpt><trkpt lat="37.04598019263217" lon="14.749731711810638"><ele>742.8000000000001</ele><time>2026-03-29T12:06:26Z</time></trkpt><trkpt lat="37.045930891713674" lon="14.749586734990494"><ele>743.2</ele><time>2026-03-29T12:06:28Z</time></trkpt><trkpt lat="37.04591708022168" lon="14.749506860643661"><ele>743.6</ele><time>2026-03-29T12:06:29Z</time></trkpt><trkpt lat="37.04589587225537" lon="14.749401998857449"><ele>744.0</ele><time>2026-03-29T12:06:31Z</time></trkpt><trkpt lat="37.04593320151063" lon="14.749269447881105"><ele>743.2</ele><time>2026-03-29T12:06:33Z</time></trkpt><trkpt lat="37.04599923136449" lon="14.749176141306078"><ele>742.4000000000001</ele><time>2026-03-29T12:06:35Z</time></trkpt><trkpt lat="37.04604866935861" lon="14.749067629205888"><ele>741.6</ele><time>2026-03-29T12:06:37Z</time></trkpt><trkpt lat="37.04609794719105" lon="14.748982397963886"><ele>740.8</ele><time>2026-03-29T12:06:39Z</time></trkpt><trkpt lat="37.046175789745654" lon="14.748912594157009"><ele>740.0</ele><time>2026-03-29T12:06:42Z</time></trkpt><trkpt lat="37.046244426658596" lon="14.748866587404004"><ele>740.0</ele><time>2026-03-29T12:06:45Z</time></trkpt><trkpt lat="37.04620334397269" lon="14.748774828864148"><ele>740.0</ele><time>2026-03-29T12:07:02Z</time></trkpt><trkpt lat="37.04623804044641" lon="14.748853251418813"><ele>740.0</ele><time>2026-03-29T12:08:02Z</time></trkpt><trkpt lat="37.04627613323407" lon="14.748789704289049"><ele>740.0</ele><time>2026-03-29T12:08:13Z</time></trkpt><trkpt lat="37.04632401846433" lon="14.748716652651208"><ele>740.0</ele><time>2026-03-29T12:08:16Z</time></trkpt><trkpt lat="37.04638558887982" lon="14.748656692845408"><ele>740.0</ele><time>2026-03-29T12:08:25Z</time></trkpt><trkpt lat="37.04643720475464" lon="14.748583069350913"><ele>737.3333333333333</ele><time>2026-03-29T12:08:27Z</time></trkpt><trkpt lat="37.046484119847484" lon="14.748529366307793"><ele>734.6666666666666</ele><time>2026-03-29T12:09:18Z</time></trkpt><trkpt lat="37.04650721897634" lon="14.748455616281175"><ele>732.0</ele><time>2026-03-29T12:09:35Z</time></trkpt><trkpt lat="37.0465302761947" lon="14.748365511369263"><ele>729.3333333333334</ele><time>2026-03-29T12:09:38Z</time></trkpt><trkpt lat="37.046570058425296" lon="14.748265175021444"><ele>726.6666666666667</ele><time>2026-03-29T12:09:41Z</time></trkpt><trkpt lat="37.04659260558719" lon="14.748175178216615"><ele>724.0</ele><time>2026-03-29T12:09:44Z</time></trkpt><trkpt lat="37.04665256427794" lon="14.748084361352142"><ele>729.3333333333334</ele><time>2026-03-29T12:09:47Z</time></trkpt><trkpt lat="37.04667264194651" lon="14.747996451444552"><ele>734.6666666666667</ele><time>2026-03-29T12:09:49Z</time></trkpt><trkpt lat="37.04672072181832" lon="14.747925965054531"><ele>740.0</ele><time>2026-03-29T12:09:52Z</time></trkpt><trkpt lat="37.046764940297514" lon="14.747846534401571"><ele>745.3333333333334</ele><time>2026-03-29T12:09:56Z</time></trkpt><trkpt lat="37.04681975044606" lon="14.747807369755602"><ele>750.6666666666666</ele><time>2026-03-29T12:09:59Z</time></trkpt><trkpt lat="37.046802861965546" lon="14.747924599060777"><ele>756.0</ele><time>2026-03-29T12:10:03Z</time></trkpt><trkpt lat="37.046709998182166" lon="14.747980221863884"><ele>756.0</ele><time>2026-03-29T12:10:07Z</time></trkpt><trkpt lat="37.046709920339524" lon="14.748139880437813"><ele>756.0</ele><time>2026-03-29T12:10:09Z</time></trkpt><trkpt lat="37.04668318794981" lon="14.748242921679354"><ele>756.0</ele><time>2026-03-29T12:10:10Z</time></trkpt><trkpt lat="37.04666648383055" lon="14.748358049787802"><ele>756.0</ele><time>2026-03-29T12:10:12Z</time></trkpt><trkpt lat="37.04669910307557" lon="14.748427829466209"><ele>756.0</ele><time>2026-03-29T12:10:14Z</time></trkpt><trkpt lat="37.04667731074532" lon="14.748520792582731"><ele>756.0</ele><time>2026-03-29T12:10:23Z</time></trkpt><trkpt lat="37.04667785723588" lon="14.748618789142217"><ele>757.8333333333334</ele><time>2026-03-29T12:10:26Z</time></trkpt><trkpt lat="37.046680058682355" lon="14.748731282480414"><ele>759.6666666666666</ele><time>2026-03-29T12:10:35Z</time></trkpt><trkpt lat="37.04668604299872" lon="14.748857496815662"><ele>761.5</ele><time>2026-03-29T12:10:39Z</time></trkpt><trkpt lat="37.046700407856484" lon="14.748936926298002"><ele>763.3333333333333</ele><time>2026-03-29T12:10:42Z</time></trkpt><trkpt lat="37.04674228647678" lon="14.749055918345999"><ele>765.1666666666666</ele><time>2026-03-29T12:10:44Z</time></trkpt><trkpt lat="37.04673957420364" lon="14.74914912249184"><ele>767.0</ele><time>2026-03-29T12:10:47Z</time></trkpt><trkpt lat="37.04668394301493" lon="14.749226010762406"><ele>767.0</ele><time>2026-03-29T12:10:50Z</time></trkpt><trkpt lat="37.046623186941446" lon="14.749269189213246"><ele>767.0</ele><time>2026-03-29T12:11:04Z</time></trkpt><trkpt lat="37.04664657370353" lon="14.749357427796497"><ele>767.0</ele><time>2026-03-29T12:11:08Z</time></trkpt><trkpt lat="37.04672672585487" lon="14.749458651031986"><ele>767.0</ele><time>2026-03-29T12:11:11Z</time></trkpt><trkpt lat="37.04677026972749" lon="14.749561704382257"><ele>767.0</ele><time>2026-03-29T12:11:13Z</time></trkpt><trkpt lat="37.046788074517224" lon="14.749639094639672"><ele>767.0</ele><time>2026-03-29T12:11:14Z</time></trkpt><trkpt lat="37.04681965760662" lon="14.749780840695008"><ele>767.5</ele><time>2026-03-29T12:11:16Z</time></trkpt><trkpt lat="37.04685810432926" lon="14.749856359445102"><ele>768.0</ele><time>2026-03-29T12:11:17Z</time></trkpt><trkpt lat="37.046891823374565" lon="14.74995083142453"><ele>768.5</ele><time>2026-03-29T12:11:18Z</time></trkpt><trkpt lat="37.04690793994814" lon="14.750036604511363"><ele>769.0</ele><time>2026-03-29T12:11:19Z</time></trkpt><trkpt lat="37.046957867809226" lon="14.75014387645315"><ele>769.5000000000001</ele><time>2026-03-29T12:11:20Z</time></trkpt><trkpt lat="37.047022410856925" lon="14.75023555378346"><ele>770.0</ele><time>2026-03-29T12:11:21Z</time></trkpt><trkpt lat="37.04705788368994" lon="14.750309813963282"><ele>768.8</ele><time>2026-03-29T12:11:22Z</time></trkpt><trkpt lat="37.047106623167195" lon="14.750464005895786"><ele>767.6</ele><time>2026-03-29T12:11:24Z</time></trkpt><trkpt lat="37.04712106467854" lon="14.750545057304821"><ele>766.4000000000001</ele><time>2026-03-29T12:11:25Z</time></trkpt><trkpt lat="37.04714320244962" lon="14.750665366729946"><ele>765.2</ele><time>2026-03-29T12:11:26Z</time></trkpt><trkpt lat="37.04716691090998" lon="14.750766594971491"><ele>764.0</ele><time>2026-03-29T12:11:27Z</time></trkpt><trkpt lat="37.047192573644985" lon="14.750886147719596"><ele>764.0</ele><time>2026-03-29T12:11:29Z</time></trkpt><trkpt lat="37.04723281358175" lon="14.750953847513644"><ele>764.0</ele><time>2026-03-29T12:11:30Z</time></trkpt><trkpt lat="37.04726582493709" lon="14.75103338605533"><ele>764.0</ele><time>2026-03-29T12:11:31Z</time></trkpt><trkpt lat="37.04727447238044" lon="14.75117403752086"><ele>764.0</ele><time>2026-03-29T12:11:33Z</time></trkpt><trkpt lat="37.04730743773148" lon="14.751290137504514"><ele>764.0</ele><time>2026-03-29T12:11:35Z</time></trkpt><trkpt lat="37.047456115434876" lon="14.75126781429028"><ele>765.2</ele><time>2026-03-29T12:11:37Z</time></trkpt><trkpt lat="37.04752379668465" lon="14.75124699088626"><ele>766.4000000000001</ele><time>2026-03-29T12:11:41Z</time></trkpt><trkpt lat="37.04761853018623" lon="14.75116256122218"><ele>767.6</ele><time>2026-03-29T12:11:43Z</time></trkpt><trkpt lat="37.04764209610431" lon="14.751061968901569"><ele>768.8</ele><time>2026-03-29T12:11:46Z</time></trkpt><trkpt lat="37.04768670969901" lon="14.750931424858281"><ele>770.0</ele><time>2026-03-29T12:11:47Z</time></trkpt><trkpt lat="37.047654835592674" lon="14.750848468305396"><ele>770.8</ele><time>2026-03-29T12:11:49Z</time></trkpt><trkpt lat="37.047654060680614" lon="14.750702298720315"><ele>771.6</ele><time>2026-03-29T12:11:51Z</time></trkpt><trkpt lat="37.04768561776332" lon="14.750627308099572"><ele>772.4000000000001</ele><time>2026-03-29T12:11:53Z</time></trkpt><trkpt lat="37.04775040818252" lon="14.75055186266965"><ele>773.2</ele><time>2026-03-29T12:11:55Z</time></trkpt><trkpt lat="37.04769491371085" lon="14.750446983516875"><ele>774.0</ele><time>2026-03-29T12:11:57Z</time></trkpt><trkpt lat="37.0477332174215" lon="14.750363193940249"><ele>774.0</ele><time>2026-03-29T12:12:00Z</time></trkpt><trkpt lat="37.047750252257835" lon="14.750224345732875"><ele>774.0</ele><time>2026-03-29T12:12:02Z</time></trkpt><trkpt lat="37.047761553257644" lon="14.750137646755649"><ele>774.0</ele><time>2026-03-29T12:12:06Z</time></trkpt><trkpt lat="37.0476952410915" lon="14.750108691836035"><ele>774.0</ele><time>2026-03-29T12:12:08Z</time></trkpt><trkpt lat="37.04762704481343" lon="14.750059721785021"><ele>774.0</ele><time>2026-03-29T12:12:11Z</time></trkpt><trkpt lat="37.04757798898859" lon="14.750003472208837"><ele>774.0</ele><time>2026-03-29T12:12:13Z</time></trkpt><trkpt lat="37.04754840503407" lon="14.749901448257884"><ele>774.25</ele><time>2026-03-29T12:12:15Z</time></trkpt><trkpt lat="37.04750955807139" lon="14.74975041040508"><ele>774.5</ele><time>2026-03-29T12:12:17Z</time></trkpt><trkpt lat="37.047529851516146" lon="14.749614215276736"><ele>774.75</ele><time>2026-03-29T12:12:19Z</time></trkpt><trkpt lat="37.047535044804256" lon="14.749484367649755"><ele>775.0</ele><time>2026-03-29T12:12:21Z</time></trkpt><trkpt lat="37.04753316203444" lon="14.749278575065945"><ele>773.8</ele><time>2026-03-29T12:12:23Z</time></trkpt><trkpt lat="37.047503916095515" lon="14.749152319658933"><ele>772.6</ele><time>2026-03-29T12:12:24Z</time></trkpt><trkpt lat="37.047498740862416" lon="14.749034458964617"><ele>771.4000000000001</ele><time>2026-03-29T12:12:25Z</time></trkpt><trkpt lat="37.047475570484686" lon="14.748846876146425"><ele>770.2</ele><time>2026-03-29T12:12:27Z</time></trkpt><trkpt lat="37.047459987394845" lon="14.748731723133739"><ele>769.0</ele><time>2026-03-29T12:12:28Z</time></trkpt><trkpt lat="37.04742738987298" lon="14.748649271068603"><ele>764.6666666666666</ele><time>2026-03-29T12:12:29Z</time></trkpt><trkpt lat="37.04741616480125" lon="14.748539655915952"><ele>760.3333333333333</ele><time>2026-03-29T12:12:30Z</time></trkpt><trkpt lat="37.04741736315185" lon="14.748413297008314"><ele>756.0</ele><time>2026-03-29T12:12:31Z</time></trkpt><trkpt lat="37.047310132092626" lon="14.748096707554835"><ele>756.0</ele><time>2026-03-29T12:12:33Z</time></trkpt><trkpt lat="37.04727441094374" lon="14.747969608326358"><ele>756.0</ele><time>2026-03-29T12:12:34Z</time></trkpt><trkpt lat="37.04721709466615" lon="14.747846685152359"><ele>756.0</ele><time>2026-03-29T12:12:36Z</time></trkpt><trkpt lat="37.04718024623835" lon="14.747745344845402"><ele>756.0</ele><time>2026-03-29T12:12:38Z</time></trkpt><trkpt lat="37.04724826420758" lon="14.747753647925997"><ele>756.0</ele><time>2026-03-29T12:12:42Z</time></trkpt><trkpt lat="37.04731081914716" lon="14.747826933113638"><ele>756.0</ele><time>2026-03-29T12:12:44Z</time></trkpt><trkpt lat="37.04738708116156" lon="14.74787367013321"><ele>756.0</ele><time>2026-03-29T12:12:47Z</time></trkpt><trkpt lat="37.04744979016046" lon="14.747785282544546"><ele>756.0</ele><time>2026-03-29T12:12:51Z</time></trkpt><trkpt lat="37.047512857979754" lon="14.747762834871054"><ele>756.0</ele><time>2026-03-29T12:12:55Z</time></trkpt><trkpt lat="37.04756642313682" lon="14.747697032968512"><ele>756.0</ele><time>2026-03-29T12:13:00Z</time></trkpt><trkpt lat="37.04757811442086" lon="14.747599225051411"><ele>756.0</ele><time>2026-03-29T12:13:06Z</time></trkpt><trkpt lat="37.047638988819116" lon="14.74753702378415"><ele>754.5714285714286</ele><time>2026-03-29T12:13:10Z</time></trkpt><trkpt lat="37.047670672760646" lon="14.747427769617492"><ele>753.1428571428571</ele><time>2026-03-29T12:13:13Z</time></trkpt><trkpt lat="37.047710216361295" lon="14.747344671577377"><ele>751.7142857142858</ele><time>2026-03-29T12:13:16Z</time></trkpt><trkpt lat="37.04765184589379" lon="14.747300713186917"><ele>750.2857142857142</ele><time>2026-03-29T12:13:18Z</time></trkpt><trkpt lat="37.047601608349105" lon="14.747230269143797"><ele>748.8571428571429</ele><time>2026-03-29T12:13:21Z</time></trkpt><trkpt lat="37.04758760326103" lon="14.74715325062771"><ele>747.4285714285714</ele><time>2026-03-29T12:13:23Z</time></trkpt><trkpt lat="37.04763223728422" lon="14.747090896449578"><ele>746.0</ele><time>2026-03-29T12:13:26Z</time></trkpt><trkpt lat="37.04765701740353" lon="14.746994236844445"><ele>746.0</ele><time>2026-03-29T12:13:30Z</time></trkpt><trkpt lat="37.04771481030915" lon="14.74693660476179"><ele>746.0</ele><time>2026-03-29T12:13:34Z</time></trkpt><trkpt lat="37.04775563595606" lon="14.746874650455771"><ele>746.0</ele><time>2026-03-29T12:13:36Z</time></trkpt><trkpt lat="37.04782042030889" lon="14.746827240182647"><ele>746.0</ele><time>2026-03-29T12:13:40Z</time></trkpt><trkpt lat="37.04792634462161" lon="14.746835896060627"><ele>746.0</ele><time>2026-03-29T12:13:41Z</time></trkpt><trkpt lat="37.04799428429832" lon="14.746812900332213"><ele>746.0</ele><time>2026-03-29T12:13:43Z</time></trkpt><trkpt lat="37.04806596407802" lon="14.74674360679913"><ele>744.8</ele><time>2026-03-29T12:13:45Z</time></trkpt><trkpt lat="37.04814312743132" lon="14.74668065403547"><ele>743.5999999999999</ele><time>2026-03-29T12:13:47Z</time></trkpt><trkpt lat="37.048228673895075" lon="14.746657077907651"><ele>742.4</ele><time>2026-03-29T12:13:50Z</time></trkpt><trkpt lat="37.04828947791915" lon="14.746548039392575"><ele>741.2</ele><time>2026-03-29T12:13:53Z</time></trkpt><trkpt lat="37.04833994577997" lon="14.74649267427468"><ele>740.0</ele><time>2026-03-29T12:13:54Z</time></trkpt><trkpt lat="37.04836612059418" lon="14.74633079058995"><ele>740.0</ele><time>2026-03-29T12:13:56Z</time></trkpt><trkpt lat="37.048394405238575" lon="14.746165829372188"><ele>740.0</ele><time>2026-03-29T12:13:58Z</time></trkpt><trkpt lat="37.0484082272962" lon="14.746075202407514"><ele>740.0</ele><time>2026-03-29T12:14:00Z</time></trkpt><trkpt lat="37.04841323369554" lon="14.745986277410184"><ele>740.0</ele><time>2026-03-29T12:14:01Z</time></trkpt><trkpt lat="37.04836512862359" lon="14.745910558593023"><ele>740.0</ele><time>2026-03-29T12:14:03Z</time></trkpt><trkpt lat="37.04840776368947" lon="14.745848316179092"><ele>740.0</ele><time>2026-03-29T12:14:06Z</time></trkpt><trkpt lat="37.04842785921642" lon="14.745736438132834"><ele>740.2</ele><time>2026-03-29T12:14:09Z</time></trkpt><trkpt lat="37.04833657892303" lon="14.745699592274288"><ele>740.4</ele><time>2026-03-29T12:14:11Z</time></trkpt><trkpt lat="37.048303787120766" lon="14.74559993522393"><ele>740.5999999999999</ele><time>2026-03-29T12:14:13Z</time></trkpt><trkpt lat="37.04834334965304" lon="14.74540954689317"><ele>740.8</ele><time>2026-03-29T12:14:15Z</time></trkpt><trkpt lat="37.04837511170061" lon="14.745325469119624"><ele>741.0</ele><time>2026-03-29T12:14:25Z</time></trkpt><trkpt lat="37.048375783187915" lon="14.745212535497826"><ele>741.3333333333334</ele><time>2026-03-29T12:14:27Z</time></trkpt><trkpt lat="37.04838542659193" lon="14.745119714840111"><ele>741.6666666666666</ele><time>2026-03-29T12:14:29Z</time></trkpt><trkpt lat="37.04844626721743" lon="14.74516786771535"><ele>742.0</ele><time>2026-03-29T12:14:43Z</time></trkpt><trkpt lat="37.048521824545084" lon="14.745138864648643"><ele>742.3333333333333</ele><time>2026-03-29T12:15:03Z</time></trkpt><trkpt lat="37.04857171801745" lon="14.745082386759135"><ele>742.6666666666666</ele><time>2026-03-29T12:15:04Z</time></trkpt><trkpt lat="37.048607161242586" lon="14.744938213158576"><ele>743.0</ele><time>2026-03-29T12:15:06Z</time></trkpt><trkpt lat="37.048667747037" lon="14.74479989532964"><ele>743.0</ele><time>2026-03-29T12:15:08Z</time></trkpt><trkpt lat="37.04870405854201" lon="14.744659792565814"><ele>743.0</ele><time>2026-03-29T12:15:10Z</time></trkpt><trkpt lat="37.04874647000223" lon="14.744574068625175"><ele>743.0</ele><time>2026-03-29T12:15:11Z</time></trkpt><trkpt lat="37.0487899523695" lon="14.744506821225167"><ele>743.0</ele><time>2026-03-29T12:15:12Z</time></trkpt><trkpt lat="37.04883477163159" lon="14.744446145900453"><ele>743.0</ele><time>2026-03-29T12:15:13Z</time></trkpt><trkpt lat="37.048941615267196" lon="14.74440703673866"><ele>743.0</ele><time>2026-03-29T12:15:15Z</time></trkpt><trkpt lat="37.04900861351911" lon="14.744388800606822"><ele>743.0</ele><time>2026-03-29T12:15:16Z</time></trkpt><trkpt lat="37.04911162789748" lon="14.744391984956552"><ele>743.0</ele><time>2026-03-29T12:15:18Z</time></trkpt><trkpt lat="37.049168311653496" lon="14.74442857278204"><ele>743.0</ele><time>2026-03-29T12:15:19Z</time></trkpt><trkpt lat="37.04923273660955" lon="14.744495357116696"><ele>743.0</ele><time>2026-03-29T12:15:20Z</time></trkpt><trkpt lat="37.04931791848891" lon="14.744573150974874"><ele>743.0</ele><time>2026-03-29T12:15:21Z</time></trkpt><trkpt lat="37.04940677072485" lon="14.744635341529722"><ele>746.0</ele><time>2026-03-29T12:15:22Z</time></trkpt><trkpt lat="37.04950031327002" lon="14.744660093938869"><ele>749.0</ele><time>2026-03-29T12:15:23Z</time></trkpt><trkpt lat="37.0495827984584" lon="14.74468985435792"><ele>752.0</ele><time>2026-03-29T12:15:24Z</time></trkpt><trkpt lat="37.04967557045847" lon="14.744713444304905"><ele>755.0</ele><time>2026-03-29T12:15:25Z</time></trkpt><trkpt lat="37.04974514251916" lon="14.744717323691633"><ele>758.0</ele><time>2026-03-29T12:15:26Z</time></trkpt><trkpt lat="37.049820174602694" lon="14.74470111933916"><ele>761.0</ele><time>2026-03-29T12:15:27Z</time></trkpt><trkpt lat="37.04990622427468" lon="14.744686088018486"><ele>760.0</ele><time>2026-03-29T12:15:28Z</time></trkpt><trkpt lat="37.04998033537397" lon="14.744659100039115"><ele>759.0</ele><time>2026-03-29T12:15:29Z</time></trkpt><trkpt lat="37.050046119586916" lon="14.744647414497633"><ele>758.0</ele><time>2026-03-29T12:15:30Z</time></trkpt><trkpt lat="37.05014171274529" lon="14.744631423656346"><ele>757.0</ele><time>2026-03-29T12:15:32Z</time></trkpt><trkpt lat="37.05023032672801" lon="14.744531464492962"><ele>756.0</ele><time>2026-03-29T12:15:34Z</time></trkpt><trkpt lat="37.05032450968075" lon="14.74449596672179"><ele>756.0</ele><time>2026-03-29T12:15:36Z</time></trkpt><trkpt lat="37.050330480341856" lon="14.744578141517385"><ele>756.0</ele><time>2026-03-29T12:15:38Z</time></trkpt><trkpt lat="37.05037304448461" lon="14.744769008690247"><ele>756.0</ele><time>2026-03-29T12:15:41Z</time></trkpt><trkpt lat="37.05039561268303" lon="14.744850255771865"><ele>756.0</ele><time>2026-03-29T12:15:43Z</time></trkpt><trkpt lat="37.05042274858719" lon="14.74493366713452"><ele>756.0</ele><time>2026-03-29T12:15:44Z</time></trkpt><trkpt lat="37.05046207592529" lon="14.74504728466806"><ele>756.0</ele><time>2026-03-29T12:15:47Z</time></trkpt><trkpt lat="37.05041211837123" lon="14.74515420150457"><ele>756.0</ele><time>2026-03-29T12:15:51Z</time></trkpt><trkpt lat="37.05039798301507" lon="14.745270230730558"><ele>756.0</ele><time>2026-03-29T12:15:53Z</time></trkpt><trkpt lat="37.050332870461965" lon="14.745322153460505"><ele>756.0</ele><time>2026-03-29T12:15:55Z</time></trkpt><trkpt lat="37.050326442984556" lon="14.745435676481225"><ele>756.0</ele><time>2026-03-29T12:15:58Z</time></trkpt><trkpt lat="37.05024874807342" lon="14.745449904726275"><ele>756.0</ele><time>2026-03-29T12:16:00Z</time></trkpt><trkpt lat="37.05019727824423" lon="14.74551686643782"><ele>755.5</ele><time>2026-03-29T12:16:02Z</time></trkpt><trkpt lat="37.050129226072826" lon="14.745553579672732"><ele>755.0</ele><time>2026-03-29T12:16:06Z</time></trkpt><trkpt lat="37.05011372488698" lon="14.74564705430149"><ele>754.5</ele><time>2026-03-29T12:16:08Z</time></trkpt><trkpt lat="37.050085584214926" lon="14.745755749431108"><ele>754.0</ele><time>2026-03-29T12:16:10Z</time></trkpt><trkpt lat="37.05010191696589" lon="14.745834815878798"><ele>753.5</ele><time>2026-03-29T12:16:11Z</time></trkpt><trkpt lat="37.050040008654136" lon="14.745896192716199"><ele>753.0</ele><time>2026-03-29T12:16:14Z</time></trkpt><trkpt lat="37.050007722077694" lon="14.746027974507111"><ele>753.3333333333334</ele><time>2026-03-29T12:16:17Z</time></trkpt><trkpt lat="37.04989776108678" lon="14.746068995779527"><ele>753.6666666666666</ele><time>2026-03-29T12:16:19Z</time></trkpt><trkpt lat="37.049795639233565" lon="14.746094797251569"><ele>754.0</ele><time>2026-03-29T12:16:22Z</time></trkpt><trkpt lat="37.04972394298436" lon="14.746155475007173"><ele>754.3333333333333</ele><time>2026-03-29T12:16:25Z</time></trkpt><trkpt lat="37.04974345525586" lon="14.746068299887508"><ele>754.6666666666666</ele><time>2026-03-29T12:17:11Z</time></trkpt><trkpt lat="37.04971954979333" lon="14.74598552372855"><ele>755.0</ele><time>2026-03-29T12:17:15Z</time></trkpt><trkpt lat="37.049738309999995" lon="14.745905146462421"><ele>755.0</ele><time>2026-03-29T12:17:31Z</time></trkpt><trkpt lat="37.04970891569265" lon="14.745987918434595"><ele>755.0</ele><time>2026-03-29T12:17:43Z</time></trkpt><trkpt lat="37.049721460013394" lon="14.746066583824048"><ele>755.0</ele><time>2026-03-29T12:17:48Z</time></trkpt><trkpt lat="37.04965575560343" lon="14.74613022765712"><ele>755.0</ele><time>2026-03-29T12:18:24Z</time></trkpt><trkpt lat="37.04955942415696" lon="14.746125879800411"><ele>755.0</ele><time>2026-03-29T12:18:57Z</time></trkpt><trkpt lat="37.0496256934051" lon="14.746129173393973"><ele>755.0</ele><time>2026-03-29T12:19:52Z</time></trkpt><trkpt lat="37.0495554499919" lon="14.746125041705882"><ele>753.3333333333333</ele><time>2026-03-29T12:20:25Z</time></trkpt><trkpt lat="37.04957578260529" lon="14.746234145694988"><ele>751.6666666666666</ele><time>2026-03-29T12:20:29Z</time></trkpt><trkpt lat="37.04957968458481" lon="14.746317701544392"><ele>750.0</ele><time>2026-03-29T12:20:35Z</time></trkpt><trkpt lat="37.049511733105426" lon="14.74630867056374"><ele>748.3333333333334</ele><time>2026-03-29T12:20:39Z</time></trkpt><trkpt lat="37.0494475858037" lon="14.746330087513044"><ele>746.6666666666667</ele><time>2026-03-29T12:21:26Z</time></trkpt><trkpt lat="37.04937993037545" lon="14.746400087874244"><ele>745.0</ele><time>2026-03-29T12:21:29Z</time></trkpt><trkpt lat="37.04940844081782" lon="14.746501069204353"><ele>745.0</ele><time>2026-03-29T12:21:31Z</time></trkpt><trkpt lat="37.04947088620989" lon="14.746571896484003"><ele>745.0</ele><time>2026-03-29T12:21:33Z</time></trkpt><trkpt lat="37.04951166942314" lon="14.746654187732329"><ele>745.0</ele><time>2026-03-29T12:21:35Z</time></trkpt><trkpt lat="37.04952198690546" lon="14.746760241533119"><ele>745.0</ele><time>2026-03-29T12:21:37Z</time></trkpt><trkpt lat="37.049534711635424" lon="14.74687891693981"><ele>745.0</ele><time>2026-03-29T12:21:39Z</time></trkpt><trkpt lat="37.04958538152637" lon="14.746951298701688"><ele>745.0</ele><time>2026-03-29T12:21:41Z</time></trkpt><trkpt lat="37.049653868211145" lon="14.74697102596059"><ele>744.8333333333334</ele><time>2026-03-29T12:21:43Z</time></trkpt><trkpt lat="37.04973949712438" lon="14.747008729114778"><ele>744.6666666666667</ele><time>2026-03-29T12:21:45Z</time></trkpt><trkpt lat="37.04978354528296" lon="14.74707784346667"><ele>744.5</ele><time>2026-03-29T12:21:48Z</time></trkpt><trkpt lat="37.04984938998239" lon="14.747169219578149"><ele>744.3333333333334</ele><time>2026-03-29T12:21:55Z</time></trkpt><trkpt lat="37.04987593098119" lon="14.747252585753925"><ele>744.1666666666666</ele><time>2026-03-29T12:21:57Z</time></trkpt><trkpt lat="37.04992558988738" lon="14.747315045992503"><ele>744.0</ele><time>2026-03-29T12:21:59Z</time></trkpt><trkpt lat="37.049988195160644" lon="14.747403201314535"><ele>741.6666666666666</ele><time>2026-03-29T12:22:01Z</time></trkpt><trkpt lat="37.05005001388465" lon="14.747451483954109"><ele>739.3333333333334</ele><time>2026-03-29T12:22:03Z</time></trkpt><trkpt lat="37.05012205712283" lon="14.747494977483573"><ele>737.0</ele><time>2026-03-29T12:22:05Z</time></trkpt><trkpt lat="37.05018523732702" lon="14.74753453302066"><ele>734.6666666666667</ele><time>2026-03-29T12:22:07Z</time></trkpt><trkpt lat="37.050282725801225" lon="14.747652012190674"><ele>732.3333333333334</ele><time>2026-03-29T12:22:09Z</time></trkpt><trkpt lat="37.05033608618748" lon="14.747712190174646"><ele>730.0</ele><time>2026-03-29T12:22:10Z</time></trkpt><trkpt lat="37.05039656433555" lon="14.74778363558106"><ele>729.0</ele><time>2026-03-29T12:22:11Z</time></trkpt><trkpt lat="37.05044861817182" lon="14.747828779303049"><ele>728.0</ele><time>2026-03-29T12:22:12Z</time></trkpt><trkpt lat="37.05052914904697" lon="14.747896836106971"><ele>727.0</ele><time>2026-03-29T12:22:14Z</time></trkpt><trkpt lat="37.05061397029976" lon="14.747943612352465"><ele>726.0</ele><time>2026-03-29T12:22:17Z</time></trkpt><trkpt lat="37.05066091097037" lon="14.748012222046237"><ele>725.0</ele><time>2026-03-29T12:22:35Z</time></trkpt><trkpt lat="37.05061889432729" lon="14.748077626586806"><ele>724.0</ele><time>2026-03-29T12:22:40Z</time></trkpt><trkpt lat="37.050529573863244" lon="14.748074775456168"><ele>724.0</ele><time>2026-03-29T12:22:42Z</time></trkpt><trkpt lat="37.050410665361824" lon="14.748076791586644"><ele>724.0</ele><time>2026-03-29T12:22:43Z</time></trkpt><trkpt lat="37.05029063994798" lon="14.748068722865762"><ele>724.0</ele><time>2026-03-29T12:22:44Z</time></trkpt><trkpt lat="37.05018526553452" lon="14.748052212979264"><ele>724.0</ele><time>2026-03-29T12:22:45Z</time></trkpt><trkpt lat="37.050095120848106" lon="14.748064827686074"><ele>724.0</ele><time>2026-03-29T12:22:46Z</time></trkpt><trkpt lat="37.049986597979334" lon="14.748065011018676"><ele>727.2</ele><time>2026-03-29T12:22:48Z</time></trkpt><trkpt lat="37.04986274929831" lon="14.748099496697169"><ele>730.4000000000001</ele><time>2026-03-29T12:22:50Z</time></trkpt><trkpt lat="37.04979951901771" lon="14.748149033444484"><ele>733.6</ele><time>2026-03-29T12:22:51Z</time></trkpt><trkpt lat="37.04973903223866" lon="14.748180476556715"><ele>736.8</ele><time>2026-03-29T12:22:52Z</time></trkpt><trkpt lat="37.04962169600651" lon="14.748180577179436"><ele>740.0</ele><time>2026-03-29T12:22:54Z</time></trkpt><trkpt lat="37.04955427451438" lon="14.748178460136407"><ele>740.0</ele><time>2026-03-29T12:22:57Z</time></trkpt><trkpt lat="37.049572283009354" lon="14.748274070265952"><ele>740.0</ele><time>2026-03-29T12:23:19Z</time></trkpt><trkpt lat="37.04962101936003" lon="14.748201480986078"><ele>740.0</ele><time>2026-03-29T12:23:58Z</time></trkpt><trkpt lat="37.04959923810713" lon="14.74828003865169"><ele>740.0</ele><time>2026-03-29T12:24:26Z</time></trkpt><trkpt lat="37.049647338157094" lon="14.74822057801098"><ele>740.0</ele><time>2026-03-29T12:24:49Z</time></trkpt><trkpt lat="37.04954352762845" lon="14.748186234585868"><ele>740.0</ele><time>2026-03-29T12:24:57Z</time></trkpt><trkpt lat="37.04943226636029" lon="14.748170935561376"><ele>740.0</ele><time>2026-03-29T12:24:59Z</time></trkpt><trkpt lat="37.04933474295437" lon="14.748183361983482"><ele>740.0</ele><time>2026-03-29T12:25:01Z</time></trkpt><trkpt lat="37.04927062445761" lon="14.748202868078268"><ele>740.0</ele><time>2026-03-29T12:25:03Z</time></trkpt><trkpt lat="37.04919805292998" lon="14.748182345963256"><ele>740.0</ele><time>2026-03-29T12:25:06Z</time></trkpt><trkpt lat="37.049115911941335" lon="14.748186228779694"><ele>740.0</ele><time>2026-03-29T12:25:08Z</time></trkpt><trkpt lat="37.04906773520177" lon="14.748248508658026"><ele>740.0</ele><time>2026-03-29T12:25:11Z</time></trkpt><trkpt lat="37.04910360410968" lon="14.748380790312432"><ele>740.0</ele><time>2026-03-29T12:25:13Z</time></trkpt><trkpt lat="37.04916663775449" lon="14.748488991901041"><ele>740.0</ele><time>2026-03-29T12:25:15Z</time></trkpt><trkpt lat="37.04921064418517" lon="14.748572145094997"><ele>740.0</ele><time>2026-03-29T12:25:17Z</time></trkpt><trkpt lat="37.049212742525384" lon="14.748674459563043"><ele>740.0</ele><time>2026-03-29T12:25:21Z</time></trkpt><trkpt lat="37.049187829182536" lon="14.748758960267251"><ele>740.0</ele><time>2026-03-29T12:25:24Z</time></trkpt><trkpt lat="37.04915776251545" lon="14.748834388834243"><ele>740.0</ele><time>2026-03-29T12:25:27Z</time></trkpt><trkpt lat="37.049109007343006" lon="14.748952709252233"><ele>741.9999999999999</ele><time>2026-03-29T12:25:29Z</time></trkpt><trkpt lat="37.049063020292095" lon="14.749014911673045"><ele>744.0</ele><time>2026-03-29T12:25:31Z</time></trkpt><trkpt lat="37.04902080555442" lon="14.749087490556965"><ele>746.0</ele><time>2026-03-29T12:25:33Z</time></trkpt><trkpt lat="37.04896597190667" lon="14.749141086482432"><ele>748.0</ele><time>2026-03-29T12:25:35Z</time></trkpt><trkpt lat="37.04891294252472" lon="14.749188940945478"><ele>750.0</ele><time>2026-03-29T12:25:37Z</time></trkpt><trkpt lat="37.04886336637005" lon="14.74925350722165"><ele>751.9999999999999</ele><time>2026-03-29T12:25:39Z</time></trkpt><trkpt lat="37.04881013941597" lon="14.749311521368057"><ele>754.0</ele><time>2026-03-29T12:25:41Z</time></trkpt><trkpt lat="37.04879686150454" lon="14.749393062957454"><ele>754.0</ele><time>2026-03-29T12:25:43Z</time></trkpt><trkpt lat="37.04871929111658" lon="14.74945391500692"><ele>754.0</ele><time>2026-03-29T12:25:45Z</time></trkpt><trkpt lat="37.048723509373126" lon="14.74953450261074"><ele>754.0</ele><time>2026-03-29T12:25:47Z</time></trkpt><trkpt lat="37.04873179614407" lon="14.74964540908748"><ele>754.0</ele><time>2026-03-29T12:25:50Z</time></trkpt><trkpt lat="37.04877471936662" lon="14.749752118127933"><ele>754.0</ele><time>2026-03-29T12:25:53Z</time></trkpt><trkpt lat="37.0487741511229" lon="14.749867205093155"><ele>754.0</ele><time>2026-03-29T12:25:54Z</time></trkpt><trkpt lat="37.04879971816493" lon="14.74997134663606"><ele>754.0</ele><time>2026-03-29T12:25:57Z</time></trkpt><trkpt lat="37.048859658406144" lon="14.750059986303855"><ele>754.0</ele><time>2026-03-29T12:26:00Z</time></trkpt><trkpt lat="37.04890782787884" lon="14.75012284289386"><ele>754.0</ele><time>2026-03-29T12:26:02Z</time></trkpt><trkpt lat="37.04897456778933" lon="14.750180260886461"><ele>754.0</ele><time>2026-03-29T12:26:06Z</time></trkpt><trkpt lat="37.04901112612855" lon="14.75025123977464"><ele>754.0</ele><time>2026-03-29T12:26:08Z</time></trkpt><trkpt lat="37.04905170776925" lon="14.750359349889585"><ele>754.0</ele><time>2026-03-29T12:26:12Z</time></trkpt><trkpt lat="37.049038583144124" lon="14.750525266688694"><ele>754.8000000000001</ele><time>2026-03-29T12:26:14Z</time></trkpt><trkpt lat="37.049075189806196" lon="14.750623026211622"><ele>755.6</ele><time>2026-03-29T12:26:16Z</time></trkpt><trkpt lat="37.04910339991301" lon="14.750736118139075"><ele>756.4</ele><time>2026-03-29T12:26:18Z</time></trkpt><trkpt lat="37.0491692646858" lon="14.750788108107376"><ele>757.2</ele><time>2026-03-29T12:26:20Z</time></trkpt><trkpt lat="37.04921006628256" lon="14.750852620776673"><ele>758.0</ele><time>2026-03-29T12:26:22Z</time></trkpt><trkpt lat="37.04939641983608" lon="14.750952045676655"><ele>754.3333333333333</ele><time>2026-03-29T12:26:27Z</time></trkpt><trkpt lat="37.049454329664535" lon="14.750989752396825"><ele>750.6666666666666</ele><time>2026-03-29T12:26:29Z</time></trkpt><trkpt lat="37.049686862405494" lon="14.75115162895503"><ele>747.0</ele><time>2026-03-29T12:26:33Z</time></trkpt><trkpt lat="37.04981604339194" lon="14.751176396615495"><ele>747.0</ele><time>2026-03-29T12:26:34Z</time></trkpt><trkpt lat="37.04989995146449" lon="14.75117169089158"><ele>747.0</ele><time>2026-03-29T12:26:35Z</time></trkpt><trkpt lat="37.0500004208683" lon="14.751114563697227"><ele>747.0</ele><time>2026-03-29T12:26:37Z</time></trkpt><trkpt lat="37.05009464998457" lon="14.751130966193244"><ele>747.0</ele><time>2026-03-29T12:26:39Z</time></trkpt><trkpt lat="37.050166658652216" lon="14.75122346998943"><ele>747.0</ele><time>2026-03-29T12:26:41Z</time></trkpt><trkpt lat="37.050268478949754" lon="14.751312950567275"><ele>745.6</ele><time>2026-03-29T12:26:43Z</time></trkpt><trkpt lat="37.05033011719093" lon="14.751338933262018"><ele>744.2</ele><time>2026-03-29T12:26:44Z</time></trkpt><trkpt lat="37.050394651397816" lon="14.751428175004376"><ele>742.8</ele><time>2026-03-29T12:26:46Z</time></trkpt><trkpt lat="37.050417964486435" lon="14.751554456955525"><ele>741.4</ele><time>2026-03-29T12:26:48Z</time></trkpt><trkpt lat="37.05038693424946" lon="14.751671759218052"><ele>740.0</ele><time>2026-03-29T12:26:50Z</time></trkpt><trkpt lat="37.050361994989025" lon="14.751781047483393"><ele>739.6</ele><time>2026-03-29T12:26:52Z</time></trkpt><trkpt lat="37.05032584756687" lon="14.751943267576351"><ele>739.2</ele><time>2026-03-29T12:26:56Z</time></trkpt><trkpt lat="37.05031983398141" lon="14.75203077235641"><ele>738.8</ele><time>2026-03-29T12:26:59Z</time></trkpt><trkpt lat="37.05036649443284" lon="14.75214607522338"><ele>738.4</ele><time>2026-03-29T12:27:00Z</time></trkpt><trkpt lat="37.05042005961668" lon="14.752288265188605"><ele>738.0</ele><time>2026-03-29T12:27:01Z</time></trkpt><trkpt lat="37.05042693179805" lon="14.752412643424622"><ele>738.0</ele><time>2026-03-29T12:27:02Z</time></trkpt><trkpt lat="37.05044884144065" lon="14.752501645017329"><ele>738.0</ele><time>2026-03-29T12:27:03Z</time></trkpt><trkpt lat="37.05049161321698" lon="14.752600493157448"><ele>738.0</ele><time>2026-03-29T12:27:05Z</time></trkpt><trkpt lat="37.05053020845627" lon="14.752667161953882"><ele>738.0</ele><time>2026-03-29T12:27:07Z</time></trkpt><trkpt lat="37.05058396157786" lon="14.752709738016984"><ele>738.0</ele><time>2026-03-29T12:27:32Z</time></trkpt><trkpt lat="37.05064218032035" lon="14.752771663131966"><ele>738.0</ele><time>2026-03-29T12:27:34Z</time></trkpt><trkpt lat="37.050721483275446" lon="14.752838772168541"><ele>736.6666666666666</ele><time>2026-03-29T12:27:36Z</time></trkpt><trkpt lat="37.0508082397114" lon="14.752842963747973"><ele>735.3333333333334</ele><time>2026-03-29T12:27:38Z</time></trkpt><trkpt lat="37.050894044997825" lon="14.752825025739137"><ele>734.0</ele><time>2026-03-29T12:27:40Z</time></trkpt><trkpt lat="37.05096633448779" lon="14.752802836130746"><ele>732.6666666666667</ele><time>2026-03-29T12:27:42Z</time></trkpt><trkpt lat="37.05104022202043" lon="14.75273349089661"><ele>731.3333333333334</ele><time>2026-03-29T12:27:44Z</time></trkpt><trkpt lat="37.05107301523405" lon="14.752626086513368"><ele>730.0</ele><time>2026-03-29T12:27:46Z</time></trkpt><trkpt lat="37.05114356011675" lon="14.752599372789673"><ele>730.0</ele><time>2026-03-29T12:27:48Z</time></trkpt><trkpt lat="37.05123134923404" lon="14.75259417012289"><ele>730.0</ele><time>2026-03-29T12:27:50Z</time></trkpt><trkpt lat="37.051307634947605" lon="14.752641199640102"><ele>730.0</ele><time>2026-03-29T12:27:52Z</time></trkpt><trkpt lat="37.0513887627927" lon="14.75262902571486"><ele>730.0</ele><time>2026-03-29T12:27:54Z</time></trkpt><trkpt lat="37.05144636923074" lon="14.75254178340767"><ele>730.0</ele><time>2026-03-29T12:27:56Z</time></trkpt><trkpt lat="37.051501934787304" lon="14.752484258417098"><ele>730.0</ele><time>2026-03-29T12:27:58Z</time></trkpt><trkpt lat="37.0515819804998" lon="14.75247946927367"><ele>728.1428571428572</ele><time>2026-03-29T12:28:00Z</time></trkpt><trkpt lat="37.05166606197633" lon="14.752443331326067"><ele>726.2857142857143</ele><time>2026-03-29T12:28:02Z</time></trkpt><trkpt lat="37.05173331004358" lon="14.752491359905752"><ele>724.4285714285714</ele><time>2026-03-29T12:28:04Z</time></trkpt><trkpt lat="37.05179600990737" lon="14.75249844814802"><ele>722.5714285714287</ele><time>2026-03-29T12:28:06Z</time></trkpt><trkpt lat="37.05184073624855" lon="14.752576520409088"><ele>720.7142857142857</ele><time>2026-03-29T12:28:11Z</time></trkpt><trkpt lat="37.05186114731843" lon="14.752653000033723"><ele>718.8571428571429</ele><time>2026-03-29T12:28:14Z</time></trkpt><trkpt lat="37.05190746443591" lon="14.75270650795847"><ele>717.0</ele><time>2026-03-29T12:28:18Z</time></trkpt><trkpt lat="37.05194999663216" lon="14.752766774201877"><ele>717.1666666666666</ele><time>2026-03-29T12:28:28Z</time></trkpt><trkpt lat="37.051884708920426" lon="14.752815085629221"><ele>717.3333333333334</ele><time>2026-03-29T12:28:32Z</time></trkpt><trkpt lat="37.05180449899385" lon="14.75283910871321"><ele>717.5</ele><time>2026-03-29T12:28:34Z</time></trkpt><trkpt lat="37.05171816770325" lon="14.752828719643762"><ele>717.6666666666667</ele><time>2026-03-29T12:28:36Z</time></trkpt><trkpt lat="37.05163199844592" lon="14.752861833643093"><ele>717.8333333333334</ele><time>2026-03-29T12:28:38Z</time></trkpt><trkpt lat="37.051533393331965" lon="14.752931814966752"><ele>718.0</ele><time>2026-03-29T12:28:40Z</time></trkpt><trkpt lat="37.05142152211361" lon="14.752971925793801"><ele>718.0</ele><time>2026-03-29T12:28:42Z</time></trkpt><trkpt lat="37.05135325452476" lon="14.753003701434217"><ele>718.0</ele><time>2026-03-29T12:28:43Z</time></trkpt><trkpt lat="37.051282913241266" lon="14.753092178638575"><ele>718.0</ele><time>2026-03-29T12:28:45Z</time></trkpt><trkpt lat="37.05123728393909" lon="14.753236117092676"><ele>718.0</ele><time>2026-03-29T12:28:47Z</time></trkpt><trkpt lat="37.05116387922408" lon="14.753368139305298"><ele>718.0</ele><time>2026-03-29T12:28:49Z</time></trkpt><trkpt lat="37.05113989385181" lon="14.753458773349553"><ele>718.0</ele><time>2026-03-29T12:28:51Z</time></trkpt><trkpt lat="37.05107462131549" lon="14.753498599569244"><ele>718.0</ele><time>2026-03-29T12:28:54Z</time></trkpt><trkpt lat="37.05101043902672" lon="14.753528880552668"><ele>718.0</ele><time>2026-03-29T12:28:56Z</time></trkpt><trkpt lat="37.05093622089421" lon="14.753576182937143"><ele>718.0</ele><time>2026-03-29T12:28:59Z</time></trkpt><trkpt lat="37.050812493021105" lon="14.75363268548406"><ele>718.0</ele><time>2026-03-29T12:29:01Z</time></trkpt><trkpt lat="37.050741092463646" lon="14.753652694565217"><ele>718.0</ele><time>2026-03-29T12:29:02Z</time></trkpt><trkpt lat="37.05067941612679" lon="14.753684226835288"><ele>717.1666666666667</ele><time>2026-03-29T12:29:03Z</time></trkpt><trkpt lat="37.050612145880244" lon="14.753721457259356"><ele>716.3333333333334</ele><time>2026-03-29T12:29:04Z</time></trkpt><trkpt lat="37.05054426877888" lon="14.753751927950042"><ele>715.5</ele><time>2026-03-29T12:29:06Z</time></trkpt><trkpt lat="37.05048170180885" lon="14.753692534721845"><ele>714.6666666666666</ele><time>2026-03-29T12:29:09Z</time></trkpt><trkpt lat="37.05040789340858" lon="14.753655756534451"><ele>713.8333333333333</ele><time>2026-03-29T12:29:11Z</time></trkpt><trkpt lat="37.050339558542156" lon="14.753604348879158"><ele>713.0</ele><time>2026-03-29T12:29:13Z</time></trkpt><trkpt lat="37.050281108877016" lon="14.753655711580361"><ele>713.0</ele><time>2026-03-29T12:29:18Z</time></trkpt><trkpt lat="37.05031280722469" lon="14.75375056399847"><ele>713.0</ele><time>2026-03-29T12:29:20Z</time></trkpt><trkpt lat="37.050431613545626" lon="14.753890069888053"><ele>713.0</ele><time>2026-03-29T12:29:24Z</time></trkpt><trkpt lat="37.05043531913007" lon="14.753994236384882"><ele>713.0</ele><time>2026-03-29T12:29:25Z</time></trkpt><trkpt lat="37.05046985431035" lon="14.754091981962093"><ele>713.0</ele><time>2026-03-29T12:29:27Z</time></trkpt><trkpt lat="37.050541305454374" lon="14.754146843659958"><ele>713.0</ele><time>2026-03-29T12:29:30Z</time></trkpt><trkpt lat="37.05059027720456" lon="14.754201506135276"><ele>713.0</ele><time>2026-03-29T12:29:34Z</time></trkpt><trkpt lat="37.05062587680546" lon="14.754287603273642"><ele>713.0</ele><time>2026-03-29T12:29:48Z</time></trkpt><trkpt lat="37.050549148592964" lon="14.754333861317601"><ele>713.0</ele><time>2026-03-29T12:29:53Z</time></trkpt><trkpt lat="37.05055077991984" lon="14.754429115315684"><ele>713.0</ele><time>2026-03-29T12:29:55Z</time></trkpt><trkpt lat="37.05059700401253" lon="14.75449107717787"><ele>713.0</ele><time>2026-03-29T12:29:59Z</time></trkpt><trkpt lat="37.05056745862648" lon="14.7543911705368"><ele>713.7142857142857</ele><time>2026-03-29T12:31:06Z</time></trkpt><trkpt lat="37.0505450946074" lon="14.754475165104761"><ele>714.4285714285714</ele><time>2026-03-29T12:31:10Z</time></trkpt><trkpt lat="37.05060264583455" lon="14.754434009605605"><ele>715.1428571428571</ele><time>2026-03-29T12:31:25Z</time></trkpt><trkpt lat="37.05054003489914" lon="14.754374883131916"><ele>715.8571428571429</ele><time>2026-03-29T12:32:12Z</time></trkpt><trkpt lat="37.050512548856105" lon="14.75445631861968"><ele>716.5714285714287</ele><time>2026-03-29T12:32:49Z</time></trkpt><trkpt lat="37.05057708501198" lon="14.754479975111966"><ele>717.2857142857143</ele><time>2026-03-29T12:33:03Z</time></trkpt><trkpt lat="37.050500371998744" lon="14.754473368254812"><ele>718.0</ele><time>2026-03-29T12:34:01Z</time></trkpt><trkpt lat="37.050583241163935" lon="14.754480096815108"><ele>718.0</ele><time>2026-03-29T12:34:14Z</time></trkpt><trkpt lat="37.050648609813486" lon="14.754462948109307"><ele>718.0</ele><time>2026-03-29T12:34:20Z</time></trkpt><trkpt lat="37.05068660809831" lon="14.754394753198763"><ele>718.0</ele><time>2026-03-29T12:34:29Z</time></trkpt><trkpt lat="37.05073976833131" lon="14.754448507635665"><ele>718.0</ele><time>2026-03-29T12:34:39Z</time></trkpt><trkpt lat="37.0508013236814" lon="14.754479246493375"><ele>718.0</ele><time>2026-03-29T12:34:49Z</time></trkpt><trkpt lat="37.05092812474958" lon="14.75442831057533"><ele>718.0</ele><time>2026-03-29T12:35:26Z</time></trkpt><trkpt lat="37.05101892329066" lon="14.754418932053845"><ele>719.0</ele><time>2026-03-29T12:35:28Z</time></trkpt><trkpt lat="37.05113384242354" lon="14.754415736502095"><ele>720.0</ele><time>2026-03-29T12:35:32Z</time></trkpt><trkpt lat="37.051222350231946" lon="14.754355984946056"><ele>721.0</ele><time>2026-03-29T12:35:35Z</time></trkpt><trkpt lat="37.051281228601184" lon="14.754308606209324"><ele>722.0</ele><time>2026-03-29T12:35:37Z</time></trkpt><trkpt lat="37.051380347022494" lon="14.754293695540627"><ele>723.0</ele><time>2026-03-29T12:35:39Z</time></trkpt><trkpt lat="37.05148313887418" lon="14.754248994572952"><ele>720.0</ele><time>2026-03-29T12:35:41Z</time></trkpt><trkpt lat="37.051532850943985" lon="14.754167720314147"><ele>717.0</ele><time>2026-03-29T12:35:44Z</time></trkpt><trkpt lat="37.05159925172875" lon="14.754121088221027"><ele>714.0</ele><time>2026-03-29T12:35:47Z</time></trkpt><trkpt lat="37.05167270706652" lon="14.754094281260643"><ele>711.0</ele><time>2026-03-29T12:35:49Z</time></trkpt><trkpt lat="37.05175269186037" lon="14.754064971582594"><ele>708.0</ele><time>2026-03-29T12:35:51Z</time></trkpt><trkpt lat="37.05183017977839" lon="14.753996656771939"><ele>705.0</ele><time>2026-03-29T12:35:54Z</time></trkpt><trkpt lat="37.05189660317647" lon="14.753983666493584"><ele>704.6666666666666</ele><time>2026-03-29T12:35:56Z</time></trkpt><trkpt lat="37.05195386474299" lon="14.75393474914738"><ele>704.3333333333334</ele><time>2026-03-29T12:35:59Z</time></trkpt><trkpt lat="37.05201780479027" lon="14.753922452159301"><ele>704.0</ele><time>2026-03-29T12:36:01Z</time></trkpt><trkpt lat="37.052089683642265" lon="14.753887160105961"><ele>703.6666666666667</ele><time>2026-03-29T12:36:03Z</time></trkpt><trkpt lat="37.052179633462515" lon="14.75389791898345"><ele>703.3333333333334</ele><time>2026-03-29T12:36:06Z</time></trkpt><trkpt lat="37.05224756163978" lon="14.753878084166002"><ele>703.0</ele><time>2026-03-29T12:36:07Z</time></trkpt><trkpt lat="37.05231227249601" lon="14.753802014145911"><ele>702.0</ele><time>2026-03-29T12:36:10Z</time></trkpt><trkpt lat="37.05253745119445" lon="14.753787974078907"><ele>701.0</ele><time>2026-03-29T12:36:14Z</time></trkpt><trkpt lat="37.05263212259199" lon="14.753821229719737"><ele>700.0</ele><time>2026-03-29T12:36:16Z</time></trkpt><trkpt lat="37.05271415010693" lon="14.753823166190461"><ele>699.0</ele><time>2026-03-29T12:36:17Z</time></trkpt><trkpt lat="37.052929160683675" lon="14.753785478635692"><ele>699.0</ele><time>2026-03-29T12:36:26Z</time></trkpt><trkpt lat="37.05300349748751" lon="14.753734639718399"><ele>699.0</ele><time>2026-03-29T12:36:31Z</time></trkpt><trkpt lat="37.053022058492964" lon="14.753655704177877"><ele>699.0</ele><time>2026-03-29T12:37:24Z</time></trkpt><trkpt lat="37.05312109703901" lon="14.753637935064985"><ele>699.0</ele><time>2026-03-29T12:37:26Z</time></trkpt><trkpt lat="37.05318813488988" lon="14.753603714594426"><ele>699.0</ele><time>2026-03-29T12:37:27Z</time></trkpt><trkpt lat="37.05326401342778" lon="14.7535864382859"><ele>699.0</ele><time>2026-03-29T12:37:28Z</time></trkpt><trkpt lat="37.05335893618949" lon="14.753563994913307"><ele>695.6666666666666</ele><time>2026-03-29T12:37:29Z</time></trkpt><trkpt lat="37.05343464517511" lon="14.753531943130726"><ele>692.3333333333334</ele><time>2026-03-29T12:37:30Z</time></trkpt><trkpt lat="37.05350090382583" lon="14.753519391415946"><ele>689.0</ele><time>2026-03-29T12:37:31Z</time></trkpt><trkpt lat="37.05360322776294" lon="14.753487685028613"><ele>685.6666666666667</ele><time>2026-03-29T12:37:33Z</time></trkpt><trkpt lat="37.053696799723504" lon="14.75346489173229"><ele>682.3333333333334</ele><time>2026-03-29T12:37:35Z</time></trkpt><trkpt lat="37.05377039913003" lon="14.75345830023292"><ele>679.0</ele><time>2026-03-29T12:37:37Z</time></trkpt><trkpt lat="37.05379677031389" lon="14.753381410829403"><ele>679.0</ele><time>2026-03-29T12:37:39Z</time></trkpt><trkpt lat="37.05377853453909" lon="14.753292342428278"><ele>679.0</ele><time>2026-03-29T12:37:41Z</time></trkpt><trkpt lat="37.05376971331025" lon="14.753213831375104"><ele>679.0</ele><time>2026-03-29T12:37:43Z</time></trkpt><trkpt lat="37.053740918044234" lon="14.753129628739773"><ele>679.0</ele><time>2026-03-29T12:37:47Z</time></trkpt><trkpt lat="37.053736811123535" lon="14.753050253052574"><ele>679.0</ele><time>2026-03-29T12:37:50Z</time></trkpt><trkpt lat="37.05373742432121" lon="14.752969195414535"><ele>679.0</ele><time>2026-03-29T12:38:11Z</time></trkpt><trkpt lat="37.05371969308855" lon="14.752884327741011"><ele>679.0</ele><time>2026-03-29T12:38:54Z</time></trkpt><trkpt lat="37.05370584301086" lon="14.752766047942456"><ele>681.6666666666667</ele><time>2026-03-29T12:38:56Z</time></trkpt><trkpt lat="37.05369086689255" lon="14.752657269060144"><ele>684.3333333333334</ele><time>2026-03-29T12:38:57Z</time></trkpt><trkpt lat="37.05372911545742" lon="14.752406971545657"><ele>687.0</ele><time>2026-03-29T12:38:58Z</time></trkpt><trkpt lat="37.05366752090646" lon="14.752206609235541"><ele>687.0</ele><time>2026-03-29T12:38:59Z</time></trkpt><trkpt lat="37.053618904708706" lon="14.752010160010911"><ele>687.0</ele><time>2026-03-29T12:39:00Z</time></trkpt><trkpt lat="37.05357084004229" lon="14.751843372178627"><ele>687.0</ele><time>2026-03-29T12:39:01Z</time></trkpt><trkpt lat="37.05352815265517" lon="14.751701166404796"><ele>687.0</ele><time>2026-03-29T12:39:02Z</time></trkpt><trkpt lat="37.053486737429125" lon="14.751584641394686"><ele>686.6666666666666</ele><time>2026-03-29T12:39:03Z</time></trkpt><trkpt lat="37.053456537864925" lon="14.751470943251618"><ele>686.3333333333334</ele><time>2026-03-29T12:39:04Z</time></trkpt><trkpt lat="37.05343736876251" lon="14.75137704850618"><ele>686.0</ele><time>2026-03-29T12:39:05Z</time></trkpt><trkpt lat="37.05341632295018" lon="14.751284054759559"><ele>685.6666666666667</ele><time>2026-03-29T12:39:06Z</time></trkpt><trkpt lat="37.053380592852214" lon="14.751217965598041"><ele>685.3333333333334</ele><time>2026-03-29T12:39:07Z</time></trkpt><trkpt lat="37.05334225884048" lon="14.751077304274746"><ele>685.0</ele><time>2026-03-29T12:39:09Z</time></trkpt><trkpt lat="37.05329104767924" lon="14.750932585076363"><ele>686.6</ele><time>2026-03-29T12:39:11Z</time></trkpt><trkpt lat="37.05323969182797" lon="14.750803734035046"><ele>688.2</ele><time>2026-03-29T12:39:13Z</time></trkpt><trkpt lat="37.05320310765647" lon="14.750657457271181"><ele>689.8</ele><time>2026-03-29T12:39:15Z</time></trkpt><trkpt lat="37.05315497790759" lon="14.750562563541191"><ele>691.4</ele><time>2026-03-29T12:39:16Z</time></trkpt><trkpt lat="37.05309073377463" lon="14.750474510426852"><ele>693.0</ele><time>2026-03-29T12:39:17Z</time></trkpt><trkpt lat="37.053038044391585" lon="14.750403639653758"><ele>693.0</ele><time>2026-03-29T12:39:18Z</time></trkpt><trkpt lat="37.0529822648119" lon="14.750340605647828"><ele>693.0</ele><time>2026-03-29T12:39:19Z</time></trkpt><trkpt lat="37.05288814659236" lon="14.75026057128321"><ele>693.0</ele><time>2026-03-29T12:39:21Z</time></trkpt><trkpt lat="37.0527968376552" lon="14.750164688091843"><ele>693.0</ele><time>2026-03-29T12:39:23Z</time></trkpt><trkpt lat="37.05270976551723" lon="14.750073336058856"><ele>693.0</ele><time>2026-03-29T12:39:25Z</time></trkpt><trkpt lat="37.052659770108434" lon="14.7500250092071"><ele>688.3333333333334</ele><time>2026-03-29T12:39:26Z</time></trkpt><trkpt lat="37.05256730588821" lon="14.74993774840802"><ele>683.6666666666667</ele><time>2026-03-29T12:39:28Z</time></trkpt><trkpt lat="37.05227617346804" lon="14.74991035765424"><ele>679.0</ele><time>2026-03-29T12:39:29Z</time></trkpt><trkpt lat="37.05209914099835" lon="14.749874625281999"><ele>679.0</ele><time>2026-03-29T12:39:30Z</time></trkpt><trkpt lat="37.05196723112828" lon="14.749794727049514"><ele>679.0</ele><time>2026-03-29T12:39:31Z</time></trkpt><trkpt lat="37.05185550297825" lon="14.749745304950254"><ele>679.0</ele><time>2026-03-29T12:39:32Z</time></trkpt><trkpt lat="37.051766001551684" lon="14.749676557259642"><ele>679.0</ele><time>2026-03-29T12:39:33Z</time></trkpt><trkpt lat="37.0516732856676" lon="14.749555802257026"><ele>681.8000000000001</ele><time>2026-03-29T12:39:34Z</time></trkpt><trkpt lat="37.05162224621921" lon="14.749453035586995"><ele>684.6</ele><time>2026-03-29T12:39:35Z</time></trkpt><trkpt lat="37.0515826655613" lon="14.749353991730327"><ele>687.4</ele><time>2026-03-29T12:39:36Z</time></trkpt><trkpt lat="37.05155734971525" lon="14.749256419021211"><ele>690.2</ele><time>2026-03-29T12:39:37Z</time></trkpt><trkpt lat="37.05153179033111" lon="14.749082469915935"><ele>693.0</ele><time>2026-03-29T12:39:39Z</time></trkpt><trkpt lat="37.05151768982428" lon="14.748997585450265"><ele>693.5</ele><time>2026-03-29T12:39:40Z</time></trkpt><trkpt lat="37.051504314596514" lon="14.748914949924796"><ele>694.0</ele><time>2026-03-29T12:39:41Z</time></trkpt><trkpt lat="37.051490033767976" lon="14.748828672973131"><ele>694.5</ele><time>2026-03-29T12:39:42.016Z</time></trkpt><trkpt lat="37.05147526322583" lon="14.748734219117184"><ele>695.0</ele><time>2026-03-29T12:39:43.031Z</time></trkpt><trkpt lat="37.05145566341801" lon="14.74863211457909"><ele>695.5</ele><time>2026-03-29T12:39:44.023Z</time></trkpt><trkpt lat="37.05143846433382" lon="14.748544599519585"><ele>696.0</ele><time>2026-03-29T12:39:45.024Z</time></trkpt><trkpt lat="37.05134061466173" lon="14.747814834407025"><ele>693.5</ele><time>2026-03-29T12:39:54.022Z</time></trkpt><trkpt lat="37.05140381340405" lon="14.747751785181864"><ele>691.0</ele><time>2026-03-29T12:39:55.018Z</time></trkpt><trkpt lat="37.05184210984595" lon="14.74779945445236"><ele>691.0</ele><time>2026-03-29T12:39:56.025Z</time></trkpt><trkpt lat="37.05190487309135" lon="14.747763539280166"><ele>691.0</ele><time>2026-03-29T12:39:57Z</time></trkpt><trkpt lat="37.05197720529665" lon="14.747641765695718"><ele>691.0</ele><time>2026-03-29T12:39:59Z</time></trkpt><trkpt lat="37.05204052041137" lon="14.747542022772024"><ele>691.0</ele><time>2026-03-29T12:40:00Z</time></trkpt><trkpt lat="37.052122672891464" lon="14.747451347950928"><ele>691.0</ele><time>2026-03-29T12:40:01Z</time></trkpt><trkpt lat="37.052200566147945" lon="14.747378537669878"><ele>690.8</ele><time>2026-03-29T12:40:02Z</time></trkpt><trkpt lat="37.05229852050449" lon="14.747336840283117"><ele>690.5999999999999</ele><time>2026-03-29T12:40:03Z</time></trkpt><trkpt lat="37.052422156307884" lon="14.747314374202382"><ele>690.4</ele><time>2026-03-29T12:40:04Z</time></trkpt><trkpt lat="37.05253123551108" lon="14.747296639901034"><ele>690.2</ele><time>2026-03-29T12:40:05Z</time></trkpt><trkpt lat="37.05261502440053" lon="14.747277372966941"><ele>690.0</ele><time>2026-03-29T12:40:06Z</time></trkpt><trkpt lat="37.05266866670611" lon="14.747224768875375"><ele>689.0</ele><time>2026-03-29T12:40:07Z</time></trkpt><trkpt lat="37.05275528867878" lon="14.747062929487845"><ele>688.0</ele><time>2026-03-29T12:40:09Z</time></trkpt><trkpt lat="37.05278307974039" lon="14.74692494176826"><ele>687.0</ele><time>2026-03-29T12:40:10Z</time></trkpt><trkpt lat="37.05280943660156" lon="14.746800197645067"><ele>686.0</ele><time>2026-03-29T12:40:11Z</time></trkpt><trkpt lat="37.052823515997105" lon="14.74669664637302"><ele>686.0</ele><time>2026-03-29T12:40:12Z</time></trkpt><trkpt lat="37.05282930618591" lon="14.74659304618281"><ele>686.0</ele><time>2026-03-29T12:40:13Z</time></trkpt><trkpt lat="37.05280446038009" lon="14.746507188688913"><ele>686.0</ele><time>2026-03-29T12:40:14Z</time></trkpt><trkpt lat="37.05278711494578" lon="14.746355813198782"><ele>686.0</ele><time>2026-03-29T12:40:16Z</time></trkpt><trkpt lat="37.052834140289235" lon="14.746270152376336"><ele>686.0</ele><time>2026-03-29T12:40:17Z</time></trkpt><trkpt lat="37.05291652127625" lon="14.746184077830574"><ele>686.0</ele><time>2026-03-29T12:40:18Z</time></trkpt><trkpt lat="37.053014398016394" lon="14.746074345021826"><ele>686.0</ele><time>2026-03-29T12:40:19Z</time></trkpt><trkpt lat="37.05308438955456" lon="14.745945534560159"><ele>686.0</ele><time>2026-03-29T12:40:20Z</time></trkpt><trkpt lat="37.05314139239497" lon="14.745834409534291"><ele>686.0</ele><time>2026-03-29T12:40:21Z</time></trkpt><trkpt lat="37.05318286815263" lon="14.745710715608611"><ele>687.4</ele><time>2026-03-29T12:40:22Z</time></trkpt><trkpt lat="37.053206240591976" lon="14.745582709231135"><ele>688.8</ele><time>2026-03-29T12:40:23Z</time></trkpt><trkpt lat="37.05322513360938" lon="14.745464230935173"><ele>690.1999999999999</ele><time>2026-03-29T12:40:24Z</time></trkpt><trkpt lat="37.0532239276752" lon="14.745323910791313"><ele>691.5999999999999</ele><time>2026-03-29T12:40:25Z</time></trkpt><trkpt lat="37.053223548277316" lon="14.745190990986595"><ele>693.0</ele><time>2026-03-29T12:40:26Z</time></trkpt><trkpt lat="37.05320202835983" lon="14.745064546698586"><ele>694.2</ele><time>2026-03-29T12:40:27Z</time></trkpt><trkpt lat="37.05318230579128" lon="14.744947823751875"><ele>695.4</ele><time>2026-03-29T12:40:28Z</time></trkpt><trkpt lat="37.05315500299447" lon="14.74484521595845"><ele>696.6</ele><time>2026-03-29T12:40:29Z</time></trkpt><trkpt lat="37.053094309379766" lon="14.744754456285975"><ele>697.8000000000001</ele><time>2026-03-29T12:40:30Z</time></trkpt><trkpt lat="37.05303105655918" lon="14.744649975507224"><ele>699.0</ele><time>2026-03-29T12:40:31Z</time></trkpt><trkpt lat="37.05293979208441" lon="14.744542052620389"><ele>699.0</ele><time>2026-03-29T12:40:32Z</time></trkpt><trkpt lat="37.05288039402419" lon="14.744445706605951"><ele>699.0</ele><time>2026-03-29T12:40:33Z</time></trkpt><trkpt lat="37.05283330963122" lon="14.744354881942384"><ele>699.0</ele><time>2026-03-29T12:40:34Z</time></trkpt><trkpt lat="37.0527500246241" lon="14.744266798685256"><ele>699.0</ele><time>2026-03-29T12:40:35Z</time></trkpt><trkpt lat="37.05269718457085" lon="14.744143075181293"><ele>699.0</ele><time>2026-03-29T12:40:36Z</time></trkpt><trkpt lat="37.05258077368926" lon="14.743985605946065"><ele>703.6666666666666</ele><time>2026-03-29T12:40:37Z</time></trkpt><trkpt lat="37.05247572073256" lon="14.743851127555837"><ele>708.3333333333333</ele><time>2026-03-29T12:40:38Z</time></trkpt><trkpt lat="37.05238869380766" lon="14.743699492554255"><ele>713.0</ele><time>2026-03-29T12:40:39Z</time></trkpt><trkpt lat="37.052264608375665" lon="14.743529087266314"><ele>705.25</ele><time>2026-03-29T12:40:40Z</time></trkpt><trkpt lat="37.05216068579733" lon="14.743414630456162"><ele>697.5</ele><time>2026-03-29T12:40:41Z</time></trkpt><trkpt lat="37.05204108099665" lon="14.743322975339813"><ele>689.75</ele><time>2026-03-29T12:40:42Z</time></trkpt><trkpt lat="37.051957688421915" lon="14.743255551460308"><ele>682.0</ele><time>2026-03-29T12:40:43Z</time></trkpt><trkpt lat="37.051835449774686" lon="14.743203456092303"><ele>682.0</ele><time>2026-03-29T12:40:44Z</time></trkpt><trkpt lat="37.05174466121283" lon="14.743137610353985"><ele>682.0</ele><time>2026-03-29T12:40:45Z</time></trkpt><trkpt lat="37.05164187532927" lon="14.743067187882835"><ele>682.0</ele><time>2026-03-29T12:40:46Z</time></trkpt><trkpt lat="37.05154059550911" lon="14.742987111584622"><ele>682.0</ele><time>2026-03-29T12:40:47Z</time></trkpt><trkpt lat="37.05142344880226" lon="14.742933185058996"><ele>681.0</ele><time>2026-03-29T12:40:48Z</time></trkpt><trkpt lat="37.051314765176734" lon="14.742856774058383"><ele>680.0</ele><time>2026-03-29T12:40:49Z</time></trkpt><trkpt lat="37.05118429883791" lon="14.742782263754915"><ele>679.0</ele><time>2026-03-29T12:40:50Z</time></trkpt><trkpt lat="37.05109227763461" lon="14.742711773674806"><ele>678.0</ele><time>2026-03-29T12:40:51Z</time></trkpt><trkpt lat="37.050993417541726" lon="14.74264698903288"><ele>678.0</ele><time>2026-03-29T12:40:52Z</time></trkpt><trkpt lat="37.05092887888401" lon="14.74257998040634"><ele>678.0</ele><time>2026-03-29T12:40:53Z</time></trkpt><trkpt lat="37.05081206392221" lon="14.742516724587917"><ele>678.0</ele><time>2026-03-29T12:40:55Z</time></trkpt><trkpt lat="37.05074020024445" lon="14.74248474873785"><ele>678.0</ele><time>2026-03-29T12:40:56Z</time></trkpt><trkpt lat="37.05065949371949" lon="14.742466648405864"><ele>678.0</ele><time>2026-03-29T12:40:57Z</time></trkpt><trkpt lat="37.05056360042933" lon="14.742448154625162"><ele>677.8</ele><time>2026-03-29T12:40:58Z</time></trkpt><trkpt lat="37.05046258300475" lon="14.742426949055243"><ele>677.5999999999999</ele><time>2026-03-29T12:40:59Z</time></trkpt><trkpt lat="37.050347517865596" lon="14.742460186238668"><ele>677.4000000000001</ele><time>2026-03-29T12:41:00Z</time></trkpt><trkpt lat="37.05026202662431" lon="14.742485616488372"><ele>677.2</ele><time>2026-03-29T12:41:01Z</time></trkpt><trkpt lat="37.05013988517075" lon="14.742514827822232"><ele>677.0</ele><time>2026-03-29T12:41:02Z</time></trkpt><trkpt lat="37.05003182192442" lon="14.742570273406463"><ele>676.75</ele><time>2026-03-29T12:41:03Z</time></trkpt><trkpt lat="37.04992443086303" lon="14.742607938039592"><ele>676.5</ele><time>2026-03-29T12:41:04Z</time></trkpt><trkpt lat="37.04981487513143" lon="14.742638665542579"><ele>676.25</ele><time>2026-03-29T12:41:05Z</time></trkpt><trkpt lat="37.049698817917005" lon="14.742652077658605"><ele>676.0</ele><time>2026-03-29T12:41:06Z</time></trkpt><trkpt lat="37.04958275218806" lon="14.742653828094923"><ele>676.0</ele><time>2026-03-29T12:41:07Z</time></trkpt><trkpt lat="37.04945381128846" lon="14.742668215382963"><ele>676.0</ele><time>2026-03-29T12:41:08Z</time></trkpt><trkpt lat="37.04933187740787" lon="14.74268660441897"><ele>676.0</ele><time>2026-03-29T12:41:09Z</time></trkpt><trkpt lat="37.04920756833442" lon="14.742718237442324"><ele>676.0</ele><time>2026-03-29T12:41:10Z</time></trkpt><trkpt lat="37.04909280532953" lon="14.742739709104118"><ele>682.8</ele><time>2026-03-29T12:41:11Z</time></trkpt><trkpt lat="37.04898110106627" lon="14.742762982300501"><ele>689.5999999999999</ele><time>2026-03-29T12:41:12Z</time></trkpt><trkpt lat="37.04886571880331" lon="14.742768481160867"><ele>696.4</ele><time>2026-03-29T12:41:13Z</time></trkpt><trkpt lat="37.04876134908774" lon="14.742746294399804"><ele>703.2</ele><time>2026-03-29T12:41:14Z</time></trkpt><trkpt lat="37.04867751433865" lon="14.742735861066155"><ele>710.0</ele><time>2026-03-29T12:41:15Z</time></trkpt><trkpt lat="37.04858819470035" lon="14.74271681828481"><ele>710.0</ele><time>2026-03-29T12:41:16Z</time></trkpt><trkpt lat="37.04849371793581" lon="14.74272247322031"><ele>710.0</ele><time>2026-03-29T12:41:17Z</time></trkpt><trkpt lat="37.04839781492126" lon="14.742734934600442"><ele>710.0</ele><time>2026-03-29T12:41:18Z</time></trkpt><trkpt lat="37.0482974094213" lon="14.742748276892806"><ele>710.0</ele><time>2026-03-29T12:41:19Z</time></trkpt><trkpt lat="37.048211322760956" lon="14.742747078859855"><ele>710.0</ele><time>2026-03-29T12:41:20Z</time></trkpt><trkpt lat="37.048145516543826" lon="14.742779832921032"><ele>710.0</ele><time>2026-03-29T12:41:21Z</time></trkpt><trkpt lat="37.04807212159366" lon="14.742805459963767"><ele>704.3333333333333</ele><time>2026-03-29T12:41:22Z</time></trkpt><trkpt lat="37.04796395454003" lon="14.742884568237713"><ele>698.6666666666666</ele><time>2026-03-29T12:41:24.023Z</time></trkpt><trkpt lat="37.04788051285206" lon="14.742965626126587"><ele>693.0</ele><time>2026-03-29T12:41:26.018Z</time></trkpt><trkpt lat="37.04739710897079" lon="14.743378515556957"><ele>693.0</ele><time>2026-03-29T12:41:31Z</time></trkpt><trkpt lat="37.047201142744804" lon="14.743445754980426"><ele>693.0</ele><time>2026-03-29T12:41:32Z</time></trkpt><trkpt lat="37.047095974692176" lon="14.74347502348207"><ele>693.0</ele><time>2026-03-29T12:41:33Z</time></trkpt><trkpt lat="37.04697848541096" lon="14.74344232616772"><ele>693.0</ele><time>2026-03-29T12:41:34Z</time></trkpt><trkpt lat="37.04686892063733" lon="14.74342832602505"><ele>693.0</ele><time>2026-03-29T12:41:35Z</time></trkpt><trkpt lat="37.046760764126006" lon="14.7433849506648"><ele>693.0</ele><time>2026-03-29T12:41:36Z</time></trkpt><trkpt lat="37.0466431802943" lon="14.74329235339403"><ele>693.0</ele><time>2026-03-29T12:41:37Z</time></trkpt><trkpt lat="37.046571049791304" lon="14.743217930174424"><ele>693.0</ele><time>2026-03-29T12:41:38Z</time></trkpt><trkpt lat="37.04651580859228" lon="14.743140607522207"><ele>693.0</ele><time>2026-03-29T12:41:39Z</time></trkpt><trkpt lat="37.04646546318888" lon="14.74306308306315"><ele>695.4</ele><time>2026-03-29T12:41:40Z</time></trkpt><trkpt lat="37.046414337258526" lon="14.742983749205088"><ele>697.8</ele><time>2026-03-29T12:41:41Z</time></trkpt><trkpt lat="37.046377377367065" lon="14.742918445806938"><ele>700.2</ele><time>2026-03-29T12:41:42.016Z</time></trkpt><trkpt lat="37.046298355037436" lon="14.74276374890254"><ele>702.6</ele><time>2026-03-29T12:41:44.013Z</time></trkpt><trkpt lat="37.04625772895777" lon="14.74266935002746"><ele>705.0</ele><time>2026-03-29T12:41:45.011Z</time></trkpt><trkpt lat="37.04621510095783" lon="14.74257326097874"><ele>705.0</ele><time>2026-03-29T12:41:46.018Z</time></trkpt><trkpt lat="37.04584313668638" lon="14.74210833517446"><ele>704.6666666666666</ele><time>2026-03-29T12:41:49Z</time></trkpt><trkpt lat="37.04571242322735" lon="14.741981062573974"><ele>704.3333333333333</ele><time>2026-03-29T12:41:50Z</time></trkpt><trkpt lat="37.04558014314526" lon="14.741853038467772"><ele>704.0</ele><time>2026-03-29T12:41:51Z</time></trkpt><trkpt lat="37.04547784207308" lon="14.741750353283473"><ele>704.0</ele><time>2026-03-29T12:41:52Z</time></trkpt><trkpt lat="37.045379888930874" lon="14.741641488170089"><ele>704.0</ele><time>2026-03-29T12:41:53Z</time></trkpt><trkpt lat="37.0453202922752" lon="14.741503723209307"><ele>704.0</ele><time>2026-03-29T12:41:54Z</time></trkpt><trkpt lat="37.04526124151205" lon="14.741394457167996"><ele>704.0</ele><time>2026-03-29T12:41:55Z</time></trkpt><trkpt lat="37.04519517714995" lon="14.741303269867984"><ele>704.0</ele><time>2026-03-29T12:41:56Z</time></trkpt><trkpt lat="37.04513943007139" lon="14.741234984681487"><ele>704.0</ele><time>2026-03-29T12:41:57Z</time></trkpt><trkpt lat="37.0450632801812" lon="14.741144771902034"><ele>704.0</ele><time>2026-03-29T12:41:59Z</time></trkpt><trkpt lat="37.045016650659306" lon="14.74108953130765"><ele>704.0</ele><time>2026-03-29T12:42:02Z</time></trkpt><trkpt lat="37.0449472821399" lon="14.741002063807755"><ele>704.0</ele><time>2026-03-29T12:42:08Z</time></trkpt><trkpt lat="37.04505927157418" lon="14.74110917671661"><ele>704.0</ele><time>2026-03-29T12:42:24Z</time></trkpt><trkpt lat="37.04534604326297" lon="14.741533923150826"><ele>704.0</ele><time>2026-03-29T12:42:29Z</time></trkpt><trkpt lat="37.04534075258241" lon="14.741443253805063"><ele>704.0</ele><time>2026-03-29T12:42:33Z</time></trkpt><trkpt lat="37.04527575992231" lon="14.74139583463823"><ele>704.0</ele><time>2026-03-29T12:42:34Z</time></trkpt><trkpt lat="37.045209151669766" lon="14.741299833930936"><ele>704.0</ele><time>2026-03-29T12:42:36Z</time></trkpt><trkpt lat="37.04518193330697" lon="14.741216885073925"><ele>704.0</ele><time>2026-03-29T12:42:39Z</time></trkpt><trkpt lat="37.0451316110285" lon="14.741158239541123"><ele>704.0</ele><time>2026-03-29T12:42:41Z</time></trkpt><trkpt lat="37.04508170802537" lon="14.741056978994093"><ele>704.0</ele><time>2026-03-29T12:42:44Z</time></trkpt><trkpt lat="37.04503689801659" lon="14.740982859828744"><ele>701.2</ele><time>2026-03-29T12:42:46Z</time></trkpt><trkpt lat="37.04496681134895" lon="14.740917202473385"><ele>698.4000000000001</ele><time>2026-03-29T12:42:47Z</time></trkpt><trkpt lat="37.04486084500902" lon="14.740845948070103"><ele>695.6</ele><time>2026-03-29T12:42:49Z</time></trkpt><trkpt lat="37.044765190931265" lon="14.740775644292341"><ele>692.8</ele><time>2026-03-29T12:42:51Z</time></trkpt><trkpt lat="37.044687795605135" lon="14.74070067109449"><ele>690.0</ele><time>2026-03-29T12:42:53Z</time></trkpt><trkpt lat="37.04461503296469" lon="14.74066457416669"><ele>690.0</ele><time>2026-03-29T12:43:38Z</time></trkpt><trkpt lat="37.04451928249085" lon="14.74064899822159"><ele>690.0</ele><time>2026-03-29T12:43:40Z</time></trkpt><trkpt lat="37.044422158635776" lon="14.740654466094334"><ele>690.0</ele><time>2026-03-29T12:43:42Z</time></trkpt><trkpt lat="37.04433639781649" lon="14.74065894899895"><ele>690.0</ele><time>2026-03-29T12:43:45Z</time></trkpt><trkpt lat="37.04422934340612" lon="14.740678985858077"><ele>690.0</ele><time>2026-03-29T12:43:47Z</time></trkpt><trkpt lat="37.04416177168909" lon="14.740681534343166"><ele>690.25</ele><time>2026-03-29T12:43:48Z</time></trkpt><trkpt lat="37.04408271482305" lon="14.740663610692598"><ele>690.5</ele><time>2026-03-29T12:43:49Z</time></trkpt><trkpt lat="37.043965143519436" lon="14.740623559302605"><ele>690.75</ele><time>2026-03-29T12:43:50Z</time></trkpt><trkpt lat="37.04383049739961" lon="14.740566767684752"><ele>691.0</ele><time>2026-03-29T12:43:51Z</time></trkpt><trkpt lat="37.04370586207936" lon="14.740541678553315"><ele>691.0</ele><time>2026-03-29T12:43:52Z</time></trkpt><trkpt lat="37.043586317807446" lon="14.740528588088921"><ele>691.0</ele><time>2026-03-29T12:43:53Z</time></trkpt><trkpt lat="37.04345897864452" lon="14.740511676395734"><ele>691.0</ele><time>2026-03-29T12:43:54Z</time></trkpt><trkpt lat="37.043344040366364" lon="14.740480860044595"><ele>691.0</ele><time>2026-03-29T12:43:55Z</time></trkpt><trkpt lat="37.04324352374697" lon="14.740444668258421"><ele>693.75</ele><time>2026-03-29T12:43:56Z</time></trkpt><trkpt lat="37.04314701368694" lon="14.740430175689147"><ele>696.5</ele><time>2026-03-29T12:43:57Z</time></trkpt><trkpt lat="37.04303338372299" lon="14.740404460096986"><ele>699.25</ele><time>2026-03-29T12:43:58Z</time></trkpt><trkpt lat="37.04290744395844" lon="14.740368385194987"><ele>702.0</ele><time>2026-03-29T12:43:59Z</time></trkpt><trkpt lat="37.04279628644521" lon="14.74033399809347"><ele>702.0</ele><time>2026-03-29T12:44:00Z</time></trkpt><trkpt lat="37.042688675521525" lon="14.740292626963502"><ele>702.0</ele><time>2026-03-29T12:44:01Z</time></trkpt><trkpt lat="37.042588704224" lon="14.740258575574732"><ele>702.0</ele><time>2026-03-29T12:44:02Z</time></trkpt><trkpt lat="37.042482385994546" lon="14.740259810234777"><ele>702.0</ele><time>2026-03-29T12:44:03Z</time></trkpt><trkpt lat="37.042372116542694" lon="14.740263718092137"><ele>702.0</ele><time>2026-03-29T12:44:04Z</time></trkpt><trkpt lat="37.04226377430294" lon="14.740247833419561"><ele>700.8333333333334</ele><time>2026-03-29T12:44:05Z</time></trkpt><trkpt lat="37.04218792564709" lon="14.740215698246965"><ele>699.6666666666666</ele><time>2026-03-29T12:44:06Z</time></trkpt><trkpt lat="37.0421310258463" lon="14.740146629930544"><ele>698.5</ele><time>2026-03-29T12:44:07Z</time></trkpt><trkpt lat="37.04209081603703" lon="14.740061288006219"><ele>697.3333333333333</ele><time>2026-03-29T12:44:08Z</time></trkpt><trkpt lat="37.04205904751381" lon="14.73997060902971"><ele>696.1666666666666</ele><time>2026-03-29T12:44:09Z</time></trkpt><trkpt lat="37.04199682158181" lon="14.7398892816748"><ele>695.0</ele><time>2026-03-29T12:44:10Z</time></trkpt><trkpt lat="37.04194964683754" lon="14.739831726902862"><ele>695.0</ele><time>2026-03-29T12:44:11Z</time></trkpt><trkpt lat="37.04188524394672" lon="14.739798574409265"><ele>695.0</ele><time>2026-03-29T12:44:12Z</time></trkpt><trkpt lat="37.04181183376358" lon="14.739798599959341"><ele>695.0</ele><time>2026-03-29T12:44:13Z</time></trkpt><trkpt lat="37.041725077665625" lon="14.739823953992065"><ele>695.0</ele><time>2026-03-29T12:44:14Z</time></trkpt><trkpt lat="37.0416420295036" lon="14.739818860376088"><ele>695.0</ele><time>2026-03-29T12:44:15Z</time></trkpt><trkpt lat="37.04151786937075" lon="14.73980079319762"><ele>695.0</ele><time>2026-03-29T12:44:17Z</time></trkpt><trkpt lat="37.04140692848807" lon="14.739754641050464"><ele>695.1666666666666</ele><time>2026-03-29T12:44:19Z</time></trkpt><trkpt lat="37.04130095223499" lon="14.7396682110907"><ele>695.3333333333333</ele><time>2026-03-29T12:44:21Z</time></trkpt><trkpt lat="37.041251823174285" lon="14.73959503103386"><ele>695.5</ele><time>2026-03-29T12:44:22Z</time></trkpt><trkpt lat="37.041203099205724" lon="14.739531502358016"><ele>695.6666666666666</ele><time>2026-03-29T12:44:23Z</time></trkpt><trkpt lat="37.041145183737775" lon="14.739454579723443"><ele>695.8333333333334</ele><time>2026-03-29T12:44:24Z</time></trkpt><trkpt lat="37.0410832759499" lon="14.739381947665228"><ele>696.0</ele><time>2026-03-29T12:44:25Z</time></trkpt><trkpt lat="37.0410338045356" lon="14.739320918380653"><ele>696.0</ele><time>2026-03-29T12:44:26Z</time></trkpt><trkpt lat="37.04091628162145" lon="14.739307957628398"><ele>696.0</ele><time>2026-03-29T12:44:28Z</time></trkpt><trkpt lat="37.04077706528245" lon="14.739349908371096"><ele>696.0</ele><time>2026-03-29T12:44:30Z</time></trkpt><trkpt lat="37.04069908679947" lon="14.739473357477129"><ele>696.0</ele><time>2026-03-29T12:44:31Z</time></trkpt><trkpt lat="37.04061365465873" lon="14.73956248290327"><ele>696.0</ele><time>2026-03-29T12:44:32Z</time></trkpt><trkpt lat="37.04055661752667" lon="14.739637195551827"><ele>696.0</ele><time>2026-03-29T12:44:34Z</time></trkpt><trkpt lat="37.04049183963374" lon="14.739689128001734"><ele>696.0</ele><time>2026-03-29T12:44:46Z</time></trkpt><trkpt lat="37.0404165789873" lon="14.739760497617015"><ele>696.0</ele><time>2026-03-29T12:44:49Z</time></trkpt><trkpt lat="37.04032227029248" lon="14.739839883096652"><ele>696.0</ele><time>2026-03-29T12:44:51Z</time></trkpt><trkpt lat="37.040233879794464" lon="14.739889348547973"><ele>696.0</ele><time>2026-03-29T12:44:52Z</time></trkpt><trkpt lat="37.04013727478605" lon="14.739931876967974"><ele>696.0</ele><time>2026-03-29T12:44:53Z</time></trkpt><trkpt lat="37.04000866517666" lon="14.73999535659014"><ele>696.0</ele><time>2026-03-29T12:44:54Z</time></trkpt><trkpt lat="37.03986417115361" lon="14.740038883381295"><ele>696.0</ele><time>2026-03-29T12:44:55Z</time></trkpt><trkpt lat="37.039738887452266" lon="14.740075247000703"><ele>696.0</ele><time>2026-03-29T12:44:56Z</time></trkpt><trkpt lat="37.03966595315022" lon="14.740090460286352"><ele>696.0</ele><time>2026-03-29T12:44:57Z</time></trkpt><trkpt lat="37.039589918619576" lon="14.740106688753475"><ele>696.0</ele><time>2026-03-29T12:44:59Z</time></trkpt><trkpt lat="37.039513806189724" lon="14.740105863416899"><ele>696.0</ele><time>2026-03-29T12:45:02Z</time></trkpt><trkpt lat="37.03944003644862" lon="14.740101672801377"><ele>696.0</ele><time>2026-03-29T12:45:05Z</time></trkpt><trkpt lat="37.039375787593414" lon="14.740072955804726"><ele>696.0</ele><time>2026-03-29T12:45:07Z</time></trkpt><trkpt lat="37.03927195644948" lon="14.74004458614538"><ele>696.0</ele><time>2026-03-29T12:45:08Z</time></trkpt><trkpt lat="37.03915138310248" lon="14.740008513892743"><ele>696.0</ele><time>2026-03-29T12:45:09Z</time></trkpt><trkpt lat="37.03899948217272" lon="14.739956329144373"><ele>696.0</ele><time>2026-03-29T12:45:10Z</time></trkpt><trkpt lat="37.03884269427002" lon="14.7398982380658"><ele>696.0</ele><time>2026-03-29T12:45:11Z</time></trkpt><trkpt lat="37.03868228345457" lon="14.739833135816221"><ele>697.75</ele><time>2026-03-29T12:45:12Z</time></trkpt><trkpt lat="37.03853989917423" lon="14.739757831362226"><ele>699.5</ele><time>2026-03-29T12:45:13Z</time></trkpt><trkpt lat="37.03842070368792" lon="14.739676084559992"><ele>701.25</ele><time>2026-03-29T12:45:14Z</time></trkpt><trkpt lat="37.038306003267564" lon="14.73959696616295"><ele>703.0</ele><time>2026-03-29T12:45:15Z</time></trkpt><trkpt lat="37.03822534785071" lon="14.739515889996634"><ele>701.75</ele><time>2026-03-29T12:45:16Z</time></trkpt><trkpt lat="37.03814189660112" lon="14.739405212052825"><ele>700.5</ele><time>2026-03-29T12:45:17Z</time></trkpt><trkpt lat="37.03806731155875" lon="14.739257790960144"><ele>699.25</ele><time>2026-03-29T12:45:18Z</time></trkpt><trkpt lat="37.038019060528306" lon="14.739114580709895"><ele>698.0</ele><time>2026-03-29T12:45:19Z</time></trkpt><trkpt lat="37.03799000925482" lon="14.739000970498306"><ele>698.0</ele><time>2026-03-29T12:45:20Z</time></trkpt><trkpt lat="37.03798128348702" lon="14.738915453929833"><ele>698.0</ele><time>2026-03-29T12:45:21Z</time></trkpt><trkpt lat="37.03797090446537" lon="14.738827531872438"><ele>698.0</ele><time>2026-03-29T12:45:22Z</time></trkpt><trkpt lat="37.03791290313422" lon="14.738763792203665"><ele>698.0</ele><time>2026-03-29T12:45:23Z</time></trkpt><trkpt lat="37.037875178920565" lon="14.738697101797197"><ele>698.0</ele><time>2026-03-29T12:45:24Z</time></trkpt><trkpt lat="37.03777967922047" lon="14.73863336884539"><ele>698.0</ele><time>2026-03-29T12:45:26Z</time></trkpt><trkpt lat="37.03771537042221" lon="14.738631914273435"><ele>698.0</ele><time>2026-03-29T12:45:27Z</time></trkpt><trkpt lat="37.03760214961084" lon="14.738681300454546"><ele>698.0</ele><time>2026-03-29T12:45:29Z</time></trkpt><trkpt lat="37.037539525170175" lon="14.738704544217748"><ele>698.0</ele><time>2026-03-29T12:45:30Z</time></trkpt><trkpt lat="37.03747337277653" lon="14.738734654192234"><ele>698.0</ele><time>2026-03-29T12:45:31Z</time></trkpt><trkpt lat="37.03739104662705" lon="14.738768684106935"><ele>698.0</ele><time>2026-03-29T12:45:32Z</time></trkpt><trkpt lat="37.03731843289903" lon="14.738804758979969"><ele>698.0</ele><time>2026-03-29T12:45:33Z</time></trkpt><trkpt lat="37.03725188293048" lon="14.738809408498955"><ele>698.5999999999999</ele><time>2026-03-29T12:45:34Z</time></trkpt><trkpt lat="37.03718650558842" lon="14.73883389645898"><ele>699.1999999999999</ele><time>2026-03-29T12:45:35Z</time></trkpt><trkpt lat="37.03709981277101" lon="14.738863982497438"><ele>699.8</ele><time>2026-03-29T12:45:36Z</time></trkpt><trkpt lat="37.036981106698335" lon="14.738897628957835"><ele>700.4</ele><time>2026-03-29T12:45:37Z</time></trkpt><trkpt lat="37.0368603468228" lon="14.738913864211122"><ele>701.0</ele><time>2026-03-29T12:45:38Z</time></trkpt><trkpt lat="37.03675410112383" lon="14.738914307348033"><ele>701.0</ele><time>2026-03-29T12:45:39Z</time></trkpt><trkpt lat="37.03666612050362" lon="14.7389094852601"><ele>701.0</ele><time>2026-03-29T12:45:40Z</time></trkpt><trkpt lat="37.0365926825529" lon="14.738901430123647"><ele>701.0</ele><time>2026-03-29T12:45:41Z</time></trkpt><trkpt lat="37.03647285897888" lon="14.738873316928842"><ele>701.0</ele><time>2026-03-29T12:45:43Z</time></trkpt><trkpt lat="37.03641036348186" lon="14.738846417483433"><ele>701.0</ele><time>2026-03-29T12:45:44Z</time></trkpt><trkpt lat="37.0363469360788" lon="14.738826885360012"><ele>701.0</ele><time>2026-03-29T12:45:45Z</time></trkpt><trkpt lat="37.03623320049285" lon="14.738767248488935"><ele>701.4</ele><time>2026-03-29T12:45:47Z</time></trkpt><trkpt lat="37.03612911413597" lon="14.738716748859112"><ele>701.8</ele><time>2026-03-29T12:45:49Z</time></trkpt><trkpt lat="37.03606643954672" lon="14.738707590955954"><ele>702.1999999999999</ele><time>2026-03-29T12:45:50Z</time></trkpt><trkpt lat="37.0359595161764" lon="14.738626481074222"><ele>702.5999999999999</ele><time>2026-03-29T12:45:52Z</time></trkpt><trkpt lat="37.0358555032207" lon="14.738553650206773"><ele>703.0</ele><time>2026-03-29T12:45:54Z</time></trkpt><trkpt lat="37.03579672494013" lon="14.738514828936964"><ele>703.1666666666667</ele><time>2026-03-29T12:45:55Z</time></trkpt><trkpt lat="37.03573392469544" lon="14.738465332454556"><ele>703.3333333333334</ele><time>2026-03-29T12:45:56Z</time></trkpt><trkpt lat="37.03567837249706" lon="14.738407999094063"><ele>703.5</ele><time>2026-03-29T12:45:57Z</time></trkpt><trkpt lat="37.03562347987299" lon="14.738338569010597"><ele>703.6666666666666</ele><time>2026-03-29T12:45:58Z</time></trkpt><trkpt lat="37.03556761158016" lon="14.738257601219656"><ele>703.8333333333333</ele><time>2026-03-29T12:45:59Z</time></trkpt><trkpt lat="37.03551978239487" lon="14.73816957710358"><ele>704.0</ele><time>2026-03-29T12:46:00Z</time></trkpt><trkpt lat="37.03546882080851" lon="14.738079224050324"><ele>704.0</ele><time>2026-03-29T12:46:01Z</time></trkpt><trkpt lat="37.03541277430883" lon="14.737996232960345"><ele>704.0</ele><time>2026-03-29T12:46:02Z</time></trkpt><trkpt lat="37.03537485982709" lon="14.737925873938535"><ele>704.0</ele><time>2026-03-29T12:46:03Z</time></trkpt><trkpt lat="37.03532777008031" lon="14.7378590408684"><ele>704.0</ele><time>2026-03-29T12:46:04Z</time></trkpt><trkpt lat="37.035286270324576" lon="14.737788448046201"><ele>704.0</ele><time>2026-03-29T12:46:05Z</time></trkpt><trkpt lat="37.03525008316" lon="14.737721155603532"><ele>704.0</ele><time>2026-03-29T12:46:06Z</time></trkpt><trkpt lat="37.035193188559575" lon="14.737583219917395"><ele>704.75</ele><time>2026-03-29T12:46:08Z</time></trkpt><trkpt lat="37.03513504847552" lon="14.737468025052053"><ele>705.5</ele><time>2026-03-29T12:46:10Z</time></trkpt><trkpt lat="37.03508002894958" lon="14.737347579497952"><ele>706.25</ele><time>2026-03-29T12:46:12Z</time></trkpt><trkpt lat="37.03502182803266" lon="14.737219249756686"><ele>707.0</ele><time>2026-03-29T12:46:14Z</time></trkpt><trkpt lat="37.034968136867576" lon="14.73709438003942"><ele>707.5</ele><time>2026-03-29T12:46:16Z</time></trkpt><trkpt lat="37.03492489139894" lon="14.736949655261364"><ele>708.0</ele><time>2026-03-29T12:46:18Z</time></trkpt><trkpt lat="37.03487675412506" lon="14.736828137047453"><ele>708.5</ele><time>2026-03-29T12:46:20Z</time></trkpt><trkpt lat="37.034843954481424" lon="14.73668730979086"><ele>709.0</ele><time>2026-03-29T12:46:22Z</time></trkpt><trkpt lat="37.03481887091597" lon="14.736554787021817"><ele>709.8000000000001</ele><time>2026-03-29T12:46:24Z</time></trkpt><trkpt lat="37.0348002265682" lon="14.736418141323508"><ele>710.6</ele><time>2026-03-29T12:46:26Z</time></trkpt><trkpt lat="37.03481332555674" lon="14.736295867048943"><ele>711.4</ele><time>2026-03-29T12:46:28Z</time></trkpt><trkpt lat="37.034808319200216" lon="14.736172769287583"><ele>712.2</ele><time>2026-03-29T12:46:30Z</time></trkpt><trkpt lat="37.03479955261718" lon="14.736041010084024"><ele>713.0</ele><time>2026-03-29T12:46:32Z</time></trkpt><trkpt lat="37.0347868814452" lon="14.735946568964776"><ele>714.0</ele><time>2026-03-29T12:46:34Z</time></trkpt><trkpt lat="37.03477211809293" lon="14.735844944353541"><ele>715.0</ele><time>2026-03-29T12:46:36Z</time></trkpt><trkpt lat="37.034782552701614" lon="14.735732443553932"><ele>716.0</ele><time>2026-03-29T12:46:38Z</time></trkpt><trkpt lat="37.034783385942056" lon="14.73562625592725"><ele>717.0</ele><time>2026-03-29T12:46:40Z</time></trkpt><trkpt lat="37.03481540912788" lon="14.73551503220858"><ele>718.0</ele><time>2026-03-29T12:46:59Z</time></trkpt><trkpt lat="37.03483306241452" lon="14.735435713778248"><ele>719.0</ele><time>2026-03-29T12:47:01Z</time></trkpt><trkpt lat="37.03486768178379" lon="14.735344961959617"><ele>720.2</ele><time>2026-03-29T12:47:03Z</time></trkpt><trkpt lat="37.03491193252648" lon="14.735202537617408"><ele>721.4000000000001</ele><time>2026-03-29T12:47:05Z</time></trkpt><trkpt lat="37.034928173758466" lon="14.735090917897505"><ele>722.6</ele><time>2026-03-29T12:47:06Z</time></trkpt><trkpt lat="37.03492353609079" lon="14.734960322913619"><ele>723.8</ele><time>2026-03-29T12:47:07Z</time></trkpt><trkpt lat="37.0349203347703" lon="14.734838556959266"><ele>725.0</ele><time>2026-03-29T12:47:08Z</time></trkpt><trkpt lat="37.034937257540115" lon="14.734714180809668"><ele>725.0</ele><time>2026-03-29T12:47:09Z</time></trkpt><trkpt lat="37.03492030302899" lon="14.73461356704296"><ele>725.0</ele><time>2026-03-29T12:47:10Z</time></trkpt><trkpt lat="37.03490264867532" lon="14.734507284897116"><ele>725.0</ele><time>2026-03-29T12:47:11Z</time></trkpt><trkpt lat="37.03487879261733" lon="14.734429989489033"><ele>725.0</ele><time>2026-03-29T12:47:12Z</time></trkpt><trkpt lat="37.03486084554529" lon="14.734338866165713"><ele>725.0</ele><time>2026-03-29T12:47:13Z</time></trkpt><trkpt lat="37.03484528137609" lon="14.73423698315327"><ele>725.0</ele><time>2026-03-29T12:47:14Z</time></trkpt><trkpt lat="37.034859971949" lon="14.734134323167364"><ele>725.0</ele><time>2026-03-29T12:47:15Z</time></trkpt><trkpt lat="37.03486877451701" lon="14.734041102437319"><ele>725.0</ele><time>2026-03-29T12:47:16Z</time></trkpt><trkpt lat="37.03491928076489" lon="14.733902095281545"><ele>725.0</ele><time>2026-03-29T12:47:18Z</time></trkpt><trkpt lat="37.03494624073401" lon="14.733812527745622"><ele>725.0</ele><time>2026-03-29T12:47:19Z</time></trkpt><trkpt lat="37.03496642313591" lon="14.73373757359724"><ele>725.0</ele><time>2026-03-29T12:47:20Z</time></trkpt><trkpt lat="37.03499093683676" lon="14.733612478983892"><ele>725.0</ele><time>2026-03-29T12:47:22Z</time></trkpt><trkpt lat="37.03500607959563" lon="14.73353464812178"><ele>725.0</ele><time>2026-03-29T12:47:23Z</time></trkpt><trkpt lat="37.035011030643574" lon="14.733394591891837"><ele>725.0</ele><time>2026-03-29T12:47:25Z</time></trkpt><trkpt lat="37.03499207807117" lon="14.733302640432258"><ele>725.0</ele><time>2026-03-29T12:47:26Z</time></trkpt><trkpt lat="37.03498753881613" lon="14.733214126426263"><ele>725.0</ele><time>2026-03-29T12:47:27Z</time></trkpt><trkpt lat="37.03501601658067" lon="14.733130132708721"><ele>725.0</ele><time>2026-03-29T12:47:28Z</time></trkpt><trkpt lat="37.03506252146567" lon="14.73300887306372"><ele>725.0</ele><time>2026-03-29T12:47:30Z</time></trkpt><trkpt lat="37.03511212027468" lon="14.732873400589904"><ele>725.0</ele><time>2026-03-29T12:47:32Z</time></trkpt><trkpt lat="37.03513115566851" lon="14.732783830837997"><ele>725.0</ele><time>2026-03-29T12:47:33Z</time></trkpt><trkpt lat="37.03516813066629" lon="14.732669097264287"><ele>725.0</ele><time>2026-03-29T12:47:34Z</time></trkpt><trkpt lat="37.03521216111971" lon="14.732532473954139"><ele>725.0</ele><time>2026-03-29T12:47:35Z</time></trkpt><trkpt lat="37.03525358475923" lon="14.732403920605025"><ele>725.0</ele><time>2026-03-29T12:47:36Z</time></trkpt><trkpt lat="37.03529103629" lon="14.732287703366586"><ele>725.3333333333333</ele><time>2026-03-29T12:47:37Z</time></trkpt><trkpt lat="37.03535386987907" lon="14.732196291756006"><ele>725.6666666666666</ele><time>2026-03-29T12:47:38Z</time></trkpt><trkpt lat="37.035402909059925" lon="14.732099266602546"><ele>726.0</ele><time>2026-03-29T12:47:39Z</time></trkpt><trkpt lat="37.035449705084105" lon="14.732002387892134"><ele>726.3333333333334</ele><time>2026-03-29T12:47:40Z</time></trkpt><trkpt lat="37.03547880945173" lon="14.731914191633388"><ele>726.6666666666667</ele><time>2026-03-29T12:47:41Z</time></trkpt><trkpt lat="37.03549239884408" lon="14.73182294337255"><ele>727.0</ele><time>2026-03-29T12:47:42Z</time></trkpt><trkpt lat="37.035508561487234" lon="14.731690308060715"><ele>729.25</ele><time>2026-03-29T12:47:43Z</time></trkpt><trkpt lat="37.03552949802369" lon="14.731539262004649"><ele>731.5</ele><time>2026-03-29T12:47:44Z</time></trkpt><trkpt lat="37.03556074586875" lon="14.73140534522763"><ele>733.75</ele><time>2026-03-29T12:47:45Z</time></trkpt><trkpt lat="37.03559091742538" lon="14.73126623291572"><ele>736.0</ele><time>2026-03-29T12:47:46Z</time></trkpt><trkpt lat="37.03562992666787" lon="14.731133865429547"><ele>735.4</ele><time>2026-03-29T12:47:47Z</time></trkpt><trkpt lat="37.03566304517392" lon="14.731005100894437"><ele>734.8</ele><time>2026-03-29T12:47:48Z</time></trkpt><trkpt lat="37.0357033539147" lon="14.730882275960148"><ele>734.1999999999999</ele><time>2026-03-29T12:47:49Z</time></trkpt><trkpt lat="37.035742389596564" lon="14.730750763738888"><ele>733.5999999999999</ele><time>2026-03-29T12:47:50Z</time></trkpt><trkpt lat="37.03577832138859" lon="14.730627945653957"><ele>733.0</ele><time>2026-03-29T12:47:51Z</time></trkpt><trkpt lat="37.035814954703895" lon="14.730513097190073"><ele>733.0</ele><time>2026-03-29T12:47:52Z</time></trkpt><trkpt lat="37.03585379497863" lon="14.730408967446465"><ele>733.0</ele><time>2026-03-29T12:47:53Z</time></trkpt><trkpt lat="37.03590346031192" lon="14.730304047074092"><ele>733.0</ele><time>2026-03-29T12:47:54Z</time></trkpt><trkpt lat="37.03595966745821" lon="14.730194985310787"><ele>733.0</ele><time>2026-03-29T12:47:55Z</time></trkpt><trkpt lat="37.03598147682523" lon="14.73007495589299"><ele>733.0</ele><time>2026-03-29T12:47:56Z</time></trkpt><trkpt lat="37.03598204524999" lon="14.729958869179674"><ele>733.5999999999999</ele><time>2026-03-29T12:47:57Z</time></trkpt><trkpt lat="37.03597539626769" lon="14.729842150199081"><ele>734.1999999999999</ele><time>2026-03-29T12:47:58Z</time></trkpt><trkpt lat="37.035955169835454" lon="14.729721615526314"><ele>734.8</ele><time>2026-03-29T12:47:59Z</time></trkpt><trkpt lat="37.035927340262916" lon="14.729603573448092"><ele>735.4</ele><time>2026-03-29T12:48:00Z</time></trkpt><trkpt lat="37.035901914786834" lon="14.729488106834378"><ele>736.0</ele><time>2026-03-29T12:48:01Z</time></trkpt><trkpt lat="37.03589788659021" lon="14.729372329748657"><ele>736.5999999999999</ele><time>2026-03-29T12:48:02Z</time></trkpt><trkpt lat="37.03592923676553" lon="14.729260095332677"><ele>737.2</ele><time>2026-03-29T12:48:03Z</time></trkpt><trkpt lat="37.03593144681397" lon="14.729152926738433"><ele>737.8</ele><time>2026-03-29T12:48:04Z</time></trkpt><trkpt lat="37.03593101150192" lon="14.729035247444054"><ele>738.4000000000001</ele><time>2026-03-29T12:48:05Z</time></trkpt><trkpt lat="37.035926239041046" lon="14.72891030228486"><ele>739.0</ele><time>2026-03-29T12:48:06Z</time></trkpt><trkpt lat="37.03592325740025" lon="14.728791422163772"><ele>739.0</ele><time>2026-03-29T12:48:07Z</time></trkpt><trkpt lat="37.035919805564816" lon="14.728668960332987"><ele>739.0</ele><time>2026-03-29T12:48:08Z</time></trkpt><trkpt lat="37.03592345306371" lon="14.728538967924013"><ele>739.0</ele><time>2026-03-29T12:48:09Z</time></trkpt><trkpt lat="37.03592123138711" lon="14.728405625549449"><ele>739.0</ele><time>2026-03-29T12:48:10Z</time></trkpt><trkpt lat="37.035927861724566" lon="14.728290994828047"><ele>739.0</ele><time>2026-03-29T12:48:11Z</time></trkpt><trkpt lat="37.03595823104342" lon="14.728170147417988"><ele>740.25</ele><time>2026-03-29T12:48:12Z</time></trkpt><trkpt lat="37.035999182630164" lon="14.728032470459135"><ele>741.5</ele><time>2026-03-29T12:48:13Z</time></trkpt><trkpt lat="37.036030434017945" lon="14.727855840791408"><ele>742.75</ele><time>2026-03-29T12:48:14Z</time></trkpt><trkpt lat="37.03606358837801" lon="14.727685898246929"><ele>744.0</ele><time>2026-03-29T12:48:15Z</time></trkpt><trkpt lat="37.03607034614796" lon="14.727547577912867"><ele>745.0</ele><time>2026-03-29T12:48:16Z</time></trkpt><trkpt lat="37.03604869817615" lon="14.727402043629144"><ele>746.0</ele><time>2026-03-29T12:48:17Z</time></trkpt><trkpt lat="37.036003869211086" lon="14.72726447942617"><ele>747.0</ele><time>2026-03-29T12:48:18Z</time></trkpt><trkpt lat="37.0359520237065" lon="14.727169905792621"><ele>748.0</ele><time>2026-03-29T12:48:19Z</time></trkpt><trkpt lat="37.035900702283854" lon="14.727091468927878"><ele>749.0</ele><time>2026-03-29T12:48:20Z</time></trkpt><trkpt lat="37.03587156845262" lon="14.727014307968519"><ele>749.0</ele><time>2026-03-29T12:48:21Z</time></trkpt><trkpt lat="37.03586422762745" lon="14.726931844039223"><ele>749.0</ele><time>2026-03-29T12:48:22Z</time></trkpt><trkpt lat="37.03587419546364" lon="14.726824151007927"><ele>749.0</ele><time>2026-03-29T12:48:23Z</time></trkpt><trkpt lat="37.03588551166173" lon="14.726713100729313"><ele>749.0</ele><time>2026-03-29T12:48:24Z</time></trkpt><trkpt lat="37.035897738636905" lon="14.726610494768192"><ele>749.0</ele><time>2026-03-29T12:48:25Z</time></trkpt><trkpt lat="37.03592074961605" lon="14.72650360918774"><ele>749.0</ele><time>2026-03-29T12:48:26Z</time></trkpt><trkpt lat="37.035949000410014" lon="14.72639956991618"><ele>749.6</ele><time>2026-03-29T12:48:27Z</time></trkpt><trkpt lat="37.03598182758694" lon="14.726310543270102"><ele>750.2</ele><time>2026-03-29T12:48:28Z</time></trkpt><trkpt lat="37.03603315949967" lon="14.726212725954408"><ele>750.8000000000001</ele><time>2026-03-29T12:48:29Z</time></trkpt><trkpt lat="37.03606058155602" lon="14.726087664665254"><ele>751.4000000000001</ele><time>2026-03-29T12:48:30Z</time></trkpt><trkpt lat="37.0360770926238" lon="14.725944677993049"><ele>752.0</ele><time>2026-03-29T12:48:31Z</time></trkpt><trkpt lat="37.03610756147512" lon="14.725794579154629"><ele>753.2</ele><time>2026-03-29T12:48:32Z</time></trkpt><trkpt lat="37.03615281420776" lon="14.725645917322128"><ele>754.4000000000001</ele><time>2026-03-29T12:48:33Z</time></trkpt><trkpt lat="37.036173907016874" lon="14.725512125538575"><ele>755.5999999999999</ele><time>2026-03-29T12:48:34Z</time></trkpt><trkpt lat="37.03617520722685" lon="14.725385023630029"><ele>756.8</ele><time>2026-03-29T12:48:35Z</time></trkpt><trkpt lat="37.03619124069525" lon="14.72524771003155"><ele>758.0</ele><time>2026-03-29T12:48:36Z</time></trkpt><trkpt lat="37.03622474060374" lon="14.725120584881982"><ele>759.5999999999999</ele><time>2026-03-29T12:48:37Z</time></trkpt><trkpt lat="37.03627604104934" lon="14.725000796223654"><ele>761.1999999999999</ele><time>2026-03-29T12:48:38Z</time></trkpt><trkpt lat="37.03631780918326" lon="14.724875627207128"><ele>762.8</ele><time>2026-03-29T12:48:39Z</time></trkpt><trkpt lat="37.0363505741514" lon="14.724740297104276"><ele>764.4</ele><time>2026-03-29T12:48:40Z</time></trkpt><trkpt lat="37.03638843741544" lon="14.724601785210837"><ele>766.0</ele><time>2026-03-29T12:48:41Z</time></trkpt><trkpt lat="37.03643829535634" lon="14.7244851345813"><ele>767.5999999999999</ele><time>2026-03-29T12:48:42Z</time></trkpt><trkpt lat="37.036482693592895" lon="14.724350762559526"><ele>769.2</ele><time>2026-03-29T12:48:43Z</time></trkpt><trkpt lat="37.03651571200688" lon="14.724211492358393"><ele>770.8</ele><time>2026-03-29T12:48:44Z</time></trkpt><trkpt lat="37.03654597149649" lon="14.724077960055139"><ele>772.4000000000001</ele><time>2026-03-29T12:48:45Z</time></trkpt><trkpt lat="37.03656813034606" lon="14.723954108325035"><ele>774.0</ele><time>2026-03-29T12:48:46Z</time></trkpt><trkpt lat="37.03658505372154" lon="14.723838524184655"><ele>774.0</ele><time>2026-03-29T12:48:47Z</time></trkpt><trkpt lat="37.03660297572824" lon="14.723713667292484"><ele>774.0</ele><time>2026-03-29T12:48:48Z</time></trkpt><trkpt lat="37.03661382099666" lon="14.723594775006395"><ele>774.0</ele><time>2026-03-29T12:48:49Z</time></trkpt><trkpt lat="37.03662257936588" lon="14.723465335959423"><ele>774.0</ele><time>2026-03-29T12:48:50Z</time></trkpt><trkpt lat="37.0366379753366" lon="14.723332780034275"><ele>774.0</ele><time>2026-03-29T12:48:51Z</time></trkpt><trkpt lat="37.036655355217256" lon="14.72318860233428"><ele>775.0</ele><time>2026-03-29T12:48:52Z</time></trkpt><trkpt lat="37.036672644650885" lon="14.723042755470626"><ele>776.0</ele><time>2026-03-29T12:48:53Z</time></trkpt><trkpt lat="37.03668393831763" lon="14.722896682193914"><ele>777.0</ele><time>2026-03-29T12:48:54Z</time></trkpt><trkpt lat="37.03669470689073" lon="14.722748257345163"><ele>778.0</ele><time>2026-03-29T12:48:55Z</time></trkpt><trkpt lat="37.036708479106075" lon="14.72260194234493"><ele>779.2</ele><time>2026-03-29T12:48:56Z</time></trkpt><trkpt lat="37.03671757482856" lon="14.722462493924322"><ele>780.4</ele><time>2026-03-29T12:48:57Z</time></trkpt><trkpt lat="37.036724839581446" lon="14.72232209137912"><ele>781.6</ele><time>2026-03-29T12:48:58Z</time></trkpt><trkpt lat="37.036736449605556" lon="14.722193557772238"><ele>782.8000000000001</ele><time>2026-03-29T12:48:59Z</time></trkpt><trkpt lat="37.036748953892904" lon="14.722071783228392"><ele>784.0</ele><time>2026-03-29T12:49:00Z</time></trkpt><trkpt lat="37.036768034153134" lon="14.721956316336813"><ele>784.6666666666666</ele><time>2026-03-29T12:49:01Z</time></trkpt><trkpt lat="37.03678487682775" lon="14.72185504621786"><ele>785.3333333333333</ele><time>2026-03-29T12:49:02Z</time></trkpt><trkpt lat="37.036805282040525" lon="14.72177864567714"><ele>786.0</ele><time>2026-03-29T12:49:03Z</time></trkpt><trkpt lat="37.036829672218246" lon="14.721671806654067"><ele>786.6666666666667</ele><time>2026-03-29T12:49:06Z</time></trkpt><trkpt lat="37.03687712968023" lon="14.721596552184854"><ele>787.3333333333334</ele><time>2026-03-29T12:49:08Z</time></trkpt><trkpt lat="37.03691337399934" lon="14.72146927736976"><ele>788.0</ele><time>2026-03-29T12:49:11Z</time></trkpt><trkpt lat="37.03694951011267" lon="14.721140490075562"><ele>789.0</ele><time>2026-03-29T12:49:13Z</time></trkpt><trkpt lat="37.03695604645459" lon="14.720989719833131"><ele>790.0</ele><time>2026-03-29T12:49:14Z</time></trkpt><trkpt lat="37.03696784940045" lon="14.72083433378159"><ele>791.0</ele><time>2026-03-29T12:49:15Z</time></trkpt><trkpt lat="37.03699112715383" lon="14.720687221197004"><ele>792.0</ele><time>2026-03-29T12:49:16Z</time></trkpt><trkpt lat="37.03700611505526" lon="14.720546361246402"><ele>792.0</ele><time>2026-03-29T12:49:17Z</time></trkpt><trkpt lat="37.03700767071437" lon="14.720380529500844"><ele>792.0</ele><time>2026-03-29T12:49:18Z</time></trkpt><trkpt lat="37.03701842192282" lon="14.72020234128501"><ele>792.0</ele><time>2026-03-29T12:49:19Z</time></trkpt><trkpt lat="37.03701348505548" lon="14.720044031648058"><ele>792.0</ele><time>2026-03-29T12:49:20Z</time></trkpt><trkpt lat="37.03700412386196" lon="14.719884398104924"><ele>793.0</ele><time>2026-03-29T12:49:21Z</time></trkpt><trkpt lat="37.036987825413135" lon="14.719722979353628"><ele>794.0</ele><time>2026-03-29T12:49:22Z</time></trkpt><trkpt lat="37.03696514175893" lon="14.719580348235278"><ele>795.0</ele><time>2026-03-29T12:49:23Z</time></trkpt><trkpt lat="37.03692536827801" lon="14.719422174398158"><ele>796.0</ele><time>2026-03-29T12:49:24Z</time></trkpt><trkpt lat="37.03689900678846" lon="14.719276743306217"><ele>796.1999999999999</ele><time>2026-03-29T12:49:25Z</time></trkpt><trkpt lat="37.036879695359026" lon="14.719152545448468"><ele>796.4</ele><time>2026-03-29T12:49:26Z</time></trkpt><trkpt lat="37.03685254183878" lon="14.719022417121872"><ele>796.6</ele><time>2026-03-29T12:49:27Z</time></trkpt><trkpt lat="37.03681069443226" lon="14.718910925644296"><ele>796.8</ele><time>2026-03-29T12:49:28Z</time></trkpt><trkpt lat="37.036759808836884" lon="14.718826866730884"><ele>797.0</ele><time>2026-03-29T12:49:29Z</time></trkpt><trkpt lat="37.03669801393372" lon="14.71874320817217"><ele>799.5000000000001</ele><time>2026-03-29T12:49:30Z</time></trkpt><trkpt lat="37.03663013868698" lon="14.718679299540343"><ele>802.0</ele><time>2026-03-29T12:49:31Z</time></trkpt><trkpt lat="37.036530322051355" lon="14.718629506198702"><ele>804.5</ele><time>2026-03-29T12:49:33Z</time></trkpt><trkpt lat="37.03644465140629" lon="14.718564457177552"><ele>807.0</ele><time>2026-03-29T12:49:35Z</time></trkpt><trkpt lat="37.03638808632594" lon="14.718506973341004"><ele>809.5000000000001</ele><time>2026-03-29T12:49:37Z</time></trkpt><trkpt lat="37.03630982974359" lon="14.718526468695083"><ele>812.0</ele><time>2026-03-29T12:49:39Z</time></trkpt><trkpt lat="37.03623215078894" lon="14.718392302868775"><ele>812.3333333333334</ele><time>2026-03-29T12:49:41Z</time></trkpt><trkpt lat="37.036191763310185" lon="14.71828458045331"><ele>812.6666666666667</ele><time>2026-03-29T12:49:42Z</time></trkpt><trkpt lat="37.03617294516265" lon="14.718202484777807"><ele>813.0</ele><time>2026-03-29T12:49:43Z</time></trkpt><trkpt lat="37.03614931642599" lon="14.718098119899958"><ele>813.3333333333333</ele><time>2026-03-29T12:49:45Z</time></trkpt><trkpt lat="37.03613689776838" lon="14.717993891888122"><ele>813.6666666666666</ele><time>2026-03-29T12:49:46Z</time></trkpt><trkpt lat="37.036122835802544" lon="14.717872926845063"><ele>814.0</ele><time>2026-03-29T12:49:47Z</time></trkpt><trkpt lat="37.03612093643962" lon="14.717739193533284"><ele>814.0</ele><time>2026-03-29T12:49:48Z</time></trkpt><trkpt lat="37.03608456778194" lon="14.717621018499752"><ele>814.0</ele><time>2026-03-29T12:49:49Z</time></trkpt><trkpt lat="37.036043714519266" lon="14.717525724120243"><ele>814.0</ele><time>2026-03-29T12:49:50Z</time></trkpt><trkpt lat="37.03603818751315" lon="14.717445698313053"><ele>814.0</ele><time>2026-03-29T12:49:51Z</time></trkpt><trkpt lat="37.036022182887116" lon="14.717347957067117"><ele>814.0</ele><time>2026-03-29T12:49:52Z</time></trkpt><trkpt lat="37.03601523943037" lon="14.717195847238978"><ele>813.9999999999999</ele><time>2026-03-29T12:49:54Z</time></trkpt><trkpt lat="37.03601624404539" lon="14.717113259976301"><ele>814.0</ele><time>2026-03-29T12:49:55Z</time></trkpt><trkpt lat="37.03602390600437" lon="14.717030401135712"><ele>814.0</ele><time>2026-03-29T12:49:56Z</time></trkpt><trkpt lat="37.036023451778085" lon="14.716934519423301"><ele>814.0</ele><time>2026-03-29T12:49:57Z</time></trkpt><trkpt lat="37.036080359568544" lon="14.716797715647681"><ele>813.9999999999999</ele><time>2026-03-29T12:49:59Z</time></trkpt><trkpt lat="37.03609271212258" lon="14.716713471368253"><ele>814.0</ele><time>2026-03-29T12:50:00Z</time></trkpt><trkpt lat="37.03607706660681" lon="14.716608981649768"><ele>813.1666666666666</ele><time>2026-03-29T12:50:02Z</time></trkpt><trkpt lat="37.0360760631243" lon="14.716501116004855"><ele>812.3333333333333</ele><time>2026-03-29T12:50:05Z</time></trkpt><trkpt lat="37.03612158195508" lon="14.716407291177655"><ele>811.5</ele><time>2026-03-29T12:50:08Z</time></trkpt><trkpt lat="37.03614438306175" lon="14.716305788770361"><ele>810.6666666666667</ele><time>2026-03-29T12:50:11Z</time></trkpt><trkpt lat="37.03609264868277" lon="14.716211034738564"><ele>809.8333333333334</ele><time>2026-03-29T12:50:12Z</time></trkpt><trkpt lat="37.036119172979156" lon="14.716137729458103"><ele>809.0</ele><time>2026-03-29T12:50:14Z</time></trkpt><trkpt lat="37.036092833667084" lon="14.716017456283675"><ele>807.4000000000001</ele><time>2026-03-29T12:50:17Z</time></trkpt><trkpt lat="37.03609056868532" lon="14.715928521599432"><ele>805.8</ele><time>2026-03-29T12:50:18Z</time></trkpt><trkpt lat="37.036106624611804" lon="14.71584969487537"><ele>804.2</ele><time>2026-03-29T12:50:19Z</time></trkpt><trkpt lat="37.036099679747565" lon="14.71572953999107"><ele>802.5999999999999</ele><time>2026-03-29T12:50:21Z</time></trkpt><trkpt lat="37.03626442265974" lon="14.715680256771725"><ele>801.0</ele><time>2026-03-29T12:50:22Z</time></trkpt><trkpt lat="37.03626443494694" lon="14.7155799387859"><ele>801.0</ele><time>2026-03-29T12:50:24Z</time></trkpt><trkpt lat="37.03608544491182" lon="14.715570785142399"><ele>801.0</ele><time>2026-03-29T12:50:25Z</time></trkpt><trkpt lat="37.036141095254" lon="14.715610200252048"><ele>801.0</ele><time>2026-03-29T12:50:27Z</time></trkpt><trkpt lat="37.036225311495095" lon="14.715636221241317"><ele>801.0</ele><time>2026-03-29T12:50:29Z</time></trkpt><trkpt lat="37.03630601862793" lon="14.715592973505723"><ele>801.0</ele><time>2026-03-29T12:50:32Z</time></trkpt><trkpt lat="37.036311782474115" lon="14.715425127839353"><ele>801.0</ele><time>2026-03-29T12:50:34Z</time></trkpt><trkpt lat="37.03634229430957" lon="14.715300244297953"><ele>801.0</ele><time>2026-03-29T12:50:35Z</time></trkpt><trkpt lat="37.03632769603288" lon="14.715131933084443"><ele>801.0</ele><time>2026-03-29T12:50:36Z</time></trkpt><trkpt lat="37.03634566147851" lon="14.715001040201628"><ele>801.0</ele><time>2026-03-29T12:50:37Z</time></trkpt><trkpt lat="37.036350613626404" lon="14.714881008488492"><ele>801.0</ele><time>2026-03-29T12:50:38Z</time></trkpt><trkpt lat="37.03636330779682" lon="14.714761258039518"><ele>798.5999999999999</ele><time>2026-03-29T12:50:39Z</time></trkpt><trkpt lat="37.03636775295597" lon="14.714643355934639"><ele>796.2</ele><time>2026-03-29T12:50:40Z</time></trkpt><trkpt lat="37.03637767422281" lon="14.714530240454899"><ele>793.8</ele><time>2026-03-29T12:50:41Z</time></trkpt><trkpt lat="37.03638777772376" lon="14.7144135426286"><ele>791.4000000000001</ele><time>2026-03-29T12:50:42Z</time></trkpt><trkpt lat="37.036396112432065" lon="14.71430158403069"><ele>789.0</ele><time>2026-03-29T12:50:43Z</time></trkpt><trkpt lat="37.036408204523276" lon="14.714189183107568"><ele>784.4000000000001</ele><time>2026-03-29T12:50:44Z</time></trkpt><trkpt lat="37.03641502208042" lon="14.714073105271133"><ele>779.8</ele><time>2026-03-29T12:50:45Z</time></trkpt><trkpt lat="37.03642248726712" lon="14.713950515800551"><ele>775.2</ele><time>2026-03-29T12:50:46Z</time></trkpt><trkpt lat="37.036447358792046" lon="14.713831433597772"><ele>770.5999999999999</ele><time>2026-03-29T12:50:47Z</time></trkpt><trkpt lat="37.03647063063483" lon="14.713712292445674"><ele>766.0</ele><time>2026-03-29T12:50:48Z</time></trkpt><trkpt lat="37.0365008480906" lon="14.713599349162191"><ele>761.1999999999999</ele><time>2026-03-29T12:50:49Z</time></trkpt><trkpt lat="37.036518242987064" lon="14.713481115785198"><ele>756.4</ele><time>2026-03-29T12:50:50Z</time></trkpt><trkpt lat="37.036541244277444" lon="14.713364092078411"><ele>751.6</ele><time>2026-03-29T12:50:51Z</time></trkpt><trkpt lat="37.03663759021211" lon="14.713290706078148"><ele>746.8</ele><time>2026-03-29T12:50:52Z</time></trkpt><trkpt lat="37.03667785597545" lon="14.713183211084269"><ele>742.0</ele><time>2026-03-29T12:50:53Z</time></trkpt><trkpt lat="37.0367227363723" lon="14.713087929839027"><ele>741.6</ele><time>2026-03-29T12:50:54Z</time></trkpt><trkpt lat="37.0367699700463" lon="14.71298680016033"><ele>741.2</ele><time>2026-03-29T12:50:55Z</time></trkpt><trkpt lat="37.03681044067341" lon="14.712883561993246"><ele>740.8</ele><time>2026-03-29T12:50:56Z</time></trkpt><trkpt lat="37.0368485987727" lon="14.71279254752669"><ele>740.4</ele><time>2026-03-29T12:50:57Z</time></trkpt><trkpt lat="37.036877248640565" lon="14.712692568366975"><ele>740.0</ele><time>2026-03-29T12:50:58Z</time></trkpt><trkpt lat="37.036859627323715" lon="14.712564963548997"><ele>737.6666666666666</ele><time>2026-03-29T12:50:59Z</time></trkpt><trkpt lat="37.03685480671555" lon="14.712473326899882"><ele>735.3333333333333</ele><time>2026-03-29T12:51:00Z</time></trkpt><trkpt lat="37.03686248203998" lon="14.712373026377849"><ele>733.0</ele><time>2026-03-29T12:51:01Z</time></trkpt><trkpt lat="37.03686641489403" lon="14.71223318189743"><ele>730.6666666666666</ele><time>2026-03-29T12:51:03Z</time></trkpt><trkpt lat="37.0368477092136" lon="14.71215248540738"><ele>728.3333333333334</ele><time>2026-03-29T12:51:05Z</time></trkpt><trkpt lat="37.03679770398028" lon="14.712059885750664"><ele>726.0</ele><time>2026-03-29T12:51:07Z</time></trkpt><trkpt lat="37.03676509189537" lon="14.711969800920716"><ele>719.3333333333334</ele><time>2026-03-29T12:51:11Z</time></trkpt><trkpt lat="37.03672758339252" lon="14.711813807929481"><ele>712.6666666666667</ele><time>2026-03-29T12:51:14Z</time></trkpt><trkpt lat="37.03694420106735" lon="14.711732079759845"><ele>706.0</ele><time>2026-03-29T12:51:15Z</time></trkpt><trkpt lat="37.03700910307351" lon="14.711513676298997"><ele>706.0</ele><time>2026-03-29T12:51:18Z</time></trkpt><trkpt lat="37.037121624357894" lon="14.711442144495475"><ele>706.0</ele><time>2026-03-29T12:51:20Z</time></trkpt><trkpt lat="37.03717186431516" lon="14.711394084579716"><ele>706.0</ele><time>2026-03-29T12:51:21Z</time></trkpt><trkpt lat="37.03721265404598" lon="14.711267256901971"><ele>706.0</ele><time>2026-03-29T12:51:23Z</time></trkpt><trkpt lat="37.03715557180461" lon="14.711139552803028"><ele>706.0</ele><time>2026-03-29T12:51:25Z</time></trkpt><trkpt lat="37.037076710732016" lon="14.711083948790877"><ele>702.0</ele><time>2026-03-29T12:51:26Z</time></trkpt><trkpt lat="37.03697274098281" lon="14.711019947311298"><ele>698.0</ele><time>2026-03-29T12:51:27Z</time></trkpt><trkpt lat="37.0368673127276" lon="14.710960728630765"><ele>694.0</ele><time>2026-03-29T12:51:28Z</time></trkpt><trkpt lat="37.03677977581223" lon="14.710895039157561"><ele>690.0</ele><time>2026-03-29T12:51:29Z</time></trkpt><trkpt lat="37.03670273554641" lon="14.710829237857697"><ele>686.0</ele><time>2026-03-29T12:51:30Z</time></trkpt><trkpt lat="37.036629813541154" lon="14.710778953272397"><ele>683.25</ele><time>2026-03-29T12:51:31Z</time></trkpt><trkpt lat="37.036569377006984" lon="14.710743579024566"><ele>680.5</ele><time>2026-03-29T12:51:32Z</time></trkpt><trkpt lat="37.03659736970248" lon="14.710492541316835"><ele>677.75</ele><time>2026-03-29T12:51:33Z</time></trkpt><trkpt lat="37.0365787637646" lon="14.710325917138897"><ele>675.0</ele><time>2026-03-29T12:51:34Z</time></trkpt><trkpt lat="37.036539161603436" lon="14.710166695110264"><ele>673.0</ele><time>2026-03-29T12:51:35Z</time></trkpt><trkpt lat="37.03651899822121" lon="14.710007588951738"><ele>671.0</ele><time>2026-03-29T12:51:36Z</time></trkpt><trkpt lat="37.03650636405493" lon="14.709855520439815"><ele>669.0</ele><time>2026-03-29T12:51:37Z</time></trkpt><trkpt lat="37.03650233466792" lon="14.709696646291095"><ele>667.0</ele><time>2026-03-29T12:51:38Z</time></trkpt><trkpt lat="37.03650518894903" lon="14.709542636874001"><ele>667.0</ele><time>2026-03-29T12:51:39Z</time></trkpt><trkpt lat="37.036509615994525" lon="14.709418647050644"><ele>667.0</ele><time>2026-03-29T12:51:40Z</time></trkpt><trkpt lat="37.03652111566577" lon="14.709289568641431"><ele>667.0</ele><time>2026-03-29T12:51:41Z</time></trkpt><trkpt lat="37.03654123017428" lon="14.709149793309662"><ele>667.0</ele><time>2026-03-29T12:51:42Z</time></trkpt><trkpt lat="37.03656755982781" lon="14.709011222799807"><ele>667.0</ele><time>2026-03-29T12:51:43Z</time></trkpt><trkpt lat="37.036617125200046" lon="14.708875778736854"><ele>667.5</ele><time>2026-03-29T12:51:44Z</time></trkpt><trkpt lat="37.03668843817816" lon="14.708759134110007"><ele>668.0</ele><time>2026-03-29T12:51:45Z</time></trkpt><trkpt lat="37.036766096572556" lon="14.708634991450172"><ele>668.5</ele><time>2026-03-29T12:51:46Z</time></trkpt><trkpt lat="37.03685246301781" lon="14.70850481166605"><ele>669.0</ele><time>2026-03-29T12:51:47Z</time></trkpt><trkpt lat="37.03690213178074" lon="14.708360240133578"><ele>670.5</ele><time>2026-03-29T12:51:48Z</time></trkpt><trkpt lat="37.03694789605439" lon="14.708217685520566"><ele>672.0</ele><time>2026-03-29T12:51:49Z</time></trkpt><trkpt lat="37.03699930050062" lon="14.708085957227185"><ele>673.5</ele><time>2026-03-29T12:51:50Z</time></trkpt><trkpt lat="37.037034116667115" lon="14.707966320398757"><ele>675.0</ele><time>2026-03-29T12:51:51Z</time></trkpt><trkpt lat="37.037097138913666" lon="14.707835259014182"><ele>678.5</ele><time>2026-03-29T12:51:52Z</time></trkpt><trkpt lat="37.03715162297686" lon="14.707697678077727"><ele>682.0</ele><time>2026-03-29T12:51:53Z</time></trkpt><trkpt lat="37.03721453159653" lon="14.70757078167774"><ele>685.5</ele><time>2026-03-29T12:51:54Z</time></trkpt><trkpt lat="37.03729267702767" lon="14.707428274347112"><ele>689.0</ele><time>2026-03-29T12:51:55Z</time></trkpt><trkpt lat="37.0373635114497" lon="14.707277213294482"><ele>689.0</ele><time>2026-03-29T12:51:56Z</time></trkpt><trkpt lat="37.03741576306343" lon="14.707124491800226"><ele>689.0</ele><time>2026-03-29T12:51:57Z</time></trkpt><trkpt lat="37.037485665624956" lon="14.70698955820414"><ele>689.0</ele><time>2026-03-29T12:51:58Z</time></trkpt><trkpt lat="37.03753528346958" lon="14.706853770125557"><ele>689.0</ele><time>2026-03-29T12:51:59Z</time></trkpt><trkpt lat="37.037590205504635" lon="14.706737196812217"><ele>684.8333333333333</ele><time>2026-03-29T12:52:00Z</time></trkpt><trkpt lat="37.03760828836788" lon="14.7066263339689"><ele>680.6666666666666</ele><time>2026-03-29T12:52:01Z</time></trkpt><trkpt lat="37.037636265824695" lon="14.706521889075296"><ele>676.5</ele><time>2026-03-29T12:52:02Z</time></trkpt><trkpt lat="37.03763017227049" lon="14.706421428371478"><ele>672.3333333333334</ele><time>2026-03-29T12:52:03Z</time></trkpt><trkpt lat="37.03760901932153" lon="14.706342217771688"><ele>668.1666666666667</ele><time>2026-03-29T12:52:04Z</time></trkpt><trkpt lat="37.03757172803136" lon="14.706256601879005"><ele>664.0</ele><time>2026-03-29T12:52:05Z</time></trkpt><trkpt lat="37.0375507547129" lon="14.706170338864638"><ele>664.0</ele><time>2026-03-29T12:52:06Z</time></trkpt><trkpt lat="37.037525644701944" lon="14.70608951014888"><ele>664.0</ele><time>2026-03-29T12:52:07Z</time></trkpt><trkpt lat="37.03749711545109" lon="14.705984838363724"><ele>664.0</ele><time>2026-03-29T12:52:08Z</time></trkpt><trkpt lat="37.037466443486785" lon="14.705884054569951"><ele>664.0</ele><time>2026-03-29T12:52:09Z</time></trkpt><trkpt lat="37.037423696030665" lon="14.705814102699058"><ele>664.0</ele><time>2026-03-29T12:52:10Z</time></trkpt><trkpt lat="37.0373826691625" lon="14.705735049837145"><ele>664.0</ele><time>2026-03-29T12:52:11Z</time></trkpt><trkpt lat="37.03733346514545" lon="14.70567303526424"><ele>664.1666666666667</ele><time>2026-03-29T12:52:12Z</time></trkpt><trkpt lat="37.03728916604084" lon="14.705615100144035"><ele>664.3333333333334</ele><time>2026-03-29T12:52:13Z</time></trkpt><trkpt lat="37.03724915972968" lon="14.705549183363146"><ele>664.5</ele><time>2026-03-29T12:52:14Z</time></trkpt><trkpt lat="37.03720503639669" lon="14.705480632679395"><ele>664.6666666666666</ele><time>2026-03-29T12:52:15Z</time></trkpt><trkpt lat="37.037169698347576" lon="14.705410512317298"><ele>664.8333333333333</ele><time>2026-03-29T12:52:16Z</time></trkpt><trkpt lat="37.037127964457184" lon="14.705337262816258"><ele>665.0</ele><time>2026-03-29T12:52:17Z</time></trkpt><trkpt lat="37.03705547102118" lon="14.70521100636219"><ele>659.8</ele><time>2026-03-29T12:52:19Z</time></trkpt><trkpt lat="37.03698644004939" lon="14.705078236438963"><ele>654.6</ele><time>2026-03-29T12:52:21Z</time></trkpt><trkpt lat="37.03695493123272" lon="14.705005222313131"><ele>649.4</ele><time>2026-03-29T12:52:22Z</time></trkpt><trkpt lat="37.036885035060166" lon="14.704868352191138"><ele>644.2</ele><time>2026-03-29T12:52:24Z</time></trkpt><trkpt lat="37.03685371497656" lon="14.704791185686503"><ele>639.0</ele><time>2026-03-29T12:52:25Z</time></trkpt><trkpt lat="37.036818537140576" lon="14.704687537814156"><ele>639.0</ele><time>2026-03-29T12:52:26Z</time></trkpt><trkpt lat="37.036786217044856" lon="14.704584632132839"><ele>639.0</ele><time>2026-03-29T12:52:27Z</time></trkpt><trkpt lat="37.03676232021436" lon="14.704496101373866"><ele>639.0</ele><time>2026-03-29T12:52:28Z</time></trkpt><trkpt lat="37.03675284238281" lon="14.704408065000568"><ele>639.0</ele><time>2026-03-29T12:52:29Z</time></trkpt><trkpt lat="37.03676228987835" lon="14.704289913563231"><ele>639.0</ele><time>2026-03-29T12:52:30Z</time></trkpt><trkpt lat="37.036777627169" lon="14.704198962418692"><ele>639.0</ele><time>2026-03-29T12:52:31Z</time></trkpt><trkpt lat="37.036810036216814" lon="14.704128760133255"><ele>634.4</ele><time>2026-03-29T12:52:32Z</time></trkpt><trkpt lat="37.03680518213949" lon="14.703994851617548"><ele>629.8</ele><time>2026-03-29T12:52:34Z</time></trkpt><trkpt lat="37.036800250833764" lon="14.703897015582301"><ele>625.2</ele><time>2026-03-29T12:52:35Z</time></trkpt><trkpt lat="37.03679942368465" lon="14.703788325945501"><ele>620.6</ele><time>2026-03-29T12:52:36Z</time></trkpt><trkpt lat="37.03680723207922" lon="14.703663182518959"><ele>616.0</ele><time>2026-03-29T12:52:37Z</time></trkpt><trkpt lat="37.03683965331833" lon="14.703503108630771"><ele>613.0</ele><time>2026-03-29T12:52:38Z</time></trkpt><trkpt lat="37.036853290368484" lon="14.703374640414536"><ele>610.0</ele><time>2026-03-29T12:52:39Z</time></trkpt><trkpt lat="37.036871018418594" lon="14.703248337202494"><ele>607.0</ele><time>2026-03-29T12:52:40Z</time></trkpt><trkpt lat="37.03689438245165" lon="14.703129071233699"><ele>604.0</ele><time>2026-03-29T12:52:41Z</time></trkpt><trkpt lat="37.036907890755124" lon="14.703021160338995"><ele>601.0</ele><time>2026-03-29T12:52:42Z</time></trkpt><trkpt lat="37.036912986803536" lon="14.702906458912278"><ele>601.0</ele><time>2026-03-29T12:52:43Z</time></trkpt><trkpt lat="37.036893806407825" lon="14.702810103712826"><ele>601.0</ele><time>2026-03-29T12:52:44Z</time></trkpt><trkpt lat="37.03688661645652" lon="14.702713049307167"><ele>601.0</ele><time>2026-03-29T12:52:45Z</time></trkpt><trkpt lat="37.036871432469816" lon="14.70263536255479"><ele>601.0</ele><time>2026-03-29T12:52:46Z</time></trkpt><trkpt lat="37.03685310438084" lon="14.702538107581614"><ele>601.0</ele><time>2026-03-29T12:52:47Z</time></trkpt><trkpt lat="37.03682679321217" lon="14.702440340356597"><ele>601.0</ele><time>2026-03-29T12:52:48Z</time></trkpt><trkpt lat="37.03680163397958" lon="14.702326022567764"><ele>598.1666666666667</ele><time>2026-03-29T12:52:49Z</time></trkpt><trkpt lat="37.036798071207826" lon="14.702223339229548"><ele>595.3333333333334</ele><time>2026-03-29T12:52:50Z</time></trkpt><trkpt lat="37.0367679234011" lon="14.702120133054574"><ele>592.5</ele><time>2026-03-29T12:52:51Z</time></trkpt><trkpt lat="37.03675954570383" lon="14.702008297582864"><ele>589.6666666666666</ele><time>2026-03-29T12:52:52Z</time></trkpt><trkpt lat="37.036765824310656" lon="14.701898086345361"><ele>586.8333333333333</ele><time>2026-03-29T12:52:53Z</time></trkpt><trkpt lat="37.03677497829992" lon="14.701800107430525"><ele>584.0</ele><time>2026-03-29T12:52:54Z</time></trkpt><trkpt lat="37.036812665299806" lon="14.701724535522219"><ele>582.3333333333333</ele><time>2026-03-29T12:52:55Z</time></trkpt><trkpt lat="37.03689055510196" lon="14.701618866010296"><ele>580.6666666666666</ele><time>2026-03-29T12:52:57Z</time></trkpt><trkpt lat="37.036953693000164" lon="14.701565992011275"><ele>579.0</ele><time>2026-03-29T12:52:58Z</time></trkpt><trkpt lat="37.03701329233761" lon="14.70151866944742"><ele>577.3333333333334</ele><time>2026-03-29T12:52:59Z</time></trkpt><trkpt lat="37.037088429114405" lon="14.701488767519994"><ele>575.6666666666667</ele><time>2026-03-29T12:53:00Z</time></trkpt><trkpt lat="37.03718120103207" lon="14.70142072983175"><ele>574.0</ele><time>2026-03-29T12:53:02Z</time></trkpt><trkpt lat="37.03724441969611" lon="14.701447947886798"><ele>574.0</ele><time>2026-03-29T12:53:03Z</time></trkpt><trkpt lat="37.03735630817329" lon="14.701428371106118"><ele>574.0</ele><time>2026-03-29T12:53:05Z</time></trkpt><trkpt lat="37.03747291037864" lon="14.701405710857937"><ele>574.0</ele><time>2026-03-29T12:53:07Z</time></trkpt><trkpt lat="37.037589617530024" lon="14.701401961882603"><ele>574.0</ele><time>2026-03-29T12:53:09Z</time></trkpt><trkpt lat="37.03769394904372" lon="14.701395750397987"><ele>573.2</ele><time>2026-03-29T12:53:11Z</time></trkpt><trkpt lat="37.037792936284" lon="14.70141356894949"><ele>572.4</ele><time>2026-03-29T12:53:13Z</time></trkpt><trkpt lat="37.03785649962446" lon="14.701470607827718"><ele>571.6</ele><time>2026-03-29T12:53:15Z</time></trkpt><trkpt lat="37.037966219604556" lon="14.701575643453626"><ele>570.8</ele><time>2026-03-29T12:53:19Z</time></trkpt><trkpt lat="37.0380585177233" lon="14.701561028204486"><ele>570.0</ele><time>2026-03-29T12:53:22Z</time></trkpt><trkpt lat="37.0382716720573" lon="14.701573828392757"><ele>565.3333333333334</ele><time>2026-03-29T12:53:26Z</time></trkpt><trkpt lat="37.0383837110385" lon="14.70158662405395"><ele>560.6666666666667</ele><time>2026-03-29T12:53:27Z</time></trkpt><trkpt lat="37.03847229858617" lon="14.701615403549491"><ele>556.0</ele><time>2026-03-29T12:53:28Z</time></trkpt><trkpt lat="37.03876949053121" lon="14.701748426457211"><ele>556.0</ele><time>2026-03-29T12:53:31Z</time></trkpt><trkpt lat="37.038832981675704" lon="14.701780971463908"><ele>556.0</ele><time>2026-03-29T12:53:32Z</time></trkpt><trkpt lat="37.0389003488632" lon="14.701809978257268"><ele>556.0</ele><time>2026-03-29T12:53:33Z</time></trkpt><trkpt lat="37.03897205672666" lon="14.701830022170371"><ele>556.0</ele><time>2026-03-29T12:53:34Z</time></trkpt><trkpt lat="37.03921156260213" lon="14.701867897995701"><ele>555.0</ele><time>2026-03-29T12:53:40Z</time></trkpt><trkpt lat="37.039268232042076" lon="14.701934031926273"><ele>554.0</ele><time>2026-03-29T12:53:42Z</time></trkpt><trkpt lat="37.0392509439205" lon="14.702018584318195"><ele>553.0</ele><time>2026-03-29T12:53:44Z</time></trkpt><trkpt lat="37.03927347494707" lon="14.702121658237827"><ele>552.0</ele><time>2026-03-29T12:53:46Z</time></trkpt><trkpt lat="37.03929817314911" lon="14.702194775856723"><ele>551.0</ele><time>2026-03-29T12:53:47Z</time></trkpt><trkpt lat="37.03934460251941" lon="14.702300512542427"><ele>550.0</ele><time>2026-03-29T12:53:49Z</time></trkpt><trkpt lat="37.039410406855644" lon="14.702375970749731"><ele>550.0</ele><time>2026-03-29T12:53:51Z</time></trkpt><trkpt lat="37.03949358149401" lon="14.702349038617566"><ele>550.0</ele><time>2026-03-29T12:53:53Z</time></trkpt><trkpt lat="37.03956888422028" lon="14.702307135442702"><ele>550.0</ele><time>2026-03-29T12:53:58Z</time></trkpt><trkpt lat="37.039628259320956" lon="14.702236133933754"><ele>550.0</ele><time>2026-03-29T12:54:00Z</time></trkpt><trkpt lat="37.039689309581505" lon="14.70218511517313"><ele>550.0</ele><time>2026-03-29T12:54:02Z</time></trkpt><trkpt lat="37.03979056068158" lon="14.702084872934774"><ele>550.0</ele><time>2026-03-29T12:54:04Z</time></trkpt><trkpt lat="37.03982383097419" lon="14.702011140857113"><ele>550.0</ele><time>2026-03-29T12:54:06Z</time></trkpt><trkpt lat="37.0399315402204" lon="14.701926442907451"><ele>550.0</ele><time>2026-03-29T12:54:09Z</time></trkpt><trkpt lat="37.03999168955574" lon="14.7018950910832"><ele>550.0</ele><time>2026-03-29T12:54:13Z</time></trkpt><trkpt lat="37.040050771827744" lon="14.701831602050719"><ele>550.0</ele><time>2026-03-29T12:54:15Z</time></trkpt><trkpt lat="37.04010487932884" lon="14.701790869000398"><ele>550.0</ele><time>2026-03-29T12:54:16Z</time></trkpt><trkpt lat="37.040169492821896" lon="14.701749211886433"><ele>546.6666666666667</ele><time>2026-03-29T12:54:17Z</time></trkpt><trkpt lat="37.04023466849681" lon="14.701707579295892"><ele>543.3333333333334</ele><time>2026-03-29T12:54:18Z</time></trkpt><trkpt lat="37.040297805593575" lon="14.701667845216162"><ele>540.0</ele><time>2026-03-29T12:54:19Z</time></trkpt><trkpt lat="37.04036917585214" lon="14.701606234311095"><ele>536.6666666666666</ele><time>2026-03-29T12:54:20Z</time></trkpt><trkpt lat="37.04043275343517" lon="14.701569761878494"><ele>533.3333333333333</ele><time>2026-03-29T12:54:21Z</time></trkpt><trkpt lat="37.040540676789114" lon="14.701507174516294"><ele>530.0</ele><time>2026-03-29T12:54:23Z</time></trkpt><trkpt lat="37.04063278999104" lon="14.701447373788463"><ele>530.0</ele><time>2026-03-29T12:54:25Z</time></trkpt><trkpt lat="37.040696179456035" lon="14.701352636700214"><ele>530.0</ele><time>2026-03-29T12:54:27Z</time></trkpt><trkpt lat="37.04074242240724" lon="14.701236939147408"><ele>530.0</ele><time>2026-03-29T12:54:29Z</time></trkpt><trkpt lat="37.04074737915599" lon="14.701071821626588"><ele>530.0</ele><time>2026-03-29T12:54:31Z</time></trkpt><trkpt lat="37.04073123666572" lon="14.700949021260806"><ele>530.0</ele><time>2026-03-29T12:54:32Z</time></trkpt><trkpt lat="37.04065412436433" lon="14.700802294270172"><ele>526.0</ele><time>2026-03-29T12:54:33Z</time></trkpt><trkpt lat="37.040631983771036" lon="14.700636073560393"><ele>522.0</ele><time>2026-03-29T12:54:34Z</time></trkpt><trkpt lat="37.040644741787766" lon="14.700441771216411"><ele>518.0</ele><time>2026-03-29T12:54:35Z</time></trkpt><trkpt lat="37.040653142856065" lon="14.700226516403635"><ele>515.3333333333333</ele><time>2026-03-29T12:54:36Z</time></trkpt><trkpt lat="37.04067288230577" lon="14.699990623916944"><ele>512.6666666666666</ele><time>2026-03-29T12:54:37Z</time></trkpt><trkpt lat="37.040693717208086" lon="14.69976174697151"><ele>510.0</ele><time>2026-03-29T12:54:38Z</time></trkpt><trkpt lat="37.04072038084674" lon="14.699543772645308"><ele>507.33333333333337</ele><time>2026-03-29T12:54:39Z</time></trkpt><trkpt lat="37.04073132152414" lon="14.699337585804647"><ele>504.6666666666667</ele><time>2026-03-29T12:54:40Z</time></trkpt><trkpt lat="37.04073406600914" lon="14.699141981547493"><ele>502.0</ele><time>2026-03-29T12:54:41Z</time></trkpt><trkpt lat="37.04072922296418" lon="14.698952656542854"><ele>502.0</ele><time>2026-03-29T12:54:42Z</time></trkpt><trkpt lat="37.0407227516142" lon="14.698768225250234"><ele>502.0</ele><time>2026-03-29T12:54:43Z</time></trkpt><trkpt lat="37.04072920161571" lon="14.698560567038593"><ele>502.0</ele><time>2026-03-29T12:54:44Z</time></trkpt><trkpt lat="37.040708692274286" lon="14.698356755613892"><ele>499.6666666666667</ele><time>2026-03-29T12:54:45Z</time></trkpt><trkpt lat="37.04071605633194" lon="14.698151165408811"><ele>497.33333333333337</ele><time>2026-03-29T12:54:46Z</time></trkpt><trkpt lat="37.04070520477734" lon="14.69793703338936"><ele>495.0</ele><time>2026-03-29T12:54:47Z</time></trkpt><trkpt lat="37.040697726193905" lon="14.697730042935003"><ele>493.0</ele><time>2026-03-29T12:54:48Z</time></trkpt><trkpt lat="37.04070136119598" lon="14.697517977238952"><ele>491.0</ele><time>2026-03-29T12:54:49Z</time></trkpt><trkpt lat="37.04070975803374" lon="14.697302779701522"><ele>489.0</ele><time>2026-03-29T12:54:50Z</time></trkpt><trkpt lat="37.040735301431226" lon="14.697107421724185"><ele>486.33333333333337</ele><time>2026-03-29T12:54:51Z</time></trkpt><trkpt lat="37.04074642092649" lon="14.696886615439851"><ele>483.6666666666667</ele><time>2026-03-29T12:54:52Z</time></trkpt><trkpt lat="37.04074797105458" lon="14.69666958336834"><ele>481.0</ele><time>2026-03-29T12:54:53Z</time></trkpt><trkpt lat="37.04075658521218" lon="14.696472079757191"><ele>481.0</ele><time>2026-03-29T12:54:54Z</time></trkpt><trkpt lat="37.04076180204449" lon="14.696286161541108"><ele>481.0</ele><time>2026-03-29T12:54:55Z</time></trkpt><trkpt lat="37.0407765356792" lon="14.696107123388963"><ele>481.0</ele><time>2026-03-29T12:54:56Z</time></trkpt><trkpt lat="37.040788073568166" lon="14.695938524404397"><ele>481.0</ele><time>2026-03-29T12:54:57Z</time></trkpt><trkpt lat="37.04079917635978" lon="14.695775101154126"><ele>481.4</ele><time>2026-03-29T12:54:58Z</time></trkpt><trkpt lat="37.040807295632355" lon="14.695631613194493"><ele>481.8</ele><time>2026-03-29T12:54:59Z</time></trkpt><trkpt lat="37.04081481859555" lon="14.695496169778636"><ele>482.19999999999993</ele><time>2026-03-29T12:55:00Z</time></trkpt><trkpt lat="37.04082580124639" lon="14.695366415373964"><ele>482.59999999999997</ele><time>2026-03-29T12:55:01Z</time></trkpt><trkpt lat="37.040827573506974" lon="14.695231799073111"><ele>483.0</ele><time>2026-03-29T12:55:02Z</time></trkpt><trkpt lat="37.040832320042874" lon="14.695087104214753"><ele>482.0</ele><time>2026-03-29T12:55:03Z</time></trkpt><trkpt lat="37.040829908097905" lon="14.694969307040084"><ele>481.0</ele><time>2026-03-29T12:55:04Z</time></trkpt><trkpt lat="37.04082860211336" lon="14.694862554201158"><ele>480.0</ele><time>2026-03-29T12:55:05Z</time></trkpt><trkpt lat="37.04082211698703" lon="14.694764769266625"><ele>479.0</ele><time>2026-03-29T12:55:06Z</time></trkpt><trkpt lat="37.040818970499245" lon="14.69466479525249"><ele>478.0</ele><time>2026-03-29T12:55:07Z</time></trkpt><trkpt lat="37.04079778985091" lon="14.694552234758614"><ele>477.0</ele><time>2026-03-29T12:55:09Z</time></trkpt><trkpt lat="37.04077926071711" lon="14.694452667701764"><ele>475.0</ele><time>2026-03-29T12:55:12Z</time></trkpt><trkpt lat="37.04072799445717" lon="14.694403540993068"><ele>473.0</ele><time>2026-03-29T12:55:14Z</time></trkpt><trkpt lat="37.04064188971228" lon="14.694407532368734"><ele>471.0</ele><time>2026-03-29T12:55:18Z</time></trkpt><trkpt lat="37.04054416112273" lon="14.694393209303314"><ele>469.0</ele><time>2026-03-29T12:55:20Z</time></trkpt><trkpt lat="37.04048015954551" lon="14.694392391975235"><ele>467.0</ele><time>2026-03-29T12:55:22Z</time></trkpt><trkpt lat="37.0405485362452" lon="14.694388637025911"><ele>465.0</ele><time>2026-03-29T12:55:26Z</time></trkpt><trkpt lat="37.04059185419079" lon="14.694143834987825"><ele>465.0</ele><time>2026-03-29T12:55:27Z</time></trkpt><trkpt lat="37.04065835552049" lon="14.694129936432883"><ele>465.0</ele><time>2026-03-29T12:55:30Z</time></trkpt><trkpt lat="37.04067801623413" lon="14.694039158594437"><ele>465.0</ele><time>2026-03-29T12:55:34Z</time></trkpt><trkpt lat="37.04064836429982" lon="14.693929721819305"><ele>465.0</ele><time>2026-03-29T12:55:37Z</time></trkpt><trkpt lat="37.04058707385622" lon="14.693869938496023"><ele>465.0</ele><time>2026-03-29T12:55:39Z</time></trkpt><trkpt lat="37.04055144440964" lon="14.69380170696046"><ele>465.0</ele><time>2026-03-29T12:55:41Z</time></trkpt><trkpt lat="37.04059854579957" lon="14.693738809572771"><ele>465.0</ele><time>2026-03-29T12:55:44Z</time></trkpt><trkpt lat="37.0406782262001" lon="14.693669548273224"><ele>465.0</ele><time>2026-03-29T12:55:47Z</time></trkpt><trkpt lat="37.0408034444934" lon="14.6937028899664"><ele>465.0</ele><time>2026-03-29T12:55:49Z</time></trkpt><trkpt lat="37.04086482881991" lon="14.69362540465813"><ele>465.0</ele><time>2026-03-29T12:55:53Z</time></trkpt><trkpt lat="37.04095806743175" lon="14.693600781645925"><ele>465.0</ele><time>2026-03-29T12:55:56Z</time></trkpt><trkpt lat="37.041085797839685" lon="14.693571148902013"><ele>465.0</ele><time>2026-03-29T12:56:03Z</time></trkpt><trkpt lat="37.04115687620669" lon="14.693605043086466"><ele>465.0</ele><time>2026-03-29T12:56:05Z</time></trkpt><trkpt lat="37.04123083795427" lon="14.69359204117753"><ele>465.0</ele><time>2026-03-29T12:56:07Z</time></trkpt><trkpt lat="37.041294639841425" lon="14.69359265670896"><ele>465.0</ele><time>2026-03-29T12:56:11Z</time></trkpt><trkpt lat="37.041319586220375" lon="14.693489138900093"><ele>465.0</ele><time>2026-03-29T12:56:16Z</time></trkpt><trkpt lat="37.041326740108666" lon="14.693407047716445"><ele>465.0</ele><time>2026-03-29T12:56:19Z</time></trkpt><trkpt lat="37.041248991493006" lon="14.693362439177115"><ele>465.0</ele><time>2026-03-29T12:56:20Z</time></trkpt><trkpt lat="37.041175204735616" lon="14.69336701043284"><ele>464.6666666666667</ele><time>2026-03-29T12:56:24Z</time></trkpt><trkpt lat="37.04110303338652" lon="14.693307445035764"><ele>464.33333333333337</ele><time>2026-03-29T12:56:27Z</time></trkpt><trkpt lat="37.04101045183922" lon="14.693280931019412"><ele>464.0</ele><time>2026-03-29T12:56:30Z</time></trkpt><trkpt lat="37.0409237771033" lon="14.693218572677022"><ele>463.6666666666667</ele><time>2026-03-29T12:56:34Z</time></trkpt><trkpt lat="37.040841155778224" lon="14.693211138024196"><ele>463.33333333333337</ele><time>2026-03-29T12:56:39Z</time></trkpt><trkpt lat="37.04076001187145" lon="14.693209062401536"><ele>463.0</ele><time>2026-03-29T13:00:29Z</time></trkpt><trkpt lat="37.040693990049455" lon="14.693253883334652"><ele>463.0</ele><time>2026-03-29T13:02:18Z</time></trkpt><trkpt lat="37.04061490487979" lon="14.693270784200704"><ele>462.99999999999994</ele><time>2026-03-29T13:02:20Z</time></trkpt><trkpt lat="37.04051182438385" lon="14.693301509308428"><ele>462.99999999999994</ele><time>2026-03-29T13:02:22Z</time></trkpt><trkpt lat="37.04041465035929" lon="14.69333037720959"><ele>463.0</ele><time>2026-03-29T13:02:23Z</time></trkpt><trkpt lat="37.040292547766455" lon="14.693368408251072"><ele>463.0</ele><time>2026-03-29T13:02:24Z</time></trkpt><trkpt lat="37.04017330167097" lon="14.693353566725333"><ele>463.0</ele><time>2026-03-29T13:02:25Z</time></trkpt><trkpt lat="37.040074059525715" lon="14.693381877053755"><ele>463.0</ele><time>2026-03-29T13:02:26Z</time></trkpt><trkpt lat="37.03993877825535" lon="14.693422004252305"><ele>463.0</ele><time>2026-03-29T13:02:27Z</time></trkpt><trkpt lat="37.03981042175145" lon="14.693460015004204"><ele>463.0</ele><time>2026-03-29T13:02:28Z</time></trkpt><trkpt lat="37.03972440510433" lon="14.693485487470305"><ele>465.6666666666667</ele><time>2026-03-29T13:02:29Z</time></trkpt><trkpt lat="37.039595806064874" lon="14.693523207600007"><ele>468.33333333333337</ele><time>2026-03-29T13:02:30Z</time></trkpt><trkpt lat="37.03942886647879" lon="14.693571425913676"><ele>471.0</ele><time>2026-03-29T13:02:31Z</time></trkpt><trkpt lat="37.0392499034961" lon="14.693621724515202"><ele>473.75</ele><time>2026-03-29T13:02:32Z</time></trkpt><trkpt lat="37.039095844764454" lon="14.693663935745361"><ele>476.5</ele><time>2026-03-29T13:02:33Z</time></trkpt><trkpt lat="37.03895154063729" lon="14.693702403903705"><ele>479.25</ele><time>2026-03-29T13:02:34Z</time></trkpt><trkpt lat="37.03881975980843" lon="14.69373683110863"><ele>482.0</ele><time>2026-03-29T13:02:35Z</time></trkpt><trkpt lat="37.03868471839606" lon="14.693769156168054"><ele>482.0</ele><time>2026-03-29T13:02:36Z</time></trkpt><trkpt lat="37.03852950271961" lon="14.69380153185933"><ele>482.0</ele><time>2026-03-29T13:02:37Z</time></trkpt><trkpt lat="37.03834977604778" lon="14.693840242047234"><ele>482.0</ele><time>2026-03-29T13:02:38Z</time></trkpt><trkpt lat="37.0382090835091" lon="14.693870291893953"><ele>485.20000000000005</ele><time>2026-03-29T13:02:39Z</time></trkpt><trkpt lat="37.03810176013332" lon="14.693881760221364"><ele>488.40000000000003</ele><time>2026-03-29T13:02:40Z</time></trkpt><trkpt lat="37.038009830855216" lon="14.69388390663397"><ele>491.59999999999997</ele><time>2026-03-29T13:02:41Z</time></trkpt><trkpt lat="37.03795081051615" lon="14.69391684400878"><ele>494.79999999999995</ele><time>2026-03-29T13:02:42Z</time></trkpt><trkpt lat="37.03787626385904" lon="14.693853165092793"><ele>498.0</ele><time>2026-03-29T13:02:43Z</time></trkpt><trkpt lat="37.03781431011851" lon="14.693752334528362"><ele>498.0</ele><time>2026-03-29T13:02:44Z</time></trkpt><trkpt lat="37.03776363630866" lon="14.693652152697034"><ele>498.0</ele><time>2026-03-29T13:02:45Z</time></trkpt><trkpt lat="37.0377184921671" lon="14.693561856394668"><ele>498.0</ele><time>2026-03-29T13:02:46Z</time></trkpt><trkpt lat="37.03767835568524" lon="14.693465982847647"><ele>498.0</ele><time>2026-03-29T13:02:47Z</time></trkpt><trkpt lat="37.03766710105579" lon="14.693360535824405"><ele>498.0</ele><time>2026-03-29T13:02:49Z</time></trkpt><trkpt lat="37.03766993352835" lon="14.693279238516261"><ele>498.0</ele><time>2026-03-29T13:02:51Z</time></trkpt><trkpt lat="37.03772154901215" lon="14.693173173243027"><ele>497.0</ele><time>2026-03-29T13:02:55Z</time></trkpt><trkpt lat="37.03777368541305" lon="14.693102362505469"><ele>496.0</ele><time>2026-03-29T13:02:56Z</time></trkpt><trkpt lat="37.03785442482877" lon="14.69299475108912"><ele>495.0</ele><time>2026-03-29T13:02:57Z</time></trkpt><trkpt lat="37.03795211316146" lon="14.692864037410304"><ele>494.0</ele><time>2026-03-29T13:02:58Z</time></trkpt><trkpt lat="37.038074767934916" lon="14.692722780610143"><ele>492.0</ele><time>2026-03-29T13:02:59Z</time></trkpt><trkpt lat="37.03819594387622" lon="14.692584355975193"><ele>490.0</ele><time>2026-03-29T13:03:00Z</time></trkpt><trkpt lat="37.03831416363453" lon="14.692439599251964"><ele>488.0</ele><time>2026-03-29T13:03:01Z</time></trkpt><trkpt lat="37.038432151409424" lon="14.692296770618867"><ele>486.0</ele><time>2026-03-29T13:03:02Z</time></trkpt><trkpt lat="37.03854714027862" lon="14.692149142281755"><ele>484.0</ele><time>2026-03-29T13:03:03Z</time></trkpt><trkpt lat="37.03866983790522" lon="14.692003103203831"><ele>482.0</ele><time>2026-03-29T13:03:04Z</time></trkpt><trkpt lat="37.038776949146566" lon="14.691870755004794"><ele>481.25</ele><time>2026-03-29T13:03:05Z</time></trkpt><trkpt lat="37.03887033644477" lon="14.691742488313043"><ele>480.5</ele><time>2026-03-29T13:03:06Z</time></trkpt><trkpt lat="37.038962395612245" lon="14.691618409979627"><ele>479.75</ele><time>2026-03-29T13:03:07Z</time></trkpt><trkpt lat="37.039059654014224" lon="14.69149672124216"><ele>479.0</ele><time>2026-03-29T13:03:08Z</time></trkpt><trkpt lat="37.03914189191829" lon="14.691369333659269"><ele>477.5</ele><time>2026-03-29T13:03:09Z</time></trkpt><trkpt lat="37.03922158382559" lon="14.69123982477172"><ele>476.0</ele><time>2026-03-29T13:03:10Z</time></trkpt><trkpt lat="37.03929773195115" lon="14.691090295994098"><ele>474.5</ele><time>2026-03-29T13:03:11Z</time></trkpt><trkpt lat="37.03937510951438" lon="14.690945243358986"><ele>473.0</ele><time>2026-03-29T13:03:12Z</time></trkpt><trkpt lat="37.03944864913499" lon="14.69081482894397"><ele>472.25</ele><time>2026-03-29T13:03:13Z</time></trkpt><trkpt lat="37.03952774646055" lon="14.690675768291944"><ele>471.5</ele><time>2026-03-29T13:03:14Z</time></trkpt><trkpt lat="37.03960327207094" lon="14.690544954229981"><ele>470.75</ele><time>2026-03-29T13:03:15Z</time></trkpt><trkpt lat="37.03967371704342" lon="14.690412411546248"><ele>470.0</ele><time>2026-03-29T13:03:16Z</time></trkpt><trkpt lat="37.0397438582308" lon="14.690280161722384"><ele>468.25</ele><time>2026-03-29T13:03:17Z</time></trkpt><trkpt lat="37.03980399716689" lon="14.690152297407131"><ele>466.5</ele><time>2026-03-29T13:03:18Z</time></trkpt><trkpt lat="37.03985941859475" lon="14.690021924778552"><ele>464.75</ele><time>2026-03-29T13:03:19Z</time></trkpt><trkpt lat="37.039913199587396" lon="14.68988914552389"><ele>463.0</ele><time>2026-03-29T13:03:20Z</time></trkpt><trkpt lat="37.03998101755834" lon="14.689763768065456"><ele>461.59999999999997</ele><time>2026-03-29T13:03:21Z</time></trkpt><trkpt lat="37.040054956249435" lon="14.689646764623522"><ele>460.19999999999993</ele><time>2026-03-29T13:03:22Z</time></trkpt><trkpt lat="37.04012291448868" lon="14.6895405761717"><ele>458.8</ele><time>2026-03-29T13:03:23Z</time></trkpt><trkpt lat="37.04020604789176" lon="14.689438282473805"><ele>457.4</ele><time>2026-03-29T13:03:24Z</time></trkpt><trkpt lat="37.04026622482107" lon="14.689333730236251"><ele>456.0</ele><time>2026-03-29T13:03:25Z</time></trkpt><trkpt lat="37.040324905795465" lon="14.689234286838529"><ele>454.6</ele><time>2026-03-29T13:03:26Z</time></trkpt><trkpt lat="37.040394737899206" lon="14.689129041184907"><ele>453.20000000000005</ele><time>2026-03-29T13:03:27Z</time></trkpt><trkpt lat="37.04045464189048" lon="14.689022655326626"><ele>451.79999999999995</ele><time>2026-03-29T13:03:28Z</time></trkpt><trkpt lat="37.040525436601605" lon="14.688912092466246"><ele>450.4</ele><time>2026-03-29T13:03:29Z</time></trkpt><trkpt lat="37.040586978081244" lon="14.688802423108548"><ele>449.0</ele><time>2026-03-29T13:03:30Z</time></trkpt><trkpt lat="37.040651172896816" lon="14.688703939793008"><ele>449.0</ele><time>2026-03-29T13:03:31Z</time></trkpt><trkpt lat="37.04072489791065" lon="14.688614287688688"><ele>449.0</ele><time>2026-03-29T13:03:32Z</time></trkpt><trkpt lat="37.040803464325194" lon="14.688541522189594"><ele>449.0</ele><time>2026-03-29T13:03:33Z</time></trkpt><trkpt lat="37.04087032003" lon="14.688466650175126"><ele>449.0</ele><time>2026-03-29T13:03:34Z</time></trkpt><trkpt lat="37.04093958958936" lon="14.688389839063692"><ele>449.0</ele><time>2026-03-29T13:03:35Z</time></trkpt><trkpt lat="37.04101638150006" lon="14.688326319178978"><ele>447.0</ele><time>2026-03-29T13:03:36Z</time></trkpt><trkpt lat="37.04109652606745" lon="14.688264613091164"><ele>445.0</ele><time>2026-03-29T13:03:37Z</time></trkpt><trkpt lat="37.04117114727773" lon="14.68819717932302"><ele>443.0</ele><time>2026-03-29T13:03:38Z</time></trkpt><trkpt lat="37.0412494205468" lon="14.688124676042621"><ele>441.0</ele><time>2026-03-29T13:03:39Z</time></trkpt><trkpt lat="37.041336224854234" lon="14.68804402489063"><ele>439.0</ele><time>2026-03-29T13:03:40Z</time></trkpt><trkpt lat="37.041419289029896" lon="14.687973235095978"><ele>439.0</ele><time>2026-03-29T13:03:41Z</time></trkpt><trkpt lat="37.04149884646092" lon="14.687903645227044"><ele>439.0</ele><time>2026-03-29T13:03:42Z</time></trkpt><trkpt lat="37.04157582270051" lon="14.687833741584589"><ele>439.0</ele><time>2026-03-29T13:03:43Z</time></trkpt><trkpt lat="37.04164064369441" lon="14.687756573372539"><ele>439.0</ele><time>2026-03-29T13:03:44Z</time></trkpt><trkpt lat="37.04171060033446" lon="14.687662615167799"><ele>439.0</ele><time>2026-03-29T13:03:45Z</time></trkpt><trkpt lat="37.041794345460076" lon="14.687573571908262"><ele>436.25</ele><time>2026-03-29T13:03:46Z</time></trkpt><trkpt lat="37.041890107169856" lon="14.687482329999066"><ele>433.5</ele><time>2026-03-29T13:03:47Z</time></trkpt><trkpt lat="37.04200891395336" lon="14.687429845913789"><ele>430.75</ele><time>2026-03-29T13:03:48Z</time></trkpt><trkpt lat="37.04213079676477" lon="14.687385072308476"><ele>428.0</ele><time>2026-03-29T13:03:49Z</time></trkpt><trkpt lat="37.042236318151005" lon="14.687316537518416"><ele>428.0</ele><time>2026-03-29T13:03:50Z</time></trkpt><trkpt lat="37.04234223508136" lon="14.687204001274184"><ele>428.0</ele><time>2026-03-29T13:03:51Z</time></trkpt><trkpt lat="37.042426456193525" lon="14.687099014510505"><ele>428.0</ele><time>2026-03-29T13:03:52Z</time></trkpt><trkpt lat="37.04248359844971" lon="14.686985808277251"><ele>428.0</ele><time>2026-03-29T13:03:53Z</time></trkpt><trkpt lat="37.04254071400203" lon="14.686871685179305"><ele>426.49999999999994</ele><time>2026-03-29T13:03:54Z</time></trkpt><trkpt lat="37.04258094374146" lon="14.686755980241694"><ele>425.0</ele><time>2026-03-29T13:03:55Z</time></trkpt><trkpt lat="37.04260806810615" lon="14.68663970134029"><ele>423.5</ele><time>2026-03-29T13:03:56Z</time></trkpt><trkpt lat="37.042640839186724" lon="14.686543764639053"><ele>422.0</ele><time>2026-03-29T13:03:57Z</time></trkpt><trkpt lat="37.04266931283993" lon="14.686439177906179"><ele>420.49999999999994</ele><time>2026-03-29T13:03:58Z</time></trkpt><trkpt lat="37.04269257953902" lon="14.686354546095492"><ele>419.0</ele><time>2026-03-29T13:03:59Z</time></trkpt><trkpt lat="37.042725881564046" lon="14.686240711386489"><ele>419.0</ele><time>2026-03-29T13:04:01Z</time></trkpt><trkpt lat="37.04262804048054" lon="14.686148881341953"><ele>419.0</ele><time>2026-03-29T13:04:05Z</time></trkpt><trkpt lat="37.042552936700325" lon="14.686136752335313"><ele>419.0</ele><time>2026-03-29T13:04:06Z</time></trkpt><trkpt lat="37.042444123306836" lon="14.686117527530214"><ele>419.0</ele><time>2026-03-29T13:04:07Z</time></trkpt><trkpt lat="37.042297949668665" lon="14.68609938583084"><ele>418.3333333333333</ele><time>2026-03-29T13:04:08Z</time></trkpt><trkpt lat="37.042135298033834" lon="14.686059590801566"><ele>417.66666666666663</ele><time>2026-03-29T13:04:09Z</time></trkpt><trkpt lat="37.04195886575952" lon="14.686025745895316"><ele>417.0</ele><time>2026-03-29T13:04:10Z</time></trkpt><trkpt lat="37.041757908082126" lon="14.685956572591484"><ele>418.0</ele><time>2026-03-29T13:04:11Z</time></trkpt><trkpt lat="37.041570417217095" lon="14.685822835600055"><ele>419.0</ele><time>2026-03-29T13:04:12Z</time></trkpt><trkpt lat="37.04137034524853" lon="14.685646081224245"><ele>419.0</ele><time>2026-03-29T13:04:13Z</time></trkpt><trkpt lat="37.04115799610802" lon="14.685453548750488"><ele>419.0</ele><time>2026-03-29T13:04:14Z</time></trkpt><trkpt lat="37.040948443940664" lon="14.685254685435032"><ele>420.0</ele><time>2026-03-29T13:04:15Z</time></trkpt><trkpt lat="37.04076834141953" lon="14.685092019627193"><ele>421.0</ele><time>2026-03-29T13:04:16Z</time></trkpt><trkpt lat="37.040605809443605" lon="14.684947026390748"><ele>422.0</ele><time>2026-03-29T13:04:17Z</time></trkpt><trkpt lat="37.040475821209256" lon="14.684828075576576"><ele>422.0</ele><time>2026-03-29T13:04:18Z</time></trkpt><trkpt lat="37.040335356390884" lon="14.684718314711743"><ele>422.0</ele><time>2026-03-29T13:04:19Z</time></trkpt><trkpt lat="37.040222472936996" lon="14.684592713122806"><ele>422.0</ele><time>2026-03-29T13:04:20Z</time></trkpt><trkpt lat="37.0400899724675" lon="14.684468776643044"><ele>422.66666666666663</ele><time>2026-03-29T13:04:21Z</time></trkpt><trkpt lat="37.039957428008336" lon="14.68433546042573"><ele>423.33333333333337</ele><time>2026-03-29T13:04:22Z</time></trkpt><trkpt lat="37.03982898412551" lon="14.68422614402027"><ele>424.0</ele><time>2026-03-29T13:04:23Z</time></trkpt><trkpt lat="37.03971426594796" lon="14.684137017747002"><ele>424.0</ele><time>2026-03-29T13:04:24Z</time></trkpt><trkpt lat="37.0396211439241" lon="14.684059038310366"><ele>424.0</ele><time>2026-03-29T13:04:25Z</time></trkpt><trkpt lat="37.03952023011683" lon="14.683985939447265"><ele>424.0</ele><time>2026-03-29T13:04:26Z</time></trkpt><trkpt lat="37.039423369861446" lon="14.683902190258987"><ele>424.0</ele><time>2026-03-29T13:04:27Z</time></trkpt><trkpt lat="37.039310957331885" lon="14.683811158068401"><ele>424.0</ele><time>2026-03-29T13:04:28Z</time></trkpt><trkpt lat="37.03922029342263" lon="14.683688882954197"><ele>424.0</ele><time>2026-03-29T13:04:29Z</time></trkpt><trkpt lat="37.03916290078046" lon="14.683543466203023"><ele>424.0</ele><time>2026-03-29T13:04:30Z</time></trkpt><trkpt lat="37.03913101077386" lon="14.683370946754536"><ele>424.0</ele><time>2026-03-29T13:04:31Z</time></trkpt><trkpt lat="37.039134255621015" lon="14.683183300931177"><ele>425.33333333333337</ele><time>2026-03-29T13:04:32Z</time></trkpt><trkpt lat="37.03909515833231" lon="14.682981962131104"><ele>426.66666666666663</ele><time>2026-03-29T13:04:33Z</time></trkpt><trkpt lat="37.039030194487644" lon="14.682784925819437"><ele>428.0</ele><time>2026-03-29T13:04:34Z</time></trkpt><trkpt lat="37.038958265137055" lon="14.682615958500959"><ele>428.0</ele><time>2026-03-29T13:04:35Z</time></trkpt><trkpt lat="37.03887612896544" lon="14.682462560299761"><ele>428.0</ele><time>2026-03-29T13:04:36Z</time></trkpt><trkpt lat="37.03879348796908" lon="14.682324331197046"><ele>428.0</ele><time>2026-03-29T13:04:37Z</time></trkpt><trkpt lat="37.03872148025927" lon="14.682185558642153"><ele>428.0</ele><time>2026-03-29T13:04:38Z</time></trkpt><trkpt lat="37.03863135382039" lon="14.682054632250345"><ele>426.66666666666663</ele><time>2026-03-29T13:04:39Z</time></trkpt><trkpt lat="37.03859420833094" lon="14.68188109959821"><ele>425.33333333333337</ele><time>2026-03-29T13:04:40Z</time></trkpt><trkpt lat="37.03855563721464" lon="14.681692820650195"><ele>424.0</ele><time>2026-03-29T13:04:41Z</time></trkpt><trkpt lat="37.03860391762242" lon="14.681461619535986"><ele>424.0</ele><time>2026-03-29T13:04:42Z</time></trkpt><trkpt lat="37.03864209394835" lon="14.681209022595901"><ele>424.0</ele><time>2026-03-29T13:04:43Z</time></trkpt><trkpt lat="37.03865875088445" lon="14.68097167581581"><ele>424.0</ele><time>2026-03-29T13:04:44Z</time></trkpt><trkpt lat="37.03866769622938" lon="14.68078446216868"><ele>422.5</ele><time>2026-03-29T13:04:45Z</time></trkpt><trkpt lat="37.0386837002901" lon="14.68062310000248"><ele>421.0</ele><time>2026-03-29T13:04:46Z</time></trkpt><trkpt lat="37.03868911133865" lon="14.680471852748656"><ele>419.5</ele><time>2026-03-29T13:04:47Z</time></trkpt><trkpt lat="37.03875027556129" lon="14.680329086908268"><ele>418.0</ele><time>2026-03-29T13:04:48Z</time></trkpt><trkpt lat="37.03879532484438" lon="14.680177775414467"><ele>417.4</ele><time>2026-03-29T13:04:49Z</time></trkpt><trkpt lat="37.03884321747579" lon="14.680026554196083"><ele>416.79999999999995</ele><time>2026-03-29T13:04:50Z</time></trkpt><trkpt lat="37.03886669910881" lon="14.67988839554726"><ele>416.2</ele><time>2026-03-29T13:04:51Z</time></trkpt><trkpt lat="37.03888961266391" lon="14.679786428635893"><ele>415.6</ele><time>2026-03-29T13:04:52Z</time></trkpt><trkpt lat="37.038912915691945" lon="14.679702588741069"><ele>415.0</ele><time>2026-03-29T13:04:53Z</time></trkpt><trkpt lat="37.03893055249614" lon="14.679616629969958"><ele>415.0</ele><time>2026-03-29T13:04:55Z</time></trkpt><trkpt lat="37.038988613710785" lon="14.679490001009082"><ele>415.0</ele><time>2026-03-29T13:04:57Z</time></trkpt><trkpt lat="37.039031255849906" lon="14.679384101520192"><ele>415.0</ele><time>2026-03-29T13:04:58Z</time></trkpt><trkpt lat="37.03907405032402" lon="14.679226936250284"><ele>415.0</ele><time>2026-03-29T13:04:59Z</time></trkpt><trkpt lat="37.03914132184476" lon="14.679050952777828"><ele>412.6666666666667</ele><time>2026-03-29T13:05:00Z</time></trkpt><trkpt lat="37.039217986487095" lon="14.678845724687642"><ele>410.33333333333337</ele><time>2026-03-29T13:05:01Z</time></trkpt><trkpt lat="37.03928635093618" lon="14.678661730617879"><ele>408.0</ele><time>2026-03-29T13:05:02Z</time></trkpt><trkpt lat="37.03934665092608" lon="14.678494908152985"><ele>407.4</ele><time>2026-03-29T13:05:03Z</time></trkpt><trkpt lat="37.03940443249694" lon="14.678372486097743"><ele>406.79999999999995</ele><time>2026-03-29T13:05:04Z</time></trkpt><trkpt lat="37.03942608810893" lon="14.678265946401627"><ele>406.2</ele><time>2026-03-29T13:05:05Z</time></trkpt><trkpt lat="37.03946800978967" lon="14.678193571977088"><ele>405.6</ele><time>2026-03-29T13:05:06Z</time></trkpt><trkpt lat="37.03948472241701" lon="14.678094269560123"><ele>405.0</ele><time>2026-03-29T13:05:08Z</time></trkpt><trkpt lat="37.03959229869967" lon="14.678200804205263"><ele>405.0</ele><time>2026-03-29T13:05:13Z</time></trkpt><trkpt lat="37.039607503552055" lon="14.67828729840575"><ele>405.0</ele><time>2026-03-29T13:06:31Z</time></trkpt><trkpt lat="37.03965759331909" lon="14.678169280119029"><ele>405.0</ele><time>2026-03-29T13:07:56Z</time></trkpt><trkpt lat="37.03957456217402" lon="14.67814319693067"><ele>405.0</ele><time>2026-03-29T13:08:26Z</time></trkpt><trkpt lat="37.03951381789764" lon="14.6780975646877"><ele>405.0</ele><time>2026-03-29T13:09:09Z</time></trkpt><trkpt lat="37.039462077922636" lon="14.678148889703529"><ele>405.0</ele><time>2026-03-29T13:09:12Z</time></trkpt><trkpt lat="37.03943902754179" lon="14.678280131033315"><ele>405.0</ele><time>2026-03-29T13:09:15Z</time></trkpt><trkpt lat="37.039399411062035" lon="14.678371159560566"><ele>405.0</ele><time>2026-03-29T13:09:17Z</time></trkpt><trkpt lat="37.03936479002996" lon="14.678488639223387"><ele>405.0</ele><time>2026-03-29T13:09:19Z</time></trkpt><trkpt lat="37.03931869483377" lon="14.678607437514263"><ele>405.0</ele><time>2026-03-29T13:09:21Z</time></trkpt><trkpt lat="37.03929216672984" lon="14.678695073290868"><ele>405.0</ele><time>2026-03-29T13:09:23Z</time></trkpt><trkpt lat="37.03924111312582" lon="14.678773195362627"><ele>405.0</ele><time>2026-03-29T13:09:44Z</time></trkpt><trkpt lat="37.0392223746666" lon="14.678884199413567"><ele>405.5</ele><time>2026-03-29T13:09:47Z</time></trkpt><trkpt lat="37.039178586093854" lon="14.678968561636127"><ele>406.0</ele><time>2026-03-29T13:09:50Z</time></trkpt><trkpt lat="37.0391429052132" lon="14.67905717730689"><ele>406.5</ele><time>2026-03-29T13:09:53Z</time></trkpt><trkpt lat="37.039086359337574" lon="14.679157469722613"><ele>407.0</ele><time>2026-03-29T13:09:55Z</time></trkpt><trkpt lat="37.03906378942557" lon="14.679233487209771"><ele>407.5</ele><time>2026-03-29T13:09:56Z</time></trkpt><trkpt lat="37.03902621644545" lon="14.679327229209612"><ele>408.0</ele><time>2026-03-29T13:09:57Z</time></trkpt><trkpt lat="37.038892330928604" lon="14.679588235745838"><ele>409.75</ele><time>2026-03-29T13:09:59Z</time></trkpt><trkpt lat="37.03888098009269" lon="14.67975596176089"><ele>411.5</ele><time>2026-03-29T13:10:00Z</time></trkpt><trkpt lat="37.03881094369455" lon="14.67988972037969"><ele>413.25</ele><time>2026-03-29T13:10:01Z</time></trkpt><trkpt lat="37.03877839270651" lon="14.680017591215924"><ele>415.0</ele><time>2026-03-29T13:10:02Z</time></trkpt><trkpt lat="37.038739412937964" lon="14.680169623036113"><ele>415.00000000000006</ele><time>2026-03-29T13:10:03Z</time></trkpt><trkpt lat="37.03871495215819" lon="14.68026240283375"><ele>415.0</ele><time>2026-03-29T13:10:04Z</time></trkpt><trkpt lat="37.03868275872401" lon="14.680360623552508"><ele>415.0</ele><time>2026-03-29T13:10:06Z</time></trkpt><trkpt lat="37.03862916225014" lon="14.680439079158388"><ele>415.0</ele><time>2026-03-29T13:10:09Z</time></trkpt><trkpt lat="37.038645648118695" lon="14.680538350315334"><ele>415.00000000000006</ele><time>2026-03-29T13:10:11Z</time></trkpt><trkpt lat="37.03861914293168" lon="14.680662838233223"><ele>415.0</ele><time>2026-03-29T13:10:13Z</time></trkpt><trkpt lat="37.03861321614905" lon="14.680742964472511"><ele>415.50000000000006</ele><time>2026-03-29T13:10:15Z</time></trkpt><trkpt lat="37.03860457292502" lon="14.680875196066088"><ele>416.0</ele><time>2026-03-29T13:10:17Z</time></trkpt><trkpt lat="37.03859765291812" lon="14.680992325282897"><ele>416.5</ele><time>2026-03-29T13:10:19Z</time></trkpt><trkpt lat="37.03859248121438" lon="14.681079863617219"><ele>417.0</ele><time>2026-03-29T13:10:21Z</time></trkpt><trkpt lat="37.038586648237874" lon="14.68116855136663"><ele>417.50000000000006</ele><time>2026-03-29T13:10:22Z</time></trkpt><trkpt lat="37.038581403782565" lon="14.681250328241616"><ele>418.0</ele><time>2026-03-29T13:10:24Z</time></trkpt><trkpt lat="37.03859606733167" lon="14.681165085736975"><ele>418.0</ele><time>2026-03-29T13:10:27Z</time></trkpt><trkpt lat="37.03866881872055" lon="14.681101985066373"><ele>418.0</ele><time>2026-03-29T13:10:28Z</time></trkpt><trkpt lat="37.03868532103859" lon="14.681001065243095"><ele>418.0</ele><time>2026-03-29T13:10:29Z</time></trkpt><trkpt lat="37.03869767764689" lon="14.680822180331312"><ele>418.0</ele><time>2026-03-29T13:10:30Z</time></trkpt><trkpt lat="37.0387113587552" lon="14.68063773663767"><ele>418.0</ele><time>2026-03-29T13:10:31Z</time></trkpt><trkpt lat="37.038719364818334" lon="14.680469202602557"><ele>418.0</ele><time>2026-03-29T13:10:32Z</time></trkpt><trkpt lat="37.03875677189153" lon="14.680318579403018"><ele>418.0</ele><time>2026-03-29T13:10:33Z</time></trkpt><trkpt lat="37.0388306090722" lon="14.680128093221997"><ele>418.0</ele><time>2026-03-29T13:10:34Z</time></trkpt><trkpt lat="37.038872789593164" lon="14.679960286131704"><ele>417.50000000000006</ele><time>2026-03-29T13:10:35Z</time></trkpt><trkpt lat="37.03891840101948" lon="14.679855956588037"><ele>417.0</ele><time>2026-03-29T13:10:36Z</time></trkpt><trkpt lat="37.03894040460484" lon="14.679747496183609"><ele>416.5</ele><time>2026-03-29T13:10:38Z</time></trkpt><trkpt lat="37.038881832269084" lon="14.679677625351529"><ele>416.0</ele><time>2026-03-29T13:10:44Z</time></trkpt><trkpt lat="37.038827870086465" lon="14.679625638421733"><ele>415.50000000000006</ele><time>2026-03-29T13:10:47Z</time></trkpt><trkpt lat="37.03876439785267" lon="14.679592206159171"><ele>415.0</ele><time>2026-03-29T13:12:29Z</time></trkpt><trkpt lat="37.0387036021859" lon="14.679632521689022"><ele>415.0</ele><time>2026-03-29T13:14:18Z</time></trkpt><trkpt lat="37.03874216952657" lon="14.679564378418796"><ele>415.0</ele><time>2026-03-29T13:14:44Z</time></trkpt><trkpt lat="37.03867739377266" lon="14.679564728553776"><ele>415.0</ele><time>2026-03-29T13:16:38Z</time></trkpt><trkpt lat="37.038744884945174" lon="14.67963823310689"><ele>415.0</ele><time>2026-03-29T13:17:33Z</time></trkpt><trkpt lat="37.03878286396575" lon="14.679525212468448"><ele>415.0</ele><time>2026-03-29T13:19:03.02Z</time></trkpt></trkseg></trk></gpx>